<?xml version="1.0" encoding="UTF-8" standalone="no" ?>
<gpx xmlns="http://www.topografix.com/GPX/1/1" xmlns:xsi="http://www.w3.org/2001/XMLSchema-instance" xsi:schemaLocation="http://www.topografix.com/GPX/1/1 http://www.topografix.com/GPX/1/1/gpx.xsd" version="1.1" creator="VisuGPX - https://www.visugpx.com">
  <metadata>
    <name>Croix de Fer &amp;gt; Glandon</name>
    <desc><![CDATA[Avec Nico]]></desc>
  </metadata>
  <trk>
    <name><![CDATA[Croix de Fer &gt; Glandon_1]]></name>
    <trkseg>
      <trkpt lat="45.12846" lon="6.04091">
        <ele>729.1</ele>
        <time>2022-06-18T04:22:42Z</time>
      </trkpt>
      <trkpt lat="45.12846" lon="6.04091">
        <ele>729.1</ele>
        <time>2022-06-18T04:22:43Z</time>
      </trkpt>
      <trkpt lat="45.12846" lon="6.04091">
        <ele>729.1</ele>
        <time>2022-06-18T04:22:44Z</time>
      </trkpt>
      <trkpt lat="45.12846" lon="6.04091">
        <ele>729.1</ele>
        <time>2022-06-18T04:22:45Z</time>
      </trkpt>
      <trkpt lat="45.12846" lon="6.04091">
        <ele>729.1</ele>
        <time>2022-06-18T04:22:46Z</time>
      </trkpt>
      <trkpt lat="45.12846" lon="6.04091">
        <ele>729.1</ele>
        <time>2022-06-18T04:22:47Z</time>
      </trkpt>
      <trkpt lat="45.12846" lon="6.04091">
        <ele>729.1</ele>
        <time>2022-06-18T04:22:48Z</time>
      </trkpt>
      <trkpt lat="45.12846" lon="6.04091">
        <ele>729.1</ele>
        <time>2022-06-18T04:22:49Z</time>
      </trkpt>
      <trkpt lat="45.12846" lon="6.04091">
        <ele>729.1</ele>
        <time>2022-06-18T04:22:50Z</time>
      </trkpt>
      <trkpt lat="45.12846" lon="6.04091">
        <ele>729.1</ele>
        <time>2022-06-18T04:22:51Z</time>
      </trkpt>
      <trkpt lat="45.12846" lon="6.04091">
        <ele>729.1</ele>
        <time>2022-06-18T04:22:52Z</time>
      </trkpt>
      <trkpt lat="45.12848" lon="6.04089">
        <ele>729.2</ele>
        <time>2022-06-18T04:24:00Z</time>
      </trkpt>
      <trkpt lat="45.12848" lon="6.04089">
        <ele>729.3</ele>
        <time>2022-06-18T04:24:01Z</time>
      </trkpt>
      <trkpt lat="45.12847" lon="6.04089">
        <ele>729.3</ele>
        <time>2022-06-18T04:24:02Z</time>
      </trkpt>
      <trkpt lat="45.12845" lon="6.04088">
        <ele>729.4</ele>
        <time>2022-06-18T04:24:03Z</time>
      </trkpt>
      <trkpt lat="45.12845" lon="6.04088">
        <ele>729.4</ele>
        <time>2022-06-18T04:24:04Z</time>
      </trkpt>
      <trkpt lat="45.12845" lon="6.04088">
        <ele>729.4</ele>
        <time>2022-06-18T04:24:05Z</time>
      </trkpt>
      <trkpt lat="45.12844" lon="6.04088">
        <ele>729.5</ele>
        <time>2022-06-18T04:24:06Z</time>
      </trkpt>
      <trkpt lat="45.12844" lon="6.04089">
        <ele>729.5</ele>
        <time>2022-06-18T04:24:07Z</time>
      </trkpt>
      <trkpt lat="45.12844" lon="6.0409">
        <ele>729.5</ele>
        <time>2022-06-18T04:24:08Z</time>
      </trkpt>
      <trkpt lat="45.12844" lon="6.04091">
        <ele>729.6</ele>
        <time>2022-06-18T04:24:09Z</time>
      </trkpt>
      <trkpt lat="45.12844" lon="6.04091">
        <ele>729.6</ele>
        <time>2022-06-18T04:24:10Z</time>
      </trkpt>
      <trkpt lat="45.12844" lon="6.04091">
        <ele>729.6</ele>
        <time>2022-06-18T04:24:11Z</time>
      </trkpt>
      <trkpt lat="45.12844" lon="6.04091">
        <ele>729.6</ele>
        <time>2022-06-18T04:24:12Z</time>
      </trkpt>
      <trkpt lat="45.12844" lon="6.04091">
        <ele>729.6</ele>
        <time>2022-06-18T04:24:13Z</time>
      </trkpt>
      <trkpt lat="45.12844" lon="6.04091">
        <ele>729.6</ele>
        <time>2022-06-18T04:24:14Z</time>
      </trkpt>
      <trkpt lat="45.12844" lon="6.0409">
        <ele>729.6</ele>
        <time>2022-06-18T04:24:15Z</time>
      </trkpt>
      <trkpt lat="45.12844" lon="6.0409">
        <ele>729.6</ele>
        <time>2022-06-18T04:24:16Z</time>
      </trkpt>
      <trkpt lat="45.12844" lon="6.0409">
        <ele>729.6</ele>
        <time>2022-06-18T04:24:17Z</time>
      </trkpt>
      <trkpt lat="45.12846" lon="6.04089">
        <ele>729.8</ele>
        <time>2022-06-18T04:24:52Z</time>
      </trkpt>
      <trkpt lat="45.1285" lon="6.04088">
        <ele>729.9</ele>
        <time>2022-06-18T04:24:53Z</time>
      </trkpt>
      <trkpt lat="45.1285" lon="6.04088">
        <ele>729.9</ele>
        <time>2022-06-18T04:24:54Z</time>
      </trkpt>
      <trkpt lat="45.1285" lon="6.04088">
        <ele>730</ele>
        <time>2022-06-18T04:24:55Z</time>
      </trkpt>
      <trkpt lat="45.1285" lon="6.04088">
        <ele>730</ele>
        <time>2022-06-18T04:24:56Z</time>
      </trkpt>
      <trkpt lat="45.1285" lon="6.04088">
        <ele>730</ele>
        <time>2022-06-18T04:24:57Z</time>
      </trkpt>
      <trkpt lat="45.1285" lon="6.04088">
        <ele>730</ele>
        <time>2022-06-18T04:24:58Z</time>
      </trkpt>
      <trkpt lat="45.1285" lon="6.04088">
        <ele>730</ele>
        <time>2022-06-18T04:24:59Z</time>
      </trkpt>
      <trkpt lat="45.1285" lon="6.04088">
        <ele>730</ele>
        <time>2022-06-18T04:25:00Z</time>
      </trkpt>
      <trkpt lat="45.1285" lon="6.04088">
        <ele>730</ele>
        <time>2022-06-18T04:25:01Z</time>
      </trkpt>
      <trkpt lat="45.1285" lon="6.04088">
        <ele>730</ele>
        <time>2022-06-18T04:25:02Z</time>
      </trkpt>
      <trkpt lat="45.12849" lon="6.04088">
        <ele>730</ele>
        <time>2022-06-18T04:25:03Z</time>
      </trkpt>
      <trkpt lat="45.12851" lon="6.04086">
        <ele>730.1</ele>
        <time>2022-06-18T04:25:04Z</time>
      </trkpt>
      <trkpt lat="45.12851" lon="6.04084">
        <ele>730.2</ele>
        <time>2022-06-18T04:25:05Z</time>
      </trkpt>
      <trkpt lat="45.12851" lon="6.04084">
        <ele>730.2</ele>
        <time>2022-06-18T04:25:06Z</time>
      </trkpt>
      <trkpt lat="45.1285" lon="6.04085">
        <ele>730.2</ele>
        <time>2022-06-18T04:25:07Z</time>
      </trkpt>
      <trkpt lat="45.1285" lon="6.04086">
        <ele>730.3</ele>
        <time>2022-06-18T04:25:08Z</time>
      </trkpt>
      <trkpt lat="45.1285" lon="6.04087">
        <ele>730.3</ele>
        <time>2022-06-18T04:25:09Z</time>
      </trkpt>
      <trkpt lat="45.12849" lon="6.04088">
        <ele>730.4</ele>
        <time>2022-06-18T04:25:10Z</time>
      </trkpt>
      <trkpt lat="45.12849" lon="6.04088">
        <ele>730.4</ele>
        <time>2022-06-18T04:25:11Z</time>
      </trkpt>
      <trkpt lat="45.12848" lon="6.04091">
        <ele>730.5</ele>
        <time>2022-06-18T04:25:12Z</time>
      </trkpt>
      <trkpt lat="45.12847" lon="6.04093">
        <ele>730.6</ele>
        <time>2022-06-18T04:25:13Z</time>
      </trkpt>
      <trkpt lat="45.12847" lon="6.04093">
        <ele>730.6</ele>
        <time>2022-06-18T04:25:14Z</time>
      </trkpt>
      <trkpt lat="45.12848" lon="6.04093">
        <ele>730.7</ele>
        <time>2022-06-18T04:25:15Z</time>
      </trkpt>
      <trkpt lat="45.12849" lon="6.04092">
        <ele>730.7</ele>
        <time>2022-06-18T04:25:16Z</time>
      </trkpt>
      <trkpt lat="45.1285" lon="6.04092">
        <ele>730.8</ele>
        <time>2022-06-18T04:25:17Z</time>
      </trkpt>
      <trkpt lat="45.12851" lon="6.04092">
        <ele>730.8</ele>
        <time>2022-06-18T04:25:18Z</time>
      </trkpt>
      <trkpt lat="45.12852" lon="6.04092">
        <ele>730.9</ele>
        <time>2022-06-18T04:25:19Z</time>
      </trkpt>
      <trkpt lat="45.12852" lon="6.04092">
        <ele>730.9</ele>
        <time>2022-06-18T04:25:20Z</time>
      </trkpt>
      <trkpt lat="45.12853" lon="6.04091">
        <ele>731</ele>
        <time>2022-06-18T04:25:21Z</time>
      </trkpt>
      <trkpt lat="45.12854" lon="6.04091">
        <ele>731</ele>
        <time>2022-06-18T04:25:31Z</time>
      </trkpt>
      <trkpt lat="45.12855" lon="6.04091">
        <ele>731.1</ele>
        <time>2022-06-18T04:25:32Z</time>
      </trkpt>
      <trkpt lat="45.12856" lon="6.04091">
        <ele>731.1</ele>
        <time>2022-06-18T04:25:33Z</time>
      </trkpt>
      <trkpt lat="45.1286" lon="6.0409">
        <ele>731.4</ele>
        <time>2022-06-18T04:25:34Z</time>
      </trkpt>
      <trkpt lat="45.12861" lon="6.04089">
        <ele>731.4</ele>
        <time>2022-06-18T04:25:35Z</time>
      </trkpt>
      <trkpt lat="45.12864" lon="6.04087">
        <ele>732.5</ele>
        <time>2022-06-18T04:25:36Z</time>
      </trkpt>
      <trkpt lat="45.12867" lon="6.04085">
        <ele>732.6</ele>
        <time>2022-06-18T04:25:37Z</time>
      </trkpt>
      <trkpt lat="45.1287" lon="6.04082">
        <ele>732.8</ele>
        <time>2022-06-18T04:25:38Z</time>
      </trkpt>
      <trkpt lat="45.12873" lon="6.04077">
        <ele>733.3</ele>
        <time>2022-06-18T04:25:39Z</time>
      </trkpt>
      <trkpt lat="45.12876" lon="6.04073">
        <ele>733.4</ele>
        <time>2022-06-18T04:25:40Z</time>
      </trkpt>
      <trkpt lat="45.1288" lon="6.04069">
        <ele>733.5</ele>
        <time>2022-06-18T04:25:41Z</time>
      </trkpt>
      <trkpt lat="45.12882" lon="6.04067">
        <ele>734</ele>
        <time>2022-06-18T04:25:42Z</time>
      </trkpt>
      <trkpt lat="45.12885" lon="6.04065">
        <ele>734</ele>
        <time>2022-06-18T04:25:43Z</time>
      </trkpt>
      <trkpt lat="45.12889" lon="6.04066">
        <ele>734.1</ele>
        <time>2022-06-18T04:25:44Z</time>
      </trkpt>
      <trkpt lat="45.1289" lon="6.04068">
        <ele>734.1</ele>
        <time>2022-06-18T04:25:45Z</time>
      </trkpt>
      <trkpt lat="45.12892" lon="6.04074">
        <ele>734.1</ele>
        <time>2022-06-18T04:25:46Z</time>
      </trkpt>
      <trkpt lat="45.12893" lon="6.04079">
        <ele>734.2</ele>
        <time>2022-06-18T04:25:47Z</time>
      </trkpt>
      <trkpt lat="45.12894" lon="6.04083">
        <ele>734.2</ele>
        <time>2022-06-18T04:25:48Z</time>
      </trkpt>
      <trkpt lat="45.12896" lon="6.04087">
        <ele>734.2</ele>
        <time>2022-06-18T04:25:49Z</time>
      </trkpt>
      <trkpt lat="45.12897" lon="6.04091">
        <ele>734.3</ele>
        <time>2022-06-18T04:25:50Z</time>
      </trkpt>
      <trkpt lat="45.12899" lon="6.04095">
        <ele>734.3</ele>
        <time>2022-06-18T04:25:51Z</time>
      </trkpt>
      <trkpt lat="45.12901" lon="6.04099">
        <ele>734.3</ele>
        <time>2022-06-18T04:25:52Z</time>
      </trkpt>
      <trkpt lat="45.12904" lon="6.04101">
        <ele>734.4</ele>
        <time>2022-06-18T04:25:53Z</time>
      </trkpt>
      <trkpt lat="45.12905" lon="6.04102">
        <ele>734.4</ele>
        <time>2022-06-18T04:25:54Z</time>
      </trkpt>
      <trkpt lat="45.12907" lon="6.04106">
        <ele>734.4</ele>
        <time>2022-06-18T04:25:55Z</time>
      </trkpt>
      <trkpt lat="45.12908" lon="6.04107">
        <ele>734.4</ele>
        <time>2022-06-18T04:25:56Z</time>
      </trkpt>
      <trkpt lat="45.12908" lon="6.04109">
        <ele>734.4</ele>
        <time>2022-06-18T04:25:57Z</time>
      </trkpt>
      <trkpt lat="45.12909" lon="6.04112">
        <ele>734.5</ele>
        <time>2022-06-18T04:25:58Z</time>
      </trkpt>
      <trkpt lat="45.1291" lon="6.04114">
        <ele>734.5</ele>
        <time>2022-06-18T04:25:59Z</time>
      </trkpt>
      <trkpt lat="45.12912" lon="6.04121">
        <ele>734.5</ele>
        <time>2022-06-18T04:26:00Z</time>
      </trkpt>
      <trkpt lat="45.12913" lon="6.04127">
        <ele>734.5</ele>
        <time>2022-06-18T04:26:01Z</time>
      </trkpt>
      <trkpt lat="45.12917" lon="6.04136">
        <ele>734.6</ele>
        <time>2022-06-18T04:26:02Z</time>
      </trkpt>
      <trkpt lat="45.12919" lon="6.04143">
        <ele>734.7</ele>
        <time>2022-06-18T04:26:03Z</time>
      </trkpt>
      <trkpt lat="45.1292" lon="6.0415">
        <ele>734.7</ele>
        <time>2022-06-18T04:26:04Z</time>
      </trkpt>
      <trkpt lat="45.12921" lon="6.04156">
        <ele>734.7</ele>
        <time>2022-06-18T04:26:05Z</time>
      </trkpt>
      <trkpt lat="45.12921" lon="6.04162">
        <ele>734.6</ele>
        <time>2022-06-18T04:26:06Z</time>
      </trkpt>
      <trkpt lat="45.1292" lon="6.04168">
        <ele>734.6</ele>
        <time>2022-06-18T04:26:07Z</time>
      </trkpt>
      <trkpt lat="45.12918" lon="6.04175">
        <ele>734.7</ele>
        <time>2022-06-18T04:26:08Z</time>
      </trkpt>
      <trkpt lat="45.12916" lon="6.04181">
        <ele>734.8</ele>
        <time>2022-06-18T04:26:09Z</time>
      </trkpt>
      <trkpt lat="45.12915" lon="6.04185">
        <ele>734.9</ele>
        <time>2022-06-18T04:26:10Z</time>
      </trkpt>
      <trkpt lat="45.12912" lon="6.04191">
        <ele>735.1</ele>
        <time>2022-06-18T04:26:11Z</time>
      </trkpt>
      <trkpt lat="45.1291" lon="6.04195">
        <ele>735.3</ele>
        <time>2022-06-18T04:26:12Z</time>
      </trkpt>
      <trkpt lat="45.12908" lon="6.04199">
        <ele>735.4</ele>
        <time>2022-06-18T04:26:13Z</time>
      </trkpt>
      <trkpt lat="45.12905" lon="6.04206">
        <ele>735.7</ele>
        <time>2022-06-18T04:26:15Z</time>
      </trkpt>
      <trkpt lat="45.12902" lon="6.04211">
        <ele>736</ele>
        <time>2022-06-18T04:26:16Z</time>
      </trkpt>
      <trkpt lat="45.129" lon="6.04215">
        <ele>736.1</ele>
        <time>2022-06-18T04:26:17Z</time>
      </trkpt>
      <trkpt lat="45.12898" lon="6.04219">
        <ele>736.4</ele>
        <time>2022-06-18T04:26:18Z</time>
      </trkpt>
      <trkpt lat="45.12898" lon="6.04221">
        <ele>736.4</ele>
        <time>2022-06-18T04:26:19Z</time>
      </trkpt>
      <trkpt lat="45.12895" lon="6.04226">
        <ele>736.7</ele>
        <time>2022-06-18T04:26:20Z</time>
      </trkpt>
      <trkpt lat="45.12893" lon="6.0423">
        <ele>736.9</ele>
        <time>2022-06-18T04:26:22Z</time>
      </trkpt>
      <trkpt lat="45.12891" lon="6.04234">
        <ele>737.1</ele>
        <time>2022-06-18T04:26:23Z</time>
      </trkpt>
      <trkpt lat="45.12889" lon="6.04239">
        <ele>737.4</ele>
        <time>2022-06-18T04:26:24Z</time>
      </trkpt>
      <trkpt lat="45.12886" lon="6.04243">
        <ele>737.6</ele>
        <time>2022-06-18T04:26:25Z</time>
      </trkpt>
      <trkpt lat="45.12884" lon="6.04247">
        <ele>737.9</ele>
        <time>2022-06-18T04:26:26Z</time>
      </trkpt>
      <trkpt lat="45.12881" lon="6.04252">
        <ele>738.2</ele>
        <time>2022-06-18T04:26:27Z</time>
      </trkpt>
      <trkpt lat="45.12879" lon="6.04256">
        <ele>738.4</ele>
        <time>2022-06-18T04:26:28Z</time>
      </trkpt>
      <trkpt lat="45.12877" lon="6.04261">
        <ele>738.7</ele>
        <time>2022-06-18T04:26:30Z</time>
      </trkpt>
      <trkpt lat="45.12875" lon="6.04265">
        <ele>739</ele>
        <time>2022-06-18T04:26:31Z</time>
      </trkpt>
      <trkpt lat="45.12872" lon="6.04269">
        <ele>739.2</ele>
        <time>2022-06-18T04:26:32Z</time>
      </trkpt>
      <trkpt lat="45.12869" lon="6.04275">
        <ele>739.6</ele>
        <time>2022-06-18T04:26:33Z</time>
      </trkpt>
      <trkpt lat="45.12867" lon="6.0428">
        <ele>739.8</ele>
        <time>2022-06-18T04:26:34Z</time>
      </trkpt>
      <trkpt lat="45.12865" lon="6.04284">
        <ele>740.1</ele>
        <time>2022-06-18T04:26:35Z</time>
      </trkpt>
      <trkpt lat="45.12863" lon="6.04289">
        <ele>740.4</ele>
        <time>2022-06-18T04:26:36Z</time>
      </trkpt>
      <trkpt lat="45.12861" lon="6.04294">
        <ele>740.6</ele>
        <time>2022-06-18T04:26:37Z</time>
      </trkpt>
      <trkpt lat="45.12859" lon="6.043">
        <ele>741</ele>
        <time>2022-06-18T04:26:39Z</time>
      </trkpt>
      <trkpt lat="45.12855" lon="6.04306">
        <ele>741.3</ele>
        <time>2022-06-18T04:26:40Z</time>
      </trkpt>
      <trkpt lat="45.12854" lon="6.0431">
        <ele>741.5</ele>
        <time>2022-06-18T04:26:41Z</time>
      </trkpt>
      <trkpt lat="45.1285" lon="6.04315">
        <ele>741.8</ele>
        <time>2022-06-18T04:26:43Z</time>
      </trkpt>
      <trkpt lat="45.12847" lon="6.0432">
        <ele>742.2</ele>
        <time>2022-06-18T04:26:44Z</time>
      </trkpt>
      <trkpt lat="45.12846" lon="6.04325">
        <ele>742.4</ele>
        <time>2022-06-18T04:26:45Z</time>
      </trkpt>
      <trkpt lat="45.12845" lon="6.04328">
        <ele>742.5</ele>
        <time>2022-06-18T04:26:46Z</time>
      </trkpt>
      <trkpt lat="45.12844" lon="6.04334">
        <ele>742.9</ele>
        <time>2022-06-18T04:26:48Z</time>
      </trkpt>
      <trkpt lat="45.1284" lon="6.04339">
        <ele>743.2</ele>
        <time>2022-06-18T04:26:49Z</time>
      </trkpt>
      <trkpt lat="45.12837" lon="6.04344">
        <ele>743.5</ele>
        <time>2022-06-18T04:26:51Z</time>
      </trkpt>
      <trkpt lat="45.12835" lon="6.04348">
        <ele>743.7</ele>
        <time>2022-06-18T04:26:52Z</time>
      </trkpt>
      <trkpt lat="45.12833" lon="6.04353">
        <ele>744</ele>
        <time>2022-06-18T04:26:53Z</time>
      </trkpt>
      <trkpt lat="45.12831" lon="6.04357">
        <ele>744.3</ele>
        <time>2022-06-18T04:26:54Z</time>
      </trkpt>
      <trkpt lat="45.12829" lon="6.04361">
        <ele>744.5</ele>
        <time>2022-06-18T04:26:55Z</time>
      </trkpt>
      <trkpt lat="45.12827" lon="6.04364">
        <ele>744.8</ele>
        <time>2022-06-18T04:26:56Z</time>
      </trkpt>
      <trkpt lat="45.12824" lon="6.04366">
        <ele>745.1</ele>
        <time>2022-06-18T04:26:57Z</time>
      </trkpt>
      <trkpt lat="45.12818" lon="6.0437">
        <ele>745.6</ele>
        <time>2022-06-18T04:26:59Z</time>
      </trkpt>
      <trkpt lat="45.12815" lon="6.04371">
        <ele>745.8</ele>
        <time>2022-06-18T04:27:00Z</time>
      </trkpt>
      <trkpt lat="45.12811" lon="6.04373">
        <ele>746.2</ele>
        <time>2022-06-18T04:27:02Z</time>
      </trkpt>
      <trkpt lat="45.12808" lon="6.04375">
        <ele>746.5</ele>
        <time>2022-06-18T04:27:03Z</time>
      </trkpt>
      <trkpt lat="45.12803" lon="6.04376">
        <ele>746.9</ele>
        <time>2022-06-18T04:27:04Z</time>
      </trkpt>
      <trkpt lat="45.128" lon="6.04378">
        <ele>747.2</ele>
        <time>2022-06-18T04:27:05Z</time>
      </trkpt>
      <trkpt lat="45.12798" lon="6.0438">
        <ele>747.5</ele>
        <time>2022-06-18T04:27:06Z</time>
      </trkpt>
      <trkpt lat="45.12795" lon="6.04385">
        <ele>747.9</ele>
        <time>2022-06-18T04:27:07Z</time>
      </trkpt>
      <trkpt lat="45.12793" lon="6.04389">
        <ele>748.2</ele>
        <time>2022-06-18T04:27:08Z</time>
      </trkpt>
      <trkpt lat="45.12793" lon="6.04396">
        <ele>748.6</ele>
        <time>2022-06-18T04:27:10Z</time>
      </trkpt>
      <trkpt lat="45.12794" lon="6.04403">
        <ele>749.1</ele>
        <time>2022-06-18T04:27:11Z</time>
      </trkpt>
      <trkpt lat="45.12796" lon="6.0441">
        <ele>749.5</ele>
        <time>2022-06-18T04:27:12Z</time>
      </trkpt>
      <trkpt lat="45.128" lon="6.04416">
        <ele>749.9</ele>
        <time>2022-06-18T04:27:14Z</time>
      </trkpt>
      <trkpt lat="45.12804" lon="6.04418">
        <ele>750.1</ele>
        <time>2022-06-18T04:27:15Z</time>
      </trkpt>
      <trkpt lat="45.12809" lon="6.04419">
        <ele>750.3</ele>
        <time>2022-06-18T04:27:16Z</time>
      </trkpt>
      <trkpt lat="45.12814" lon="6.04417">
        <ele>750.6</ele>
        <time>2022-06-18T04:27:17Z</time>
      </trkpt>
      <trkpt lat="45.12821" lon="6.04412">
        <ele>751</ele>
        <time>2022-06-18T04:27:18Z</time>
      </trkpt>
      <trkpt lat="45.12824" lon="6.04408">
        <ele>751.2</ele>
        <time>2022-06-18T04:27:19Z</time>
      </trkpt>
      <trkpt lat="45.12828" lon="6.04404">
        <ele>751.4</ele>
        <time>2022-06-18T04:27:20Z</time>
      </trkpt>
      <trkpt lat="45.12831" lon="6.044">
        <ele>751.6</ele>
        <time>2022-06-18T04:27:21Z</time>
      </trkpt>
      <trkpt lat="45.12832" lon="6.04397">
        <ele>751.8</ele>
        <time>2022-06-18T04:27:22Z</time>
      </trkpt>
      <trkpt lat="45.12837" lon="6.04389">
        <ele>752.2</ele>
        <time>2022-06-18T04:27:24Z</time>
      </trkpt>
      <trkpt lat="45.1284" lon="6.04385">
        <ele>752.5</ele>
        <time>2022-06-18T04:27:25Z</time>
      </trkpt>
      <trkpt lat="45.12844" lon="6.04381">
        <ele>752.8</ele>
        <time>2022-06-18T04:27:26Z</time>
      </trkpt>
      <trkpt lat="45.12847" lon="6.04378">
        <ele>753</ele>
        <time>2022-06-18T04:27:27Z</time>
      </trkpt>
      <trkpt lat="45.12849" lon="6.04376">
        <ele>753.3</ele>
        <time>2022-06-18T04:27:28Z</time>
      </trkpt>
      <trkpt lat="45.12851" lon="6.04373">
        <ele>753.5</ele>
        <time>2022-06-18T04:27:29Z</time>
      </trkpt>
      <trkpt lat="45.12853" lon="6.04369">
        <ele>753.7</ele>
        <time>2022-06-18T04:27:30Z</time>
      </trkpt>
      <trkpt lat="45.12856" lon="6.04366">
        <ele>753.9</ele>
        <time>2022-06-18T04:27:31Z</time>
      </trkpt>
      <trkpt lat="45.12858" lon="6.04364">
        <ele>754.1</ele>
        <time>2022-06-18T04:27:32Z</time>
      </trkpt>
      <trkpt lat="45.12861" lon="6.04361">
        <ele>754.4</ele>
        <time>2022-06-18T04:27:33Z</time>
      </trkpt>
      <trkpt lat="45.12866" lon="6.04354">
        <ele>754.9</ele>
        <time>2022-06-18T04:27:35Z</time>
      </trkpt>
      <trkpt lat="45.12868" lon="6.04351">
        <ele>755.1</ele>
        <time>2022-06-18T04:27:36Z</time>
      </trkpt>
      <trkpt lat="45.1287" lon="6.04349">
        <ele>755.3</ele>
        <time>2022-06-18T04:27:37Z</time>
      </trkpt>
      <trkpt lat="45.12873" lon="6.04346">
        <ele>755.5</ele>
        <time>2022-06-18T04:27:38Z</time>
      </trkpt>
      <trkpt lat="45.12875" lon="6.04343">
        <ele>755.8</ele>
        <time>2022-06-18T04:27:39Z</time>
      </trkpt>
      <trkpt lat="45.12878" lon="6.0434">
        <ele>756</ele>
        <time>2022-06-18T04:27:40Z</time>
      </trkpt>
      <trkpt lat="45.1288" lon="6.04337">
        <ele>756.2</ele>
        <time>2022-06-18T04:27:41Z</time>
      </trkpt>
      <trkpt lat="45.12882" lon="6.04334">
        <ele>756.5</ele>
        <time>2022-06-18T04:27:42Z</time>
      </trkpt>
      <trkpt lat="45.12885" lon="6.04331">
        <ele>756.7</ele>
        <time>2022-06-18T04:27:44Z</time>
      </trkpt>
      <trkpt lat="45.12889" lon="6.04326">
        <ele>757.1</ele>
        <time>2022-06-18T04:27:45Z</time>
      </trkpt>
      <trkpt lat="45.12892" lon="6.04321">
        <ele>757.5</ele>
        <time>2022-06-18T04:27:46Z</time>
      </trkpt>
      <trkpt lat="45.12893" lon="6.04318">
        <ele>757.7</ele>
        <time>2022-06-18T04:27:47Z</time>
      </trkpt>
      <trkpt lat="45.12896" lon="6.04315">
        <ele>758</ele>
        <time>2022-06-18T04:27:48Z</time>
      </trkpt>
      <trkpt lat="45.12899" lon="6.04311">
        <ele>758.3</ele>
        <time>2022-06-18T04:27:50Z</time>
      </trkpt>
      <trkpt lat="45.12902" lon="6.04307">
        <ele>758.6</ele>
        <time>2022-06-18T04:27:51Z</time>
      </trkpt>
      <trkpt lat="45.12905" lon="6.04302">
        <ele>759</ele>
        <time>2022-06-18T04:27:52Z</time>
      </trkpt>
      <trkpt lat="45.12907" lon="6.04299">
        <ele>759.2</ele>
        <time>2022-06-18T04:27:53Z</time>
      </trkpt>
      <trkpt lat="45.1291" lon="6.04295">
        <ele>759.5</ele>
        <time>2022-06-18T04:27:54Z</time>
      </trkpt>
      <trkpt lat="45.12913" lon="6.04292">
        <ele>759.8</ele>
        <time>2022-06-18T04:27:55Z</time>
      </trkpt>
      <trkpt lat="45.12916" lon="6.04289">
        <ele>760.1</ele>
        <time>2022-06-18T04:27:57Z</time>
      </trkpt>
      <trkpt lat="45.12919" lon="6.04286">
        <ele>760.5</ele>
        <time>2022-06-18T04:27:58Z</time>
      </trkpt>
      <trkpt lat="45.12924" lon="6.04282">
        <ele>760.9</ele>
        <time>2022-06-18T04:27:59Z</time>
      </trkpt>
      <trkpt lat="45.12926" lon="6.04279">
        <ele>761.1</ele>
        <time>2022-06-18T04:28:00Z</time>
      </trkpt>
      <trkpt lat="45.1293" lon="6.04275">
        <ele>761.5</ele>
        <time>2022-06-18T04:28:02Z</time>
      </trkpt>
      <trkpt lat="45.12932" lon="6.04272">
        <ele>761.7</ele>
        <time>2022-06-18T04:28:03Z</time>
      </trkpt>
      <trkpt lat="45.12934" lon="6.04268">
        <ele>762</ele>
        <time>2022-06-18T04:28:04Z</time>
      </trkpt>
      <trkpt lat="45.12937" lon="6.04264">
        <ele>762.3</ele>
        <time>2022-06-18T04:28:05Z</time>
      </trkpt>
      <trkpt lat="45.12939" lon="6.04261">
        <ele>762.5</ele>
        <time>2022-06-18T04:28:06Z</time>
      </trkpt>
      <trkpt lat="45.12941" lon="6.04259">
        <ele>762.7</ele>
        <time>2022-06-18T04:28:07Z</time>
      </trkpt>
      <trkpt lat="45.12944" lon="6.04255">
        <ele>763</ele>
        <time>2022-06-18T04:28:08Z</time>
      </trkpt>
      <trkpt lat="45.12946" lon="6.04251">
        <ele>763.3</ele>
        <time>2022-06-18T04:28:09Z</time>
      </trkpt>
      <trkpt lat="45.12949" lon="6.04248">
        <ele>763.6</ele>
        <time>2022-06-18T04:28:10Z</time>
      </trkpt>
      <trkpt lat="45.12951" lon="6.04245">
        <ele>763.8</ele>
        <time>2022-06-18T04:28:11Z</time>
      </trkpt>
      <trkpt lat="45.12953" lon="6.04242">
        <ele>764.1</ele>
        <time>2022-06-18T04:28:12Z</time>
      </trkpt>
      <trkpt lat="45.12956" lon="6.04238">
        <ele>764.4</ele>
        <time>2022-06-18T04:28:13Z</time>
      </trkpt>
      <trkpt lat="45.12958" lon="6.04235">
        <ele>764.6</ele>
        <time>2022-06-18T04:28:14Z</time>
      </trkpt>
      <trkpt lat="45.1296" lon="6.04232">
        <ele>764.9</ele>
        <time>2022-06-18T04:28:15Z</time>
      </trkpt>
      <trkpt lat="45.12963" lon="6.04228">
        <ele>765.2</ele>
        <time>2022-06-18T04:28:16Z</time>
      </trkpt>
      <trkpt lat="45.12966" lon="6.04224">
        <ele>765.5</ele>
        <time>2022-06-18T04:28:17Z</time>
      </trkpt>
      <trkpt lat="45.12968" lon="6.04219">
        <ele>765.9</ele>
        <time>2022-06-18T04:28:18Z</time>
      </trkpt>
      <trkpt lat="45.12971" lon="6.04215">
        <ele>766.2</ele>
        <time>2022-06-18T04:28:20Z</time>
      </trkpt>
      <trkpt lat="45.12973" lon="6.04212">
        <ele>766.5</ele>
        <time>2022-06-18T04:28:21Z</time>
      </trkpt>
      <trkpt lat="45.12976" lon="6.04209">
        <ele>766.7</ele>
        <time>2022-06-18T04:28:22Z</time>
      </trkpt>
      <trkpt lat="45.12978" lon="6.04207">
        <ele>767</ele>
        <time>2022-06-18T04:28:23Z</time>
      </trkpt>
      <trkpt lat="45.1298" lon="6.04204">
        <ele>767.2</ele>
        <time>2022-06-18T04:28:24Z</time>
      </trkpt>
      <trkpt lat="45.12983" lon="6.04202">
        <ele>767.5</ele>
        <time>2022-06-18T04:28:25Z</time>
      </trkpt>
      <trkpt lat="45.12986" lon="6.04199">
        <ele>767.8</ele>
        <time>2022-06-18T04:28:26Z</time>
      </trkpt>
      <trkpt lat="45.12988" lon="6.04196">
        <ele>768</ele>
        <time>2022-06-18T04:28:27Z</time>
      </trkpt>
      <trkpt lat="45.12993" lon="6.0419">
        <ele>768.6</ele>
        <time>2022-06-18T04:28:29Z</time>
      </trkpt>
      <trkpt lat="45.12996" lon="6.04186">
        <ele>768.9</ele>
        <time>2022-06-18T04:28:31Z</time>
      </trkpt>
      <trkpt lat="45.12999" lon="6.04182">
        <ele>769.3</ele>
        <time>2022-06-18T04:28:32Z</time>
      </trkpt>
      <trkpt lat="45.13002" lon="6.04179">
        <ele>769.6</ele>
        <time>2022-06-18T04:28:33Z</time>
      </trkpt>
      <trkpt lat="45.13005" lon="6.04176">
        <ele>769.9</ele>
        <time>2022-06-18T04:28:34Z</time>
      </trkpt>
      <trkpt lat="45.13008" lon="6.04172">
        <ele>770.2</ele>
        <time>2022-06-18T04:28:35Z</time>
      </trkpt>
      <trkpt lat="45.1301" lon="6.04169">
        <ele>770.4</ele>
        <time>2022-06-18T04:28:36Z</time>
      </trkpt>
      <trkpt lat="45.13015" lon="6.04164">
        <ele>770.9</ele>
        <time>2022-06-18T04:28:38Z</time>
      </trkpt>
      <trkpt lat="45.13017" lon="6.04161">
        <ele>771.2</ele>
        <time>2022-06-18T04:28:39Z</time>
      </trkpt>
      <trkpt lat="45.1302" lon="6.04157">
        <ele>771.5</ele>
        <time>2022-06-18T04:28:41Z</time>
      </trkpt>
      <trkpt lat="45.13023" lon="6.04153">
        <ele>771.9</ele>
        <time>2022-06-18T04:28:42Z</time>
      </trkpt>
      <trkpt lat="45.13026" lon="6.04147">
        <ele>772.3</ele>
        <time>2022-06-18T04:28:44Z</time>
      </trkpt>
      <trkpt lat="45.13029" lon="6.04143">
        <ele>772.6</ele>
        <time>2022-06-18T04:28:45Z</time>
      </trkpt>
      <trkpt lat="45.13032" lon="6.04139">
        <ele>772.9</ele>
        <time>2022-06-18T04:28:46Z</time>
      </trkpt>
      <trkpt lat="45.13034" lon="6.04134">
        <ele>773.2</ele>
        <time>2022-06-18T04:28:47Z</time>
      </trkpt>
      <trkpt lat="45.13037" lon="6.04126">
        <ele>773.6</ele>
        <time>2022-06-18T04:28:49Z</time>
      </trkpt>
      <trkpt lat="45.13038" lon="6.04123">
        <ele>773.9</ele>
        <time>2022-06-18T04:28:50Z</time>
      </trkpt>
      <trkpt lat="45.1304" lon="6.04118">
        <ele>774.1</ele>
        <time>2022-06-18T04:28:51Z</time>
      </trkpt>
      <trkpt lat="45.13041" lon="6.04114">
        <ele>774.4</ele>
        <time>2022-06-18T04:28:52Z</time>
      </trkpt>
      <trkpt lat="45.13043" lon="6.04109">
        <ele>774.7</ele>
        <time>2022-06-18T04:28:53Z</time>
      </trkpt>
      <trkpt lat="45.13044" lon="6.04104">
        <ele>775</ele>
        <time>2022-06-18T04:28:55Z</time>
      </trkpt>
      <trkpt lat="45.13046" lon="6.04099">
        <ele>775.3</ele>
        <time>2022-06-18T04:28:56Z</time>
      </trkpt>
      <trkpt lat="45.13048" lon="6.04092">
        <ele>775.7</ele>
        <time>2022-06-18T04:28:57Z</time>
      </trkpt>
      <trkpt lat="45.1305" lon="6.04089">
        <ele>775.9</ele>
        <time>2022-06-18T04:28:58Z</time>
      </trkpt>
      <trkpt lat="45.13052" lon="6.04085">
        <ele>776.2</ele>
        <time>2022-06-18T04:28:59Z</time>
      </trkpt>
      <trkpt lat="45.13055" lon="6.04082">
        <ele>776.4</ele>
        <time>2022-06-18T04:29:00Z</time>
      </trkpt>
      <trkpt lat="45.13058" lon="6.0408">
        <ele>776.6</ele>
        <time>2022-06-18T04:29:01Z</time>
      </trkpt>
      <trkpt lat="45.13062" lon="6.04078">
        <ele>777</ele>
        <time>2022-06-18T04:29:02Z</time>
      </trkpt>
      <trkpt lat="45.13068" lon="6.04075">
        <ele>777</ele>
        <time>2022-06-18T04:29:04Z</time>
      </trkpt>
      <trkpt lat="45.1307" lon="6.04071">
        <ele>777.4</ele>
        <time>2022-06-18T04:29:05Z</time>
      </trkpt>
      <trkpt lat="45.13069" lon="6.04066">
        <ele>777.7</ele>
        <time>2022-06-18T04:29:06Z</time>
      </trkpt>
      <trkpt lat="45.13067" lon="6.04062">
        <ele>777.9</ele>
        <time>2022-06-18T04:29:07Z</time>
      </trkpt>
      <trkpt lat="45.13062" lon="6.04057">
        <ele>778.1</ele>
        <time>2022-06-18T04:29:09Z</time>
      </trkpt>
      <trkpt lat="45.13059" lon="6.04052">
        <ele>778.4</ele>
        <time>2022-06-18T04:29:10Z</time>
      </trkpt>
      <trkpt lat="45.13055" lon="6.04046">
        <ele>778.6</ele>
        <time>2022-06-18T04:29:11Z</time>
      </trkpt>
      <trkpt lat="45.13051" lon="6.04039">
        <ele>778.9</ele>
        <time>2022-06-18T04:29:12Z</time>
      </trkpt>
      <trkpt lat="45.13049" lon="6.04036">
        <ele>779.1</ele>
        <time>2022-06-18T04:29:13Z</time>
      </trkpt>
      <trkpt lat="45.13045" lon="6.0403">
        <ele>779.3</ele>
        <time>2022-06-18T04:29:15Z</time>
      </trkpt>
      <trkpt lat="45.13041" lon="6.04025">
        <ele>779.6</ele>
        <time>2022-06-18T04:29:16Z</time>
      </trkpt>
      <trkpt lat="45.13038" lon="6.04022">
        <ele>779.8</ele>
        <time>2022-06-18T04:29:17Z</time>
      </trkpt>
      <trkpt lat="45.13036" lon="6.0402">
        <ele>779.9</ele>
        <time>2022-06-18T04:29:18Z</time>
      </trkpt>
      <trkpt lat="45.13032" lon="6.04018">
        <ele>780.1</ele>
        <time>2022-06-18T04:29:19Z</time>
      </trkpt>
      <trkpt lat="45.13031" lon="6.04016">
        <ele>780.2</ele>
        <time>2022-06-18T04:29:20Z</time>
      </trkpt>
      <trkpt lat="45.13028" lon="6.04014">
        <ele>780.4</ele>
        <time>2022-06-18T04:29:22Z</time>
      </trkpt>
      <trkpt lat="45.13025" lon="6.04011">
        <ele>780.6</ele>
        <time>2022-06-18T04:29:23Z</time>
      </trkpt>
      <trkpt lat="45.13023" lon="6.04009">
        <ele>780.8</ele>
        <time>2022-06-18T04:29:24Z</time>
      </trkpt>
      <trkpt lat="45.13021" lon="6.04007">
        <ele>781</ele>
        <time>2022-06-18T04:29:25Z</time>
      </trkpt>
      <trkpt lat="45.13018" lon="6.04005">
        <ele>781.2</ele>
        <time>2022-06-18T04:29:26Z</time>
      </trkpt>
      <trkpt lat="45.13016" lon="6.04001">
        <ele>781.4</ele>
        <time>2022-06-18T04:29:27Z</time>
      </trkpt>
      <trkpt lat="45.13016" lon="6.03999">
        <ele>781.5</ele>
        <time>2022-06-18T04:29:28Z</time>
      </trkpt>
      <trkpt lat="45.13017" lon="6.03995">
        <ele>781.7</ele>
        <time>2022-06-18T04:29:29Z</time>
      </trkpt>
      <trkpt lat="45.13019" lon="6.03989">
        <ele>782.4</ele>
        <time>2022-06-18T04:29:30Z</time>
      </trkpt>
      <trkpt lat="45.13022" lon="6.03986">
        <ele>782.9</ele>
        <time>2022-06-18T04:29:31Z</time>
      </trkpt>
      <trkpt lat="45.13026" lon="6.03984">
        <ele>783.4</ele>
        <time>2022-06-18T04:29:32Z</time>
      </trkpt>
      <trkpt lat="45.1303" lon="6.03984">
        <ele>783.8</ele>
        <time>2022-06-18T04:29:33Z</time>
      </trkpt>
      <trkpt lat="45.13035" lon="6.03987">
        <ele>784.5</ele>
        <time>2022-06-18T04:29:35Z</time>
      </trkpt>
      <trkpt lat="45.1304" lon="6.03991">
        <ele>785.1</ele>
        <time>2022-06-18T04:29:36Z</time>
      </trkpt>
      <trkpt lat="45.13043" lon="6.03993">
        <ele>785.5</ele>
        <time>2022-06-18T04:29:37Z</time>
      </trkpt>
      <trkpt lat="45.13045" lon="6.03996">
        <ele>785.5</ele>
        <time>2022-06-18T04:29:38Z</time>
      </trkpt>
      <trkpt lat="45.13048" lon="6.03998">
        <ele>785.4</ele>
        <time>2022-06-18T04:29:39Z</time>
      </trkpt>
      <trkpt lat="45.13052" lon="6.04002">
        <ele>785.5</ele>
        <time>2022-06-18T04:29:40Z</time>
      </trkpt>
      <trkpt lat="45.13057" lon="6.04008">
        <ele>786</ele>
        <time>2022-06-18T04:29:42Z</time>
      </trkpt>
      <trkpt lat="45.13059" lon="6.0401">
        <ele>786.2</ele>
        <time>2022-06-18T04:29:43Z</time>
      </trkpt>
      <trkpt lat="45.13061" lon="6.04013">
        <ele>786.4</ele>
        <time>2022-06-18T04:29:44Z</time>
      </trkpt>
      <trkpt lat="45.13064" lon="6.04018">
        <ele>786.7</ele>
        <time>2022-06-18T04:29:46Z</time>
      </trkpt>
      <trkpt lat="45.13066" lon="6.04021">
        <ele>787</ele>
        <time>2022-06-18T04:29:47Z</time>
      </trkpt>
      <trkpt lat="45.13068" lon="6.04025">
        <ele>787.2</ele>
        <time>2022-06-18T04:29:48Z</time>
      </trkpt>
      <trkpt lat="45.13071" lon="6.04029">
        <ele>787.5</ele>
        <time>2022-06-18T04:29:49Z</time>
      </trkpt>
      <trkpt lat="45.13072" lon="6.04032">
        <ele>787.7</ele>
        <time>2022-06-18T04:29:50Z</time>
      </trkpt>
      <trkpt lat="45.13075" lon="6.04036">
        <ele>788</ele>
        <time>2022-06-18T04:29:51Z</time>
      </trkpt>
      <trkpt lat="45.13077" lon="6.04038">
        <ele>788.2</ele>
        <time>2022-06-18T04:29:52Z</time>
      </trkpt>
      <trkpt lat="45.13079" lon="6.04041">
        <ele>788.4</ele>
        <time>2022-06-18T04:29:53Z</time>
      </trkpt>
      <trkpt lat="45.13082" lon="6.04044">
        <ele>788.7</ele>
        <time>2022-06-18T04:29:54Z</time>
      </trkpt>
      <trkpt lat="45.13086" lon="6.04049">
        <ele>789</ele>
        <time>2022-06-18T04:29:56Z</time>
      </trkpt>
      <trkpt lat="45.1309" lon="6.04053">
        <ele>789.4</ele>
        <time>2022-06-18T04:29:57Z</time>
      </trkpt>
      <trkpt lat="45.13093" lon="6.04056">
        <ele>789.7</ele>
        <time>2022-06-18T04:29:59Z</time>
      </trkpt>
      <trkpt lat="45.13096" lon="6.0406">
        <ele>790</ele>
        <time>2022-06-18T04:30:00Z</time>
      </trkpt>
      <trkpt lat="45.13099" lon="6.04063">
        <ele>790.3</ele>
        <time>2022-06-18T04:30:01Z</time>
      </trkpt>
      <trkpt lat="45.13102" lon="6.04067">
        <ele>790.6</ele>
        <time>2022-06-18T04:30:02Z</time>
      </trkpt>
      <trkpt lat="45.13105" lon="6.0407">
        <ele>790.9</ele>
        <time>2022-06-18T04:30:04Z</time>
      </trkpt>
      <trkpt lat="45.13109" lon="6.04074">
        <ele>791.3</ele>
        <time>2022-06-18T04:30:05Z</time>
      </trkpt>
      <trkpt lat="45.13112" lon="6.04078">
        <ele>791.7</ele>
        <time>2022-06-18T04:30:06Z</time>
      </trkpt>
      <trkpt lat="45.13116" lon="6.04081">
        <ele>792</ele>
        <time>2022-06-18T04:30:08Z</time>
      </trkpt>
      <trkpt lat="45.13119" lon="6.04085">
        <ele>792.4</ele>
        <time>2022-06-18T04:30:09Z</time>
      </trkpt>
      <trkpt lat="45.13122" lon="6.04087">
        <ele>792.7</ele>
        <time>2022-06-18T04:30:10Z</time>
      </trkpt>
      <trkpt lat="45.13126" lon="6.0409">
        <ele>793.1</ele>
        <time>2022-06-18T04:30:12Z</time>
      </trkpt>
      <trkpt lat="45.13131" lon="6.04094">
        <ele>793.6</ele>
        <time>2022-06-18T04:30:13Z</time>
      </trkpt>
      <trkpt lat="45.13133" lon="6.04097">
        <ele>793.8</ele>
        <time>2022-06-18T04:30:14Z</time>
      </trkpt>
      <trkpt lat="45.13136" lon="6.04101">
        <ele>794.2</ele>
        <time>2022-06-18T04:30:15Z</time>
      </trkpt>
      <trkpt lat="45.13137" lon="6.04103">
        <ele>794.3</ele>
        <time>2022-06-18T04:30:16Z</time>
      </trkpt>
      <trkpt lat="45.1314" lon="6.04105">
        <ele>794.5</ele>
        <time>2022-06-18T04:30:17Z</time>
      </trkpt>
      <trkpt lat="45.13142" lon="6.04109">
        <ele>794.8</ele>
        <time>2022-06-18T04:30:18Z</time>
      </trkpt>
      <trkpt lat="45.13145" lon="6.04112">
        <ele>795.1</ele>
        <time>2022-06-18T04:30:19Z</time>
      </trkpt>
      <trkpt lat="45.13149" lon="6.04115">
        <ele>795.5</ele>
        <time>2022-06-18T04:30:21Z</time>
      </trkpt>
      <trkpt lat="45.13152" lon="6.0412">
        <ele>795.9</ele>
        <time>2022-06-18T04:30:22Z</time>
      </trkpt>
      <trkpt lat="45.13155" lon="6.04123">
        <ele>796.2</ele>
        <time>2022-06-18T04:30:23Z</time>
      </trkpt>
      <trkpt lat="45.13157" lon="6.04128">
        <ele>796.6</ele>
        <time>2022-06-18T04:30:25Z</time>
      </trkpt>
      <trkpt lat="45.13159" lon="6.04132">
        <ele>797</ele>
        <time>2022-06-18T04:30:26Z</time>
      </trkpt>
      <trkpt lat="45.13163" lon="6.04137">
        <ele>797.4</ele>
        <time>2022-06-18T04:30:27Z</time>
      </trkpt>
      <trkpt lat="45.13166" lon="6.04143">
        <ele>797.9</ele>
        <time>2022-06-18T04:30:29Z</time>
      </trkpt>
      <trkpt lat="45.13169" lon="6.04145">
        <ele>798.1</ele>
        <time>2022-06-18T04:30:30Z</time>
      </trkpt>
      <trkpt lat="45.13173" lon="6.04147">
        <ele>798.5</ele>
        <time>2022-06-18T04:30:32Z</time>
      </trkpt>
      <trkpt lat="45.13178" lon="6.04147">
        <ele>799.1</ele>
        <time>2022-06-18T04:30:33Z</time>
      </trkpt>
      <trkpt lat="45.13181" lon="6.04144">
        <ele>799.3</ele>
        <time>2022-06-18T04:30:34Z</time>
      </trkpt>
      <trkpt lat="45.13184" lon="6.04138">
        <ele>799.6</ele>
        <time>2022-06-18T04:30:36Z</time>
      </trkpt>
      <trkpt lat="45.13185" lon="6.04131">
        <ele>799.8</ele>
        <time>2022-06-18T04:30:37Z</time>
      </trkpt>
      <trkpt lat="45.13183" lon="6.0412">
        <ele>800.3</ele>
        <time>2022-06-18T04:30:38Z</time>
      </trkpt>
      <trkpt lat="45.13178" lon="6.04116">
        <ele>800.6</ele>
        <time>2022-06-18T04:30:40Z</time>
      </trkpt>
      <trkpt lat="45.13174" lon="6.0411">
        <ele>801</ele>
        <time>2022-06-18T04:30:41Z</time>
      </trkpt>
      <trkpt lat="45.13171" lon="6.04105">
        <ele>801.3</ele>
        <time>2022-06-18T04:30:43Z</time>
      </trkpt>
      <trkpt lat="45.13166" lon="6.04098">
        <ele>801.7</ele>
        <time>2022-06-18T04:30:44Z</time>
      </trkpt>
      <trkpt lat="45.13165" lon="6.04095">
        <ele>801.8</ele>
        <time>2022-06-18T04:30:45Z</time>
      </trkpt>
      <trkpt lat="45.13163" lon="6.0409">
        <ele>802.1</ele>
        <time>2022-06-18T04:30:47Z</time>
      </trkpt>
      <trkpt lat="45.1316" lon="6.04083">
        <ele>802.5</ele>
        <time>2022-06-18T04:30:48Z</time>
      </trkpt>
      <trkpt lat="45.13159" lon="6.04079">
        <ele>802.7</ele>
        <time>2022-06-18T04:30:49Z</time>
      </trkpt>
      <trkpt lat="45.13157" lon="6.04073">
        <ele>803</ele>
        <time>2022-06-18T04:30:51Z</time>
      </trkpt>
      <trkpt lat="45.13156" lon="6.04069">
        <ele>803.3</ele>
        <time>2022-06-18T04:30:52Z</time>
      </trkpt>
      <trkpt lat="45.13154" lon="6.04062">
        <ele>803.6</ele>
        <time>2022-06-18T04:30:53Z</time>
      </trkpt>
      <trkpt lat="45.13152" lon="6.04053">
        <ele>804.1</ele>
        <time>2022-06-18T04:30:55Z</time>
      </trkpt>
      <trkpt lat="45.13151" lon="6.04048">
        <ele>804.4</ele>
        <time>2022-06-18T04:30:56Z</time>
      </trkpt>
      <trkpt lat="45.1315" lon="6.04043">
        <ele>804.6</ele>
        <time>2022-06-18T04:30:57Z</time>
      </trkpt>
      <trkpt lat="45.13148" lon="6.04037">
        <ele>805</ele>
        <time>2022-06-18T04:30:59Z</time>
      </trkpt>
      <trkpt lat="45.13147" lon="6.04032">
        <ele>805.2</ele>
        <time>2022-06-18T04:31:00Z</time>
      </trkpt>
      <trkpt lat="45.13146" lon="6.04026">
        <ele>805.5</ele>
        <time>2022-06-18T04:31:01Z</time>
      </trkpt>
      <trkpt lat="45.13145" lon="6.04022">
        <ele>805.8</ele>
        <time>2022-06-18T04:31:02Z</time>
      </trkpt>
      <trkpt lat="45.13144" lon="6.0402">
        <ele>805.8</ele>
        <time>2022-06-18T04:31:03Z</time>
      </trkpt>
      <trkpt lat="45.13142" lon="6.04023">
        <ele>806</ele>
        <time>2022-06-18T04:31:05Z</time>
      </trkpt>
      <trkpt lat="45.13142" lon="6.04025">
        <ele>806.2</ele>
        <time>2022-06-18T04:31:06Z</time>
      </trkpt>
      <trkpt lat="45.13143" lon="6.04035">
        <ele>805.9</ele>
        <time>2022-06-18T04:31:07Z</time>
      </trkpt>
      <trkpt lat="45.13145" lon="6.04043">
        <ele>805.4</ele>
        <time>2022-06-18T04:31:08Z</time>
      </trkpt>
      <trkpt lat="45.13148" lon="6.04052">
        <ele>804.8</ele>
        <time>2022-06-18T04:31:09Z</time>
      </trkpt>
      <trkpt lat="45.13151" lon="6.04061">
        <ele>804.2</ele>
        <time>2022-06-18T04:31:10Z</time>
      </trkpt>
      <trkpt lat="45.13154" lon="6.04069">
        <ele>803.6</ele>
        <time>2022-06-18T04:31:11Z</time>
      </trkpt>
      <trkpt lat="45.13157" lon="6.04078">
        <ele>803</ele>
        <time>2022-06-18T04:31:12Z</time>
      </trkpt>
      <trkpt lat="45.13161" lon="6.04088">
        <ele>802.4</ele>
        <time>2022-06-18T04:31:13Z</time>
      </trkpt>
      <trkpt lat="45.13165" lon="6.04097">
        <ele>801.7</ele>
        <time>2022-06-18T04:31:14Z</time>
      </trkpt>
      <trkpt lat="45.13169" lon="6.04107">
        <ele>801.1</ele>
        <time>2022-06-18T04:31:15Z</time>
      </trkpt>
      <trkpt lat="45.13175" lon="6.04117">
        <ele>800.5</ele>
        <time>2022-06-18T04:31:16Z</time>
      </trkpt>
      <trkpt lat="45.1318" lon="6.04127">
        <ele>799.9</ele>
        <time>2022-06-18T04:31:17Z</time>
      </trkpt>
      <trkpt lat="45.13184" lon="6.04137">
        <ele>799.4</ele>
        <time>2022-06-18T04:31:18Z</time>
      </trkpt>
      <trkpt lat="45.13187" lon="6.04146">
        <ele>799.2</ele>
        <time>2022-06-18T04:31:19Z</time>
      </trkpt>
      <trkpt lat="45.1319" lon="6.04153">
        <ele>799.2</ele>
        <time>2022-06-18T04:31:20Z</time>
      </trkpt>
      <trkpt lat="45.13195" lon="6.04158">
        <ele>799.3</ele>
        <time>2022-06-18T04:31:21Z</time>
      </trkpt>
      <trkpt lat="45.132" lon="6.04162">
        <ele>799.2</ele>
        <time>2022-06-18T04:31:22Z</time>
      </trkpt>
      <trkpt lat="45.13206" lon="6.04166">
        <ele>799.2</ele>
        <time>2022-06-18T04:31:23Z</time>
      </trkpt>
      <trkpt lat="45.13212" lon="6.04171">
        <ele>799.1</ele>
        <time>2022-06-18T04:31:24Z</time>
      </trkpt>
      <trkpt lat="45.13217" lon="6.04175">
        <ele>799.1</ele>
        <time>2022-06-18T04:31:25Z</time>
      </trkpt>
      <trkpt lat="45.13223" lon="6.0418">
        <ele>799.1</ele>
        <time>2022-06-18T04:31:26Z</time>
      </trkpt>
      <trkpt lat="45.13228" lon="6.04186">
        <ele>799.1</ele>
        <time>2022-06-18T04:31:27Z</time>
      </trkpt>
      <trkpt lat="45.13233" lon="6.04193">
        <ele>799.1</ele>
        <time>2022-06-18T04:31:28Z</time>
      </trkpt>
      <trkpt lat="45.13238" lon="6.042">
        <ele>799.1</ele>
        <time>2022-06-18T04:31:29Z</time>
      </trkpt>
      <trkpt lat="45.13243" lon="6.04206">
        <ele>799.3</ele>
        <time>2022-06-18T04:31:30Z</time>
      </trkpt>
      <trkpt lat="45.13248" lon="6.04212">
        <ele>799.4</ele>
        <time>2022-06-18T04:31:31Z</time>
      </trkpt>
      <trkpt lat="45.13253" lon="6.04216">
        <ele>799.5</ele>
        <time>2022-06-18T04:31:32Z</time>
      </trkpt>
      <trkpt lat="45.13258" lon="6.04219">
        <ele>799.8</ele>
        <time>2022-06-18T04:31:33Z</time>
      </trkpt>
      <trkpt lat="45.13263" lon="6.0422">
        <ele>800.1</ele>
        <time>2022-06-18T04:31:34Z</time>
      </trkpt>
      <trkpt lat="45.13268" lon="6.04221">
        <ele>800.5</ele>
        <time>2022-06-18T04:31:35Z</time>
      </trkpt>
      <trkpt lat="45.13271" lon="6.04222">
        <ele>800.7</ele>
        <time>2022-06-18T04:31:36Z</time>
      </trkpt>
      <trkpt lat="45.13275" lon="6.04223">
        <ele>800.9</ele>
        <time>2022-06-18T04:31:37Z</time>
      </trkpt>
      <trkpt lat="45.13279" lon="6.04225">
        <ele>801.3</ele>
        <time>2022-06-18T04:31:38Z</time>
      </trkpt>
      <trkpt lat="45.13283" lon="6.04227">
        <ele>801.6</ele>
        <time>2022-06-18T04:31:39Z</time>
      </trkpt>
      <trkpt lat="45.13287" lon="6.04229">
        <ele>802</ele>
        <time>2022-06-18T04:31:40Z</time>
      </trkpt>
      <trkpt lat="45.13291" lon="6.0423">
        <ele>802.3</ele>
        <time>2022-06-18T04:31:41Z</time>
      </trkpt>
      <trkpt lat="45.13295" lon="6.04232">
        <ele>802.7</ele>
        <time>2022-06-18T04:31:42Z</time>
      </trkpt>
      <trkpt lat="45.133" lon="6.04232">
        <ele>803.1</ele>
        <time>2022-06-18T04:31:43Z</time>
      </trkpt>
      <trkpt lat="45.13309" lon="6.04236">
        <ele>803.9</ele>
        <time>2022-06-18T04:31:45Z</time>
      </trkpt>
      <trkpt lat="45.13316" lon="6.04241">
        <ele>804.5</ele>
        <time>2022-06-18T04:31:47Z</time>
      </trkpt>
      <trkpt lat="45.13322" lon="6.04243">
        <ele>805</ele>
        <time>2022-06-18T04:31:48Z</time>
      </trkpt>
      <trkpt lat="45.13327" lon="6.04245">
        <ele>805.4</ele>
        <time>2022-06-18T04:31:49Z</time>
      </trkpt>
      <trkpt lat="45.13331" lon="6.04248">
        <ele>805.7</ele>
        <time>2022-06-18T04:31:50Z</time>
      </trkpt>
      <trkpt lat="45.13335" lon="6.0425">
        <ele>806.1</ele>
        <time>2022-06-18T04:31:51Z</time>
      </trkpt>
      <trkpt lat="45.13338" lon="6.04252">
        <ele>806.3</ele>
        <time>2022-06-18T04:31:52Z</time>
      </trkpt>
      <trkpt lat="45.13344" lon="6.04255">
        <ele>806.8</ele>
        <time>2022-06-18T04:31:54Z</time>
      </trkpt>
      <trkpt lat="45.13348" lon="6.04259">
        <ele>807.2</ele>
        <time>2022-06-18T04:31:55Z</time>
      </trkpt>
      <trkpt lat="45.1335" lon="6.04261">
        <ele>807.5</ele>
        <time>2022-06-18T04:31:56Z</time>
      </trkpt>
      <trkpt lat="45.13354" lon="6.04263">
        <ele>807.8</ele>
        <time>2022-06-18T04:31:57Z</time>
      </trkpt>
      <trkpt lat="45.13361" lon="6.04267">
        <ele>808.4</ele>
        <time>2022-06-18T04:31:58Z</time>
      </trkpt>
      <trkpt lat="45.13366" lon="6.04269">
        <ele>808.9</ele>
        <time>2022-06-18T04:31:59Z</time>
      </trkpt>
      <trkpt lat="45.13368" lon="6.04271">
        <ele>809.1</ele>
        <time>2022-06-18T04:32:00Z</time>
      </trkpt>
      <trkpt lat="45.13376" lon="6.04277">
        <ele>809.9</ele>
        <time>2022-06-18T04:32:02Z</time>
      </trkpt>
      <trkpt lat="45.13379" lon="6.0428">
        <ele>810.2</ele>
        <time>2022-06-18T04:32:03Z</time>
      </trkpt>
      <trkpt lat="45.13383" lon="6.04285">
        <ele>810.5</ele>
        <time>2022-06-18T04:32:05Z</time>
      </trkpt>
      <trkpt lat="45.13386" lon="6.04289">
        <ele>810.6</ele>
        <time>2022-06-18T04:32:06Z</time>
      </trkpt>
      <trkpt lat="45.1339" lon="6.04294">
        <ele>810.7</ele>
        <time>2022-06-18T04:32:07Z</time>
      </trkpt>
      <trkpt lat="45.13393" lon="6.04297">
        <ele>810.8</ele>
        <time>2022-06-18T04:32:08Z</time>
      </trkpt>
      <trkpt lat="45.13396" lon="6.043">
        <ele>810.9</ele>
        <time>2022-06-18T04:32:09Z</time>
      </trkpt>
      <trkpt lat="45.13399" lon="6.04304">
        <ele>811</ele>
        <time>2022-06-18T04:32:10Z</time>
      </trkpt>
      <trkpt lat="45.13402" lon="6.04306">
        <ele>811.4</ele>
        <time>2022-06-18T04:32:11Z</time>
      </trkpt>
      <trkpt lat="45.13405" lon="6.04307">
        <ele>811.6</ele>
        <time>2022-06-18T04:32:12Z</time>
      </trkpt>
      <trkpt lat="45.13408" lon="6.04301">
        <ele>811.9</ele>
        <time>2022-06-18T04:32:14Z</time>
      </trkpt>
      <trkpt lat="45.13409" lon="6.04295">
        <ele>812.2</ele>
        <time>2022-06-18T04:32:15Z</time>
      </trkpt>
      <trkpt lat="45.13405" lon="6.04288">
        <ele>812.6</ele>
        <time>2022-06-18T04:32:16Z</time>
      </trkpt>
      <trkpt lat="45.13399" lon="6.04282">
        <ele>813</ele>
        <time>2022-06-18T04:32:17Z</time>
      </trkpt>
      <trkpt lat="45.13395" lon="6.04278">
        <ele>813.2</ele>
        <time>2022-06-18T04:32:18Z</time>
      </trkpt>
      <trkpt lat="45.1339" lon="6.04276">
        <ele>813.5</ele>
        <time>2022-06-18T04:32:20Z</time>
      </trkpt>
      <trkpt lat="45.13385" lon="6.0427">
        <ele>813.8</ele>
        <time>2022-06-18T04:32:21Z</time>
      </trkpt>
      <trkpt lat="45.13382" lon="6.04266">
        <ele>814</ele>
        <time>2022-06-18T04:32:23Z</time>
      </trkpt>
      <trkpt lat="45.13378" lon="6.04262">
        <ele>814.3</ele>
        <time>2022-06-18T04:32:24Z</time>
      </trkpt>
      <trkpt lat="45.13375" lon="6.04258">
        <ele>814.6</ele>
        <time>2022-06-18T04:32:25Z</time>
      </trkpt>
      <trkpt lat="45.13372" lon="6.04255">
        <ele>814.9</ele>
        <time>2022-06-18T04:32:26Z</time>
      </trkpt>
      <trkpt lat="45.1337" lon="6.0425">
        <ele>815.1</ele>
        <time>2022-06-18T04:32:27Z</time>
      </trkpt>
      <trkpt lat="45.13368" lon="6.04247">
        <ele>815.3</ele>
        <time>2022-06-18T04:32:28Z</time>
      </trkpt>
      <trkpt lat="45.13364" lon="6.04242">
        <ele>815.7</ele>
        <time>2022-06-18T04:32:30Z</time>
      </trkpt>
      <trkpt lat="45.1336" lon="6.04237">
        <ele>816.1</ele>
        <time>2022-06-18T04:32:31Z</time>
      </trkpt>
      <trkpt lat="45.13357" lon="6.04234">
        <ele>816.4</ele>
        <time>2022-06-18T04:32:33Z</time>
      </trkpt>
      <trkpt lat="45.13355" lon="6.0423">
        <ele>816.6</ele>
        <time>2022-06-18T04:32:34Z</time>
      </trkpt>
      <trkpt lat="45.13352" lon="6.04225">
        <ele>817</ele>
        <time>2022-06-18T04:32:35Z</time>
      </trkpt>
      <trkpt lat="45.1335" lon="6.04222">
        <ele>817.2</ele>
        <time>2022-06-18T04:32:36Z</time>
      </trkpt>
      <trkpt lat="45.13348" lon="6.04219">
        <ele>817.5</ele>
        <time>2022-06-18T04:32:37Z</time>
      </trkpt>
      <trkpt lat="45.13346" lon="6.04216">
        <ele>817.7</ele>
        <time>2022-06-18T04:32:38Z</time>
      </trkpt>
      <trkpt lat="45.13343" lon="6.04213">
        <ele>818</ele>
        <time>2022-06-18T04:32:39Z</time>
      </trkpt>
      <trkpt lat="45.1334" lon="6.04211">
        <ele>818.3</ele>
        <time>2022-06-18T04:32:41Z</time>
      </trkpt>
      <trkpt lat="45.13337" lon="6.04208">
        <ele>818.6</ele>
        <time>2022-06-18T04:32:42Z</time>
      </trkpt>
      <trkpt lat="45.13334" lon="6.04204">
        <ele>819</ele>
        <time>2022-06-18T04:32:43Z</time>
      </trkpt>
      <trkpt lat="45.13331" lon="6.04199">
        <ele>819.6</ele>
        <time>2022-06-18T04:32:44Z</time>
      </trkpt>
      <trkpt lat="45.13328" lon="6.04196">
        <ele>819.9</ele>
        <time>2022-06-18T04:32:45Z</time>
      </trkpt>
      <trkpt lat="45.13325" lon="6.04192">
        <ele>820.3</ele>
        <time>2022-06-18T04:32:46Z</time>
      </trkpt>
      <trkpt lat="45.13323" lon="6.04188">
        <ele>820.7</ele>
        <time>2022-06-18T04:32:47Z</time>
      </trkpt>
      <trkpt lat="45.13321" lon="6.04183">
        <ele>821.1</ele>
        <time>2022-06-18T04:32:49Z</time>
      </trkpt>
      <trkpt lat="45.13319" lon="6.04179">
        <ele>821.5</ele>
        <time>2022-06-18T04:32:50Z</time>
      </trkpt>
      <trkpt lat="45.13317" lon="6.04174">
        <ele>821.8</ele>
        <time>2022-06-18T04:32:51Z</time>
      </trkpt>
      <trkpt lat="45.13316" lon="6.0417">
        <ele>822.2</ele>
        <time>2022-06-18T04:32:52Z</time>
      </trkpt>
      <trkpt lat="45.13314" lon="6.04166">
        <ele>822.5</ele>
        <time>2022-06-18T04:32:53Z</time>
      </trkpt>
      <trkpt lat="45.13313" lon="6.04162">
        <ele>822.8</ele>
        <time>2022-06-18T04:32:54Z</time>
      </trkpt>
      <trkpt lat="45.13312" lon="6.04157">
        <ele>823.2</ele>
        <time>2022-06-18T04:32:55Z</time>
      </trkpt>
      <trkpt lat="45.13312" lon="6.04155">
        <ele>823.4</ele>
        <time>2022-06-18T04:32:56Z</time>
      </trkpt>
      <trkpt lat="45.1331" lon="6.0415">
        <ele>823.8</ele>
        <time>2022-06-18T04:32:57Z</time>
      </trkpt>
      <trkpt lat="45.13308" lon="6.04145">
        <ele>824.3</ele>
        <time>2022-06-18T04:32:59Z</time>
      </trkpt>
      <trkpt lat="45.13306" lon="6.04139">
        <ele>824.8</ele>
        <time>2022-06-18T04:33:00Z</time>
      </trkpt>
      <trkpt lat="45.13305" lon="6.04135">
        <ele>825.1</ele>
        <time>2022-06-18T04:33:01Z</time>
      </trkpt>
      <trkpt lat="45.13303" lon="6.04132">
        <ele>825.4</ele>
        <time>2022-06-18T04:33:02Z</time>
      </trkpt>
      <trkpt lat="45.13301" lon="6.04127">
        <ele>825.9</ele>
        <time>2022-06-18T04:33:03Z</time>
      </trkpt>
      <trkpt lat="45.133" lon="6.04125">
        <ele>826.1</ele>
        <time>2022-06-18T04:33:04Z</time>
      </trkpt>
      <trkpt lat="45.13298" lon="6.0412">
        <ele>826.5</ele>
        <time>2022-06-18T04:33:06Z</time>
      </trkpt>
      <trkpt lat="45.13296" lon="6.04116">
        <ele>826.9</ele>
        <time>2022-06-18T04:33:07Z</time>
      </trkpt>
      <trkpt lat="45.13294" lon="6.04113">
        <ele>827.2</ele>
        <time>2022-06-18T04:33:08Z</time>
      </trkpt>
      <trkpt lat="45.13291" lon="6.04109">
        <ele>827.6</ele>
        <time>2022-06-18T04:33:09Z</time>
      </trkpt>
      <trkpt lat="45.13287" lon="6.04102">
        <ele>828.3</ele>
        <time>2022-06-18T04:33:11Z</time>
      </trkpt>
      <trkpt lat="45.13285" lon="6.04099">
        <ele>828.5</ele>
        <time>2022-06-18T04:33:12Z</time>
      </trkpt>
      <trkpt lat="45.13283" lon="6.04095">
        <ele>828.9</ele>
        <time>2022-06-18T04:33:14Z</time>
      </trkpt>
      <trkpt lat="45.13281" lon="6.04092">
        <ele>829.2</ele>
        <time>2022-06-18T04:33:15Z</time>
      </trkpt>
      <trkpt lat="45.13279" lon="6.04088">
        <ele>829.5</ele>
        <time>2022-06-18T04:33:16Z</time>
      </trkpt>
      <trkpt lat="45.13278" lon="6.04087">
        <ele>829.6</ele>
        <time>2022-06-18T04:33:17Z</time>
      </trkpt>
      <trkpt lat="45.13276" lon="6.04082">
        <ele>830</ele>
        <time>2022-06-18T04:33:18Z</time>
      </trkpt>
      <trkpt lat="45.13274" lon="6.04078">
        <ele>830.3</ele>
        <time>2022-06-18T04:33:19Z</time>
      </trkpt>
      <trkpt lat="45.13274" lon="6.04077">
        <ele>830.4</ele>
        <time>2022-06-18T04:33:20Z</time>
      </trkpt>
      <trkpt lat="45.13271" lon="6.04073">
        <ele>830.7</ele>
        <time>2022-06-18T04:33:21Z</time>
      </trkpt>
      <trkpt lat="45.1327" lon="6.04071">
        <ele>830.8</ele>
        <time>2022-06-18T04:33:22Z</time>
      </trkpt>
      <trkpt lat="45.13269" lon="6.04068">
        <ele>831.1</ele>
        <time>2022-06-18T04:33:23Z</time>
      </trkpt>
      <trkpt lat="45.13267" lon="6.04065">
        <ele>831.4</ele>
        <time>2022-06-18T04:33:24Z</time>
      </trkpt>
      <trkpt lat="45.13265" lon="6.04061">
        <ele>831.6</ele>
        <time>2022-06-18T04:33:25Z</time>
      </trkpt>
      <trkpt lat="45.13263" lon="6.04054">
        <ele>832.1</ele>
        <time>2022-06-18T04:33:27Z</time>
      </trkpt>
      <trkpt lat="45.13263" lon="6.0405">
        <ele>832.8</ele>
        <time>2022-06-18T04:33:28Z</time>
      </trkpt>
      <trkpt lat="45.13267" lon="6.04049">
        <ele>832.8</ele>
        <time>2022-06-18T04:33:29Z</time>
      </trkpt>
      <trkpt lat="45.13268" lon="6.04049">
        <ele>832.7</ele>
        <time>2022-06-18T04:33:30Z</time>
      </trkpt>
      <trkpt lat="45.13271" lon="6.0405">
        <ele>832.7</ele>
        <time>2022-06-18T04:33:31Z</time>
      </trkpt>
      <trkpt lat="45.13274" lon="6.04055">
        <ele>832.6</ele>
        <time>2022-06-18T04:33:33Z</time>
      </trkpt>
      <trkpt lat="45.13285" lon="6.04068">
        <ele>832.4</ele>
        <time>2022-06-18T04:33:34Z</time>
      </trkpt>
      <trkpt lat="45.13288" lon="6.04074">
        <ele>832.3</ele>
        <time>2022-06-18T04:33:35Z</time>
      </trkpt>
      <trkpt lat="45.1329" lon="6.0408">
        <ele>832.2</ele>
        <time>2022-06-18T04:33:36Z</time>
      </trkpt>
      <trkpt lat="45.13293" lon="6.04087">
        <ele>832.1</ele>
        <time>2022-06-18T04:33:37Z</time>
      </trkpt>
      <trkpt lat="45.13296" lon="6.04094">
        <ele>832.1</ele>
        <time>2022-06-18T04:33:38Z</time>
      </trkpt>
      <trkpt lat="45.133" lon="6.041">
        <ele>832</ele>
        <time>2022-06-18T04:33:39Z</time>
      </trkpt>
      <trkpt lat="45.13304" lon="6.04105">
        <ele>831.9</ele>
        <time>2022-06-18T04:33:40Z</time>
      </trkpt>
      <trkpt lat="45.13309" lon="6.0411">
        <ele>831.9</ele>
        <time>2022-06-18T04:33:41Z</time>
      </trkpt>
      <trkpt lat="45.13314" lon="6.04115">
        <ele>831.8</ele>
        <time>2022-06-18T04:33:42Z</time>
      </trkpt>
      <trkpt lat="45.13319" lon="6.0412">
        <ele>831.7</ele>
        <time>2022-06-18T04:33:43Z</time>
      </trkpt>
      <trkpt lat="45.13323" lon="6.04126">
        <ele>831.7</ele>
        <time>2022-06-18T04:33:44Z</time>
      </trkpt>
      <trkpt lat="45.13327" lon="6.04132">
        <ele>831.6</ele>
        <time>2022-06-18T04:33:45Z</time>
      </trkpt>
      <trkpt lat="45.13332" lon="6.04138">
        <ele>831.6</ele>
        <time>2022-06-18T04:33:46Z</time>
      </trkpt>
      <trkpt lat="45.13336" lon="6.04144">
        <ele>831.5</ele>
        <time>2022-06-18T04:33:47Z</time>
      </trkpt>
      <trkpt lat="45.13341" lon="6.0415">
        <ele>831.5</ele>
        <time>2022-06-18T04:33:48Z</time>
      </trkpt>
      <trkpt lat="45.13345" lon="6.04156">
        <ele>831.5</ele>
        <time>2022-06-18T04:33:49Z</time>
      </trkpt>
      <trkpt lat="45.1335" lon="6.04162">
        <ele>831.4</ele>
        <time>2022-06-18T04:33:50Z</time>
      </trkpt>
      <trkpt lat="45.13355" lon="6.04168">
        <ele>831.4</ele>
        <time>2022-06-18T04:33:51Z</time>
      </trkpt>
      <trkpt lat="45.13359" lon="6.04174">
        <ele>831.4</ele>
        <time>2022-06-18T04:33:52Z</time>
      </trkpt>
      <trkpt lat="45.13364" lon="6.0418">
        <ele>831.3</ele>
        <time>2022-06-18T04:33:53Z</time>
      </trkpt>
      <trkpt lat="45.13369" lon="6.04187">
        <ele>831.3</ele>
        <time>2022-06-18T04:33:54Z</time>
      </trkpt>
      <trkpt lat="45.13375" lon="6.04195">
        <ele>831.3</ele>
        <time>2022-06-18T04:33:55Z</time>
      </trkpt>
      <trkpt lat="45.1338" lon="6.04202">
        <ele>831.3</ele>
        <time>2022-06-18T04:33:56Z</time>
      </trkpt>
      <trkpt lat="45.13385" lon="6.04209">
        <ele>831.2</ele>
        <time>2022-06-18T04:33:57Z</time>
      </trkpt>
      <trkpt lat="45.13391" lon="6.04215">
        <ele>831.2</ele>
        <time>2022-06-18T04:33:58Z</time>
      </trkpt>
      <trkpt lat="45.13395" lon="6.04222">
        <ele>831.2</ele>
        <time>2022-06-18T04:33:59Z</time>
      </trkpt>
      <trkpt lat="45.134" lon="6.04229">
        <ele>831.2</ele>
        <time>2022-06-18T04:34:00Z</time>
      </trkpt>
      <trkpt lat="45.13405" lon="6.04235">
        <ele>831.2</ele>
        <time>2022-06-18T04:34:01Z</time>
      </trkpt>
      <trkpt lat="45.1341" lon="6.04241">
        <ele>831.2</ele>
        <time>2022-06-18T04:34:02Z</time>
      </trkpt>
      <trkpt lat="45.13414" lon="6.04247">
        <ele>831.2</ele>
        <time>2022-06-18T04:34:03Z</time>
      </trkpt>
      <trkpt lat="45.1342" lon="6.04252">
        <ele>831.1</ele>
        <time>2022-06-18T04:34:04Z</time>
      </trkpt>
      <trkpt lat="45.13425" lon="6.04255">
        <ele>831.1</ele>
        <time>2022-06-18T04:34:05Z</time>
      </trkpt>
      <trkpt lat="45.13432" lon="6.04256">
        <ele>831</ele>
        <time>2022-06-18T04:34:06Z</time>
      </trkpt>
      <trkpt lat="45.13438" lon="6.04255">
        <ele>831</ele>
        <time>2022-06-18T04:34:07Z</time>
      </trkpt>
      <trkpt lat="45.13444" lon="6.04253">
        <ele>830.9</ele>
        <time>2022-06-18T04:34:08Z</time>
      </trkpt>
      <trkpt lat="45.13451" lon="6.04252">
        <ele>830.9</ele>
        <time>2022-06-18T04:34:09Z</time>
      </trkpt>
      <trkpt lat="45.13457" lon="6.04251">
        <ele>830.8</ele>
        <time>2022-06-18T04:34:10Z</time>
      </trkpt>
      <trkpt lat="45.13462" lon="6.0425">
        <ele>830.8</ele>
        <time>2022-06-18T04:34:11Z</time>
      </trkpt>
      <trkpt lat="45.13468" lon="6.0425">
        <ele>830.7</ele>
        <time>2022-06-18T04:34:12Z</time>
      </trkpt>
      <trkpt lat="45.13474" lon="6.04251">
        <ele>830.7</ele>
        <time>2022-06-18T04:34:13Z</time>
      </trkpt>
      <trkpt lat="45.1348" lon="6.04252">
        <ele>830.7</ele>
        <time>2022-06-18T04:34:14Z</time>
      </trkpt>
      <trkpt lat="45.13486" lon="6.04252">
        <ele>830.7</ele>
        <time>2022-06-18T04:34:15Z</time>
      </trkpt>
      <trkpt lat="45.13493" lon="6.04253">
        <ele>830.6</ele>
        <time>2022-06-18T04:34:16Z</time>
      </trkpt>
      <trkpt lat="45.13499" lon="6.04254">
        <ele>830.6</ele>
        <time>2022-06-18T04:34:17Z</time>
      </trkpt>
      <trkpt lat="45.13505" lon="6.04255">
        <ele>830.5</ele>
        <time>2022-06-18T04:34:18Z</time>
      </trkpt>
      <trkpt lat="45.13512" lon="6.04256">
        <ele>830.5</ele>
        <time>2022-06-18T04:34:19Z</time>
      </trkpt>
      <trkpt lat="45.13518" lon="6.04258">
        <ele>830.4</ele>
        <time>2022-06-18T04:34:20Z</time>
      </trkpt>
      <trkpt lat="45.13525" lon="6.04261">
        <ele>830.4</ele>
        <time>2022-06-18T04:34:21Z</time>
      </trkpt>
      <trkpt lat="45.13531" lon="6.04265">
        <ele>830.3</ele>
        <time>2022-06-18T04:34:22Z</time>
      </trkpt>
      <trkpt lat="45.13538" lon="6.04269">
        <ele>830.3</ele>
        <time>2022-06-18T04:34:23Z</time>
      </trkpt>
      <trkpt lat="45.13544" lon="6.04273">
        <ele>830.3</ele>
        <time>2022-06-18T04:34:24Z</time>
      </trkpt>
      <trkpt lat="45.13551" lon="6.04278">
        <ele>830.2</ele>
        <time>2022-06-18T04:34:25Z</time>
      </trkpt>
      <trkpt lat="45.13558" lon="6.04282">
        <ele>830.2</ele>
        <time>2022-06-18T04:34:26Z</time>
      </trkpt>
      <trkpt lat="45.13564" lon="6.04286">
        <ele>830.1</ele>
        <time>2022-06-18T04:34:27Z</time>
      </trkpt>
      <trkpt lat="45.1357" lon="6.04289">
        <ele>830.1</ele>
        <time>2022-06-18T04:34:28Z</time>
      </trkpt>
      <trkpt lat="45.13577" lon="6.04292">
        <ele>830</ele>
        <time>2022-06-18T04:34:29Z</time>
      </trkpt>
      <trkpt lat="45.13583" lon="6.04295">
        <ele>829.9</ele>
        <time>2022-06-18T04:34:30Z</time>
      </trkpt>
      <trkpt lat="45.13589" lon="6.043">
        <ele>829.8</ele>
        <time>2022-06-18T04:34:31Z</time>
      </trkpt>
      <trkpt lat="45.13594" lon="6.04305">
        <ele>829.7</ele>
        <time>2022-06-18T04:34:32Z</time>
      </trkpt>
      <trkpt lat="45.13599" lon="6.04312">
        <ele>829.6</ele>
        <time>2022-06-18T04:34:33Z</time>
      </trkpt>
      <trkpt lat="45.13605" lon="6.04319">
        <ele>829.5</ele>
        <time>2022-06-18T04:34:34Z</time>
      </trkpt>
      <trkpt lat="45.1361" lon="6.04326">
        <ele>829.4</ele>
        <time>2022-06-18T04:34:35Z</time>
      </trkpt>
      <trkpt lat="45.13616" lon="6.04333">
        <ele>829.2</ele>
        <time>2022-06-18T04:34:36Z</time>
      </trkpt>
      <trkpt lat="45.13622" lon="6.04341">
        <ele>829.1</ele>
        <time>2022-06-18T04:34:37Z</time>
      </trkpt>
      <trkpt lat="45.13628" lon="6.04348">
        <ele>828.9</ele>
        <time>2022-06-18T04:34:38Z</time>
      </trkpt>
      <trkpt lat="45.13634" lon="6.04355">
        <ele>828.8</ele>
        <time>2022-06-18T04:34:39Z</time>
      </trkpt>
      <trkpt lat="45.13639" lon="6.04363">
        <ele>828.7</ele>
        <time>2022-06-18T04:34:40Z</time>
      </trkpt>
      <trkpt lat="45.13645" lon="6.0437">
        <ele>828.5</ele>
        <time>2022-06-18T04:34:41Z</time>
      </trkpt>
      <trkpt lat="45.13651" lon="6.04377">
        <ele>828.4</ele>
        <time>2022-06-18T04:34:42Z</time>
      </trkpt>
      <trkpt lat="45.13657" lon="6.04382">
        <ele>828.3</ele>
        <time>2022-06-18T04:34:43Z</time>
      </trkpt>
      <trkpt lat="45.13663" lon="6.04386">
        <ele>828.1</ele>
        <time>2022-06-18T04:34:44Z</time>
      </trkpt>
      <trkpt lat="45.1367" lon="6.04388">
        <ele>828</ele>
        <time>2022-06-18T04:34:45Z</time>
      </trkpt>
      <trkpt lat="45.13678" lon="6.04388">
        <ele>827.9</ele>
        <time>2022-06-18T04:34:46Z</time>
      </trkpt>
      <trkpt lat="45.13686" lon="6.04386">
        <ele>827.7</ele>
        <time>2022-06-18T04:34:47Z</time>
      </trkpt>
      <trkpt lat="45.13694" lon="6.04384">
        <ele>827.5</ele>
        <time>2022-06-18T04:34:48Z</time>
      </trkpt>
      <trkpt lat="45.13701" lon="6.04382">
        <ele>827.4</ele>
        <time>2022-06-18T04:34:49Z</time>
      </trkpt>
      <trkpt lat="45.13709" lon="6.04382">
        <ele>827.2</ele>
        <time>2022-06-18T04:34:50Z</time>
      </trkpt>
      <trkpt lat="45.13717" lon="6.04382">
        <ele>827</ele>
        <time>2022-06-18T04:34:51Z</time>
      </trkpt>
      <trkpt lat="45.13725" lon="6.04382">
        <ele>826.9</ele>
        <time>2022-06-18T04:34:52Z</time>
      </trkpt>
      <trkpt lat="45.13732" lon="6.04383">
        <ele>826.7</ele>
        <time>2022-06-18T04:34:53Z</time>
      </trkpt>
      <trkpt lat="45.13739" lon="6.04386">
        <ele>826.7</ele>
        <time>2022-06-18T04:34:54Z</time>
      </trkpt>
      <trkpt lat="45.13745" lon="6.0439">
        <ele>826.5</ele>
        <time>2022-06-18T04:34:55Z</time>
      </trkpt>
      <trkpt lat="45.13752" lon="6.04396">
        <ele>826.3</ele>
        <time>2022-06-18T04:34:56Z</time>
      </trkpt>
      <trkpt lat="45.13757" lon="6.04404">
        <ele>826.1</ele>
        <time>2022-06-18T04:34:57Z</time>
      </trkpt>
      <trkpt lat="45.13763" lon="6.04411">
        <ele>825.9</ele>
        <time>2022-06-18T04:34:58Z</time>
      </trkpt>
      <trkpt lat="45.1377" lon="6.04419">
        <ele>825.7</ele>
        <time>2022-06-18T04:34:59Z</time>
      </trkpt>
      <trkpt lat="45.13776" lon="6.04426">
        <ele>825.5</ele>
        <time>2022-06-18T04:35:00Z</time>
      </trkpt>
      <trkpt lat="45.13782" lon="6.04433">
        <ele>825.4</ele>
        <time>2022-06-18T04:35:01Z</time>
      </trkpt>
      <trkpt lat="45.13788" lon="6.04439">
        <ele>825.2</ele>
        <time>2022-06-18T04:35:02Z</time>
      </trkpt>
      <trkpt lat="45.13795" lon="6.04444">
        <ele>825</ele>
        <time>2022-06-18T04:35:03Z</time>
      </trkpt>
      <trkpt lat="45.13801" lon="6.04448">
        <ele>824.9</ele>
        <time>2022-06-18T04:35:04Z</time>
      </trkpt>
      <trkpt lat="45.13808" lon="6.04449">
        <ele>824.7</ele>
        <time>2022-06-18T04:35:05Z</time>
      </trkpt>
      <trkpt lat="45.13815" lon="6.04446">
        <ele>824.4</ele>
        <time>2022-06-18T04:35:06Z</time>
      </trkpt>
      <trkpt lat="45.13823" lon="6.04439">
        <ele>823.9</ele>
        <time>2022-06-18T04:35:07Z</time>
      </trkpt>
      <trkpt lat="45.13828" lon="6.04426">
        <ele>823.4</ele>
        <time>2022-06-18T04:35:08Z</time>
      </trkpt>
      <trkpt lat="45.13831" lon="6.04413">
        <ele>822.8</ele>
        <time>2022-06-18T04:35:09Z</time>
      </trkpt>
      <trkpt lat="45.13832" lon="6.04399">
        <ele>822.2</ele>
        <time>2022-06-18T04:35:10Z</time>
      </trkpt>
      <trkpt lat="45.13834" lon="6.04384">
        <ele>821.5</ele>
        <time>2022-06-18T04:35:11Z</time>
      </trkpt>
      <trkpt lat="45.13836" lon="6.04371">
        <ele>820.9</ele>
        <time>2022-06-18T04:35:12Z</time>
      </trkpt>
      <trkpt lat="45.13839" lon="6.04357">
        <ele>820.3</ele>
        <time>2022-06-18T04:35:13Z</time>
      </trkpt>
      <trkpt lat="45.13842" lon="6.04345">
        <ele>819.7</ele>
        <time>2022-06-18T04:35:14Z</time>
      </trkpt>
      <trkpt lat="45.13846" lon="6.04332">
        <ele>819.4</ele>
        <time>2022-06-18T04:35:15Z</time>
      </trkpt>
      <trkpt lat="45.1385" lon="6.04321">
        <ele>819.2</ele>
        <time>2022-06-18T04:35:16Z</time>
      </trkpt>
      <trkpt lat="45.13853" lon="6.04309">
        <ele>819</ele>
        <time>2022-06-18T04:35:17Z</time>
      </trkpt>
      <trkpt lat="45.13854" lon="6.04297">
        <ele>818.9</ele>
        <time>2022-06-18T04:35:18Z</time>
      </trkpt>
      <trkpt lat="45.13855" lon="6.04285">
        <ele>818.8</ele>
        <time>2022-06-18T04:35:19Z</time>
      </trkpt>
      <trkpt lat="45.13857" lon="6.04273">
        <ele>818.8</ele>
        <time>2022-06-18T04:35:20Z</time>
      </trkpt>
      <trkpt lat="45.13859" lon="6.04262">
        <ele>818.8</ele>
        <time>2022-06-18T04:35:21Z</time>
      </trkpt>
      <trkpt lat="45.13863" lon="6.04251">
        <ele>818.9</ele>
        <time>2022-06-18T04:35:22Z</time>
      </trkpt>
      <trkpt lat="45.13868" lon="6.0424">
        <ele>819.1</ele>
        <time>2022-06-18T04:35:23Z</time>
      </trkpt>
      <trkpt lat="45.13873" lon="6.0423">
        <ele>819.4</ele>
        <time>2022-06-18T04:35:24Z</time>
      </trkpt>
      <trkpt lat="45.13879" lon="6.04221">
        <ele>819.5</ele>
        <time>2022-06-18T04:35:25Z</time>
      </trkpt>
      <trkpt lat="45.13886" lon="6.04213">
        <ele>819.5</ele>
        <time>2022-06-18T04:35:26Z</time>
      </trkpt>
      <trkpt lat="45.13892" lon="6.04207">
        <ele>819.8</ele>
        <time>2022-06-18T04:35:27Z</time>
      </trkpt>
      <trkpt lat="45.13899" lon="6.04203">
        <ele>820.4</ele>
        <time>2022-06-18T04:35:28Z</time>
      </trkpt>
      <trkpt lat="45.13906" lon="6.042">
        <ele>821</ele>
        <time>2022-06-18T04:35:29Z</time>
      </trkpt>
      <trkpt lat="45.13913" lon="6.04198">
        <ele>821.7</ele>
        <time>2022-06-18T04:35:30Z</time>
      </trkpt>
      <trkpt lat="45.1392" lon="6.04198">
        <ele>822.4</ele>
        <time>2022-06-18T04:35:31Z</time>
      </trkpt>
      <trkpt lat="45.13927" lon="6.042">
        <ele>823.1</ele>
        <time>2022-06-18T04:35:32Z</time>
      </trkpt>
      <trkpt lat="45.13933" lon="6.04203">
        <ele>823.9</ele>
        <time>2022-06-18T04:35:33Z</time>
      </trkpt>
      <trkpt lat="45.13938" lon="6.04207">
        <ele>824.6</ele>
        <time>2022-06-18T04:35:34Z</time>
      </trkpt>
      <trkpt lat="45.13942" lon="6.04212">
        <ele>825.2</ele>
        <time>2022-06-18T04:35:35Z</time>
      </trkpt>
      <trkpt lat="45.13945" lon="6.04218">
        <ele>825.8</ele>
        <time>2022-06-18T04:35:36Z</time>
      </trkpt>
      <trkpt lat="45.13947" lon="6.04223">
        <ele>826.3</ele>
        <time>2022-06-18T04:35:37Z</time>
      </trkpt>
      <trkpt lat="45.13948" lon="6.04227">
        <ele>826.6</ele>
        <time>2022-06-18T04:35:38Z</time>
      </trkpt>
      <trkpt lat="45.1395" lon="6.04232">
        <ele>827</ele>
        <time>2022-06-18T04:35:39Z</time>
      </trkpt>
      <trkpt lat="45.1395" lon="6.04234">
        <ele>827.1</ele>
        <time>2022-06-18T04:35:40Z</time>
      </trkpt>
      <trkpt lat="45.1395" lon="6.04239">
        <ele>827.5</ele>
        <time>2022-06-18T04:35:41Z</time>
      </trkpt>
      <trkpt lat="45.13951" lon="6.0424">
        <ele>827.6</ele>
        <time>2022-06-18T04:35:42Z</time>
      </trkpt>
      <trkpt lat="45.13952" lon="6.04245">
        <ele>828</ele>
        <time>2022-06-18T04:35:43Z</time>
      </trkpt>
      <trkpt lat="45.13953" lon="6.04246">
        <ele>828.1</ele>
        <time>2022-06-18T04:35:44Z</time>
      </trkpt>
      <trkpt lat="45.13954" lon="6.0425">
        <ele>828.4</ele>
        <time>2022-06-18T04:35:45Z</time>
      </trkpt>
      <trkpt lat="45.13956" lon="6.04256">
        <ele>828.9</ele>
        <time>2022-06-18T04:35:47Z</time>
      </trkpt>
      <trkpt lat="45.13959" lon="6.04261">
        <ele>829.5</ele>
        <time>2022-06-18T04:35:48Z</time>
      </trkpt>
      <trkpt lat="45.13961" lon="6.04266">
        <ele>829.8</ele>
        <time>2022-06-18T04:35:49Z</time>
      </trkpt>
      <trkpt lat="45.13962" lon="6.04272">
        <ele>830.3</ele>
        <time>2022-06-18T04:35:51Z</time>
      </trkpt>
      <trkpt lat="45.13963" lon="6.04277">
        <ele>830.7</ele>
        <time>2022-06-18T04:35:52Z</time>
      </trkpt>
      <trkpt lat="45.13965" lon="6.04283">
        <ele>831.1</ele>
        <time>2022-06-18T04:35:53Z</time>
      </trkpt>
      <trkpt lat="45.13968" lon="6.04285">
        <ele>831.3</ele>
        <time>2022-06-18T04:35:54Z</time>
      </trkpt>
      <trkpt lat="45.13971" lon="6.04287">
        <ele>831.6</ele>
        <time>2022-06-18T04:35:55Z</time>
      </trkpt>
      <trkpt lat="45.13972" lon="6.04288">
        <ele>831.6</ele>
        <time>2022-06-18T04:35:56Z</time>
      </trkpt>
      <trkpt lat="45.13975" lon="6.04288">
        <ele>831.9</ele>
        <time>2022-06-18T04:35:57Z</time>
      </trkpt>
      <trkpt lat="45.13977" lon="6.04288">
        <ele>831.9</ele>
        <time>2022-06-18T04:35:58Z</time>
      </trkpt>
      <trkpt lat="45.13979" lon="6.04288">
        <ele>832.1</ele>
        <time>2022-06-18T04:35:59Z</time>
      </trkpt>
      <trkpt lat="45.13983" lon="6.04288">
        <ele>832.3</ele>
        <time>2022-06-18T04:36:01Z</time>
      </trkpt>
      <trkpt lat="45.13986" lon="6.04287">
        <ele>832.5</ele>
        <time>2022-06-18T04:36:02Z</time>
      </trkpt>
      <trkpt lat="45.1399" lon="6.04288">
        <ele>832.7</ele>
        <time>2022-06-18T04:36:03Z</time>
      </trkpt>
      <trkpt lat="45.13994" lon="6.04288">
        <ele>832.8</ele>
        <time>2022-06-18T04:36:04Z</time>
      </trkpt>
      <trkpt lat="45.13997" lon="6.0429">
        <ele>833</ele>
        <time>2022-06-18T04:36:05Z</time>
      </trkpt>
      <trkpt lat="45.14001" lon="6.04293">
        <ele>833.2</ele>
        <time>2022-06-18T04:36:06Z</time>
      </trkpt>
      <trkpt lat="45.14005" lon="6.04297">
        <ele>833.5</ele>
        <time>2022-06-18T04:36:08Z</time>
      </trkpt>
      <trkpt lat="45.14011" lon="6.04302">
        <ele>833.9</ele>
        <time>2022-06-18T04:36:09Z</time>
      </trkpt>
      <trkpt lat="45.14014" lon="6.04305">
        <ele>834.1</ele>
        <time>2022-06-18T04:36:10Z</time>
      </trkpt>
      <trkpt lat="45.14018" lon="6.04309">
        <ele>834.4</ele>
        <time>2022-06-18T04:36:12Z</time>
      </trkpt>
      <trkpt lat="45.14021" lon="6.04311">
        <ele>834.6</ele>
        <time>2022-06-18T04:36:13Z</time>
      </trkpt>
      <trkpt lat="45.14026" lon="6.04313">
        <ele>834.8</ele>
        <time>2022-06-18T04:36:14Z</time>
      </trkpt>
      <trkpt lat="45.14029" lon="6.04314">
        <ele>835</ele>
        <time>2022-06-18T04:36:15Z</time>
      </trkpt>
      <trkpt lat="45.14033" lon="6.04316">
        <ele>835.2</ele>
        <time>2022-06-18T04:36:16Z</time>
      </trkpt>
      <trkpt lat="45.14036" lon="6.04317">
        <ele>835.4</ele>
        <time>2022-06-18T04:36:17Z</time>
      </trkpt>
      <trkpt lat="45.14039" lon="6.04318">
        <ele>835.5</ele>
        <time>2022-06-18T04:36:18Z</time>
      </trkpt>
      <trkpt lat="45.14043" lon="6.04318">
        <ele>835.7</ele>
        <time>2022-06-18T04:36:19Z</time>
      </trkpt>
      <trkpt lat="45.14047" lon="6.04319">
        <ele>836</ele>
        <time>2022-06-18T04:36:21Z</time>
      </trkpt>
      <trkpt lat="45.14051" lon="6.04319">
        <ele>836.2</ele>
        <time>2022-06-18T04:36:22Z</time>
      </trkpt>
      <trkpt lat="45.14058" lon="6.04321">
        <ele>836.6</ele>
        <time>2022-06-18T04:36:23Z</time>
      </trkpt>
      <trkpt lat="45.14066" lon="6.04323">
        <ele>837.1</ele>
        <time>2022-06-18T04:36:25Z</time>
      </trkpt>
      <trkpt lat="45.1407" lon="6.04325">
        <ele>837.3</ele>
        <time>2022-06-18T04:36:26Z</time>
      </trkpt>
      <trkpt lat="45.14074" lon="6.04326">
        <ele>837.6</ele>
        <time>2022-06-18T04:36:27Z</time>
      </trkpt>
      <trkpt lat="45.14078" lon="6.04327">
        <ele>837.9</ele>
        <time>2022-06-18T04:36:29Z</time>
      </trkpt>
      <trkpt lat="45.14083" lon="6.04328">
        <ele>838.2</ele>
        <time>2022-06-18T04:36:30Z</time>
      </trkpt>
      <trkpt lat="45.14088" lon="6.04329">
        <ele>838.5</ele>
        <time>2022-06-18T04:36:31Z</time>
      </trkpt>
      <trkpt lat="45.14092" lon="6.04329">
        <ele>838.8</ele>
        <time>2022-06-18T04:36:32Z</time>
      </trkpt>
      <trkpt lat="45.14098" lon="6.04329">
        <ele>839.1</ele>
        <time>2022-06-18T04:36:34Z</time>
      </trkpt>
      <trkpt lat="45.14103" lon="6.04326">
        <ele>839.5</ele>
        <time>2022-06-18T04:36:35Z</time>
      </trkpt>
      <trkpt lat="45.14107" lon="6.04322">
        <ele>839.8</ele>
        <time>2022-06-18T04:36:36Z</time>
      </trkpt>
      <trkpt lat="45.14111" lon="6.04315">
        <ele>840.1</ele>
        <time>2022-06-18T04:36:38Z</time>
      </trkpt>
      <trkpt lat="45.14115" lon="6.0431">
        <ele>840.4</ele>
        <time>2022-06-18T04:36:39Z</time>
      </trkpt>
      <trkpt lat="45.14118" lon="6.04305">
        <ele>840.6</ele>
        <time>2022-06-18T04:36:40Z</time>
      </trkpt>
      <trkpt lat="45.14124" lon="6.04299">
        <ele>840.9</ele>
        <time>2022-06-18T04:36:42Z</time>
      </trkpt>
      <trkpt lat="45.14128" lon="6.04295">
        <ele>841.1</ele>
        <time>2022-06-18T04:36:43Z</time>
      </trkpt>
      <trkpt lat="45.14133" lon="6.04294">
        <ele>841.2</ele>
        <time>2022-06-18T04:36:44Z</time>
      </trkpt>
      <trkpt lat="45.14138" lon="6.04293">
        <ele>841.4</ele>
        <time>2022-06-18T04:36:45Z</time>
      </trkpt>
      <trkpt lat="45.14144" lon="6.04293">
        <ele>841.5</ele>
        <time>2022-06-18T04:36:46Z</time>
      </trkpt>
      <trkpt lat="45.14148" lon="6.04294">
        <ele>841.7</ele>
        <time>2022-06-18T04:36:47Z</time>
      </trkpt>
      <trkpt lat="45.14154" lon="6.04295">
        <ele>841.8</ele>
        <time>2022-06-18T04:36:49Z</time>
      </trkpt>
      <trkpt lat="45.14158" lon="6.04297">
        <ele>842</ele>
        <time>2022-06-18T04:36:50Z</time>
      </trkpt>
      <trkpt lat="45.14164" lon="6.04301">
        <ele>842.3</ele>
        <time>2022-06-18T04:36:51Z</time>
      </trkpt>
      <trkpt lat="45.14167" lon="6.04304">
        <ele>842.4</ele>
        <time>2022-06-18T04:36:52Z</time>
      </trkpt>
      <trkpt lat="45.1417" lon="6.04308">
        <ele>842.6</ele>
        <time>2022-06-18T04:36:53Z</time>
      </trkpt>
      <trkpt lat="45.14173" lon="6.04311">
        <ele>842.7</ele>
        <time>2022-06-18T04:36:54Z</time>
      </trkpt>
      <trkpt lat="45.14176" lon="6.04314">
        <ele>842.9</ele>
        <time>2022-06-18T04:36:55Z</time>
      </trkpt>
      <trkpt lat="45.14179" lon="6.04317">
        <ele>843</ele>
        <time>2022-06-18T04:36:56Z</time>
      </trkpt>
      <trkpt lat="45.14184" lon="6.04321">
        <ele>843.3</ele>
        <time>2022-06-18T04:36:58Z</time>
      </trkpt>
      <trkpt lat="45.14189" lon="6.04324">
        <ele>843.5</ele>
        <time>2022-06-18T04:36:59Z</time>
      </trkpt>
      <trkpt lat="45.14194" lon="6.04325">
        <ele>843.7</ele>
        <time>2022-06-18T04:37:00Z</time>
      </trkpt>
      <trkpt lat="45.142" lon="6.04326">
        <ele>843.9</ele>
        <time>2022-06-18T04:37:02Z</time>
      </trkpt>
      <trkpt lat="45.14207" lon="6.04326">
        <ele>844.1</ele>
        <time>2022-06-18T04:37:03Z</time>
      </trkpt>
      <trkpt lat="45.14211" lon="6.04325">
        <ele>844.2</ele>
        <time>2022-06-18T04:37:04Z</time>
      </trkpt>
      <trkpt lat="45.14217" lon="6.04324">
        <ele>844.3</ele>
        <time>2022-06-18T04:37:05Z</time>
      </trkpt>
      <trkpt lat="45.14221" lon="6.04324">
        <ele>844.4</ele>
        <time>2022-06-18T04:37:06Z</time>
      </trkpt>
      <trkpt lat="45.14227" lon="6.04324">
        <ele>844.5</ele>
        <time>2022-06-18T04:37:07Z</time>
      </trkpt>
      <trkpt lat="45.14232" lon="6.04324">
        <ele>844.6</ele>
        <time>2022-06-18T04:37:08Z</time>
      </trkpt>
      <trkpt lat="45.14237" lon="6.04326">
        <ele>844.6</ele>
        <time>2022-06-18T04:37:09Z</time>
      </trkpt>
      <trkpt lat="45.14242" lon="6.04327">
        <ele>844.7</ele>
        <time>2022-06-18T04:37:10Z</time>
      </trkpt>
      <trkpt lat="45.14245" lon="6.04328">
        <ele>844.7</ele>
        <time>2022-06-18T04:37:11Z</time>
      </trkpt>
      <trkpt lat="45.1425" lon="6.04333">
        <ele>844.8</ele>
        <time>2022-06-18T04:37:13Z</time>
      </trkpt>
      <trkpt lat="45.14257" lon="6.04347">
        <ele>844.9</ele>
        <time>2022-06-18T04:37:14Z</time>
      </trkpt>
      <trkpt lat="45.14262" lon="6.04353">
        <ele>845</ele>
        <time>2022-06-18T04:37:15Z</time>
      </trkpt>
      <trkpt lat="45.14267" lon="6.04358">
        <ele>845</ele>
        <time>2022-06-18T04:37:16Z</time>
      </trkpt>
      <trkpt lat="45.14272" lon="6.04361">
        <ele>845</ele>
        <time>2022-06-18T04:37:17Z</time>
      </trkpt>
      <trkpt lat="45.14278" lon="6.04364">
        <ele>845</ele>
        <time>2022-06-18T04:37:18Z</time>
      </trkpt>
      <trkpt lat="45.14283" lon="6.04366">
        <ele>844.9</ele>
        <time>2022-06-18T04:37:19Z</time>
      </trkpt>
      <trkpt lat="45.1429" lon="6.04368">
        <ele>844.8</ele>
        <time>2022-06-18T04:37:20Z</time>
      </trkpt>
      <trkpt lat="45.14296" lon="6.0437">
        <ele>844.7</ele>
        <time>2022-06-18T04:37:21Z</time>
      </trkpt>
      <trkpt lat="45.14302" lon="6.04372">
        <ele>844.6</ele>
        <time>2022-06-18T04:37:22Z</time>
      </trkpt>
      <trkpt lat="45.14307" lon="6.04374">
        <ele>844.5</ele>
        <time>2022-06-18T04:37:23Z</time>
      </trkpt>
      <trkpt lat="45.14313" lon="6.04376">
        <ele>844.3</ele>
        <time>2022-06-18T04:37:24Z</time>
      </trkpt>
      <trkpt lat="45.14319" lon="6.04379">
        <ele>844.1</ele>
        <time>2022-06-18T04:37:25Z</time>
      </trkpt>
      <trkpt lat="45.14324" lon="6.04381">
        <ele>844</ele>
        <time>2022-06-18T04:37:26Z</time>
      </trkpt>
      <trkpt lat="45.1433" lon="6.04385">
        <ele>843.8</ele>
        <time>2022-06-18T04:37:27Z</time>
      </trkpt>
      <trkpt lat="45.14335" lon="6.04388">
        <ele>843.7</ele>
        <time>2022-06-18T04:37:28Z</time>
      </trkpt>
      <trkpt lat="45.1434" lon="6.04391">
        <ele>843.5</ele>
        <time>2022-06-18T04:37:29Z</time>
      </trkpt>
      <trkpt lat="45.14345" lon="6.04395">
        <ele>843.3</ele>
        <time>2022-06-18T04:37:30Z</time>
      </trkpt>
      <trkpt lat="45.14351" lon="6.044">
        <ele>843.2</ele>
        <time>2022-06-18T04:37:31Z</time>
      </trkpt>
      <trkpt lat="45.14356" lon="6.04404">
        <ele>843</ele>
        <time>2022-06-18T04:37:32Z</time>
      </trkpt>
      <trkpt lat="45.14361" lon="6.04408">
        <ele>842.8</ele>
        <time>2022-06-18T04:37:33Z</time>
      </trkpt>
      <trkpt lat="45.14366" lon="6.04412">
        <ele>842.7</ele>
        <time>2022-06-18T04:37:34Z</time>
      </trkpt>
      <trkpt lat="45.14372" lon="6.04417">
        <ele>842.5</ele>
        <time>2022-06-18T04:37:35Z</time>
      </trkpt>
      <trkpt lat="45.14378" lon="6.04422">
        <ele>842.2</ele>
        <time>2022-06-18T04:37:36Z</time>
      </trkpt>
      <trkpt lat="45.14384" lon="6.04426">
        <ele>842.1</ele>
        <time>2022-06-18T04:37:37Z</time>
      </trkpt>
      <trkpt lat="45.1439" lon="6.04429">
        <ele>841.8</ele>
        <time>2022-06-18T04:37:38Z</time>
      </trkpt>
      <trkpt lat="45.14397" lon="6.04431">
        <ele>841.6</ele>
        <time>2022-06-18T04:37:39Z</time>
      </trkpt>
      <trkpt lat="45.14404" lon="6.0443">
        <ele>841.4</ele>
        <time>2022-06-18T04:37:40Z</time>
      </trkpt>
      <trkpt lat="45.1441" lon="6.04427">
        <ele>841.2</ele>
        <time>2022-06-18T04:37:41Z</time>
      </trkpt>
      <trkpt lat="45.14415" lon="6.04423">
        <ele>840.9</ele>
        <time>2022-06-18T04:37:42Z</time>
      </trkpt>
      <trkpt lat="45.14419" lon="6.04415">
        <ele>840.7</ele>
        <time>2022-06-18T04:37:43Z</time>
      </trkpt>
      <trkpt lat="45.14422" lon="6.04405">
        <ele>840.3</ele>
        <time>2022-06-18T04:37:44Z</time>
      </trkpt>
      <trkpt lat="45.14427" lon="6.04396">
        <ele>839.8</ele>
        <time>2022-06-18T04:37:45Z</time>
      </trkpt>
      <trkpt lat="45.14433" lon="6.04391">
        <ele>839.4</ele>
        <time>2022-06-18T04:37:46Z</time>
      </trkpt>
      <trkpt lat="45.1444" lon="6.04388">
        <ele>839</ele>
        <time>2022-06-18T04:37:47Z</time>
      </trkpt>
      <trkpt lat="45.14448" lon="6.04388">
        <ele>838.5</ele>
        <time>2022-06-18T04:37:48Z</time>
      </trkpt>
      <trkpt lat="45.14456" lon="6.0439">
        <ele>838.1</ele>
        <time>2022-06-18T04:37:49Z</time>
      </trkpt>
      <trkpt lat="45.14463" lon="6.04394">
        <ele>837.6</ele>
        <time>2022-06-18T04:37:50Z</time>
      </trkpt>
      <trkpt lat="45.14471" lon="6.044">
        <ele>837.2</ele>
        <time>2022-06-18T04:37:51Z</time>
      </trkpt>
      <trkpt lat="45.14478" lon="6.04406">
        <ele>837.1</ele>
        <time>2022-06-18T04:37:52Z</time>
      </trkpt>
      <trkpt lat="45.14486" lon="6.04411">
        <ele>837.1</ele>
        <time>2022-06-18T04:37:53Z</time>
      </trkpt>
      <trkpt lat="45.14494" lon="6.04416">
        <ele>837.1</ele>
        <time>2022-06-18T04:37:54Z</time>
      </trkpt>
      <trkpt lat="45.14502" lon="6.04421">
        <ele>837</ele>
        <time>2022-06-18T04:37:55Z</time>
      </trkpt>
      <trkpt lat="45.1451" lon="6.04425">
        <ele>836.9</ele>
        <time>2022-06-18T04:37:56Z</time>
      </trkpt>
      <trkpt lat="45.14518" lon="6.0443">
        <ele>836.9</ele>
        <time>2022-06-18T04:37:57Z</time>
      </trkpt>
      <trkpt lat="45.14526" lon="6.04434">
        <ele>836.8</ele>
        <time>2022-06-18T04:37:58Z</time>
      </trkpt>
      <trkpt lat="45.14534" lon="6.04438">
        <ele>836.8</ele>
        <time>2022-06-18T04:37:59Z</time>
      </trkpt>
      <trkpt lat="45.14541" lon="6.04441">
        <ele>836.8</ele>
        <time>2022-06-18T04:38:00Z</time>
      </trkpt>
      <trkpt lat="45.14548" lon="6.04444">
        <ele>836.8</ele>
        <time>2022-06-18T04:38:01Z</time>
      </trkpt>
      <trkpt lat="45.14556" lon="6.04447">
        <ele>836.8</ele>
        <time>2022-06-18T04:38:02Z</time>
      </trkpt>
      <trkpt lat="45.14564" lon="6.04448">
        <ele>836.8</ele>
        <time>2022-06-18T04:38:03Z</time>
      </trkpt>
      <trkpt lat="45.14571" lon="6.04449">
        <ele>836.7</ele>
        <time>2022-06-18T04:38:04Z</time>
      </trkpt>
      <trkpt lat="45.14579" lon="6.04449">
        <ele>836.7</ele>
        <time>2022-06-18T04:38:05Z</time>
      </trkpt>
      <trkpt lat="45.14586" lon="6.04448">
        <ele>836.7</ele>
        <time>2022-06-18T04:38:06Z</time>
      </trkpt>
      <trkpt lat="45.14594" lon="6.04448">
        <ele>836.7</ele>
        <time>2022-06-18T04:38:07Z</time>
      </trkpt>
      <trkpt lat="45.14601" lon="6.04448">
        <ele>836.7</ele>
        <time>2022-06-18T04:38:08Z</time>
      </trkpt>
      <trkpt lat="45.14609" lon="6.04449">
        <ele>836.7</ele>
        <time>2022-06-18T04:38:09Z</time>
      </trkpt>
      <trkpt lat="45.14616" lon="6.0445">
        <ele>836.8</ele>
        <time>2022-06-18T04:38:10Z</time>
      </trkpt>
      <trkpt lat="45.14623" lon="6.04451">
        <ele>836.9</ele>
        <time>2022-06-18T04:38:11Z</time>
      </trkpt>
      <trkpt lat="45.14631" lon="6.04453">
        <ele>836.9</ele>
        <time>2022-06-18T04:38:12Z</time>
      </trkpt>
      <trkpt lat="45.14638" lon="6.04455">
        <ele>837</ele>
        <time>2022-06-18T04:38:13Z</time>
      </trkpt>
      <trkpt lat="45.14645" lon="6.04457">
        <ele>837.2</ele>
        <time>2022-06-18T04:38:14Z</time>
      </trkpt>
      <trkpt lat="45.14652" lon="6.04459">
        <ele>837.3</ele>
        <time>2022-06-18T04:38:15Z</time>
      </trkpt>
      <trkpt lat="45.14659" lon="6.04462">
        <ele>837.5</ele>
        <time>2022-06-18T04:38:16Z</time>
      </trkpt>
      <trkpt lat="45.14666" lon="6.04466">
        <ele>837.6</ele>
        <time>2022-06-18T04:38:17Z</time>
      </trkpt>
      <trkpt lat="45.14673" lon="6.04469">
        <ele>837.7</ele>
        <time>2022-06-18T04:38:18Z</time>
      </trkpt>
      <trkpt lat="45.14679" lon="6.04471">
        <ele>837.9</ele>
        <time>2022-06-18T04:38:19Z</time>
      </trkpt>
      <trkpt lat="45.14686" lon="6.04472">
        <ele>838</ele>
        <time>2022-06-18T04:38:20Z</time>
      </trkpt>
      <trkpt lat="45.14693" lon="6.04472">
        <ele>838.2</ele>
        <time>2022-06-18T04:38:21Z</time>
      </trkpt>
      <trkpt lat="45.14699" lon="6.04472">
        <ele>838.4</ele>
        <time>2022-06-18T04:38:22Z</time>
      </trkpt>
      <trkpt lat="45.14706" lon="6.04472">
        <ele>838.5</ele>
        <time>2022-06-18T04:38:23Z</time>
      </trkpt>
      <trkpt lat="45.14712" lon="6.04471">
        <ele>838.7</ele>
        <time>2022-06-18T04:38:24Z</time>
      </trkpt>
      <trkpt lat="45.14718" lon="6.0447">
        <ele>838.8</ele>
        <time>2022-06-18T04:38:25Z</time>
      </trkpt>
      <trkpt lat="45.14725" lon="6.04469">
        <ele>838.9</ele>
        <time>2022-06-18T04:38:26Z</time>
      </trkpt>
      <trkpt lat="45.14731" lon="6.04468">
        <ele>839.1</ele>
        <time>2022-06-18T04:38:27Z</time>
      </trkpt>
      <trkpt lat="45.14737" lon="6.04466">
        <ele>839.2</ele>
        <time>2022-06-18T04:38:28Z</time>
      </trkpt>
      <trkpt lat="45.14744" lon="6.04465">
        <ele>839.4</ele>
        <time>2022-06-18T04:38:29Z</time>
      </trkpt>
      <trkpt lat="45.1475" lon="6.04464">
        <ele>839.5</ele>
        <time>2022-06-18T04:38:30Z</time>
      </trkpt>
      <trkpt lat="45.14756" lon="6.04463">
        <ele>839.6</ele>
        <time>2022-06-18T04:38:31Z</time>
      </trkpt>
      <trkpt lat="45.14763" lon="6.04461">
        <ele>839.8</ele>
        <time>2022-06-18T04:38:32Z</time>
      </trkpt>
      <trkpt lat="45.14769" lon="6.0446">
        <ele>839.9</ele>
        <time>2022-06-18T04:38:33Z</time>
      </trkpt>
      <trkpt lat="45.14776" lon="6.04459">
        <ele>840</ele>
        <time>2022-06-18T04:38:34Z</time>
      </trkpt>
      <trkpt lat="45.14783" lon="6.04459">
        <ele>840.1</ele>
        <time>2022-06-18T04:38:35Z</time>
      </trkpt>
      <trkpt lat="45.14789" lon="6.04458">
        <ele>840.3</ele>
        <time>2022-06-18T04:38:36Z</time>
      </trkpt>
      <trkpt lat="45.14796" lon="6.04457">
        <ele>840.4</ele>
        <time>2022-06-18T04:38:37Z</time>
      </trkpt>
      <trkpt lat="45.14802" lon="6.04457">
        <ele>840.4</ele>
        <time>2022-06-18T04:38:38Z</time>
      </trkpt>
      <trkpt lat="45.14808" lon="6.04455">
        <ele>840.5</ele>
        <time>2022-06-18T04:38:39Z</time>
      </trkpt>
      <trkpt lat="45.14814" lon="6.04454">
        <ele>840.6</ele>
        <time>2022-06-18T04:38:40Z</time>
      </trkpt>
      <trkpt lat="45.14821" lon="6.04453">
        <ele>840.6</ele>
        <time>2022-06-18T04:38:41Z</time>
      </trkpt>
      <trkpt lat="45.14828" lon="6.04452">
        <ele>840.8</ele>
        <time>2022-06-18T04:38:42Z</time>
      </trkpt>
      <trkpt lat="45.14834" lon="6.04451">
        <ele>840.9</ele>
        <time>2022-06-18T04:38:43Z</time>
      </trkpt>
      <trkpt lat="45.14841" lon="6.0445">
        <ele>841</ele>
        <time>2022-06-18T04:38:44Z</time>
      </trkpt>
      <trkpt lat="45.14848" lon="6.04449">
        <ele>841.1</ele>
        <time>2022-06-18T04:38:45Z</time>
      </trkpt>
      <trkpt lat="45.14855" lon="6.04446">
        <ele>841.2</ele>
        <time>2022-06-18T04:38:46Z</time>
      </trkpt>
      <trkpt lat="45.14861" lon="6.04443">
        <ele>841.3</ele>
        <time>2022-06-18T04:38:47Z</time>
      </trkpt>
      <trkpt lat="45.14867" lon="6.04441">
        <ele>841.4</ele>
        <time>2022-06-18T04:38:48Z</time>
      </trkpt>
      <trkpt lat="45.14873" lon="6.04441">
        <ele>841.5</ele>
        <time>2022-06-18T04:38:49Z</time>
      </trkpt>
      <trkpt lat="45.1488" lon="6.04442">
        <ele>841.6</ele>
        <time>2022-06-18T04:38:50Z</time>
      </trkpt>
      <trkpt lat="45.14888" lon="6.04444">
        <ele>841.6</ele>
        <time>2022-06-18T04:38:51Z</time>
      </trkpt>
      <trkpt lat="45.14894" lon="6.04445">
        <ele>841.7</ele>
        <time>2022-06-18T04:38:52Z</time>
      </trkpt>
      <trkpt lat="45.14901" lon="6.04445">
        <ele>841.8</ele>
        <time>2022-06-18T04:38:53Z</time>
      </trkpt>
      <trkpt lat="45.14908" lon="6.04446">
        <ele>841.8</ele>
        <time>2022-06-18T04:38:54Z</time>
      </trkpt>
      <trkpt lat="45.14915" lon="6.04446">
        <ele>841.9</ele>
        <time>2022-06-18T04:38:55Z</time>
      </trkpt>
      <trkpt lat="45.14921" lon="6.04446">
        <ele>841.9</ele>
        <time>2022-06-18T04:38:56Z</time>
      </trkpt>
      <trkpt lat="45.14928" lon="6.04446">
        <ele>842</ele>
        <time>2022-06-18T04:38:57Z</time>
      </trkpt>
      <trkpt lat="45.14935" lon="6.04445">
        <ele>842.1</ele>
        <time>2022-06-18T04:38:58Z</time>
      </trkpt>
      <trkpt lat="45.14941" lon="6.04443">
        <ele>842.2</ele>
        <time>2022-06-18T04:38:59Z</time>
      </trkpt>
      <trkpt lat="45.14948" lon="6.04442">
        <ele>842.3</ele>
        <time>2022-06-18T04:39:00Z</time>
      </trkpt>
      <trkpt lat="45.14954" lon="6.04441">
        <ele>842.5</ele>
        <time>2022-06-18T04:39:01Z</time>
      </trkpt>
      <trkpt lat="45.1496" lon="6.0444">
        <ele>842.6</ele>
        <time>2022-06-18T04:39:02Z</time>
      </trkpt>
      <trkpt lat="45.14967" lon="6.0444">
        <ele>842.7</ele>
        <time>2022-06-18T04:39:03Z</time>
      </trkpt>
      <trkpt lat="45.14973" lon="6.04441">
        <ele>842.8</ele>
        <time>2022-06-18T04:39:04Z</time>
      </trkpt>
      <trkpt lat="45.14979" lon="6.04442">
        <ele>842.9</ele>
        <time>2022-06-18T04:39:05Z</time>
      </trkpt>
      <trkpt lat="45.14985" lon="6.04444">
        <ele>843</ele>
        <time>2022-06-18T04:39:06Z</time>
      </trkpt>
      <trkpt lat="45.1499" lon="6.04446">
        <ele>843.1</ele>
        <time>2022-06-18T04:39:07Z</time>
      </trkpt>
      <trkpt lat="45.14996" lon="6.04449">
        <ele>843.3</ele>
        <time>2022-06-18T04:39:08Z</time>
      </trkpt>
      <trkpt lat="45.15002" lon="6.04451">
        <ele>843.4</ele>
        <time>2022-06-18T04:39:09Z</time>
      </trkpt>
      <trkpt lat="45.15008" lon="6.04454">
        <ele>843.5</ele>
        <time>2022-06-18T04:39:10Z</time>
      </trkpt>
      <trkpt lat="45.15015" lon="6.04456">
        <ele>843.7</ele>
        <time>2022-06-18T04:39:11Z</time>
      </trkpt>
      <trkpt lat="45.15021" lon="6.04457">
        <ele>843.8</ele>
        <time>2022-06-18T04:39:12Z</time>
      </trkpt>
      <trkpt lat="45.15028" lon="6.04459">
        <ele>844</ele>
        <time>2022-06-18T04:39:13Z</time>
      </trkpt>
      <trkpt lat="45.15034" lon="6.04459">
        <ele>844.1</ele>
        <time>2022-06-18T04:39:14Z</time>
      </trkpt>
      <trkpt lat="45.15041" lon="6.0446">
        <ele>844.2</ele>
        <time>2022-06-18T04:39:15Z</time>
      </trkpt>
      <trkpt lat="45.15048" lon="6.0446">
        <ele>844.3</ele>
        <time>2022-06-18T04:39:16Z</time>
      </trkpt>
      <trkpt lat="45.15056" lon="6.04461">
        <ele>844.4</ele>
        <time>2022-06-18T04:39:17Z</time>
      </trkpt>
      <trkpt lat="45.15062" lon="6.04462">
        <ele>844.5</ele>
        <time>2022-06-18T04:39:18Z</time>
      </trkpt>
      <trkpt lat="45.15069" lon="6.04464">
        <ele>844.5</ele>
        <time>2022-06-18T04:39:19Z</time>
      </trkpt>
      <trkpt lat="45.15076" lon="6.04466">
        <ele>844.6</ele>
        <time>2022-06-18T04:39:20Z</time>
      </trkpt>
      <trkpt lat="45.15083" lon="6.04468">
        <ele>844.6</ele>
        <time>2022-06-18T04:39:21Z</time>
      </trkpt>
      <trkpt lat="45.15089" lon="6.0447">
        <ele>844.7</ele>
        <time>2022-06-18T04:39:22Z</time>
      </trkpt>
      <trkpt lat="45.15096" lon="6.04472">
        <ele>844.8</ele>
        <time>2022-06-18T04:39:23Z</time>
      </trkpt>
      <trkpt lat="45.15103" lon="6.04474">
        <ele>844.8</ele>
        <time>2022-06-18T04:39:24Z</time>
      </trkpt>
      <trkpt lat="45.1511" lon="6.04476">
        <ele>844.9</ele>
        <time>2022-06-18T04:39:25Z</time>
      </trkpt>
      <trkpt lat="45.15116" lon="6.04476">
        <ele>845</ele>
        <time>2022-06-18T04:39:26Z</time>
      </trkpt>
      <trkpt lat="45.15122" lon="6.04477">
        <ele>845</ele>
        <time>2022-06-18T04:39:27Z</time>
      </trkpt>
      <trkpt lat="45.15129" lon="6.04478">
        <ele>845</ele>
        <time>2022-06-18T04:39:28Z</time>
      </trkpt>
      <trkpt lat="45.15135" lon="6.0448">
        <ele>845</ele>
        <time>2022-06-18T04:39:29Z</time>
      </trkpt>
      <trkpt lat="45.15142" lon="6.04481">
        <ele>845</ele>
        <time>2022-06-18T04:39:30Z</time>
      </trkpt>
      <trkpt lat="45.15148" lon="6.04481">
        <ele>845</ele>
        <time>2022-06-18T04:39:31Z</time>
      </trkpt>
      <trkpt lat="45.15155" lon="6.0448">
        <ele>845</ele>
        <time>2022-06-18T04:39:32Z</time>
      </trkpt>
      <trkpt lat="45.15162" lon="6.04478">
        <ele>844.9</ele>
        <time>2022-06-18T04:39:33Z</time>
      </trkpt>
      <trkpt lat="45.1517" lon="6.04475">
        <ele>844.9</ele>
        <time>2022-06-18T04:39:34Z</time>
      </trkpt>
      <trkpt lat="45.15177" lon="6.04471">
        <ele>844.9</ele>
        <time>2022-06-18T04:39:35Z</time>
      </trkpt>
      <trkpt lat="45.15184" lon="6.04468">
        <ele>844.9</ele>
        <time>2022-06-18T04:39:36Z</time>
      </trkpt>
      <trkpt lat="45.15192" lon="6.04465">
        <ele>845.1</ele>
        <time>2022-06-18T04:39:37Z</time>
      </trkpt>
      <trkpt lat="45.15199" lon="6.04461">
        <ele>845.2</ele>
        <time>2022-06-18T04:39:38Z</time>
      </trkpt>
      <trkpt lat="45.15205" lon="6.04457">
        <ele>845.4</ele>
        <time>2022-06-18T04:39:39Z</time>
      </trkpt>
      <trkpt lat="45.15212" lon="6.04453">
        <ele>845.6</ele>
        <time>2022-06-18T04:39:40Z</time>
      </trkpt>
      <trkpt lat="45.15219" lon="6.0445">
        <ele>845.9</ele>
        <time>2022-06-18T04:39:41Z</time>
      </trkpt>
      <trkpt lat="45.15226" lon="6.04448">
        <ele>846.1</ele>
        <time>2022-06-18T04:39:42Z</time>
      </trkpt>
      <trkpt lat="45.15232" lon="6.04446">
        <ele>846.3</ele>
        <time>2022-06-18T04:39:43Z</time>
      </trkpt>
      <trkpt lat="45.15239" lon="6.04445">
        <ele>846.5</ele>
        <time>2022-06-18T04:39:44Z</time>
      </trkpt>
      <trkpt lat="45.15245" lon="6.04443">
        <ele>846.7</ele>
        <time>2022-06-18T04:39:45Z</time>
      </trkpt>
      <trkpt lat="45.15251" lon="6.04442">
        <ele>846.9</ele>
        <time>2022-06-18T04:39:46Z</time>
      </trkpt>
      <trkpt lat="45.15257" lon="6.04442">
        <ele>847.1</ele>
        <time>2022-06-18T04:39:47Z</time>
      </trkpt>
      <trkpt lat="45.15263" lon="6.04443">
        <ele>847.3</ele>
        <time>2022-06-18T04:39:48Z</time>
      </trkpt>
      <trkpt lat="45.15269" lon="6.04443">
        <ele>847.4</ele>
        <time>2022-06-18T04:39:49Z</time>
      </trkpt>
      <trkpt lat="45.15275" lon="6.04442">
        <ele>847.6</ele>
        <time>2022-06-18T04:39:50Z</time>
      </trkpt>
      <trkpt lat="45.1528" lon="6.04439">
        <ele>847.7</ele>
        <time>2022-06-18T04:39:51Z</time>
      </trkpt>
      <trkpt lat="45.15285" lon="6.04435">
        <ele>847.8</ele>
        <time>2022-06-18T04:39:52Z</time>
      </trkpt>
      <trkpt lat="45.15291" lon="6.04432">
        <ele>847.8</ele>
        <time>2022-06-18T04:39:53Z</time>
      </trkpt>
      <trkpt lat="45.15296" lon="6.0443">
        <ele>847.9</ele>
        <time>2022-06-18T04:39:54Z</time>
      </trkpt>
      <trkpt lat="45.15302" lon="6.04428">
        <ele>848</ele>
        <time>2022-06-18T04:39:55Z</time>
      </trkpt>
      <trkpt lat="45.15308" lon="6.04427">
        <ele>848.1</ele>
        <time>2022-06-18T04:39:56Z</time>
      </trkpt>
      <trkpt lat="45.15314" lon="6.04426">
        <ele>848.2</ele>
        <time>2022-06-18T04:39:57Z</time>
      </trkpt>
      <trkpt lat="45.1532" lon="6.04425">
        <ele>848.3</ele>
        <time>2022-06-18T04:39:58Z</time>
      </trkpt>
      <trkpt lat="45.15326" lon="6.04425">
        <ele>848.4</ele>
        <time>2022-06-18T04:39:59Z</time>
      </trkpt>
      <trkpt lat="45.15332" lon="6.04425">
        <ele>848.5</ele>
        <time>2022-06-18T04:40:00Z</time>
      </trkpt>
      <trkpt lat="45.15338" lon="6.04426">
        <ele>848.6</ele>
        <time>2022-06-18T04:40:01Z</time>
      </trkpt>
      <trkpt lat="45.15345" lon="6.04427">
        <ele>848.6</ele>
        <time>2022-06-18T04:40:02Z</time>
      </trkpt>
      <trkpt lat="45.15352" lon="6.04427">
        <ele>848.7</ele>
        <time>2022-06-18T04:40:03Z</time>
      </trkpt>
      <trkpt lat="45.15359" lon="6.04429">
        <ele>848.8</ele>
        <time>2022-06-18T04:40:04Z</time>
      </trkpt>
      <trkpt lat="45.15366" lon="6.0443">
        <ele>849</ele>
        <time>2022-06-18T04:40:05Z</time>
      </trkpt>
      <trkpt lat="45.15373" lon="6.04431">
        <ele>849.1</ele>
        <time>2022-06-18T04:40:06Z</time>
      </trkpt>
      <trkpt lat="45.15379" lon="6.04432">
        <ele>849.1</ele>
        <time>2022-06-18T04:40:07Z</time>
      </trkpt>
      <trkpt lat="45.15386" lon="6.04432">
        <ele>849.2</ele>
        <time>2022-06-18T04:40:08Z</time>
      </trkpt>
      <trkpt lat="45.15392" lon="6.04433">
        <ele>849.3</ele>
        <time>2022-06-18T04:40:09Z</time>
      </trkpt>
      <trkpt lat="45.15398" lon="6.04434">
        <ele>849.4</ele>
        <time>2022-06-18T04:40:10Z</time>
      </trkpt>
      <trkpt lat="45.15405" lon="6.04436">
        <ele>849.4</ele>
        <time>2022-06-18T04:40:11Z</time>
      </trkpt>
      <trkpt lat="45.15411" lon="6.04437">
        <ele>849.5</ele>
        <time>2022-06-18T04:40:12Z</time>
      </trkpt>
      <trkpt lat="45.15417" lon="6.0444">
        <ele>849.6</ele>
        <time>2022-06-18T04:40:13Z</time>
      </trkpt>
      <trkpt lat="45.15423" lon="6.04442">
        <ele>849.7</ele>
        <time>2022-06-18T04:40:14Z</time>
      </trkpt>
      <trkpt lat="45.1543" lon="6.04445">
        <ele>849.8</ele>
        <time>2022-06-18T04:40:15Z</time>
      </trkpt>
      <trkpt lat="45.15436" lon="6.04448">
        <ele>849.9</ele>
        <time>2022-06-18T04:40:16Z</time>
      </trkpt>
      <trkpt lat="45.15443" lon="6.0445">
        <ele>850</ele>
        <time>2022-06-18T04:40:17Z</time>
      </trkpt>
      <trkpt lat="45.15451" lon="6.0445">
        <ele>850.1</ele>
        <time>2022-06-18T04:40:18Z</time>
      </trkpt>
      <trkpt lat="45.15457" lon="6.04448">
        <ele>850.2</ele>
        <time>2022-06-18T04:40:19Z</time>
      </trkpt>
      <trkpt lat="45.15464" lon="6.04444">
        <ele>850.3</ele>
        <time>2022-06-18T04:40:20Z</time>
      </trkpt>
      <trkpt lat="45.15469" lon="6.0444">
        <ele>850.4</ele>
        <time>2022-06-18T04:40:21Z</time>
      </trkpt>
      <trkpt lat="45.15475" lon="6.04436">
        <ele>850.5</ele>
        <time>2022-06-18T04:40:22Z</time>
      </trkpt>
      <trkpt lat="45.15481" lon="6.04432">
        <ele>850.5</ele>
        <time>2022-06-18T04:40:23Z</time>
      </trkpt>
      <trkpt lat="45.15486" lon="6.04427">
        <ele>850.6</ele>
        <time>2022-06-18T04:40:24Z</time>
      </trkpt>
      <trkpt lat="45.15492" lon="6.04423">
        <ele>850.6</ele>
        <time>2022-06-18T04:40:25Z</time>
      </trkpt>
      <trkpt lat="45.15497" lon="6.04419">
        <ele>850.7</ele>
        <time>2022-06-18T04:40:26Z</time>
      </trkpt>
      <trkpt lat="45.15503" lon="6.04416">
        <ele>850.7</ele>
        <time>2022-06-18T04:40:27Z</time>
      </trkpt>
      <trkpt lat="45.1551" lon="6.04413">
        <ele>850.8</ele>
        <time>2022-06-18T04:40:28Z</time>
      </trkpt>
      <trkpt lat="45.15516" lon="6.04412">
        <ele>850.8</ele>
        <time>2022-06-18T04:40:29Z</time>
      </trkpt>
      <trkpt lat="45.15523" lon="6.0441">
        <ele>850.9</ele>
        <time>2022-06-18T04:40:30Z</time>
      </trkpt>
      <trkpt lat="45.1553" lon="6.0441">
        <ele>851</ele>
        <time>2022-06-18T04:40:31Z</time>
      </trkpt>
      <trkpt lat="45.15537" lon="6.04411">
        <ele>851.1</ele>
        <time>2022-06-18T04:40:32Z</time>
      </trkpt>
      <trkpt lat="45.15544" lon="6.0441">
        <ele>851.2</ele>
        <time>2022-06-18T04:40:33Z</time>
      </trkpt>
      <trkpt lat="45.1555" lon="6.0441">
        <ele>851.4</ele>
        <time>2022-06-18T04:40:34Z</time>
      </trkpt>
      <trkpt lat="45.15557" lon="6.04408">
        <ele>851.5</ele>
        <time>2022-06-18T04:40:35Z</time>
      </trkpt>
      <trkpt lat="45.15563" lon="6.04405">
        <ele>851.7</ele>
        <time>2022-06-18T04:40:36Z</time>
      </trkpt>
      <trkpt lat="45.15569" lon="6.04402">
        <ele>851.9</ele>
        <time>2022-06-18T04:40:37Z</time>
      </trkpt>
      <trkpt lat="45.15575" lon="6.04399">
        <ele>852.1</ele>
        <time>2022-06-18T04:40:38Z</time>
      </trkpt>
      <trkpt lat="45.15581" lon="6.04396">
        <ele>852.2</ele>
        <time>2022-06-18T04:40:39Z</time>
      </trkpt>
      <trkpt lat="45.15587" lon="6.04394">
        <ele>852.4</ele>
        <time>2022-06-18T04:40:40Z</time>
      </trkpt>
      <trkpt lat="45.15593" lon="6.04391">
        <ele>852.6</ele>
        <time>2022-06-18T04:40:41Z</time>
      </trkpt>
      <trkpt lat="45.15599" lon="6.04389">
        <ele>852.8</ele>
        <time>2022-06-18T04:40:42Z</time>
      </trkpt>
      <trkpt lat="45.15605" lon="6.04386">
        <ele>853</ele>
        <time>2022-06-18T04:40:43Z</time>
      </trkpt>
      <trkpt lat="45.15611" lon="6.04383">
        <ele>853.1</ele>
        <time>2022-06-18T04:40:44Z</time>
      </trkpt>
      <trkpt lat="45.15618" lon="6.04381">
        <ele>853.3</ele>
        <time>2022-06-18T04:40:45Z</time>
      </trkpt>
      <trkpt lat="45.15624" lon="6.04378">
        <ele>853.5</ele>
        <time>2022-06-18T04:40:46Z</time>
      </trkpt>
      <trkpt lat="45.1563" lon="6.04375">
        <ele>853.7</ele>
        <time>2022-06-18T04:40:47Z</time>
      </trkpt>
      <trkpt lat="45.15636" lon="6.04372">
        <ele>853.9</ele>
        <time>2022-06-18T04:40:48Z</time>
      </trkpt>
      <trkpt lat="45.15642" lon="6.0437">
        <ele>854</ele>
        <time>2022-06-18T04:40:49Z</time>
      </trkpt>
      <trkpt lat="45.15648" lon="6.04367">
        <ele>854.2</ele>
        <time>2022-06-18T04:40:50Z</time>
      </trkpt>
      <trkpt lat="45.15655" lon="6.04365">
        <ele>854.4</ele>
        <time>2022-06-18T04:40:51Z</time>
      </trkpt>
      <trkpt lat="45.15661" lon="6.04362">
        <ele>854.6</ele>
        <time>2022-06-18T04:40:52Z</time>
      </trkpt>
      <trkpt lat="45.15667" lon="6.04358">
        <ele>854.7</ele>
        <time>2022-06-18T04:40:53Z</time>
      </trkpt>
      <trkpt lat="45.15673" lon="6.04355">
        <ele>854.9</ele>
        <time>2022-06-18T04:40:54Z</time>
      </trkpt>
      <trkpt lat="45.15679" lon="6.04352">
        <ele>855.1</ele>
        <time>2022-06-18T04:40:55Z</time>
      </trkpt>
      <trkpt lat="45.15684" lon="6.04349">
        <ele>855.2</ele>
        <time>2022-06-18T04:40:56Z</time>
      </trkpt>
      <trkpt lat="45.1569" lon="6.04346">
        <ele>855.4</ele>
        <time>2022-06-18T04:40:57Z</time>
      </trkpt>
      <trkpt lat="45.15696" lon="6.04342">
        <ele>855.5</ele>
        <time>2022-06-18T04:40:58Z</time>
      </trkpt>
      <trkpt lat="45.15702" lon="6.04339">
        <ele>855.7</ele>
        <time>2022-06-18T04:40:59Z</time>
      </trkpt>
      <trkpt lat="45.15708" lon="6.04337">
        <ele>855.9</ele>
        <time>2022-06-18T04:41:00Z</time>
      </trkpt>
      <trkpt lat="45.15714" lon="6.04334">
        <ele>856</ele>
        <time>2022-06-18T04:41:01Z</time>
      </trkpt>
      <trkpt lat="45.1572" lon="6.04331">
        <ele>856.1</ele>
        <time>2022-06-18T04:41:02Z</time>
      </trkpt>
      <trkpt lat="45.15726" lon="6.04329">
        <ele>856.3</ele>
        <time>2022-06-18T04:41:03Z</time>
      </trkpt>
      <trkpt lat="45.15732" lon="6.04327">
        <ele>856.4</ele>
        <time>2022-06-18T04:41:04Z</time>
      </trkpt>
      <trkpt lat="45.15738" lon="6.04325">
        <ele>856.6</ele>
        <time>2022-06-18T04:41:05Z</time>
      </trkpt>
      <trkpt lat="45.15745" lon="6.04324">
        <ele>856.7</ele>
        <time>2022-06-18T04:41:06Z</time>
      </trkpt>
      <trkpt lat="45.15751" lon="6.04322">
        <ele>856.8</ele>
        <time>2022-06-18T04:41:07Z</time>
      </trkpt>
      <trkpt lat="45.15758" lon="6.04321">
        <ele>857</ele>
        <time>2022-06-18T04:41:08Z</time>
      </trkpt>
      <trkpt lat="45.15765" lon="6.0432">
        <ele>857.2</ele>
        <time>2022-06-18T04:41:09Z</time>
      </trkpt>
      <trkpt lat="45.15771" lon="6.0432">
        <ele>857.3</ele>
        <time>2022-06-18T04:41:10Z</time>
      </trkpt>
      <trkpt lat="45.15777" lon="6.04319">
        <ele>857.5</ele>
        <time>2022-06-18T04:41:11Z</time>
      </trkpt>
      <trkpt lat="45.15784" lon="6.04318">
        <ele>857.7</ele>
        <time>2022-06-18T04:41:12Z</time>
      </trkpt>
      <trkpt lat="45.1579" lon="6.04318">
        <ele>857.9</ele>
        <time>2022-06-18T04:41:13Z</time>
      </trkpt>
      <trkpt lat="45.15797" lon="6.04318">
        <ele>858.1</ele>
        <time>2022-06-18T04:41:14Z</time>
      </trkpt>
      <trkpt lat="45.15804" lon="6.04318">
        <ele>858.3</ele>
        <time>2022-06-18T04:41:15Z</time>
      </trkpt>
      <trkpt lat="45.1581" lon="6.04317">
        <ele>858.5</ele>
        <time>2022-06-18T04:41:16Z</time>
      </trkpt>
      <trkpt lat="45.15816" lon="6.04315">
        <ele>858.8</ele>
        <time>2022-06-18T04:41:17Z</time>
      </trkpt>
      <trkpt lat="45.15822" lon="6.04313">
        <ele>859</ele>
        <time>2022-06-18T04:41:18Z</time>
      </trkpt>
      <trkpt lat="45.15827" lon="6.0431">
        <ele>859.2</ele>
        <time>2022-06-18T04:41:19Z</time>
      </trkpt>
      <trkpt lat="45.15832" lon="6.04305">
        <ele>859.5</ele>
        <time>2022-06-18T04:41:20Z</time>
      </trkpt>
      <trkpt lat="45.15837" lon="6.043">
        <ele>859.7</ele>
        <time>2022-06-18T04:41:21Z</time>
      </trkpt>
      <trkpt lat="45.15843" lon="6.04296">
        <ele>859.9</ele>
        <time>2022-06-18T04:41:22Z</time>
      </trkpt>
      <trkpt lat="45.15848" lon="6.04293">
        <ele>860.1</ele>
        <time>2022-06-18T04:41:23Z</time>
      </trkpt>
      <trkpt lat="45.15854" lon="6.04292">
        <ele>860.3</ele>
        <time>2022-06-18T04:41:24Z</time>
      </trkpt>
      <trkpt lat="45.15859" lon="6.04293">
        <ele>860.9</ele>
        <time>2022-06-18T04:41:25Z</time>
      </trkpt>
      <trkpt lat="45.15864" lon="6.04295">
        <ele>861.5</ele>
        <time>2022-06-18T04:41:26Z</time>
      </trkpt>
      <trkpt lat="45.15868" lon="6.04296">
        <ele>862</ele>
        <time>2022-06-18T04:41:27Z</time>
      </trkpt>
      <trkpt lat="45.15872" lon="6.04296">
        <ele>862.5</ele>
        <time>2022-06-18T04:41:28Z</time>
      </trkpt>
      <trkpt lat="45.15874" lon="6.04296">
        <ele>862.7</ele>
        <time>2022-06-18T04:41:29Z</time>
      </trkpt>
      <trkpt lat="45.15878" lon="6.04296">
        <ele>863.2</ele>
        <time>2022-06-18T04:41:30Z</time>
      </trkpt>
      <trkpt lat="45.15882" lon="6.04296">
        <ele>863.8</ele>
        <time>2022-06-18T04:41:31Z</time>
      </trkpt>
      <trkpt lat="45.15884" lon="6.04296">
        <ele>864</ele>
        <time>2022-06-18T04:41:32Z</time>
      </trkpt>
      <trkpt lat="45.15887" lon="6.04296">
        <ele>864.4</ele>
        <time>2022-06-18T04:41:33Z</time>
      </trkpt>
      <trkpt lat="45.1589" lon="6.04292">
        <ele>864.9</ele>
        <time>2022-06-18T04:41:34Z</time>
      </trkpt>
      <trkpt lat="45.15892" lon="6.04292">
        <ele>865.1</ele>
        <time>2022-06-18T04:41:35Z</time>
      </trkpt>
      <trkpt lat="45.15896" lon="6.04293">
        <ele>865.6</ele>
        <time>2022-06-18T04:41:36Z</time>
      </trkpt>
      <trkpt lat="45.15899" lon="6.04293">
        <ele>866.1</ele>
        <time>2022-06-18T04:41:37Z</time>
      </trkpt>
      <trkpt lat="45.15903" lon="6.04293">
        <ele>866.6</ele>
        <time>2022-06-18T04:41:38Z</time>
      </trkpt>
      <trkpt lat="45.15904" lon="6.04293">
        <ele>866.7</ele>
        <time>2022-06-18T04:41:39Z</time>
      </trkpt>
      <trkpt lat="45.15907" lon="6.04292">
        <ele>867.1</ele>
        <time>2022-06-18T04:41:40Z</time>
      </trkpt>
      <trkpt lat="45.1591" lon="6.04291">
        <ele>867.5</ele>
        <time>2022-06-18T04:41:41Z</time>
      </trkpt>
      <trkpt lat="45.15913" lon="6.0429">
        <ele>867.8</ele>
        <time>2022-06-18T04:41:42Z</time>
      </trkpt>
      <trkpt lat="45.15917" lon="6.04287">
        <ele>868.4</ele>
        <time>2022-06-18T04:41:44Z</time>
      </trkpt>
      <trkpt lat="45.1592" lon="6.04285">
        <ele>868.8</ele>
        <time>2022-06-18T04:41:45Z</time>
      </trkpt>
      <trkpt lat="45.15923" lon="6.04284">
        <ele>869.2</ele>
        <time>2022-06-18T04:41:46Z</time>
      </trkpt>
      <trkpt lat="45.15926" lon="6.04284">
        <ele>869.5</ele>
        <time>2022-06-18T04:41:48Z</time>
      </trkpt>
      <trkpt lat="45.1593" lon="6.04283">
        <ele>869.9</ele>
        <time>2022-06-18T04:41:49Z</time>
      </trkpt>
      <trkpt lat="45.15933" lon="6.04283">
        <ele>870.2</ele>
        <time>2022-06-18T04:41:50Z</time>
      </trkpt>
      <trkpt lat="45.15936" lon="6.04282">
        <ele>870.5</ele>
        <time>2022-06-18T04:41:51Z</time>
      </trkpt>
      <trkpt lat="45.15939" lon="6.04281">
        <ele>870.8</ele>
        <time>2022-06-18T04:41:52Z</time>
      </trkpt>
      <trkpt lat="45.15942" lon="6.04279">
        <ele>871.1</ele>
        <time>2022-06-18T04:41:53Z</time>
      </trkpt>
      <trkpt lat="45.15945" lon="6.04277">
        <ele>871.4</ele>
        <time>2022-06-18T04:41:54Z</time>
      </trkpt>
      <trkpt lat="45.15947" lon="6.04277">
        <ele>871.6</ele>
        <time>2022-06-18T04:41:55Z</time>
      </trkpt>
      <trkpt lat="45.15949" lon="6.04275">
        <ele>871.9</ele>
        <time>2022-06-18T04:41:56Z</time>
      </trkpt>
      <trkpt lat="45.15953" lon="6.04272">
        <ele>872.2</ele>
        <time>2022-06-18T04:41:58Z</time>
      </trkpt>
      <trkpt lat="45.15956" lon="6.04271">
        <ele>872.5</ele>
        <time>2022-06-18T04:41:59Z</time>
      </trkpt>
      <trkpt lat="45.1596" lon="6.04269">
        <ele>872.8</ele>
        <time>2022-06-18T04:42:00Z</time>
      </trkpt>
      <trkpt lat="45.15961" lon="6.04269">
        <ele>873</ele>
        <time>2022-06-18T04:42:01Z</time>
      </trkpt>
      <trkpt lat="45.15964" lon="6.04267">
        <ele>873.2</ele>
        <time>2022-06-18T04:42:02Z</time>
      </trkpt>
      <trkpt lat="45.15965" lon="6.04266">
        <ele>873.3</ele>
        <time>2022-06-18T04:42:03Z</time>
      </trkpt>
      <trkpt lat="45.15967" lon="6.04263">
        <ele>873.6</ele>
        <time>2022-06-18T04:42:04Z</time>
      </trkpt>
      <trkpt lat="45.15972" lon="6.0426">
        <ele>874</ele>
        <time>2022-06-18T04:42:05Z</time>
      </trkpt>
      <trkpt lat="45.15974" lon="6.04259">
        <ele>874.2</ele>
        <time>2022-06-18T04:42:06Z</time>
      </trkpt>
      <trkpt lat="45.15978" lon="6.04256">
        <ele>874.5</ele>
        <time>2022-06-18T04:42:08Z</time>
      </trkpt>
      <trkpt lat="45.15983" lon="6.04252">
        <ele>874.9</ele>
        <time>2022-06-18T04:42:09Z</time>
      </trkpt>
      <trkpt lat="45.15988" lon="6.04249">
        <ele>875.3</ele>
        <time>2022-06-18T04:42:11Z</time>
      </trkpt>
      <trkpt lat="45.15991" lon="6.04247">
        <ele>875.6</ele>
        <time>2022-06-18T04:42:12Z</time>
      </trkpt>
      <trkpt lat="45.15994" lon="6.04245">
        <ele>875.8</ele>
        <time>2022-06-18T04:42:13Z</time>
      </trkpt>
      <trkpt lat="45.15997" lon="6.04243">
        <ele>876</ele>
        <time>2022-06-18T04:42:14Z</time>
      </trkpt>
      <trkpt lat="45.16002" lon="6.0424">
        <ele>876.3</ele>
        <time>2022-06-18T04:42:16Z</time>
      </trkpt>
      <trkpt lat="45.16005" lon="6.04238">
        <ele>876.5</ele>
        <time>2022-06-18T04:42:17Z</time>
      </trkpt>
      <trkpt lat="45.16007" lon="6.04235">
        <ele>876.7</ele>
        <time>2022-06-18T04:42:18Z</time>
      </trkpt>
      <trkpt lat="45.16011" lon="6.04232">
        <ele>876.9</ele>
        <time>2022-06-18T04:42:20Z</time>
      </trkpt>
      <trkpt lat="45.16014" lon="6.04229">
        <ele>877.1</ele>
        <time>2022-06-18T04:42:21Z</time>
      </trkpt>
      <trkpt lat="45.16018" lon="6.04226">
        <ele>877.4</ele>
        <time>2022-06-18T04:42:22Z</time>
      </trkpt>
      <trkpt lat="45.16021" lon="6.04223">
        <ele>877.6</ele>
        <time>2022-06-18T04:42:23Z</time>
      </trkpt>
      <trkpt lat="45.16023" lon="6.04221">
        <ele>877.7</ele>
        <time>2022-06-18T04:42:24Z</time>
      </trkpt>
      <trkpt lat="45.16026" lon="6.04218">
        <ele>877.9</ele>
        <time>2022-06-18T04:42:25Z</time>
      </trkpt>
      <trkpt lat="45.16029" lon="6.04214">
        <ele>878.1</ele>
        <time>2022-06-18T04:42:26Z</time>
      </trkpt>
      <trkpt lat="45.16034" lon="6.04209">
        <ele>878.4</ele>
        <time>2022-06-18T04:42:28Z</time>
      </trkpt>
      <trkpt lat="45.16037" lon="6.04205">
        <ele>878.6</ele>
        <time>2022-06-18T04:42:29Z</time>
      </trkpt>
      <trkpt lat="45.1604" lon="6.04203">
        <ele>878.7</ele>
        <time>2022-06-18T04:42:30Z</time>
      </trkpt>
      <trkpt lat="45.16043" lon="6.04201">
        <ele>878.9</ele>
        <time>2022-06-18T04:42:31Z</time>
      </trkpt>
      <trkpt lat="45.16047" lon="6.04201">
        <ele>879.1</ele>
        <time>2022-06-18T04:42:32Z</time>
      </trkpt>
      <trkpt lat="45.16051" lon="6.042">
        <ele>879.2</ele>
        <time>2022-06-18T04:42:33Z</time>
      </trkpt>
      <trkpt lat="45.16056" lon="6.042">
        <ele>879.4</ele>
        <time>2022-06-18T04:42:34Z</time>
      </trkpt>
      <trkpt lat="45.16061" lon="6.042">
        <ele>879.6</ele>
        <time>2022-06-18T04:42:36Z</time>
      </trkpt>
      <trkpt lat="45.16065" lon="6.042">
        <ele>879.8</ele>
        <time>2022-06-18T04:42:37Z</time>
      </trkpt>
      <trkpt lat="45.1607" lon="6.04201">
        <ele>880</ele>
        <time>2022-06-18T04:42:38Z</time>
      </trkpt>
      <trkpt lat="45.16075" lon="6.042">
        <ele>880.3</ele>
        <time>2022-06-18T04:42:40Z</time>
      </trkpt>
      <trkpt lat="45.1608" lon="6.04199">
        <ele>880.5</ele>
        <time>2022-06-18T04:42:41Z</time>
      </trkpt>
      <trkpt lat="45.16084" lon="6.04199">
        <ele>880.7</ele>
        <time>2022-06-18T04:42:42Z</time>
      </trkpt>
      <trkpt lat="45.16088" lon="6.04198">
        <ele>880.8</ele>
        <time>2022-06-18T04:42:43Z</time>
      </trkpt>
      <trkpt lat="45.16092" lon="6.04197">
        <ele>881</ele>
        <time>2022-06-18T04:42:44Z</time>
      </trkpt>
      <trkpt lat="45.16096" lon="6.04197">
        <ele>881.1</ele>
        <time>2022-06-18T04:42:45Z</time>
      </trkpt>
      <trkpt lat="45.161" lon="6.04196">
        <ele>881.3</ele>
        <time>2022-06-18T04:42:46Z</time>
      </trkpt>
      <trkpt lat="45.16103" lon="6.04197">
        <ele>881.4</ele>
        <time>2022-06-18T04:42:47Z</time>
      </trkpt>
      <trkpt lat="45.16107" lon="6.04198">
        <ele>881.6</ele>
        <time>2022-06-18T04:42:49Z</time>
      </trkpt>
      <trkpt lat="45.16112" lon="6.04198">
        <ele>881.8</ele>
        <time>2022-06-18T04:42:50Z</time>
      </trkpt>
      <trkpt lat="45.16116" lon="6.04197">
        <ele>881.9</ele>
        <time>2022-06-18T04:42:51Z</time>
      </trkpt>
      <trkpt lat="45.1612" lon="6.04196">
        <ele>882.1</ele>
        <time>2022-06-18T04:42:52Z</time>
      </trkpt>
      <trkpt lat="45.16125" lon="6.04195">
        <ele>882.3</ele>
        <time>2022-06-18T04:42:54Z</time>
      </trkpt>
      <trkpt lat="45.1613" lon="6.04195">
        <ele>882.5</ele>
        <time>2022-06-18T04:42:55Z</time>
      </trkpt>
      <trkpt lat="45.16134" lon="6.04195">
        <ele>882.7</ele>
        <time>2022-06-18T04:42:56Z</time>
      </trkpt>
      <trkpt lat="45.16138" lon="6.04195">
        <ele>882.9</ele>
        <time>2022-06-18T04:42:57Z</time>
      </trkpt>
      <trkpt lat="45.16145" lon="6.04196">
        <ele>883.1</ele>
        <time>2022-06-18T04:42:59Z</time>
      </trkpt>
      <trkpt lat="45.16148" lon="6.04197">
        <ele>883.3</ele>
        <time>2022-06-18T04:43:00Z</time>
      </trkpt>
      <trkpt lat="45.16152" lon="6.04199">
        <ele>883.4</ele>
        <time>2022-06-18T04:43:01Z</time>
      </trkpt>
      <trkpt lat="45.16155" lon="6.042">
        <ele>883.6</ele>
        <time>2022-06-18T04:43:02Z</time>
      </trkpt>
      <trkpt lat="45.16158" lon="6.04201">
        <ele>883.7</ele>
        <time>2022-06-18T04:43:03Z</time>
      </trkpt>
      <trkpt lat="45.16162" lon="6.04202">
        <ele>883.9</ele>
        <time>2022-06-18T04:43:04Z</time>
      </trkpt>
      <trkpt lat="45.16165" lon="6.04202">
        <ele>884</ele>
        <time>2022-06-18T04:43:05Z</time>
      </trkpt>
      <trkpt lat="45.16168" lon="6.04203">
        <ele>884.2</ele>
        <time>2022-06-18T04:43:06Z</time>
      </trkpt>
      <trkpt lat="45.16175" lon="6.04205">
        <ele>884.5</ele>
        <time>2022-06-18T04:43:08Z</time>
      </trkpt>
      <trkpt lat="45.16179" lon="6.04207">
        <ele>884.7</ele>
        <time>2022-06-18T04:43:09Z</time>
      </trkpt>
      <trkpt lat="45.16182" lon="6.04208">
        <ele>884.9</ele>
        <time>2022-06-18T04:43:10Z</time>
      </trkpt>
      <trkpt lat="45.16185" lon="6.04208">
        <ele>885</ele>
        <time>2022-06-18T04:43:11Z</time>
      </trkpt>
      <trkpt lat="45.1619" lon="6.04209">
        <ele>885.2</ele>
        <time>2022-06-18T04:43:13Z</time>
      </trkpt>
      <trkpt lat="45.16195" lon="6.04209">
        <ele>885.5</ele>
        <time>2022-06-18T04:43:14Z</time>
      </trkpt>
      <trkpt lat="45.16199" lon="6.0421">
        <ele>885.6</ele>
        <time>2022-06-18T04:43:15Z</time>
      </trkpt>
      <trkpt lat="45.16202" lon="6.04211">
        <ele>885.8</ele>
        <time>2022-06-18T04:43:16Z</time>
      </trkpt>
      <trkpt lat="45.16205" lon="6.04211">
        <ele>885.9</ele>
        <time>2022-06-18T04:43:17Z</time>
      </trkpt>
      <trkpt lat="45.16209" lon="6.04212">
        <ele>886.1</ele>
        <time>2022-06-18T04:43:18Z</time>
      </trkpt>
      <trkpt lat="45.16213" lon="6.04212">
        <ele>886.3</ele>
        <time>2022-06-18T04:43:19Z</time>
      </trkpt>
      <trkpt lat="45.16218" lon="6.04213">
        <ele>886.5</ele>
        <time>2022-06-18T04:43:20Z</time>
      </trkpt>
      <trkpt lat="45.16222" lon="6.04214">
        <ele>886.7</ele>
        <time>2022-06-18T04:43:21Z</time>
      </trkpt>
      <trkpt lat="45.16227" lon="6.04216">
        <ele>886.9</ele>
        <time>2022-06-18T04:43:22Z</time>
      </trkpt>
      <trkpt lat="45.16232" lon="6.04218">
        <ele>887.1</ele>
        <time>2022-06-18T04:43:24Z</time>
      </trkpt>
      <trkpt lat="45.16237" lon="6.04219">
        <ele>887.3</ele>
        <time>2022-06-18T04:43:25Z</time>
      </trkpt>
      <trkpt lat="45.16241" lon="6.04219">
        <ele>887.5</ele>
        <time>2022-06-18T04:43:26Z</time>
      </trkpt>
      <trkpt lat="45.16246" lon="6.04219">
        <ele>887.7</ele>
        <time>2022-06-18T04:43:28Z</time>
      </trkpt>
      <trkpt lat="45.16251" lon="6.04219">
        <ele>887.9</ele>
        <time>2022-06-18T04:43:29Z</time>
      </trkpt>
      <trkpt lat="45.16256" lon="6.04219">
        <ele>888.1</ele>
        <time>2022-06-18T04:43:31Z</time>
      </trkpt>
      <trkpt lat="45.16261" lon="6.04218">
        <ele>888.4</ele>
        <time>2022-06-18T04:43:32Z</time>
      </trkpt>
      <trkpt lat="45.16265" lon="6.04218">
        <ele>888.5</ele>
        <time>2022-06-18T04:43:33Z</time>
      </trkpt>
      <trkpt lat="45.16269" lon="6.04218">
        <ele>888.7</ele>
        <time>2022-06-18T04:43:35Z</time>
      </trkpt>
      <trkpt lat="45.16273" lon="6.04218">
        <ele>888.8</ele>
        <time>2022-06-18T04:43:36Z</time>
      </trkpt>
      <trkpt lat="45.16277" lon="6.04218">
        <ele>889</ele>
        <time>2022-06-18T04:43:37Z</time>
      </trkpt>
      <trkpt lat="45.16282" lon="6.04218">
        <ele>889.2</ele>
        <time>2022-06-18T04:43:38Z</time>
      </trkpt>
      <trkpt lat="45.16288" lon="6.04218">
        <ele>889.5</ele>
        <time>2022-06-18T04:43:40Z</time>
      </trkpt>
      <trkpt lat="45.16294" lon="6.04218">
        <ele>889.7</ele>
        <time>2022-06-18T04:43:41Z</time>
      </trkpt>
      <trkpt lat="45.16299" lon="6.04218">
        <ele>889.9</ele>
        <time>2022-06-18T04:43:43Z</time>
      </trkpt>
      <trkpt lat="45.16304" lon="6.04218">
        <ele>890.2</ele>
        <time>2022-06-18T04:43:44Z</time>
      </trkpt>
      <trkpt lat="45.16308" lon="6.04218">
        <ele>890.3</ele>
        <time>2022-06-18T04:43:45Z</time>
      </trkpt>
      <trkpt lat="45.16312" lon="6.04217">
        <ele>890.5</ele>
        <time>2022-06-18T04:43:47Z</time>
      </trkpt>
      <trkpt lat="45.16315" lon="6.04216">
        <ele>890.7</ele>
        <time>2022-06-18T04:43:48Z</time>
      </trkpt>
      <trkpt lat="45.1632" lon="6.04214">
        <ele>890.9</ele>
        <time>2022-06-18T04:43:49Z</time>
      </trkpt>
      <trkpt lat="45.16324" lon="6.04213">
        <ele>891.1</ele>
        <time>2022-06-18T04:43:50Z</time>
      </trkpt>
      <trkpt lat="45.16329" lon="6.04213">
        <ele>891.3</ele>
        <time>2022-06-18T04:43:51Z</time>
      </trkpt>
      <trkpt lat="45.16332" lon="6.04213">
        <ele>891.4</ele>
        <time>2022-06-18T04:43:52Z</time>
      </trkpt>
      <trkpt lat="45.16336" lon="6.04212">
        <ele>891.6</ele>
        <time>2022-06-18T04:43:53Z</time>
      </trkpt>
      <trkpt lat="45.16339" lon="6.04212">
        <ele>891.8</ele>
        <time>2022-06-18T04:43:54Z</time>
      </trkpt>
      <trkpt lat="45.16343" lon="6.04212">
        <ele>892</ele>
        <time>2022-06-18T04:43:55Z</time>
      </trkpt>
      <trkpt lat="45.16346" lon="6.04211">
        <ele>892.2</ele>
        <time>2022-06-18T04:43:56Z</time>
      </trkpt>
      <trkpt lat="45.16349" lon="6.0421">
        <ele>892.4</ele>
        <time>2022-06-18T04:43:57Z</time>
      </trkpt>
      <trkpt lat="45.16353" lon="6.04209">
        <ele>892.7</ele>
        <time>2022-06-18T04:43:58Z</time>
      </trkpt>
      <trkpt lat="45.16357" lon="6.0421">
        <ele>893</ele>
        <time>2022-06-18T04:44:00Z</time>
      </trkpt>
      <trkpt lat="45.16361" lon="6.0421">
        <ele>893.3</ele>
        <time>2022-06-18T04:44:01Z</time>
      </trkpt>
      <trkpt lat="45.16365" lon="6.04211">
        <ele>893.6</ele>
        <time>2022-06-18T04:44:02Z</time>
      </trkpt>
      <trkpt lat="45.16369" lon="6.04211">
        <ele>893.9</ele>
        <time>2022-06-18T04:44:03Z</time>
      </trkpt>
      <trkpt lat="45.16375" lon="6.04212">
        <ele>894.5</ele>
        <time>2022-06-18T04:44:05Z</time>
      </trkpt>
      <trkpt lat="45.16381" lon="6.04213">
        <ele>894.9</ele>
        <time>2022-06-18T04:44:06Z</time>
      </trkpt>
      <trkpt lat="45.16388" lon="6.04214">
        <ele>895.6</ele>
        <time>2022-06-18T04:44:08Z</time>
      </trkpt>
      <trkpt lat="45.16392" lon="6.04215">
        <ele>895.8</ele>
        <time>2022-06-18T04:44:09Z</time>
      </trkpt>
      <trkpt lat="45.16395" lon="6.04214">
        <ele>896.1</ele>
        <time>2022-06-18T04:44:10Z</time>
      </trkpt>
      <trkpt lat="45.16399" lon="6.04214">
        <ele>896.4</ele>
        <time>2022-06-18T04:44:12Z</time>
      </trkpt>
      <trkpt lat="45.16403" lon="6.04214">
        <ele>896.8</ele>
        <time>2022-06-18T04:44:13Z</time>
      </trkpt>
      <trkpt lat="45.16405" lon="6.04213">
        <ele>897</ele>
        <time>2022-06-18T04:44:14Z</time>
      </trkpt>
      <trkpt lat="45.16411" lon="6.04211">
        <ele>897.5</ele>
        <time>2022-06-18T04:44:16Z</time>
      </trkpt>
      <trkpt lat="45.16419" lon="6.04212">
        <ele>898.2</ele>
        <time>2022-06-18T04:44:18Z</time>
      </trkpt>
      <trkpt lat="45.16422" lon="6.04213">
        <ele>898.6</ele>
        <time>2022-06-18T04:44:19Z</time>
      </trkpt>
      <trkpt lat="45.16426" lon="6.04213">
        <ele>898.9</ele>
        <time>2022-06-18T04:44:20Z</time>
      </trkpt>
      <trkpt lat="45.16431" lon="6.04213">
        <ele>899.3</ele>
        <time>2022-06-18T04:44:21Z</time>
      </trkpt>
      <trkpt lat="45.16434" lon="6.04214">
        <ele>899.7</ele>
        <time>2022-06-18T04:44:22Z</time>
      </trkpt>
      <trkpt lat="45.16439" lon="6.04214">
        <ele>900.1</ele>
        <time>2022-06-18T04:44:23Z</time>
      </trkpt>
      <trkpt lat="45.16442" lon="6.04215">
        <ele>900.5</ele>
        <time>2022-06-18T04:44:24Z</time>
      </trkpt>
      <trkpt lat="45.16447" lon="6.04215">
        <ele>900.9</ele>
        <time>2022-06-18T04:44:26Z</time>
      </trkpt>
      <trkpt lat="45.16451" lon="6.04215">
        <ele>901.3</ele>
        <time>2022-06-18T04:44:27Z</time>
      </trkpt>
      <trkpt lat="45.16452" lon="6.04214">
        <ele>901.4</ele>
        <time>2022-06-18T04:44:28Z</time>
      </trkpt>
      <trkpt lat="45.16457" lon="6.04214">
        <ele>901.8</ele>
        <time>2022-06-18T04:44:29Z</time>
      </trkpt>
      <trkpt lat="45.1646" lon="6.04213">
        <ele>902.1</ele>
        <time>2022-06-18T04:44:30Z</time>
      </trkpt>
      <trkpt lat="45.16463" lon="6.04212">
        <ele>902.4</ele>
        <time>2022-06-18T04:44:31Z</time>
      </trkpt>
      <trkpt lat="45.16468" lon="6.0421">
        <ele>902.8</ele>
        <time>2022-06-18T04:44:33Z</time>
      </trkpt>
      <trkpt lat="45.16472" lon="6.04209">
        <ele>903.2</ele>
        <time>2022-06-18T04:44:34Z</time>
      </trkpt>
      <trkpt lat="45.16476" lon="6.04209">
        <ele>903.5</ele>
        <time>2022-06-18T04:44:35Z</time>
      </trkpt>
      <trkpt lat="45.16481" lon="6.04208">
        <ele>904</ele>
        <time>2022-06-18T04:44:36Z</time>
      </trkpt>
      <trkpt lat="45.16484" lon="6.04206">
        <ele>904.3</ele>
        <time>2022-06-18T04:44:37Z</time>
      </trkpt>
      <trkpt lat="45.16489" lon="6.04205">
        <ele>904.7</ele>
        <time>2022-06-18T04:44:38Z</time>
      </trkpt>
      <trkpt lat="45.16493" lon="6.04204">
        <ele>905.1</ele>
        <time>2022-06-18T04:44:39Z</time>
      </trkpt>
      <trkpt lat="45.16496" lon="6.04203">
        <ele>905.4</ele>
        <time>2022-06-18T04:44:40Z</time>
      </trkpt>
      <trkpt lat="45.165" lon="6.04201">
        <ele>905.8</ele>
        <time>2022-06-18T04:44:41Z</time>
      </trkpt>
      <trkpt lat="45.16503" lon="6.042">
        <ele>906.1</ele>
        <time>2022-06-18T04:44:42Z</time>
      </trkpt>
      <trkpt lat="45.16506" lon="6.042">
        <ele>906.4</ele>
        <time>2022-06-18T04:44:43Z</time>
      </trkpt>
      <trkpt lat="45.16509" lon="6.04199">
        <ele>906.7</ele>
        <time>2022-06-18T04:44:44Z</time>
      </trkpt>
      <trkpt lat="45.16513" lon="6.042">
        <ele>907.1</ele>
        <time>2022-06-18T04:44:46Z</time>
      </trkpt>
      <trkpt lat="45.16518" lon="6.042">
        <ele>907.5</ele>
        <time>2022-06-18T04:44:47Z</time>
      </trkpt>
      <trkpt lat="45.16522" lon="6.04199">
        <ele>908</ele>
        <time>2022-06-18T04:44:49Z</time>
      </trkpt>
      <trkpt lat="45.16526" lon="6.04199">
        <ele>908.3</ele>
        <time>2022-06-18T04:44:50Z</time>
      </trkpt>
      <trkpt lat="45.16529" lon="6.042">
        <ele>908.6</ele>
        <time>2022-06-18T04:44:51Z</time>
      </trkpt>
      <trkpt lat="45.16533" lon="6.04201">
        <ele>909</ele>
        <time>2022-06-18T04:44:52Z</time>
      </trkpt>
      <trkpt lat="45.16538" lon="6.04201">
        <ele>909.4</ele>
        <time>2022-06-18T04:44:53Z</time>
      </trkpt>
      <trkpt lat="45.16544" lon="6.04202">
        <ele>910</ele>
        <time>2022-06-18T04:44:55Z</time>
      </trkpt>
      <trkpt lat="45.16547" lon="6.04201">
        <ele>910.2</ele>
        <time>2022-06-18T04:44:56Z</time>
      </trkpt>
      <trkpt lat="45.16549" lon="6.04199">
        <ele>910.5</ele>
        <time>2022-06-18T04:44:57Z</time>
      </trkpt>
      <trkpt lat="45.16552" lon="6.04198">
        <ele>910.7</ele>
        <time>2022-06-18T04:44:58Z</time>
      </trkpt>
      <trkpt lat="45.16555" lon="6.04197">
        <ele>911</ele>
        <time>2022-06-18T04:44:59Z</time>
      </trkpt>
      <trkpt lat="45.16558" lon="6.04194">
        <ele>911.3</ele>
        <time>2022-06-18T04:45:00Z</time>
      </trkpt>
      <trkpt lat="45.16561" lon="6.04192">
        <ele>911.7</ele>
        <time>2022-06-18T04:45:01Z</time>
      </trkpt>
      <trkpt lat="45.16567" lon="6.04189">
        <ele>912.2</ele>
        <time>2022-06-18T04:45:03Z</time>
      </trkpt>
      <trkpt lat="45.16571" lon="6.04186">
        <ele>912.6</ele>
        <time>2022-06-18T04:45:04Z</time>
      </trkpt>
      <trkpt lat="45.16576" lon="6.04184">
        <ele>913.1</ele>
        <time>2022-06-18T04:45:06Z</time>
      </trkpt>
      <trkpt lat="45.16582" lon="6.04182">
        <ele>913.6</ele>
        <time>2022-06-18T04:45:07Z</time>
      </trkpt>
      <trkpt lat="45.16586" lon="6.04181">
        <ele>914</ele>
        <time>2022-06-18T04:45:08Z</time>
      </trkpt>
      <trkpt lat="45.16589" lon="6.0418">
        <ele>914.3</ele>
        <time>2022-06-18T04:45:09Z</time>
      </trkpt>
      <trkpt lat="45.16594" lon="6.04177">
        <ele>914.8</ele>
        <time>2022-06-18T04:45:11Z</time>
      </trkpt>
      <trkpt lat="45.16598" lon="6.04175">
        <ele>915.3</ele>
        <time>2022-06-18T04:45:12Z</time>
      </trkpt>
      <trkpt lat="45.16602" lon="6.04174">
        <ele>915.6</ele>
        <time>2022-06-18T04:45:13Z</time>
      </trkpt>
      <trkpt lat="45.16607" lon="6.04173">
        <ele>916.1</ele>
        <time>2022-06-18T04:45:15Z</time>
      </trkpt>
      <trkpt lat="45.1661" lon="6.04173">
        <ele>916.4</ele>
        <time>2022-06-18T04:45:16Z</time>
      </trkpt>
      <trkpt lat="45.16614" lon="6.04174">
        <ele>916.8</ele>
        <time>2022-06-18T04:45:17Z</time>
      </trkpt>
      <trkpt lat="45.16618" lon="6.04174">
        <ele>917.2</ele>
        <time>2022-06-18T04:45:18Z</time>
      </trkpt>
      <trkpt lat="45.16621" lon="6.04174">
        <ele>917.6</ele>
        <time>2022-06-18T04:45:19Z</time>
      </trkpt>
      <trkpt lat="45.16624" lon="6.04175">
        <ele>917.9</ele>
        <time>2022-06-18T04:45:20Z</time>
      </trkpt>
      <trkpt lat="45.16627" lon="6.04175">
        <ele>918.2</ele>
        <time>2022-06-18T04:45:21Z</time>
      </trkpt>
      <trkpt lat="45.16633" lon="6.04176">
        <ele>918.7</ele>
        <time>2022-06-18T04:45:23Z</time>
      </trkpt>
      <trkpt lat="45.16636" lon="6.04177">
        <ele>919</ele>
        <time>2022-06-18T04:45:24Z</time>
      </trkpt>
      <trkpt lat="45.1664" lon="6.04178">
        <ele>919.4</ele>
        <time>2022-06-18T04:45:25Z</time>
      </trkpt>
      <trkpt lat="45.16642" lon="6.04179">
        <ele>919.7</ele>
        <time>2022-06-18T04:45:26Z</time>
      </trkpt>
      <trkpt lat="45.16645" lon="6.04179">
        <ele>919.9</ele>
        <time>2022-06-18T04:45:27Z</time>
      </trkpt>
      <trkpt lat="45.16649" lon="6.04178">
        <ele>920.3</ele>
        <time>2022-06-18T04:45:29Z</time>
      </trkpt>
      <trkpt lat="45.16653" lon="6.04178">
        <ele>920.7</ele>
        <time>2022-06-18T04:45:30Z</time>
      </trkpt>
      <trkpt lat="45.16657" lon="6.04178">
        <ele>921</ele>
        <time>2022-06-18T04:45:31Z</time>
      </trkpt>
      <trkpt lat="45.1666" lon="6.04178">
        <ele>921.4</ele>
        <time>2022-06-18T04:45:32Z</time>
      </trkpt>
      <trkpt lat="45.16664" lon="6.04178">
        <ele>921.7</ele>
        <time>2022-06-18T04:45:33Z</time>
      </trkpt>
      <trkpt lat="45.16667" lon="6.04177">
        <ele>922</ele>
        <time>2022-06-18T04:45:34Z</time>
      </trkpt>
      <trkpt lat="45.16671" lon="6.04177">
        <ele>922.3</ele>
        <time>2022-06-18T04:45:35Z</time>
      </trkpt>
      <trkpt lat="45.16674" lon="6.04176">
        <ele>922.6</ele>
        <time>2022-06-18T04:45:36Z</time>
      </trkpt>
      <trkpt lat="45.16678" lon="6.04176">
        <ele>922.9</ele>
        <time>2022-06-18T04:45:37Z</time>
      </trkpt>
      <trkpt lat="45.16681" lon="6.04175">
        <ele>923.2</ele>
        <time>2022-06-18T04:45:38Z</time>
      </trkpt>
      <trkpt lat="45.16684" lon="6.04175">
        <ele>923.5</ele>
        <time>2022-06-18T04:45:39Z</time>
      </trkpt>
      <trkpt lat="45.16688" lon="6.04174">
        <ele>923.9</ele>
        <time>2022-06-18T04:45:40Z</time>
      </trkpt>
      <trkpt lat="45.16691" lon="6.04173">
        <ele>924.2</ele>
        <time>2022-06-18T04:45:41Z</time>
      </trkpt>
      <trkpt lat="45.16694" lon="6.04172">
        <ele>924.4</ele>
        <time>2022-06-18T04:45:42Z</time>
      </trkpt>
      <trkpt lat="45.16698" lon="6.04171">
        <ele>924.8</ele>
        <time>2022-06-18T04:45:43Z</time>
      </trkpt>
      <trkpt lat="45.16702" lon="6.04171">
        <ele>925.1</ele>
        <time>2022-06-18T04:45:44Z</time>
      </trkpt>
      <trkpt lat="45.16708" lon="6.04171">
        <ele>925.6</ele>
        <time>2022-06-18T04:45:46Z</time>
      </trkpt>
      <trkpt lat="45.16711" lon="6.04171">
        <ele>926</ele>
        <time>2022-06-18T04:45:47Z</time>
      </trkpt>
      <trkpt lat="45.16712" lon="6.04171">
        <ele>926.1</ele>
        <time>2022-06-18T04:45:48Z</time>
      </trkpt>
      <trkpt lat="45.16715" lon="6.04171">
        <ele>926.3</ele>
        <time>2022-06-18T04:45:49Z</time>
      </trkpt>
      <trkpt lat="45.1672" lon="6.0417">
        <ele>926.9</ele>
        <time>2022-06-18T04:45:51Z</time>
      </trkpt>
      <trkpt lat="45.16724" lon="6.04169">
        <ele>927.2</ele>
        <time>2022-06-18T04:45:52Z</time>
      </trkpt>
      <trkpt lat="45.16728" lon="6.04165">
        <ele>927.8</ele>
        <time>2022-06-18T04:45:54Z</time>
      </trkpt>
      <trkpt lat="45.16732" lon="6.04163">
        <ele>928.2</ele>
        <time>2022-06-18T04:45:55Z</time>
      </trkpt>
      <trkpt lat="45.16735" lon="6.0416">
        <ele>928.6</ele>
        <time>2022-06-18T04:45:56Z</time>
      </trkpt>
      <trkpt lat="45.16739" lon="6.04157">
        <ele>929.1</ele>
        <time>2022-06-18T04:45:58Z</time>
      </trkpt>
      <trkpt lat="45.16743" lon="6.04156">
        <ele>929.6</ele>
        <time>2022-06-18T04:45:59Z</time>
      </trkpt>
      <trkpt lat="45.16747" lon="6.04154">
        <ele>930</ele>
        <time>2022-06-18T04:46:01Z</time>
      </trkpt>
      <trkpt lat="45.1675" lon="6.04153">
        <ele>930.4</ele>
        <time>2022-06-18T04:46:02Z</time>
      </trkpt>
      <trkpt lat="45.16754" lon="6.04151">
        <ele>930.8</ele>
        <time>2022-06-18T04:46:03Z</time>
      </trkpt>
      <trkpt lat="45.16756" lon="6.0415">
        <ele>931</ele>
        <time>2022-06-18T04:46:04Z</time>
      </trkpt>
      <trkpt lat="45.16759" lon="6.04149">
        <ele>931.4</ele>
        <time>2022-06-18T04:46:06Z</time>
      </trkpt>
      <trkpt lat="45.1676" lon="6.04149">
        <ele>931.5</ele>
        <time>2022-06-18T04:46:07Z</time>
      </trkpt>
      <trkpt lat="45.16763" lon="6.04148">
        <ele>931.8</ele>
        <time>2022-06-18T04:46:08Z</time>
      </trkpt>
      <trkpt lat="45.16768" lon="6.04145">
        <ele>932.3</ele>
        <time>2022-06-18T04:46:10Z</time>
      </trkpt>
      <trkpt lat="45.16771" lon="6.04143">
        <ele>932.7</ele>
        <time>2022-06-18T04:46:11Z</time>
      </trkpt>
      <trkpt lat="45.16773" lon="6.04143">
        <ele>932.9</ele>
        <time>2022-06-18T04:46:12Z</time>
      </trkpt>
      <trkpt lat="45.16776" lon="6.04141">
        <ele>933.2</ele>
        <time>2022-06-18T04:46:13Z</time>
      </trkpt>
      <trkpt lat="45.16779" lon="6.04139">
        <ele>933.5</ele>
        <time>2022-06-18T04:46:14Z</time>
      </trkpt>
      <trkpt lat="45.16782" lon="6.04137">
        <ele>933.9</ele>
        <time>2022-06-18T04:46:15Z</time>
      </trkpt>
      <trkpt lat="45.16785" lon="6.04136">
        <ele>934.2</ele>
        <time>2022-06-18T04:46:16Z</time>
      </trkpt>
      <trkpt lat="45.16789" lon="6.04134">
        <ele>934.7</ele>
        <time>2022-06-18T04:46:17Z</time>
      </trkpt>
      <trkpt lat="45.16795" lon="6.0413">
        <ele>935.3</ele>
        <time>2022-06-18T04:46:18Z</time>
      </trkpt>
      <trkpt lat="45.168" lon="6.04126">
        <ele>935.9</ele>
        <time>2022-06-18T04:46:19Z</time>
      </trkpt>
      <trkpt lat="45.16804" lon="6.04123">
        <ele>936.3</ele>
        <time>2022-06-18T04:46:21Z</time>
      </trkpt>
      <trkpt lat="45.16808" lon="6.0412">
        <ele>936.7</ele>
        <time>2022-06-18T04:46:22Z</time>
      </trkpt>
      <trkpt lat="45.16811" lon="6.04118">
        <ele>937.1</ele>
        <time>2022-06-18T04:46:23Z</time>
      </trkpt>
      <trkpt lat="45.16814" lon="6.04116">
        <ele>937.4</ele>
        <time>2022-06-18T04:46:24Z</time>
      </trkpt>
      <trkpt lat="45.16817" lon="6.04114">
        <ele>937.8</ele>
        <time>2022-06-18T04:46:25Z</time>
      </trkpt>
      <trkpt lat="45.1682" lon="6.04111">
        <ele>938.1</ele>
        <time>2022-06-18T04:46:26Z</time>
      </trkpt>
      <trkpt lat="45.16824" lon="6.04109">
        <ele>938.5</ele>
        <time>2022-06-18T04:46:27Z</time>
      </trkpt>
      <trkpt lat="45.16827" lon="6.04107">
        <ele>938.8</ele>
        <time>2022-06-18T04:46:28Z</time>
      </trkpt>
      <trkpt lat="45.1683" lon="6.04105">
        <ele>939.1</ele>
        <time>2022-06-18T04:46:29Z</time>
      </trkpt>
      <trkpt lat="45.16833" lon="6.04103">
        <ele>939.4</ele>
        <time>2022-06-18T04:46:30Z</time>
      </trkpt>
      <trkpt lat="45.16835" lon="6.041">
        <ele>939.7</ele>
        <time>2022-06-18T04:46:31Z</time>
      </trkpt>
      <trkpt lat="45.16839" lon="6.04096">
        <ele>940.2</ele>
        <time>2022-06-18T04:46:33Z</time>
      </trkpt>
      <trkpt lat="45.16841" lon="6.04093">
        <ele>940.4</ele>
        <time>2022-06-18T04:46:34Z</time>
      </trkpt>
      <trkpt lat="45.16844" lon="6.0409">
        <ele>940.8</ele>
        <time>2022-06-18T04:46:35Z</time>
      </trkpt>
      <trkpt lat="45.16847" lon="6.04088">
        <ele>941.1</ele>
        <time>2022-06-18T04:46:36Z</time>
      </trkpt>
      <trkpt lat="45.1685" lon="6.04085">
        <ele>941.4</ele>
        <time>2022-06-18T04:46:37Z</time>
      </trkpt>
      <trkpt lat="45.16852" lon="6.04082">
        <ele>941.6</ele>
        <time>2022-06-18T04:46:38Z</time>
      </trkpt>
      <trkpt lat="45.16854" lon="6.04079">
        <ele>941.8</ele>
        <time>2022-06-18T04:46:39Z</time>
      </trkpt>
      <trkpt lat="45.16856" lon="6.04076">
        <ele>942.1</ele>
        <time>2022-06-18T04:46:40Z</time>
      </trkpt>
      <trkpt lat="45.16858" lon="6.04073">
        <ele>942.3</ele>
        <time>2022-06-18T04:46:41Z</time>
      </trkpt>
      <trkpt lat="45.16861" lon="6.04069">
        <ele>942.6</ele>
        <time>2022-06-18T04:46:42Z</time>
      </trkpt>
      <trkpt lat="45.16863" lon="6.04066">
        <ele>942.8</ele>
        <time>2022-06-18T04:46:43Z</time>
      </trkpt>
      <trkpt lat="45.16866" lon="6.04058">
        <ele>943.2</ele>
        <time>2022-06-18T04:46:45Z</time>
      </trkpt>
      <trkpt lat="45.16868" lon="6.04053">
        <ele>943.4</ele>
        <time>2022-06-18T04:46:46Z</time>
      </trkpt>
      <trkpt lat="45.1687" lon="6.04046">
        <ele>943.8</ele>
        <time>2022-06-18T04:46:47Z</time>
      </trkpt>
      <trkpt lat="45.16871" lon="6.0404">
        <ele>944.5</ele>
        <time>2022-06-18T04:46:48Z</time>
      </trkpt>
      <trkpt lat="45.16874" lon="6.04034">
        <ele>945.5</ele>
        <time>2022-06-18T04:46:49Z</time>
      </trkpt>
      <trkpt lat="45.16878" lon="6.04026">
        <ele>947</ele>
        <time>2022-06-18T04:46:51Z</time>
      </trkpt>
      <trkpt lat="45.16881" lon="6.0402">
        <ele>948.1</ele>
        <time>2022-06-18T04:46:52Z</time>
      </trkpt>
      <trkpt lat="45.16884" lon="6.04015">
        <ele>949</ele>
        <time>2022-06-18T04:46:53Z</time>
      </trkpt>
      <trkpt lat="45.16887" lon="6.0401">
        <ele>948.9</ele>
        <time>2022-06-18T04:46:54Z</time>
      </trkpt>
      <trkpt lat="45.1689" lon="6.04005">
        <ele>948.7</ele>
        <time>2022-06-18T04:46:55Z</time>
      </trkpt>
      <trkpt lat="45.16894" lon="6.04">
        <ele>948.6</ele>
        <time>2022-06-18T04:46:57Z</time>
      </trkpt>
      <trkpt lat="45.169" lon="6.03994">
        <ele>948.4</ele>
        <time>2022-06-18T04:46:58Z</time>
      </trkpt>
      <trkpt lat="45.16904" lon="6.0399">
        <ele>948.2</ele>
        <time>2022-06-18T04:47:00Z</time>
      </trkpt>
      <trkpt lat="45.16909" lon="6.03987">
        <ele>948.1</ele>
        <time>2022-06-18T04:47:01Z</time>
      </trkpt>
      <trkpt lat="45.16914" lon="6.03983">
        <ele>947.9</ele>
        <time>2022-06-18T04:47:03Z</time>
      </trkpt>
      <trkpt lat="45.16919" lon="6.03978">
        <ele>947.8</ele>
        <time>2022-06-18T04:47:04Z</time>
      </trkpt>
      <trkpt lat="45.16924" lon="6.03974">
        <ele>947.8</ele>
        <time>2022-06-18T04:47:06Z</time>
      </trkpt>
      <trkpt lat="45.16927" lon="6.03972">
        <ele>947.8</ele>
        <time>2022-06-18T04:47:07Z</time>
      </trkpt>
      <trkpt lat="45.1693" lon="6.0397">
        <ele>947.8</ele>
        <time>2022-06-18T04:47:08Z</time>
      </trkpt>
      <trkpt lat="45.16934" lon="6.0397">
        <ele>947.8</ele>
        <time>2022-06-18T04:47:09Z</time>
      </trkpt>
      <trkpt lat="45.16938" lon="6.03969">
        <ele>947.8</ele>
        <time>2022-06-18T04:47:10Z</time>
      </trkpt>
      <trkpt lat="45.16943" lon="6.03969">
        <ele>947.8</ele>
        <time>2022-06-18T04:47:11Z</time>
      </trkpt>
      <trkpt lat="45.16948" lon="6.03971">
        <ele>947.9</ele>
        <time>2022-06-18T04:47:13Z</time>
      </trkpt>
      <trkpt lat="45.16951" lon="6.03973">
        <ele>948</ele>
        <time>2022-06-18T04:47:14Z</time>
      </trkpt>
      <trkpt lat="45.16955" lon="6.03974">
        <ele>948.1</ele>
        <time>2022-06-18T04:47:15Z</time>
      </trkpt>
      <trkpt lat="45.16958" lon="6.03974">
        <ele>948.1</ele>
        <time>2022-06-18T04:47:16Z</time>
      </trkpt>
      <trkpt lat="45.1696" lon="6.03974">
        <ele>948.2</ele>
        <time>2022-06-18T04:47:17Z</time>
      </trkpt>
      <trkpt lat="45.16963" lon="6.03973">
        <ele>948.6</ele>
        <time>2022-06-18T04:47:18Z</time>
      </trkpt>
      <trkpt lat="45.16967" lon="6.03971">
        <ele>949</ele>
        <time>2022-06-18T04:47:20Z</time>
      </trkpt>
      <trkpt lat="45.1697" lon="6.0397">
        <ele>949.4</ele>
        <time>2022-06-18T04:47:21Z</time>
      </trkpt>
      <trkpt lat="45.16973" lon="6.03968">
        <ele>949.8</ele>
        <time>2022-06-18T04:47:22Z</time>
      </trkpt>
      <trkpt lat="45.16976" lon="6.03967">
        <ele>950.2</ele>
        <time>2022-06-18T04:47:23Z</time>
      </trkpt>
      <trkpt lat="45.16979" lon="6.03966">
        <ele>950.5</ele>
        <time>2022-06-18T04:47:24Z</time>
      </trkpt>
      <trkpt lat="45.16982" lon="6.03965">
        <ele>951</ele>
        <time>2022-06-18T04:47:25Z</time>
      </trkpt>
      <trkpt lat="45.16985" lon="6.03964">
        <ele>951.3</ele>
        <time>2022-06-18T04:47:26Z</time>
      </trkpt>
      <trkpt lat="45.16988" lon="6.03963">
        <ele>951.7</ele>
        <time>2022-06-18T04:47:27Z</time>
      </trkpt>
      <trkpt lat="45.16991" lon="6.03961">
        <ele>952.1</ele>
        <time>2022-06-18T04:47:29Z</time>
      </trkpt>
      <trkpt lat="45.16994" lon="6.03959">
        <ele>952.5</ele>
        <time>2022-06-18T04:47:30Z</time>
      </trkpt>
      <trkpt lat="45.16997" lon="6.03958">
        <ele>952.9</ele>
        <time>2022-06-18T04:47:31Z</time>
      </trkpt>
      <trkpt lat="45.17" lon="6.03956">
        <ele>953.2</ele>
        <time>2022-06-18T04:47:32Z</time>
      </trkpt>
      <trkpt lat="45.17002" lon="6.03953">
        <ele>953.5</ele>
        <time>2022-06-18T04:47:33Z</time>
      </trkpt>
      <trkpt lat="45.17006" lon="6.0395">
        <ele>954</ele>
        <time>2022-06-18T04:47:34Z</time>
      </trkpt>
      <trkpt lat="45.17007" lon="6.03948">
        <ele>954.2</ele>
        <time>2022-06-18T04:47:35Z</time>
      </trkpt>
      <trkpt lat="45.1701" lon="6.03945">
        <ele>954.6</ele>
        <time>2022-06-18T04:47:36Z</time>
      </trkpt>
      <trkpt lat="45.17011" lon="6.03944">
        <ele>954.8</ele>
        <time>2022-06-18T04:47:37Z</time>
      </trkpt>
      <trkpt lat="45.17013" lon="6.0394">
        <ele>955.1</ele>
        <time>2022-06-18T04:47:39Z</time>
      </trkpt>
      <trkpt lat="45.17017" lon="6.03936">
        <ele>955.7</ele>
        <time>2022-06-18T04:47:40Z</time>
      </trkpt>
      <trkpt lat="45.1702" lon="6.03933">
        <ele>956.1</ele>
        <time>2022-06-18T04:47:41Z</time>
      </trkpt>
      <trkpt lat="45.17021" lon="6.03933">
        <ele>956.2</ele>
        <time>2022-06-18T04:47:42Z</time>
      </trkpt>
      <trkpt lat="45.17024" lon="6.03929">
        <ele>956.7</ele>
        <time>2022-06-18T04:47:44Z</time>
      </trkpt>
      <trkpt lat="45.17026" lon="6.03928">
        <ele>956.9</ele>
        <time>2022-06-18T04:47:45Z</time>
      </trkpt>
      <trkpt lat="45.17027" lon="6.03926">
        <ele>957.2</ele>
        <time>2022-06-18T04:47:46Z</time>
      </trkpt>
      <trkpt lat="45.17031" lon="6.03923">
        <ele>957.7</ele>
        <time>2022-06-18T04:47:48Z</time>
      </trkpt>
      <trkpt lat="45.17035" lon="6.03919">
        <ele>958.2</ele>
        <time>2022-06-18T04:47:49Z</time>
      </trkpt>
      <trkpt lat="45.17038" lon="6.03916">
        <ele>958.7</ele>
        <time>2022-06-18T04:47:51Z</time>
      </trkpt>
      <trkpt lat="45.17041" lon="6.03914">
        <ele>959</ele>
        <time>2022-06-18T04:47:52Z</time>
      </trkpt>
      <trkpt lat="45.17043" lon="6.03914">
        <ele>959.3</ele>
        <time>2022-06-18T04:47:54Z</time>
      </trkpt>
      <trkpt lat="45.17045" lon="6.03913">
        <ele>959.5</ele>
        <time>2022-06-18T04:47:55Z</time>
      </trkpt>
      <trkpt lat="45.17047" lon="6.03913">
        <ele>959.7</ele>
        <time>2022-06-18T04:47:56Z</time>
      </trkpt>
      <trkpt lat="45.17049" lon="6.03911">
        <ele>960</ele>
        <time>2022-06-18T04:47:57Z</time>
      </trkpt>
      <trkpt lat="45.17052" lon="6.03909">
        <ele>960.3</ele>
        <time>2022-06-18T04:47:59Z</time>
      </trkpt>
      <trkpt lat="45.17054" lon="6.03907">
        <ele>960.6</ele>
        <time>2022-06-18T04:48:00Z</time>
      </trkpt>
      <trkpt lat="45.17057" lon="6.03904">
        <ele>961</ele>
        <time>2022-06-18T04:48:01Z</time>
      </trkpt>
      <trkpt lat="45.17062" lon="6.03899">
        <ele>961.6</ele>
        <time>2022-06-18T04:48:03Z</time>
      </trkpt>
      <trkpt lat="45.17066" lon="6.03897">
        <ele>962</ele>
        <time>2022-06-18T04:48:04Z</time>
      </trkpt>
      <trkpt lat="45.1707" lon="6.03894">
        <ele>962.4</ele>
        <time>2022-06-18T04:48:05Z</time>
      </trkpt>
      <trkpt lat="45.17074" lon="6.03892">
        <ele>962.8</ele>
        <time>2022-06-18T04:48:06Z</time>
      </trkpt>
      <trkpt lat="45.17081" lon="6.0389">
        <ele>963.3</ele>
        <time>2022-06-18T04:48:07Z</time>
      </trkpt>
      <trkpt lat="45.17085" lon="6.03887">
        <ele>963.6</ele>
        <time>2022-06-18T04:48:09Z</time>
      </trkpt>
      <trkpt lat="45.17088" lon="6.03885">
        <ele>963.9</ele>
        <time>2022-06-18T04:48:10Z</time>
      </trkpt>
      <trkpt lat="45.1709" lon="6.03884">
        <ele>964</ele>
        <time>2022-06-18T04:48:11Z</time>
      </trkpt>
      <trkpt lat="45.17096" lon="6.03881">
        <ele>964.5</ele>
        <time>2022-06-18T04:48:13Z</time>
      </trkpt>
      <trkpt lat="45.17101" lon="6.03879">
        <ele>964.8</ele>
        <time>2022-06-18T04:48:14Z</time>
      </trkpt>
      <trkpt lat="45.17107" lon="6.03876">
        <ele>965.2</ele>
        <time>2022-06-18T04:48:15Z</time>
      </trkpt>
      <trkpt lat="45.17111" lon="6.03874">
        <ele>965.5</ele>
        <time>2022-06-18T04:48:16Z</time>
      </trkpt>
      <trkpt lat="45.17115" lon="6.03872">
        <ele>965.8</ele>
        <time>2022-06-18T04:48:17Z</time>
      </trkpt>
      <trkpt lat="45.17118" lon="6.0387">
        <ele>966</ele>
        <time>2022-06-18T04:48:18Z</time>
      </trkpt>
      <trkpt lat="45.17122" lon="6.03868">
        <ele>966.3</ele>
        <time>2022-06-18T04:48:20Z</time>
      </trkpt>
      <trkpt lat="45.17127" lon="6.03864">
        <ele>966.6</ele>
        <time>2022-06-18T04:48:21Z</time>
      </trkpt>
      <trkpt lat="45.1713" lon="6.03863">
        <ele>966.8</ele>
        <time>2022-06-18T04:48:22Z</time>
      </trkpt>
      <trkpt lat="45.17132" lon="6.03861">
        <ele>967</ele>
        <time>2022-06-18T04:48:23Z</time>
      </trkpt>
      <trkpt lat="45.17136" lon="6.03859">
        <ele>967.2</ele>
        <time>2022-06-18T04:48:24Z</time>
      </trkpt>
      <trkpt lat="45.17138" lon="6.03857">
        <ele>967.4</ele>
        <time>2022-06-18T04:48:25Z</time>
      </trkpt>
      <trkpt lat="45.17141" lon="6.03855">
        <ele>967.6</ele>
        <time>2022-06-18T04:48:26Z</time>
      </trkpt>
      <trkpt lat="45.17144" lon="6.03854">
        <ele>967.8</ele>
        <time>2022-06-18T04:48:27Z</time>
      </trkpt>
      <trkpt lat="45.17147" lon="6.03852">
        <ele>968</ele>
        <time>2022-06-18T04:48:28Z</time>
      </trkpt>
      <trkpt lat="45.1715" lon="6.0385">
        <ele>968.3</ele>
        <time>2022-06-18T04:48:29Z</time>
      </trkpt>
      <trkpt lat="45.17153" lon="6.03848">
        <ele>968.5</ele>
        <time>2022-06-18T04:48:30Z</time>
      </trkpt>
      <trkpt lat="45.17156" lon="6.03846">
        <ele>968.7</ele>
        <time>2022-06-18T04:48:31Z</time>
      </trkpt>
      <trkpt lat="45.1716" lon="6.03844">
        <ele>969</ele>
        <time>2022-06-18T04:48:33Z</time>
      </trkpt>
      <trkpt lat="45.17162" lon="6.03842">
        <ele>969.3</ele>
        <time>2022-06-18T04:48:34Z</time>
      </trkpt>
      <trkpt lat="45.17167" lon="6.0384">
        <ele>969.6</ele>
        <time>2022-06-18T04:48:35Z</time>
      </trkpt>
      <trkpt lat="45.1717" lon="6.03837">
        <ele>970</ele>
        <time>2022-06-18T04:48:37Z</time>
      </trkpt>
      <trkpt lat="45.17173" lon="6.03833">
        <ele>970.3</ele>
        <time>2022-06-18T04:48:38Z</time>
      </trkpt>
      <trkpt lat="45.17177" lon="6.03831">
        <ele>970.6</ele>
        <time>2022-06-18T04:48:39Z</time>
      </trkpt>
      <trkpt lat="45.17181" lon="6.03827">
        <ele>971.1</ele>
        <time>2022-06-18T04:48:41Z</time>
      </trkpt>
      <trkpt lat="45.17185" lon="6.03825">
        <ele>971.5</ele>
        <time>2022-06-18T04:48:42Z</time>
      </trkpt>
      <trkpt lat="45.17189" lon="6.03823">
        <ele>971.9</ele>
        <time>2022-06-18T04:48:43Z</time>
      </trkpt>
      <trkpt lat="45.1719" lon="6.03823">
        <ele>972</ele>
        <time>2022-06-18T04:48:44Z</time>
      </trkpt>
      <trkpt lat="45.17192" lon="6.03821">
        <ele>972.3</ele>
        <time>2022-06-18T04:48:45Z</time>
      </trkpt>
      <trkpt lat="45.17196" lon="6.0382">
        <ele>972.7</ele>
        <time>2022-06-18T04:48:46Z</time>
      </trkpt>
      <trkpt lat="45.17197" lon="6.03819">
        <ele>972.8</ele>
        <time>2022-06-18T04:48:47Z</time>
      </trkpt>
      <trkpt lat="45.172" lon="6.03819">
        <ele>973.2</ele>
        <time>2022-06-18T04:48:49Z</time>
      </trkpt>
      <trkpt lat="45.17203" lon="6.03818">
        <ele>973.5</ele>
        <time>2022-06-18T04:48:50Z</time>
      </trkpt>
      <trkpt lat="45.17207" lon="6.03818">
        <ele>973.9</ele>
        <time>2022-06-18T04:48:51Z</time>
      </trkpt>
      <trkpt lat="45.17208" lon="6.03817">
        <ele>974.1</ele>
        <time>2022-06-18T04:48:52Z</time>
      </trkpt>
      <trkpt lat="45.17212" lon="6.03816">
        <ele>974.5</ele>
        <time>2022-06-18T04:48:53Z</time>
      </trkpt>
      <trkpt lat="45.17214" lon="6.03816">
        <ele>974.7</ele>
        <time>2022-06-18T04:48:54Z</time>
      </trkpt>
      <trkpt lat="45.17217" lon="6.03815">
        <ele>975</ele>
        <time>2022-06-18T04:48:55Z</time>
      </trkpt>
      <trkpt lat="45.1722" lon="6.03813">
        <ele>975.3</ele>
        <time>2022-06-18T04:48:56Z</time>
      </trkpt>
      <trkpt lat="45.17222" lon="6.03812">
        <ele>975.7</ele>
        <time>2022-06-18T04:48:57Z</time>
      </trkpt>
      <trkpt lat="45.17226" lon="6.0381">
        <ele>976.1</ele>
        <time>2022-06-18T04:48:58Z</time>
      </trkpt>
      <trkpt lat="45.17227" lon="6.0381">
        <ele>976.3</ele>
        <time>2022-06-18T04:48:59Z</time>
      </trkpt>
      <trkpt lat="45.17231" lon="6.03809">
        <ele>976.6</ele>
        <time>2022-06-18T04:49:00Z</time>
      </trkpt>
      <trkpt lat="45.17233" lon="6.03808">
        <ele>977</ele>
        <time>2022-06-18T04:49:01Z</time>
      </trkpt>
      <trkpt lat="45.17237" lon="6.03806">
        <ele>977.4</ele>
        <time>2022-06-18T04:49:02Z</time>
      </trkpt>
      <trkpt lat="45.17238" lon="6.03805">
        <ele>977.6</ele>
        <time>2022-06-18T04:49:03Z</time>
      </trkpt>
      <trkpt lat="45.1724" lon="6.03803">
        <ele>977.9</ele>
        <time>2022-06-18T04:49:04Z</time>
      </trkpt>
      <trkpt lat="45.17243" lon="6.038">
        <ele>978.3</ele>
        <time>2022-06-18T04:49:05Z</time>
      </trkpt>
      <trkpt lat="45.17246" lon="6.03797">
        <ele>978.7</ele>
        <time>2022-06-18T04:49:06Z</time>
      </trkpt>
      <trkpt lat="45.17249" lon="6.03795">
        <ele>979.1</ele>
        <time>2022-06-18T04:49:07Z</time>
      </trkpt>
      <trkpt lat="45.17251" lon="6.03795">
        <ele>979.3</ele>
        <time>2022-06-18T04:49:08Z</time>
      </trkpt>
      <trkpt lat="45.17254" lon="6.03794">
        <ele>979.6</ele>
        <time>2022-06-18T04:49:09Z</time>
      </trkpt>
      <trkpt lat="45.17258" lon="6.03794">
        <ele>980</ele>
        <time>2022-06-18T04:49:10Z</time>
      </trkpt>
      <trkpt lat="45.1726" lon="6.03793">
        <ele>980.3</ele>
        <time>2022-06-18T04:49:11Z</time>
      </trkpt>
      <trkpt lat="45.17264" lon="6.03791">
        <ele>980.8</ele>
        <time>2022-06-18T04:49:12Z</time>
      </trkpt>
      <trkpt lat="45.17265" lon="6.03791">
        <ele>980.9</ele>
        <time>2022-06-18T04:49:13Z</time>
      </trkpt>
      <trkpt lat="45.17268" lon="6.03789">
        <ele>981.2</ele>
        <time>2022-06-18T04:49:14Z</time>
      </trkpt>
      <trkpt lat="45.17271" lon="6.03788">
        <ele>981.5</ele>
        <time>2022-06-18T04:49:15Z</time>
      </trkpt>
      <trkpt lat="45.17275" lon="6.03787">
        <ele>981.9</ele>
        <time>2022-06-18T04:49:16Z</time>
      </trkpt>
      <trkpt lat="45.17276" lon="6.03787">
        <ele>982.1</ele>
        <time>2022-06-18T04:49:17Z</time>
      </trkpt>
      <trkpt lat="45.17279" lon="6.03787">
        <ele>982.4</ele>
        <time>2022-06-18T04:49:18Z</time>
      </trkpt>
      <trkpt lat="45.17282" lon="6.03785">
        <ele>982.8</ele>
        <time>2022-06-18T04:49:19Z</time>
      </trkpt>
      <trkpt lat="45.17283" lon="6.03784">
        <ele>982.9</ele>
        <time>2022-06-18T04:49:20Z</time>
      </trkpt>
      <trkpt lat="45.17287" lon="6.03783">
        <ele>983.3</ele>
        <time>2022-06-18T04:49:21Z</time>
      </trkpt>
      <trkpt lat="45.17288" lon="6.03783">
        <ele>983.4</ele>
        <time>2022-06-18T04:49:22Z</time>
      </trkpt>
      <trkpt lat="45.1729" lon="6.03782">
        <ele>983.6</ele>
        <time>2022-06-18T04:49:23Z</time>
      </trkpt>
      <trkpt lat="45.17291" lon="6.03781">
        <ele>983.8</ele>
        <time>2022-06-18T04:49:24Z</time>
      </trkpt>
      <trkpt lat="45.17295" lon="6.03781">
        <ele>984.2</ele>
        <time>2022-06-18T04:49:25Z</time>
      </trkpt>
      <trkpt lat="45.17296" lon="6.03781">
        <ele>984.4</ele>
        <time>2022-06-18T04:49:26Z</time>
      </trkpt>
      <trkpt lat="45.17298" lon="6.03781">
        <ele>984.6</ele>
        <time>2022-06-18T04:49:27Z</time>
      </trkpt>
      <trkpt lat="45.17301" lon="6.0378">
        <ele>984.9</ele>
        <time>2022-06-18T04:49:29Z</time>
      </trkpt>
      <trkpt lat="45.17304" lon="6.03779">
        <ele>985.3</ele>
        <time>2022-06-18T04:49:30Z</time>
      </trkpt>
      <trkpt lat="45.17308" lon="6.03777">
        <ele>985.7</ele>
        <time>2022-06-18T04:49:32Z</time>
      </trkpt>
      <trkpt lat="45.17311" lon="6.03776">
        <ele>986.1</ele>
        <time>2022-06-18T04:49:33Z</time>
      </trkpt>
      <trkpt lat="45.17314" lon="6.03775">
        <ele>986.4</ele>
        <time>2022-06-18T04:49:34Z</time>
      </trkpt>
      <trkpt lat="45.17319" lon="6.03772">
        <ele>987</ele>
        <time>2022-06-18T04:49:36Z</time>
      </trkpt>
      <trkpt lat="45.17322" lon="6.0377">
        <ele>987.4</ele>
        <time>2022-06-18T04:49:37Z</time>
      </trkpt>
      <trkpt lat="45.17324" lon="6.0377">
        <ele>987.5</ele>
        <time>2022-06-18T04:49:38Z</time>
      </trkpt>
      <trkpt lat="45.17328" lon="6.03769">
        <ele>988</ele>
        <time>2022-06-18T04:49:40Z</time>
      </trkpt>
      <trkpt lat="45.17333" lon="6.03769">
        <ele>988.5</ele>
        <time>2022-06-18T04:49:41Z</time>
      </trkpt>
      <trkpt lat="45.17338" lon="6.0377">
        <ele>989</ele>
        <time>2022-06-18T04:49:42Z</time>
      </trkpt>
      <trkpt lat="45.17341" lon="6.03771">
        <ele>989.3</ele>
        <time>2022-06-18T04:49:43Z</time>
      </trkpt>
      <trkpt lat="45.17345" lon="6.03772">
        <ele>989.8</ele>
        <time>2022-06-18T04:49:44Z</time>
      </trkpt>
      <trkpt lat="45.17349" lon="6.03772">
        <ele>990.2</ele>
        <time>2022-06-18T04:49:45Z</time>
      </trkpt>
      <trkpt lat="45.17353" lon="6.03773">
        <ele>990.6</ele>
        <time>2022-06-18T04:49:46Z</time>
      </trkpt>
      <trkpt lat="45.17356" lon="6.03773">
        <ele>990.9</ele>
        <time>2022-06-18T04:49:47Z</time>
      </trkpt>
      <trkpt lat="45.1736" lon="6.03773">
        <ele>991.4</ele>
        <time>2022-06-18T04:49:49Z</time>
      </trkpt>
      <trkpt lat="45.17364" lon="6.03773">
        <ele>991.8</ele>
        <time>2022-06-18T04:49:50Z</time>
      </trkpt>
      <trkpt lat="45.17368" lon="6.03774">
        <ele>992.3</ele>
        <time>2022-06-18T04:49:52Z</time>
      </trkpt>
      <trkpt lat="45.17373" lon="6.03776">
        <ele>992.8</ele>
        <time>2022-06-18T04:49:53Z</time>
      </trkpt>
      <trkpt lat="45.17377" lon="6.03776">
        <ele>993.3</ele>
        <time>2022-06-18T04:49:54Z</time>
      </trkpt>
      <trkpt lat="45.17381" lon="6.03775">
        <ele>993.7</ele>
        <time>2022-06-18T04:49:56Z</time>
      </trkpt>
      <trkpt lat="45.17385" lon="6.03774">
        <ele>994.1</ele>
        <time>2022-06-18T04:49:57Z</time>
      </trkpt>
      <trkpt lat="45.17389" lon="6.03772">
        <ele>994.6</ele>
        <time>2022-06-18T04:49:58Z</time>
      </trkpt>
      <trkpt lat="45.17392" lon="6.0377">
        <ele>995</ele>
        <time>2022-06-18T04:50:00Z</time>
      </trkpt>
      <trkpt lat="45.17396" lon="6.03768">
        <ele>995.5</ele>
        <time>2022-06-18T04:50:01Z</time>
      </trkpt>
      <trkpt lat="45.17397" lon="6.03767">
        <ele>995.6</ele>
        <time>2022-06-18T04:50:02Z</time>
      </trkpt>
      <trkpt lat="45.17401" lon="6.03764">
        <ele>996.1</ele>
        <time>2022-06-18T04:50:03Z</time>
      </trkpt>
      <trkpt lat="45.17406" lon="6.0376">
        <ele>996.8</ele>
        <time>2022-06-18T04:50:05Z</time>
      </trkpt>
      <trkpt lat="45.17408" lon="6.03758">
        <ele>997.1</ele>
        <time>2022-06-18T04:50:06Z</time>
      </trkpt>
      <trkpt lat="45.17411" lon="6.03756">
        <ele>997.5</ele>
        <time>2022-06-18T04:50:07Z</time>
      </trkpt>
      <trkpt lat="45.17415" lon="6.03753">
        <ele>998</ele>
        <time>2022-06-18T04:50:09Z</time>
      </trkpt>
      <trkpt lat="45.17417" lon="6.03751">
        <ele>998.3</ele>
        <time>2022-06-18T04:50:10Z</time>
      </trkpt>
      <trkpt lat="45.1742" lon="6.03749">
        <ele>998.7</ele>
        <time>2022-06-18T04:50:11Z</time>
      </trkpt>
      <trkpt lat="45.17422" lon="6.03748">
        <ele>999</ele>
        <time>2022-06-18T04:50:12Z</time>
      </trkpt>
      <trkpt lat="45.17425" lon="6.03745">
        <ele>999.4</ele>
        <time>2022-06-18T04:50:13Z</time>
      </trkpt>
      <trkpt lat="45.17427" lon="6.03742">
        <ele>999.8</ele>
        <time>2022-06-18T04:50:14Z</time>
      </trkpt>
      <trkpt lat="45.17429" lon="6.03739">
        <ele>1000.1</ele>
        <time>2022-06-18T04:50:15Z</time>
      </trkpt>
      <trkpt lat="45.17432" lon="6.03736">
        <ele>1000.5</ele>
        <time>2022-06-18T04:50:16Z</time>
      </trkpt>
      <trkpt lat="45.17433" lon="6.03735">
        <ele>1000.6</ele>
        <time>2022-06-18T04:50:17Z</time>
      </trkpt>
      <trkpt lat="45.17437" lon="6.03733">
        <ele>1001.1</ele>
        <time>2022-06-18T04:50:18Z</time>
      </trkpt>
      <trkpt lat="45.17438" lon="6.03731">
        <ele>1001.3</ele>
        <time>2022-06-18T04:50:19Z</time>
      </trkpt>
      <trkpt lat="45.17441" lon="6.03725">
        <ele>1001.8</ele>
        <time>2022-06-18T04:50:21Z</time>
      </trkpt>
      <trkpt lat="45.17444" lon="6.03722">
        <ele>1002.1</ele>
        <time>2022-06-18T04:50:22Z</time>
      </trkpt>
      <trkpt lat="45.17445" lon="6.03721">
        <ele>1002.3</ele>
        <time>2022-06-18T04:50:23Z</time>
      </trkpt>
      <trkpt lat="45.17448" lon="6.0372">
        <ele>1002.5</ele>
        <time>2022-06-18T04:50:24Z</time>
      </trkpt>
      <trkpt lat="45.17451" lon="6.03719">
        <ele>1002.9</ele>
        <time>2022-06-18T04:50:25Z</time>
      </trkpt>
      <trkpt lat="45.17454" lon="6.03719">
        <ele>1003.1</ele>
        <time>2022-06-18T04:50:26Z</time>
      </trkpt>
      <trkpt lat="45.17457" lon="6.03719">
        <ele>1003.5</ele>
        <time>2022-06-18T04:50:27Z</time>
      </trkpt>
      <trkpt lat="45.17459" lon="6.03719">
        <ele>1003.6</ele>
        <time>2022-06-18T04:50:28Z</time>
      </trkpt>
      <trkpt lat="45.17462" lon="6.03717">
        <ele>1004</ele>
        <time>2022-06-18T04:50:29Z</time>
      </trkpt>
      <trkpt lat="45.17463" lon="6.03716">
        <ele>1004.1</ele>
        <time>2022-06-18T04:50:30Z</time>
      </trkpt>
      <trkpt lat="45.17466" lon="6.03713">
        <ele>1004.4</ele>
        <time>2022-06-18T04:50:31Z</time>
      </trkpt>
      <trkpt lat="45.17469" lon="6.03711">
        <ele>1004.7</ele>
        <time>2022-06-18T04:50:32Z</time>
      </trkpt>
      <trkpt lat="45.17476" lon="6.03707">
        <ele>1005.3</ele>
        <time>2022-06-18T04:50:34Z</time>
      </trkpt>
      <trkpt lat="45.17479" lon="6.03704">
        <ele>1005.7</ele>
        <time>2022-06-18T04:50:35Z</time>
      </trkpt>
      <trkpt lat="45.17482" lon="6.03703">
        <ele>1005.9</ele>
        <time>2022-06-18T04:50:36Z</time>
      </trkpt>
      <trkpt lat="45.17486" lon="6.03701">
        <ele>1006.2</ele>
        <time>2022-06-18T04:50:37Z</time>
      </trkpt>
      <trkpt lat="45.17489" lon="6.03699">
        <ele>1006.4</ele>
        <time>2022-06-18T04:50:39Z</time>
      </trkpt>
      <trkpt lat="45.17493" lon="6.03699">
        <ele>1006.7</ele>
        <time>2022-06-18T04:50:40Z</time>
      </trkpt>
      <trkpt lat="45.17498" lon="6.03699">
        <ele>1007</ele>
        <time>2022-06-18T04:50:42Z</time>
      </trkpt>
      <trkpt lat="45.17502" lon="6.03699">
        <ele>1007.3</ele>
        <time>2022-06-18T04:50:43Z</time>
      </trkpt>
      <trkpt lat="45.17506" lon="6.03698">
        <ele>1007.5</ele>
        <time>2022-06-18T04:50:44Z</time>
      </trkpt>
      <trkpt lat="45.17507" lon="6.03698">
        <ele>1007.6</ele>
        <time>2022-06-18T04:50:45Z</time>
      </trkpt>
      <trkpt lat="45.17512" lon="6.03696">
        <ele>1007.9</ele>
        <time>2022-06-18T04:50:46Z</time>
      </trkpt>
      <trkpt lat="45.17514" lon="6.03695">
        <ele>1008</ele>
        <time>2022-06-18T04:50:47Z</time>
      </trkpt>
      <trkpt lat="45.17518" lon="6.03694">
        <ele>1008.3</ele>
        <time>2022-06-18T04:50:49Z</time>
      </trkpt>
      <trkpt lat="45.17522" lon="6.03692">
        <ele>1008.5</ele>
        <time>2022-06-18T04:50:50Z</time>
      </trkpt>
      <trkpt lat="45.17526" lon="6.03691">
        <ele>1008.7</ele>
        <time>2022-06-18T04:50:51Z</time>
      </trkpt>
      <trkpt lat="45.17531" lon="6.03693">
        <ele>1008.9</ele>
        <time>2022-06-18T04:50:52Z</time>
      </trkpt>
      <trkpt lat="45.17539" lon="6.03695">
        <ele>1009.3</ele>
        <time>2022-06-18T04:50:53Z</time>
      </trkpt>
      <trkpt lat="45.17546" lon="6.03695">
        <ele>1009.6</ele>
        <time>2022-06-18T04:50:54Z</time>
      </trkpt>
      <trkpt lat="45.1755" lon="6.03694">
        <ele>1009.8</ele>
        <time>2022-06-18T04:50:56Z</time>
      </trkpt>
      <trkpt lat="45.17556" lon="6.03692">
        <ele>1010</ele>
        <time>2022-06-18T04:50:57Z</time>
      </trkpt>
      <trkpt lat="45.1756" lon="6.03689">
        <ele>1010.2</ele>
        <time>2022-06-18T04:50:58Z</time>
      </trkpt>
      <trkpt lat="45.17568" lon="6.03684">
        <ele>1010.5</ele>
        <time>2022-06-18T04:51:00Z</time>
      </trkpt>
      <trkpt lat="45.17574" lon="6.03683">
        <ele>1010.7</ele>
        <time>2022-06-18T04:51:01Z</time>
      </trkpt>
      <trkpt lat="45.17578" lon="6.03682">
        <ele>1011.1</ele>
        <time>2022-06-18T04:51:02Z</time>
      </trkpt>
      <trkpt lat="45.17583" lon="6.03681">
        <ele>1011.8</ele>
        <time>2022-06-18T04:51:03Z</time>
      </trkpt>
      <trkpt lat="45.17588" lon="6.03681">
        <ele>1012.5</ele>
        <time>2022-06-18T04:51:04Z</time>
      </trkpt>
      <trkpt lat="45.17593" lon="6.03681">
        <ele>1013.2</ele>
        <time>2022-06-18T04:51:05Z</time>
      </trkpt>
      <trkpt lat="45.176" lon="6.03683">
        <ele>1014.1</ele>
        <time>2022-06-18T04:51:07Z</time>
      </trkpt>
      <trkpt lat="45.17607" lon="6.03685">
        <ele>1015.1</ele>
        <time>2022-06-18T04:51:08Z</time>
      </trkpt>
      <trkpt lat="45.17612" lon="6.03687">
        <ele>1015.8</ele>
        <time>2022-06-18T04:51:09Z</time>
      </trkpt>
      <trkpt lat="45.17618" lon="6.03689">
        <ele>1016.6</ele>
        <time>2022-06-18T04:51:11Z</time>
      </trkpt>
      <trkpt lat="45.17624" lon="6.0369">
        <ele>1017.5</ele>
        <time>2022-06-18T04:51:12Z</time>
      </trkpt>
      <trkpt lat="45.1763" lon="6.0369">
        <ele>1018.2</ele>
        <time>2022-06-18T04:51:14Z</time>
      </trkpt>
      <trkpt lat="45.17636" lon="6.03688">
        <ele>1019</ele>
        <time>2022-06-18T04:51:15Z</time>
      </trkpt>
      <trkpt lat="45.1764" lon="6.03686">
        <ele>1019.5</ele>
        <time>2022-06-18T04:51:16Z</time>
      </trkpt>
      <trkpt lat="45.17643" lon="6.03684">
        <ele>1020</ele>
        <time>2022-06-18T04:51:17Z</time>
      </trkpt>
      <trkpt lat="45.17648" lon="6.03682">
        <ele>1020.6</ele>
        <time>2022-06-18T04:51:18Z</time>
      </trkpt>
      <trkpt lat="45.17653" lon="6.03678">
        <ele>1021.4</ele>
        <time>2022-06-18T04:51:19Z</time>
      </trkpt>
      <trkpt lat="45.17657" lon="6.03675">
        <ele>1021.9</ele>
        <time>2022-06-18T04:51:20Z</time>
      </trkpt>
      <trkpt lat="45.17662" lon="6.03672">
        <ele>1022.5</ele>
        <time>2022-06-18T04:51:21Z</time>
      </trkpt>
      <trkpt lat="45.17666" lon="6.03668">
        <ele>1023.1</ele>
        <time>2022-06-18T04:51:22Z</time>
      </trkpt>
      <trkpt lat="45.17669" lon="6.03663">
        <ele>1023.7</ele>
        <time>2022-06-18T04:51:23Z</time>
      </trkpt>
      <trkpt lat="45.17672" lon="6.03659">
        <ele>1024.2</ele>
        <time>2022-06-18T04:51:24Z</time>
      </trkpt>
      <trkpt lat="45.17675" lon="6.03654">
        <ele>1024.8</ele>
        <time>2022-06-18T04:51:25Z</time>
      </trkpt>
      <trkpt lat="45.17679" lon="6.0365">
        <ele>1025.3</ele>
        <time>2022-06-18T04:51:26Z</time>
      </trkpt>
      <trkpt lat="45.17683" lon="6.03645">
        <ele>1025.9</ele>
        <time>2022-06-18T04:51:27Z</time>
      </trkpt>
      <trkpt lat="45.17687" lon="6.03642">
        <ele>1026.6</ele>
        <time>2022-06-18T04:51:28Z</time>
      </trkpt>
      <trkpt lat="45.17691" lon="6.03638">
        <ele>1027.2</ele>
        <time>2022-06-18T04:51:29Z</time>
      </trkpt>
      <trkpt lat="45.17696" lon="6.03634">
        <ele>1027.9</ele>
        <time>2022-06-18T04:51:30Z</time>
      </trkpt>
      <trkpt lat="45.177" lon="6.0363">
        <ele>1028.5</ele>
        <time>2022-06-18T04:51:31Z</time>
      </trkpt>
      <trkpt lat="45.17704" lon="6.03626">
        <ele>1029.2</ele>
        <time>2022-06-18T04:51:32Z</time>
      </trkpt>
      <trkpt lat="45.17708" lon="6.03622">
        <ele>1029.3</ele>
        <time>2022-06-18T04:51:33Z</time>
      </trkpt>
      <trkpt lat="45.17713" lon="6.0362">
        <ele>1029.4</ele>
        <time>2022-06-18T04:51:34Z</time>
      </trkpt>
      <trkpt lat="45.17719" lon="6.0362">
        <ele>1029.2</ele>
        <time>2022-06-18T04:51:35Z</time>
      </trkpt>
      <trkpt lat="45.17724" lon="6.03622">
        <ele>1029.6</ele>
        <time>2022-06-18T04:51:36Z</time>
      </trkpt>
      <trkpt lat="45.17729" lon="6.03625">
        <ele>1030</ele>
        <time>2022-06-18T04:51:37Z</time>
      </trkpt>
      <trkpt lat="45.17735" lon="6.03628">
        <ele>1030.5</ele>
        <time>2022-06-18T04:51:38Z</time>
      </trkpt>
      <trkpt lat="45.17739" lon="6.03632">
        <ele>1031.1</ele>
        <time>2022-06-18T04:51:39Z</time>
      </trkpt>
      <trkpt lat="45.17744" lon="6.03637">
        <ele>1031.6</ele>
        <time>2022-06-18T04:51:40Z</time>
      </trkpt>
      <trkpt lat="45.17747" lon="6.03642">
        <ele>1032.1</ele>
        <time>2022-06-18T04:51:41Z</time>
      </trkpt>
      <trkpt lat="45.17749" lon="6.03645">
        <ele>1032.5</ele>
        <time>2022-06-18T04:51:42Z</time>
      </trkpt>
      <trkpt lat="45.17752" lon="6.03648">
        <ele>1032.8</ele>
        <time>2022-06-18T04:51:43Z</time>
      </trkpt>
      <trkpt lat="45.17755" lon="6.03649">
        <ele>1033.2</ele>
        <time>2022-06-18T04:51:44Z</time>
      </trkpt>
      <trkpt lat="45.17757" lon="6.0365">
        <ele>1033.3</ele>
        <time>2022-06-18T04:51:45Z</time>
      </trkpt>
      <trkpt lat="45.1776" lon="6.03652">
        <ele>1033.8</ele>
        <time>2022-06-18T04:51:46Z</time>
      </trkpt>
      <trkpt lat="45.17761" lon="6.03653">
        <ele>1033.9</ele>
        <time>2022-06-18T04:51:47Z</time>
      </trkpt>
      <trkpt lat="45.17765" lon="6.03655">
        <ele>1034.3</ele>
        <time>2022-06-18T04:51:48Z</time>
      </trkpt>
      <trkpt lat="45.17766" lon="6.03656">
        <ele>1034.5</ele>
        <time>2022-06-18T04:51:49Z</time>
      </trkpt>
      <trkpt lat="45.17768" lon="6.03657">
        <ele>1034.6</ele>
        <time>2022-06-18T04:51:50Z</time>
      </trkpt>
      <trkpt lat="45.17769" lon="6.03659">
        <ele>1034.8</ele>
        <time>2022-06-18T04:51:51Z</time>
      </trkpt>
      <trkpt lat="45.17772" lon="6.03661">
        <ele>1035.1</ele>
        <time>2022-06-18T04:51:52Z</time>
      </trkpt>
      <trkpt lat="45.17774" lon="6.03663">
        <ele>1035.4</ele>
        <time>2022-06-18T04:51:53Z</time>
      </trkpt>
      <trkpt lat="45.17778" lon="6.03665">
        <ele>1035.8</ele>
        <time>2022-06-18T04:51:54Z</time>
      </trkpt>
      <trkpt lat="45.1778" lon="6.03667">
        <ele>1036.1</ele>
        <time>2022-06-18T04:51:55Z</time>
      </trkpt>
      <trkpt lat="45.17783" lon="6.03669">
        <ele>1036.4</ele>
        <time>2022-06-18T04:51:56Z</time>
      </trkpt>
      <trkpt lat="45.17787" lon="6.03672">
        <ele>1036.8</ele>
        <time>2022-06-18T04:51:58Z</time>
      </trkpt>
      <trkpt lat="45.17792" lon="6.03673">
        <ele>1037.2</ele>
        <time>2022-06-18T04:51:59Z</time>
      </trkpt>
      <trkpt lat="45.17795" lon="6.03672">
        <ele>1037.5</ele>
        <time>2022-06-18T04:52:00Z</time>
      </trkpt>
      <trkpt lat="45.17799" lon="6.03671">
        <ele>1037.9</ele>
        <time>2022-06-18T04:52:01Z</time>
      </trkpt>
      <trkpt lat="45.17801" lon="6.03671">
        <ele>1038</ele>
        <time>2022-06-18T04:52:02Z</time>
      </trkpt>
      <trkpt lat="45.17804" lon="6.03669">
        <ele>1038.5</ele>
        <time>2022-06-18T04:52:03Z</time>
      </trkpt>
      <trkpt lat="45.17805" lon="6.03669">
        <ele>1038.6</ele>
        <time>2022-06-18T04:52:04Z</time>
      </trkpt>
      <trkpt lat="45.17809" lon="6.03665">
        <ele>1039.1</ele>
        <time>2022-06-18T04:52:06Z</time>
      </trkpt>
      <trkpt lat="45.1781" lon="6.03664">
        <ele>1039.2</ele>
        <time>2022-06-18T04:52:07Z</time>
      </trkpt>
      <trkpt lat="45.17813" lon="6.03661">
        <ele>1039.6</ele>
        <time>2022-06-18T04:52:08Z</time>
      </trkpt>
      <trkpt lat="45.17814" lon="6.0366">
        <ele>1039.7</ele>
        <time>2022-06-18T04:52:09Z</time>
      </trkpt>
      <trkpt lat="45.17816" lon="6.03658">
        <ele>1040</ele>
        <time>2022-06-18T04:52:10Z</time>
      </trkpt>
      <trkpt lat="45.1782" lon="6.03656">
        <ele>1040.4</ele>
        <time>2022-06-18T04:52:11Z</time>
      </trkpt>
      <trkpt lat="45.17824" lon="6.03655">
        <ele>1040.9</ele>
        <time>2022-06-18T04:52:13Z</time>
      </trkpt>
      <trkpt lat="45.17829" lon="6.03653">
        <ele>1041.4</ele>
        <time>2022-06-18T04:52:14Z</time>
      </trkpt>
      <trkpt lat="45.17833" lon="6.03653">
        <ele>1041.7</ele>
        <time>2022-06-18T04:52:15Z</time>
      </trkpt>
      <trkpt lat="45.17836" lon="6.03652">
        <ele>1042</ele>
        <time>2022-06-18T04:52:16Z</time>
      </trkpt>
      <trkpt lat="45.17839" lon="6.03652">
        <ele>1042.4</ele>
        <time>2022-06-18T04:52:17Z</time>
      </trkpt>
      <trkpt lat="45.17842" lon="6.03653">
        <ele>1042.7</ele>
        <time>2022-06-18T04:52:18Z</time>
      </trkpt>
      <trkpt lat="45.17845" lon="6.03652">
        <ele>1043</ele>
        <time>2022-06-18T04:52:19Z</time>
      </trkpt>
      <trkpt lat="45.17852" lon="6.03653">
        <ele>1043.8</ele>
        <time>2022-06-18T04:52:21Z</time>
      </trkpt>
      <trkpt lat="45.17856" lon="6.03654">
        <ele>1044.2</ele>
        <time>2022-06-18T04:52:23Z</time>
      </trkpt>
      <trkpt lat="45.1786" lon="6.03655">
        <ele>1044.7</ele>
        <time>2022-06-18T04:52:24Z</time>
      </trkpt>
      <trkpt lat="45.17863" lon="6.03656">
        <ele>1045</ele>
        <time>2022-06-18T04:52:25Z</time>
      </trkpt>
      <trkpt lat="45.17866" lon="6.03657">
        <ele>1045.4</ele>
        <time>2022-06-18T04:52:26Z</time>
      </trkpt>
      <trkpt lat="45.17868" lon="6.03659">
        <ele>1045.6</ele>
        <time>2022-06-18T04:52:27Z</time>
      </trkpt>
      <trkpt lat="45.17873" lon="6.03662">
        <ele>1046.3</ele>
        <time>2022-06-18T04:52:29Z</time>
      </trkpt>
      <trkpt lat="45.17876" lon="6.03663">
        <ele>1046.6</ele>
        <time>2022-06-18T04:52:30Z</time>
      </trkpt>
      <trkpt lat="45.17877" lon="6.03663">
        <ele>1046.7</ele>
        <time>2022-06-18T04:52:31Z</time>
      </trkpt>
      <trkpt lat="45.1788" lon="6.03663">
        <ele>1047</ele>
        <time>2022-06-18T04:52:32Z</time>
      </trkpt>
      <trkpt lat="45.17881" lon="6.03663">
        <ele>1047.1</ele>
        <time>2022-06-18T04:52:33Z</time>
      </trkpt>
      <trkpt lat="45.17885" lon="6.03663">
        <ele>1047.5</ele>
        <time>2022-06-18T04:52:34Z</time>
      </trkpt>
      <trkpt lat="45.17889" lon="6.03662">
        <ele>1048</ele>
        <time>2022-06-18T04:52:35Z</time>
      </trkpt>
      <trkpt lat="45.1789" lon="6.03661">
        <ele>1048.1</ele>
        <time>2022-06-18T04:52:36Z</time>
      </trkpt>
      <trkpt lat="45.17894" lon="6.03659">
        <ele>1048.6</ele>
        <time>2022-06-18T04:52:37Z</time>
      </trkpt>
      <trkpt lat="45.17897" lon="6.03658">
        <ele>1049</ele>
        <time>2022-06-18T04:52:38Z</time>
      </trkpt>
      <trkpt lat="45.17902" lon="6.03656">
        <ele>1049.5</ele>
        <time>2022-06-18T04:52:39Z</time>
      </trkpt>
      <trkpt lat="45.17905" lon="6.03655">
        <ele>1049.9</ele>
        <time>2022-06-18T04:52:40Z</time>
      </trkpt>
      <trkpt lat="45.17909" lon="6.03653">
        <ele>1050.3</ele>
        <time>2022-06-18T04:52:41Z</time>
      </trkpt>
      <trkpt lat="45.17912" lon="6.03652">
        <ele>1050.7</ele>
        <time>2022-06-18T04:52:42Z</time>
      </trkpt>
      <trkpt lat="45.17915" lon="6.0365">
        <ele>1051.1</ele>
        <time>2022-06-18T04:52:44Z</time>
      </trkpt>
      <trkpt lat="45.17919" lon="6.03648">
        <ele>1051.5</ele>
        <time>2022-06-18T04:52:45Z</time>
      </trkpt>
      <trkpt lat="45.17923" lon="6.03647">
        <ele>1052</ele>
        <time>2022-06-18T04:52:46Z</time>
      </trkpt>
      <trkpt lat="45.17924" lon="6.03646">
        <ele>1052.1</ele>
        <time>2022-06-18T04:52:47Z</time>
      </trkpt>
      <trkpt lat="45.17927" lon="6.03645">
        <ele>1052.5</ele>
        <time>2022-06-18T04:52:48Z</time>
      </trkpt>
      <trkpt lat="45.17929" lon="6.03643">
        <ele>1052.8</ele>
        <time>2022-06-18T04:52:49Z</time>
      </trkpt>
      <trkpt lat="45.17933" lon="6.03639">
        <ele>1053.3</ele>
        <time>2022-06-18T04:52:51Z</time>
      </trkpt>
      <trkpt lat="45.17936" lon="6.03636">
        <ele>1053.7</ele>
        <time>2022-06-18T04:52:52Z</time>
      </trkpt>
      <trkpt lat="45.17938" lon="6.03633">
        <ele>1054</ele>
        <time>2022-06-18T04:52:53Z</time>
      </trkpt>
      <trkpt lat="45.1794" lon="6.03631">
        <ele>1054.3</ele>
        <time>2022-06-18T04:52:54Z</time>
      </trkpt>
      <trkpt lat="45.17943" lon="6.03627">
        <ele>1054.7</ele>
        <time>2022-06-18T04:52:56Z</time>
      </trkpt>
      <trkpt lat="45.17945" lon="6.03624">
        <ele>1055</ele>
        <time>2022-06-18T04:52:57Z</time>
      </trkpt>
      <trkpt lat="45.17947" lon="6.03622">
        <ele>1055.3</ele>
        <time>2022-06-18T04:52:58Z</time>
      </trkpt>
      <trkpt lat="45.17951" lon="6.03619">
        <ele>1055.8</ele>
        <time>2022-06-18T04:52:59Z</time>
      </trkpt>
      <trkpt lat="45.17954" lon="6.03616">
        <ele>1056.2</ele>
        <time>2022-06-18T04:53:00Z</time>
      </trkpt>
      <trkpt lat="45.17955" lon="6.03615">
        <ele>1056.4</ele>
        <time>2022-06-18T04:53:01Z</time>
      </trkpt>
      <trkpt lat="45.17958" lon="6.03612">
        <ele>1056.8</ele>
        <time>2022-06-18T04:53:03Z</time>
      </trkpt>
      <trkpt lat="45.17961" lon="6.03607">
        <ele>1057.3</ele>
        <time>2022-06-18T04:53:04Z</time>
      </trkpt>
      <trkpt lat="45.17964" lon="6.03605">
        <ele>1057.6</ele>
        <time>2022-06-18T04:53:05Z</time>
      </trkpt>
      <trkpt lat="45.17966" lon="6.03603">
        <ele>1057.9</ele>
        <time>2022-06-18T04:53:06Z</time>
      </trkpt>
      <trkpt lat="45.17971" lon="6.03599">
        <ele>1058.4</ele>
        <time>2022-06-18T04:53:08Z</time>
      </trkpt>
      <trkpt lat="45.17974" lon="6.03596">
        <ele>1058.8</ele>
        <time>2022-06-18T04:53:09Z</time>
      </trkpt>
      <trkpt lat="45.17978" lon="6.03593">
        <ele>1059.4</ele>
        <time>2022-06-18T04:53:11Z</time>
      </trkpt>
      <trkpt lat="45.17981" lon="6.03592">
        <ele>1059.7</ele>
        <time>2022-06-18T04:53:12Z</time>
      </trkpt>
      <trkpt lat="45.17984" lon="6.03591">
        <ele>1060</ele>
        <time>2022-06-18T04:53:13Z</time>
      </trkpt>
      <trkpt lat="45.17987" lon="6.03588">
        <ele>1060.4</ele>
        <time>2022-06-18T04:53:14Z</time>
      </trkpt>
      <trkpt lat="45.17991" lon="6.03586">
        <ele>1060.9</ele>
        <time>2022-06-18T04:53:16Z</time>
      </trkpt>
      <trkpt lat="45.17995" lon="6.03584">
        <ele>1061.3</ele>
        <time>2022-06-18T04:53:17Z</time>
      </trkpt>
      <trkpt lat="45.17999" lon="6.03583">
        <ele>1061.7</ele>
        <time>2022-06-18T04:53:18Z</time>
      </trkpt>
      <trkpt lat="45.18002" lon="6.03581">
        <ele>1062.1</ele>
        <time>2022-06-18T04:53:19Z</time>
      </trkpt>
      <trkpt lat="45.18006" lon="6.0358">
        <ele>1062.4</ele>
        <time>2022-06-18T04:53:20Z</time>
      </trkpt>
      <trkpt lat="45.18009" lon="6.03579">
        <ele>1062.8</ele>
        <time>2022-06-18T04:53:21Z</time>
      </trkpt>
      <trkpt lat="45.18012" lon="6.03578">
        <ele>1063.1</ele>
        <time>2022-06-18T04:53:22Z</time>
      </trkpt>
      <trkpt lat="45.18013" lon="6.03578">
        <ele>1063.3</ele>
        <time>2022-06-18T04:53:23Z</time>
      </trkpt>
      <trkpt lat="45.18016" lon="6.03577">
        <ele>1063.6</ele>
        <time>2022-06-18T04:53:24Z</time>
      </trkpt>
      <trkpt lat="45.18019" lon="6.03576">
        <ele>1063.9</ele>
        <time>2022-06-18T04:53:25Z</time>
      </trkpt>
      <trkpt lat="45.18023" lon="6.03575">
        <ele>1064.3</ele>
        <time>2022-06-18T04:53:26Z</time>
      </trkpt>
      <trkpt lat="45.18024" lon="6.03575">
        <ele>1064.5</ele>
        <time>2022-06-18T04:53:27Z</time>
      </trkpt>
      <trkpt lat="45.18027" lon="6.03574">
        <ele>1064.8</ele>
        <time>2022-06-18T04:53:28Z</time>
      </trkpt>
      <trkpt lat="45.1803" lon="6.03574">
        <ele>1065.1</ele>
        <time>2022-06-18T04:53:29Z</time>
      </trkpt>
      <trkpt lat="45.18034" lon="6.03572">
        <ele>1065.5</ele>
        <time>2022-06-18T04:53:31Z</time>
      </trkpt>
      <trkpt lat="45.18038" lon="6.0357">
        <ele>1065.9</ele>
        <time>2022-06-18T04:53:32Z</time>
      </trkpt>
      <trkpt lat="45.18041" lon="6.03568">
        <ele>1066.3</ele>
        <time>2022-06-18T04:53:33Z</time>
      </trkpt>
      <trkpt lat="45.18044" lon="6.03565">
        <ele>1066.7</ele>
        <time>2022-06-18T04:53:34Z</time>
      </trkpt>
      <trkpt lat="45.18046" lon="6.03565">
        <ele>1066.9</ele>
        <time>2022-06-18T04:53:35Z</time>
      </trkpt>
      <trkpt lat="45.18049" lon="6.03563">
        <ele>1067.2</ele>
        <time>2022-06-18T04:53:37Z</time>
      </trkpt>
      <trkpt lat="45.18052" lon="6.0356">
        <ele>1067.5</ele>
        <time>2022-06-18T04:53:38Z</time>
      </trkpt>
      <trkpt lat="45.18054" lon="6.03559">
        <ele>1067.8</ele>
        <time>2022-06-18T04:53:39Z</time>
      </trkpt>
      <trkpt lat="45.18058" lon="6.03558">
        <ele>1068.3</ele>
        <time>2022-06-18T04:53:41Z</time>
      </trkpt>
      <trkpt lat="45.18061" lon="6.03556">
        <ele>1068.6</ele>
        <time>2022-06-18T04:53:42Z</time>
      </trkpt>
      <trkpt lat="45.18064" lon="6.03555">
        <ele>1068.9</ele>
        <time>2022-06-18T04:53:43Z</time>
      </trkpt>
      <trkpt lat="45.18066" lon="6.03554">
        <ele>1069.1</ele>
        <time>2022-06-18T04:53:44Z</time>
      </trkpt>
      <trkpt lat="45.1807" lon="6.03551">
        <ele>1069.6</ele>
        <time>2022-06-18T04:53:45Z</time>
      </trkpt>
      <trkpt lat="45.18071" lon="6.03551">
        <ele>1069.7</ele>
        <time>2022-06-18T04:53:46Z</time>
      </trkpt>
      <trkpt lat="45.18075" lon="6.03549">
        <ele>1070</ele>
        <time>2022-06-18T04:53:47Z</time>
      </trkpt>
      <trkpt lat="45.18078" lon="6.03548">
        <ele>1070.4</ele>
        <time>2022-06-18T04:53:49Z</time>
      </trkpt>
      <trkpt lat="45.18083" lon="6.03546">
        <ele>1070.9</ele>
        <time>2022-06-18T04:53:50Z</time>
      </trkpt>
      <trkpt lat="45.18087" lon="6.03545">
        <ele>1071.3</ele>
        <time>2022-06-18T04:53:52Z</time>
      </trkpt>
      <trkpt lat="45.1809" lon="6.03545">
        <ele>1071.6</ele>
        <time>2022-06-18T04:53:53Z</time>
      </trkpt>
      <trkpt lat="45.18094" lon="6.03544">
        <ele>1072</ele>
        <time>2022-06-18T04:53:54Z</time>
      </trkpt>
      <trkpt lat="45.18094" lon="6.03544">
        <ele>1072.1</ele>
        <time>2022-06-18T04:53:55Z</time>
      </trkpt>
      <trkpt lat="45.18097" lon="6.03543">
        <ele>1072.4</ele>
        <time>2022-06-18T04:53:56Z</time>
      </trkpt>
      <trkpt lat="45.18102" lon="6.03541">
        <ele>1072.9</ele>
        <time>2022-06-18T04:53:58Z</time>
      </trkpt>
      <trkpt lat="45.18103" lon="6.0354">
        <ele>1073.1</ele>
        <time>2022-06-18T04:53:59Z</time>
      </trkpt>
      <trkpt lat="45.18105" lon="6.03539">
        <ele>1073.2</ele>
        <time>2022-06-18T04:54:00Z</time>
      </trkpt>
      <trkpt lat="45.18108" lon="6.03537">
        <ele>1073.6</ele>
        <time>2022-06-18T04:54:01Z</time>
      </trkpt>
      <trkpt lat="45.18111" lon="6.03535">
        <ele>1073.9</ele>
        <time>2022-06-18T04:54:02Z</time>
      </trkpt>
      <trkpt lat="45.18114" lon="6.03533">
        <ele>1074.3</ele>
        <time>2022-06-18T04:54:03Z</time>
      </trkpt>
      <trkpt lat="45.18118" lon="6.03531">
        <ele>1074.7</ele>
        <time>2022-06-18T04:54:04Z</time>
      </trkpt>
      <trkpt lat="45.18121" lon="6.03529">
        <ele>1075.1</ele>
        <time>2022-06-18T04:54:05Z</time>
      </trkpt>
      <trkpt lat="45.18124" lon="6.03528">
        <ele>1075.4</ele>
        <time>2022-06-18T04:54:06Z</time>
      </trkpt>
      <trkpt lat="45.18126" lon="6.03526">
        <ele>1075.7</ele>
        <time>2022-06-18T04:54:07Z</time>
      </trkpt>
      <trkpt lat="45.18129" lon="6.03524">
        <ele>1076</ele>
        <time>2022-06-18T04:54:08Z</time>
      </trkpt>
      <trkpt lat="45.18133" lon="6.03523">
        <ele>1076.4</ele>
        <time>2022-06-18T04:54:09Z</time>
      </trkpt>
      <trkpt lat="45.18134" lon="6.03522">
        <ele>1076.6</ele>
        <time>2022-06-18T04:54:10Z</time>
      </trkpt>
      <trkpt lat="45.18137" lon="6.03521">
        <ele>1076.9</ele>
        <time>2022-06-18T04:54:11Z</time>
      </trkpt>
      <trkpt lat="45.1814" lon="6.03519">
        <ele>1077.3</ele>
        <time>2022-06-18T04:54:12Z</time>
      </trkpt>
      <trkpt lat="45.18143" lon="6.03516">
        <ele>1077.7</ele>
        <time>2022-06-18T04:54:13Z</time>
      </trkpt>
      <trkpt lat="45.18145" lon="6.03515">
        <ele>1077.9</ele>
        <time>2022-06-18T04:54:14Z</time>
      </trkpt>
      <trkpt lat="45.18148" lon="6.03513">
        <ele>1078.2</ele>
        <time>2022-06-18T04:54:15Z</time>
      </trkpt>
      <trkpt lat="45.18151" lon="6.03512">
        <ele>1078.5</ele>
        <time>2022-06-18T04:54:16Z</time>
      </trkpt>
      <trkpt lat="45.18153" lon="6.03512">
        <ele>1078.8</ele>
        <time>2022-06-18T04:54:17Z</time>
      </trkpt>
      <trkpt lat="45.18158" lon="6.03511">
        <ele>1079.3</ele>
        <time>2022-06-18T04:54:19Z</time>
      </trkpt>
      <trkpt lat="45.18162" lon="6.03511">
        <ele>1079.8</ele>
        <time>2022-06-18T04:54:20Z</time>
      </trkpt>
      <trkpt lat="45.18166" lon="6.03511">
        <ele>1080.2</ele>
        <time>2022-06-18T04:54:21Z</time>
      </trkpt>
      <trkpt lat="45.18169" lon="6.03511">
        <ele>1080.5</ele>
        <time>2022-06-18T04:54:22Z</time>
      </trkpt>
      <trkpt lat="45.18173" lon="6.0351">
        <ele>1080.9</ele>
        <time>2022-06-18T04:54:23Z</time>
      </trkpt>
      <trkpt lat="45.18176" lon="6.03509">
        <ele>1081.2</ele>
        <time>2022-06-18T04:54:24Z</time>
      </trkpt>
      <trkpt lat="45.1818" lon="6.03508">
        <ele>1081.7</ele>
        <time>2022-06-18T04:54:26Z</time>
      </trkpt>
      <trkpt lat="45.18184" lon="6.03507">
        <ele>1082.1</ele>
        <time>2022-06-18T04:54:27Z</time>
      </trkpt>
      <trkpt lat="45.18186" lon="6.03506">
        <ele>1082.3</ele>
        <time>2022-06-18T04:54:28Z</time>
      </trkpt>
      <trkpt lat="45.1819" lon="6.03504">
        <ele>1082.8</ele>
        <time>2022-06-18T04:54:29Z</time>
      </trkpt>
      <trkpt lat="45.18192" lon="6.03503">
        <ele>1082.9</ele>
        <time>2022-06-18T04:54:30Z</time>
      </trkpt>
      <trkpt lat="45.18194" lon="6.03502">
        <ele>1083.2</ele>
        <time>2022-06-18T04:54:31Z</time>
      </trkpt>
      <trkpt lat="45.18198" lon="6.035">
        <ele>1083.6</ele>
        <time>2022-06-18T04:54:32Z</time>
      </trkpt>
      <trkpt lat="45.18202" lon="6.03499">
        <ele>1084</ele>
        <time>2022-06-18T04:54:33Z</time>
      </trkpt>
      <trkpt lat="45.18205" lon="6.03498">
        <ele>1084.4</ele>
        <time>2022-06-18T04:54:34Z</time>
      </trkpt>
      <trkpt lat="45.18208" lon="6.03498">
        <ele>1084.7</ele>
        <time>2022-06-18T04:54:35Z</time>
      </trkpt>
      <trkpt lat="45.18211" lon="6.03497">
        <ele>1085</ele>
        <time>2022-06-18T04:54:36Z</time>
      </trkpt>
      <trkpt lat="45.18214" lon="6.03496">
        <ele>1085.3</ele>
        <time>2022-06-18T04:54:37Z</time>
      </trkpt>
      <trkpt lat="45.18218" lon="6.03494">
        <ele>1085.7</ele>
        <time>2022-06-18T04:54:38Z</time>
      </trkpt>
      <trkpt lat="45.18221" lon="6.03493">
        <ele>1086.1</ele>
        <time>2022-06-18T04:54:39Z</time>
      </trkpt>
      <trkpt lat="45.18225" lon="6.03491">
        <ele>1086.5</ele>
        <time>2022-06-18T04:54:41Z</time>
      </trkpt>
      <trkpt lat="45.18229" lon="6.0349">
        <ele>1086.8</ele>
        <time>2022-06-18T04:54:42Z</time>
      </trkpt>
      <trkpt lat="45.18232" lon="6.03489">
        <ele>1087.1</ele>
        <time>2022-06-18T04:54:43Z</time>
      </trkpt>
      <trkpt lat="45.18236" lon="6.03489">
        <ele>1087.5</ele>
        <time>2022-06-18T04:54:44Z</time>
      </trkpt>
      <trkpt lat="45.18237" lon="6.03489">
        <ele>1087.6</ele>
        <time>2022-06-18T04:54:45Z</time>
      </trkpt>
      <trkpt lat="45.18241" lon="6.03489">
        <ele>1087.9</ele>
        <time>2022-06-18T04:54:46Z</time>
      </trkpt>
      <trkpt lat="45.18244" lon="6.0349">
        <ele>1088.2</ele>
        <time>2022-06-18T04:54:47Z</time>
      </trkpt>
      <trkpt lat="45.18248" lon="6.0349">
        <ele>1088.5</ele>
        <time>2022-06-18T04:54:49Z</time>
      </trkpt>
      <trkpt lat="45.18251" lon="6.0349">
        <ele>1088.8</ele>
        <time>2022-06-18T04:54:50Z</time>
      </trkpt>
      <trkpt lat="45.18255" lon="6.03491">
        <ele>1089.1</ele>
        <time>2022-06-18T04:54:51Z</time>
      </trkpt>
      <trkpt lat="45.18259" lon="6.03492">
        <ele>1089.4</ele>
        <time>2022-06-18T04:54:52Z</time>
      </trkpt>
      <trkpt lat="45.18264" lon="6.03493">
        <ele>1089.8</ele>
        <time>2022-06-18T04:54:54Z</time>
      </trkpt>
      <trkpt lat="45.18268" lon="6.03495">
        <ele>1090.2</ele>
        <time>2022-06-18T04:54:55Z</time>
      </trkpt>
      <trkpt lat="45.18272" lon="6.03495">
        <ele>1090.5</ele>
        <time>2022-06-18T04:54:56Z</time>
      </trkpt>
      <trkpt lat="45.18278" lon="6.03495">
        <ele>1091</ele>
        <time>2022-06-18T04:54:58Z</time>
      </trkpt>
      <trkpt lat="45.18283" lon="6.03494">
        <ele>1091.4</ele>
        <time>2022-06-18T04:54:59Z</time>
      </trkpt>
      <trkpt lat="45.18287" lon="6.03493">
        <ele>1091.7</ele>
        <time>2022-06-18T04:55:01Z</time>
      </trkpt>
      <trkpt lat="45.1829" lon="6.03492">
        <ele>1092</ele>
        <time>2022-06-18T04:55:02Z</time>
      </trkpt>
      <trkpt lat="45.18293" lon="6.03491">
        <ele>1092.3</ele>
        <time>2022-06-18T04:55:03Z</time>
      </trkpt>
      <trkpt lat="45.18298" lon="6.03486">
        <ele>1092.8</ele>
        <time>2022-06-18T04:55:05Z</time>
      </trkpt>
      <trkpt lat="45.18301" lon="6.03484">
        <ele>1093.2</ele>
        <time>2022-06-18T04:55:06Z</time>
      </trkpt>
      <trkpt lat="45.18305" lon="6.03483">
        <ele>1093.5</ele>
        <time>2022-06-18T04:55:07Z</time>
      </trkpt>
      <trkpt lat="45.1831" lon="6.03482">
        <ele>1094.1</ele>
        <time>2022-06-18T04:55:08Z</time>
      </trkpt>
      <trkpt lat="45.18314" lon="6.03481">
        <ele>1094.5</ele>
        <time>2022-06-18T04:55:10Z</time>
      </trkpt>
      <trkpt lat="45.18318" lon="6.0348">
        <ele>1094.9</ele>
        <time>2022-06-18T04:55:11Z</time>
      </trkpt>
      <trkpt lat="45.18321" lon="6.0348">
        <ele>1095.3</ele>
        <time>2022-06-18T04:55:12Z</time>
      </trkpt>
      <trkpt lat="45.18322" lon="6.0348">
        <ele>1095.4</ele>
        <time>2022-06-18T04:55:13Z</time>
      </trkpt>
      <trkpt lat="45.18326" lon="6.0348">
        <ele>1095.8</ele>
        <time>2022-06-18T04:55:14Z</time>
      </trkpt>
      <trkpt lat="45.18331" lon="6.03479">
        <ele>1096.4</ele>
        <time>2022-06-18T04:55:16Z</time>
      </trkpt>
      <trkpt lat="45.18335" lon="6.03478">
        <ele>1096.8</ele>
        <time>2022-06-18T04:55:17Z</time>
      </trkpt>
      <trkpt lat="45.18338" lon="6.03479">
        <ele>1097.2</ele>
        <time>2022-06-18T04:55:19Z</time>
      </trkpt>
      <trkpt lat="45.18342" lon="6.03479">
        <ele>1097.6</ele>
        <time>2022-06-18T04:55:20Z</time>
      </trkpt>
      <trkpt lat="45.18345" lon="6.03479">
        <ele>1098</ele>
        <time>2022-06-18T04:55:22Z</time>
      </trkpt>
      <trkpt lat="45.18348" lon="6.03478">
        <ele>1098.3</ele>
        <time>2022-06-18T04:55:23Z</time>
      </trkpt>
      <trkpt lat="45.18351" lon="6.03477">
        <ele>1098.7</ele>
        <time>2022-06-18T04:55:24Z</time>
      </trkpt>
      <trkpt lat="45.18355" lon="6.03474">
        <ele>1099.2</ele>
        <time>2022-06-18T04:55:25Z</time>
      </trkpt>
      <trkpt lat="45.18358" lon="6.03473">
        <ele>1099.5</ele>
        <time>2022-06-18T04:55:26Z</time>
      </trkpt>
      <trkpt lat="45.18361" lon="6.03472">
        <ele>1099.9</ele>
        <time>2022-06-18T04:55:27Z</time>
      </trkpt>
      <trkpt lat="45.18365" lon="6.03471">
        <ele>1100.3</ele>
        <time>2022-06-18T04:55:28Z</time>
      </trkpt>
      <trkpt lat="45.18366" lon="6.03471">
        <ele>1100.4</ele>
        <time>2022-06-18T04:55:29Z</time>
      </trkpt>
      <trkpt lat="45.18371" lon="6.0347">
        <ele>1100.9</ele>
        <time>2022-06-18T04:55:31Z</time>
      </trkpt>
      <trkpt lat="45.18375" lon="6.03469">
        <ele>1101.4</ele>
        <time>2022-06-18T04:55:32Z</time>
      </trkpt>
      <trkpt lat="45.18381" lon="6.03469">
        <ele>1102.1</ele>
        <time>2022-06-18T04:55:34Z</time>
      </trkpt>
      <trkpt lat="45.18384" lon="6.03468">
        <ele>1102.4</ele>
        <time>2022-06-18T04:55:35Z</time>
      </trkpt>
      <trkpt lat="45.18387" lon="6.03468">
        <ele>1102.7</ele>
        <time>2022-06-18T04:55:36Z</time>
      </trkpt>
      <trkpt lat="45.1839" lon="6.03468">
        <ele>1103.1</ele>
        <time>2022-06-18T04:55:37Z</time>
      </trkpt>
      <trkpt lat="45.18392" lon="6.03468">
        <ele>1103.3</ele>
        <time>2022-06-18T04:55:38Z</time>
      </trkpt>
      <trkpt lat="45.18394" lon="6.03467">
        <ele>1103.6</ele>
        <time>2022-06-18T04:55:39Z</time>
      </trkpt>
      <trkpt lat="45.18397" lon="6.03467">
        <ele>1103.9</ele>
        <time>2022-06-18T04:55:40Z</time>
      </trkpt>
      <trkpt lat="45.18399" lon="6.03468">
        <ele>1104.2</ele>
        <time>2022-06-18T04:55:41Z</time>
      </trkpt>
      <trkpt lat="45.18403" lon="6.03469">
        <ele>1104.6</ele>
        <time>2022-06-18T04:55:43Z</time>
      </trkpt>
      <trkpt lat="45.18407" lon="6.03469">
        <ele>1105</ele>
        <time>2022-06-18T04:55:44Z</time>
      </trkpt>
      <trkpt lat="45.18411" lon="6.03468">
        <ele>1105.4</ele>
        <time>2022-06-18T04:55:46Z</time>
      </trkpt>
      <trkpt lat="45.18415" lon="6.03466">
        <ele>1105.9</ele>
        <time>2022-06-18T04:55:47Z</time>
      </trkpt>
      <trkpt lat="45.18418" lon="6.03464">
        <ele>1106.2</ele>
        <time>2022-06-18T04:55:48Z</time>
      </trkpt>
      <trkpt lat="45.18422" lon="6.03464">
        <ele>1106.7</ele>
        <time>2022-06-18T04:55:49Z</time>
      </trkpt>
      <trkpt lat="45.18423" lon="6.03464">
        <ele>1106.8</ele>
        <time>2022-06-18T04:55:50Z</time>
      </trkpt>
      <trkpt lat="45.18427" lon="6.03465">
        <ele>1107.2</ele>
        <time>2022-06-18T04:55:52Z</time>
      </trkpt>
      <trkpt lat="45.18431" lon="6.03466">
        <ele>1107.7</ele>
        <time>2022-06-18T04:55:53Z</time>
      </trkpt>
      <trkpt lat="45.18434" lon="6.03466">
        <ele>1108</ele>
        <time>2022-06-18T04:55:54Z</time>
      </trkpt>
      <trkpt lat="45.18437" lon="6.03466">
        <ele>1108.3</ele>
        <time>2022-06-18T04:55:55Z</time>
      </trkpt>
      <trkpt lat="45.18441" lon="6.03466">
        <ele>1108.7</ele>
        <time>2022-06-18T04:55:56Z</time>
      </trkpt>
      <trkpt lat="45.18444" lon="6.03466">
        <ele>1109.1</ele>
        <time>2022-06-18T04:55:57Z</time>
      </trkpt>
      <trkpt lat="45.18449" lon="6.03462">
        <ele>1109.6</ele>
        <time>2022-06-18T04:55:59Z</time>
      </trkpt>
      <trkpt lat="45.18453" lon="6.03459">
        <ele>1110.1</ele>
        <time>2022-06-18T04:56:00Z</time>
      </trkpt>
      <trkpt lat="45.18457" lon="6.03457">
        <ele>1110.5</ele>
        <time>2022-06-18T04:56:02Z</time>
      </trkpt>
      <trkpt lat="45.18461" lon="6.03454">
        <ele>1111</ele>
        <time>2022-06-18T04:56:03Z</time>
      </trkpt>
      <trkpt lat="45.18464" lon="6.03453">
        <ele>1111.3</ele>
        <time>2022-06-18T04:56:04Z</time>
      </trkpt>
      <trkpt lat="45.18468" lon="6.03453">
        <ele>1111.7</ele>
        <time>2022-06-18T04:56:06Z</time>
      </trkpt>
      <trkpt lat="45.18471" lon="6.03453">
        <ele>1112.1</ele>
        <time>2022-06-18T04:56:07Z</time>
      </trkpt>
      <trkpt lat="45.18476" lon="6.03453">
        <ele>1112.5</ele>
        <time>2022-06-18T04:56:08Z</time>
      </trkpt>
      <trkpt lat="45.18481" lon="6.03452">
        <ele>1113.1</ele>
        <time>2022-06-18T04:56:10Z</time>
      </trkpt>
      <trkpt lat="45.18485" lon="6.03451">
        <ele>1113.5</ele>
        <time>2022-06-18T04:56:11Z</time>
      </trkpt>
      <trkpt lat="45.18487" lon="6.0345">
        <ele>1113.8</ele>
        <time>2022-06-18T04:56:12Z</time>
      </trkpt>
      <trkpt lat="45.1849" lon="6.03449">
        <ele>1114</ele>
        <time>2022-06-18T04:56:13Z</time>
      </trkpt>
      <trkpt lat="45.18492" lon="6.03448">
        <ele>1114.3</ele>
        <time>2022-06-18T04:56:15Z</time>
      </trkpt>
      <trkpt lat="45.18496" lon="6.03447">
        <ele>1114.7</ele>
        <time>2022-06-18T04:56:16Z</time>
      </trkpt>
      <trkpt lat="45.18497" lon="6.03447">
        <ele>1114.9</ele>
        <time>2022-06-18T04:56:17Z</time>
      </trkpt>
      <trkpt lat="45.18501" lon="6.03447">
        <ele>1115.3</ele>
        <time>2022-06-18T04:56:19Z</time>
      </trkpt>
      <trkpt lat="45.18504" lon="6.03447">
        <ele>1115.6</ele>
        <time>2022-06-18T04:56:20Z</time>
      </trkpt>
      <trkpt lat="45.18508" lon="6.03446">
        <ele>1116</ele>
        <time>2022-06-18T04:56:21Z</time>
      </trkpt>
      <trkpt lat="45.1851" lon="6.03446">
        <ele>1116.3</ele>
        <time>2022-06-18T04:56:22Z</time>
      </trkpt>
      <trkpt lat="45.18514" lon="6.03445">
        <ele>1116.6</ele>
        <time>2022-06-18T04:56:24Z</time>
      </trkpt>
      <trkpt lat="45.18517" lon="6.03446">
        <ele>1117</ele>
        <time>2022-06-18T04:56:25Z</time>
      </trkpt>
      <trkpt lat="45.1852" lon="6.03446">
        <ele>1117.3</ele>
        <time>2022-06-18T04:56:26Z</time>
      </trkpt>
      <trkpt lat="45.18524" lon="6.03447">
        <ele>1117.7</ele>
        <time>2022-06-18T04:56:28Z</time>
      </trkpt>
      <trkpt lat="45.18527" lon="6.03447">
        <ele>1118</ele>
        <time>2022-06-18T04:56:29Z</time>
      </trkpt>
      <trkpt lat="45.18528" lon="6.03447">
        <ele>1118.1</ele>
        <time>2022-06-18T04:56:30Z</time>
      </trkpt>
      <trkpt lat="45.18532" lon="6.03447">
        <ele>1118.5</ele>
        <time>2022-06-18T04:56:31Z</time>
      </trkpt>
      <trkpt lat="45.18534" lon="6.03447">
        <ele>1118.7</ele>
        <time>2022-06-18T04:56:32Z</time>
      </trkpt>
      <trkpt lat="45.18537" lon="6.03447">
        <ele>1119.1</ele>
        <time>2022-06-18T04:56:33Z</time>
      </trkpt>
      <trkpt lat="45.18541" lon="6.03446">
        <ele>1119.5</ele>
        <time>2022-06-18T04:56:34Z</time>
      </trkpt>
      <trkpt lat="45.18545" lon="6.03445">
        <ele>1120</ele>
        <time>2022-06-18T04:56:36Z</time>
      </trkpt>
      <trkpt lat="45.18547" lon="6.03445">
        <ele>1120.2</ele>
        <time>2022-06-18T04:56:37Z</time>
      </trkpt>
      <trkpt lat="45.18551" lon="6.03444">
        <ele>1120.6</ele>
        <time>2022-06-18T04:56:38Z</time>
      </trkpt>
      <trkpt lat="45.18555" lon="6.03444">
        <ele>1121</ele>
        <time>2022-06-18T04:56:39Z</time>
      </trkpt>
      <trkpt lat="45.18558" lon="6.03444">
        <ele>1121.4</ele>
        <time>2022-06-18T04:56:40Z</time>
      </trkpt>
      <trkpt lat="45.18561" lon="6.03443">
        <ele>1121.7</ele>
        <time>2022-06-18T04:56:41Z</time>
      </trkpt>
      <trkpt lat="45.18566" lon="6.03442">
        <ele>1122.2</ele>
        <time>2022-06-18T04:56:42Z</time>
      </trkpt>
      <trkpt lat="45.18567" lon="6.03441">
        <ele>1122.4</ele>
        <time>2022-06-18T04:56:43Z</time>
      </trkpt>
      <trkpt lat="45.18571" lon="6.0344">
        <ele>1122.9</ele>
        <time>2022-06-18T04:56:44Z</time>
      </trkpt>
      <trkpt lat="45.18575" lon="6.03438">
        <ele>1123.3</ele>
        <time>2022-06-18T04:56:46Z</time>
      </trkpt>
      <trkpt lat="45.18578" lon="6.03436">
        <ele>1123.8</ele>
        <time>2022-06-18T04:56:47Z</time>
      </trkpt>
      <trkpt lat="45.18582" lon="6.03434">
        <ele>1124.2</ele>
        <time>2022-06-18T04:56:48Z</time>
      </trkpt>
      <trkpt lat="45.18585" lon="6.03431">
        <ele>1124.6</ele>
        <time>2022-06-18T04:56:49Z</time>
      </trkpt>
      <trkpt lat="45.18588" lon="6.03429">
        <ele>1124.9</ele>
        <time>2022-06-18T04:56:50Z</time>
      </trkpt>
      <trkpt lat="45.18591" lon="6.03427">
        <ele>1125.3</ele>
        <time>2022-06-18T04:56:51Z</time>
      </trkpt>
      <trkpt lat="45.18594" lon="6.03425">
        <ele>1125.7</ele>
        <time>2022-06-18T04:56:52Z</time>
      </trkpt>
      <trkpt lat="45.18595" lon="6.03424">
        <ele>1125.8</ele>
        <time>2022-06-18T04:56:53Z</time>
      </trkpt>
      <trkpt lat="45.18598" lon="6.03422">
        <ele>1126.1</ele>
        <time>2022-06-18T04:56:54Z</time>
      </trkpt>
      <trkpt lat="45.18602" lon="6.03421">
        <ele>1126.5</ele>
        <time>2022-06-18T04:56:55Z</time>
      </trkpt>
      <trkpt lat="45.18603" lon="6.0342">
        <ele>1126.6</ele>
        <time>2022-06-18T04:56:56Z</time>
      </trkpt>
      <trkpt lat="45.18607" lon="6.03419">
        <ele>1127</ele>
        <time>2022-06-18T04:56:57Z</time>
      </trkpt>
      <trkpt lat="45.18609" lon="6.03417">
        <ele>1127.3</ele>
        <time>2022-06-18T04:56:58Z</time>
      </trkpt>
      <trkpt lat="45.18612" lon="6.03416">
        <ele>1127.6</ele>
        <time>2022-06-18T04:56:59Z</time>
      </trkpt>
      <trkpt lat="45.18614" lon="6.03414">
        <ele>1127.9</ele>
        <time>2022-06-18T04:57:00Z</time>
      </trkpt>
      <trkpt lat="45.18618" lon="6.03412">
        <ele>1128.3</ele>
        <time>2022-06-18T04:57:02Z</time>
      </trkpt>
      <trkpt lat="45.18621" lon="6.03409">
        <ele>1128.6</ele>
        <time>2022-06-18T04:57:03Z</time>
      </trkpt>
      <trkpt lat="45.18624" lon="6.03406">
        <ele>1128.9</ele>
        <time>2022-06-18T04:57:04Z</time>
      </trkpt>
      <trkpt lat="45.18628" lon="6.03403">
        <ele>1129.3</ele>
        <time>2022-06-18T04:57:05Z</time>
      </trkpt>
      <trkpt lat="45.18631" lon="6.03401">
        <ele>1129.6</ele>
        <time>2022-06-18T04:57:06Z</time>
      </trkpt>
      <trkpt lat="45.18634" lon="6.03399">
        <ele>1129.9</ele>
        <time>2022-06-18T04:57:07Z</time>
      </trkpt>
      <trkpt lat="45.18637" lon="6.03397">
        <ele>1130.3</ele>
        <time>2022-06-18T04:57:08Z</time>
      </trkpt>
      <trkpt lat="45.1864" lon="6.03396">
        <ele>1130.8</ele>
        <time>2022-06-18T04:57:09Z</time>
      </trkpt>
      <trkpt lat="45.18644" lon="6.03394">
        <ele>1131.3</ele>
        <time>2022-06-18T04:57:11Z</time>
      </trkpt>
      <trkpt lat="45.18648" lon="6.03393">
        <ele>1131.7</ele>
        <time>2022-06-18T04:57:12Z</time>
      </trkpt>
      <trkpt lat="45.18651" lon="6.03392">
        <ele>1132.1</ele>
        <time>2022-06-18T04:57:14Z</time>
      </trkpt>
      <trkpt lat="45.18654" lon="6.03391">
        <ele>1132.5</ele>
        <time>2022-06-18T04:57:15Z</time>
      </trkpt>
      <trkpt lat="45.18657" lon="6.0339">
        <ele>1132.9</ele>
        <time>2022-06-18T04:57:16Z</time>
      </trkpt>
      <trkpt lat="45.1866" lon="6.03388">
        <ele>1133.3</ele>
        <time>2022-06-18T04:57:18Z</time>
      </trkpt>
      <trkpt lat="45.18664" lon="6.03386">
        <ele>1133.9</ele>
        <time>2022-06-18T04:57:19Z</time>
      </trkpt>
      <trkpt lat="45.18668" lon="6.03385">
        <ele>1134.4</ele>
        <time>2022-06-18T04:57:20Z</time>
      </trkpt>
      <trkpt lat="45.18669" lon="6.03385">
        <ele>1134.6</ele>
        <time>2022-06-18T04:57:21Z</time>
      </trkpt>
      <trkpt lat="45.18672" lon="6.03384">
        <ele>1135</ele>
        <time>2022-06-18T04:57:22Z</time>
      </trkpt>
      <trkpt lat="45.18673" lon="6.03383">
        <ele>1135.2</ele>
        <time>2022-06-18T04:57:23Z</time>
      </trkpt>
      <trkpt lat="45.18675" lon="6.03383">
        <ele>1135.4</ele>
        <time>2022-06-18T04:57:24Z</time>
      </trkpt>
      <trkpt lat="45.18679" lon="6.03381">
        <ele>1135.9</ele>
        <time>2022-06-18T04:57:26Z</time>
      </trkpt>
      <trkpt lat="45.18682" lon="6.0338">
        <ele>1136.4</ele>
        <time>2022-06-18T04:57:27Z</time>
      </trkpt>
      <trkpt lat="45.18685" lon="6.03379">
        <ele>1136.9</ele>
        <time>2022-06-18T04:57:28Z</time>
      </trkpt>
      <trkpt lat="45.18689" lon="6.03377">
        <ele>1137.4</ele>
        <time>2022-06-18T04:57:30Z</time>
      </trkpt>
      <trkpt lat="45.18692" lon="6.03377">
        <ele>1137.6</ele>
        <time>2022-06-18T04:57:31Z</time>
      </trkpt>
      <trkpt lat="45.18695" lon="6.03375">
        <ele>1137.8</ele>
        <time>2022-06-18T04:57:32Z</time>
      </trkpt>
      <trkpt lat="45.187" lon="6.03374">
        <ele>1138.1</ele>
        <time>2022-06-18T04:57:34Z</time>
      </trkpt>
      <trkpt lat="45.18705" lon="6.03374">
        <ele>1138.4</ele>
        <time>2022-06-18T04:57:35Z</time>
      </trkpt>
      <trkpt lat="45.1871" lon="6.03376">
        <ele>1138.6</ele>
        <time>2022-06-18T04:57:36Z</time>
      </trkpt>
      <trkpt lat="45.18716" lon="6.03378">
        <ele>1138.9</ele>
        <time>2022-06-18T04:57:38Z</time>
      </trkpt>
      <trkpt lat="45.1872" lon="6.0338">
        <ele>1139.2</ele>
        <time>2022-06-18T04:57:39Z</time>
      </trkpt>
      <trkpt lat="45.18725" lon="6.03383">
        <ele>1139.7</ele>
        <time>2022-06-18T04:57:40Z</time>
      </trkpt>
      <trkpt lat="45.18728" lon="6.03386">
        <ele>1140</ele>
        <time>2022-06-18T04:57:41Z</time>
      </trkpt>
      <trkpt lat="45.18732" lon="6.03389">
        <ele>1140.3</ele>
        <time>2022-06-18T04:57:42Z</time>
      </trkpt>
      <trkpt lat="45.18736" lon="6.03392">
        <ele>1140.7</ele>
        <time>2022-06-18T04:57:44Z</time>
      </trkpt>
      <trkpt lat="45.1874" lon="6.03395">
        <ele>1141.1</ele>
        <time>2022-06-18T04:57:45Z</time>
      </trkpt>
      <trkpt lat="45.18744" lon="6.03398">
        <ele>1141.5</ele>
        <time>2022-06-18T04:57:47Z</time>
      </trkpt>
      <trkpt lat="45.18748" lon="6.03401">
        <ele>1141.9</ele>
        <time>2022-06-18T04:57:48Z</time>
      </trkpt>
      <trkpt lat="45.18752" lon="6.03404">
        <ele>1142.3</ele>
        <time>2022-06-18T04:57:49Z</time>
      </trkpt>
      <trkpt lat="45.18755" lon="6.03406">
        <ele>1142.6</ele>
        <time>2022-06-18T04:57:51Z</time>
      </trkpt>
      <trkpt lat="45.18758" lon="6.03409">
        <ele>1143</ele>
        <time>2022-06-18T04:57:52Z</time>
      </trkpt>
      <trkpt lat="45.18762" lon="6.03412">
        <ele>1143.3</ele>
        <time>2022-06-18T04:57:53Z</time>
      </trkpt>
      <trkpt lat="45.18764" lon="6.03414">
        <ele>1143.6</ele>
        <time>2022-06-18T04:57:54Z</time>
      </trkpt>
      <trkpt lat="45.18768" lon="6.03418">
        <ele>1144.1</ele>
        <time>2022-06-18T04:57:56Z</time>
      </trkpt>
      <trkpt lat="45.18771" lon="6.0342">
        <ele>1144.4</ele>
        <time>2022-06-18T04:57:57Z</time>
      </trkpt>
      <trkpt lat="45.18774" lon="6.03422">
        <ele>1144.7</ele>
        <time>2022-06-18T04:57:58Z</time>
      </trkpt>
      <trkpt lat="45.18775" lon="6.03423">
        <ele>1144.9</ele>
        <time>2022-06-18T04:57:59Z</time>
      </trkpt>
      <trkpt lat="45.18778" lon="6.03425">
        <ele>1145.2</ele>
        <time>2022-06-18T04:58:00Z</time>
      </trkpt>
      <trkpt lat="45.18782" lon="6.0343">
        <ele>1145.7</ele>
        <time>2022-06-18T04:58:01Z</time>
      </trkpt>
      <trkpt lat="45.18786" lon="6.03434">
        <ele>1146.2</ele>
        <time>2022-06-18T04:58:02Z</time>
      </trkpt>
      <trkpt lat="45.1879" lon="6.03437">
        <ele>1146.7</ele>
        <time>2022-06-18T04:58:04Z</time>
      </trkpt>
      <trkpt lat="45.18792" lon="6.03439">
        <ele>1147</ele>
        <time>2022-06-18T04:58:05Z</time>
      </trkpt>
      <trkpt lat="45.18795" lon="6.03442">
        <ele>1147.4</ele>
        <time>2022-06-18T04:58:06Z</time>
      </trkpt>
      <trkpt lat="45.18799" lon="6.03445">
        <ele>1147.9</ele>
        <time>2022-06-18T04:58:07Z</time>
      </trkpt>
      <trkpt lat="45.18801" lon="6.03446">
        <ele>1148</ele>
        <time>2022-06-18T04:58:08Z</time>
      </trkpt>
      <trkpt lat="45.18803" lon="6.03449">
        <ele>1148.3</ele>
        <time>2022-06-18T04:58:09Z</time>
      </trkpt>
      <trkpt lat="45.18806" lon="6.03451">
        <ele>1148.7</ele>
        <time>2022-06-18T04:58:10Z</time>
      </trkpt>
      <trkpt lat="45.18809" lon="6.03454">
        <ele>1149.1</ele>
        <time>2022-06-18T04:58:11Z</time>
      </trkpt>
      <trkpt lat="45.18812" lon="6.03456">
        <ele>1149.5</ele>
        <time>2022-06-18T04:58:12Z</time>
      </trkpt>
      <trkpt lat="45.18815" lon="6.03458">
        <ele>1149.8</ele>
        <time>2022-06-18T04:58:13Z</time>
      </trkpt>
      <trkpt lat="45.18818" lon="6.0346">
        <ele>1150.1</ele>
        <time>2022-06-18T04:58:14Z</time>
      </trkpt>
      <trkpt lat="45.18822" lon="6.03464">
        <ele>1150.7</ele>
        <time>2022-06-18T04:58:16Z</time>
      </trkpt>
      <trkpt lat="45.18825" lon="6.03467">
        <ele>1151</ele>
        <time>2022-06-18T04:58:17Z</time>
      </trkpt>
      <trkpt lat="45.18829" lon="6.03468">
        <ele>1151.4</ele>
        <time>2022-06-18T04:58:18Z</time>
      </trkpt>
      <trkpt lat="45.18833" lon="6.0347">
        <ele>1151.9</ele>
        <time>2022-06-18T04:58:20Z</time>
      </trkpt>
      <trkpt lat="45.18837" lon="6.03472">
        <ele>1152.3</ele>
        <time>2022-06-18T04:58:21Z</time>
      </trkpt>
      <trkpt lat="45.1884" lon="6.03473">
        <ele>1152.6</ele>
        <time>2022-06-18T04:58:22Z</time>
      </trkpt>
      <trkpt lat="45.18843" lon="6.03475">
        <ele>1153</ele>
        <time>2022-06-18T04:58:23Z</time>
      </trkpt>
      <trkpt lat="45.18845" lon="6.03475">
        <ele>1153.2</ele>
        <time>2022-06-18T04:58:24Z</time>
      </trkpt>
      <trkpt lat="45.18848" lon="6.03477">
        <ele>1153.5</ele>
        <time>2022-06-18T04:58:25Z</time>
      </trkpt>
      <trkpt lat="45.18849" lon="6.03478">
        <ele>1153.6</ele>
        <time>2022-06-18T04:58:26Z</time>
      </trkpt>
      <trkpt lat="45.18852" lon="6.03479">
        <ele>1153.9</ele>
        <time>2022-06-18T04:58:27Z</time>
      </trkpt>
      <trkpt lat="45.18853" lon="6.0348">
        <ele>1154</ele>
        <time>2022-06-18T04:58:28Z</time>
      </trkpt>
      <trkpt lat="45.18856" lon="6.03482">
        <ele>1154.4</ele>
        <time>2022-06-18T04:58:29Z</time>
      </trkpt>
      <trkpt lat="45.18859" lon="6.03483">
        <ele>1154.7</ele>
        <time>2022-06-18T04:58:30Z</time>
      </trkpt>
      <trkpt lat="45.18862" lon="6.03485">
        <ele>1155.1</ele>
        <time>2022-06-18T04:58:31Z</time>
      </trkpt>
      <trkpt lat="45.18865" lon="6.03488">
        <ele>1155.5</ele>
        <time>2022-06-18T04:58:32Z</time>
      </trkpt>
      <trkpt lat="45.18869" lon="6.0349">
        <ele>1155.8</ele>
        <time>2022-06-18T04:58:33Z</time>
      </trkpt>
      <trkpt lat="45.18872" lon="6.03491">
        <ele>1156.1</ele>
        <time>2022-06-18T04:58:34Z</time>
      </trkpt>
      <trkpt lat="45.18876" lon="6.03495">
        <ele>1156.7</ele>
        <time>2022-06-18T04:58:36Z</time>
      </trkpt>
      <trkpt lat="45.1888" lon="6.03498">
        <ele>1157.1</ele>
        <time>2022-06-18T04:58:37Z</time>
      </trkpt>
      <trkpt lat="45.18884" lon="6.035">
        <ele>1157.5</ele>
        <time>2022-06-18T04:58:39Z</time>
      </trkpt>
      <trkpt lat="45.18888" lon="6.03501">
        <ele>1158</ele>
        <time>2022-06-18T04:58:40Z</time>
      </trkpt>
      <trkpt lat="45.18891" lon="6.03503">
        <ele>1158.3</ele>
        <time>2022-06-18T04:58:41Z</time>
      </trkpt>
      <trkpt lat="45.18895" lon="6.03505">
        <ele>1158.8</ele>
        <time>2022-06-18T04:58:43Z</time>
      </trkpt>
      <trkpt lat="45.18898" lon="6.03507">
        <ele>1159.1</ele>
        <time>2022-06-18T04:58:44Z</time>
      </trkpt>
      <trkpt lat="45.189" lon="6.03508">
        <ele>1159.4</ele>
        <time>2022-06-18T04:58:45Z</time>
      </trkpt>
      <trkpt lat="45.18904" lon="6.0351">
        <ele>1159.8</ele>
        <time>2022-06-18T04:58:46Z</time>
      </trkpt>
      <trkpt lat="45.18906" lon="6.03511">
        <ele>1160.2</ele>
        <time>2022-06-18T04:58:48Z</time>
      </trkpt>
      <trkpt lat="45.1891" lon="6.03512">
        <ele>1160.6</ele>
        <time>2022-06-18T04:58:49Z</time>
      </trkpt>
      <trkpt lat="45.18915" lon="6.03511">
        <ele>1161.1</ele>
        <time>2022-06-18T04:58:51Z</time>
      </trkpt>
      <trkpt lat="45.18918" lon="6.03511">
        <ele>1161.4</ele>
        <time>2022-06-18T04:58:52Z</time>
      </trkpt>
      <trkpt lat="45.18921" lon="6.03512">
        <ele>1161.8</ele>
        <time>2022-06-18T04:58:53Z</time>
      </trkpt>
      <trkpt lat="45.18925" lon="6.03514">
        <ele>1162.2</ele>
        <time>2022-06-18T04:58:54Z</time>
      </trkpt>
      <trkpt lat="45.18929" lon="6.03515">
        <ele>1162.6</ele>
        <time>2022-06-18T04:58:56Z</time>
      </trkpt>
      <trkpt lat="45.18933" lon="6.03517">
        <ele>1163.1</ele>
        <time>2022-06-18T04:58:57Z</time>
      </trkpt>
      <trkpt lat="45.18936" lon="6.03519">
        <ele>1163.4</ele>
        <time>2022-06-18T04:58:58Z</time>
      </trkpt>
      <trkpt lat="45.18938" lon="6.0352">
        <ele>1163.6</ele>
        <time>2022-06-18T04:58:59Z</time>
      </trkpt>
      <trkpt lat="45.18942" lon="6.03521">
        <ele>1164.1</ele>
        <time>2022-06-18T04:59:01Z</time>
      </trkpt>
      <trkpt lat="45.18945" lon="6.03522">
        <ele>1164.4</ele>
        <time>2022-06-18T04:59:02Z</time>
      </trkpt>
      <trkpt lat="45.18949" lon="6.03522">
        <ele>1164.8</ele>
        <time>2022-06-18T04:59:03Z</time>
      </trkpt>
      <trkpt lat="45.1895" lon="6.03523">
        <ele>1164.9</ele>
        <time>2022-06-18T04:59:04Z</time>
      </trkpt>
      <trkpt lat="45.18954" lon="6.03524">
        <ele>1165.3</ele>
        <time>2022-06-18T04:59:05Z</time>
      </trkpt>
      <trkpt lat="45.18955" lon="6.03524">
        <ele>1165.4</ele>
        <time>2022-06-18T04:59:06Z</time>
      </trkpt>
      <trkpt lat="45.18957" lon="6.03526">
        <ele>1165.7</ele>
        <time>2022-06-18T04:59:08Z</time>
      </trkpt>
      <trkpt lat="45.1896" lon="6.03527">
        <ele>1166</ele>
        <time>2022-06-18T04:59:09Z</time>
      </trkpt>
      <trkpt lat="45.18963" lon="6.03528">
        <ele>1166.3</ele>
        <time>2022-06-18T04:59:10Z</time>
      </trkpt>
      <trkpt lat="45.18966" lon="6.0353">
        <ele>1166.7</ele>
        <time>2022-06-18T04:59:11Z</time>
      </trkpt>
      <trkpt lat="45.18969" lon="6.03531">
        <ele>1167</ele>
        <time>2022-06-18T04:59:12Z</time>
      </trkpt>
      <trkpt lat="45.18972" lon="6.03533">
        <ele>1167.3</ele>
        <time>2022-06-18T04:59:13Z</time>
      </trkpt>
      <trkpt lat="45.18976" lon="6.03535">
        <ele>1167.7</ele>
        <time>2022-06-18T04:59:14Z</time>
      </trkpt>
      <trkpt lat="45.18977" lon="6.03535">
        <ele>1167.9</ele>
        <time>2022-06-18T04:59:15Z</time>
      </trkpt>
      <trkpt lat="45.1898" lon="6.03537">
        <ele>1168.2</ele>
        <time>2022-06-18T04:59:16Z</time>
      </trkpt>
      <trkpt lat="45.18983" lon="6.03539">
        <ele>1168.5</ele>
        <time>2022-06-18T04:59:17Z</time>
      </trkpt>
      <trkpt lat="45.18985" lon="6.0354">
        <ele>1168.8</ele>
        <time>2022-06-18T04:59:18Z</time>
      </trkpt>
      <trkpt lat="45.18989" lon="6.03542">
        <ele>1169.2</ele>
        <time>2022-06-18T04:59:20Z</time>
      </trkpt>
      <trkpt lat="45.18992" lon="6.03544">
        <ele>1169.5</ele>
        <time>2022-06-18T04:59:21Z</time>
      </trkpt>
      <trkpt lat="45.18996" lon="6.03546">
        <ele>1170</ele>
        <time>2022-06-18T04:59:22Z</time>
      </trkpt>
      <trkpt lat="45.19" lon="6.0355">
        <ele>1170.4</ele>
        <time>2022-06-18T04:59:24Z</time>
      </trkpt>
      <trkpt lat="45.19004" lon="6.03553">
        <ele>1170.9</ele>
        <time>2022-06-18T04:59:25Z</time>
      </trkpt>
      <trkpt lat="45.19008" lon="6.03555">
        <ele>1171.3</ele>
        <time>2022-06-18T04:59:26Z</time>
      </trkpt>
      <trkpt lat="45.19011" lon="6.03557">
        <ele>1171.7</ele>
        <time>2022-06-18T04:59:28Z</time>
      </trkpt>
      <trkpt lat="45.19014" lon="6.0356">
        <ele>1172.1</ele>
        <time>2022-06-18T04:59:29Z</time>
      </trkpt>
      <trkpt lat="45.19017" lon="6.03562">
        <ele>1172.4</ele>
        <time>2022-06-18T04:59:31Z</time>
      </trkpt>
      <trkpt lat="45.19021" lon="6.03565">
        <ele>1172.9</ele>
        <time>2022-06-18T04:59:32Z</time>
      </trkpt>
      <trkpt lat="45.19025" lon="6.03567">
        <ele>1173.3</ele>
        <time>2022-06-18T04:59:33Z</time>
      </trkpt>
      <trkpt lat="45.19029" lon="6.03569">
        <ele>1173.8</ele>
        <time>2022-06-18T04:59:35Z</time>
      </trkpt>
      <trkpt lat="45.19033" lon="6.03571">
        <ele>1174.2</ele>
        <time>2022-06-18T04:59:36Z</time>
      </trkpt>
      <trkpt lat="45.19037" lon="6.03572">
        <ele>1174.6</ele>
        <time>2022-06-18T04:59:37Z</time>
      </trkpt>
      <trkpt lat="45.19041" lon="6.03573">
        <ele>1175</ele>
        <time>2022-06-18T04:59:39Z</time>
      </trkpt>
      <trkpt lat="45.19044" lon="6.03575">
        <ele>1175.3</ele>
        <time>2022-06-18T04:59:40Z</time>
      </trkpt>
      <trkpt lat="45.19047" lon="6.03576">
        <ele>1175.6</ele>
        <time>2022-06-18T04:59:41Z</time>
      </trkpt>
      <trkpt lat="45.1905" lon="6.03576">
        <ele>1175.9</ele>
        <time>2022-06-18T04:59:42Z</time>
      </trkpt>
      <trkpt lat="45.19051" lon="6.03576">
        <ele>1176</ele>
        <time>2022-06-18T04:59:43Z</time>
      </trkpt>
      <trkpt lat="45.19054" lon="6.03577">
        <ele>1176.3</ele>
        <time>2022-06-18T04:59:44Z</time>
      </trkpt>
      <trkpt lat="45.19055" lon="6.03577">
        <ele>1176.4</ele>
        <time>2022-06-18T04:59:45Z</time>
      </trkpt>
      <trkpt lat="45.19059" lon="6.03579">
        <ele>1176.8</ele>
        <time>2022-06-18T04:59:46Z</time>
      </trkpt>
      <trkpt lat="45.1906" lon="6.0358">
        <ele>1176.9</ele>
        <time>2022-06-18T04:59:47Z</time>
      </trkpt>
      <trkpt lat="45.19063" lon="6.03581">
        <ele>1177.3</ele>
        <time>2022-06-18T04:59:48Z</time>
      </trkpt>
      <trkpt lat="45.19068" lon="6.03583">
        <ele>1177.7</ele>
        <time>2022-06-18T04:59:50Z</time>
      </trkpt>
      <trkpt lat="45.19072" lon="6.03584">
        <ele>1178.2</ele>
        <time>2022-06-18T04:59:51Z</time>
      </trkpt>
      <trkpt lat="45.19076" lon="6.03585">
        <ele>1178.6</ele>
        <time>2022-06-18T04:59:53Z</time>
      </trkpt>
      <trkpt lat="45.19081" lon="6.03587">
        <ele>1179.1</ele>
        <time>2022-06-18T04:59:54Z</time>
      </trkpt>
      <trkpt lat="45.19083" lon="6.03587">
        <ele>1179.4</ele>
        <time>2022-06-18T04:59:55Z</time>
      </trkpt>
      <trkpt lat="45.19088" lon="6.03589">
        <ele>1179.9</ele>
        <time>2022-06-18T04:59:57Z</time>
      </trkpt>
      <trkpt lat="45.19091" lon="6.0359">
        <ele>1180.2</ele>
        <time>2022-06-18T04:59:58Z</time>
      </trkpt>
      <trkpt lat="45.19093" lon="6.03592">
        <ele>1180.5</ele>
        <time>2022-06-18T04:59:59Z</time>
      </trkpt>
      <trkpt lat="45.19096" lon="6.03594">
        <ele>1180.9</ele>
        <time>2022-06-18T05:00:00Z</time>
      </trkpt>
      <trkpt lat="45.19099" lon="6.03596">
        <ele>1181.2</ele>
        <time>2022-06-18T05:00:01Z</time>
      </trkpt>
      <trkpt lat="45.19103" lon="6.03598">
        <ele>1181.7</ele>
        <time>2022-06-18T05:00:02Z</time>
      </trkpt>
      <trkpt lat="45.19104" lon="6.03598">
        <ele>1181.8</ele>
        <time>2022-06-18T05:00:03Z</time>
      </trkpt>
      <trkpt lat="45.19107" lon="6.03599">
        <ele>1182.1</ele>
        <time>2022-06-18T05:00:04Z</time>
      </trkpt>
      <trkpt lat="45.19111" lon="6.03599">
        <ele>1182.6</ele>
        <time>2022-06-18T05:00:05Z</time>
      </trkpt>
      <trkpt lat="45.19112" lon="6.03598">
        <ele>1182.7</ele>
        <time>2022-06-18T05:00:06Z</time>
      </trkpt>
      <trkpt lat="45.19114" lon="6.03597">
        <ele>1183</ele>
        <time>2022-06-18T05:00:07Z</time>
      </trkpt>
      <trkpt lat="45.19118" lon="6.03597">
        <ele>1183.4</ele>
        <time>2022-06-18T05:00:09Z</time>
      </trkpt>
      <trkpt lat="45.19121" lon="6.03597">
        <ele>1183.7</ele>
        <time>2022-06-18T05:00:10Z</time>
      </trkpt>
      <trkpt lat="45.19123" lon="6.03597">
        <ele>1184</ele>
        <time>2022-06-18T05:00:11Z</time>
      </trkpt>
      <trkpt lat="45.19126" lon="6.03596">
        <ele>1184.3</ele>
        <time>2022-06-18T05:00:12Z</time>
      </trkpt>
      <trkpt lat="45.1913" lon="6.03595">
        <ele>1184.6</ele>
        <time>2022-06-18T05:00:13Z</time>
      </trkpt>
      <trkpt lat="45.19131" lon="6.03595">
        <ele>1184.7</ele>
        <time>2022-06-18T05:00:14Z</time>
      </trkpt>
      <trkpt lat="45.19134" lon="6.03596">
        <ele>1185.1</ele>
        <time>2022-06-18T05:00:15Z</time>
      </trkpt>
      <trkpt lat="45.19135" lon="6.03597">
        <ele>1185.2</ele>
        <time>2022-06-18T05:00:16Z</time>
      </trkpt>
      <trkpt lat="45.19138" lon="6.03598">
        <ele>1185.6</ele>
        <time>2022-06-18T05:00:17Z</time>
      </trkpt>
      <trkpt lat="45.19139" lon="6.03599">
        <ele>1185.7</ele>
        <time>2022-06-18T05:00:18Z</time>
      </trkpt>
      <trkpt lat="45.19142" lon="6.036">
        <ele>1186</ele>
        <time>2022-06-18T05:00:19Z</time>
      </trkpt>
      <trkpt lat="45.19145" lon="6.03601">
        <ele>1186.3</ele>
        <time>2022-06-18T05:00:20Z</time>
      </trkpt>
      <trkpt lat="45.19148" lon="6.03603">
        <ele>1186.6</ele>
        <time>2022-06-18T05:00:22Z</time>
      </trkpt>
      <trkpt lat="45.19152" lon="6.03604">
        <ele>1187</ele>
        <time>2022-06-18T05:00:23Z</time>
      </trkpt>
      <trkpt lat="45.19155" lon="6.03604">
        <ele>1187.3</ele>
        <time>2022-06-18T05:00:24Z</time>
      </trkpt>
      <trkpt lat="45.19158" lon="6.03605">
        <ele>1187.6</ele>
        <time>2022-06-18T05:00:25Z</time>
      </trkpt>
      <trkpt lat="45.19162" lon="6.03606">
        <ele>1188</ele>
        <time>2022-06-18T05:00:27Z</time>
      </trkpt>
      <trkpt lat="45.19167" lon="6.03607">
        <ele>1188.5</ele>
        <time>2022-06-18T05:00:28Z</time>
      </trkpt>
      <trkpt lat="45.19171" lon="6.03607">
        <ele>1188.9</ele>
        <time>2022-06-18T05:00:29Z</time>
      </trkpt>
      <trkpt lat="45.19176" lon="6.03608">
        <ele>1189.3</ele>
        <time>2022-06-18T05:00:31Z</time>
      </trkpt>
      <trkpt lat="45.19179" lon="6.0361">
        <ele>1189.7</ele>
        <time>2022-06-18T05:00:32Z</time>
      </trkpt>
      <trkpt lat="45.19182" lon="6.03611">
        <ele>1190</ele>
        <time>2022-06-18T05:00:33Z</time>
      </trkpt>
      <trkpt lat="45.19185" lon="6.03613">
        <ele>1190.4</ele>
        <time>2022-06-18T05:00:35Z</time>
      </trkpt>
      <trkpt lat="45.19188" lon="6.03614">
        <ele>1190.6</ele>
        <time>2022-06-18T05:00:36Z</time>
      </trkpt>
      <trkpt lat="45.19191" lon="6.03615">
        <ele>1190.9</ele>
        <time>2022-06-18T05:00:38Z</time>
      </trkpt>
      <trkpt lat="45.19194" lon="6.03617">
        <ele>1191.3</ele>
        <time>2022-06-18T05:00:39Z</time>
      </trkpt>
      <trkpt lat="45.19196" lon="6.03619">
        <ele>1191.5</ele>
        <time>2022-06-18T05:00:40Z</time>
      </trkpt>
      <trkpt lat="45.19198" lon="6.0362">
        <ele>1191.8</ele>
        <time>2022-06-18T05:00:41Z</time>
      </trkpt>
      <trkpt lat="45.19203" lon="6.03625">
        <ele>1192.4</ele>
        <time>2022-06-18T05:00:43Z</time>
      </trkpt>
      <trkpt lat="45.19206" lon="6.03628">
        <ele>1192.8</ele>
        <time>2022-06-18T05:00:44Z</time>
      </trkpt>
      <trkpt lat="45.19207" lon="6.03629">
        <ele>1192.9</ele>
        <time>2022-06-18T05:00:45Z</time>
      </trkpt>
      <trkpt lat="45.19211" lon="6.03631">
        <ele>1193.4</ele>
        <time>2022-06-18T05:00:46Z</time>
      </trkpt>
      <trkpt lat="45.19217" lon="6.03633">
        <ele>1194.1</ele>
        <time>2022-06-18T05:00:48Z</time>
      </trkpt>
      <trkpt lat="45.19222" lon="6.03635">
        <ele>1194.6</ele>
        <time>2022-06-18T05:00:49Z</time>
      </trkpt>
      <trkpt lat="45.19226" lon="6.03638">
        <ele>1195.1</ele>
        <time>2022-06-18T05:00:50Z</time>
      </trkpt>
      <trkpt lat="45.19231" lon="6.0364">
        <ele>1195.6</ele>
        <time>2022-06-18T05:00:52Z</time>
      </trkpt>
      <trkpt lat="45.19233" lon="6.03641">
        <ele>1195.9</ele>
        <time>2022-06-18T05:00:53Z</time>
      </trkpt>
      <trkpt lat="45.19236" lon="6.03643">
        <ele>1196.2</ele>
        <time>2022-06-18T05:00:54Z</time>
      </trkpt>
      <trkpt lat="45.19239" lon="6.03644">
        <ele>1196.6</ele>
        <time>2022-06-18T05:00:55Z</time>
      </trkpt>
      <trkpt lat="45.1924" lon="6.03645">
        <ele>1196.7</ele>
        <time>2022-06-18T05:00:56Z</time>
      </trkpt>
      <trkpt lat="45.19243" lon="6.03645">
        <ele>1197.1</ele>
        <time>2022-06-18T05:00:57Z</time>
      </trkpt>
      <trkpt lat="45.19245" lon="6.03645">
        <ele>1197.3</ele>
        <time>2022-06-18T05:00:58Z</time>
      </trkpt>
      <trkpt lat="45.19249" lon="6.03645">
        <ele>1197.7</ele>
        <time>2022-06-18T05:00:59Z</time>
      </trkpt>
      <trkpt lat="45.19251" lon="6.03645">
        <ele>1197.9</ele>
        <time>2022-06-18T05:01:00Z</time>
      </trkpt>
      <trkpt lat="45.19254" lon="6.03645">
        <ele>1198.2</ele>
        <time>2022-06-18T05:01:01Z</time>
      </trkpt>
      <trkpt lat="45.19257" lon="6.03646">
        <ele>1198.6</ele>
        <time>2022-06-18T05:01:02Z</time>
      </trkpt>
      <trkpt lat="45.19261" lon="6.03647">
        <ele>1199</ele>
        <time>2022-06-18T05:01:03Z</time>
      </trkpt>
      <trkpt lat="45.19263" lon="6.03647">
        <ele>1199.2</ele>
        <time>2022-06-18T05:01:04Z</time>
      </trkpt>
      <trkpt lat="45.19266" lon="6.03649">
        <ele>1199.5</ele>
        <time>2022-06-18T05:01:05Z</time>
      </trkpt>
      <trkpt lat="45.19269" lon="6.03649">
        <ele>1199.9</ele>
        <time>2022-06-18T05:01:06Z</time>
      </trkpt>
      <trkpt lat="45.19272" lon="6.0365">
        <ele>1200.2</ele>
        <time>2022-06-18T05:01:08Z</time>
      </trkpt>
      <trkpt lat="45.19275" lon="6.03651">
        <ele>1200.5</ele>
        <time>2022-06-18T05:01:09Z</time>
      </trkpt>
      <trkpt lat="45.19279" lon="6.03651">
        <ele>1200.9</ele>
        <time>2022-06-18T05:01:10Z</time>
      </trkpt>
      <trkpt lat="45.1928" lon="6.03652">
        <ele>1201</ele>
        <time>2022-06-18T05:01:11Z</time>
      </trkpt>
      <trkpt lat="45.19284" lon="6.03653">
        <ele>1201.5</ele>
        <time>2022-06-18T05:01:12Z</time>
      </trkpt>
      <trkpt lat="45.19286" lon="6.03654">
        <ele>1201.7</ele>
        <time>2022-06-18T05:01:13Z</time>
      </trkpt>
      <trkpt lat="45.19288" lon="6.03655">
        <ele>1201.9</ele>
        <time>2022-06-18T05:01:14Z</time>
      </trkpt>
      <trkpt lat="45.19292" lon="6.03657">
        <ele>1202.3</ele>
        <time>2022-06-18T05:01:16Z</time>
      </trkpt>
      <trkpt lat="45.19296" lon="6.0366">
        <ele>1202.8</ele>
        <time>2022-06-18T05:01:17Z</time>
      </trkpt>
      <trkpt lat="45.19299" lon="6.03663">
        <ele>1203.2</ele>
        <time>2022-06-18T05:01:19Z</time>
      </trkpt>
      <trkpt lat="45.19303" lon="6.03665">
        <ele>1203.5</ele>
        <time>2022-06-18T05:01:20Z</time>
      </trkpt>
      <trkpt lat="45.19305" lon="6.03667">
        <ele>1203.8</ele>
        <time>2022-06-18T05:01:21Z</time>
      </trkpt>
      <trkpt lat="45.19308" lon="6.0367">
        <ele>1204.2</ele>
        <time>2022-06-18T05:01:22Z</time>
      </trkpt>
      <trkpt lat="45.19311" lon="6.03672">
        <ele>1204.6</ele>
        <time>2022-06-18T05:01:23Z</time>
      </trkpt>
      <trkpt lat="45.19312" lon="6.03673">
        <ele>1204.7</ele>
        <time>2022-06-18T05:01:24Z</time>
      </trkpt>
      <trkpt lat="45.19315" lon="6.03675">
        <ele>1205</ele>
        <time>2022-06-18T05:01:25Z</time>
      </trkpt>
      <trkpt lat="45.19319" lon="6.03677">
        <ele>1205.4</ele>
        <time>2022-06-18T05:01:27Z</time>
      </trkpt>
      <trkpt lat="45.19321" lon="6.0368">
        <ele>1205.8</ele>
        <time>2022-06-18T05:01:28Z</time>
      </trkpt>
      <trkpt lat="45.19324" lon="6.03682">
        <ele>1206.1</ele>
        <time>2022-06-18T05:01:29Z</time>
      </trkpt>
      <trkpt lat="45.19325" lon="6.03683">
        <ele>1206.3</ele>
        <time>2022-06-18T05:01:30Z</time>
      </trkpt>
      <trkpt lat="45.19328" lon="6.03685">
        <ele>1206.6</ele>
        <time>2022-06-18T05:01:32Z</time>
      </trkpt>
      <trkpt lat="45.19329" lon="6.03687">
        <ele>1206.8</ele>
        <time>2022-06-18T05:01:33Z</time>
      </trkpt>
      <trkpt lat="45.19332" lon="6.03689">
        <ele>1207.2</ele>
        <time>2022-06-18T05:01:35Z</time>
      </trkpt>
      <trkpt lat="45.19334" lon="6.03692">
        <ele>1207.5</ele>
        <time>2022-06-18T05:01:36Z</time>
      </trkpt>
      <trkpt lat="45.19336" lon="6.03695">
        <ele>1207.8</ele>
        <time>2022-06-18T05:01:37Z</time>
      </trkpt>
      <trkpt lat="45.19338" lon="6.03696">
        <ele>1208.1</ele>
        <time>2022-06-18T05:01:38Z</time>
      </trkpt>
      <trkpt lat="45.19343" lon="6.03701">
        <ele>1208.7</ele>
        <time>2022-06-18T05:01:40Z</time>
      </trkpt>
      <trkpt lat="45.19347" lon="6.03706">
        <ele>1209.3</ele>
        <time>2022-06-18T05:01:41Z</time>
      </trkpt>
      <trkpt lat="45.19353" lon="6.03713">
        <ele>1210.2</ele>
        <time>2022-06-18T05:01:43Z</time>
      </trkpt>
      <trkpt lat="45.19357" lon="6.03717">
        <ele>1210.8</ele>
        <time>2022-06-18T05:01:44Z</time>
      </trkpt>
      <trkpt lat="45.1936" lon="6.03721">
        <ele>1211.2</ele>
        <time>2022-06-18T05:01:45Z</time>
      </trkpt>
      <trkpt lat="45.19362" lon="6.03723">
        <ele>1211.5</ele>
        <time>2022-06-18T05:01:46Z</time>
      </trkpt>
      <trkpt lat="45.19366" lon="6.03726">
        <ele>1211.9</ele>
        <time>2022-06-18T05:01:48Z</time>
      </trkpt>
      <trkpt lat="45.1937" lon="6.03728">
        <ele>1212.4</ele>
        <time>2022-06-18T05:01:49Z</time>
      </trkpt>
      <trkpt lat="45.19373" lon="6.0373">
        <ele>1212.7</ele>
        <time>2022-06-18T05:01:50Z</time>
      </trkpt>
      <trkpt lat="45.19376" lon="6.03732">
        <ele>1213</ele>
        <time>2022-06-18T05:01:51Z</time>
      </trkpt>
      <trkpt lat="45.19379" lon="6.03733">
        <ele>1213.3</ele>
        <time>2022-06-18T05:01:52Z</time>
      </trkpt>
      <trkpt lat="45.19382" lon="6.03736">
        <ele>1213.7</ele>
        <time>2022-06-18T05:01:54Z</time>
      </trkpt>
      <trkpt lat="45.19387" lon="6.03738">
        <ele>1214.2</ele>
        <time>2022-06-18T05:01:55Z</time>
      </trkpt>
      <trkpt lat="45.19388" lon="6.03739">
        <ele>1214.4</ele>
        <time>2022-06-18T05:01:56Z</time>
      </trkpt>
      <trkpt lat="45.19391" lon="6.03741">
        <ele>1214.7</ele>
        <time>2022-06-18T05:01:57Z</time>
      </trkpt>
      <trkpt lat="45.19394" lon="6.03744">
        <ele>1215.1</ele>
        <time>2022-06-18T05:01:58Z</time>
      </trkpt>
      <trkpt lat="45.19397" lon="6.03746">
        <ele>1215.4</ele>
        <time>2022-06-18T05:01:59Z</time>
      </trkpt>
      <trkpt lat="45.194" lon="6.03747">
        <ele>1215.7</ele>
        <time>2022-06-18T05:02:00Z</time>
      </trkpt>
      <trkpt lat="45.19403" lon="6.03748">
        <ele>1216</ele>
        <time>2022-06-18T05:02:01Z</time>
      </trkpt>
      <trkpt lat="45.19406" lon="6.03749">
        <ele>1216.3</ele>
        <time>2022-06-18T05:02:02Z</time>
      </trkpt>
      <trkpt lat="45.19409" lon="6.0375">
        <ele>1216.7</ele>
        <time>2022-06-18T05:02:04Z</time>
      </trkpt>
      <trkpt lat="45.19412" lon="6.03751">
        <ele>1217</ele>
        <time>2022-06-18T05:02:05Z</time>
      </trkpt>
      <trkpt lat="45.19414" lon="6.03752">
        <ele>1217.2</ele>
        <time>2022-06-18T05:02:06Z</time>
      </trkpt>
      <trkpt lat="45.19417" lon="6.03753">
        <ele>1217.5</ele>
        <time>2022-06-18T05:02:08Z</time>
      </trkpt>
      <trkpt lat="45.1942" lon="6.03755">
        <ele>1217.9</ele>
        <time>2022-06-18T05:02:09Z</time>
      </trkpt>
      <trkpt lat="45.19422" lon="6.03756">
        <ele>1218</ele>
        <time>2022-06-18T05:02:10Z</time>
      </trkpt>
      <trkpt lat="45.19426" lon="6.03758">
        <ele>1218.4</ele>
        <time>2022-06-18T05:02:11Z</time>
      </trkpt>
      <trkpt lat="45.19428" lon="6.0376">
        <ele>1218.8</ele>
        <time>2022-06-18T05:02:12Z</time>
      </trkpt>
      <trkpt lat="45.19432" lon="6.03762">
        <ele>1219.1</ele>
        <time>2022-06-18T05:02:13Z</time>
      </trkpt>
      <trkpt lat="45.19435" lon="6.03763">
        <ele>1219.5</ele>
        <time>2022-06-18T05:02:14Z</time>
      </trkpt>
      <trkpt lat="45.19438" lon="6.03765">
        <ele>1219.8</ele>
        <time>2022-06-18T05:02:15Z</time>
      </trkpt>
      <trkpt lat="45.1944" lon="6.03767">
        <ele>1220.1</ele>
        <time>2022-06-18T05:02:16Z</time>
      </trkpt>
      <trkpt lat="45.19443" lon="6.03769">
        <ele>1220.5</ele>
        <time>2022-06-18T05:02:17Z</time>
      </trkpt>
      <trkpt lat="45.19447" lon="6.03771">
        <ele>1220.9</ele>
        <time>2022-06-18T05:02:18Z</time>
      </trkpt>
      <trkpt lat="45.1945" lon="6.03772">
        <ele>1221.2</ele>
        <time>2022-06-18T05:02:19Z</time>
      </trkpt>
      <trkpt lat="45.19454" lon="6.03775">
        <ele>1221.6</ele>
        <time>2022-06-18T05:02:21Z</time>
      </trkpt>
      <trkpt lat="45.19456" lon="6.03778">
        <ele>1222</ele>
        <time>2022-06-18T05:02:22Z</time>
      </trkpt>
      <trkpt lat="45.19459" lon="6.0378">
        <ele>1222.3</ele>
        <time>2022-06-18T05:02:23Z</time>
      </trkpt>
      <trkpt lat="45.19463" lon="6.03782">
        <ele>1222.8</ele>
        <time>2022-06-18T05:02:24Z</time>
      </trkpt>
      <trkpt lat="45.19465" lon="6.03782">
        <ele>1222.9</ele>
        <time>2022-06-18T05:02:25Z</time>
      </trkpt>
      <trkpt lat="45.19467" lon="6.03783">
        <ele>1223.2</ele>
        <time>2022-06-18T05:02:26Z</time>
      </trkpt>
      <trkpt lat="45.19471" lon="6.03785">
        <ele>1223.6</ele>
        <time>2022-06-18T05:02:28Z</time>
      </trkpt>
      <trkpt lat="45.19474" lon="6.03787">
        <ele>1224</ele>
        <time>2022-06-18T05:02:29Z</time>
      </trkpt>
      <trkpt lat="45.19478" lon="6.03788">
        <ele>1224.4</ele>
        <time>2022-06-18T05:02:30Z</time>
      </trkpt>
      <trkpt lat="45.1948" lon="6.03789">
        <ele>1224.7</ele>
        <time>2022-06-18T05:02:31Z</time>
      </trkpt>
      <trkpt lat="45.19484" lon="6.0379">
        <ele>1225.1</ele>
        <time>2022-06-18T05:02:33Z</time>
      </trkpt>
      <trkpt lat="45.19489" lon="6.0379">
        <ele>1225.6</ele>
        <time>2022-06-18T05:02:34Z</time>
      </trkpt>
      <trkpt lat="45.19492" lon="6.0379">
        <ele>1225.9</ele>
        <time>2022-06-18T05:02:35Z</time>
      </trkpt>
      <trkpt lat="45.19496" lon="6.03788">
        <ele>1226.4</ele>
        <time>2022-06-18T05:02:36Z</time>
      </trkpt>
      <trkpt lat="45.19499" lon="6.03789">
        <ele>1226.7</ele>
        <time>2022-06-18T05:02:37Z</time>
      </trkpt>
      <trkpt lat="45.19502" lon="6.0379">
        <ele>1227</ele>
        <time>2022-06-18T05:02:38Z</time>
      </trkpt>
      <trkpt lat="45.19505" lon="6.03791">
        <ele>1227.3</ele>
        <time>2022-06-18T05:02:39Z</time>
      </trkpt>
      <trkpt lat="45.19506" lon="6.03791">
        <ele>1227.5</ele>
        <time>2022-06-18T05:02:40Z</time>
      </trkpt>
      <trkpt lat="45.1951" lon="6.03792">
        <ele>1227.9</ele>
        <time>2022-06-18T05:02:42Z</time>
      </trkpt>
      <trkpt lat="45.19514" lon="6.03793">
        <ele>1228.2</ele>
        <time>2022-06-18T05:02:43Z</time>
      </trkpt>
      <trkpt lat="45.19517" lon="6.03794">
        <ele>1228.6</ele>
        <time>2022-06-18T05:02:44Z</time>
      </trkpt>
      <trkpt lat="45.1952" lon="6.03796">
        <ele>1228.9</ele>
        <time>2022-06-18T05:02:45Z</time>
      </trkpt>
      <trkpt lat="45.19524" lon="6.038">
        <ele>1229.3</ele>
        <time>2022-06-18T05:02:47Z</time>
      </trkpt>
      <trkpt lat="45.19527" lon="6.03801">
        <ele>1229.6</ele>
        <time>2022-06-18T05:02:48Z</time>
      </trkpt>
      <trkpt lat="45.19528" lon="6.03802">
        <ele>1229.7</ele>
        <time>2022-06-18T05:02:49Z</time>
      </trkpt>
      <trkpt lat="45.1953" lon="6.03803">
        <ele>1230</ele>
        <time>2022-06-18T05:02:50Z</time>
      </trkpt>
      <trkpt lat="45.19532" lon="6.03806">
        <ele>1230.3</ele>
        <time>2022-06-18T05:02:51Z</time>
      </trkpt>
      <trkpt lat="45.19535" lon="6.0381">
        <ele>1230.6</ele>
        <time>2022-06-18T05:02:53Z</time>
      </trkpt>
      <trkpt lat="45.19538" lon="6.03813">
        <ele>1231</ele>
        <time>2022-06-18T05:02:54Z</time>
      </trkpt>
      <trkpt lat="45.19541" lon="6.03816">
        <ele>1231.3</ele>
        <time>2022-06-18T05:02:55Z</time>
      </trkpt>
      <trkpt lat="45.19544" lon="6.03818">
        <ele>1231.6</ele>
        <time>2022-06-18T05:02:56Z</time>
      </trkpt>
      <trkpt lat="45.19545" lon="6.03819">
        <ele>1231.7</ele>
        <time>2022-06-18T05:02:57Z</time>
      </trkpt>
      <trkpt lat="45.19548" lon="6.03822">
        <ele>1232.1</ele>
        <time>2022-06-18T05:02:58Z</time>
      </trkpt>
      <trkpt lat="45.19549" lon="6.03823">
        <ele>1232.2</ele>
        <time>2022-06-18T05:02:59Z</time>
      </trkpt>
      <trkpt lat="45.19553" lon="6.03826">
        <ele>1232.6</ele>
        <time>2022-06-18T05:03:01Z</time>
      </trkpt>
      <trkpt lat="45.19556" lon="6.0383">
        <ele>1233</ele>
        <time>2022-06-18T05:03:02Z</time>
      </trkpt>
      <trkpt lat="45.19558" lon="6.03832">
        <ele>1233.3</ele>
        <time>2022-06-18T05:03:03Z</time>
      </trkpt>
      <trkpt lat="45.19562" lon="6.03834">
        <ele>1233.6</ele>
        <time>2022-06-18T05:03:04Z</time>
      </trkpt>
      <trkpt lat="45.19563" lon="6.03835">
        <ele>1233.8</ele>
        <time>2022-06-18T05:03:05Z</time>
      </trkpt>
      <trkpt lat="45.19566" lon="6.03838">
        <ele>1234.1</ele>
        <time>2022-06-18T05:03:06Z</time>
      </trkpt>
      <trkpt lat="45.19569" lon="6.0384">
        <ele>1234.4</ele>
        <time>2022-06-18T05:03:07Z</time>
      </trkpt>
      <trkpt lat="45.19573" lon="6.03843">
        <ele>1234.8</ele>
        <time>2022-06-18T05:03:08Z</time>
      </trkpt>
      <trkpt lat="45.19576" lon="6.03846">
        <ele>1235.1</ele>
        <time>2022-06-18T05:03:09Z</time>
      </trkpt>
      <trkpt lat="45.19579" lon="6.0385">
        <ele>1235.5</ele>
        <time>2022-06-18T05:03:11Z</time>
      </trkpt>
      <trkpt lat="45.19583" lon="6.03854">
        <ele>1235.9</ele>
        <time>2022-06-18T05:03:12Z</time>
      </trkpt>
      <trkpt lat="45.19585" lon="6.03857">
        <ele>1236.1</ele>
        <time>2022-06-18T05:03:13Z</time>
      </trkpt>
      <trkpt lat="45.19587" lon="6.03859">
        <ele>1236.3</ele>
        <time>2022-06-18T05:03:14Z</time>
      </trkpt>
      <trkpt lat="45.1959" lon="6.03862">
        <ele>1236.6</ele>
        <time>2022-06-18T05:03:15Z</time>
      </trkpt>
      <trkpt lat="45.19594" lon="6.03864">
        <ele>1236.9</ele>
        <time>2022-06-18T05:03:16Z</time>
      </trkpt>
      <trkpt lat="45.19597" lon="6.03866">
        <ele>1237.2</ele>
        <time>2022-06-18T05:03:17Z</time>
      </trkpt>
      <trkpt lat="45.19602" lon="6.03869">
        <ele>1237.6</ele>
        <time>2022-06-18T05:03:19Z</time>
      </trkpt>
      <trkpt lat="45.19606" lon="6.03872">
        <ele>1237.9</ele>
        <time>2022-06-18T05:03:20Z</time>
      </trkpt>
      <trkpt lat="45.1961" lon="6.03874">
        <ele>1238.2</ele>
        <time>2022-06-18T05:03:21Z</time>
      </trkpt>
      <trkpt lat="45.19615" lon="6.03876">
        <ele>1238.6</ele>
        <time>2022-06-18T05:03:23Z</time>
      </trkpt>
      <trkpt lat="45.1962" lon="6.03877">
        <ele>1238.9</ele>
        <time>2022-06-18T05:03:24Z</time>
      </trkpt>
      <trkpt lat="45.19624" lon="6.03877">
        <ele>1239.2</ele>
        <time>2022-06-18T05:03:25Z</time>
      </trkpt>
      <trkpt lat="45.1963" lon="6.03878">
        <ele>1239.6</ele>
        <time>2022-06-18T05:03:27Z</time>
      </trkpt>
      <trkpt lat="45.19635" lon="6.03876">
        <ele>1240</ele>
        <time>2022-06-18T05:03:28Z</time>
      </trkpt>
      <trkpt lat="45.19639" lon="6.03876">
        <ele>1240.3</ele>
        <time>2022-06-18T05:03:30Z</time>
      </trkpt>
      <trkpt lat="45.19642" lon="6.03876">
        <ele>1240.6</ele>
        <time>2022-06-18T05:03:31Z</time>
      </trkpt>
      <trkpt lat="45.19646" lon="6.03877">
        <ele>1240.9</ele>
        <time>2022-06-18T05:03:32Z</time>
      </trkpt>
      <trkpt lat="45.19649" lon="6.03878">
        <ele>1241.1</ele>
        <time>2022-06-18T05:03:33Z</time>
      </trkpt>
      <trkpt lat="45.19652" lon="6.03878">
        <ele>1241.4</ele>
        <time>2022-06-18T05:03:34Z</time>
      </trkpt>
      <trkpt lat="45.19655" lon="6.03879">
        <ele>1241.6</ele>
        <time>2022-06-18T05:03:35Z</time>
      </trkpt>
      <trkpt lat="45.19659" lon="6.0388">
        <ele>1241.9</ele>
        <time>2022-06-18T05:03:36Z</time>
      </trkpt>
      <trkpt lat="45.19662" lon="6.03881">
        <ele>1242.2</ele>
        <time>2022-06-18T05:03:38Z</time>
      </trkpt>
      <trkpt lat="45.19666" lon="6.03882">
        <ele>1242.6</ele>
        <time>2022-06-18T05:03:39Z</time>
      </trkpt>
      <trkpt lat="45.1967" lon="6.03883">
        <ele>1242.9</ele>
        <time>2022-06-18T05:03:40Z</time>
      </trkpt>
      <trkpt lat="45.19673" lon="6.03884">
        <ele>1243.2</ele>
        <time>2022-06-18T05:03:41Z</time>
      </trkpt>
      <trkpt lat="45.19677" lon="6.03885">
        <ele>1243.6</ele>
        <time>2022-06-18T05:03:43Z</time>
      </trkpt>
      <trkpt lat="45.19682" lon="6.03885">
        <ele>1244</ele>
        <time>2022-06-18T05:03:44Z</time>
      </trkpt>
      <trkpt lat="45.19684" lon="6.03885">
        <ele>1244.3</ele>
        <time>2022-06-18T05:03:45Z</time>
      </trkpt>
      <trkpt lat="45.19687" lon="6.03886">
        <ele>1244.6</ele>
        <time>2022-06-18T05:03:46Z</time>
      </trkpt>
      <trkpt lat="45.1969" lon="6.03886">
        <ele>1244.9</ele>
        <time>2022-06-18T05:03:47Z</time>
      </trkpt>
      <trkpt lat="45.19693" lon="6.03887">
        <ele>1245.2</ele>
        <time>2022-06-18T05:03:48Z</time>
      </trkpt>
      <trkpt lat="45.19698" lon="6.03889">
        <ele>1245.7</ele>
        <time>2022-06-18T05:03:50Z</time>
      </trkpt>
      <trkpt lat="45.19702" lon="6.0389">
        <ele>1246.2</ele>
        <time>2022-06-18T05:03:51Z</time>
      </trkpt>
      <trkpt lat="45.19705" lon="6.03891">
        <ele>1246.5</ele>
        <time>2022-06-18T05:03:52Z</time>
      </trkpt>
      <trkpt lat="45.19708" lon="6.03892">
        <ele>1246.8</ele>
        <time>2022-06-18T05:03:53Z</time>
      </trkpt>
      <trkpt lat="45.19711" lon="6.03892">
        <ele>1247.1</ele>
        <time>2022-06-18T05:03:54Z</time>
      </trkpt>
      <trkpt lat="45.19714" lon="6.03893">
        <ele>1247.4</ele>
        <time>2022-06-18T05:03:55Z</time>
      </trkpt>
      <trkpt lat="45.19717" lon="6.03893">
        <ele>1247.7</ele>
        <time>2022-06-18T05:03:56Z</time>
      </trkpt>
      <trkpt lat="45.19722" lon="6.03893">
        <ele>1248.2</ele>
        <time>2022-06-18T05:03:58Z</time>
      </trkpt>
      <trkpt lat="45.19726" lon="6.03893">
        <ele>1248.7</ele>
        <time>2022-06-18T05:03:59Z</time>
      </trkpt>
      <trkpt lat="45.19731" lon="6.03893">
        <ele>1249.1</ele>
        <time>2022-06-18T05:04:00Z</time>
      </trkpt>
      <trkpt lat="45.19735" lon="6.03893">
        <ele>1249.5</ele>
        <time>2022-06-18T05:04:02Z</time>
      </trkpt>
      <trkpt lat="45.19739" lon="6.03894">
        <ele>1249.9</ele>
        <time>2022-06-18T05:04:03Z</time>
      </trkpt>
      <trkpt lat="45.19741" lon="6.03895">
        <ele>1250.2</ele>
        <time>2022-06-18T05:04:04Z</time>
      </trkpt>
      <trkpt lat="45.19744" lon="6.03896">
        <ele>1250.4</ele>
        <time>2022-06-18T05:04:05Z</time>
      </trkpt>
      <trkpt lat="45.19748" lon="6.03899">
        <ele>1250.8</ele>
        <time>2022-06-18T05:04:07Z</time>
      </trkpt>
      <trkpt lat="45.19753" lon="6.03901">
        <ele>1251.3</ele>
        <time>2022-06-18T05:04:08Z</time>
      </trkpt>
      <trkpt lat="45.19754" lon="6.03901">
        <ele>1251.4</ele>
        <time>2022-06-18T05:04:09Z</time>
      </trkpt>
      <trkpt lat="45.1976" lon="6.03905">
        <ele>1252</ele>
        <time>2022-06-18T05:04:11Z</time>
      </trkpt>
      <trkpt lat="45.19764" lon="6.03906">
        <ele>1252.4</ele>
        <time>2022-06-18T05:04:12Z</time>
      </trkpt>
      <trkpt lat="45.19768" lon="6.03907">
        <ele>1252.7</ele>
        <time>2022-06-18T05:04:13Z</time>
      </trkpt>
      <trkpt lat="45.19772" lon="6.03908">
        <ele>1253.1</ele>
        <time>2022-06-18T05:04:14Z</time>
      </trkpt>
      <trkpt lat="45.19776" lon="6.03909">
        <ele>1253.5</ele>
        <time>2022-06-18T05:04:15Z</time>
      </trkpt>
      <trkpt lat="45.1978" lon="6.0391">
        <ele>1253.8</ele>
        <time>2022-06-18T05:04:16Z</time>
      </trkpt>
      <trkpt lat="45.19785" lon="6.0391">
        <ele>1254.3</ele>
        <time>2022-06-18T05:04:18Z</time>
      </trkpt>
      <trkpt lat="45.1979" lon="6.03911">
        <ele>1254.7</ele>
        <time>2022-06-18T05:04:19Z</time>
      </trkpt>
      <trkpt lat="45.19793" lon="6.03912">
        <ele>1255</ele>
        <time>2022-06-18T05:04:20Z</time>
      </trkpt>
      <trkpt lat="45.19796" lon="6.03912">
        <ele>1255.3</ele>
        <time>2022-06-18T05:04:21Z</time>
      </trkpt>
      <trkpt lat="45.19801" lon="6.03913">
        <ele>1255.7</ele>
        <time>2022-06-18T05:04:23Z</time>
      </trkpt>
      <trkpt lat="45.19804" lon="6.03914">
        <ele>1256</ele>
        <time>2022-06-18T05:04:24Z</time>
      </trkpt>
      <trkpt lat="45.19808" lon="6.03915">
        <ele>1256.3</ele>
        <time>2022-06-18T05:04:25Z</time>
      </trkpt>
      <trkpt lat="45.19811" lon="6.03916">
        <ele>1256.6</ele>
        <time>2022-06-18T05:04:26Z</time>
      </trkpt>
      <trkpt lat="45.19815" lon="6.03917">
        <ele>1256.8</ele>
        <time>2022-06-18T05:04:27Z</time>
      </trkpt>
      <trkpt lat="45.19819" lon="6.03918">
        <ele>1257.2</ele>
        <time>2022-06-18T05:04:29Z</time>
      </trkpt>
      <trkpt lat="45.19823" lon="6.0392">
        <ele>1257.5</ele>
        <time>2022-06-18T05:04:30Z</time>
      </trkpt>
      <trkpt lat="45.19828" lon="6.03922">
        <ele>1257.9</ele>
        <time>2022-06-18T05:04:31Z</time>
      </trkpt>
      <trkpt lat="45.19833" lon="6.03924">
        <ele>1258.2</ele>
        <time>2022-06-18T05:04:32Z</time>
      </trkpt>
      <trkpt lat="45.19837" lon="6.03926">
        <ele>1258.5</ele>
        <time>2022-06-18T05:04:34Z</time>
      </trkpt>
      <trkpt lat="45.19842" lon="6.03927">
        <ele>1258.8</ele>
        <time>2022-06-18T05:04:35Z</time>
      </trkpt>
      <trkpt lat="45.19844" lon="6.03927">
        <ele>1259</ele>
        <time>2022-06-18T05:04:36Z</time>
      </trkpt>
      <trkpt lat="45.19848" lon="6.03928">
        <ele>1259.2</ele>
        <time>2022-06-18T05:04:38Z</time>
      </trkpt>
      <trkpt lat="45.19852" lon="6.0393">
        <ele>1259.4</ele>
        <time>2022-06-18T05:04:39Z</time>
      </trkpt>
      <trkpt lat="45.19856" lon="6.03932">
        <ele>1259.7</ele>
        <time>2022-06-18T05:04:40Z</time>
      </trkpt>
      <trkpt lat="45.1986" lon="6.03935">
        <ele>1259.9</ele>
        <time>2022-06-18T05:04:41Z</time>
      </trkpt>
      <trkpt lat="45.19864" lon="6.03937">
        <ele>1260.3</ele>
        <time>2022-06-18T05:04:42Z</time>
      </trkpt>
      <trkpt lat="45.19869" lon="6.03938">
        <ele>1260.9</ele>
        <time>2022-06-18T05:04:43Z</time>
      </trkpt>
      <trkpt lat="45.19872" lon="6.03939">
        <ele>1261.3</ele>
        <time>2022-06-18T05:04:44Z</time>
      </trkpt>
      <trkpt lat="45.19877" lon="6.0394">
        <ele>1261.8</ele>
        <time>2022-06-18T05:04:45Z</time>
      </trkpt>
      <trkpt lat="45.19885" lon="6.03938">
        <ele>1262.6</ele>
        <time>2022-06-18T05:04:47Z</time>
      </trkpt>
      <trkpt lat="45.19888" lon="6.03937">
        <ele>1263</ele>
        <time>2022-06-18T05:04:48Z</time>
      </trkpt>
      <trkpt lat="45.19893" lon="6.03935">
        <ele>1263.5</ele>
        <time>2022-06-18T05:04:50Z</time>
      </trkpt>
      <trkpt lat="45.19899" lon="6.03932">
        <ele>1264.1</ele>
        <time>2022-06-18T05:04:51Z</time>
      </trkpt>
      <trkpt lat="45.19902" lon="6.0393">
        <ele>1264.5</ele>
        <time>2022-06-18T05:04:52Z</time>
      </trkpt>
      <trkpt lat="45.19907" lon="6.03927">
        <ele>1264.9</ele>
        <time>2022-06-18T05:04:54Z</time>
      </trkpt>
      <trkpt lat="45.19911" lon="6.03925">
        <ele>1264.9</ele>
        <time>2022-06-18T05:04:55Z</time>
      </trkpt>
      <trkpt lat="45.19915" lon="6.03924">
        <ele>1265</ele>
        <time>2022-06-18T05:04:56Z</time>
      </trkpt>
      <trkpt lat="45.19919" lon="6.03923">
        <ele>1265.3</ele>
        <time>2022-06-18T05:04:57Z</time>
      </trkpt>
      <trkpt lat="45.19923" lon="6.03924">
        <ele>1265.5</ele>
        <time>2022-06-18T05:04:58Z</time>
      </trkpt>
      <trkpt lat="45.19928" lon="6.03924">
        <ele>1265.8</ele>
        <time>2022-06-18T05:04:59Z</time>
      </trkpt>
      <trkpt lat="45.19932" lon="6.03924">
        <ele>1266</ele>
        <time>2022-06-18T05:05:00Z</time>
      </trkpt>
      <trkpt lat="45.19939" lon="6.03922">
        <ele>1266.4</ele>
        <time>2022-06-18T05:05:02Z</time>
      </trkpt>
      <trkpt lat="45.19944" lon="6.0392">
        <ele>1266.6</ele>
        <time>2022-06-18T05:05:03Z</time>
      </trkpt>
      <trkpt lat="45.19949" lon="6.03916">
        <ele>1266.9</ele>
        <time>2022-06-18T05:05:04Z</time>
      </trkpt>
      <trkpt lat="45.19953" lon="6.03914">
        <ele>1267.1</ele>
        <time>2022-06-18T05:05:05Z</time>
      </trkpt>
      <trkpt lat="45.19957" lon="6.03912">
        <ele>1267.3</ele>
        <time>2022-06-18T05:05:06Z</time>
      </trkpt>
      <trkpt lat="45.19963" lon="6.0391">
        <ele>1267.6</ele>
        <time>2022-06-18T05:05:07Z</time>
      </trkpt>
      <trkpt lat="45.19968" lon="6.0391">
        <ele>1267.8</ele>
        <time>2022-06-18T05:05:08Z</time>
      </trkpt>
      <trkpt lat="45.19974" lon="6.0391">
        <ele>1268.1</ele>
        <time>2022-06-18T05:05:09Z</time>
      </trkpt>
      <trkpt lat="45.19979" lon="6.03911">
        <ele>1268.3</ele>
        <time>2022-06-18T05:05:10Z</time>
      </trkpt>
      <trkpt lat="45.19984" lon="6.03912">
        <ele>1268.6</ele>
        <time>2022-06-18T05:05:11Z</time>
      </trkpt>
      <trkpt lat="45.19989" lon="6.03913">
        <ele>1268.8</ele>
        <time>2022-06-18T05:05:12Z</time>
      </trkpt>
      <trkpt lat="45.19994" lon="6.03913">
        <ele>1269.1</ele>
        <time>2022-06-18T05:05:13Z</time>
      </trkpt>
      <trkpt lat="45.19999" lon="6.03914">
        <ele>1269.3</ele>
        <time>2022-06-18T05:05:14Z</time>
      </trkpt>
      <trkpt lat="45.20004" lon="6.03916">
        <ele>1269.6</ele>
        <time>2022-06-18T05:05:15Z</time>
      </trkpt>
      <trkpt lat="45.20009" lon="6.03917">
        <ele>1269.8</ele>
        <time>2022-06-18T05:05:16Z</time>
      </trkpt>
      <trkpt lat="45.20014" lon="6.03919">
        <ele>1270.1</ele>
        <time>2022-06-18T05:05:17Z</time>
      </trkpt>
      <trkpt lat="45.20019" lon="6.03921">
        <ele>1270.3</ele>
        <time>2022-06-18T05:05:18Z</time>
      </trkpt>
      <trkpt lat="45.20024" lon="6.03922">
        <ele>1270.6</ele>
        <time>2022-06-18T05:05:19Z</time>
      </trkpt>
      <trkpt lat="45.20029" lon="6.03924">
        <ele>1270.8</ele>
        <time>2022-06-18T05:05:20Z</time>
      </trkpt>
      <trkpt lat="45.20034" lon="6.03926">
        <ele>1271</ele>
        <time>2022-06-18T05:05:21Z</time>
      </trkpt>
      <trkpt lat="45.2004" lon="6.03928">
        <ele>1271.3</ele>
        <time>2022-06-18T05:05:22Z</time>
      </trkpt>
      <trkpt lat="45.20045" lon="6.03931">
        <ele>1271.6</ele>
        <time>2022-06-18T05:05:23Z</time>
      </trkpt>
      <trkpt lat="45.2005" lon="6.03934">
        <ele>1271.8</ele>
        <time>2022-06-18T05:05:24Z</time>
      </trkpt>
      <trkpt lat="45.20055" lon="6.03937">
        <ele>1272.1</ele>
        <time>2022-06-18T05:05:25Z</time>
      </trkpt>
      <trkpt lat="45.2006" lon="6.03939">
        <ele>1272.3</ele>
        <time>2022-06-18T05:05:26Z</time>
      </trkpt>
      <trkpt lat="45.20066" lon="6.03942">
        <ele>1272.6</ele>
        <time>2022-06-18T05:05:27Z</time>
      </trkpt>
      <trkpt lat="45.20071" lon="6.03944">
        <ele>1272.8</ele>
        <time>2022-06-18T05:05:28Z</time>
      </trkpt>
      <trkpt lat="45.20077" lon="6.03945">
        <ele>1273.1</ele>
        <time>2022-06-18T05:05:29Z</time>
      </trkpt>
      <trkpt lat="45.20083" lon="6.03947">
        <ele>1273.4</ele>
        <time>2022-06-18T05:05:30Z</time>
      </trkpt>
      <trkpt lat="45.20089" lon="6.03949">
        <ele>1273.7</ele>
        <time>2022-06-18T05:05:31Z</time>
      </trkpt>
      <trkpt lat="45.20094" lon="6.0395">
        <ele>1274</ele>
        <time>2022-06-18T05:05:32Z</time>
      </trkpt>
      <trkpt lat="45.201" lon="6.03951">
        <ele>1274.3</ele>
        <time>2022-06-18T05:05:33Z</time>
      </trkpt>
      <trkpt lat="45.20106" lon="6.03951">
        <ele>1274.5</ele>
        <time>2022-06-18T05:05:34Z</time>
      </trkpt>
      <trkpt lat="45.20112" lon="6.03951">
        <ele>1274.8</ele>
        <time>2022-06-18T05:05:35Z</time>
      </trkpt>
      <trkpt lat="45.20117" lon="6.0395">
        <ele>1275.1</ele>
        <time>2022-06-18T05:05:36Z</time>
      </trkpt>
      <trkpt lat="45.20123" lon="6.0395">
        <ele>1275.4</ele>
        <time>2022-06-18T05:05:37Z</time>
      </trkpt>
      <trkpt lat="45.20129" lon="6.03951">
        <ele>1275.7</ele>
        <time>2022-06-18T05:05:38Z</time>
      </trkpt>
      <trkpt lat="45.20135" lon="6.03951">
        <ele>1276</ele>
        <time>2022-06-18T05:05:39Z</time>
      </trkpt>
      <trkpt lat="45.2014" lon="6.03951">
        <ele>1276.3</ele>
        <time>2022-06-18T05:05:40Z</time>
      </trkpt>
      <trkpt lat="45.20146" lon="6.03952">
        <ele>1276.6</ele>
        <time>2022-06-18T05:05:41Z</time>
      </trkpt>
      <trkpt lat="45.20152" lon="6.03953">
        <ele>1277</ele>
        <time>2022-06-18T05:05:42Z</time>
      </trkpt>
      <trkpt lat="45.20158" lon="6.03954">
        <ele>1277.3</ele>
        <time>2022-06-18T05:05:43Z</time>
      </trkpt>
      <trkpt lat="45.20163" lon="6.03956">
        <ele>1276.4</ele>
        <time>2022-06-18T05:05:44Z</time>
      </trkpt>
      <trkpt lat="45.20168" lon="6.0396">
        <ele>1275.6</ele>
        <time>2022-06-18T05:05:45Z</time>
      </trkpt>
      <trkpt lat="45.20173" lon="6.03964">
        <ele>1274.9</ele>
        <time>2022-06-18T05:05:46Z</time>
      </trkpt>
      <trkpt lat="45.20178" lon="6.03969">
        <ele>1274.1</ele>
        <time>2022-06-18T05:05:47Z</time>
      </trkpt>
      <trkpt lat="45.20182" lon="6.03974">
        <ele>1273.3</ele>
        <time>2022-06-18T05:05:48Z</time>
      </trkpt>
      <trkpt lat="45.20186" lon="6.0398">
        <ele>1272.6</ele>
        <time>2022-06-18T05:05:49Z</time>
      </trkpt>
      <trkpt lat="45.2019" lon="6.03985">
        <ele>1271.9</ele>
        <time>2022-06-18T05:05:50Z</time>
      </trkpt>
      <trkpt lat="45.20194" lon="6.0399">
        <ele>1271.2</ele>
        <time>2022-06-18T05:05:51Z</time>
      </trkpt>
      <trkpt lat="45.20198" lon="6.03996">
        <ele>1270.5</ele>
        <time>2022-06-18T05:05:52Z</time>
      </trkpt>
      <trkpt lat="45.20202" lon="6.04001">
        <ele>1269.9</ele>
        <time>2022-06-18T05:05:53Z</time>
      </trkpt>
      <trkpt lat="45.20206" lon="6.04007">
        <ele>1269.2</ele>
        <time>2022-06-18T05:05:54Z</time>
      </trkpt>
      <trkpt lat="45.2021" lon="6.04012">
        <ele>1268.5</ele>
        <time>2022-06-18T05:05:55Z</time>
      </trkpt>
      <trkpt lat="45.20215" lon="6.04016">
        <ele>1267.8</ele>
        <time>2022-06-18T05:05:56Z</time>
      </trkpt>
      <trkpt lat="45.2022" lon="6.0402">
        <ele>1267.1</ele>
        <time>2022-06-18T05:05:57Z</time>
      </trkpt>
      <trkpt lat="45.20225" lon="6.04024">
        <ele>1266.4</ele>
        <time>2022-06-18T05:05:58Z</time>
      </trkpt>
      <trkpt lat="45.2023" lon="6.04027">
        <ele>1265.8</ele>
        <time>2022-06-18T05:05:59Z</time>
      </trkpt>
      <trkpt lat="45.20235" lon="6.0403">
        <ele>1265.1</ele>
        <time>2022-06-18T05:06:00Z</time>
      </trkpt>
      <trkpt lat="45.2024" lon="6.04033">
        <ele>1264.4</ele>
        <time>2022-06-18T05:06:01Z</time>
      </trkpt>
      <trkpt lat="45.20246" lon="6.04035">
        <ele>1264.4</ele>
        <time>2022-06-18T05:06:02Z</time>
      </trkpt>
      <trkpt lat="45.20251" lon="6.04036">
        <ele>1265.2</ele>
        <time>2022-06-18T05:06:03Z</time>
      </trkpt>
      <trkpt lat="45.20257" lon="6.04035">
        <ele>1266</ele>
        <time>2022-06-18T05:06:04Z</time>
      </trkpt>
      <trkpt lat="45.20262" lon="6.04033">
        <ele>1266.8</ele>
        <time>2022-06-18T05:06:05Z</time>
      </trkpt>
      <trkpt lat="45.20267" lon="6.04031">
        <ele>1267.6</ele>
        <time>2022-06-18T05:06:06Z</time>
      </trkpt>
      <trkpt lat="45.20271" lon="6.04029">
        <ele>1268.3</ele>
        <time>2022-06-18T05:06:07Z</time>
      </trkpt>
      <trkpt lat="45.20276" lon="6.04027">
        <ele>1268.9</ele>
        <time>2022-06-18T05:06:08Z</time>
      </trkpt>
      <trkpt lat="45.2028" lon="6.04025">
        <ele>1269.6</ele>
        <time>2022-06-18T05:06:09Z</time>
      </trkpt>
      <trkpt lat="45.20283" lon="6.04024">
        <ele>1270.1</ele>
        <time>2022-06-18T05:06:10Z</time>
      </trkpt>
      <trkpt lat="45.20288" lon="6.04023">
        <ele>1270.9</ele>
        <time>2022-06-18T05:06:11Z</time>
      </trkpt>
      <trkpt lat="45.20291" lon="6.04023">
        <ele>1271.4</ele>
        <time>2022-06-18T05:06:12Z</time>
      </trkpt>
      <trkpt lat="45.20297" lon="6.04023">
        <ele>1272.3</ele>
        <time>2022-06-18T05:06:13Z</time>
      </trkpt>
      <trkpt lat="45.20302" lon="6.04023">
        <ele>1273.1</ele>
        <time>2022-06-18T05:06:14Z</time>
      </trkpt>
      <trkpt lat="45.20306" lon="6.04025">
        <ele>1273.8</ele>
        <time>2022-06-18T05:06:15Z</time>
      </trkpt>
      <trkpt lat="45.2031" lon="6.04026">
        <ele>1274.5</ele>
        <time>2022-06-18T05:06:16Z</time>
      </trkpt>
      <trkpt lat="45.20313" lon="6.04025">
        <ele>1274.9</ele>
        <time>2022-06-18T05:06:17Z</time>
      </trkpt>
      <trkpt lat="45.20315" lon="6.04027">
        <ele>1275.4</ele>
        <time>2022-06-18T05:06:18Z</time>
      </trkpt>
      <trkpt lat="45.2032" lon="6.04034">
        <ele>1276.2</ele>
        <time>2022-06-18T05:06:19Z</time>
      </trkpt>
      <trkpt lat="45.20326" lon="6.0404">
        <ele>1276.6</ele>
        <time>2022-06-18T05:06:21Z</time>
      </trkpt>
      <trkpt lat="45.2033" lon="6.04044">
        <ele>1276.8</ele>
        <time>2022-06-18T05:06:22Z</time>
      </trkpt>
      <trkpt lat="45.20333" lon="6.04048">
        <ele>1277.1</ele>
        <time>2022-06-18T05:06:23Z</time>
      </trkpt>
      <trkpt lat="45.20336" lon="6.04052">
        <ele>1277.3</ele>
        <time>2022-06-18T05:06:24Z</time>
      </trkpt>
      <trkpt lat="45.20339" lon="6.04056">
        <ele>1277.5</ele>
        <time>2022-06-18T05:06:25Z</time>
      </trkpt>
      <trkpt lat="45.20342" lon="6.04061">
        <ele>1277.7</ele>
        <time>2022-06-18T05:06:26Z</time>
      </trkpt>
      <trkpt lat="45.20346" lon="6.04068">
        <ele>1278</ele>
        <time>2022-06-18T05:06:27Z</time>
      </trkpt>
      <trkpt lat="45.20349" lon="6.04073">
        <ele>1278.2</ele>
        <time>2022-06-18T05:06:28Z</time>
      </trkpt>
      <trkpt lat="45.20351" lon="6.04076">
        <ele>1278.4</ele>
        <time>2022-06-18T05:06:29Z</time>
      </trkpt>
      <trkpt lat="45.20355" lon="6.0408">
        <ele>1278.6</ele>
        <time>2022-06-18T05:06:30Z</time>
      </trkpt>
      <trkpt lat="45.2036" lon="6.04083">
        <ele>1278.8</ele>
        <time>2022-06-18T05:06:31Z</time>
      </trkpt>
      <trkpt lat="45.20364" lon="6.04087">
        <ele>1279</ele>
        <time>2022-06-18T05:06:32Z</time>
      </trkpt>
      <trkpt lat="45.20368" lon="6.0409">
        <ele>1279.2</ele>
        <time>2022-06-18T05:06:33Z</time>
      </trkpt>
      <trkpt lat="45.20372" lon="6.04094">
        <ele>1279.3</ele>
        <time>2022-06-18T05:06:34Z</time>
      </trkpt>
      <trkpt lat="45.20377" lon="6.04097">
        <ele>1279.5</ele>
        <time>2022-06-18T05:06:35Z</time>
      </trkpt>
      <trkpt lat="45.20381" lon="6.04101">
        <ele>1279.6</ele>
        <time>2022-06-18T05:06:36Z</time>
      </trkpt>
      <trkpt lat="45.20385" lon="6.04106">
        <ele>1279.7</ele>
        <time>2022-06-18T05:06:37Z</time>
      </trkpt>
      <trkpt lat="45.20389" lon="6.0411">
        <ele>1279.8</ele>
        <time>2022-06-18T05:06:38Z</time>
      </trkpt>
      <trkpt lat="45.20393" lon="6.04114">
        <ele>1279.8</ele>
        <time>2022-06-18T05:06:39Z</time>
      </trkpt>
      <trkpt lat="45.20397" lon="6.04119">
        <ele>1279.9</ele>
        <time>2022-06-18T05:06:40Z</time>
      </trkpt>
      <trkpt lat="45.20401" lon="6.04122">
        <ele>1279.9</ele>
        <time>2022-06-18T05:06:41Z</time>
      </trkpt>
      <trkpt lat="45.20406" lon="6.04126">
        <ele>1279.9</ele>
        <time>2022-06-18T05:06:42Z</time>
      </trkpt>
      <trkpt lat="45.2041" lon="6.0413">
        <ele>1279.9</ele>
        <time>2022-06-18T05:06:43Z</time>
      </trkpt>
      <trkpt lat="45.20415" lon="6.04134">
        <ele>1279.8</ele>
        <time>2022-06-18T05:06:44Z</time>
      </trkpt>
      <trkpt lat="45.2042" lon="6.04138">
        <ele>1279.8</ele>
        <time>2022-06-18T05:06:45Z</time>
      </trkpt>
      <trkpt lat="45.20424" lon="6.04143">
        <ele>1279.7</ele>
        <time>2022-06-18T05:06:46Z</time>
      </trkpt>
      <trkpt lat="45.20429" lon="6.04148">
        <ele>1279.7</ele>
        <time>2022-06-18T05:06:47Z</time>
      </trkpt>
      <trkpt lat="45.20434" lon="6.04154">
        <ele>1279.6</ele>
        <time>2022-06-18T05:06:48Z</time>
      </trkpt>
      <trkpt lat="45.20438" lon="6.04159">
        <ele>1279.5</ele>
        <time>2022-06-18T05:06:49Z</time>
      </trkpt>
      <trkpt lat="45.20443" lon="6.04164">
        <ele>1279.4</ele>
        <time>2022-06-18T05:06:50Z</time>
      </trkpt>
      <trkpt lat="45.20447" lon="6.04169">
        <ele>1279.3</ele>
        <time>2022-06-18T05:06:51Z</time>
      </trkpt>
      <trkpt lat="45.20451" lon="6.04175">
        <ele>1279.2</ele>
        <time>2022-06-18T05:06:52Z</time>
      </trkpt>
      <trkpt lat="45.20456" lon="6.04181">
        <ele>1279.1</ele>
        <time>2022-06-18T05:06:53Z</time>
      </trkpt>
      <trkpt lat="45.2046" lon="6.04188">
        <ele>1279</ele>
        <time>2022-06-18T05:06:54Z</time>
      </trkpt>
      <trkpt lat="45.20464" lon="6.04196">
        <ele>1278.9</ele>
        <time>2022-06-18T05:06:55Z</time>
      </trkpt>
      <trkpt lat="45.20468" lon="6.04204">
        <ele>1278.9</ele>
        <time>2022-06-18T05:06:56Z</time>
      </trkpt>
      <trkpt lat="45.2047" lon="6.04212">
        <ele>1278.8</ele>
        <time>2022-06-18T05:06:57Z</time>
      </trkpt>
      <trkpt lat="45.20473" lon="6.0422">
        <ele>1278.8</ele>
        <time>2022-06-18T05:06:58Z</time>
      </trkpt>
      <trkpt lat="45.20475" lon="6.04228">
        <ele>1278.7</ele>
        <time>2022-06-18T05:06:59Z</time>
      </trkpt>
      <trkpt lat="45.20478" lon="6.04235">
        <ele>1278.7</ele>
        <time>2022-06-18T05:07:00Z</time>
      </trkpt>
      <trkpt lat="45.2048" lon="6.04243">
        <ele>1278.6</ele>
        <time>2022-06-18T05:07:01Z</time>
      </trkpt>
      <trkpt lat="45.20482" lon="6.0425">
        <ele>1278.6</ele>
        <time>2022-06-18T05:07:02Z</time>
      </trkpt>
      <trkpt lat="45.20484" lon="6.04258">
        <ele>1278.6</ele>
        <time>2022-06-18T05:07:03Z</time>
      </trkpt>
      <trkpt lat="45.20487" lon="6.04265">
        <ele>1278.5</ele>
        <time>2022-06-18T05:07:04Z</time>
      </trkpt>
      <trkpt lat="45.20489" lon="6.04273">
        <ele>1278.5</ele>
        <time>2022-06-18T05:07:05Z</time>
      </trkpt>
      <trkpt lat="45.20492" lon="6.0428">
        <ele>1278.5</ele>
        <time>2022-06-18T05:07:06Z</time>
      </trkpt>
      <trkpt lat="45.20495" lon="6.04288">
        <ele>1278.5</ele>
        <time>2022-06-18T05:07:07Z</time>
      </trkpt>
      <trkpt lat="45.20498" lon="6.04294">
        <ele>1278.5</ele>
        <time>2022-06-18T05:07:08Z</time>
      </trkpt>
      <trkpt lat="45.20501" lon="6.04301">
        <ele>1278.6</ele>
        <time>2022-06-18T05:07:09Z</time>
      </trkpt>
      <trkpt lat="45.20503" lon="6.04308">
        <ele>1278.6</ele>
        <time>2022-06-18T05:07:10Z</time>
      </trkpt>
      <trkpt lat="45.20507" lon="6.04315">
        <ele>1278.6</ele>
        <time>2022-06-18T05:07:11Z</time>
      </trkpt>
      <trkpt lat="45.2051" lon="6.04322">
        <ele>1278.6</ele>
        <time>2022-06-18T05:07:12Z</time>
      </trkpt>
      <trkpt lat="45.20515" lon="6.04328">
        <ele>1278.6</ele>
        <time>2022-06-18T05:07:13Z</time>
      </trkpt>
      <trkpt lat="45.20519" lon="6.04333">
        <ele>1278.7</ele>
        <time>2022-06-18T05:07:14Z</time>
      </trkpt>
      <trkpt lat="45.20524" lon="6.04337">
        <ele>1278.7</ele>
        <time>2022-06-18T05:07:15Z</time>
      </trkpt>
      <trkpt lat="45.20529" lon="6.04341">
        <ele>1278.8</ele>
        <time>2022-06-18T05:07:16Z</time>
      </trkpt>
      <trkpt lat="45.20534" lon="6.04345">
        <ele>1278.9</ele>
        <time>2022-06-18T05:07:17Z</time>
      </trkpt>
      <trkpt lat="45.2054" lon="6.04348">
        <ele>1278.9</ele>
        <time>2022-06-18T05:07:18Z</time>
      </trkpt>
      <trkpt lat="45.20545" lon="6.04351">
        <ele>1279</ele>
        <time>2022-06-18T05:07:19Z</time>
      </trkpt>
      <trkpt lat="45.2055" lon="6.04354">
        <ele>1279.1</ele>
        <time>2022-06-18T05:07:20Z</time>
      </trkpt>
      <trkpt lat="45.20556" lon="6.04356">
        <ele>1279.1</ele>
        <time>2022-06-18T05:07:21Z</time>
      </trkpt>
      <trkpt lat="45.20562" lon="6.04359">
        <ele>1279.1</ele>
        <time>2022-06-18T05:07:22Z</time>
      </trkpt>
      <trkpt lat="45.20568" lon="6.04361">
        <ele>1279.2</ele>
        <time>2022-06-18T05:07:23Z</time>
      </trkpt>
      <trkpt lat="45.20574" lon="6.04364">
        <ele>1279.1</ele>
        <time>2022-06-18T05:07:24Z</time>
      </trkpt>
      <trkpt lat="45.2058" lon="6.04366">
        <ele>1279</ele>
        <time>2022-06-18T05:07:25Z</time>
      </trkpt>
      <trkpt lat="45.20586" lon="6.04368">
        <ele>1279</ele>
        <time>2022-06-18T05:07:26Z</time>
      </trkpt>
      <trkpt lat="45.20592" lon="6.04371">
        <ele>1278.9</ele>
        <time>2022-06-18T05:07:27Z</time>
      </trkpt>
      <trkpt lat="45.20598" lon="6.04373">
        <ele>1278.7</ele>
        <time>2022-06-18T05:07:28Z</time>
      </trkpt>
      <trkpt lat="45.20605" lon="6.04376">
        <ele>1278.6</ele>
        <time>2022-06-18T05:07:29Z</time>
      </trkpt>
      <trkpt lat="45.20611" lon="6.04379">
        <ele>1278.5</ele>
        <time>2022-06-18T05:07:30Z</time>
      </trkpt>
      <trkpt lat="45.20618" lon="6.04382">
        <ele>1278.3</ele>
        <time>2022-06-18T05:07:31Z</time>
      </trkpt>
      <trkpt lat="45.20624" lon="6.04385">
        <ele>1278.2</ele>
        <time>2022-06-18T05:07:32Z</time>
      </trkpt>
      <trkpt lat="45.20631" lon="6.0439">
        <ele>1278.1</ele>
        <time>2022-06-18T05:07:33Z</time>
      </trkpt>
      <trkpt lat="45.20637" lon="6.04395">
        <ele>1278.4</ele>
        <time>2022-06-18T05:07:34Z</time>
      </trkpt>
      <trkpt lat="45.20642" lon="6.04402">
        <ele>1278.7</ele>
        <time>2022-06-18T05:07:35Z</time>
      </trkpt>
      <trkpt lat="45.20648" lon="6.04409">
        <ele>1279.1</ele>
        <time>2022-06-18T05:07:36Z</time>
      </trkpt>
      <trkpt lat="45.20653" lon="6.04416">
        <ele>1279.4</ele>
        <time>2022-06-18T05:07:37Z</time>
      </trkpt>
      <trkpt lat="45.20658" lon="6.04422">
        <ele>1279.8</ele>
        <time>2022-06-18T05:07:38Z</time>
      </trkpt>
      <trkpt lat="45.20662" lon="6.04429">
        <ele>1280.1</ele>
        <time>2022-06-18T05:07:39Z</time>
      </trkpt>
      <trkpt lat="45.20667" lon="6.04435">
        <ele>1280.4</ele>
        <time>2022-06-18T05:07:40Z</time>
      </trkpt>
      <trkpt lat="45.20673" lon="6.04439">
        <ele>1280.7</ele>
        <time>2022-06-18T05:07:41Z</time>
      </trkpt>
      <trkpt lat="45.20678" lon="6.04444">
        <ele>1281</ele>
        <time>2022-06-18T05:07:42Z</time>
      </trkpt>
      <trkpt lat="45.20684" lon="6.04448">
        <ele>1281.3</ele>
        <time>2022-06-18T05:07:43Z</time>
      </trkpt>
      <trkpt lat="45.20689" lon="6.04451">
        <ele>1281.5</ele>
        <time>2022-06-18T05:07:44Z</time>
      </trkpt>
      <trkpt lat="45.20695" lon="6.04455">
        <ele>1281.8</ele>
        <time>2022-06-18T05:07:45Z</time>
      </trkpt>
      <trkpt lat="45.20701" lon="6.04458">
        <ele>1282.1</ele>
        <time>2022-06-18T05:07:46Z</time>
      </trkpt>
      <trkpt lat="45.20708" lon="6.04462">
        <ele>1282.4</ele>
        <time>2022-06-18T05:07:47Z</time>
      </trkpt>
      <trkpt lat="45.20714" lon="6.04465">
        <ele>1282.7</ele>
        <time>2022-06-18T05:07:48Z</time>
      </trkpt>
      <trkpt lat="45.2072" lon="6.04468">
        <ele>1282.9</ele>
        <time>2022-06-18T05:07:49Z</time>
      </trkpt>
      <trkpt lat="45.20726" lon="6.04472">
        <ele>1283.2</ele>
        <time>2022-06-18T05:07:50Z</time>
      </trkpt>
      <trkpt lat="45.20732" lon="6.04475">
        <ele>1283.5</ele>
        <time>2022-06-18T05:07:51Z</time>
      </trkpt>
      <trkpt lat="45.20738" lon="6.04477">
        <ele>1283.8</ele>
        <time>2022-06-18T05:07:52Z</time>
      </trkpt>
      <trkpt lat="45.20745" lon="6.04479">
        <ele>1284</ele>
        <time>2022-06-18T05:07:53Z</time>
      </trkpt>
      <trkpt lat="45.20751" lon="6.0448">
        <ele>1284.3</ele>
        <time>2022-06-18T05:07:54Z</time>
      </trkpt>
      <trkpt lat="45.20758" lon="6.04481">
        <ele>1284.6</ele>
        <time>2022-06-18T05:07:55Z</time>
      </trkpt>
      <trkpt lat="45.20765" lon="6.04481">
        <ele>1284.9</ele>
        <time>2022-06-18T05:07:56Z</time>
      </trkpt>
      <trkpt lat="45.20772" lon="6.04481">
        <ele>1285.2</ele>
        <time>2022-06-18T05:07:57Z</time>
      </trkpt>
      <trkpt lat="45.20779" lon="6.04481">
        <ele>1285.4</ele>
        <time>2022-06-18T05:07:58Z</time>
      </trkpt>
      <trkpt lat="45.20786" lon="6.04481">
        <ele>1285.7</ele>
        <time>2022-06-18T05:07:59Z</time>
      </trkpt>
      <trkpt lat="45.20792" lon="6.04481">
        <ele>1286</ele>
        <time>2022-06-18T05:08:00Z</time>
      </trkpt>
      <trkpt lat="45.20799" lon="6.04482">
        <ele>1286.3</ele>
        <time>2022-06-18T05:08:01Z</time>
      </trkpt>
      <trkpt lat="45.20805" lon="6.04483">
        <ele>1286.5</ele>
        <time>2022-06-18T05:08:02Z</time>
      </trkpt>
      <trkpt lat="45.20811" lon="6.04485">
        <ele>1286.8</ele>
        <time>2022-06-18T05:08:03Z</time>
      </trkpt>
      <trkpt lat="45.20817" lon="6.04489">
        <ele>1287</ele>
        <time>2022-06-18T05:08:04Z</time>
      </trkpt>
      <trkpt lat="45.20822" lon="6.04494">
        <ele>1287.3</ele>
        <time>2022-06-18T05:08:05Z</time>
      </trkpt>
      <trkpt lat="45.20827" lon="6.04502">
        <ele>1287.5</ele>
        <time>2022-06-18T05:08:06Z</time>
      </trkpt>
      <trkpt lat="45.2083" lon="6.04511">
        <ele>1287.8</ele>
        <time>2022-06-18T05:08:07Z</time>
      </trkpt>
      <trkpt lat="45.20834" lon="6.0452">
        <ele>1288.1</ele>
        <time>2022-06-18T05:08:08Z</time>
      </trkpt>
      <trkpt lat="45.20838" lon="6.04529">
        <ele>1288.3</ele>
        <time>2022-06-18T05:08:09Z</time>
      </trkpt>
      <trkpt lat="45.20842" lon="6.04538">
        <ele>1288.6</ele>
        <time>2022-06-18T05:08:10Z</time>
      </trkpt>
      <trkpt lat="45.20846" lon="6.04544">
        <ele>1288.9</ele>
        <time>2022-06-18T05:08:11Z</time>
      </trkpt>
      <trkpt lat="45.20852" lon="6.0455">
        <ele>1289.1</ele>
        <time>2022-06-18T05:08:12Z</time>
      </trkpt>
      <trkpt lat="45.20858" lon="6.04554">
        <ele>1289.4</ele>
        <time>2022-06-18T05:08:13Z</time>
      </trkpt>
      <trkpt lat="45.20866" lon="6.04556">
        <ele>1289.6</ele>
        <time>2022-06-18T05:08:14Z</time>
      </trkpt>
      <trkpt lat="45.20873" lon="6.04555">
        <ele>1289.9</ele>
        <time>2022-06-18T05:08:15Z</time>
      </trkpt>
      <trkpt lat="45.20881" lon="6.04552">
        <ele>1290.1</ele>
        <time>2022-06-18T05:08:16Z</time>
      </trkpt>
      <trkpt lat="45.20888" lon="6.04548">
        <ele>1290.4</ele>
        <time>2022-06-18T05:08:17Z</time>
      </trkpt>
      <trkpt lat="45.20895" lon="6.04543">
        <ele>1290.5</ele>
        <time>2022-06-18T05:08:18Z</time>
      </trkpt>
      <trkpt lat="45.20902" lon="6.04538">
        <ele>1290.7</ele>
        <time>2022-06-18T05:08:19Z</time>
      </trkpt>
      <trkpt lat="45.20909" lon="6.04533">
        <ele>1290.9</ele>
        <time>2022-06-18T05:08:20Z</time>
      </trkpt>
      <trkpt lat="45.20916" lon="6.04528">
        <ele>1291.1</ele>
        <time>2022-06-18T05:08:21Z</time>
      </trkpt>
      <trkpt lat="45.20922" lon="6.04523">
        <ele>1291.3</ele>
        <time>2022-06-18T05:08:22Z</time>
      </trkpt>
      <trkpt lat="45.20928" lon="6.0452">
        <ele>1291.5</ele>
        <time>2022-06-18T05:08:23Z</time>
      </trkpt>
      <trkpt lat="45.20935" lon="6.04521">
        <ele>1291.6</ele>
        <time>2022-06-18T05:08:24Z</time>
      </trkpt>
      <trkpt lat="45.20942" lon="6.04527">
        <ele>1291.8</ele>
        <time>2022-06-18T05:08:25Z</time>
      </trkpt>
      <trkpt lat="45.20948" lon="6.04536">
        <ele>1292</ele>
        <time>2022-06-18T05:08:26Z</time>
      </trkpt>
      <trkpt lat="45.20951" lon="6.04547">
        <ele>1292.2</ele>
        <time>2022-06-18T05:08:27Z</time>
      </trkpt>
      <trkpt lat="45.20952" lon="6.0456">
        <ele>1292.4</ele>
        <time>2022-06-18T05:08:28Z</time>
      </trkpt>
      <trkpt lat="45.2095" lon="6.04572">
        <ele>1292.6</ele>
        <time>2022-06-18T05:08:29Z</time>
      </trkpt>
      <trkpt lat="45.20948" lon="6.04585">
        <ele>1292.9</ele>
        <time>2022-06-18T05:08:30Z</time>
      </trkpt>
      <trkpt lat="45.20945" lon="6.04596">
        <ele>1293.2</ele>
        <time>2022-06-18T05:08:31Z</time>
      </trkpt>
      <trkpt lat="45.20942" lon="6.04608">
        <ele>1293.5</ele>
        <time>2022-06-18T05:08:32Z</time>
      </trkpt>
      <trkpt lat="45.20941" lon="6.04618">
        <ele>1293.8</ele>
        <time>2022-06-18T05:08:33Z</time>
      </trkpt>
      <trkpt lat="45.2094" lon="6.04629">
        <ele>1294.1</ele>
        <time>2022-06-18T05:08:34Z</time>
      </trkpt>
      <trkpt lat="45.20941" lon="6.04638">
        <ele>1294.3</ele>
        <time>2022-06-18T05:08:35Z</time>
      </trkpt>
      <trkpt lat="45.20944" lon="6.04647">
        <ele>1294.6</ele>
        <time>2022-06-18T05:08:36Z</time>
      </trkpt>
      <trkpt lat="45.2095" lon="6.04654">
        <ele>1294.9</ele>
        <time>2022-06-18T05:08:37Z</time>
      </trkpt>
      <trkpt lat="45.20958" lon="6.04659">
        <ele>1295.3</ele>
        <time>2022-06-18T05:08:38Z</time>
      </trkpt>
      <trkpt lat="45.20967" lon="6.04662">
        <ele>1295.7</ele>
        <time>2022-06-18T05:08:39Z</time>
      </trkpt>
      <trkpt lat="45.20976" lon="6.04661">
        <ele>1296.1</ele>
        <time>2022-06-18T05:08:40Z</time>
      </trkpt>
      <trkpt lat="45.20985" lon="6.0466">
        <ele>1296.5</ele>
        <time>2022-06-18T05:08:41Z</time>
      </trkpt>
      <trkpt lat="45.20993" lon="6.04659">
        <ele>1296.8</ele>
        <time>2022-06-18T05:08:42Z</time>
      </trkpt>
      <trkpt lat="45.21" lon="6.04659">
        <ele>1297.1</ele>
        <time>2022-06-18T05:08:43Z</time>
      </trkpt>
      <trkpt lat="45.21007" lon="6.04661">
        <ele>1297.3</ele>
        <time>2022-06-18T05:08:44Z</time>
      </trkpt>
      <trkpt lat="45.21012" lon="6.04667">
        <ele>1297.6</ele>
        <time>2022-06-18T05:08:45Z</time>
      </trkpt>
      <trkpt lat="45.21017" lon="6.04674">
        <ele>1297.8</ele>
        <time>2022-06-18T05:08:46Z</time>
      </trkpt>
      <trkpt lat="45.21022" lon="6.04683">
        <ele>1298.1</ele>
        <time>2022-06-18T05:08:47Z</time>
      </trkpt>
      <trkpt lat="45.21026" lon="6.04691">
        <ele>1298.3</ele>
        <time>2022-06-18T05:08:48Z</time>
      </trkpt>
      <trkpt lat="45.2103" lon="6.04697">
        <ele>1298.5</ele>
        <time>2022-06-18T05:08:49Z</time>
      </trkpt>
      <trkpt lat="45.21036" lon="6.04703">
        <ele>1298.7</ele>
        <time>2022-06-18T05:08:50Z</time>
      </trkpt>
      <trkpt lat="45.21043" lon="6.04706">
        <ele>1298.9</ele>
        <time>2022-06-18T05:08:51Z</time>
      </trkpt>
      <trkpt lat="45.2105" lon="6.04709">
        <ele>1299.1</ele>
        <time>2022-06-18T05:08:52Z</time>
      </trkpt>
      <trkpt lat="45.21057" lon="6.04711">
        <ele>1299.4</ele>
        <time>2022-06-18T05:08:53Z</time>
      </trkpt>
      <trkpt lat="45.21065" lon="6.04714">
        <ele>1299.7</ele>
        <time>2022-06-18T05:08:54Z</time>
      </trkpt>
      <trkpt lat="45.21072" lon="6.04718">
        <ele>1300</ele>
        <time>2022-06-18T05:08:55Z</time>
      </trkpt>
      <trkpt lat="45.21079" lon="6.04723">
        <ele>1300.2</ele>
        <time>2022-06-18T05:08:56Z</time>
      </trkpt>
      <trkpt lat="45.21085" lon="6.04729">
        <ele>1300.5</ele>
        <time>2022-06-18T05:08:57Z</time>
      </trkpt>
      <trkpt lat="45.21092" lon="6.04735">
        <ele>1300.7</ele>
        <time>2022-06-18T05:08:58Z</time>
      </trkpt>
      <trkpt lat="45.21098" lon="6.04741">
        <ele>1300.9</ele>
        <time>2022-06-18T05:08:59Z</time>
      </trkpt>
      <trkpt lat="45.21105" lon="6.04745">
        <ele>1301.1</ele>
        <time>2022-06-18T05:09:00Z</time>
      </trkpt>
      <trkpt lat="45.21111" lon="6.04748">
        <ele>1301.2</ele>
        <time>2022-06-18T05:09:01Z</time>
      </trkpt>
      <trkpt lat="45.21117" lon="6.04753">
        <ele>1301.4</ele>
        <time>2022-06-18T05:09:02Z</time>
      </trkpt>
      <trkpt lat="45.21122" lon="6.04759">
        <ele>1301.4</ele>
        <time>2022-06-18T05:09:03Z</time>
      </trkpt>
      <trkpt lat="45.21126" lon="6.04767">
        <ele>1301.5</ele>
        <time>2022-06-18T05:09:04Z</time>
      </trkpt>
      <trkpt lat="45.21128" lon="6.04778">
        <ele>1298.5</ele>
        <time>2022-06-18T05:09:05Z</time>
      </trkpt>
      <trkpt lat="45.21127" lon="6.04789">
        <ele>1297.3</ele>
        <time>2022-06-18T05:09:06Z</time>
      </trkpt>
      <trkpt lat="45.21124" lon="6.04799">
        <ele>1296.6</ele>
        <time>2022-06-18T05:09:07Z</time>
      </trkpt>
      <trkpt lat="45.21119" lon="6.04809">
        <ele>1295.9</ele>
        <time>2022-06-18T05:09:08Z</time>
      </trkpt>
      <trkpt lat="45.21111" lon="6.04817">
        <ele>1295.2</ele>
        <time>2022-06-18T05:09:09Z</time>
      </trkpt>
      <trkpt lat="45.21102" lon="6.04824">
        <ele>1294.5</ele>
        <time>2022-06-18T05:09:10Z</time>
      </trkpt>
      <trkpt lat="45.21094" lon="6.0483">
        <ele>1293.8</ele>
        <time>2022-06-18T05:09:11Z</time>
      </trkpt>
      <trkpt lat="45.21086" lon="6.04837">
        <ele>1293.1</ele>
        <time>2022-06-18T05:09:12Z</time>
      </trkpt>
      <trkpt lat="45.2108" lon="6.04847">
        <ele>1292.5</ele>
        <time>2022-06-18T05:09:13Z</time>
      </trkpt>
      <trkpt lat="45.21077" lon="6.04859">
        <ele>1291.9</ele>
        <time>2022-06-18T05:09:14Z</time>
      </trkpt>
      <trkpt lat="45.21076" lon="6.04871">
        <ele>1291.3</ele>
        <time>2022-06-18T05:09:15Z</time>
      </trkpt>
      <trkpt lat="45.21076" lon="6.04885">
        <ele>1290.6</ele>
        <time>2022-06-18T05:09:16Z</time>
      </trkpt>
      <trkpt lat="45.21076" lon="6.049">
        <ele>1289.9</ele>
        <time>2022-06-18T05:09:17Z</time>
      </trkpt>
      <trkpt lat="45.21076" lon="6.04915">
        <ele>1289.1</ele>
        <time>2022-06-18T05:09:18Z</time>
      </trkpt>
      <trkpt lat="45.21076" lon="6.0493">
        <ele>1288.4</ele>
        <time>2022-06-18T05:09:19Z</time>
      </trkpt>
      <trkpt lat="45.21076" lon="6.04945">
        <ele>1287.6</ele>
        <time>2022-06-18T05:09:20Z</time>
      </trkpt>
      <trkpt lat="45.21076" lon="6.0496">
        <ele>1286.9</ele>
        <time>2022-06-18T05:09:21Z</time>
      </trkpt>
      <trkpt lat="45.21079" lon="6.04972">
        <ele>1286.2</ele>
        <time>2022-06-18T05:09:22Z</time>
      </trkpt>
      <trkpt lat="45.21086" lon="6.04983">
        <ele>1285.5</ele>
        <time>2022-06-18T05:09:23Z</time>
      </trkpt>
      <trkpt lat="45.21095" lon="6.04993">
        <ele>1284.7</ele>
        <time>2022-06-18T05:09:24Z</time>
      </trkpt>
      <trkpt lat="45.21105" lon="6.05001">
        <ele>1283.9</ele>
        <time>2022-06-18T05:09:25Z</time>
      </trkpt>
      <trkpt lat="45.21114" lon="6.0501">
        <ele>1283.2</ele>
        <time>2022-06-18T05:09:26Z</time>
      </trkpt>
      <trkpt lat="45.21122" lon="6.05021">
        <ele>1282.5</ele>
        <time>2022-06-18T05:09:27Z</time>
      </trkpt>
      <trkpt lat="45.21126" lon="6.05034">
        <ele>1281.8</ele>
        <time>2022-06-18T05:09:28Z</time>
      </trkpt>
      <trkpt lat="45.21126" lon="6.0505">
        <ele>1280.9</ele>
        <time>2022-06-18T05:09:29Z</time>
      </trkpt>
      <trkpt lat="45.21122" lon="6.05066">
        <ele>1279.9</ele>
        <time>2022-06-18T05:09:30Z</time>
      </trkpt>
      <trkpt lat="45.21114" lon="6.05081">
        <ele>1278.9</ele>
        <time>2022-06-18T05:09:31Z</time>
      </trkpt>
      <trkpt lat="45.21103" lon="6.05093">
        <ele>1277.8</ele>
        <time>2022-06-18T05:09:32Z</time>
      </trkpt>
      <trkpt lat="45.21091" lon="6.05103">
        <ele>1276.7</ele>
        <time>2022-06-18T05:09:33Z</time>
      </trkpt>
      <trkpt lat="45.2108" lon="6.05111">
        <ele>1275.6</ele>
        <time>2022-06-18T05:09:34Z</time>
      </trkpt>
      <trkpt lat="45.21071" lon="6.05122">
        <ele>1274.5</ele>
        <time>2022-06-18T05:09:35Z</time>
      </trkpt>
      <trkpt lat="45.21066" lon="6.05136">
        <ele>1273.5</ele>
        <time>2022-06-18T05:09:36Z</time>
      </trkpt>
      <trkpt lat="45.21064" lon="6.05151">
        <ele>1272.5</ele>
        <time>2022-06-18T05:09:37Z</time>
      </trkpt>
      <trkpt lat="45.21065" lon="6.05166">
        <ele>1271.5</ele>
        <time>2022-06-18T05:09:38Z</time>
      </trkpt>
      <trkpt lat="45.2107" lon="6.05182">
        <ele>1270.5</ele>
        <time>2022-06-18T05:09:39Z</time>
      </trkpt>
      <trkpt lat="45.21076" lon="6.05199">
        <ele>1269.5</ele>
        <time>2022-06-18T05:09:40Z</time>
      </trkpt>
      <trkpt lat="45.21081" lon="6.05215">
        <ele>1268.6</ele>
        <time>2022-06-18T05:09:41Z</time>
      </trkpt>
      <trkpt lat="45.21085" lon="6.05233">
        <ele>1267.9</ele>
        <time>2022-06-18T05:09:42Z</time>
      </trkpt>
      <trkpt lat="45.21091" lon="6.05251">
        <ele>1267.1</ele>
        <time>2022-06-18T05:09:43Z</time>
      </trkpt>
      <trkpt lat="45.21095" lon="6.05269">
        <ele>1266.5</ele>
        <time>2022-06-18T05:09:44Z</time>
      </trkpt>
      <trkpt lat="45.21097" lon="6.05287">
        <ele>1266</ele>
        <time>2022-06-18T05:09:45Z</time>
      </trkpt>
      <trkpt lat="45.21097" lon="6.05304">
        <ele>1265.6</ele>
        <time>2022-06-18T05:09:46Z</time>
      </trkpt>
      <trkpt lat="45.21097" lon="6.05322">
        <ele>1265.4</ele>
        <time>2022-06-18T05:09:47Z</time>
      </trkpt>
      <trkpt lat="45.21096" lon="6.05338">
        <ele>1265.2</ele>
        <time>2022-06-18T05:09:48Z</time>
      </trkpt>
      <trkpt lat="45.21094" lon="6.05354">
        <ele>1265.1</ele>
        <time>2022-06-18T05:09:49Z</time>
      </trkpt>
      <trkpt lat="45.21091" lon="6.05369">
        <ele>1265</ele>
        <time>2022-06-18T05:09:50Z</time>
      </trkpt>
      <trkpt lat="45.2109" lon="6.05384">
        <ele>1265</ele>
        <time>2022-06-18T05:09:51Z</time>
      </trkpt>
      <trkpt lat="45.21088" lon="6.05399">
        <ele>1264.9</ele>
        <time>2022-06-18T05:09:52Z</time>
      </trkpt>
      <trkpt lat="45.21087" lon="6.05413">
        <ele>1264.8</ele>
        <time>2022-06-18T05:09:53Z</time>
      </trkpt>
      <trkpt lat="45.21086" lon="6.05426">
        <ele>1264.7</ele>
        <time>2022-06-18T05:09:54Z</time>
      </trkpt>
      <trkpt lat="45.21086" lon="6.0544">
        <ele>1264.6</ele>
        <time>2022-06-18T05:09:55Z</time>
      </trkpt>
      <trkpt lat="45.21084" lon="6.05453">
        <ele>1264.5</ele>
        <time>2022-06-18T05:09:56Z</time>
      </trkpt>
      <trkpt lat="45.21083" lon="6.05466">
        <ele>1264.5</ele>
        <time>2022-06-18T05:09:57Z</time>
      </trkpt>
      <trkpt lat="45.21082" lon="6.05479">
        <ele>1264.4</ele>
        <time>2022-06-18T05:09:58Z</time>
      </trkpt>
      <trkpt lat="45.21082" lon="6.05491">
        <ele>1264.4</ele>
        <time>2022-06-18T05:09:59Z</time>
      </trkpt>
      <trkpt lat="45.21082" lon="6.05503">
        <ele>1264.3</ele>
        <time>2022-06-18T05:10:00Z</time>
      </trkpt>
      <trkpt lat="45.21082" lon="6.05515">
        <ele>1264</ele>
        <time>2022-06-18T05:10:01Z</time>
      </trkpt>
      <trkpt lat="45.21084" lon="6.05526">
        <ele>1263.6</ele>
        <time>2022-06-18T05:10:02Z</time>
      </trkpt>
      <trkpt lat="45.21086" lon="6.05536">
        <ele>1263.1</ele>
        <time>2022-06-18T05:10:03Z</time>
      </trkpt>
      <trkpt lat="45.21089" lon="6.05548">
        <ele>1262.7</ele>
        <time>2022-06-18T05:10:04Z</time>
      </trkpt>
      <trkpt lat="45.21091" lon="6.0556">
        <ele>1262.3</ele>
        <time>2022-06-18T05:10:05Z</time>
      </trkpt>
      <trkpt lat="45.21091" lon="6.05574">
        <ele>1261.8</ele>
        <time>2022-06-18T05:10:06Z</time>
      </trkpt>
      <trkpt lat="45.2109" lon="6.05588">
        <ele>1261.3</ele>
        <time>2022-06-18T05:10:07Z</time>
      </trkpt>
      <trkpt lat="45.21088" lon="6.05604">
        <ele>1260.9</ele>
        <time>2022-06-18T05:10:08Z</time>
      </trkpt>
      <trkpt lat="45.21086" lon="6.05619">
        <ele>1260.5</ele>
        <time>2022-06-18T05:10:09Z</time>
      </trkpt>
      <trkpt lat="45.21084" lon="6.05634">
        <ele>1260.4</ele>
        <time>2022-06-18T05:10:10Z</time>
      </trkpt>
      <trkpt lat="45.21083" lon="6.05648">
        <ele>1260.3</ele>
        <time>2022-06-18T05:10:11Z</time>
      </trkpt>
      <trkpt lat="45.21082" lon="6.05662">
        <ele>1260.4</ele>
        <time>2022-06-18T05:10:12Z</time>
      </trkpt>
      <trkpt lat="45.21083" lon="6.05674">
        <ele>1260.3</ele>
        <time>2022-06-18T05:10:13Z</time>
      </trkpt>
      <trkpt lat="45.21084" lon="6.05683">
        <ele>1260.2</ele>
        <time>2022-06-18T05:10:14Z</time>
      </trkpt>
      <trkpt lat="45.21083" lon="6.05689">
        <ele>1259.9</ele>
        <time>2022-06-18T05:10:15Z</time>
      </trkpt>
      <trkpt lat="45.2108" lon="6.05691">
        <ele>1259.5</ele>
        <time>2022-06-18T05:10:16Z</time>
      </trkpt>
      <trkpt lat="45.21074" lon="6.05689">
        <ele>1258.7</ele>
        <time>2022-06-18T05:10:17Z</time>
      </trkpt>
      <trkpt lat="45.2107" lon="6.05681">
        <ele>1257.4</ele>
        <time>2022-06-18T05:10:18Z</time>
      </trkpt>
      <trkpt lat="45.21067" lon="6.0567">
        <ele>1255.4</ele>
        <time>2022-06-18T05:10:19Z</time>
      </trkpt>
      <trkpt lat="45.21066" lon="6.05656">
        <ele>1253.5</ele>
        <time>2022-06-18T05:10:20Z</time>
      </trkpt>
      <trkpt lat="45.21064" lon="6.05642">
        <ele>1251.8</ele>
        <time>2022-06-18T05:10:21Z</time>
      </trkpt>
      <trkpt lat="45.21062" lon="6.05629">
        <ele>1250.5</ele>
        <time>2022-06-18T05:10:22Z</time>
      </trkpt>
      <trkpt lat="45.21059" lon="6.05615">
        <ele>1249.5</ele>
        <time>2022-06-18T05:10:23Z</time>
      </trkpt>
      <trkpt lat="45.21057" lon="6.056">
        <ele>1248.8</ele>
        <time>2022-06-18T05:10:24Z</time>
      </trkpt>
      <trkpt lat="45.21055" lon="6.05584">
        <ele>1248.4</ele>
        <time>2022-06-18T05:10:25Z</time>
      </trkpt>
      <trkpt lat="45.21054" lon="6.05569">
        <ele>1248.3</ele>
        <time>2022-06-18T05:10:26Z</time>
      </trkpt>
      <trkpt lat="45.21053" lon="6.05557">
        <ele>1248.2</ele>
        <time>2022-06-18T05:10:27Z</time>
      </trkpt>
      <trkpt lat="45.21053" lon="6.05546">
        <ele>1248</ele>
        <time>2022-06-18T05:10:28Z</time>
      </trkpt>
      <trkpt lat="45.21051" lon="6.0554">
        <ele>1247.6</ele>
        <time>2022-06-18T05:10:29Z</time>
      </trkpt>
      <trkpt lat="45.21049" lon="6.05539">
        <ele>1247.3</ele>
        <time>2022-06-18T05:10:30Z</time>
      </trkpt>
      <trkpt lat="45.21038" lon="6.05551">
        <ele>1245.1</ele>
        <time>2022-06-18T05:10:32Z</time>
      </trkpt>
      <trkpt lat="45.21035" lon="6.05566">
        <ele>1242.8</ele>
        <time>2022-06-18T05:10:33Z</time>
      </trkpt>
      <trkpt lat="45.21034" lon="6.05581">
        <ele>1240.8</ele>
        <time>2022-06-18T05:10:34Z</time>
      </trkpt>
      <trkpt lat="45.21033" lon="6.05596">
        <ele>1239.1</ele>
        <time>2022-06-18T05:10:35Z</time>
      </trkpt>
      <trkpt lat="45.21031" lon="6.0561">
        <ele>1237.7</ele>
        <time>2022-06-18T05:10:36Z</time>
      </trkpt>
      <trkpt lat="45.21029" lon="6.05624">
        <ele>1236.5</ele>
        <time>2022-06-18T05:10:37Z</time>
      </trkpt>
      <trkpt lat="45.21025" lon="6.05639">
        <ele>1235.5</ele>
        <time>2022-06-18T05:10:38Z</time>
      </trkpt>
      <trkpt lat="45.21021" lon="6.05654">
        <ele>1234.8</ele>
        <time>2022-06-18T05:10:39Z</time>
      </trkpt>
      <trkpt lat="45.21017" lon="6.05669">
        <ele>1234.3</ele>
        <time>2022-06-18T05:10:40Z</time>
      </trkpt>
      <trkpt lat="45.21015" lon="6.05683">
        <ele>1233.9</ele>
        <time>2022-06-18T05:10:41Z</time>
      </trkpt>
      <trkpt lat="45.21013" lon="6.05697">
        <ele>1233.7</ele>
        <time>2022-06-18T05:10:42Z</time>
      </trkpt>
      <trkpt lat="45.21013" lon="6.05709">
        <ele>1233.3</ele>
        <time>2022-06-18T05:10:43Z</time>
      </trkpt>
      <trkpt lat="45.21013" lon="6.05719">
        <ele>1232.7</ele>
        <time>2022-06-18T05:10:44Z</time>
      </trkpt>
      <trkpt lat="45.21014" lon="6.05727">
        <ele>1232</ele>
        <time>2022-06-18T05:10:45Z</time>
      </trkpt>
      <trkpt lat="45.21013" lon="6.05732">
        <ele>1231.4</ele>
        <time>2022-06-18T05:10:46Z</time>
      </trkpt>
      <trkpt lat="45.21009" lon="6.05731">
        <ele>1230.4</ele>
        <time>2022-06-18T05:10:47Z</time>
      </trkpt>
      <trkpt lat="45.21006" lon="6.0573">
        <ele>1229.8</ele>
        <time>2022-06-18T05:10:48Z</time>
      </trkpt>
      <trkpt lat="45.21001" lon="6.05721">
        <ele>1227.7</ele>
        <time>2022-06-18T05:10:49Z</time>
      </trkpt>
      <trkpt lat="45.20998" lon="6.05708">
        <ele>1225</ele>
        <time>2022-06-18T05:10:50Z</time>
      </trkpt>
      <trkpt lat="45.20994" lon="6.05694">
        <ele>1222.4</ele>
        <time>2022-06-18T05:10:51Z</time>
      </trkpt>
      <trkpt lat="45.20991" lon="6.05679">
        <ele>1220.1</ele>
        <time>2022-06-18T05:10:52Z</time>
      </trkpt>
      <trkpt lat="45.20988" lon="6.05664">
        <ele>1218.2</ele>
        <time>2022-06-18T05:10:53Z</time>
      </trkpt>
      <trkpt lat="45.20985" lon="6.05648">
        <ele>1216.6</ele>
        <time>2022-06-18T05:10:54Z</time>
      </trkpt>
      <trkpt lat="45.20982" lon="6.05631">
        <ele>1215.4</ele>
        <time>2022-06-18T05:10:55Z</time>
      </trkpt>
      <trkpt lat="45.20979" lon="6.05615">
        <ele>1214.4</ele>
        <time>2022-06-18T05:10:56Z</time>
      </trkpt>
      <trkpt lat="45.20976" lon="6.05599">
        <ele>1213.6</ele>
        <time>2022-06-18T05:10:57Z</time>
      </trkpt>
      <trkpt lat="45.20975" lon="6.05584">
        <ele>1212.9</ele>
        <time>2022-06-18T05:10:58Z</time>
      </trkpt>
      <trkpt lat="45.20974" lon="6.05569">
        <ele>1212.5</ele>
        <time>2022-06-18T05:10:59Z</time>
      </trkpt>
      <trkpt lat="45.20974" lon="6.05554">
        <ele>1212.1</ele>
        <time>2022-06-18T05:11:00Z</time>
      </trkpt>
      <trkpt lat="45.20976" lon="6.05541">
        <ele>1211.9</ele>
        <time>2022-06-18T05:11:01Z</time>
      </trkpt>
      <trkpt lat="45.2098" lon="6.05528">
        <ele>1211.7</ele>
        <time>2022-06-18T05:11:02Z</time>
      </trkpt>
      <trkpt lat="45.20983" lon="6.05518">
        <ele>1211.3</ele>
        <time>2022-06-18T05:11:03Z</time>
      </trkpt>
      <trkpt lat="45.20984" lon="6.05511">
        <ele>1210.8</ele>
        <time>2022-06-18T05:11:04Z</time>
      </trkpt>
      <trkpt lat="45.20982" lon="6.05506">
        <ele>1210.3</ele>
        <time>2022-06-18T05:11:05Z</time>
      </trkpt>
      <trkpt lat="45.20977" lon="6.05505">
        <ele>1209.5</ele>
        <time>2022-06-18T05:11:06Z</time>
      </trkpt>
      <trkpt lat="45.2097" lon="6.05509">
        <ele>1208.1</ele>
        <time>2022-06-18T05:11:07Z</time>
      </trkpt>
      <trkpt lat="45.20963" lon="6.05519">
        <ele>1206.2</ele>
        <time>2022-06-18T05:11:08Z</time>
      </trkpt>
      <trkpt lat="45.20958" lon="6.05531">
        <ele>1204.3</ele>
        <time>2022-06-18T05:11:09Z</time>
      </trkpt>
      <trkpt lat="45.20954" lon="6.05545">
        <ele>1202.5</ele>
        <time>2022-06-18T05:11:10Z</time>
      </trkpt>
      <trkpt lat="45.2095" lon="6.05558">
        <ele>1200.8</ele>
        <time>2022-06-18T05:11:11Z</time>
      </trkpt>
      <trkpt lat="45.20947" lon="6.05572">
        <ele>1199.2</ele>
        <time>2022-06-18T05:11:12Z</time>
      </trkpt>
      <trkpt lat="45.20945" lon="6.05587">
        <ele>1197.6</ele>
        <time>2022-06-18T05:11:13Z</time>
      </trkpt>
      <trkpt lat="45.20943" lon="6.05602">
        <ele>1196</ele>
        <time>2022-06-18T05:11:14Z</time>
      </trkpt>
      <trkpt lat="45.2094" lon="6.05618">
        <ele>1194.7</ele>
        <time>2022-06-18T05:11:15Z</time>
      </trkpt>
      <trkpt lat="45.20938" lon="6.05635">
        <ele>1193.5</ele>
        <time>2022-06-18T05:11:16Z</time>
      </trkpt>
      <trkpt lat="45.20936" lon="6.05652">
        <ele>1192.5</ele>
        <time>2022-06-18T05:11:17Z</time>
      </trkpt>
      <trkpt lat="45.20934" lon="6.05668">
        <ele>1191.7</ele>
        <time>2022-06-18T05:11:18Z</time>
      </trkpt>
      <trkpt lat="45.20932" lon="6.05684">
        <ele>1191</ele>
        <time>2022-06-18T05:11:19Z</time>
      </trkpt>
      <trkpt lat="45.20931" lon="6.057">
        <ele>1190.6</ele>
        <time>2022-06-18T05:11:20Z</time>
      </trkpt>
      <trkpt lat="45.20929" lon="6.05716">
        <ele>1190.2</ele>
        <time>2022-06-18T05:11:21Z</time>
      </trkpt>
      <trkpt lat="45.20927" lon="6.0573">
        <ele>1189.9</ele>
        <time>2022-06-18T05:11:22Z</time>
      </trkpt>
      <trkpt lat="45.20924" lon="6.05744">
        <ele>1189.7</ele>
        <time>2022-06-18T05:11:23Z</time>
      </trkpt>
      <trkpt lat="45.20918" lon="6.05755">
        <ele>1189.4</ele>
        <time>2022-06-18T05:11:24Z</time>
      </trkpt>
      <trkpt lat="45.2091" lon="6.05764">
        <ele>1189.1</ele>
        <time>2022-06-18T05:11:25Z</time>
      </trkpt>
      <trkpt lat="45.209" lon="6.05769">
        <ele>1189.1</ele>
        <time>2022-06-18T05:11:26Z</time>
      </trkpt>
      <trkpt lat="45.2089" lon="6.05772">
        <ele>1189.1</ele>
        <time>2022-06-18T05:11:27Z</time>
      </trkpt>
      <trkpt lat="45.20881" lon="6.05776">
        <ele>1189.8</ele>
        <time>2022-06-18T05:11:28Z</time>
      </trkpt>
      <trkpt lat="45.20874" lon="6.05781">
        <ele>1190.5</ele>
        <time>2022-06-18T05:11:29Z</time>
      </trkpt>
      <trkpt lat="45.2087" lon="6.05789">
        <ele>1191.3</ele>
        <time>2022-06-18T05:11:30Z</time>
      </trkpt>
      <trkpt lat="45.20868" lon="6.05797">
        <ele>1192.1</ele>
        <time>2022-06-18T05:11:31Z</time>
      </trkpt>
      <trkpt lat="45.20867" lon="6.05805">
        <ele>1193.1</ele>
        <time>2022-06-18T05:11:32Z</time>
      </trkpt>
      <trkpt lat="45.20865" lon="6.05812">
        <ele>1194.1</ele>
        <time>2022-06-18T05:11:33Z</time>
      </trkpt>
      <trkpt lat="45.20864" lon="6.05815">
        <ele>1194.8</ele>
        <time>2022-06-18T05:11:34Z</time>
      </trkpt>
      <trkpt lat="45.20862" lon="6.05819">
        <ele>1195.5</ele>
        <time>2022-06-18T05:11:35Z</time>
      </trkpt>
      <trkpt lat="45.2086" lon="6.05822">
        <ele>1196.3</ele>
        <time>2022-06-18T05:11:36Z</time>
      </trkpt>
      <trkpt lat="45.20859" lon="6.05824">
        <ele>1196.5</ele>
        <time>2022-06-18T05:11:37Z</time>
      </trkpt>
      <trkpt lat="45.20858" lon="6.05828">
        <ele>1197.4</ele>
        <time>2022-06-18T05:11:38Z</time>
      </trkpt>
      <trkpt lat="45.20858" lon="6.0583">
        <ele>1197.7</ele>
        <time>2022-06-18T05:11:39Z</time>
      </trkpt>
      <trkpt lat="45.20857" lon="6.05833">
        <ele>1198.3</ele>
        <time>2022-06-18T05:11:40Z</time>
      </trkpt>
      <trkpt lat="45.20856" lon="6.05835">
        <ele>1198.6</ele>
        <time>2022-06-18T05:11:41Z</time>
      </trkpt>
      <trkpt lat="45.20855" lon="6.05839">
        <ele>1199.3</ele>
        <time>2022-06-18T05:11:42Z</time>
      </trkpt>
      <trkpt lat="45.20854" lon="6.0584">
        <ele>1199.5</ele>
        <time>2022-06-18T05:11:43Z</time>
      </trkpt>
      <trkpt lat="45.20854" lon="6.05845">
        <ele>1200.2</ele>
        <time>2022-06-18T05:11:44Z</time>
      </trkpt>
      <trkpt lat="45.20854" lon="6.05846">
        <ele>1200.3</ele>
        <time>2022-06-18T05:11:45Z</time>
      </trkpt>
      <trkpt lat="45.20854" lon="6.0585">
        <ele>1200.9</ele>
        <time>2022-06-18T05:11:46Z</time>
      </trkpt>
      <trkpt lat="45.20854" lon="6.05852">
        <ele>1201.1</ele>
        <time>2022-06-18T05:11:47Z</time>
      </trkpt>
      <trkpt lat="45.20852" lon="6.05856">
        <ele>1201.7</ele>
        <time>2022-06-18T05:11:48Z</time>
      </trkpt>
      <trkpt lat="45.20852" lon="6.05857">
        <ele>1201.8</ele>
        <time>2022-06-18T05:11:49Z</time>
      </trkpt>
      <trkpt lat="45.2085" lon="6.05863">
        <ele>1202.6</ele>
        <time>2022-06-18T05:11:50Z</time>
      </trkpt>
      <trkpt lat="45.20849" lon="6.05865">
        <ele>1202.8</ele>
        <time>2022-06-18T05:11:51Z</time>
      </trkpt>
      <trkpt lat="45.20848" lon="6.0587">
        <ele>1203.4</ele>
        <time>2022-06-18T05:11:52Z</time>
      </trkpt>
      <trkpt lat="45.20848" lon="6.05871">
        <ele>1203.6</ele>
        <time>2022-06-18T05:11:53Z</time>
      </trkpt>
      <trkpt lat="45.20848" lon="6.05876">
        <ele>1204.1</ele>
        <time>2022-06-18T05:11:54Z</time>
      </trkpt>
      <trkpt lat="45.20848" lon="6.05878">
        <ele>1204.3</ele>
        <time>2022-06-18T05:11:55Z</time>
      </trkpt>
      <trkpt lat="45.20847" lon="6.05883">
        <ele>1204.8</ele>
        <time>2022-06-18T05:11:56Z</time>
      </trkpt>
      <trkpt lat="45.20847" lon="6.05885">
        <ele>1205</ele>
        <time>2022-06-18T05:11:57Z</time>
      </trkpt>
      <trkpt lat="45.20845" lon="6.0589">
        <ele>1205.6</ele>
        <time>2022-06-18T05:11:58Z</time>
      </trkpt>
      <trkpt lat="45.20845" lon="6.05892">
        <ele>1205.8</ele>
        <time>2022-06-18T05:11:59Z</time>
      </trkpt>
      <trkpt lat="45.20844" lon="6.05897">
        <ele>1206.2</ele>
        <time>2022-06-18T05:12:00Z</time>
      </trkpt>
      <trkpt lat="45.20844" lon="6.05898">
        <ele>1206.4</ele>
        <time>2022-06-18T05:12:01Z</time>
      </trkpt>
      <trkpt lat="45.20843" lon="6.05901">
        <ele>1206.6</ele>
        <time>2022-06-18T05:12:02Z</time>
      </trkpt>
      <trkpt lat="45.20843" lon="6.05903">
        <ele>1206.8</ele>
        <time>2022-06-18T05:12:03Z</time>
      </trkpt>
      <trkpt lat="45.20843" lon="6.05907">
        <ele>1207.2</ele>
        <time>2022-06-18T05:12:04Z</time>
      </trkpt>
      <trkpt lat="45.20843" lon="6.05909">
        <ele>1207.4</ele>
        <time>2022-06-18T05:12:05Z</time>
      </trkpt>
      <trkpt lat="45.20844" lon="6.05913">
        <ele>1207.8</ele>
        <time>2022-06-18T05:12:06Z</time>
      </trkpt>
      <trkpt lat="45.20843" lon="6.05915">
        <ele>1207.9</ele>
        <time>2022-06-18T05:12:07Z</time>
      </trkpt>
      <trkpt lat="45.20843" lon="6.05919">
        <ele>1208.3</ele>
        <time>2022-06-18T05:12:08Z</time>
      </trkpt>
      <trkpt lat="45.20842" lon="6.0592">
        <ele>1208.4</ele>
        <time>2022-06-18T05:12:09Z</time>
      </trkpt>
      <trkpt lat="45.20841" lon="6.05924">
        <ele>1208.8</ele>
        <time>2022-06-18T05:12:10Z</time>
      </trkpt>
      <trkpt lat="45.2084" lon="6.05926">
        <ele>1209</ele>
        <time>2022-06-18T05:12:11Z</time>
      </trkpt>
      <trkpt lat="45.2084" lon="6.05931">
        <ele>1209.4</ele>
        <time>2022-06-18T05:12:12Z</time>
      </trkpt>
      <trkpt lat="45.2084" lon="6.05932">
        <ele>1209.5</ele>
        <time>2022-06-18T05:12:13Z</time>
      </trkpt>
      <trkpt lat="45.2084" lon="6.05937">
        <ele>1210</ele>
        <time>2022-06-18T05:12:14Z</time>
      </trkpt>
      <trkpt lat="45.2084" lon="6.05939">
        <ele>1210.1</ele>
        <time>2022-06-18T05:12:15Z</time>
      </trkpt>
      <trkpt lat="45.2084" lon="6.05943">
        <ele>1210.5</ele>
        <time>2022-06-18T05:12:16Z</time>
      </trkpt>
      <trkpt lat="45.2084" lon="6.05945">
        <ele>1210.6</ele>
        <time>2022-06-18T05:12:17Z</time>
      </trkpt>
      <trkpt lat="45.20839" lon="6.0595">
        <ele>1211.1</ele>
        <time>2022-06-18T05:12:18Z</time>
      </trkpt>
      <trkpt lat="45.20839" lon="6.05951">
        <ele>1211.2</ele>
        <time>2022-06-18T05:12:19Z</time>
      </trkpt>
      <trkpt lat="45.20838" lon="6.05957">
        <ele>1211.8</ele>
        <time>2022-06-18T05:12:21Z</time>
      </trkpt>
      <trkpt lat="45.20837" lon="6.05961">
        <ele>1212.2</ele>
        <time>2022-06-18T05:12:22Z</time>
      </trkpt>
      <trkpt lat="45.20837" lon="6.05963">
        <ele>1212.4</ele>
        <time>2022-06-18T05:12:23Z</time>
      </trkpt>
      <trkpt lat="45.20836" lon="6.05966">
        <ele>1212.7</ele>
        <time>2022-06-18T05:12:24Z</time>
      </trkpt>
      <trkpt lat="45.20835" lon="6.05972">
        <ele>1213.3</ele>
        <time>2022-06-18T05:12:26Z</time>
      </trkpt>
      <trkpt lat="45.20836" lon="6.05977">
        <ele>1213.9</ele>
        <time>2022-06-18T05:12:28Z</time>
      </trkpt>
      <trkpt lat="45.20836" lon="6.05983">
        <ele>1214.4</ele>
        <time>2022-06-18T05:12:29Z</time>
      </trkpt>
      <trkpt lat="45.20836" lon="6.05987">
        <ele>1214.8</ele>
        <time>2022-06-18T05:12:30Z</time>
      </trkpt>
      <trkpt lat="45.20835" lon="6.05988">
        <ele>1214.9</ele>
        <time>2022-06-18T05:12:31Z</time>
      </trkpt>
      <trkpt lat="45.20835" lon="6.05991">
        <ele>1215.1</ele>
        <time>2022-06-18T05:12:32Z</time>
      </trkpt>
      <trkpt lat="45.20834" lon="6.05996">
        <ele>1215.7</ele>
        <time>2022-06-18T05:12:34Z</time>
      </trkpt>
      <trkpt lat="45.20834" lon="6.05999">
        <ele>1215.9</ele>
        <time>2022-06-18T05:12:35Z</time>
      </trkpt>
      <trkpt lat="45.20833" lon="6.06003">
        <ele>1216.3</ele>
        <time>2022-06-18T05:12:37Z</time>
      </trkpt>
      <trkpt lat="45.20832" lon="6.06009">
        <ele>1216.9</ele>
        <time>2022-06-18T05:12:38Z</time>
      </trkpt>
      <trkpt lat="45.20832" lon="6.06011">
        <ele>1217.1</ele>
        <time>2022-06-18T05:12:39Z</time>
      </trkpt>
      <trkpt lat="45.20831" lon="6.06017">
        <ele>1217.6</ele>
        <time>2022-06-18T05:12:40Z</time>
      </trkpt>
      <trkpt lat="45.20831" lon="6.06018">
        <ele>1217.7</ele>
        <time>2022-06-18T05:12:41Z</time>
      </trkpt>
      <trkpt lat="45.20831" lon="6.06021">
        <ele>1217.9</ele>
        <time>2022-06-18T05:12:42Z</time>
      </trkpt>
      <trkpt lat="45.2083" lon="6.06023">
        <ele>1218.1</ele>
        <time>2022-06-18T05:12:43Z</time>
      </trkpt>
      <trkpt lat="45.2083" lon="6.06028">
        <ele>1218.6</ele>
        <time>2022-06-18T05:12:44Z</time>
      </trkpt>
      <trkpt lat="45.2083" lon="6.0603">
        <ele>1218.8</ele>
        <time>2022-06-18T05:12:45Z</time>
      </trkpt>
      <trkpt lat="45.2083" lon="6.06035">
        <ele>1219.2</ele>
        <time>2022-06-18T05:12:46Z</time>
      </trkpt>
      <trkpt lat="45.2083" lon="6.06037">
        <ele>1219.4</ele>
        <time>2022-06-18T05:12:47Z</time>
      </trkpt>
      <trkpt lat="45.2083" lon="6.0604">
        <ele>1219.7</ele>
        <time>2022-06-18T05:12:48Z</time>
      </trkpt>
      <trkpt lat="45.20829" lon="6.06044">
        <ele>1220</ele>
        <time>2022-06-18T05:12:50Z</time>
      </trkpt>
      <trkpt lat="45.20829" lon="6.06048">
        <ele>1220.5</ele>
        <time>2022-06-18T05:12:51Z</time>
      </trkpt>
      <trkpt lat="45.20828" lon="6.0605">
        <ele>1220.6</ele>
        <time>2022-06-18T05:12:52Z</time>
      </trkpt>
      <trkpt lat="45.20827" lon="6.06055">
        <ele>1221.1</ele>
        <time>2022-06-18T05:12:53Z</time>
      </trkpt>
      <trkpt lat="45.20827" lon="6.06057">
        <ele>1221.3</ele>
        <time>2022-06-18T05:12:54Z</time>
      </trkpt>
      <trkpt lat="45.20826" lon="6.06061">
        <ele>1221.6</ele>
        <time>2022-06-18T05:12:55Z</time>
      </trkpt>
      <trkpt lat="45.20825" lon="6.06064">
        <ele>1222</ele>
        <time>2022-06-18T05:12:56Z</time>
      </trkpt>
      <trkpt lat="45.20824" lon="6.06067">
        <ele>1222.3</ele>
        <time>2022-06-18T05:12:58Z</time>
      </trkpt>
      <trkpt lat="45.20823" lon="6.06071">
        <ele>1222.7</ele>
        <time>2022-06-18T05:12:59Z</time>
      </trkpt>
      <trkpt lat="45.20822" lon="6.06076">
        <ele>1223.1</ele>
        <time>2022-06-18T05:13:00Z</time>
      </trkpt>
      <trkpt lat="45.20821" lon="6.06077">
        <ele>1223.3</ele>
        <time>2022-06-18T05:13:01Z</time>
      </trkpt>
      <trkpt lat="45.20821" lon="6.06081">
        <ele>1223.6</ele>
        <time>2022-06-18T05:13:02Z</time>
      </trkpt>
      <trkpt lat="45.20821" lon="6.06085">
        <ele>1224</ele>
        <time>2022-06-18T05:13:03Z</time>
      </trkpt>
      <trkpt lat="45.2082" lon="6.06089">
        <ele>1224.4</ele>
        <time>2022-06-18T05:13:05Z</time>
      </trkpt>
      <trkpt lat="45.20819" lon="6.06094">
        <ele>1224.8</ele>
        <time>2022-06-18T05:13:06Z</time>
      </trkpt>
      <trkpt lat="45.20818" lon="6.06097">
        <ele>1225.1</ele>
        <time>2022-06-18T05:13:07Z</time>
      </trkpt>
      <trkpt lat="45.20817" lon="6.06101">
        <ele>1225.5</ele>
        <time>2022-06-18T05:13:09Z</time>
      </trkpt>
      <trkpt lat="45.20817" lon="6.06105">
        <ele>1225.8</ele>
        <time>2022-06-18T05:13:10Z</time>
      </trkpt>
      <trkpt lat="45.20817" lon="6.0611">
        <ele>1226.2</ele>
        <time>2022-06-18T05:13:11Z</time>
      </trkpt>
      <trkpt lat="45.20817" lon="6.06111">
        <ele>1226.4</ele>
        <time>2022-06-18T05:13:12Z</time>
      </trkpt>
      <trkpt lat="45.20815" lon="6.06116">
        <ele>1226.8</ele>
        <time>2022-06-18T05:13:13Z</time>
      </trkpt>
      <trkpt lat="45.20815" lon="6.06118">
        <ele>1226.9</ele>
        <time>2022-06-18T05:13:14Z</time>
      </trkpt>
      <trkpt lat="45.20814" lon="6.06122">
        <ele>1227.3</ele>
        <time>2022-06-18T05:13:15Z</time>
      </trkpt>
      <trkpt lat="45.20814" lon="6.06124">
        <ele>1227.5</ele>
        <time>2022-06-18T05:13:16Z</time>
      </trkpt>
      <trkpt lat="45.20813" lon="6.06129">
        <ele>1227.9</ele>
        <time>2022-06-18T05:13:18Z</time>
      </trkpt>
      <trkpt lat="45.20813" lon="6.06133">
        <ele>1228.2</ele>
        <time>2022-06-18T05:13:19Z</time>
      </trkpt>
      <trkpt lat="45.20811" lon="6.06139">
        <ele>1228.7</ele>
        <time>2022-06-18T05:13:20Z</time>
      </trkpt>
      <trkpt lat="45.2081" lon="6.06145">
        <ele>1229.2</ele>
        <time>2022-06-18T05:13:21Z</time>
      </trkpt>
      <trkpt lat="45.2081" lon="6.06147">
        <ele>1229.4</ele>
        <time>2022-06-18T05:13:22Z</time>
      </trkpt>
      <trkpt lat="45.2081" lon="6.0615">
        <ele>1229.6</ele>
        <time>2022-06-18T05:13:23Z</time>
      </trkpt>
      <trkpt lat="45.20809" lon="6.06154">
        <ele>1230</ele>
        <time>2022-06-18T05:13:25Z</time>
      </trkpt>
      <trkpt lat="45.20808" lon="6.06159">
        <ele>1230.4</ele>
        <time>2022-06-18T05:13:26Z</time>
      </trkpt>
      <trkpt lat="45.20807" lon="6.06164">
        <ele>1230.8</ele>
        <time>2022-06-18T05:13:27Z</time>
      </trkpt>
      <trkpt lat="45.20806" lon="6.06167">
        <ele>1231</ele>
        <time>2022-06-18T05:13:28Z</time>
      </trkpt>
      <trkpt lat="45.20805" lon="6.06171">
        <ele>1231.5</ele>
        <time>2022-06-18T05:13:30Z</time>
      </trkpt>
      <trkpt lat="45.20805" lon="6.06175">
        <ele>1231.8</ele>
        <time>2022-06-18T05:13:31Z</time>
      </trkpt>
      <trkpt lat="45.20804" lon="6.06181">
        <ele>1232.3</ele>
        <time>2022-06-18T05:13:32Z</time>
      </trkpt>
      <trkpt lat="45.20804" lon="6.06183">
        <ele>1232.5</ele>
        <time>2022-06-18T05:13:33Z</time>
      </trkpt>
      <trkpt lat="45.20804" lon="6.06189">
        <ele>1233</ele>
        <time>2022-06-18T05:13:35Z</time>
      </trkpt>
      <trkpt lat="45.20804" lon="6.06193">
        <ele>1233.3</ele>
        <time>2022-06-18T05:13:36Z</time>
      </trkpt>
      <trkpt lat="45.20802" lon="6.06198">
        <ele>1233.7</ele>
        <time>2022-06-18T05:13:37Z</time>
      </trkpt>
      <trkpt lat="45.20802" lon="6.062">
        <ele>1233.9</ele>
        <time>2022-06-18T05:13:38Z</time>
      </trkpt>
      <trkpt lat="45.20801" lon="6.06204">
        <ele>1234.2</ele>
        <time>2022-06-18T05:13:39Z</time>
      </trkpt>
      <trkpt lat="45.208" lon="6.0621">
        <ele>1234.8</ele>
        <time>2022-06-18T05:13:41Z</time>
      </trkpt>
      <trkpt lat="45.208" lon="6.06212">
        <ele>1235</ele>
        <time>2022-06-18T05:13:42Z</time>
      </trkpt>
      <trkpt lat="45.20799" lon="6.06214">
        <ele>1235.2</ele>
        <time>2022-06-18T05:13:43Z</time>
      </trkpt>
      <trkpt lat="45.20799" lon="6.06218">
        <ele>1235.5</ele>
        <time>2022-06-18T05:13:44Z</time>
      </trkpt>
      <trkpt lat="45.20799" lon="6.06224">
        <ele>1236</ele>
        <time>2022-06-18T05:13:45Z</time>
      </trkpt>
      <trkpt lat="45.20799" lon="6.06225">
        <ele>1236.2</ele>
        <time>2022-06-18T05:13:46Z</time>
      </trkpt>
      <trkpt lat="45.20797" lon="6.0623">
        <ele>1236.5</ele>
        <time>2022-06-18T05:13:47Z</time>
      </trkpt>
      <trkpt lat="45.20797" lon="6.06234">
        <ele>1237</ele>
        <time>2022-06-18T05:13:48Z</time>
      </trkpt>
      <trkpt lat="45.20797" lon="6.06236">
        <ele>1237.1</ele>
        <time>2022-06-18T05:13:49Z</time>
      </trkpt>
      <trkpt lat="45.20797" lon="6.06243">
        <ele>1237.7</ele>
        <time>2022-06-18T05:13:51Z</time>
      </trkpt>
      <trkpt lat="45.20797" lon="6.06245">
        <ele>1237.9</ele>
        <time>2022-06-18T05:13:52Z</time>
      </trkpt>
      <trkpt lat="45.20797" lon="6.06248">
        <ele>1238.1</ele>
        <time>2022-06-18T05:13:53Z</time>
      </trkpt>
      <trkpt lat="45.20797" lon="6.06253">
        <ele>1238.6</ele>
        <time>2022-06-18T05:13:54Z</time>
      </trkpt>
      <trkpt lat="45.20795" lon="6.0626">
        <ele>1239.2</ele>
        <time>2022-06-18T05:13:56Z</time>
      </trkpt>
      <trkpt lat="45.20795" lon="6.06262">
        <ele>1239.4</ele>
        <time>2022-06-18T05:13:57Z</time>
      </trkpt>
      <trkpt lat="45.20795" lon="6.06264">
        <ele>1239.6</ele>
        <time>2022-06-18T05:13:58Z</time>
      </trkpt>
      <trkpt lat="45.20794" lon="6.06269">
        <ele>1240.1</ele>
        <time>2022-06-18T05:13:59Z</time>
      </trkpt>
      <trkpt lat="45.20793" lon="6.06271">
        <ele>1240.3</ele>
        <time>2022-06-18T05:14:00Z</time>
      </trkpt>
      <trkpt lat="45.20792" lon="6.06276">
        <ele>1240.7</ele>
        <time>2022-06-18T05:14:01Z</time>
      </trkpt>
      <trkpt lat="45.20792" lon="6.06277">
        <ele>1240.9</ele>
        <time>2022-06-18T05:14:02Z</time>
      </trkpt>
      <trkpt lat="45.2079" lon="6.06282">
        <ele>1241.3</ele>
        <time>2022-06-18T05:14:03Z</time>
      </trkpt>
      <trkpt lat="45.2079" lon="6.06284">
        <ele>1241.5</ele>
        <time>2022-06-18T05:14:04Z</time>
      </trkpt>
      <trkpt lat="45.20789" lon="6.06292">
        <ele>1242.2</ele>
        <time>2022-06-18T05:14:06Z</time>
      </trkpt>
      <trkpt lat="45.20788" lon="6.06294">
        <ele>1242.5</ele>
        <time>2022-06-18T05:14:07Z</time>
      </trkpt>
      <trkpt lat="45.20788" lon="6.06297">
        <ele>1242.7</ele>
        <time>2022-06-18T05:14:08Z</time>
      </trkpt>
      <trkpt lat="45.20787" lon="6.06301">
        <ele>1243.2</ele>
        <time>2022-06-18T05:14:09Z</time>
      </trkpt>
      <trkpt lat="45.20786" lon="6.06303">
        <ele>1243.3</ele>
        <time>2022-06-18T05:14:10Z</time>
      </trkpt>
      <trkpt lat="45.20785" lon="6.06307">
        <ele>1243.8</ele>
        <time>2022-06-18T05:14:11Z</time>
      </trkpt>
      <trkpt lat="45.20785" lon="6.06309">
        <ele>1243.9</ele>
        <time>2022-06-18T05:14:12Z</time>
      </trkpt>
      <trkpt lat="45.20785" lon="6.06312">
        <ele>1244.2</ele>
        <time>2022-06-18T05:14:13Z</time>
      </trkpt>
      <trkpt lat="45.20785" lon="6.06317">
        <ele>1244.6</ele>
        <time>2022-06-18T05:14:15Z</time>
      </trkpt>
      <trkpt lat="45.20785" lon="6.06321">
        <ele>1245.1</ele>
        <time>2022-06-18T05:14:16Z</time>
      </trkpt>
      <trkpt lat="45.20786" lon="6.06323">
        <ele>1245.2</ele>
        <time>2022-06-18T05:14:17Z</time>
      </trkpt>
      <trkpt lat="45.20786" lon="6.06328">
        <ele>1245.7</ele>
        <time>2022-06-18T05:14:18Z</time>
      </trkpt>
      <trkpt lat="45.20786" lon="6.0633">
        <ele>1245.9</ele>
        <time>2022-06-18T05:14:19Z</time>
      </trkpt>
      <trkpt lat="45.20785" lon="6.06333">
        <ele>1246.2</ele>
        <time>2022-06-18T05:14:20Z</time>
      </trkpt>
      <trkpt lat="45.20785" lon="6.06338">
        <ele>1246.6</ele>
        <time>2022-06-18T05:14:22Z</time>
      </trkpt>
      <trkpt lat="45.20784" lon="6.06343">
        <ele>1247.1</ele>
        <time>2022-06-18T05:14:23Z</time>
      </trkpt>
      <trkpt lat="45.20784" lon="6.06347">
        <ele>1247.5</ele>
        <time>2022-06-18T05:14:24Z</time>
      </trkpt>
      <trkpt lat="45.20784" lon="6.06353">
        <ele>1248.1</ele>
        <time>2022-06-18T05:14:25Z</time>
      </trkpt>
      <trkpt lat="45.20783" lon="6.06354">
        <ele>1248.2</ele>
        <time>2022-06-18T05:14:26Z</time>
      </trkpt>
      <trkpt lat="45.20784" lon="6.0636">
        <ele>1248.8</ele>
        <time>2022-06-18T05:14:27Z</time>
      </trkpt>
      <trkpt lat="45.20784" lon="6.06361">
        <ele>1248.9</ele>
        <time>2022-06-18T05:14:28Z</time>
      </trkpt>
      <trkpt lat="45.20783" lon="6.06365">
        <ele>1249.3</ele>
        <time>2022-06-18T05:14:30Z</time>
      </trkpt>
      <trkpt lat="45.20783" lon="6.0637">
        <ele>1249.8</ele>
        <time>2022-06-18T05:14:31Z</time>
      </trkpt>
      <trkpt lat="45.20782" lon="6.06374">
        <ele>1250.1</ele>
        <time>2022-06-18T05:14:32Z</time>
      </trkpt>
      <trkpt lat="45.20781" lon="6.06378">
        <ele>1250.6</ele>
        <time>2022-06-18T05:14:34Z</time>
      </trkpt>
      <trkpt lat="45.20781" lon="6.06383">
        <ele>1251.1</ele>
        <time>2022-06-18T05:14:35Z</time>
      </trkpt>
      <trkpt lat="45.20781" lon="6.06385">
        <ele>1251.3</ele>
        <time>2022-06-18T05:14:36Z</time>
      </trkpt>
      <trkpt lat="45.20781" lon="6.06389">
        <ele>1251.7</ele>
        <time>2022-06-18T05:14:37Z</time>
      </trkpt>
      <trkpt lat="45.2078" lon="6.06393">
        <ele>1252.1</ele>
        <time>2022-06-18T05:14:38Z</time>
      </trkpt>
      <trkpt lat="45.20779" lon="6.06398">
        <ele>1252.5</ele>
        <time>2022-06-18T05:14:39Z</time>
      </trkpt>
      <trkpt lat="45.20778" lon="6.06399">
        <ele>1252.7</ele>
        <time>2022-06-18T05:14:40Z</time>
      </trkpt>
      <trkpt lat="45.20777" lon="6.06402">
        <ele>1253</ele>
        <time>2022-06-18T05:14:41Z</time>
      </trkpt>
      <trkpt lat="45.20776" lon="6.06407">
        <ele>1253.5</ele>
        <time>2022-06-18T05:14:43Z</time>
      </trkpt>
      <trkpt lat="45.20774" lon="6.06412">
        <ele>1254.1</ele>
        <time>2022-06-18T05:14:44Z</time>
      </trkpt>
      <trkpt lat="45.20773" lon="6.06414">
        <ele>1254.4</ele>
        <time>2022-06-18T05:14:45Z</time>
      </trkpt>
      <trkpt lat="45.20772" lon="6.06418">
        <ele>1254.8</ele>
        <time>2022-06-18T05:14:46Z</time>
      </trkpt>
      <trkpt lat="45.20771" lon="6.06419">
        <ele>1255</ele>
        <time>2022-06-18T05:14:47Z</time>
      </trkpt>
      <trkpt lat="45.2077" lon="6.06422">
        <ele>1255.3</ele>
        <time>2022-06-18T05:14:48Z</time>
      </trkpt>
      <trkpt lat="45.20769" lon="6.06425">
        <ele>1255.7</ele>
        <time>2022-06-18T05:14:50Z</time>
      </trkpt>
      <trkpt lat="45.20768" lon="6.0643">
        <ele>1256.2</ele>
        <time>2022-06-18T05:14:51Z</time>
      </trkpt>
      <trkpt lat="45.20768" lon="6.06432">
        <ele>1256.4</ele>
        <time>2022-06-18T05:14:52Z</time>
      </trkpt>
      <trkpt lat="45.20767" lon="6.06436">
        <ele>1256.8</ele>
        <time>2022-06-18T05:14:53Z</time>
      </trkpt>
      <trkpt lat="45.20767" lon="6.06438">
        <ele>1256.9</ele>
        <time>2022-06-18T05:14:54Z</time>
      </trkpt>
      <trkpt lat="45.20766" lon="6.06442">
        <ele>1257.4</ele>
        <time>2022-06-18T05:14:55Z</time>
      </trkpt>
      <trkpt lat="45.20765" lon="6.06444">
        <ele>1257.6</ele>
        <time>2022-06-18T05:14:56Z</time>
      </trkpt>
      <trkpt lat="45.20764" lon="6.06449">
        <ele>1258.2</ele>
        <time>2022-06-18T05:14:57Z</time>
      </trkpt>
      <trkpt lat="45.20764" lon="6.06451">
        <ele>1258.4</ele>
        <time>2022-06-18T05:14:58Z</time>
      </trkpt>
      <trkpt lat="45.20762" lon="6.06456">
        <ele>1258.9</ele>
        <time>2022-06-18T05:14:59Z</time>
      </trkpt>
      <trkpt lat="45.20762" lon="6.06458">
        <ele>1259.1</ele>
        <time>2022-06-18T05:15:00Z</time>
      </trkpt>
      <trkpt lat="45.2076" lon="6.06462">
        <ele>1259.6</ele>
        <time>2022-06-18T05:15:01Z</time>
      </trkpt>
      <trkpt lat="45.20759" lon="6.06464">
        <ele>1259.7</ele>
        <time>2022-06-18T05:15:02Z</time>
      </trkpt>
      <trkpt lat="45.20758" lon="6.06467">
        <ele>1260.1</ele>
        <time>2022-06-18T05:15:03Z</time>
      </trkpt>
      <trkpt lat="45.20757" lon="6.06471">
        <ele>1260.5</ele>
        <time>2022-06-18T05:15:05Z</time>
      </trkpt>
      <trkpt lat="45.20756" lon="6.06474">
        <ele>1260.7</ele>
        <time>2022-06-18T05:15:06Z</time>
      </trkpt>
      <trkpt lat="45.20753" lon="6.06478">
        <ele>1261.3</ele>
        <time>2022-06-18T05:15:08Z</time>
      </trkpt>
      <trkpt lat="45.20751" lon="6.06482">
        <ele>1261.7</ele>
        <time>2022-06-18T05:15:09Z</time>
      </trkpt>
      <trkpt lat="45.2075" lon="6.06483">
        <ele>1261.9</ele>
        <time>2022-06-18T05:15:10Z</time>
      </trkpt>
      <trkpt lat="45.20748" lon="6.06486">
        <ele>1262.2</ele>
        <time>2022-06-18T05:15:11Z</time>
      </trkpt>
      <trkpt lat="45.20746" lon="6.06488">
        <ele>1262.6</ele>
        <time>2022-06-18T05:15:13Z</time>
      </trkpt>
      <trkpt lat="45.20743" lon="6.06492">
        <ele>1263.1</ele>
        <time>2022-06-18T05:15:14Z</time>
      </trkpt>
      <trkpt lat="45.20741" lon="6.06496">
        <ele>1263.5</ele>
        <time>2022-06-18T05:15:15Z</time>
      </trkpt>
      <trkpt lat="45.20739" lon="6.06502">
        <ele>1264</ele>
        <time>2022-06-18T05:15:17Z</time>
      </trkpt>
      <trkpt lat="45.20737" lon="6.06506">
        <ele>1264.4</ele>
        <time>2022-06-18T05:15:18Z</time>
      </trkpt>
      <trkpt lat="45.20736" lon="6.06508">
        <ele>1264.6</ele>
        <time>2022-06-18T05:15:19Z</time>
      </trkpt>
      <trkpt lat="45.20735" lon="6.06511">
        <ele>1264.9</ele>
        <time>2022-06-18T05:15:21Z</time>
      </trkpt>
      <trkpt lat="45.20733" lon="6.06515">
        <ele>1265.3</ele>
        <time>2022-06-18T05:15:22Z</time>
      </trkpt>
      <trkpt lat="45.20731" lon="6.06518">
        <ele>1265.6</ele>
        <time>2022-06-18T05:15:23Z</time>
      </trkpt>
      <trkpt lat="45.2073" lon="6.06522">
        <ele>1266</ele>
        <time>2022-06-18T05:15:25Z</time>
      </trkpt>
      <trkpt lat="45.20729" lon="6.06527">
        <ele>1266.4</ele>
        <time>2022-06-18T05:15:26Z</time>
      </trkpt>
      <trkpt lat="45.20728" lon="6.06531">
        <ele>1266.7</ele>
        <time>2022-06-18T05:15:27Z</time>
      </trkpt>
      <trkpt lat="45.20726" lon="6.06535">
        <ele>1267.1</ele>
        <time>2022-06-18T05:15:28Z</time>
      </trkpt>
      <trkpt lat="45.20726" lon="6.06536">
        <ele>1267.3</ele>
        <time>2022-06-18T05:15:29Z</time>
      </trkpt>
      <trkpt lat="45.20724" lon="6.0654">
        <ele>1267.7</ele>
        <time>2022-06-18T05:15:30Z</time>
      </trkpt>
      <trkpt lat="45.20722" lon="6.06544">
        <ele>1268.1</ele>
        <time>2022-06-18T05:15:31Z</time>
      </trkpt>
      <trkpt lat="45.2072" lon="6.06549">
        <ele>1268.5</ele>
        <time>2022-06-18T05:15:32Z</time>
      </trkpt>
      <trkpt lat="45.20718" lon="6.06554">
        <ele>1269</ele>
        <time>2022-06-18T05:15:33Z</time>
      </trkpt>
      <trkpt lat="45.20717" lon="6.06559">
        <ele>1269.5</ele>
        <time>2022-06-18T05:15:34Z</time>
      </trkpt>
      <trkpt lat="45.20714" lon="6.06564">
        <ele>1270</ele>
        <time>2022-06-18T05:15:36Z</time>
      </trkpt>
      <trkpt lat="45.20712" lon="6.06569">
        <ele>1270.5</ele>
        <time>2022-06-18T05:15:37Z</time>
      </trkpt>
      <trkpt lat="45.2071" lon="6.06573">
        <ele>1270.9</ele>
        <time>2022-06-18T05:15:38Z</time>
      </trkpt>
      <trkpt lat="45.20708" lon="6.06576">
        <ele>1271.2</ele>
        <time>2022-06-18T05:15:39Z</time>
      </trkpt>
      <trkpt lat="45.20706" lon="6.06579">
        <ele>1271.6</ele>
        <time>2022-06-18T05:15:40Z</time>
      </trkpt>
      <trkpt lat="45.20705" lon="6.0658">
        <ele>1271.7</ele>
        <time>2022-06-18T05:15:41Z</time>
      </trkpt>
      <trkpt lat="45.20703" lon="6.06583">
        <ele>1272</ele>
        <time>2022-06-18T05:15:42Z</time>
      </trkpt>
      <trkpt lat="45.20699" lon="6.06586">
        <ele>1272.5</ele>
        <time>2022-06-18T05:15:44Z</time>
      </trkpt>
      <trkpt lat="45.20696" lon="6.0659">
        <ele>1273</ele>
        <time>2022-06-18T05:15:45Z</time>
      </trkpt>
      <trkpt lat="45.20694" lon="6.06594">
        <ele>1273.4</ele>
        <time>2022-06-18T05:15:46Z</time>
      </trkpt>
      <trkpt lat="45.20692" lon="6.06598">
        <ele>1273.7</ele>
        <time>2022-06-18T05:15:47Z</time>
      </trkpt>
      <trkpt lat="45.20691" lon="6.066">
        <ele>1273.9</ele>
        <time>2022-06-18T05:15:48Z</time>
      </trkpt>
      <trkpt lat="45.20688" lon="6.06604">
        <ele>1274.3</ele>
        <time>2022-06-18T05:15:49Z</time>
      </trkpt>
      <trkpt lat="45.20687" lon="6.06606">
        <ele>1274.4</ele>
        <time>2022-06-18T05:15:50Z</time>
      </trkpt>
      <trkpt lat="45.20685" lon="6.0661">
        <ele>1274.8</ele>
        <time>2022-06-18T05:15:52Z</time>
      </trkpt>
      <trkpt lat="45.20681" lon="6.06615">
        <ele>1275.3</ele>
        <time>2022-06-18T05:15:53Z</time>
      </trkpt>
      <trkpt lat="45.20679" lon="6.06618">
        <ele>1275.6</ele>
        <time>2022-06-18T05:15:54Z</time>
      </trkpt>
      <trkpt lat="45.20677" lon="6.06621">
        <ele>1275.9</ele>
        <time>2022-06-18T05:15:55Z</time>
      </trkpt>
      <trkpt lat="45.20673" lon="6.06627">
        <ele>1276.4</ele>
        <time>2022-06-18T05:15:57Z</time>
      </trkpt>
      <trkpt lat="45.20672" lon="6.0663">
        <ele>1276.7</ele>
        <time>2022-06-18T05:15:58Z</time>
      </trkpt>
      <trkpt lat="45.2067" lon="6.06635">
        <ele>1277</ele>
        <time>2022-06-18T05:15:59Z</time>
      </trkpt>
      <trkpt lat="45.20668" lon="6.0664">
        <ele>1277.3</ele>
        <time>2022-06-18T05:16:01Z</time>
      </trkpt>
      <trkpt lat="45.20666" lon="6.06645">
        <ele>1277.7</ele>
        <time>2022-06-18T05:16:02Z</time>
      </trkpt>
      <trkpt lat="45.20664" lon="6.06649">
        <ele>1278</ele>
        <time>2022-06-18T05:16:04Z</time>
      </trkpt>
      <trkpt lat="45.20662" lon="6.06653">
        <ele>1278.3</ele>
        <time>2022-06-18T05:16:05Z</time>
      </trkpt>
      <trkpt lat="45.2066" lon="6.06657">
        <ele>1278.6</ele>
        <time>2022-06-18T05:16:06Z</time>
      </trkpt>
      <trkpt lat="45.20658" lon="6.0666">
        <ele>1278.9</ele>
        <time>2022-06-18T05:16:07Z</time>
      </trkpt>
      <trkpt lat="45.20656" lon="6.06664">
        <ele>1279.1</ele>
        <time>2022-06-18T05:16:08Z</time>
      </trkpt>
      <trkpt lat="45.20655" lon="6.06667">
        <ele>1279.4</ele>
        <time>2022-06-18T05:16:09Z</time>
      </trkpt>
      <trkpt lat="45.20653" lon="6.06672">
        <ele>1279.7</ele>
        <time>2022-06-18T05:16:11Z</time>
      </trkpt>
      <trkpt lat="45.2065" lon="6.06676">
        <ele>1280</ele>
        <time>2022-06-18T05:16:12Z</time>
      </trkpt>
      <trkpt lat="45.20648" lon="6.06682">
        <ele>1280.4</ele>
        <time>2022-06-18T05:16:13Z</time>
      </trkpt>
      <trkpt lat="45.20645" lon="6.06686">
        <ele>1280.8</ele>
        <time>2022-06-18T05:16:15Z</time>
      </trkpt>
      <trkpt lat="45.20643" lon="6.0669">
        <ele>1281.1</ele>
        <time>2022-06-18T05:16:16Z</time>
      </trkpt>
      <trkpt lat="45.20641" lon="6.06694">
        <ele>1281.4</ele>
        <time>2022-06-18T05:16:17Z</time>
      </trkpt>
      <trkpt lat="45.20639" lon="6.067">
        <ele>1281.8</ele>
        <time>2022-06-18T05:16:19Z</time>
      </trkpt>
      <trkpt lat="45.20637" lon="6.06706">
        <ele>1282.3</ele>
        <time>2022-06-18T05:16:20Z</time>
      </trkpt>
      <trkpt lat="45.20635" lon="6.0671">
        <ele>1282.6</ele>
        <time>2022-06-18T05:16:21Z</time>
      </trkpt>
      <trkpt lat="45.20633" lon="6.06714">
        <ele>1282.9</ele>
        <time>2022-06-18T05:16:23Z</time>
      </trkpt>
      <trkpt lat="45.20631" lon="6.06718">
        <ele>1283.2</ele>
        <time>2022-06-18T05:16:24Z</time>
      </trkpt>
      <trkpt lat="45.20629" lon="6.06722">
        <ele>1283.5</ele>
        <time>2022-06-18T05:16:25Z</time>
      </trkpt>
      <trkpt lat="45.20627" lon="6.06726">
        <ele>1283.9</ele>
        <time>2022-06-18T05:16:26Z</time>
      </trkpt>
      <trkpt lat="45.20625" lon="6.06729">
        <ele>1284.1</ele>
        <time>2022-06-18T05:16:27Z</time>
      </trkpt>
      <trkpt lat="45.20623" lon="6.06735">
        <ele>1284.5</ele>
        <time>2022-06-18T05:16:28Z</time>
      </trkpt>
      <trkpt lat="45.20623" lon="6.06737">
        <ele>1284.7</ele>
        <time>2022-06-18T05:16:29Z</time>
      </trkpt>
      <trkpt lat="45.2062" lon="6.06742">
        <ele>1285.2</ele>
        <time>2022-06-18T05:16:31Z</time>
      </trkpt>
      <trkpt lat="45.20617" lon="6.06746">
        <ele>1285.6</ele>
        <time>2022-06-18T05:16:32Z</time>
      </trkpt>
      <trkpt lat="45.20615" lon="6.0675">
        <ele>1285.9</ele>
        <time>2022-06-18T05:16:33Z</time>
      </trkpt>
      <trkpt lat="45.20614" lon="6.06755">
        <ele>1286.3</ele>
        <time>2022-06-18T05:16:34Z</time>
      </trkpt>
      <trkpt lat="45.20613" lon="6.06756">
        <ele>1286.4</ele>
        <time>2022-06-18T05:16:35Z</time>
      </trkpt>
      <trkpt lat="45.20612" lon="6.06762">
        <ele>1286.8</ele>
        <time>2022-06-18T05:16:36Z</time>
      </trkpt>
      <trkpt lat="45.20611" lon="6.06763">
        <ele>1287</ele>
        <time>2022-06-18T05:16:37Z</time>
      </trkpt>
      <trkpt lat="45.20609" lon="6.06767">
        <ele>1287.3</ele>
        <time>2022-06-18T05:16:38Z</time>
      </trkpt>
      <trkpt lat="45.20607" lon="6.0677">
        <ele>1287.6</ele>
        <time>2022-06-18T05:16:39Z</time>
      </trkpt>
      <trkpt lat="45.20605" lon="6.06772">
        <ele>1287.9</ele>
        <time>2022-06-18T05:16:40Z</time>
      </trkpt>
      <trkpt lat="45.20604" lon="6.06775">
        <ele>1288.2</ele>
        <time>2022-06-18T05:16:42Z</time>
      </trkpt>
      <trkpt lat="45.20601" lon="6.06779">
        <ele>1288.6</ele>
        <time>2022-06-18T05:16:43Z</time>
      </trkpt>
      <trkpt lat="45.20599" lon="6.06782">
        <ele>1288.9</ele>
        <time>2022-06-18T05:16:44Z</time>
      </trkpt>
      <trkpt lat="45.20597" lon="6.06785">
        <ele>1289.2</ele>
        <time>2022-06-18T05:16:45Z</time>
      </trkpt>
      <trkpt lat="45.20594" lon="6.06789">
        <ele>1289.6</ele>
        <time>2022-06-18T05:16:46Z</time>
      </trkpt>
      <trkpt lat="45.20592" lon="6.06792">
        <ele>1289.9</ele>
        <time>2022-06-18T05:16:47Z</time>
      </trkpt>
      <trkpt lat="45.2059" lon="6.06797">
        <ele>1290.3</ele>
        <time>2022-06-18T05:16:48Z</time>
      </trkpt>
      <trkpt lat="45.20589" lon="6.06798">
        <ele>1290.5</ele>
        <time>2022-06-18T05:16:49Z</time>
      </trkpt>
      <trkpt lat="45.20587" lon="6.06802">
        <ele>1290.8</ele>
        <time>2022-06-18T05:16:50Z</time>
      </trkpt>
      <trkpt lat="45.20585" lon="6.06805">
        <ele>1291.1</ele>
        <time>2022-06-18T05:16:51Z</time>
      </trkpt>
      <trkpt lat="45.20584" lon="6.0681">
        <ele>1291.5</ele>
        <time>2022-06-18T05:16:52Z</time>
      </trkpt>
      <trkpt lat="45.20583" lon="6.06812">
        <ele>1291.7</ele>
        <time>2022-06-18T05:16:53Z</time>
      </trkpt>
      <trkpt lat="45.20583" lon="6.06816">
        <ele>1292</ele>
        <time>2022-06-18T05:16:54Z</time>
      </trkpt>
      <trkpt lat="45.20581" lon="6.06821">
        <ele>1292.3</ele>
        <time>2022-06-18T05:16:55Z</time>
      </trkpt>
      <trkpt lat="45.20581" lon="6.06825">
        <ele>1292.7</ele>
        <time>2022-06-18T05:16:56Z</time>
      </trkpt>
      <trkpt lat="45.2058" lon="6.06829">
        <ele>1293</ele>
        <time>2022-06-18T05:16:57Z</time>
      </trkpt>
      <trkpt lat="45.2058" lon="6.06836">
        <ele>1293.5</ele>
        <time>2022-06-18T05:16:59Z</time>
      </trkpt>
      <trkpt lat="45.2058" lon="6.0684">
        <ele>1293.9</ele>
        <time>2022-06-18T05:17:00Z</time>
      </trkpt>
      <trkpt lat="45.20579" lon="6.06846">
        <ele>1294.4</ele>
        <time>2022-06-18T05:17:01Z</time>
      </trkpt>
      <trkpt lat="45.20578" lon="6.06848">
        <ele>1294.5</ele>
        <time>2022-06-18T05:17:02Z</time>
      </trkpt>
      <trkpt lat="45.20577" lon="6.06852">
        <ele>1295</ele>
        <time>2022-06-18T05:17:03Z</time>
      </trkpt>
      <trkpt lat="45.20576" lon="6.06854">
        <ele>1295.1</ele>
        <time>2022-06-18T05:17:04Z</time>
      </trkpt>
      <trkpt lat="45.20575" lon="6.06858">
        <ele>1295.4</ele>
        <time>2022-06-18T05:17:06Z</time>
      </trkpt>
      <trkpt lat="45.20575" lon="6.06862">
        <ele>1295.8</ele>
        <time>2022-06-18T05:17:07Z</time>
      </trkpt>
      <trkpt lat="45.20574" lon="6.06866">
        <ele>1296.2</ele>
        <time>2022-06-18T05:17:08Z</time>
      </trkpt>
      <trkpt lat="45.20573" lon="6.0687">
        <ele>1296.6</ele>
        <time>2022-06-18T05:17:09Z</time>
      </trkpt>
      <trkpt lat="45.20572" lon="6.06872">
        <ele>1296.8</ele>
        <time>2022-06-18T05:17:10Z</time>
      </trkpt>
      <trkpt lat="45.20571" lon="6.06875">
        <ele>1297.1</ele>
        <time>2022-06-18T05:17:11Z</time>
      </trkpt>
      <trkpt lat="45.2057" lon="6.06877">
        <ele>1297.3</ele>
        <time>2022-06-18T05:17:12Z</time>
      </trkpt>
      <trkpt lat="45.2057" lon="6.0688">
        <ele>1297.7</ele>
        <time>2022-06-18T05:17:13Z</time>
      </trkpt>
      <trkpt lat="45.20568" lon="6.06887">
        <ele>1298.3</ele>
        <time>2022-06-18T05:17:15Z</time>
      </trkpt>
      <trkpt lat="45.20567" lon="6.0689">
        <ele>1298.6</ele>
        <time>2022-06-18T05:17:16Z</time>
      </trkpt>
      <trkpt lat="45.20566" lon="6.06894">
        <ele>1299</ele>
        <time>2022-06-18T05:17:17Z</time>
      </trkpt>
      <trkpt lat="45.20565" lon="6.06896">
        <ele>1299.1</ele>
        <time>2022-06-18T05:17:18Z</time>
      </trkpt>
      <trkpt lat="45.20563" lon="6.06903">
        <ele>1299.8</ele>
        <time>2022-06-18T05:17:20Z</time>
      </trkpt>
      <trkpt lat="45.2056" lon="6.0691">
        <ele>1300.3</ele>
        <time>2022-06-18T05:17:21Z</time>
      </trkpt>
      <trkpt lat="45.20559" lon="6.06915">
        <ele>1300.7</ele>
        <time>2022-06-18T05:17:22Z</time>
      </trkpt>
      <trkpt lat="45.20556" lon="6.06923">
        <ele>1301.3</ele>
        <time>2022-06-18T05:17:24Z</time>
      </trkpt>
      <trkpt lat="45.20554" lon="6.06926">
        <ele>1301.6</ele>
        <time>2022-06-18T05:17:25Z</time>
      </trkpt>
      <trkpt lat="45.20551" lon="6.06932">
        <ele>1301.9</ele>
        <time>2022-06-18T05:17:26Z</time>
      </trkpt>
      <trkpt lat="45.20549" lon="6.06936">
        <ele>1302.2</ele>
        <time>2022-06-18T05:17:27Z</time>
      </trkpt>
      <trkpt lat="45.20547" lon="6.06939">
        <ele>1302.4</ele>
        <time>2022-06-18T05:17:28Z</time>
      </trkpt>
      <trkpt lat="45.20545" lon="6.06944">
        <ele>1302.7</ele>
        <time>2022-06-18T05:17:30Z</time>
      </trkpt>
      <trkpt lat="45.20543" lon="6.06949">
        <ele>1303</ele>
        <time>2022-06-18T05:17:31Z</time>
      </trkpt>
      <trkpt lat="45.20541" lon="6.06953">
        <ele>1303.2</ele>
        <time>2022-06-18T05:17:32Z</time>
      </trkpt>
      <trkpt lat="45.2054" lon="6.06957">
        <ele>1303.4</ele>
        <time>2022-06-18T05:17:33Z</time>
      </trkpt>
      <trkpt lat="45.20539" lon="6.06961">
        <ele>1303.6</ele>
        <time>2022-06-18T05:17:34Z</time>
      </trkpt>
      <trkpt lat="45.20537" lon="6.06965">
        <ele>1303.8</ele>
        <time>2022-06-18T05:17:35Z</time>
      </trkpt>
      <trkpt lat="45.20534" lon="6.06969">
        <ele>1304</ele>
        <time>2022-06-18T05:17:36Z</time>
      </trkpt>
      <trkpt lat="45.20533" lon="6.06972">
        <ele>1304.2</ele>
        <time>2022-06-18T05:17:37Z</time>
      </trkpt>
      <trkpt lat="45.20531" lon="6.06976">
        <ele>1304.4</ele>
        <time>2022-06-18T05:17:38Z</time>
      </trkpt>
      <trkpt lat="45.20529" lon="6.06981">
        <ele>1304.6</ele>
        <time>2022-06-18T05:17:40Z</time>
      </trkpt>
      <trkpt lat="45.20527" lon="6.06985">
        <ele>1304.8</ele>
        <time>2022-06-18T05:17:41Z</time>
      </trkpt>
      <trkpt lat="45.20525" lon="6.06991">
        <ele>1305.1</ele>
        <time>2022-06-18T05:17:42Z</time>
      </trkpt>
      <trkpt lat="45.20522" lon="6.06999">
        <ele>1305.4</ele>
        <time>2022-06-18T05:17:44Z</time>
      </trkpt>
      <trkpt lat="45.20521" lon="6.07004">
        <ele>1305.6</ele>
        <time>2022-06-18T05:17:45Z</time>
      </trkpt>
      <trkpt lat="45.20519" lon="6.07012">
        <ele>1305.9</ele>
        <time>2022-06-18T05:17:47Z</time>
      </trkpt>
      <trkpt lat="45.20517" lon="6.07019">
        <ele>1306.1</ele>
        <time>2022-06-18T05:17:48Z</time>
      </trkpt>
      <trkpt lat="45.20516" lon="6.07026">
        <ele>1306.4</ele>
        <time>2022-06-18T05:17:49Z</time>
      </trkpt>
      <trkpt lat="45.20514" lon="6.07035">
        <ele>1306.6</ele>
        <time>2022-06-18T05:17:51Z</time>
      </trkpt>
      <trkpt lat="45.20513" lon="6.0704">
        <ele>1306.8</ele>
        <time>2022-06-18T05:17:52Z</time>
      </trkpt>
      <trkpt lat="45.20512" lon="6.07046">
        <ele>1306.9</ele>
        <time>2022-06-18T05:17:53Z</time>
      </trkpt>
      <trkpt lat="45.20511" lon="6.07052">
        <ele>1307.1</ele>
        <time>2022-06-18T05:17:55Z</time>
      </trkpt>
      <trkpt lat="45.20509" lon="6.07058">
        <ele>1307.2</ele>
        <time>2022-06-18T05:17:56Z</time>
      </trkpt>
      <trkpt lat="45.20506" lon="6.07066">
        <ele>1307.4</ele>
        <time>2022-06-18T05:17:57Z</time>
      </trkpt>
      <trkpt lat="45.20505" lon="6.0707">
        <ele>1307.5</ele>
        <time>2022-06-18T05:17:58Z</time>
      </trkpt>
      <trkpt lat="45.20502" lon="6.07076">
        <ele>1307.5</ele>
        <time>2022-06-18T05:17:59Z</time>
      </trkpt>
      <trkpt lat="45.205" lon="6.0708">
        <ele>1307.6</ele>
        <time>2022-06-18T05:18:00Z</time>
      </trkpt>
      <trkpt lat="45.20497" lon="6.07087">
        <ele>1307.6</ele>
        <time>2022-06-18T05:18:01Z</time>
      </trkpt>
      <trkpt lat="45.20495" lon="6.07092">
        <ele>1307.6</ele>
        <time>2022-06-18T05:18:02Z</time>
      </trkpt>
      <trkpt lat="45.20492" lon="6.07097">
        <ele>1307.6</ele>
        <time>2022-06-18T05:18:03Z</time>
      </trkpt>
      <trkpt lat="45.20488" lon="6.07104">
        <ele>1307.5</ele>
        <time>2022-06-18T05:18:04Z</time>
      </trkpt>
      <trkpt lat="45.20485" lon="6.07109">
        <ele>1307.3</ele>
        <time>2022-06-18T05:18:05Z</time>
      </trkpt>
      <trkpt lat="45.20483" lon="6.07116">
        <ele>1307.2</ele>
        <time>2022-06-18T05:18:06Z</time>
      </trkpt>
      <trkpt lat="45.2048" lon="6.07123">
        <ele>1306.9</ele>
        <time>2022-06-18T05:18:07Z</time>
      </trkpt>
      <trkpt lat="45.20478" lon="6.0713">
        <ele>1306.7</ele>
        <time>2022-06-18T05:18:08Z</time>
      </trkpt>
      <trkpt lat="45.20476" lon="6.07138">
        <ele>1306.4</ele>
        <time>2022-06-18T05:18:09Z</time>
      </trkpt>
      <trkpt lat="45.20474" lon="6.07146">
        <ele>1306.1</ele>
        <time>2022-06-18T05:18:10Z</time>
      </trkpt>
      <trkpt lat="45.20473" lon="6.07155">
        <ele>1305.7</ele>
        <time>2022-06-18T05:18:11Z</time>
      </trkpt>
      <trkpt lat="45.20471" lon="6.07165">
        <ele>1305.4</ele>
        <time>2022-06-18T05:18:12Z</time>
      </trkpt>
      <trkpt lat="45.2047" lon="6.07175">
        <ele>1305</ele>
        <time>2022-06-18T05:18:13Z</time>
      </trkpt>
      <trkpt lat="45.20468" lon="6.07184">
        <ele>1304.6</ele>
        <time>2022-06-18T05:18:14Z</time>
      </trkpt>
      <trkpt lat="45.20466" lon="6.07193">
        <ele>1304.2</ele>
        <time>2022-06-18T05:18:15Z</time>
      </trkpt>
      <trkpt lat="45.20462" lon="6.07203">
        <ele>1303.8</ele>
        <time>2022-06-18T05:18:16Z</time>
      </trkpt>
      <trkpt lat="45.20458" lon="6.07212">
        <ele>1303.3</ele>
        <time>2022-06-18T05:18:17Z</time>
      </trkpt>
      <trkpt lat="45.20454" lon="6.07221">
        <ele>1302.8</ele>
        <time>2022-06-18T05:18:18Z</time>
      </trkpt>
      <trkpt lat="45.20449" lon="6.0723">
        <ele>1302.3</ele>
        <time>2022-06-18T05:18:19Z</time>
      </trkpt>
      <trkpt lat="45.20444" lon="6.07239">
        <ele>1301.7</ele>
        <time>2022-06-18T05:18:20Z</time>
      </trkpt>
      <trkpt lat="45.20439" lon="6.07247">
        <ele>1301.2</ele>
        <time>2022-06-18T05:18:21Z</time>
      </trkpt>
      <trkpt lat="45.20433" lon="6.07256">
        <ele>1300.7</ele>
        <time>2022-06-18T05:18:22Z</time>
      </trkpt>
      <trkpt lat="45.20428" lon="6.07266">
        <ele>1300.3</ele>
        <time>2022-06-18T05:18:23Z</time>
      </trkpt>
      <trkpt lat="45.20425" lon="6.07278">
        <ele>1299.8</ele>
        <time>2022-06-18T05:18:24Z</time>
      </trkpt>
      <trkpt lat="45.20425" lon="6.07291">
        <ele>1299.9</ele>
        <time>2022-06-18T05:18:25Z</time>
      </trkpt>
      <trkpt lat="45.20427" lon="6.07304">
        <ele>1300.2</ele>
        <time>2022-06-18T05:18:26Z</time>
      </trkpt>
      <trkpt lat="45.2043" lon="6.07316">
        <ele>1300.6</ele>
        <time>2022-06-18T05:18:27Z</time>
      </trkpt>
      <trkpt lat="45.20435" lon="6.07328">
        <ele>1301.2</ele>
        <time>2022-06-18T05:18:28Z</time>
      </trkpt>
      <trkpt lat="45.20438" lon="6.07338">
        <ele>1302</ele>
        <time>2022-06-18T05:18:29Z</time>
      </trkpt>
      <trkpt lat="45.20439" lon="6.07347">
        <ele>1302.8</ele>
        <time>2022-06-18T05:18:30Z</time>
      </trkpt>
      <trkpt lat="45.20438" lon="6.07354">
        <ele>1303.5</ele>
        <time>2022-06-18T05:18:31Z</time>
      </trkpt>
      <trkpt lat="45.20436" lon="6.07359">
        <ele>1304</ele>
        <time>2022-06-18T05:18:32Z</time>
      </trkpt>
      <trkpt lat="45.20433" lon="6.07362">
        <ele>1304.6</ele>
        <time>2022-06-18T05:18:33Z</time>
      </trkpt>
      <trkpt lat="45.20431" lon="6.07363">
        <ele>1304.8</ele>
        <time>2022-06-18T05:18:34Z</time>
      </trkpt>
      <trkpt lat="45.20429" lon="6.07364">
        <ele>1305.1</ele>
        <time>2022-06-18T05:18:35Z</time>
      </trkpt>
      <trkpt lat="45.20428" lon="6.07365">
        <ele>1305.2</ele>
        <time>2022-06-18T05:18:36Z</time>
      </trkpt>
      <trkpt lat="45.20426" lon="6.07367">
        <ele>1305.5</ele>
        <time>2022-06-18T05:18:37Z</time>
      </trkpt>
      <trkpt lat="45.20426" lon="6.07368">
        <ele>1305.6</ele>
        <time>2022-06-18T05:18:38Z</time>
      </trkpt>
      <trkpt lat="45.20425" lon="6.07368">
        <ele>1305.7</ele>
        <time>2022-06-18T05:18:39Z</time>
      </trkpt>
      <trkpt lat="45.20425" lon="6.07372">
        <ele>1306</ele>
        <time>2022-06-18T05:18:41Z</time>
      </trkpt>
      <trkpt lat="45.20424" lon="6.07374">
        <ele>1306.3</ele>
        <time>2022-06-18T05:18:42Z</time>
      </trkpt>
      <trkpt lat="45.20421" lon="6.07377">
        <ele>1306.7</ele>
        <time>2022-06-18T05:18:43Z</time>
      </trkpt>
      <trkpt lat="45.2042" lon="6.07378">
        <ele>1306.8</ele>
        <time>2022-06-18T05:18:44Z</time>
      </trkpt>
      <trkpt lat="45.20418" lon="6.07382">
        <ele>1307.1</ele>
        <time>2022-06-18T05:18:45Z</time>
      </trkpt>
      <trkpt lat="45.20418" lon="6.07383">
        <ele>1307.3</ele>
        <time>2022-06-18T05:18:46Z</time>
      </trkpt>
      <trkpt lat="45.20415" lon="6.07387">
        <ele>1307.7</ele>
        <time>2022-06-18T05:18:47Z</time>
      </trkpt>
      <trkpt lat="45.20414" lon="6.07388">
        <ele>1307.8</ele>
        <time>2022-06-18T05:18:48Z</time>
      </trkpt>
      <trkpt lat="45.20411" lon="6.07391">
        <ele>1308.2</ele>
        <time>2022-06-18T05:18:50Z</time>
      </trkpt>
      <trkpt lat="45.20409" lon="6.07395">
        <ele>1308.6</ele>
        <time>2022-06-18T05:18:51Z</time>
      </trkpt>
      <trkpt lat="45.20407" lon="6.07398">
        <ele>1308.8</ele>
        <time>2022-06-18T05:18:52Z</time>
      </trkpt>
      <trkpt lat="45.20405" lon="6.07402">
        <ele>1309.2</ele>
        <time>2022-06-18T05:18:54Z</time>
      </trkpt>
      <trkpt lat="45.20403" lon="6.07407">
        <ele>1309.5</ele>
        <time>2022-06-18T05:18:55Z</time>
      </trkpt>
      <trkpt lat="45.20403" lon="6.07408">
        <ele>1309.7</ele>
        <time>2022-06-18T05:18:56Z</time>
      </trkpt>
      <trkpt lat="45.20399" lon="6.07413">
        <ele>1310.1</ele>
        <time>2022-06-18T05:18:58Z</time>
      </trkpt>
      <trkpt lat="45.20398" lon="6.07415">
        <ele>1310.3</ele>
        <time>2022-06-18T05:18:59Z</time>
      </trkpt>
      <trkpt lat="45.20397" lon="6.07417">
        <ele>1310.4</ele>
        <time>2022-06-18T05:19:00Z</time>
      </trkpt>
      <trkpt lat="45.20395" lon="6.07421">
        <ele>1310.7</ele>
        <time>2022-06-18T05:19:01Z</time>
      </trkpt>
      <trkpt lat="45.20393" lon="6.07424">
        <ele>1311</ele>
        <time>2022-06-18T05:19:02Z</time>
      </trkpt>
      <trkpt lat="45.20392" lon="6.07426">
        <ele>1311.1</ele>
        <time>2022-06-18T05:19:03Z</time>
      </trkpt>
      <trkpt lat="45.20391" lon="6.0743">
        <ele>1311.4</ele>
        <time>2022-06-18T05:19:04Z</time>
      </trkpt>
      <trkpt lat="45.2039" lon="6.07431">
        <ele>1311.5</ele>
        <time>2022-06-18T05:19:05Z</time>
      </trkpt>
      <trkpt lat="45.20388" lon="6.07436">
        <ele>1311.8</ele>
        <time>2022-06-18T05:19:06Z</time>
      </trkpt>
      <trkpt lat="45.20388" lon="6.07438">
        <ele>1311.9</ele>
        <time>2022-06-18T05:19:07Z</time>
      </trkpt>
      <trkpt lat="45.20386" lon="6.07441">
        <ele>1312.2</ele>
        <time>2022-06-18T05:19:08Z</time>
      </trkpt>
      <trkpt lat="45.20385" lon="6.07442">
        <ele>1312.3</ele>
        <time>2022-06-18T05:19:09Z</time>
      </trkpt>
      <trkpt lat="45.20383" lon="6.07444">
        <ele>1312.4</ele>
        <time>2022-06-18T05:19:10Z</time>
      </trkpt>
      <trkpt lat="45.20382" lon="6.07445">
        <ele>1312.5</ele>
        <time>2022-06-18T05:19:11Z</time>
      </trkpt>
      <trkpt lat="45.20381" lon="6.07448">
        <ele>1312.8</ele>
        <time>2022-06-18T05:19:12Z</time>
      </trkpt>
      <trkpt lat="45.20379" lon="6.07452">
        <ele>1313</ele>
        <time>2022-06-18T05:19:14Z</time>
      </trkpt>
      <trkpt lat="45.20379" lon="6.07453">
        <ele>1313.1</ele>
        <time>2022-06-18T05:19:15Z</time>
      </trkpt>
      <trkpt lat="45.20379" lon="6.07457">
        <ele>1313.4</ele>
        <time>2022-06-18T05:19:17Z</time>
      </trkpt>
      <trkpt lat="45.20378" lon="6.07459">
        <ele>1313.5</ele>
        <time>2022-06-18T05:19:18Z</time>
      </trkpt>
      <trkpt lat="45.20378" lon="6.07462">
        <ele>1313.9</ele>
        <time>2022-06-18T05:19:19Z</time>
      </trkpt>
      <trkpt lat="45.20377" lon="6.07469">
        <ele>1314.6</ele>
        <time>2022-06-18T05:19:21Z</time>
      </trkpt>
      <trkpt lat="45.20378" lon="6.07478">
        <ele>1315.5</ele>
        <time>2022-06-18T05:19:22Z</time>
      </trkpt>
      <trkpt lat="45.20378" lon="6.07485">
        <ele>1316.2</ele>
        <time>2022-06-18T05:19:23Z</time>
      </trkpt>
      <trkpt lat="45.20377" lon="6.07489">
        <ele>1316.6</ele>
        <time>2022-06-18T05:19:24Z</time>
      </trkpt>
      <trkpt lat="45.20376" lon="6.07493">
        <ele>1317</ele>
        <time>2022-06-18T05:19:25Z</time>
      </trkpt>
      <trkpt lat="45.20375" lon="6.07498">
        <ele>1317.6</ele>
        <time>2022-06-18T05:19:26Z</time>
      </trkpt>
      <trkpt lat="45.20374" lon="6.075">
        <ele>1317.8</ele>
        <time>2022-06-18T05:19:27Z</time>
      </trkpt>
      <trkpt lat="45.20373" lon="6.07504">
        <ele>1318.3</ele>
        <time>2022-06-18T05:19:28Z</time>
      </trkpt>
      <trkpt lat="45.20373" lon="6.07506">
        <ele>1318.5</ele>
        <time>2022-06-18T05:19:29Z</time>
      </trkpt>
      <trkpt lat="45.20372" lon="6.0751">
        <ele>1319</ele>
        <time>2022-06-18T05:19:30Z</time>
      </trkpt>
      <trkpt lat="45.20371" lon="6.07511">
        <ele>1319.2</ele>
        <time>2022-06-18T05:19:31Z</time>
      </trkpt>
      <trkpt lat="45.20367" lon="6.07515">
        <ele>1319.8</ele>
        <time>2022-06-18T05:19:33Z</time>
      </trkpt>
      <trkpt lat="45.20365" lon="6.07517">
        <ele>1320.3</ele>
        <time>2022-06-18T05:19:34Z</time>
      </trkpt>
      <trkpt lat="45.20362" lon="6.07521">
        <ele>1320.9</ele>
        <time>2022-06-18T05:19:35Z</time>
      </trkpt>
      <trkpt lat="45.20361" lon="6.07522">
        <ele>1321.1</ele>
        <time>2022-06-18T05:19:36Z</time>
      </trkpt>
      <trkpt lat="45.20358" lon="6.07526">
        <ele>1321.7</ele>
        <time>2022-06-18T05:19:38Z</time>
      </trkpt>
      <trkpt lat="45.20356" lon="6.07529">
        <ele>1322.2</ele>
        <time>2022-06-18T05:19:39Z</time>
      </trkpt>
      <trkpt lat="45.20353" lon="6.07532">
        <ele>1322.7</ele>
        <time>2022-06-18T05:19:40Z</time>
      </trkpt>
      <trkpt lat="45.20349" lon="6.07534">
        <ele>1323.3</ele>
        <time>2022-06-18T05:19:42Z</time>
      </trkpt>
      <trkpt lat="45.20346" lon="6.07537">
        <ele>1323.9</ele>
        <time>2022-06-18T05:19:43Z</time>
      </trkpt>
      <trkpt lat="45.20344" lon="6.07538">
        <ele>1324.2</ele>
        <time>2022-06-18T05:19:44Z</time>
      </trkpt>
      <trkpt lat="45.20342" lon="6.0754">
        <ele>1324.5</ele>
        <time>2022-06-18T05:19:45Z</time>
      </trkpt>
      <trkpt lat="45.20338" lon="6.07545">
        <ele>1325.3</ele>
        <time>2022-06-18T05:19:47Z</time>
      </trkpt>
      <trkpt lat="45.20336" lon="6.07547">
        <ele>1325.7</ele>
        <time>2022-06-18T05:19:48Z</time>
      </trkpt>
      <trkpt lat="45.20333" lon="6.0755">
        <ele>1326.3</ele>
        <time>2022-06-18T05:19:49Z</time>
      </trkpt>
      <trkpt lat="45.20332" lon="6.0755">
        <ele>1326.5</ele>
        <time>2022-06-18T05:19:50Z</time>
      </trkpt>
      <trkpt lat="45.20328" lon="6.07553">
        <ele>1327.1</ele>
        <time>2022-06-18T05:19:51Z</time>
      </trkpt>
      <trkpt lat="45.20327" lon="6.07554">
        <ele>1327.3</ele>
        <time>2022-06-18T05:19:52Z</time>
      </trkpt>
      <trkpt lat="45.20323" lon="6.07558">
        <ele>1328</ele>
        <time>2022-06-18T05:19:54Z</time>
      </trkpt>
      <trkpt lat="45.20322" lon="6.0756">
        <ele>1328.3</ele>
        <time>2022-06-18T05:19:55Z</time>
      </trkpt>
      <trkpt lat="45.2032" lon="6.07561">
        <ele>1328.6</ele>
        <time>2022-06-18T05:19:56Z</time>
      </trkpt>
      <trkpt lat="45.20318" lon="6.07564">
        <ele>1329.1</ele>
        <time>2022-06-18T05:19:57Z</time>
      </trkpt>
      <trkpt lat="45.20317" lon="6.07565">
        <ele>1329.2</ele>
        <time>2022-06-18T05:19:58Z</time>
      </trkpt>
      <trkpt lat="45.20315" lon="6.07568">
        <ele>1329.6</ele>
        <time>2022-06-18T05:19:59Z</time>
      </trkpt>
      <trkpt lat="45.20311" lon="6.07571">
        <ele>1330.2</ele>
        <time>2022-06-18T05:20:00Z</time>
      </trkpt>
      <trkpt lat="45.2031" lon="6.07572">
        <ele>1330.4</ele>
        <time>2022-06-18T05:20:01Z</time>
      </trkpt>
      <trkpt lat="45.20308" lon="6.07574">
        <ele>1330.8</ele>
        <time>2022-06-18T05:20:02Z</time>
      </trkpt>
      <trkpt lat="45.20306" lon="6.07575">
        <ele>1331.2</ele>
        <time>2022-06-18T05:20:03Z</time>
      </trkpt>
      <trkpt lat="45.20303" lon="6.07578">
        <ele>1331.7</ele>
        <time>2022-06-18T05:20:05Z</time>
      </trkpt>
      <trkpt lat="45.203" lon="6.0758">
        <ele>1332.2</ele>
        <time>2022-06-18T05:20:06Z</time>
      </trkpt>
      <trkpt lat="45.20298" lon="6.07581">
        <ele>1332.4</ele>
        <time>2022-06-18T05:20:07Z</time>
      </trkpt>
      <trkpt lat="45.20296" lon="6.07584">
        <ele>1332.9</ele>
        <time>2022-06-18T05:20:08Z</time>
      </trkpt>
      <trkpt lat="45.20293" lon="6.07587">
        <ele>1333.3</ele>
        <time>2022-06-18T05:20:09Z</time>
      </trkpt>
      <trkpt lat="45.20292" lon="6.07588">
        <ele>1333.5</ele>
        <time>2022-06-18T05:20:10Z</time>
      </trkpt>
      <trkpt lat="45.20291" lon="6.07589">
        <ele>1333.8</ele>
        <time>2022-06-18T05:20:11Z</time>
      </trkpt>
      <trkpt lat="45.20288" lon="6.07592">
        <ele>1334.2</ele>
        <time>2022-06-18T05:20:13Z</time>
      </trkpt>
      <trkpt lat="45.20285" lon="6.07594">
        <ele>1334.7</ele>
        <time>2022-06-18T05:20:14Z</time>
      </trkpt>
      <trkpt lat="45.20283" lon="6.07596">
        <ele>1335.1</ele>
        <time>2022-06-18T05:20:15Z</time>
      </trkpt>
      <trkpt lat="45.20279" lon="6.07598">
        <ele>1335.6</ele>
        <time>2022-06-18T05:20:17Z</time>
      </trkpt>
      <trkpt lat="45.20276" lon="6.07602">
        <ele>1336.2</ele>
        <time>2022-06-18T05:20:18Z</time>
      </trkpt>
      <trkpt lat="45.20276" lon="6.07603">
        <ele>1336.4</ele>
        <time>2022-06-18T05:20:19Z</time>
      </trkpt>
      <trkpt lat="45.20274" lon="6.07608">
        <ele>1336.9</ele>
        <time>2022-06-18T05:20:20Z</time>
      </trkpt>
      <trkpt lat="45.20273" lon="6.0761">
        <ele>1337.1</ele>
        <time>2022-06-18T05:20:21Z</time>
      </trkpt>
      <trkpt lat="45.20272" lon="6.07614">
        <ele>1337.6</ele>
        <time>2022-06-18T05:20:22Z</time>
      </trkpt>
      <trkpt lat="45.20271" lon="6.07615">
        <ele>1337.7</ele>
        <time>2022-06-18T05:20:23Z</time>
      </trkpt>
      <trkpt lat="45.2027" lon="6.07619">
        <ele>1338.1</ele>
        <time>2022-06-18T05:20:25Z</time>
      </trkpt>
      <trkpt lat="45.20268" lon="6.07623">
        <ele>1338.6</ele>
        <time>2022-06-18T05:20:26Z</time>
      </trkpt>
      <trkpt lat="45.20266" lon="6.07627">
        <ele>1339</ele>
        <time>2022-06-18T05:20:27Z</time>
      </trkpt>
      <trkpt lat="45.20266" lon="6.07628">
        <ele>1339.1</ele>
        <time>2022-06-18T05:20:28Z</time>
      </trkpt>
      <trkpt lat="45.20265" lon="6.0763">
        <ele>1339.4</ele>
        <time>2022-06-18T05:20:29Z</time>
      </trkpt>
      <trkpt lat="45.20262" lon="6.07634">
        <ele>1339.9</ele>
        <time>2022-06-18T05:20:31Z</time>
      </trkpt>
      <trkpt lat="45.20259" lon="6.07638">
        <ele>1340.6</ele>
        <time>2022-06-18T05:20:33Z</time>
      </trkpt>
      <trkpt lat="45.20257" lon="6.0764">
        <ele>1340.8</ele>
        <time>2022-06-18T05:20:34Z</time>
      </trkpt>
      <trkpt lat="45.20256" lon="6.07641">
        <ele>1341</ele>
        <time>2022-06-18T05:20:35Z</time>
      </trkpt>
      <trkpt lat="45.20254" lon="6.07644">
        <ele>1341.4</ele>
        <time>2022-06-18T05:20:36Z</time>
      </trkpt>
      <trkpt lat="45.20251" lon="6.07646">
        <ele>1341.8</ele>
        <time>2022-06-18T05:20:37Z</time>
      </trkpt>
      <trkpt lat="45.20248" lon="6.07648">
        <ele>1342.3</ele>
        <time>2022-06-18T05:20:38Z</time>
      </trkpt>
      <trkpt lat="45.20245" lon="6.07651">
        <ele>1342.8</ele>
        <time>2022-06-18T05:20:40Z</time>
      </trkpt>
      <trkpt lat="45.20241" lon="6.07654">
        <ele>1343.5</ele>
        <time>2022-06-18T05:20:41Z</time>
      </trkpt>
      <trkpt lat="45.20237" lon="6.07658">
        <ele>1344.2</ele>
        <time>2022-06-18T05:20:42Z</time>
      </trkpt>
      <trkpt lat="45.20235" lon="6.07661">
        <ele>1344.7</ele>
        <time>2022-06-18T05:20:43Z</time>
      </trkpt>
      <trkpt lat="45.20232" lon="6.07663">
        <ele>1345.2</ele>
        <time>2022-06-18T05:20:44Z</time>
      </trkpt>
      <trkpt lat="45.20231" lon="6.07663">
        <ele>1345.4</ele>
        <time>2022-06-18T05:20:45Z</time>
      </trkpt>
      <trkpt lat="45.20229" lon="6.07664">
        <ele>1345.6</ele>
        <time>2022-06-18T05:20:46Z</time>
      </trkpt>
      <trkpt lat="45.20227" lon="6.07664">
        <ele>1345.9</ele>
        <time>2022-06-18T05:20:47Z</time>
      </trkpt>
      <trkpt lat="45.20225" lon="6.07665">
        <ele>1346.2</ele>
        <time>2022-06-18T05:20:48Z</time>
      </trkpt>
      <trkpt lat="45.20222" lon="6.07667">
        <ele>1346.6</ele>
        <time>2022-06-18T05:20:50Z</time>
      </trkpt>
      <trkpt lat="45.20219" lon="6.07668">
        <ele>1347.1</ele>
        <time>2022-06-18T05:20:51Z</time>
      </trkpt>
      <trkpt lat="45.20216" lon="6.07667">
        <ele>1347.5</ele>
        <time>2022-06-18T05:20:52Z</time>
      </trkpt>
      <trkpt lat="45.20213" lon="6.07667">
        <ele>1347.9</ele>
        <time>2022-06-18T05:20:53Z</time>
      </trkpt>
      <trkpt lat="45.20211" lon="6.07665">
        <ele>1348.3</ele>
        <time>2022-06-18T05:20:54Z</time>
      </trkpt>
      <trkpt lat="45.20207" lon="6.07662">
        <ele>1348.9</ele>
        <time>2022-06-18T05:20:55Z</time>
      </trkpt>
      <trkpt lat="45.20206" lon="6.07661">
        <ele>1349.1</ele>
        <time>2022-06-18T05:20:56Z</time>
      </trkpt>
      <trkpt lat="45.20203" lon="6.07659">
        <ele>1349.6</ele>
        <time>2022-06-18T05:20:57Z</time>
      </trkpt>
      <trkpt lat="45.202" lon="6.07657">
        <ele>1350.1</ele>
        <time>2022-06-18T05:20:59Z</time>
      </trkpt>
      <trkpt lat="45.20197" lon="6.07656">
        <ele>1350.5</ele>
        <time>2022-06-18T05:21:00Z</time>
      </trkpt>
      <trkpt lat="45.20193" lon="6.07656">
        <ele>1351</ele>
        <time>2022-06-18T05:21:01Z</time>
      </trkpt>
      <trkpt lat="45.20192" lon="6.07656">
        <ele>1351.2</ele>
        <time>2022-06-18T05:21:02Z</time>
      </trkpt>
      <trkpt lat="45.20189" lon="6.07659">
        <ele>1351.7</ele>
        <time>2022-06-18T05:21:04Z</time>
      </trkpt>
      <trkpt lat="45.20186" lon="6.07662">
        <ele>1352.1</ele>
        <time>2022-06-18T05:21:05Z</time>
      </trkpt>
      <trkpt lat="45.20185" lon="6.07666">
        <ele>1352.5</ele>
        <time>2022-06-18T05:21:06Z</time>
      </trkpt>
      <trkpt lat="45.20185" lon="6.07672">
        <ele>1353</ele>
        <time>2022-06-18T05:21:07Z</time>
      </trkpt>
      <trkpt lat="45.20186" lon="6.07677">
        <ele>1353.4</ele>
        <time>2022-06-18T05:21:08Z</time>
      </trkpt>
      <trkpt lat="45.20188" lon="6.07682">
        <ele>1353.8</ele>
        <time>2022-06-18T05:21:09Z</time>
      </trkpt>
      <trkpt lat="45.2019" lon="6.07685">
        <ele>1354.2</ele>
        <time>2022-06-18T05:21:10Z</time>
      </trkpt>
      <trkpt lat="45.20194" lon="6.07687">
        <ele>1354.7</ele>
        <time>2022-06-18T05:21:12Z</time>
      </trkpt>
      <trkpt lat="45.20198" lon="6.0769">
        <ele>1355.2</ele>
        <time>2022-06-18T05:21:13Z</time>
      </trkpt>
      <trkpt lat="45.20202" lon="6.07694">
        <ele>1355.8</ele>
        <time>2022-06-18T05:21:15Z</time>
      </trkpt>
      <trkpt lat="45.20205" lon="6.07696">
        <ele>1356.2</ele>
        <time>2022-06-18T05:21:16Z</time>
      </trkpt>
      <trkpt lat="45.20207" lon="6.07698">
        <ele>1356.5</ele>
        <time>2022-06-18T05:21:17Z</time>
      </trkpt>
      <trkpt lat="45.2021" lon="6.07701">
        <ele>1357</ele>
        <time>2022-06-18T05:21:19Z</time>
      </trkpt>
      <trkpt lat="45.20213" lon="6.07703">
        <ele>1357.5</ele>
        <time>2022-06-18T05:21:20Z</time>
      </trkpt>
      <trkpt lat="45.20216" lon="6.07704">
        <ele>1357.9</ele>
        <time>2022-06-18T05:21:21Z</time>
      </trkpt>
      <trkpt lat="45.2022" lon="6.07706">
        <ele>1358.4</ele>
        <time>2022-06-18T05:21:22Z</time>
      </trkpt>
      <trkpt lat="45.2022" lon="6.07706">
        <ele>1358.6</ele>
        <time>2022-06-18T05:21:23Z</time>
      </trkpt>
      <trkpt lat="45.20224" lon="6.07708">
        <ele>1359.1</ele>
        <time>2022-06-18T05:21:24Z</time>
      </trkpt>
      <trkpt lat="45.20225" lon="6.07708">
        <ele>1359.3</ele>
        <time>2022-06-18T05:21:25Z</time>
      </trkpt>
      <trkpt lat="45.20227" lon="6.07709">
        <ele>1359.6</ele>
        <time>2022-06-18T05:21:26Z</time>
      </trkpt>
      <trkpt lat="45.20231" lon="6.07709">
        <ele>1360.2</ele>
        <time>2022-06-18T05:21:28Z</time>
      </trkpt>
      <trkpt lat="45.20235" lon="6.07709">
        <ele>1360.7</ele>
        <time>2022-06-18T05:21:29Z</time>
      </trkpt>
      <trkpt lat="45.20238" lon="6.07709">
        <ele>1361.2</ele>
        <time>2022-06-18T05:21:30Z</time>
      </trkpt>
      <trkpt lat="45.20242" lon="6.07708">
        <ele>1361.8</ele>
        <time>2022-06-18T05:21:32Z</time>
      </trkpt>
      <trkpt lat="45.20247" lon="6.07707">
        <ele>1362.5</ele>
        <time>2022-06-18T05:21:33Z</time>
      </trkpt>
      <trkpt lat="45.20251" lon="6.07707">
        <ele>1363.1</ele>
        <time>2022-06-18T05:21:34Z</time>
      </trkpt>
      <trkpt lat="45.20252" lon="6.07706">
        <ele>1363.3</ele>
        <time>2022-06-18T05:21:35Z</time>
      </trkpt>
      <trkpt lat="45.20255" lon="6.07705">
        <ele>1363.8</ele>
        <time>2022-06-18T05:21:37Z</time>
      </trkpt>
      <trkpt lat="45.20258" lon="6.07704">
        <ele>1364.1</ele>
        <time>2022-06-18T05:21:38Z</time>
      </trkpt>
      <trkpt lat="45.20261" lon="6.07703">
        <ele>1364.6</ele>
        <time>2022-06-18T05:21:39Z</time>
      </trkpt>
      <trkpt lat="45.20264" lon="6.07701">
        <ele>1365.1</ele>
        <time>2022-06-18T05:21:41Z</time>
      </trkpt>
      <trkpt lat="45.20268" lon="6.07699">
        <ele>1365.6</ele>
        <time>2022-06-18T05:21:42Z</time>
      </trkpt>
      <trkpt lat="45.2027" lon="6.07697">
        <ele>1366</ele>
        <time>2022-06-18T05:21:43Z</time>
      </trkpt>
      <trkpt lat="45.20274" lon="6.07695">
        <ele>1366.5</ele>
        <time>2022-06-18T05:21:45Z</time>
      </trkpt>
      <trkpt lat="45.20276" lon="6.07693">
        <ele>1366.9</ele>
        <time>2022-06-18T05:21:46Z</time>
      </trkpt>
      <trkpt lat="45.2028" lon="6.07692">
        <ele>1367.4</ele>
        <time>2022-06-18T05:21:47Z</time>
      </trkpt>
      <trkpt lat="45.20283" lon="6.0769">
        <ele>1367.9</ele>
        <time>2022-06-18T05:21:48Z</time>
      </trkpt>
      <trkpt lat="45.20286" lon="6.07689">
        <ele>1368.3</ele>
        <time>2022-06-18T05:21:49Z</time>
      </trkpt>
      <trkpt lat="45.20289" lon="6.07686">
        <ele>1368.8</ele>
        <time>2022-06-18T05:21:50Z</time>
      </trkpt>
      <trkpt lat="45.2029" lon="6.07686">
        <ele>1369</ele>
        <time>2022-06-18T05:21:51Z</time>
      </trkpt>
      <trkpt lat="45.20293" lon="6.07684">
        <ele>1369.5</ele>
        <time>2022-06-18T05:21:52Z</time>
      </trkpt>
      <trkpt lat="45.20295" lon="6.07683">
        <ele>1369.7</ele>
        <time>2022-06-18T05:21:53Z</time>
      </trkpt>
      <trkpt lat="45.20298" lon="6.07681">
        <ele>1370.3</ele>
        <time>2022-06-18T05:21:54Z</time>
      </trkpt>
      <trkpt lat="45.20299" lon="6.0768">
        <ele>1370.5</ele>
        <time>2022-06-18T05:21:55Z</time>
      </trkpt>
      <trkpt lat="45.20303" lon="6.07677">
        <ele>1371</ele>
        <time>2022-06-18T05:21:56Z</time>
      </trkpt>
      <trkpt lat="45.20304" lon="6.07677">
        <ele>1371.1</ele>
        <time>2022-06-18T05:21:57Z</time>
      </trkpt>
      <trkpt lat="45.20306" lon="6.07675">
        <ele>1371.5</ele>
        <time>2022-06-18T05:21:58Z</time>
      </trkpt>
      <trkpt lat="45.20309" lon="6.07674">
        <ele>1371.9</ele>
        <time>2022-06-18T05:21:59Z</time>
      </trkpt>
      <trkpt lat="45.20314" lon="6.07671">
        <ele>1372.6</ele>
        <time>2022-06-18T05:22:01Z</time>
      </trkpt>
      <trkpt lat="45.20316" lon="6.0767">
        <ele>1372.9</ele>
        <time>2022-06-18T05:22:02Z</time>
      </trkpt>
      <trkpt lat="45.20317" lon="6.07669">
        <ele>1373.1</ele>
        <time>2022-06-18T05:22:03Z</time>
      </trkpt>
      <trkpt lat="45.2032" lon="6.07667">
        <ele>1373.5</ele>
        <time>2022-06-18T05:22:04Z</time>
      </trkpt>
      <trkpt lat="45.20323" lon="6.07664">
        <ele>1373.9</ele>
        <time>2022-06-18T05:22:05Z</time>
      </trkpt>
      <trkpt lat="45.20325" lon="6.07662">
        <ele>1374.4</ele>
        <time>2022-06-18T05:22:06Z</time>
      </trkpt>
      <trkpt lat="45.20326" lon="6.07661">
        <ele>1374.5</ele>
        <time>2022-06-18T05:22:07Z</time>
      </trkpt>
      <trkpt lat="45.2033" lon="6.07659">
        <ele>1375</ele>
        <time>2022-06-18T05:22:09Z</time>
      </trkpt>
      <trkpt lat="45.20332" lon="6.07658">
        <ele>1375.4</ele>
        <time>2022-06-18T05:22:10Z</time>
      </trkpt>
      <trkpt lat="45.20336" lon="6.07656">
        <ele>1375.9</ele>
        <time>2022-06-18T05:22:11Z</time>
      </trkpt>
      <trkpt lat="45.20339" lon="6.07653">
        <ele>1376.5</ele>
        <time>2022-06-18T05:22:13Z</time>
      </trkpt>
      <trkpt lat="45.20342" lon="6.0765">
        <ele>1377</ele>
        <time>2022-06-18T05:22:14Z</time>
      </trkpt>
      <trkpt lat="45.20345" lon="6.07648">
        <ele>1377.4</ele>
        <time>2022-06-18T05:22:15Z</time>
      </trkpt>
      <trkpt lat="45.20347" lon="6.07646">
        <ele>1377.8</ele>
        <time>2022-06-18T05:22:16Z</time>
      </trkpt>
      <trkpt lat="45.2035" lon="6.07644">
        <ele>1378.2</ele>
        <time>2022-06-18T05:22:17Z</time>
      </trkpt>
      <trkpt lat="45.20351" lon="6.07643">
        <ele>1378.4</ele>
        <time>2022-06-18T05:22:18Z</time>
      </trkpt>
      <trkpt lat="45.20353" lon="6.07641">
        <ele>1378.8</ele>
        <time>2022-06-18T05:22:19Z</time>
      </trkpt>
      <trkpt lat="45.20356" lon="6.07638">
        <ele>1379.3</ele>
        <time>2022-06-18T05:22:20Z</time>
      </trkpt>
      <trkpt lat="45.20357" lon="6.07638">
        <ele>1379.4</ele>
        <time>2022-06-18T05:22:21Z</time>
      </trkpt>
      <trkpt lat="45.2036" lon="6.07636">
        <ele>1379.9</ele>
        <time>2022-06-18T05:22:22Z</time>
      </trkpt>
      <trkpt lat="45.20362" lon="6.07635">
        <ele>1380.1</ele>
        <time>2022-06-18T05:22:23Z</time>
      </trkpt>
      <trkpt lat="45.20365" lon="6.07634">
        <ele>1380.5</ele>
        <time>2022-06-18T05:22:25Z</time>
      </trkpt>
      <trkpt lat="45.20367" lon="6.07633">
        <ele>1380.9</ele>
        <time>2022-06-18T05:22:26Z</time>
      </trkpt>
      <trkpt lat="45.20371" lon="6.07634">
        <ele>1381.5</ele>
        <time>2022-06-18T05:22:27Z</time>
      </trkpt>
      <trkpt lat="45.20373" lon="6.07635">
        <ele>1381.7</ele>
        <time>2022-06-18T05:22:29Z</time>
      </trkpt>
      <trkpt lat="45.20374" lon="6.07637">
        <ele>1382</ele>
        <time>2022-06-18T05:22:30Z</time>
      </trkpt>
      <trkpt lat="45.20373" lon="6.07642">
        <ele>1382.4</ele>
        <time>2022-06-18T05:22:31Z</time>
      </trkpt>
      <trkpt lat="45.20373" lon="6.07644">
        <ele>1382.5</ele>
        <time>2022-06-18T05:22:32Z</time>
      </trkpt>
      <trkpt lat="45.20371" lon="6.07649">
        <ele>1382.8</ele>
        <time>2022-06-18T05:22:33Z</time>
      </trkpt>
      <trkpt lat="45.20369" lon="6.07653">
        <ele>1383.1</ele>
        <time>2022-06-18T05:22:34Z</time>
      </trkpt>
      <trkpt lat="45.20365" lon="6.07656">
        <ele>1383.5</ele>
        <time>2022-06-18T05:22:35Z</time>
      </trkpt>
      <trkpt lat="45.20361" lon="6.07658">
        <ele>1383.8</ele>
        <time>2022-06-18T05:22:36Z</time>
      </trkpt>
      <trkpt lat="45.20358" lon="6.0766">
        <ele>1384.2</ele>
        <time>2022-06-18T05:22:37Z</time>
      </trkpt>
      <trkpt lat="45.20357" lon="6.07661">
        <ele>1384.3</ele>
        <time>2022-06-18T05:22:38Z</time>
      </trkpt>
      <trkpt lat="45.20353" lon="6.07663">
        <ele>1384.7</ele>
        <time>2022-06-18T05:22:39Z</time>
      </trkpt>
      <trkpt lat="45.20352" lon="6.07665">
        <ele>1384.9</ele>
        <time>2022-06-18T05:22:40Z</time>
      </trkpt>
      <trkpt lat="45.2035" lon="6.07667">
        <ele>1385.1</ele>
        <time>2022-06-18T05:22:41Z</time>
      </trkpt>
      <trkpt lat="45.20348" lon="6.07669">
        <ele>1385.4</ele>
        <time>2022-06-18T05:22:43Z</time>
      </trkpt>
      <trkpt lat="45.20345" lon="6.07672">
        <ele>1385.8</ele>
        <time>2022-06-18T05:22:44Z</time>
      </trkpt>
      <trkpt lat="45.20341" lon="6.07674">
        <ele>1386.3</ele>
        <time>2022-06-18T05:22:45Z</time>
      </trkpt>
      <trkpt lat="45.2034" lon="6.07675">
        <ele>1386.4</ele>
        <time>2022-06-18T05:22:46Z</time>
      </trkpt>
      <trkpt lat="45.20337" lon="6.07679">
        <ele>1386.9</ele>
        <time>2022-06-18T05:22:47Z</time>
      </trkpt>
      <trkpt lat="45.20336" lon="6.07681">
        <ele>1387.1</ele>
        <time>2022-06-18T05:22:48Z</time>
      </trkpt>
      <trkpt lat="45.20334" lon="6.07685">
        <ele>1387.4</ele>
        <time>2022-06-18T05:22:49Z</time>
      </trkpt>
      <trkpt lat="45.20331" lon="6.0769">
        <ele>1387.9</ele>
        <time>2022-06-18T05:22:51Z</time>
      </trkpt>
      <trkpt lat="45.20328" lon="6.07692">
        <ele>1388.2</ele>
        <time>2022-06-18T05:22:52Z</time>
      </trkpt>
      <trkpt lat="45.20325" lon="6.07695">
        <ele>1388.6</ele>
        <time>2022-06-18T05:22:54Z</time>
      </trkpt>
      <trkpt lat="45.20322" lon="6.07697">
        <ele>1388.9</ele>
        <time>2022-06-18T05:22:55Z</time>
      </trkpt>
      <trkpt lat="45.2032" lon="6.077">
        <ele>1389.2</ele>
        <time>2022-06-18T05:22:56Z</time>
      </trkpt>
      <trkpt lat="45.20317" lon="6.07703">
        <ele>1389.5</ele>
        <time>2022-06-18T05:22:57Z</time>
      </trkpt>
      <trkpt lat="45.20316" lon="6.07706">
        <ele>1389.7</ele>
        <time>2022-06-18T05:22:58Z</time>
      </trkpt>
      <trkpt lat="45.20313" lon="6.07709">
        <ele>1390</ele>
        <time>2022-06-18T05:22:59Z</time>
      </trkpt>
      <trkpt lat="45.20311" lon="6.07711">
        <ele>1390.3</ele>
        <time>2022-06-18T05:23:00Z</time>
      </trkpt>
      <trkpt lat="45.20307" lon="6.07715">
        <ele>1390.7</ele>
        <time>2022-06-18T05:23:02Z</time>
      </trkpt>
      <trkpt lat="45.20305" lon="6.07717">
        <ele>1390.9</ele>
        <time>2022-06-18T05:23:03Z</time>
      </trkpt>
      <trkpt lat="45.20303" lon="6.07719">
        <ele>1391.1</ele>
        <time>2022-06-18T05:23:04Z</time>
      </trkpt>
      <trkpt lat="45.20301" lon="6.07721">
        <ele>1391.3</ele>
        <time>2022-06-18T05:23:05Z</time>
      </trkpt>
      <trkpt lat="45.20298" lon="6.07724">
        <ele>1391.7</ele>
        <time>2022-06-18T05:23:07Z</time>
      </trkpt>
      <trkpt lat="45.20295" lon="6.07727">
        <ele>1392</ele>
        <time>2022-06-18T05:23:08Z</time>
      </trkpt>
      <trkpt lat="45.20292" lon="6.0773">
        <ele>1392.3</ele>
        <time>2022-06-18T05:23:09Z</time>
      </trkpt>
      <trkpt lat="45.20288" lon="6.07733">
        <ele>1392.7</ele>
        <time>2022-06-18T05:23:11Z</time>
      </trkpt>
      <trkpt lat="45.20287" lon="6.07734">
        <ele>1392.8</ele>
        <time>2022-06-18T05:23:12Z</time>
      </trkpt>
      <trkpt lat="45.20285" lon="6.07736">
        <ele>1393</ele>
        <time>2022-06-18T05:23:13Z</time>
      </trkpt>
      <trkpt lat="45.20283" lon="6.07738">
        <ele>1393.2</ele>
        <time>2022-06-18T05:23:14Z</time>
      </trkpt>
      <trkpt lat="45.2028" lon="6.07742">
        <ele>1393.6</ele>
        <time>2022-06-18T05:23:16Z</time>
      </trkpt>
      <trkpt lat="45.20278" lon="6.07744">
        <ele>1393.7</ele>
        <time>2022-06-18T05:23:17Z</time>
      </trkpt>
      <trkpt lat="45.20277" lon="6.07746">
        <ele>1393.9</ele>
        <time>2022-06-18T05:23:18Z</time>
      </trkpt>
      <trkpt lat="45.20274" lon="6.07748">
        <ele>1394.1</ele>
        <time>2022-06-18T05:23:19Z</time>
      </trkpt>
      <trkpt lat="45.20272" lon="6.07752">
        <ele>1394.4</ele>
        <time>2022-06-18T05:23:20Z</time>
      </trkpt>
      <trkpt lat="45.20271" lon="6.07753">
        <ele>1394.5</ele>
        <time>2022-06-18T05:23:21Z</time>
      </trkpt>
      <trkpt lat="45.20269" lon="6.07756">
        <ele>1394.7</ele>
        <time>2022-06-18T05:23:22Z</time>
      </trkpt>
      <trkpt lat="45.20267" lon="6.07758">
        <ele>1394.9</ele>
        <time>2022-06-18T05:23:23Z</time>
      </trkpt>
      <trkpt lat="45.20262" lon="6.07763">
        <ele>1395.5</ele>
        <time>2022-06-18T05:23:25Z</time>
      </trkpt>
      <trkpt lat="45.20259" lon="6.07768">
        <ele>1395.9</ele>
        <time>2022-06-18T05:23:26Z</time>
      </trkpt>
      <trkpt lat="45.20256" lon="6.07772">
        <ele>1396.2</ele>
        <time>2022-06-18T05:23:27Z</time>
      </trkpt>
      <trkpt lat="45.20254" lon="6.07774">
        <ele>1396.5</ele>
        <time>2022-06-18T05:23:28Z</time>
      </trkpt>
      <trkpt lat="45.20251" lon="6.07777">
        <ele>1396.8</ele>
        <time>2022-06-18T05:23:29Z</time>
      </trkpt>
      <trkpt lat="45.20249" lon="6.07779">
        <ele>1397</ele>
        <time>2022-06-18T05:23:30Z</time>
      </trkpt>
      <trkpt lat="45.20246" lon="6.07781">
        <ele>1397.3</ele>
        <time>2022-06-18T05:23:32Z</time>
      </trkpt>
      <trkpt lat="45.20243" lon="6.07784">
        <ele>1397.7</ele>
        <time>2022-06-18T05:23:33Z</time>
      </trkpt>
      <trkpt lat="45.20241" lon="6.07787">
        <ele>1398</ele>
        <time>2022-06-18T05:23:34Z</time>
      </trkpt>
      <trkpt lat="45.20239" lon="6.07789">
        <ele>1398.2</ele>
        <time>2022-06-18T05:23:35Z</time>
      </trkpt>
      <trkpt lat="45.20236" lon="6.07793">
        <ele>1398.6</ele>
        <time>2022-06-18T05:23:37Z</time>
      </trkpt>
      <trkpt lat="45.20232" lon="6.07797">
        <ele>1399</ele>
        <time>2022-06-18T05:23:38Z</time>
      </trkpt>
      <trkpt lat="45.20231" lon="6.07798">
        <ele>1399.2</ele>
        <time>2022-06-18T05:23:39Z</time>
      </trkpt>
      <trkpt lat="45.20229" lon="6.07801">
        <ele>1399.4</ele>
        <time>2022-06-18T05:23:40Z</time>
      </trkpt>
      <trkpt lat="45.20226" lon="6.07804">
        <ele>1399.8</ele>
        <time>2022-06-18T05:23:41Z</time>
      </trkpt>
      <trkpt lat="45.20225" lon="6.07806">
        <ele>1399.9</ele>
        <time>2022-06-18T05:23:42Z</time>
      </trkpt>
      <trkpt lat="45.20222" lon="6.07809">
        <ele>1400.2</ele>
        <time>2022-06-18T05:23:43Z</time>
      </trkpt>
      <trkpt lat="45.20221" lon="6.0781">
        <ele>1400.3</ele>
        <time>2022-06-18T05:23:44Z</time>
      </trkpt>
      <trkpt lat="45.20218" lon="6.07812">
        <ele>1400.6</ele>
        <time>2022-06-18T05:23:45Z</time>
      </trkpt>
      <trkpt lat="45.20216" lon="6.07815">
        <ele>1400.9</ele>
        <time>2022-06-18T05:23:46Z</time>
      </trkpt>
      <trkpt lat="45.20212" lon="6.07818">
        <ele>1401.2</ele>
        <time>2022-06-18T05:23:47Z</time>
      </trkpt>
      <trkpt lat="45.20211" lon="6.07819">
        <ele>1401.4</ele>
        <time>2022-06-18T05:23:48Z</time>
      </trkpt>
      <trkpt lat="45.20208" lon="6.07822">
        <ele>1401.6</ele>
        <time>2022-06-18T05:23:49Z</time>
      </trkpt>
      <trkpt lat="45.20206" lon="6.07824">
        <ele>1401.9</ele>
        <time>2022-06-18T05:23:50Z</time>
      </trkpt>
      <trkpt lat="45.20202" lon="6.07826">
        <ele>1402.2</ele>
        <time>2022-06-18T05:23:52Z</time>
      </trkpt>
      <trkpt lat="45.20199" lon="6.0783">
        <ele>1402.6</ele>
        <time>2022-06-18T05:23:53Z</time>
      </trkpt>
      <trkpt lat="45.20195" lon="6.07833">
        <ele>1403</ele>
        <time>2022-06-18T05:23:54Z</time>
      </trkpt>
      <trkpt lat="45.20192" lon="6.07835">
        <ele>1403.3</ele>
        <time>2022-06-18T05:23:55Z</time>
      </trkpt>
      <trkpt lat="45.20189" lon="6.07837">
        <ele>1403.6</ele>
        <time>2022-06-18T05:23:57Z</time>
      </trkpt>
      <trkpt lat="45.20186" lon="6.0784">
        <ele>1403.8</ele>
        <time>2022-06-18T05:23:58Z</time>
      </trkpt>
      <trkpt lat="45.20183" lon="6.07844">
        <ele>1404.3</ele>
        <time>2022-06-18T05:23:59Z</time>
      </trkpt>
      <trkpt lat="45.20179" lon="6.07848">
        <ele>1404.7</ele>
        <time>2022-06-18T05:24:01Z</time>
      </trkpt>
      <trkpt lat="45.20176" lon="6.0785">
        <ele>1405</ele>
        <time>2022-06-18T05:24:02Z</time>
      </trkpt>
      <trkpt lat="45.20175" lon="6.07853">
        <ele>1405.2</ele>
        <time>2022-06-18T05:24:03Z</time>
      </trkpt>
      <trkpt lat="45.20172" lon="6.07857">
        <ele>1405.5</ele>
        <time>2022-06-18T05:24:05Z</time>
      </trkpt>
      <trkpt lat="45.20169" lon="6.0786">
        <ele>1405.8</ele>
        <time>2022-06-18T05:24:06Z</time>
      </trkpt>
      <trkpt lat="45.20167" lon="6.07862">
        <ele>1406.1</ele>
        <time>2022-06-18T05:24:07Z</time>
      </trkpt>
      <trkpt lat="45.20162" lon="6.07866">
        <ele>1406.5</ele>
        <time>2022-06-18T05:24:09Z</time>
      </trkpt>
      <trkpt lat="45.20159" lon="6.07869">
        <ele>1406.8</ele>
        <time>2022-06-18T05:24:10Z</time>
      </trkpt>
      <trkpt lat="45.20154" lon="6.07875">
        <ele>1407.4</ele>
        <time>2022-06-18T05:24:12Z</time>
      </trkpt>
      <trkpt lat="45.20152" lon="6.0788">
        <ele>1407.7</ele>
        <time>2022-06-18T05:24:13Z</time>
      </trkpt>
      <trkpt lat="45.2015" lon="6.07883">
        <ele>1408</ele>
        <time>2022-06-18T05:24:14Z</time>
      </trkpt>
      <trkpt lat="45.20147" lon="6.0789">
        <ele>1408.4</ele>
        <time>2022-06-18T05:24:16Z</time>
      </trkpt>
      <trkpt lat="45.20146" lon="6.07895">
        <ele>1408.7</ele>
        <time>2022-06-18T05:24:17Z</time>
      </trkpt>
      <trkpt lat="45.20146" lon="6.07899">
        <ele>1409</ele>
        <time>2022-06-18T05:24:18Z</time>
      </trkpt>
      <trkpt lat="45.20145" lon="6.07905">
        <ele>1409.3</ele>
        <time>2022-06-18T05:24:19Z</time>
      </trkpt>
      <trkpt lat="45.20145" lon="6.07908">
        <ele>1409.4</ele>
        <time>2022-06-18T05:24:20Z</time>
      </trkpt>
      <trkpt lat="45.20145" lon="6.07912">
        <ele>1409.7</ele>
        <time>2022-06-18T05:24:21Z</time>
      </trkpt>
      <trkpt lat="45.20145" lon="6.07916">
        <ele>1409.9</ele>
        <time>2022-06-18T05:24:22Z</time>
      </trkpt>
      <trkpt lat="45.20145" lon="6.0792">
        <ele>1410.2</ele>
        <time>2022-06-18T05:24:23Z</time>
      </trkpt>
      <trkpt lat="45.20145" lon="6.07926">
        <ele>1410.5</ele>
        <time>2022-06-18T05:24:25Z</time>
      </trkpt>
      <trkpt lat="45.20144" lon="6.07931">
        <ele>1410.7</ele>
        <time>2022-06-18T05:24:26Z</time>
      </trkpt>
      <trkpt lat="45.20144" lon="6.07936">
        <ele>1411</ele>
        <time>2022-06-18T05:24:27Z</time>
      </trkpt>
      <trkpt lat="45.20144" lon="6.07941">
        <ele>1411.3</ele>
        <time>2022-06-18T05:24:28Z</time>
      </trkpt>
      <trkpt lat="45.20144" lon="6.07945">
        <ele>1411.5</ele>
        <time>2022-06-18T05:24:29Z</time>
      </trkpt>
      <trkpt lat="45.20144" lon="6.0795">
        <ele>1411.7</ele>
        <time>2022-06-18T05:24:30Z</time>
      </trkpt>
      <trkpt lat="45.20144" lon="6.07955">
        <ele>1412</ele>
        <time>2022-06-18T05:24:32Z</time>
      </trkpt>
      <trkpt lat="45.20144" lon="6.07959">
        <ele>1412.2</ele>
        <time>2022-06-18T05:24:33Z</time>
      </trkpt>
      <trkpt lat="45.20143" lon="6.07964">
        <ele>1412.5</ele>
        <time>2022-06-18T05:24:34Z</time>
      </trkpt>
      <trkpt lat="45.20143" lon="6.07968">
        <ele>1412.7</ele>
        <time>2022-06-18T05:24:35Z</time>
      </trkpt>
      <trkpt lat="45.20143" lon="6.07974">
        <ele>1412.9</ele>
        <time>2022-06-18T05:24:36Z</time>
      </trkpt>
      <trkpt lat="45.20143" lon="6.07979">
        <ele>1413.2</ele>
        <time>2022-06-18T05:24:37Z</time>
      </trkpt>
      <trkpt lat="45.20142" lon="6.07982">
        <ele>1413.4</ele>
        <time>2022-06-18T05:24:38Z</time>
      </trkpt>
      <trkpt lat="45.20142" lon="6.07987">
        <ele>1413.6</ele>
        <time>2022-06-18T05:24:39Z</time>
      </trkpt>
      <trkpt lat="45.20141" lon="6.07991">
        <ele>1413.8</ele>
        <time>2022-06-18T05:24:40Z</time>
      </trkpt>
      <trkpt lat="45.20139" lon="6.07995">
        <ele>1414</ele>
        <time>2022-06-18T05:24:41Z</time>
      </trkpt>
      <trkpt lat="45.20138" lon="6.08">
        <ele>1414.3</ele>
        <time>2022-06-18T05:24:42Z</time>
      </trkpt>
      <trkpt lat="45.20138" lon="6.08001">
        <ele>1414.4</ele>
        <time>2022-06-18T05:24:43Z</time>
      </trkpt>
      <trkpt lat="45.20138" lon="6.08005">
        <ele>1414.7</ele>
        <time>2022-06-18T05:24:44Z</time>
      </trkpt>
      <trkpt lat="45.20137" lon="6.08009">
        <ele>1414.9</ele>
        <time>2022-06-18T05:24:45Z</time>
      </trkpt>
      <trkpt lat="45.20136" lon="6.08013">
        <ele>1415.1</ele>
        <time>2022-06-18T05:24:46Z</time>
      </trkpt>
      <trkpt lat="45.20135" lon="6.08018">
        <ele>1415.4</ele>
        <time>2022-06-18T05:24:48Z</time>
      </trkpt>
      <trkpt lat="45.20133" lon="6.08024">
        <ele>1415.8</ele>
        <time>2022-06-18T05:24:49Z</time>
      </trkpt>
      <trkpt lat="45.20133" lon="6.08028">
        <ele>1416</ele>
        <time>2022-06-18T05:24:50Z</time>
      </trkpt>
      <trkpt lat="45.20132" lon="6.08034">
        <ele>1416.4</ele>
        <time>2022-06-18T05:24:51Z</time>
      </trkpt>
      <trkpt lat="45.20131" lon="6.08036">
        <ele>1416.6</ele>
        <time>2022-06-18T05:24:52Z</time>
      </trkpt>
      <trkpt lat="45.2013" lon="6.08042">
        <ele>1416.9</ele>
        <time>2022-06-18T05:24:54Z</time>
      </trkpt>
      <trkpt lat="45.20129" lon="6.08048">
        <ele>1417.3</ele>
        <time>2022-06-18T05:24:55Z</time>
      </trkpt>
      <trkpt lat="45.20128" lon="6.08053">
        <ele>1417.7</ele>
        <time>2022-06-18T05:24:57Z</time>
      </trkpt>
      <trkpt lat="45.20127" lon="6.08057">
        <ele>1417.9</ele>
        <time>2022-06-18T05:24:58Z</time>
      </trkpt>
      <trkpt lat="45.20126" lon="6.08061">
        <ele>1418.2</ele>
        <time>2022-06-18T05:24:59Z</time>
      </trkpt>
      <trkpt lat="45.20126" lon="6.08062">
        <ele>1418.2</ele>
        <time>2022-06-18T05:25:00Z</time>
      </trkpt>
      <trkpt lat="45.20125" lon="6.08066">
        <ele>1418.5</ele>
        <time>2022-06-18T05:25:01Z</time>
      </trkpt>
      <trkpt lat="45.20124" lon="6.08067">
        <ele>1418.5</ele>
        <time>2022-06-18T05:25:02Z</time>
      </trkpt>
      <trkpt lat="45.20123" lon="6.0807">
        <ele>1418.7</ele>
        <time>2022-06-18T05:25:03Z</time>
      </trkpt>
      <trkpt lat="45.20123" lon="6.08073">
        <ele>1418.9</ele>
        <time>2022-06-18T05:25:05Z</time>
      </trkpt>
      <trkpt lat="45.20121" lon="6.0808">
        <ele>1419.3</ele>
        <time>2022-06-18T05:25:06Z</time>
      </trkpt>
      <trkpt lat="45.20121" lon="6.08083">
        <ele>1419.4</ele>
        <time>2022-06-18T05:25:07Z</time>
      </trkpt>
      <trkpt lat="45.2012" lon="6.08089">
        <ele>1419.7</ele>
        <time>2022-06-18T05:25:09Z</time>
      </trkpt>
      <trkpt lat="45.20119" lon="6.08092">
        <ele>1419.9</ele>
        <time>2022-06-18T05:25:10Z</time>
      </trkpt>
      <trkpt lat="45.20118" lon="6.08102">
        <ele>1420.5</ele>
        <time>2022-06-18T05:25:11Z</time>
      </trkpt>
      <trkpt lat="45.20117" lon="6.08109">
        <ele>1420.8</ele>
        <time>2022-06-18T05:25:12Z</time>
      </trkpt>
      <trkpt lat="45.20116" lon="6.08118">
        <ele>1421.3</ele>
        <time>2022-06-18T05:25:14Z</time>
      </trkpt>
      <trkpt lat="45.20116" lon="6.08125">
        <ele>1421.7</ele>
        <time>2022-06-18T05:25:15Z</time>
      </trkpt>
      <trkpt lat="45.20115" lon="6.08131">
        <ele>1422</ele>
        <time>2022-06-18T05:25:16Z</time>
      </trkpt>
      <trkpt lat="45.20115" lon="6.08139">
        <ele>1422.5</ele>
        <time>2022-06-18T05:25:18Z</time>
      </trkpt>
      <trkpt lat="45.20115" lon="6.08144">
        <ele>1422.8</ele>
        <time>2022-06-18T05:25:19Z</time>
      </trkpt>
      <trkpt lat="45.20116" lon="6.0815">
        <ele>1423.1</ele>
        <time>2022-06-18T05:25:20Z</time>
      </trkpt>
      <trkpt lat="45.20116" lon="6.08152">
        <ele>1423.2</ele>
        <time>2022-06-18T05:25:21Z</time>
      </trkpt>
      <trkpt lat="45.20116" lon="6.08157">
        <ele>1423.5</ele>
        <time>2022-06-18T05:25:22Z</time>
      </trkpt>
      <trkpt lat="45.20117" lon="6.08159">
        <ele>1423.6</ele>
        <time>2022-06-18T05:25:23Z</time>
      </trkpt>
      <trkpt lat="45.20117" lon="6.08164">
        <ele>1423.9</ele>
        <time>2022-06-18T05:25:24Z</time>
      </trkpt>
      <trkpt lat="45.20118" lon="6.08169">
        <ele>1424.2</ele>
        <time>2022-06-18T05:25:26Z</time>
      </trkpt>
      <trkpt lat="45.20118" lon="6.08173">
        <ele>1424.4</ele>
        <time>2022-06-18T05:25:27Z</time>
      </trkpt>
      <trkpt lat="45.20118" lon="6.08179">
        <ele>1424.7</ele>
        <time>2022-06-18T05:25:28Z</time>
      </trkpt>
      <trkpt lat="45.20119" lon="6.08183">
        <ele>1424.9</ele>
        <time>2022-06-18T05:25:29Z</time>
      </trkpt>
      <trkpt lat="45.20119" lon="6.08188">
        <ele>1425.2</ele>
        <time>2022-06-18T05:25:30Z</time>
      </trkpt>
      <trkpt lat="45.20119" lon="6.08193">
        <ele>1425.5</ele>
        <time>2022-06-18T05:25:31Z</time>
      </trkpt>
      <trkpt lat="45.2012" lon="6.08195">
        <ele>1425.6</ele>
        <time>2022-06-18T05:25:32Z</time>
      </trkpt>
      <trkpt lat="45.20121" lon="6.082">
        <ele>1425.9</ele>
        <time>2022-06-18T05:25:33Z</time>
      </trkpt>
      <trkpt lat="45.20122" lon="6.08204">
        <ele>1426.1</ele>
        <time>2022-06-18T05:25:34Z</time>
      </trkpt>
      <trkpt lat="45.20122" lon="6.08209">
        <ele>1426.4</ele>
        <time>2022-06-18T05:25:35Z</time>
      </trkpt>
      <trkpt lat="45.20123" lon="6.08214">
        <ele>1426.7</ele>
        <time>2022-06-18T05:25:37Z</time>
      </trkpt>
      <trkpt lat="45.20124" lon="6.08219">
        <ele>1427</ele>
        <time>2022-06-18T05:25:38Z</time>
      </trkpt>
      <trkpt lat="45.20124" lon="6.08224">
        <ele>1427.2</ele>
        <time>2022-06-18T05:25:39Z</time>
      </trkpt>
      <trkpt lat="45.20124" lon="6.08229">
        <ele>1427.5</ele>
        <time>2022-06-18T05:25:40Z</time>
      </trkpt>
      <trkpt lat="45.20125" lon="6.08233">
        <ele>1427.7</ele>
        <time>2022-06-18T05:25:41Z</time>
      </trkpt>
      <trkpt lat="45.20125" lon="6.08237">
        <ele>1427.9</ele>
        <time>2022-06-18T05:25:42Z</time>
      </trkpt>
      <trkpt lat="45.20126" lon="6.08242">
        <ele>1428.2</ele>
        <time>2022-06-18T05:25:43Z</time>
      </trkpt>
      <trkpt lat="45.20127" lon="6.08248">
        <ele>1428.6</ele>
        <time>2022-06-18T05:25:45Z</time>
      </trkpt>
      <trkpt lat="45.20127" lon="6.08254">
        <ele>1428.9</ele>
        <time>2022-06-18T05:25:46Z</time>
      </trkpt>
      <trkpt lat="45.20127" lon="6.08259">
        <ele>1429.1</ele>
        <time>2022-06-18T05:25:47Z</time>
      </trkpt>
      <trkpt lat="45.20127" lon="6.08263">
        <ele>1429.4</ele>
        <time>2022-06-18T05:25:48Z</time>
      </trkpt>
      <trkpt lat="45.20127" lon="6.08267">
        <ele>1429.6</ele>
        <time>2022-06-18T05:25:49Z</time>
      </trkpt>
      <trkpt lat="45.20127" lon="6.08275">
        <ele>1430.1</ele>
        <time>2022-06-18T05:25:51Z</time>
      </trkpt>
      <trkpt lat="45.20126" lon="6.0828">
        <ele>1430.4</ele>
        <time>2022-06-18T05:25:52Z</time>
      </trkpt>
      <trkpt lat="45.20127" lon="6.08285">
        <ele>1430.6</ele>
        <time>2022-06-18T05:25:53Z</time>
      </trkpt>
      <trkpt lat="45.20127" lon="6.0829">
        <ele>1431</ele>
        <time>2022-06-18T05:25:54Z</time>
      </trkpt>
      <trkpt lat="45.20126" lon="6.08295">
        <ele>1431.2</ele>
        <time>2022-06-18T05:25:55Z</time>
      </trkpt>
      <trkpt lat="45.20126" lon="6.08301">
        <ele>1431.6</ele>
        <time>2022-06-18T05:25:57Z</time>
      </trkpt>
      <trkpt lat="45.20126" lon="6.08307">
        <ele>1431.9</ele>
        <time>2022-06-18T05:25:58Z</time>
      </trkpt>
      <trkpt lat="45.20125" lon="6.08311">
        <ele>1432.1</ele>
        <time>2022-06-18T05:25:59Z</time>
      </trkpt>
      <trkpt lat="45.20124" lon="6.08317">
        <ele>1432.5</ele>
        <time>2022-06-18T05:26:01Z</time>
      </trkpt>
      <trkpt lat="45.20123" lon="6.08321">
        <ele>1432.8</ele>
        <time>2022-06-18T05:26:02Z</time>
      </trkpt>
      <trkpt lat="45.20123" lon="6.08326">
        <ele>1433</ele>
        <time>2022-06-18T05:26:03Z</time>
      </trkpt>
      <trkpt lat="45.20122" lon="6.0833">
        <ele>1433.3</ele>
        <time>2022-06-18T05:26:04Z</time>
      </trkpt>
      <trkpt lat="45.20122" lon="6.08332">
        <ele>1433.4</ele>
        <time>2022-06-18T05:26:05Z</time>
      </trkpt>
      <trkpt lat="45.2012" lon="6.08336">
        <ele>1433.7</ele>
        <time>2022-06-18T05:26:06Z</time>
      </trkpt>
      <trkpt lat="45.20117" lon="6.08342">
        <ele>1434.1</ele>
        <time>2022-06-18T05:26:07Z</time>
      </trkpt>
      <trkpt lat="45.20116" lon="6.08344">
        <ele>1434.3</ele>
        <time>2022-06-18T05:26:08Z</time>
      </trkpt>
      <trkpt lat="45.20114" lon="6.0835">
        <ele>1434.6</ele>
        <time>2022-06-18T05:26:10Z</time>
      </trkpt>
      <trkpt lat="45.20112" lon="6.08355">
        <ele>1435</ele>
        <time>2022-06-18T05:26:11Z</time>
      </trkpt>
      <trkpt lat="45.20111" lon="6.0836">
        <ele>1435.3</ele>
        <time>2022-06-18T05:26:12Z</time>
      </trkpt>
      <trkpt lat="45.2011" lon="6.08364">
        <ele>1435.6</ele>
        <time>2022-06-18T05:26:13Z</time>
      </trkpt>
      <trkpt lat="45.20109" lon="6.08368">
        <ele>1435.8</ele>
        <time>2022-06-18T05:26:14Z</time>
      </trkpt>
      <trkpt lat="45.20108" lon="6.08373">
        <ele>1436.2</ele>
        <time>2022-06-18T05:26:15Z</time>
      </trkpt>
      <trkpt lat="45.20107" lon="6.08375">
        <ele>1436.3</ele>
        <time>2022-06-18T05:26:16Z</time>
      </trkpt>
      <trkpt lat="45.20107" lon="6.08379">
        <ele>1436.5</ele>
        <time>2022-06-18T05:26:17Z</time>
      </trkpt>
      <trkpt lat="45.20107" lon="6.08384">
        <ele>1436.8</ele>
        <time>2022-06-18T05:26:18Z</time>
      </trkpt>
      <trkpt lat="45.20106" lon="6.08388">
        <ele>1437</ele>
        <time>2022-06-18T05:26:19Z</time>
      </trkpt>
      <trkpt lat="45.20106" lon="6.08392">
        <ele>1437.3</ele>
        <time>2022-06-18T05:26:20Z</time>
      </trkpt>
      <trkpt lat="45.20105" lon="6.08398">
        <ele>1437.6</ele>
        <time>2022-06-18T05:26:21Z</time>
      </trkpt>
      <trkpt lat="45.20104" lon="6.08402">
        <ele>1437.8</ele>
        <time>2022-06-18T05:26:22Z</time>
      </trkpt>
      <trkpt lat="45.20103" lon="6.08409">
        <ele>1438.3</ele>
        <time>2022-06-18T05:26:24Z</time>
      </trkpt>
      <trkpt lat="45.20102" lon="6.08416">
        <ele>1438.7</ele>
        <time>2022-06-18T05:26:25Z</time>
      </trkpt>
      <trkpt lat="45.20101" lon="6.08422">
        <ele>1439</ele>
        <time>2022-06-18T05:26:26Z</time>
      </trkpt>
      <trkpt lat="45.20101" lon="6.08427">
        <ele>1439.3</ele>
        <time>2022-06-18T05:26:27Z</time>
      </trkpt>
      <trkpt lat="45.20101" lon="6.0843">
        <ele>1439.5</ele>
        <time>2022-06-18T05:26:28Z</time>
      </trkpt>
      <trkpt lat="45.20101" lon="6.08435">
        <ele>1439.8</ele>
        <time>2022-06-18T05:26:29Z</time>
      </trkpt>
      <trkpt lat="45.20101" lon="6.0844">
        <ele>1440</ele>
        <time>2022-06-18T05:26:30Z</time>
      </trkpt>
      <trkpt lat="45.20101" lon="6.08445">
        <ele>1440.3</ele>
        <time>2022-06-18T05:26:31Z</time>
      </trkpt>
      <trkpt lat="45.20101" lon="6.0845">
        <ele>1440.6</ele>
        <time>2022-06-18T05:26:32Z</time>
      </trkpt>
      <trkpt lat="45.20103" lon="6.08455">
        <ele>1440.9</ele>
        <time>2022-06-18T05:26:34Z</time>
      </trkpt>
      <trkpt lat="45.20106" lon="6.08462">
        <ele>1441.4</ele>
        <time>2022-06-18T05:26:35Z</time>
      </trkpt>
      <trkpt lat="45.20107" lon="6.08466">
        <ele>1441.6</ele>
        <time>2022-06-18T05:26:36Z</time>
      </trkpt>
      <trkpt lat="45.20109" lon="6.0847">
        <ele>1441.9</ele>
        <time>2022-06-18T05:26:37Z</time>
      </trkpt>
      <trkpt lat="45.20111" lon="6.08475">
        <ele>1442.2</ele>
        <time>2022-06-18T05:26:39Z</time>
      </trkpt>
      <trkpt lat="45.20113" lon="6.08481">
        <ele>1442.5</ele>
        <time>2022-06-18T05:26:40Z</time>
      </trkpt>
      <trkpt lat="45.20114" lon="6.08487">
        <ele>1442.9</ele>
        <time>2022-06-18T05:26:41Z</time>
      </trkpt>
      <trkpt lat="45.20115" lon="6.08489">
        <ele>1443</ele>
        <time>2022-06-18T05:26:42Z</time>
      </trkpt>
      <trkpt lat="45.20116" lon="6.08494">
        <ele>1443.3</ele>
        <time>2022-06-18T05:26:43Z</time>
      </trkpt>
      <trkpt lat="45.20117" lon="6.08499">
        <ele>1443.6</ele>
        <time>2022-06-18T05:26:45Z</time>
      </trkpt>
      <trkpt lat="45.20119" lon="6.08504">
        <ele>1443.9</ele>
        <time>2022-06-18T05:26:46Z</time>
      </trkpt>
      <trkpt lat="45.2012" lon="6.08508">
        <ele>1444.2</ele>
        <time>2022-06-18T05:26:47Z</time>
      </trkpt>
      <trkpt lat="45.20121" lon="6.08512">
        <ele>1444.5</ele>
        <time>2022-06-18T05:26:48Z</time>
      </trkpt>
      <trkpt lat="45.20123" lon="6.08517">
        <ele>1444.8</ele>
        <time>2022-06-18T05:26:49Z</time>
      </trkpt>
      <trkpt lat="45.20124" lon="6.08521">
        <ele>1445</ele>
        <time>2022-06-18T05:26:50Z</time>
      </trkpt>
      <trkpt lat="45.20125" lon="6.08525">
        <ele>1445.3</ele>
        <time>2022-06-18T05:26:51Z</time>
      </trkpt>
      <trkpt lat="45.20126" lon="6.08529">
        <ele>1445.5</ele>
        <time>2022-06-18T05:26:52Z</time>
      </trkpt>
      <trkpt lat="45.20128" lon="6.08534">
        <ele>1445.9</ele>
        <time>2022-06-18T05:26:53Z</time>
      </trkpt>
      <trkpt lat="45.20129" lon="6.08538">
        <ele>1446.1</ele>
        <time>2022-06-18T05:26:54Z</time>
      </trkpt>
      <trkpt lat="45.20132" lon="6.08543">
        <ele>1446.4</ele>
        <time>2022-06-18T05:26:56Z</time>
      </trkpt>
      <trkpt lat="45.20135" lon="6.08547">
        <ele>1446.7</ele>
        <time>2022-06-18T05:26:57Z</time>
      </trkpt>
      <trkpt lat="45.20136" lon="6.08551">
        <ele>1447</ele>
        <time>2022-06-18T05:26:58Z</time>
      </trkpt>
      <trkpt lat="45.20139" lon="6.08556">
        <ele>1447.3</ele>
        <time>2022-06-18T05:26:59Z</time>
      </trkpt>
      <trkpt lat="45.20143" lon="6.08562">
        <ele>1447.7</ele>
        <time>2022-06-18T05:27:01Z</time>
      </trkpt>
      <trkpt lat="45.20145" lon="6.08566">
        <ele>1447.9</ele>
        <time>2022-06-18T05:27:02Z</time>
      </trkpt>
      <trkpt lat="45.20148" lon="6.08571">
        <ele>1448.3</ele>
        <time>2022-06-18T05:27:04Z</time>
      </trkpt>
      <trkpt lat="45.20151" lon="6.08576">
        <ele>1448.5</ele>
        <time>2022-06-18T05:27:05Z</time>
      </trkpt>
      <trkpt lat="45.20154" lon="6.08579">
        <ele>1448.8</ele>
        <time>2022-06-18T05:27:06Z</time>
      </trkpt>
      <trkpt lat="45.20158" lon="6.08585">
        <ele>1449.1</ele>
        <time>2022-06-18T05:27:08Z</time>
      </trkpt>
      <trkpt lat="45.20162" lon="6.08591">
        <ele>1449.4</ele>
        <time>2022-06-18T05:27:09Z</time>
      </trkpt>
      <trkpt lat="45.20164" lon="6.08595">
        <ele>1449.6</ele>
        <time>2022-06-18T05:27:10Z</time>
      </trkpt>
      <trkpt lat="45.20166" lon="6.08599">
        <ele>1449.7</ele>
        <time>2022-06-18T05:27:11Z</time>
      </trkpt>
      <trkpt lat="45.20169" lon="6.08603">
        <ele>1449.9</ele>
        <time>2022-06-18T05:27:12Z</time>
      </trkpt>
      <trkpt lat="45.20171" lon="6.08606">
        <ele>1450</ele>
        <time>2022-06-18T05:27:13Z</time>
      </trkpt>
      <trkpt lat="45.20174" lon="6.08611">
        <ele>1450.2</ele>
        <time>2022-06-18T05:27:15Z</time>
      </trkpt>
      <trkpt lat="45.20177" lon="6.08616">
        <ele>1450.4</ele>
        <time>2022-06-18T05:27:16Z</time>
      </trkpt>
      <trkpt lat="45.20181" lon="6.08621">
        <ele>1450.6</ele>
        <time>2022-06-18T05:27:17Z</time>
      </trkpt>
      <trkpt lat="45.20184" lon="6.08625">
        <ele>1450.8</ele>
        <time>2022-06-18T05:27:19Z</time>
      </trkpt>
      <trkpt lat="45.20189" lon="6.0863">
        <ele>1451.1</ele>
        <time>2022-06-18T05:27:20Z</time>
      </trkpt>
      <trkpt lat="45.20192" lon="6.08634">
        <ele>1451.2</ele>
        <time>2022-06-18T05:27:21Z</time>
      </trkpt>
      <trkpt lat="45.20194" lon="6.08639">
        <ele>1451.4</ele>
        <time>2022-06-18T05:27:23Z</time>
      </trkpt>
      <trkpt lat="45.20198" lon="6.08643">
        <ele>1451.6</ele>
        <time>2022-06-18T05:27:24Z</time>
      </trkpt>
      <trkpt lat="45.20201" lon="6.08648">
        <ele>1451.7</ele>
        <time>2022-06-18T05:27:25Z</time>
      </trkpt>
      <trkpt lat="45.20204" lon="6.08652">
        <ele>1451.9</ele>
        <time>2022-06-18T05:27:26Z</time>
      </trkpt>
      <trkpt lat="45.20209" lon="6.08659">
        <ele>1452.2</ele>
        <time>2022-06-18T05:27:28Z</time>
      </trkpt>
      <trkpt lat="45.20213" lon="6.08664">
        <ele>1452.4</ele>
        <time>2022-06-18T05:27:29Z</time>
      </trkpt>
      <trkpt lat="45.20218" lon="6.08669">
        <ele>1452.9</ele>
        <time>2022-06-18T05:27:31Z</time>
      </trkpt>
      <trkpt lat="45.20223" lon="6.08674">
        <ele>1453.4</ele>
        <time>2022-06-18T05:27:32Z</time>
      </trkpt>
      <trkpt lat="45.20228" lon="6.08679">
        <ele>1454</ele>
        <time>2022-06-18T05:27:33Z</time>
      </trkpt>
      <trkpt lat="45.20233" lon="6.08684">
        <ele>1454.6</ele>
        <time>2022-06-18T05:27:35Z</time>
      </trkpt>
      <trkpt lat="45.20237" lon="6.08688">
        <ele>1455</ele>
        <time>2022-06-18T05:27:36Z</time>
      </trkpt>
      <trkpt lat="45.20242" lon="6.08694">
        <ele>1455.6</ele>
        <time>2022-06-18T05:27:37Z</time>
      </trkpt>
      <trkpt lat="45.20246" lon="6.08699">
        <ele>1456.1</ele>
        <time>2022-06-18T05:27:39Z</time>
      </trkpt>
      <trkpt lat="45.20249" lon="6.08703">
        <ele>1456.5</ele>
        <time>2022-06-18T05:27:40Z</time>
      </trkpt>
      <trkpt lat="45.20253" lon="6.08706">
        <ele>1457</ele>
        <time>2022-06-18T05:27:41Z</time>
      </trkpt>
      <trkpt lat="45.20257" lon="6.0871">
        <ele>1457.4</ele>
        <time>2022-06-18T05:27:42Z</time>
      </trkpt>
      <trkpt lat="45.20261" lon="6.08712">
        <ele>1457.8</ele>
        <time>2022-06-18T05:27:43Z</time>
      </trkpt>
      <trkpt lat="45.20264" lon="6.08715">
        <ele>1458.1</ele>
        <time>2022-06-18T05:27:44Z</time>
      </trkpt>
      <trkpt lat="45.20266" lon="6.08718">
        <ele>1458.4</ele>
        <time>2022-06-18T05:27:45Z</time>
      </trkpt>
      <trkpt lat="45.20269" lon="6.08721">
        <ele>1458.8</ele>
        <time>2022-06-18T05:27:46Z</time>
      </trkpt>
      <trkpt lat="45.20272" lon="6.08726">
        <ele>1459.2</ele>
        <time>2022-06-18T05:27:47Z</time>
      </trkpt>
      <trkpt lat="45.20276" lon="6.0873">
        <ele>1459.7</ele>
        <time>2022-06-18T05:27:48Z</time>
      </trkpt>
      <trkpt lat="45.2028" lon="6.08733">
        <ele>1460.1</ele>
        <time>2022-06-18T05:27:49Z</time>
      </trkpt>
      <trkpt lat="45.20284" lon="6.08738">
        <ele>1460.7</ele>
        <time>2022-06-18T05:27:51Z</time>
      </trkpt>
      <trkpt lat="45.20288" lon="6.08742">
        <ele>1461.1</ele>
        <time>2022-06-18T05:27:52Z</time>
      </trkpt>
      <trkpt lat="45.20293" lon="6.08749">
        <ele>1461.7</ele>
        <time>2022-06-18T05:27:53Z</time>
      </trkpt>
      <trkpt lat="45.20297" lon="6.08754">
        <ele>1462.3</ele>
        <time>2022-06-18T05:27:54Z</time>
      </trkpt>
      <trkpt lat="45.20304" lon="6.08762">
        <ele>1463</ele>
        <time>2022-06-18T05:27:56Z</time>
      </trkpt>
      <trkpt lat="45.20308" lon="6.08767">
        <ele>1463.5</ele>
        <time>2022-06-18T05:27:57Z</time>
      </trkpt>
      <trkpt lat="45.20313" lon="6.08773">
        <ele>1464.1</ele>
        <time>2022-06-18T05:27:59Z</time>
      </trkpt>
      <trkpt lat="45.20318" lon="6.08781">
        <ele>1464.8</ele>
        <time>2022-06-18T05:28:00Z</time>
      </trkpt>
      <trkpt lat="45.20321" lon="6.08786">
        <ele>1465.2</ele>
        <time>2022-06-18T05:28:01Z</time>
      </trkpt>
      <trkpt lat="45.20324" lon="6.0879">
        <ele>1465.6</ele>
        <time>2022-06-18T05:28:02Z</time>
      </trkpt>
      <trkpt lat="45.20329" lon="6.08798">
        <ele>1466.3</ele>
        <time>2022-06-18T05:28:04Z</time>
      </trkpt>
      <trkpt lat="45.20332" lon="6.08802">
        <ele>1466.7</ele>
        <time>2022-06-18T05:28:05Z</time>
      </trkpt>
      <trkpt lat="45.20335" lon="6.08807">
        <ele>1467.1</ele>
        <time>2022-06-18T05:28:06Z</time>
      </trkpt>
      <trkpt lat="45.20339" lon="6.08814">
        <ele>1467.8</ele>
        <time>2022-06-18T05:28:08Z</time>
      </trkpt>
      <trkpt lat="45.20342" lon="6.08821">
        <ele>1468.3</ele>
        <time>2022-06-18T05:28:09Z</time>
      </trkpt>
      <trkpt lat="45.20345" lon="6.08828">
        <ele>1468.8</ele>
        <time>2022-06-18T05:28:10Z</time>
      </trkpt>
      <trkpt lat="45.20347" lon="6.08833">
        <ele>1469.2</ele>
        <time>2022-06-18T05:28:11Z</time>
      </trkpt>
      <trkpt lat="45.2035" lon="6.08841">
        <ele>1469.8</ele>
        <time>2022-06-18T05:28:12Z</time>
      </trkpt>
      <trkpt lat="45.20352" lon="6.08848">
        <ele>1470</ele>
        <time>2022-06-18T05:28:13Z</time>
      </trkpt>
      <trkpt lat="45.20354" lon="6.08854">
        <ele>1470.2</ele>
        <time>2022-06-18T05:28:14Z</time>
      </trkpt>
      <trkpt lat="45.20356" lon="6.0886">
        <ele>1470.5</ele>
        <time>2022-06-18T05:28:15Z</time>
      </trkpt>
      <trkpt lat="45.20358" lon="6.08866">
        <ele>1470.7</ele>
        <time>2022-06-18T05:28:16Z</time>
      </trkpt>
      <trkpt lat="45.20359" lon="6.0887">
        <ele>1470.8</ele>
        <time>2022-06-18T05:28:17Z</time>
      </trkpt>
      <trkpt lat="45.20359" lon="6.08875">
        <ele>1471</ele>
        <time>2022-06-18T05:28:18Z</time>
      </trkpt>
      <trkpt lat="45.20363" lon="6.08887">
        <ele>1471.4</ele>
        <time>2022-06-18T05:28:20Z</time>
      </trkpt>
      <trkpt lat="45.20365" lon="6.08892">
        <ele>1471.6</ele>
        <time>2022-06-18T05:28:21Z</time>
      </trkpt>
      <trkpt lat="45.20367" lon="6.08898">
        <ele>1471.9</ele>
        <time>2022-06-18T05:28:22Z</time>
      </trkpt>
      <trkpt lat="45.20369" lon="6.08903">
        <ele>1472</ele>
        <time>2022-06-18T05:28:23Z</time>
      </trkpt>
      <trkpt lat="45.20371" lon="6.08909">
        <ele>1472.3</ele>
        <time>2022-06-18T05:28:24Z</time>
      </trkpt>
      <trkpt lat="45.20372" lon="6.08914">
        <ele>1472.5</ele>
        <time>2022-06-18T05:28:25Z</time>
      </trkpt>
      <trkpt lat="45.20374" lon="6.08923">
        <ele>1472.8</ele>
        <time>2022-06-18T05:28:27Z</time>
      </trkpt>
      <trkpt lat="45.20377" lon="6.08931">
        <ele>1473.1</ele>
        <time>2022-06-18T05:28:28Z</time>
      </trkpt>
      <trkpt lat="45.20379" lon="6.08937">
        <ele>1473.3</ele>
        <time>2022-06-18T05:28:29Z</time>
      </trkpt>
      <trkpt lat="45.20381" lon="6.08945">
        <ele>1473.6</ele>
        <time>2022-06-18T05:28:30Z</time>
      </trkpt>
      <trkpt lat="45.20383" lon="6.08951">
        <ele>1473.9</ele>
        <time>2022-06-18T05:28:31Z</time>
      </trkpt>
      <trkpt lat="45.20385" lon="6.0896">
        <ele>1474.3</ele>
        <time>2022-06-18T05:28:33Z</time>
      </trkpt>
      <trkpt lat="45.20386" lon="6.08967">
        <ele>1474.6</ele>
        <time>2022-06-18T05:28:34Z</time>
      </trkpt>
      <trkpt lat="45.20386" lon="6.08973">
        <ele>1474.8</ele>
        <time>2022-06-18T05:28:35Z</time>
      </trkpt>
      <trkpt lat="45.20385" lon="6.0898">
        <ele>1475.1</ele>
        <time>2022-06-18T05:28:36Z</time>
      </trkpt>
      <trkpt lat="45.20383" lon="6.08987">
        <ele>1475.5</ele>
        <time>2022-06-18T05:28:38Z</time>
      </trkpt>
      <trkpt lat="45.20381" lon="6.08992">
        <ele>1475.8</ele>
        <time>2022-06-18T05:28:39Z</time>
      </trkpt>
      <trkpt lat="45.20378" lon="6.09">
        <ele>1476.3</ele>
        <time>2022-06-18T05:28:40Z</time>
      </trkpt>
      <trkpt lat="45.20376" lon="6.09005">
        <ele>1476.6</ele>
        <time>2022-06-18T05:28:41Z</time>
      </trkpt>
      <trkpt lat="45.20375" lon="6.0901">
        <ele>1477</ele>
        <time>2022-06-18T05:28:42Z</time>
      </trkpt>
      <trkpt lat="45.20374" lon="6.09015">
        <ele>1477.4</ele>
        <time>2022-06-18T05:28:43Z</time>
      </trkpt>
      <trkpt lat="45.20374" lon="6.09021">
        <ele>1477.8</ele>
        <time>2022-06-18T05:28:44Z</time>
      </trkpt>
      <trkpt lat="45.20374" lon="6.09027">
        <ele>1478.2</ele>
        <time>2022-06-18T05:28:45Z</time>
      </trkpt>
      <trkpt lat="45.20374" lon="6.09032">
        <ele>1478.6</ele>
        <time>2022-06-18T05:28:47Z</time>
      </trkpt>
      <trkpt lat="45.20374" lon="6.09038">
        <ele>1479</ele>
        <time>2022-06-18T05:28:48Z</time>
      </trkpt>
      <trkpt lat="45.20373" lon="6.09044">
        <ele>1479.5</ele>
        <time>2022-06-18T05:28:49Z</time>
      </trkpt>
      <trkpt lat="45.20374" lon="6.09049">
        <ele>1479.8</ele>
        <time>2022-06-18T05:28:50Z</time>
      </trkpt>
      <trkpt lat="45.20374" lon="6.09054">
        <ele>1480.2</ele>
        <time>2022-06-18T05:28:51Z</time>
      </trkpt>
      <trkpt lat="45.20375" lon="6.09059">
        <ele>1480.5</ele>
        <time>2022-06-18T05:28:52Z</time>
      </trkpt>
      <trkpt lat="45.20376" lon="6.09066">
        <ele>1481.1</ele>
        <time>2022-06-18T05:28:53Z</time>
      </trkpt>
      <trkpt lat="45.20378" lon="6.09075">
        <ele>1481.7</ele>
        <time>2022-06-18T05:28:55Z</time>
      </trkpt>
      <trkpt lat="45.20379" lon="6.0908">
        <ele>1482.2</ele>
        <time>2022-06-18T05:28:56Z</time>
      </trkpt>
      <trkpt lat="45.20381" lon="6.09084">
        <ele>1482.5</ele>
        <time>2022-06-18T05:28:57Z</time>
      </trkpt>
      <trkpt lat="45.20383" lon="6.09088">
        <ele>1482.9</ele>
        <time>2022-06-18T05:28:59Z</time>
      </trkpt>
      <trkpt lat="45.20385" lon="6.09092">
        <ele>1483.2</ele>
        <time>2022-06-18T05:29:00Z</time>
      </trkpt>
      <trkpt lat="45.20388" lon="6.09096">
        <ele>1483.6</ele>
        <time>2022-06-18T05:29:01Z</time>
      </trkpt>
      <trkpt lat="45.2039" lon="6.091">
        <ele>1483.9</ele>
        <time>2022-06-18T05:29:02Z</time>
      </trkpt>
      <trkpt lat="45.20392" lon="6.09103">
        <ele>1484.2</ele>
        <time>2022-06-18T05:29:03Z</time>
      </trkpt>
      <trkpt lat="45.20394" lon="6.09108">
        <ele>1484.5</ele>
        <time>2022-06-18T05:29:04Z</time>
      </trkpt>
      <trkpt lat="45.20396" lon="6.09113">
        <ele>1484.9</ele>
        <time>2022-06-18T05:29:06Z</time>
      </trkpt>
      <trkpt lat="45.20399" lon="6.09118">
        <ele>1485.4</ele>
        <time>2022-06-18T05:29:07Z</time>
      </trkpt>
      <trkpt lat="45.20401" lon="6.09123">
        <ele>1485.7</ele>
        <time>2022-06-18T05:29:08Z</time>
      </trkpt>
      <trkpt lat="45.20402" lon="6.09127">
        <ele>1486</ele>
        <time>2022-06-18T05:29:09Z</time>
      </trkpt>
      <trkpt lat="45.20403" lon="6.09133">
        <ele>1486.4</ele>
        <time>2022-06-18T05:29:10Z</time>
      </trkpt>
      <trkpt lat="45.20404" lon="6.09138">
        <ele>1486.8</ele>
        <time>2022-06-18T05:29:11Z</time>
      </trkpt>
      <trkpt lat="45.20405" lon="6.09145">
        <ele>1487.2</ele>
        <time>2022-06-18T05:29:13Z</time>
      </trkpt>
      <trkpt lat="45.20405" lon="6.09149">
        <ele>1487.5</ele>
        <time>2022-06-18T05:29:14Z</time>
      </trkpt>
      <trkpt lat="45.20405" lon="6.09156">
        <ele>1488</ele>
        <time>2022-06-18T05:29:15Z</time>
      </trkpt>
      <trkpt lat="45.20406" lon="6.09161">
        <ele>1488.4</ele>
        <time>2022-06-18T05:29:16Z</time>
      </trkpt>
      <trkpt lat="45.20406" lon="6.09164">
        <ele>1488.6</ele>
        <time>2022-06-18T05:29:17Z</time>
      </trkpt>
      <trkpt lat="45.20408" lon="6.09169">
        <ele>1489</ele>
        <time>2022-06-18T05:29:19Z</time>
      </trkpt>
      <trkpt lat="45.20409" lon="6.09173">
        <ele>1489.3</ele>
        <time>2022-06-18T05:29:20Z</time>
      </trkpt>
      <trkpt lat="45.2041" lon="6.0918">
        <ele>1489.8</ele>
        <time>2022-06-18T05:29:21Z</time>
      </trkpt>
      <trkpt lat="45.20411" lon="6.09185">
        <ele>1490.1</ele>
        <time>2022-06-18T05:29:22Z</time>
      </trkpt>
      <trkpt lat="45.20412" lon="6.0919">
        <ele>1490.5</ele>
        <time>2022-06-18T05:29:23Z</time>
      </trkpt>
      <trkpt lat="45.20414" lon="6.09195">
        <ele>1490.9</ele>
        <time>2022-06-18T05:29:25Z</time>
      </trkpt>
      <trkpt lat="45.20416" lon="6.09202">
        <ele>1491.4</ele>
        <time>2022-06-18T05:29:26Z</time>
      </trkpt>
      <trkpt lat="45.20417" lon="6.09207">
        <ele>1491.8</ele>
        <time>2022-06-18T05:29:27Z</time>
      </trkpt>
      <trkpt lat="45.20419" lon="6.09214">
        <ele>1492.3</ele>
        <time>2022-06-18T05:29:29Z</time>
      </trkpt>
      <trkpt lat="45.2042" lon="6.09219">
        <ele>1492.7</ele>
        <time>2022-06-18T05:29:31Z</time>
      </trkpt>
      <trkpt lat="45.20421" lon="6.09225">
        <ele>1493.1</ele>
        <time>2022-06-18T05:29:32Z</time>
      </trkpt>
      <trkpt lat="45.20422" lon="6.09229">
        <ele>1493.4</ele>
        <time>2022-06-18T05:29:33Z</time>
      </trkpt>
      <trkpt lat="45.20423" lon="6.09233">
        <ele>1493.7</ele>
        <time>2022-06-18T05:29:34Z</time>
      </trkpt>
      <trkpt lat="45.20424" lon="6.09239">
        <ele>1494.2</ele>
        <time>2022-06-18T05:29:36Z</time>
      </trkpt>
      <trkpt lat="45.20425" lon="6.09245">
        <ele>1494.6</ele>
        <time>2022-06-18T05:29:37Z</time>
      </trkpt>
      <trkpt lat="45.20427" lon="6.09251">
        <ele>1495.1</ele>
        <time>2022-06-18T05:29:39Z</time>
      </trkpt>
      <trkpt lat="45.20428" lon="6.09256">
        <ele>1495.5</ele>
        <time>2022-06-18T05:29:40Z</time>
      </trkpt>
      <trkpt lat="45.20429" lon="6.0926">
        <ele>1495.9</ele>
        <time>2022-06-18T05:29:41Z</time>
      </trkpt>
      <trkpt lat="45.2043" lon="6.09265">
        <ele>1496.3</ele>
        <time>2022-06-18T05:29:43Z</time>
      </trkpt>
      <trkpt lat="45.20432" lon="6.0927">
        <ele>1496.7</ele>
        <time>2022-06-18T05:29:44Z</time>
      </trkpt>
      <trkpt lat="45.20433" lon="6.09274">
        <ele>1497</ele>
        <time>2022-06-18T05:29:45Z</time>
      </trkpt>
      <trkpt lat="45.20435" lon="6.09279">
        <ele>1497.5</ele>
        <time>2022-06-18T05:29:46Z</time>
      </trkpt>
      <trkpt lat="45.20435" lon="6.0928">
        <ele>1497.6</ele>
        <time>2022-06-18T05:29:47Z</time>
      </trkpt>
      <trkpt lat="45.20436" lon="6.09284">
        <ele>1497.9</ele>
        <time>2022-06-18T05:29:48Z</time>
      </trkpt>
      <trkpt lat="45.20437" lon="6.09288">
        <ele>1498.3</ele>
        <time>2022-06-18T05:29:49Z</time>
      </trkpt>
      <trkpt lat="45.20438" lon="6.09293">
        <ele>1498.7</ele>
        <time>2022-06-18T05:29:51Z</time>
      </trkpt>
      <trkpt lat="45.2044" lon="6.093">
        <ele>1499.3</ele>
        <time>2022-06-18T05:29:52Z</time>
      </trkpt>
      <trkpt lat="45.20441" lon="6.09305">
        <ele>1499.8</ele>
        <time>2022-06-18T05:29:53Z</time>
      </trkpt>
      <trkpt lat="45.20442" lon="6.0931">
        <ele>1500.2</ele>
        <time>2022-06-18T05:29:54Z</time>
      </trkpt>
      <trkpt lat="45.20443" lon="6.09312">
        <ele>1500.4</ele>
        <time>2022-06-18T05:29:55Z</time>
      </trkpt>
      <trkpt lat="45.20444" lon="6.09315">
        <ele>1500.7</ele>
        <time>2022-06-18T05:29:56Z</time>
      </trkpt>
      <trkpt lat="45.20445" lon="6.09319">
        <ele>1501</ele>
        <time>2022-06-18T05:29:57Z</time>
      </trkpt>
      <trkpt lat="45.20447" lon="6.09323">
        <ele>1501.4</ele>
        <time>2022-06-18T05:29:59Z</time>
      </trkpt>
      <trkpt lat="45.20449" lon="6.09328">
        <ele>1501.9</ele>
        <time>2022-06-18T05:30:00Z</time>
      </trkpt>
      <trkpt lat="45.20451" lon="6.09332">
        <ele>1502.3</ele>
        <time>2022-06-18T05:30:01Z</time>
      </trkpt>
      <trkpt lat="45.20452" lon="6.09337">
        <ele>1502.8</ele>
        <time>2022-06-18T05:30:03Z</time>
      </trkpt>
      <trkpt lat="45.20454" lon="6.09342">
        <ele>1503.2</ele>
        <time>2022-06-18T05:30:04Z</time>
      </trkpt>
      <trkpt lat="45.20455" lon="6.09347">
        <ele>1503.7</ele>
        <time>2022-06-18T05:30:05Z</time>
      </trkpt>
      <trkpt lat="45.20457" lon="6.09352">
        <ele>1504.1</ele>
        <time>2022-06-18T05:30:07Z</time>
      </trkpt>
      <trkpt lat="45.20458" lon="6.09356">
        <ele>1504.4</ele>
        <time>2022-06-18T05:30:08Z</time>
      </trkpt>
      <trkpt lat="45.20459" lon="6.0936">
        <ele>1504.8</ele>
        <time>2022-06-18T05:30:09Z</time>
      </trkpt>
      <trkpt lat="45.2046" lon="6.09366">
        <ele>1505.3</ele>
        <time>2022-06-18T05:30:10Z</time>
      </trkpt>
      <trkpt lat="45.2046" lon="6.0937">
        <ele>1505.7</ele>
        <time>2022-06-18T05:30:11Z</time>
      </trkpt>
      <trkpt lat="45.2046" lon="6.09372">
        <ele>1505.8</ele>
        <time>2022-06-18T05:30:12Z</time>
      </trkpt>
      <trkpt lat="45.20461" lon="6.09376">
        <ele>1506.2</ele>
        <time>2022-06-18T05:30:13Z</time>
      </trkpt>
      <trkpt lat="45.20461" lon="6.09377">
        <ele>1506.3</ele>
        <time>2022-06-18T05:30:14Z</time>
      </trkpt>
      <trkpt lat="45.20462" lon="6.09384">
        <ele>1506.8</ele>
        <time>2022-06-18T05:30:15Z</time>
      </trkpt>
      <trkpt lat="45.20463" lon="6.09386">
        <ele>1507</ele>
        <time>2022-06-18T05:30:16Z</time>
      </trkpt>
      <trkpt lat="45.20463" lon="6.0939">
        <ele>1507.4</ele>
        <time>2022-06-18T05:30:17Z</time>
      </trkpt>
      <trkpt lat="45.20464" lon="6.09394">
        <ele>1507.7</ele>
        <time>2022-06-18T05:30:18Z</time>
      </trkpt>
      <trkpt lat="45.20465" lon="6.09399">
        <ele>1508.1</ele>
        <time>2022-06-18T05:30:20Z</time>
      </trkpt>
      <trkpt lat="45.20466" lon="6.09405">
        <ele>1508.6</ele>
        <time>2022-06-18T05:30:21Z</time>
      </trkpt>
      <trkpt lat="45.20467" lon="6.0941">
        <ele>1509.1</ele>
        <time>2022-06-18T05:30:22Z</time>
      </trkpt>
      <trkpt lat="45.20467" lon="6.09413">
        <ele>1509.3</ele>
        <time>2022-06-18T05:30:23Z</time>
      </trkpt>
      <trkpt lat="45.20468" lon="6.09418">
        <ele>1509.7</ele>
        <time>2022-06-18T05:30:24Z</time>
      </trkpt>
      <trkpt lat="45.20469" lon="6.09422">
        <ele>1510</ele>
        <time>2022-06-18T05:30:25Z</time>
      </trkpt>
      <trkpt lat="45.2047" lon="6.09428">
        <ele>1510.4</ele>
        <time>2022-06-18T05:30:27Z</time>
      </trkpt>
      <trkpt lat="45.20472" lon="6.09435">
        <ele>1510.9</ele>
        <time>2022-06-18T05:30:28Z</time>
      </trkpt>
      <trkpt lat="45.20472" lon="6.0944">
        <ele>1511.2</ele>
        <time>2022-06-18T05:30:29Z</time>
      </trkpt>
      <trkpt lat="45.20472" lon="6.09444">
        <ele>1511.5</ele>
        <time>2022-06-18T05:30:30Z</time>
      </trkpt>
      <trkpt lat="45.20471" lon="6.09451">
        <ele>1511.9</ele>
        <time>2022-06-18T05:30:32Z</time>
      </trkpt>
      <trkpt lat="45.20472" lon="6.09457">
        <ele>1512.3</ele>
        <time>2022-06-18T05:30:33Z</time>
      </trkpt>
      <trkpt lat="45.20471" lon="6.09463">
        <ele>1512.8</ele>
        <time>2022-06-18T05:30:35Z</time>
      </trkpt>
      <trkpt lat="45.20472" lon="6.09467">
        <ele>1513.1</ele>
        <time>2022-06-18T05:30:36Z</time>
      </trkpt>
      <trkpt lat="45.20471" lon="6.09471">
        <ele>1513.3</ele>
        <time>2022-06-18T05:30:37Z</time>
      </trkpt>
      <trkpt lat="45.2047" lon="6.09477">
        <ele>1513.8</ele>
        <time>2022-06-18T05:30:38Z</time>
      </trkpt>
      <trkpt lat="45.2047" lon="6.09485">
        <ele>1514.3</ele>
        <time>2022-06-18T05:30:40Z</time>
      </trkpt>
      <trkpt lat="45.2047" lon="6.0949">
        <ele>1514.6</ele>
        <time>2022-06-18T05:30:41Z</time>
      </trkpt>
      <trkpt lat="45.2047" lon="6.09495">
        <ele>1515</ele>
        <time>2022-06-18T05:30:43Z</time>
      </trkpt>
      <trkpt lat="45.2047" lon="6.095">
        <ele>1515.3</ele>
        <time>2022-06-18T05:30:44Z</time>
      </trkpt>
      <trkpt lat="45.2047" lon="6.09505">
        <ele>1515.6</ele>
        <time>2022-06-18T05:30:45Z</time>
      </trkpt>
      <trkpt lat="45.2047" lon="6.09508">
        <ele>1515.8</ele>
        <time>2022-06-18T05:30:46Z</time>
      </trkpt>
      <trkpt lat="45.20469" lon="6.09514">
        <ele>1516.3</ele>
        <time>2022-06-18T05:30:48Z</time>
      </trkpt>
      <trkpt lat="45.20469" lon="6.09518">
        <ele>1516.6</ele>
        <time>2022-06-18T05:30:49Z</time>
      </trkpt>
      <trkpt lat="45.20469" lon="6.09525">
        <ele>1517</ele>
        <time>2022-06-18T05:30:50Z</time>
      </trkpt>
      <trkpt lat="45.20468" lon="6.0953">
        <ele>1517.3</ele>
        <time>2022-06-18T05:30:52Z</time>
      </trkpt>
      <trkpt lat="45.20467" lon="6.09535">
        <ele>1517.7</ele>
        <time>2022-06-18T05:30:53Z</time>
      </trkpt>
      <trkpt lat="45.20466" lon="6.09538">
        <ele>1518</ele>
        <time>2022-06-18T05:30:54Z</time>
      </trkpt>
      <trkpt lat="45.20465" lon="6.09544">
        <ele>1518.3</ele>
        <time>2022-06-18T05:30:56Z</time>
      </trkpt>
      <trkpt lat="45.20465" lon="6.09545">
        <ele>1518.4</ele>
        <time>2022-06-18T05:30:57Z</time>
      </trkpt>
      <trkpt lat="45.20464" lon="6.0955">
        <ele>1518.8</ele>
        <time>2022-06-18T05:30:58Z</time>
      </trkpt>
      <trkpt lat="45.20463" lon="6.09556">
        <ele>1519.2</ele>
        <time>2022-06-18T05:31:00Z</time>
      </trkpt>
      <trkpt lat="45.20463" lon="6.09562">
        <ele>1519.6</ele>
        <time>2022-06-18T05:31:01Z</time>
      </trkpt>
      <trkpt lat="45.20463" lon="6.09567">
        <ele>1519.9</ele>
        <time>2022-06-18T05:31:02Z</time>
      </trkpt>
      <trkpt lat="45.20462" lon="6.0957">
        <ele>1520.2</ele>
        <time>2022-06-18T05:31:03Z</time>
      </trkpt>
      <trkpt lat="45.20461" lon="6.09575">
        <ele>1520.5</ele>
        <time>2022-06-18T05:31:05Z</time>
      </trkpt>
      <trkpt lat="45.20461" lon="6.09579">
        <ele>1520.8</ele>
        <time>2022-06-18T05:31:06Z</time>
      </trkpt>
      <trkpt lat="45.2046" lon="6.09585">
        <ele>1521.2</ele>
        <time>2022-06-18T05:31:07Z</time>
      </trkpt>
      <trkpt lat="45.2046" lon="6.0959">
        <ele>1521.6</ele>
        <time>2022-06-18T05:31:08Z</time>
      </trkpt>
      <trkpt lat="45.20459" lon="6.09592">
        <ele>1521.7</ele>
        <time>2022-06-18T05:31:09Z</time>
      </trkpt>
      <trkpt lat="45.20459" lon="6.09597">
        <ele>1522</ele>
        <time>2022-06-18T05:31:10Z</time>
      </trkpt>
      <trkpt lat="45.20459" lon="6.09601">
        <ele>1522.3</ele>
        <time>2022-06-18T05:31:11Z</time>
      </trkpt>
      <trkpt lat="45.20459" lon="6.09606">
        <ele>1522.7</ele>
        <time>2022-06-18T05:31:12Z</time>
      </trkpt>
      <trkpt lat="45.20459" lon="6.09611">
        <ele>1523</ele>
        <time>2022-06-18T05:31:13Z</time>
      </trkpt>
      <trkpt lat="45.20459" lon="6.09615">
        <ele>1523.3</ele>
        <time>2022-06-18T05:31:14Z</time>
      </trkpt>
      <trkpt lat="45.20459" lon="6.0962">
        <ele>1523.6</ele>
        <time>2022-06-18T05:31:16Z</time>
      </trkpt>
      <trkpt lat="45.20457" lon="6.09626">
        <ele>1524</ele>
        <time>2022-06-18T05:31:17Z</time>
      </trkpt>
      <trkpt lat="45.20456" lon="6.09631">
        <ele>1524.4</ele>
        <time>2022-06-18T05:31:18Z</time>
      </trkpt>
      <trkpt lat="45.20456" lon="6.09633">
        <ele>1524.5</ele>
        <time>2022-06-18T05:31:19Z</time>
      </trkpt>
      <trkpt lat="45.20455" lon="6.09638">
        <ele>1524.9</ele>
        <time>2022-06-18T05:31:20Z</time>
      </trkpt>
      <trkpt lat="45.20454" lon="6.0964">
        <ele>1525.1</ele>
        <time>2022-06-18T05:31:21Z</time>
      </trkpt>
      <trkpt lat="45.20454" lon="6.09645">
        <ele>1525.4</ele>
        <time>2022-06-18T05:31:22Z</time>
      </trkpt>
      <trkpt lat="45.20454" lon="6.09649">
        <ele>1525.7</ele>
        <time>2022-06-18T05:31:23Z</time>
      </trkpt>
      <trkpt lat="45.20454" lon="6.09653">
        <ele>1526</ele>
        <time>2022-06-18T05:31:24Z</time>
      </trkpt>
      <trkpt lat="45.20453" lon="6.09658">
        <ele>1526.3</ele>
        <time>2022-06-18T05:31:26Z</time>
      </trkpt>
      <trkpt lat="45.20453" lon="6.09664">
        <ele>1526.7</ele>
        <time>2022-06-18T05:31:27Z</time>
      </trkpt>
      <trkpt lat="45.20454" lon="6.0967">
        <ele>1527.1</ele>
        <time>2022-06-18T05:31:28Z</time>
      </trkpt>
      <trkpt lat="45.20454" lon="6.09671">
        <ele>1527.2</ele>
        <time>2022-06-18T05:31:29Z</time>
      </trkpt>
      <trkpt lat="45.20455" lon="6.09677">
        <ele>1527.6</ele>
        <time>2022-06-18T05:31:30Z</time>
      </trkpt>
      <trkpt lat="45.20455" lon="6.09678">
        <ele>1527.7</ele>
        <time>2022-06-18T05:31:31Z</time>
      </trkpt>
      <trkpt lat="45.20456" lon="6.09683">
        <ele>1528</ele>
        <time>2022-06-18T05:31:33Z</time>
      </trkpt>
      <trkpt lat="45.20457" lon="6.09688">
        <ele>1528.4</ele>
        <time>2022-06-18T05:31:34Z</time>
      </trkpt>
      <trkpt lat="45.20457" lon="6.09694">
        <ele>1528.8</ele>
        <time>2022-06-18T05:31:35Z</time>
      </trkpt>
      <trkpt lat="45.20457" lon="6.09698">
        <ele>1529</ele>
        <time>2022-06-18T05:31:36Z</time>
      </trkpt>
      <trkpt lat="45.20457" lon="6.09702">
        <ele>1529.3</ele>
        <time>2022-06-18T05:31:37Z</time>
      </trkpt>
      <trkpt lat="45.20457" lon="6.09707">
        <ele>1529.7</ele>
        <time>2022-06-18T05:31:39Z</time>
      </trkpt>
      <trkpt lat="45.20456" lon="6.09712">
        <ele>1530</ele>
        <time>2022-06-18T05:31:40Z</time>
      </trkpt>
      <trkpt lat="45.20457" lon="6.09718">
        <ele>1530.4</ele>
        <time>2022-06-18T05:31:42Z</time>
      </trkpt>
      <trkpt lat="45.20458" lon="6.09723">
        <ele>1530.7</ele>
        <time>2022-06-18T05:31:43Z</time>
      </trkpt>
      <trkpt lat="45.20458" lon="6.09729">
        <ele>1531.1</ele>
        <time>2022-06-18T05:31:44Z</time>
      </trkpt>
      <trkpt lat="45.20457" lon="6.09736">
        <ele>1531.6</ele>
        <time>2022-06-18T05:31:46Z</time>
      </trkpt>
      <trkpt lat="45.20457" lon="6.09741">
        <ele>1532</ele>
        <time>2022-06-18T05:31:47Z</time>
      </trkpt>
      <trkpt lat="45.20457" lon="6.09743">
        <ele>1532.1</ele>
        <time>2022-06-18T05:31:48Z</time>
      </trkpt>
      <trkpt lat="45.20456" lon="6.09746">
        <ele>1532.3</ele>
        <time>2022-06-18T05:31:49Z</time>
      </trkpt>
      <trkpt lat="45.20455" lon="6.09748">
        <ele>1532.4</ele>
        <time>2022-06-18T05:31:50Z</time>
      </trkpt>
      <trkpt lat="45.20454" lon="6.09753">
        <ele>1532.8</ele>
        <time>2022-06-18T05:31:51Z</time>
      </trkpt>
      <trkpt lat="45.20454" lon="6.09754">
        <ele>1532.9</ele>
        <time>2022-06-18T05:31:52Z</time>
      </trkpt>
      <trkpt lat="45.20453" lon="6.09758">
        <ele>1533.2</ele>
        <time>2022-06-18T05:31:53Z</time>
      </trkpt>
      <trkpt lat="45.20452" lon="6.09763">
        <ele>1533.6</ele>
        <time>2022-06-18T05:31:55Z</time>
      </trkpt>
      <trkpt lat="45.20451" lon="6.09769">
        <ele>1534</ele>
        <time>2022-06-18T05:31:56Z</time>
      </trkpt>
      <trkpt lat="45.20451" lon="6.09773">
        <ele>1534.3</ele>
        <time>2022-06-18T05:31:57Z</time>
      </trkpt>
      <trkpt lat="45.2045" lon="6.09775">
        <ele>1534.5</ele>
        <time>2022-06-18T05:31:58Z</time>
      </trkpt>
      <trkpt lat="45.2045" lon="6.09777">
        <ele>1534.6</ele>
        <time>2022-06-18T05:31:59Z</time>
      </trkpt>
      <trkpt lat="45.20448" lon="6.09782">
        <ele>1535</ele>
        <time>2022-06-18T05:32:00Z</time>
      </trkpt>
      <trkpt lat="45.20446" lon="6.09788">
        <ele>1535.5</ele>
        <time>2022-06-18T05:32:01Z</time>
      </trkpt>
      <trkpt lat="45.20445" lon="6.0979">
        <ele>1535.6</ele>
        <time>2022-06-18T05:32:02Z</time>
      </trkpt>
      <trkpt lat="45.20446" lon="6.09792">
        <ele>1535.8</ele>
        <time>2022-06-18T05:32:04Z</time>
      </trkpt>
      <trkpt lat="45.20445" lon="6.09797">
        <ele>1536.2</ele>
        <time>2022-06-18T05:32:05Z</time>
      </trkpt>
      <trkpt lat="45.20444" lon="6.09803">
        <ele>1536.6</ele>
        <time>2022-06-18T05:32:06Z</time>
      </trkpt>
      <trkpt lat="45.20443" lon="6.09809">
        <ele>1537</ele>
        <time>2022-06-18T05:32:07Z</time>
      </trkpt>
      <trkpt lat="45.20442" lon="6.09814">
        <ele>1537.4</ele>
        <time>2022-06-18T05:32:08Z</time>
      </trkpt>
      <trkpt lat="45.20441" lon="6.09818">
        <ele>1537.7</ele>
        <time>2022-06-18T05:32:09Z</time>
      </trkpt>
      <trkpt lat="45.20439" lon="6.09823">
        <ele>1538.1</ele>
        <time>2022-06-18T05:32:10Z</time>
      </trkpt>
      <trkpt lat="45.20438" lon="6.09828">
        <ele>1538.5</ele>
        <time>2022-06-18T05:32:12Z</time>
      </trkpt>
      <trkpt lat="45.20437" lon="6.09833">
        <ele>1538.9</ele>
        <time>2022-06-18T05:32:13Z</time>
      </trkpt>
      <trkpt lat="45.20436" lon="6.0984">
        <ele>1539.4</ele>
        <time>2022-06-18T05:32:15Z</time>
      </trkpt>
      <trkpt lat="45.20436" lon="6.09846">
        <ele>1539.7</ele>
        <time>2022-06-18T05:32:16Z</time>
      </trkpt>
      <trkpt lat="45.20436" lon="6.0985">
        <ele>1540</ele>
        <time>2022-06-18T05:32:17Z</time>
      </trkpt>
      <trkpt lat="45.20435" lon="6.09856">
        <ele>1540.4</ele>
        <time>2022-06-18T05:32:18Z</time>
      </trkpt>
      <trkpt lat="45.20435" lon="6.09858">
        <ele>1540.5</ele>
        <time>2022-06-18T05:32:19Z</time>
      </trkpt>
      <trkpt lat="45.20434" lon="6.09862">
        <ele>1540.8</ele>
        <time>2022-06-18T05:32:20Z</time>
      </trkpt>
      <trkpt lat="45.20434" lon="6.09867">
        <ele>1541.1</ele>
        <time>2022-06-18T05:32:21Z</time>
      </trkpt>
      <trkpt lat="45.20434" lon="6.09868">
        <ele>1541.2</ele>
        <time>2022-06-18T05:32:22Z</time>
      </trkpt>
      <trkpt lat="45.20434" lon="6.09874">
        <ele>1541.6</ele>
        <time>2022-06-18T05:32:23Z</time>
      </trkpt>
      <trkpt lat="45.20433" lon="6.09877">
        <ele>1541.8</ele>
        <time>2022-06-18T05:32:24Z</time>
      </trkpt>
      <trkpt lat="45.20433" lon="6.09881">
        <ele>1542.1</ele>
        <time>2022-06-18T05:32:25Z</time>
      </trkpt>
      <trkpt lat="45.20434" lon="6.09887">
        <ele>1542.4</ele>
        <time>2022-06-18T05:32:27Z</time>
      </trkpt>
      <trkpt lat="45.20434" lon="6.09891">
        <ele>1542.7</ele>
        <time>2022-06-18T05:32:28Z</time>
      </trkpt>
      <trkpt lat="45.20434" lon="6.09895">
        <ele>1543</ele>
        <time>2022-06-18T05:32:29Z</time>
      </trkpt>
      <trkpt lat="45.20434" lon="6.09899">
        <ele>1543.3</ele>
        <time>2022-06-18T05:32:30Z</time>
      </trkpt>
      <trkpt lat="45.20433" lon="6.09904">
        <ele>1543.6</ele>
        <time>2022-06-18T05:32:31Z</time>
      </trkpt>
      <trkpt lat="45.20433" lon="6.09905">
        <ele>1543.7</ele>
        <time>2022-06-18T05:32:32Z</time>
      </trkpt>
      <trkpt lat="45.20434" lon="6.09912">
        <ele>1544.1</ele>
        <time>2022-06-18T05:32:33Z</time>
      </trkpt>
      <trkpt lat="45.20434" lon="6.09914">
        <ele>1544.3</ele>
        <time>2022-06-18T05:32:34Z</time>
      </trkpt>
      <trkpt lat="45.20434" lon="6.09918">
        <ele>1544.5</ele>
        <time>2022-06-18T05:32:35Z</time>
      </trkpt>
      <trkpt lat="45.20435" lon="6.09922">
        <ele>1544.8</ele>
        <time>2022-06-18T05:32:37Z</time>
      </trkpt>
      <trkpt lat="45.20435" lon="6.09926">
        <ele>1545.1</ele>
        <time>2022-06-18T05:32:38Z</time>
      </trkpt>
      <trkpt lat="45.20434" lon="6.09932">
        <ele>1545.5</ele>
        <time>2022-06-18T05:32:39Z</time>
      </trkpt>
      <trkpt lat="45.20435" lon="6.09936">
        <ele>1545.7</ele>
        <time>2022-06-18T05:32:40Z</time>
      </trkpt>
      <trkpt lat="45.20435" lon="6.09941">
        <ele>1546.1</ele>
        <time>2022-06-18T05:32:41Z</time>
      </trkpt>
      <trkpt lat="45.20436" lon="6.09943">
        <ele>1546.2</ele>
        <time>2022-06-18T05:32:42Z</time>
      </trkpt>
      <trkpt lat="45.20436" lon="6.09947">
        <ele>1546.6</ele>
        <time>2022-06-18T05:32:43Z</time>
      </trkpt>
      <trkpt lat="45.20437" lon="6.09952">
        <ele>1547.1</ele>
        <time>2022-06-18T05:32:44Z</time>
      </trkpt>
      <trkpt lat="45.20438" lon="6.0996">
        <ele>1547.8</ele>
        <time>2022-06-18T05:32:46Z</time>
      </trkpt>
      <trkpt lat="45.20438" lon="6.09964">
        <ele>1548.2</ele>
        <time>2022-06-18T05:32:47Z</time>
      </trkpt>
      <trkpt lat="45.20438" lon="6.09969">
        <ele>1548.7</ele>
        <time>2022-06-18T05:32:48Z</time>
      </trkpt>
      <trkpt lat="45.20439" lon="6.09975">
        <ele>1549.2</ele>
        <time>2022-06-18T05:32:50Z</time>
      </trkpt>
      <trkpt lat="45.20439" lon="6.09981">
        <ele>1549.7</ele>
        <time>2022-06-18T05:32:51Z</time>
      </trkpt>
      <trkpt lat="45.2044" lon="6.09985">
        <ele>1550.1</ele>
        <time>2022-06-18T05:32:52Z</time>
      </trkpt>
      <trkpt lat="45.2044" lon="6.09991">
        <ele>1550.5</ele>
        <time>2022-06-18T05:32:54Z</time>
      </trkpt>
      <trkpt lat="45.2044" lon="6.09994">
        <ele>1550.9</ele>
        <time>2022-06-18T05:32:55Z</time>
      </trkpt>
      <trkpt lat="45.20441" lon="6.09999">
        <ele>1551.3</ele>
        <time>2022-06-18T05:32:56Z</time>
      </trkpt>
      <trkpt lat="45.20441" lon="6.10002">
        <ele>1551.5</ele>
        <time>2022-06-18T05:32:57Z</time>
      </trkpt>
      <trkpt lat="45.20441" lon="6.10008">
        <ele>1552</ele>
        <time>2022-06-18T05:32:58Z</time>
      </trkpt>
      <trkpt lat="45.20441" lon="6.1001">
        <ele>1552.1</ele>
        <time>2022-06-18T05:32:59Z</time>
      </trkpt>
      <trkpt lat="45.2044" lon="6.10015">
        <ele>1552.6</ele>
        <time>2022-06-18T05:33:00Z</time>
      </trkpt>
      <trkpt lat="45.2044" lon="6.10017">
        <ele>1552.7</ele>
        <time>2022-06-18T05:33:01Z</time>
      </trkpt>
      <trkpt lat="45.2044" lon="6.10021">
        <ele>1553.1</ele>
        <time>2022-06-18T05:33:02Z</time>
      </trkpt>
      <trkpt lat="45.20441" lon="6.10023">
        <ele>1553.3</ele>
        <time>2022-06-18T05:33:03Z</time>
      </trkpt>
      <trkpt lat="45.20441" lon="6.10029">
        <ele>1553.7</ele>
        <time>2022-06-18T05:33:04Z</time>
      </trkpt>
      <trkpt lat="45.20441" lon="6.10033">
        <ele>1554</ele>
        <time>2022-06-18T05:33:06Z</time>
      </trkpt>
      <trkpt lat="45.20442" lon="6.10036">
        <ele>1554.3</ele>
        <time>2022-06-18T05:33:07Z</time>
      </trkpt>
      <trkpt lat="45.20443" lon="6.10046">
        <ele>1555.1</ele>
        <time>2022-06-18T05:33:09Z</time>
      </trkpt>
      <trkpt lat="45.20444" lon="6.10055">
        <ele>1555.8</ele>
        <time>2022-06-18T05:33:10Z</time>
      </trkpt>
      <trkpt lat="45.20445" lon="6.10061">
        <ele>1556.4</ele>
        <time>2022-06-18T05:33:11Z</time>
      </trkpt>
      <trkpt lat="45.20445" lon="6.10066">
        <ele>1556.7</ele>
        <time>2022-06-18T05:33:12Z</time>
      </trkpt>
      <trkpt lat="45.20445" lon="6.10071">
        <ele>1557.1</ele>
        <time>2022-06-18T05:33:13Z</time>
      </trkpt>
      <trkpt lat="45.20445" lon="6.10076">
        <ele>1557.5</ele>
        <time>2022-06-18T05:33:14Z</time>
      </trkpt>
      <trkpt lat="45.20445" lon="6.1008">
        <ele>1557.9</ele>
        <time>2022-06-18T05:33:15Z</time>
      </trkpt>
      <trkpt lat="45.20446" lon="6.10086">
        <ele>1558.3</ele>
        <time>2022-06-18T05:33:16Z</time>
      </trkpt>
      <trkpt lat="45.20446" lon="6.1009">
        <ele>1558.7</ele>
        <time>2022-06-18T05:33:17Z</time>
      </trkpt>
      <trkpt lat="45.20446" lon="6.10098">
        <ele>1559.3</ele>
        <time>2022-06-18T05:33:19Z</time>
      </trkpt>
      <trkpt lat="45.20446" lon="6.10105">
        <ele>1560</ele>
        <time>2022-06-18T05:33:20Z</time>
      </trkpt>
      <trkpt lat="45.20447" lon="6.1011">
        <ele>1560.4</ele>
        <time>2022-06-18T05:33:21Z</time>
      </trkpt>
      <trkpt lat="45.20447" lon="6.10114">
        <ele>1560.7</ele>
        <time>2022-06-18T05:33:22Z</time>
      </trkpt>
      <trkpt lat="45.20447" lon="6.10119">
        <ele>1561.1</ele>
        <time>2022-06-18T05:33:23Z</time>
      </trkpt>
      <trkpt lat="45.20448" lon="6.10123">
        <ele>1561.4</ele>
        <time>2022-06-18T05:33:24Z</time>
      </trkpt>
      <trkpt lat="45.20448" lon="6.10128">
        <ele>1561.8</ele>
        <time>2022-06-18T05:33:25Z</time>
      </trkpt>
      <trkpt lat="45.20449" lon="6.10134">
        <ele>1562.4</ele>
        <time>2022-06-18T05:33:27Z</time>
      </trkpt>
      <trkpt lat="45.20449" lon="6.10141">
        <ele>1562.9</ele>
        <time>2022-06-18T05:33:28Z</time>
      </trkpt>
      <trkpt lat="45.2045" lon="6.10146">
        <ele>1563.3</ele>
        <time>2022-06-18T05:33:29Z</time>
      </trkpt>
      <trkpt lat="45.2045" lon="6.10151">
        <ele>1563.7</ele>
        <time>2022-06-18T05:33:30Z</time>
      </trkpt>
      <trkpt lat="45.20451" lon="6.10154">
        <ele>1563.9</ele>
        <time>2022-06-18T05:33:31Z</time>
      </trkpt>
      <trkpt lat="45.20451" lon="6.10158">
        <ele>1564.3</ele>
        <time>2022-06-18T05:33:32Z</time>
      </trkpt>
      <trkpt lat="45.20451" lon="6.10163">
        <ele>1564.6</ele>
        <time>2022-06-18T05:33:33Z</time>
      </trkpt>
      <trkpt lat="45.20452" lon="6.10167">
        <ele>1565</ele>
        <time>2022-06-18T05:33:34Z</time>
      </trkpt>
      <trkpt lat="45.20453" lon="6.10172">
        <ele>1565.4</ele>
        <time>2022-06-18T05:33:36Z</time>
      </trkpt>
      <trkpt lat="45.20453" lon="6.10178">
        <ele>1565.9</ele>
        <time>2022-06-18T05:33:37Z</time>
      </trkpt>
      <trkpt lat="45.20455" lon="6.10185">
        <ele>1566.5</ele>
        <time>2022-06-18T05:33:38Z</time>
      </trkpt>
      <trkpt lat="45.20456" lon="6.10191">
        <ele>1567</ele>
        <time>2022-06-18T05:33:40Z</time>
      </trkpt>
      <trkpt lat="45.20458" lon="6.10197">
        <ele>1567.5</ele>
        <time>2022-06-18T05:33:41Z</time>
      </trkpt>
      <trkpt lat="45.2046" lon="6.10202">
        <ele>1567.9</ele>
        <time>2022-06-18T05:33:42Z</time>
      </trkpt>
      <trkpt lat="45.20461" lon="6.10206">
        <ele>1568.3</ele>
        <time>2022-06-18T05:33:43Z</time>
      </trkpt>
      <trkpt lat="45.20463" lon="6.1021">
        <ele>1568.7</ele>
        <time>2022-06-18T05:33:44Z</time>
      </trkpt>
      <trkpt lat="45.20465" lon="6.10214">
        <ele>1568.9</ele>
        <time>2022-06-18T05:33:45Z</time>
      </trkpt>
      <trkpt lat="45.20467" lon="6.10219">
        <ele>1569.5</ele>
        <time>2022-06-18T05:33:47Z</time>
      </trkpt>
      <trkpt lat="45.2047" lon="6.10224">
        <ele>1570</ele>
        <time>2022-06-18T05:33:48Z</time>
      </trkpt>
      <trkpt lat="45.20472" lon="6.10229">
        <ele>1570.4</ele>
        <time>2022-06-18T05:33:49Z</time>
      </trkpt>
      <trkpt lat="45.20475" lon="6.10235">
        <ele>1571</ele>
        <time>2022-06-18T05:33:51Z</time>
      </trkpt>
      <trkpt lat="45.20477" lon="6.10241">
        <ele>1571.5</ele>
        <time>2022-06-18T05:33:52Z</time>
      </trkpt>
      <trkpt lat="45.20479" lon="6.10246">
        <ele>1572</ele>
        <time>2022-06-18T05:33:54Z</time>
      </trkpt>
      <trkpt lat="45.20481" lon="6.10252">
        <ele>1572.6</ele>
        <time>2022-06-18T05:33:55Z</time>
      </trkpt>
      <trkpt lat="45.20484" lon="6.10257">
        <ele>1573.1</ele>
        <time>2022-06-18T05:33:56Z</time>
      </trkpt>
      <trkpt lat="45.20487" lon="6.10262">
        <ele>1573.7</ele>
        <time>2022-06-18T05:33:58Z</time>
      </trkpt>
      <trkpt lat="45.2049" lon="6.10267">
        <ele>1574.2</ele>
        <time>2022-06-18T05:33:59Z</time>
      </trkpt>
      <trkpt lat="45.20492" lon="6.10272">
        <ele>1574.6</ele>
        <time>2022-06-18T05:34:00Z</time>
      </trkpt>
      <trkpt lat="45.20494" lon="6.10276">
        <ele>1575.1</ele>
        <time>2022-06-18T05:34:02Z</time>
      </trkpt>
      <trkpt lat="45.20496" lon="6.10281">
        <ele>1575.5</ele>
        <time>2022-06-18T05:34:03Z</time>
      </trkpt>
      <trkpt lat="45.20498" lon="6.10286">
        <ele>1576</ele>
        <time>2022-06-18T05:34:04Z</time>
      </trkpt>
      <trkpt lat="45.205" lon="6.10291">
        <ele>1576.5</ele>
        <time>2022-06-18T05:34:05Z</time>
      </trkpt>
      <trkpt lat="45.20502" lon="6.10296">
        <ele>1576.9</ele>
        <time>2022-06-18T05:34:06Z</time>
      </trkpt>
      <trkpt lat="45.20503" lon="6.103">
        <ele>1577.4</ele>
        <time>2022-06-18T05:34:07Z</time>
      </trkpt>
      <trkpt lat="45.20504" lon="6.10304">
        <ele>1577.7</ele>
        <time>2022-06-18T05:34:08Z</time>
      </trkpt>
      <trkpt lat="45.20506" lon="6.10309">
        <ele>1578.2</ele>
        <time>2022-06-18T05:34:10Z</time>
      </trkpt>
      <trkpt lat="45.20507" lon="6.10314">
        <ele>1578.7</ele>
        <time>2022-06-18T05:34:11Z</time>
      </trkpt>
      <trkpt lat="45.20509" lon="6.10318">
        <ele>1579.1</ele>
        <time>2022-06-18T05:34:12Z</time>
      </trkpt>
      <trkpt lat="45.20512" lon="6.10322">
        <ele>1579.6</ele>
        <time>2022-06-18T05:34:13Z</time>
      </trkpt>
      <trkpt lat="45.20514" lon="6.10331">
        <ele>1580.4</ele>
        <time>2022-06-18T05:34:15Z</time>
      </trkpt>
      <trkpt lat="45.20516" lon="6.10337">
        <ele>1581</ele>
        <time>2022-06-18T05:34:17Z</time>
      </trkpt>
      <trkpt lat="45.20518" lon="6.10343">
        <ele>1581.5</ele>
        <time>2022-06-18T05:34:18Z</time>
      </trkpt>
      <trkpt lat="45.2052" lon="6.10349">
        <ele>1582.1</ele>
        <time>2022-06-18T05:34:20Z</time>
      </trkpt>
      <trkpt lat="45.20522" lon="6.10355">
        <ele>1582.6</ele>
        <time>2022-06-18T05:34:21Z</time>
      </trkpt>
      <trkpt lat="45.20523" lon="6.10359">
        <ele>1583</ele>
        <time>2022-06-18T05:34:22Z</time>
      </trkpt>
      <trkpt lat="45.20524" lon="6.10363">
        <ele>1583.3</ele>
        <time>2022-06-18T05:34:23Z</time>
      </trkpt>
      <trkpt lat="45.20526" lon="6.10369">
        <ele>1583.8</ele>
        <time>2022-06-18T05:34:24Z</time>
      </trkpt>
      <trkpt lat="45.20527" lon="6.10373">
        <ele>1584.2</ele>
        <time>2022-06-18T05:34:25Z</time>
      </trkpt>
      <trkpt lat="45.20528" lon="6.10378">
        <ele>1584.6</ele>
        <time>2022-06-18T05:34:26Z</time>
      </trkpt>
      <trkpt lat="45.2053" lon="6.10384">
        <ele>1585.1</ele>
        <time>2022-06-18T05:34:28Z</time>
      </trkpt>
      <trkpt lat="45.20532" lon="6.10389">
        <ele>1585.6</ele>
        <time>2022-06-18T05:34:29Z</time>
      </trkpt>
      <trkpt lat="45.20533" lon="6.10395">
        <ele>1586.1</ele>
        <time>2022-06-18T05:34:30Z</time>
      </trkpt>
      <trkpt lat="45.20534" lon="6.10401">
        <ele>1586.6</ele>
        <time>2022-06-18T05:34:32Z</time>
      </trkpt>
      <trkpt lat="45.20536" lon="6.10408">
        <ele>1587.2</ele>
        <time>2022-06-18T05:34:33Z</time>
      </trkpt>
      <trkpt lat="45.20537" lon="6.10412">
        <ele>1587.6</ele>
        <time>2022-06-18T05:34:34Z</time>
      </trkpt>
      <trkpt lat="45.20539" lon="6.10418">
        <ele>1588.1</ele>
        <time>2022-06-18T05:34:35Z</time>
      </trkpt>
      <trkpt lat="45.20539" lon="6.1042">
        <ele>1588.3</ele>
        <time>2022-06-18T05:34:36Z</time>
      </trkpt>
      <trkpt lat="45.2054" lon="6.10425">
        <ele>1588.7</ele>
        <time>2022-06-18T05:34:37Z</time>
      </trkpt>
      <trkpt lat="45.20541" lon="6.10429">
        <ele>1589.1</ele>
        <time>2022-06-18T05:34:38Z</time>
      </trkpt>
      <trkpt lat="45.20542" lon="6.10433">
        <ele>1589.5</ele>
        <time>2022-06-18T05:34:39Z</time>
      </trkpt>
      <trkpt lat="45.20542" lon="6.10439">
        <ele>1589.9</ele>
        <time>2022-06-18T05:34:40Z</time>
      </trkpt>
      <trkpt lat="45.20543" lon="6.10441">
        <ele>1590.1</ele>
        <time>2022-06-18T05:34:41Z</time>
      </trkpt>
      <trkpt lat="45.20543" lon="6.10445">
        <ele>1590.5</ele>
        <time>2022-06-18T05:34:42Z</time>
      </trkpt>
      <trkpt lat="45.20544" lon="6.1045">
        <ele>1590.9</ele>
        <time>2022-06-18T05:34:43Z</time>
      </trkpt>
      <trkpt lat="45.20545" lon="6.10455">
        <ele>1591.3</ele>
        <time>2022-06-18T05:34:44Z</time>
      </trkpt>
      <trkpt lat="45.20546" lon="6.1046">
        <ele>1591.7</ele>
        <time>2022-06-18T05:34:45Z</time>
      </trkpt>
      <trkpt lat="45.20547" lon="6.10464">
        <ele>1592.1</ele>
        <time>2022-06-18T05:34:46Z</time>
      </trkpt>
      <trkpt lat="45.20548" lon="6.10468">
        <ele>1592.5</ele>
        <time>2022-06-18T05:34:47Z</time>
      </trkpt>
      <trkpt lat="45.20549" lon="6.10474">
        <ele>1593</ele>
        <time>2022-06-18T05:34:48Z</time>
      </trkpt>
      <trkpt lat="45.20551" lon="6.10479">
        <ele>1593.5</ele>
        <time>2022-06-18T05:34:49Z</time>
      </trkpt>
      <trkpt lat="45.20553" lon="6.10485">
        <ele>1594</ele>
        <time>2022-06-18T05:34:51Z</time>
      </trkpt>
      <trkpt lat="45.20555" lon="6.10489">
        <ele>1594.4</ele>
        <time>2022-06-18T05:34:52Z</time>
      </trkpt>
      <trkpt lat="45.20556" lon="6.10496">
        <ele>1595</ele>
        <time>2022-06-18T05:34:53Z</time>
      </trkpt>
      <trkpt lat="45.20559" lon="6.10504">
        <ele>1595.7</ele>
        <time>2022-06-18T05:34:55Z</time>
      </trkpt>
      <trkpt lat="45.2056" lon="6.10508">
        <ele>1596.1</ele>
        <time>2022-06-18T05:34:56Z</time>
      </trkpt>
      <trkpt lat="45.20562" lon="6.10513">
        <ele>1596.5</ele>
        <time>2022-06-18T05:34:57Z</time>
      </trkpt>
      <trkpt lat="45.20563" lon="6.10516">
        <ele>1596.8</ele>
        <time>2022-06-18T05:34:58Z</time>
      </trkpt>
      <trkpt lat="45.20566" lon="6.10521">
        <ele>1597.3</ele>
        <time>2022-06-18T05:35:00Z</time>
      </trkpt>
      <trkpt lat="45.20569" lon="6.10527">
        <ele>1597.9</ele>
        <time>2022-06-18T05:35:01Z</time>
      </trkpt>
      <trkpt lat="45.20571" lon="6.10532">
        <ele>1598.4</ele>
        <time>2022-06-18T05:35:03Z</time>
      </trkpt>
      <trkpt lat="45.20573" lon="6.10538">
        <ele>1598.9</ele>
        <time>2022-06-18T05:35:04Z</time>
      </trkpt>
      <trkpt lat="45.20575" lon="6.10542">
        <ele>1599.3</ele>
        <time>2022-06-18T05:35:05Z</time>
      </trkpt>
      <trkpt lat="45.20576" lon="6.10546">
        <ele>1599.6</ele>
        <time>2022-06-18T05:35:06Z</time>
      </trkpt>
      <trkpt lat="45.20578" lon="6.1055">
        <ele>1600</ele>
        <time>2022-06-18T05:35:07Z</time>
      </trkpt>
      <trkpt lat="45.20579" lon="6.10555">
        <ele>1600.4</ele>
        <time>2022-06-18T05:35:09Z</time>
      </trkpt>
      <trkpt lat="45.20581" lon="6.10561">
        <ele>1601</ele>
        <time>2022-06-18T05:35:10Z</time>
      </trkpt>
      <trkpt lat="45.20583" lon="6.10565">
        <ele>1601.4</ele>
        <time>2022-06-18T05:35:11Z</time>
      </trkpt>
      <trkpt lat="45.20586" lon="6.10571">
        <ele>1602</ele>
        <time>2022-06-18T05:35:13Z</time>
      </trkpt>
      <trkpt lat="45.20588" lon="6.10577">
        <ele>1602.5</ele>
        <time>2022-06-18T05:35:14Z</time>
      </trkpt>
      <trkpt lat="45.2059" lon="6.10582">
        <ele>1603</ele>
        <time>2022-06-18T05:35:16Z</time>
      </trkpt>
      <trkpt lat="45.20592" lon="6.10587">
        <ele>1603.5</ele>
        <time>2022-06-18T05:35:17Z</time>
      </trkpt>
      <trkpt lat="45.20594" lon="6.10592">
        <ele>1603.9</ele>
        <time>2022-06-18T05:35:18Z</time>
      </trkpt>
      <trkpt lat="45.20596" lon="6.10597">
        <ele>1604.3</ele>
        <time>2022-06-18T05:35:19Z</time>
      </trkpt>
      <trkpt lat="45.20598" lon="6.10602">
        <ele>1604.8</ele>
        <time>2022-06-18T05:35:20Z</time>
      </trkpt>
      <trkpt lat="45.206" lon="6.10606">
        <ele>1605.2</ele>
        <time>2022-06-18T05:35:21Z</time>
      </trkpt>
      <trkpt lat="45.20601" lon="6.10611">
        <ele>1605.6</ele>
        <time>2022-06-18T05:35:22Z</time>
      </trkpt>
      <trkpt lat="45.20603" lon="6.10616">
        <ele>1606.1</ele>
        <time>2022-06-18T05:35:24Z</time>
      </trkpt>
      <trkpt lat="45.20605" lon="6.10622">
        <ele>1606.7</ele>
        <time>2022-06-18T05:35:25Z</time>
      </trkpt>
      <trkpt lat="45.20607" lon="6.10626">
        <ele>1607</ele>
        <time>2022-06-18T05:35:26Z</time>
      </trkpt>
      <trkpt lat="45.20609" lon="6.1063">
        <ele>1607.4</ele>
        <time>2022-06-18T05:35:27Z</time>
      </trkpt>
      <trkpt lat="45.2061" lon="6.10635">
        <ele>1607.9</ele>
        <time>2022-06-18T05:35:29Z</time>
      </trkpt>
      <trkpt lat="45.20612" lon="6.1064">
        <ele>1608.4</ele>
        <time>2022-06-18T05:35:30Z</time>
      </trkpt>
      <trkpt lat="45.20615" lon="6.10647">
        <ele>1609</ele>
        <time>2022-06-18T05:35:32Z</time>
      </trkpt>
      <trkpt lat="45.20617" lon="6.10651">
        <ele>1609.5</ele>
        <time>2022-06-18T05:35:33Z</time>
      </trkpt>
      <trkpt lat="45.2062" lon="6.10657">
        <ele>1610</ele>
        <time>2022-06-18T05:35:34Z</time>
      </trkpt>
      <trkpt lat="45.20623" lon="6.10662">
        <ele>1610.6</ele>
        <time>2022-06-18T05:35:36Z</time>
      </trkpt>
      <trkpt lat="45.20626" lon="6.10667">
        <ele>1611.1</ele>
        <time>2022-06-18T05:35:37Z</time>
      </trkpt>
      <trkpt lat="45.20628" lon="6.10674">
        <ele>1611.7</ele>
        <time>2022-06-18T05:35:39Z</time>
      </trkpt>
      <trkpt lat="45.2063" lon="6.10679">
        <ele>1612.2</ele>
        <time>2022-06-18T05:35:40Z</time>
      </trkpt>
      <trkpt lat="45.20631" lon="6.10682">
        <ele>1612.4</ele>
        <time>2022-06-18T05:35:41Z</time>
      </trkpt>
      <trkpt lat="45.20633" lon="6.10686">
        <ele>1612.8</ele>
        <time>2022-06-18T05:35:42Z</time>
      </trkpt>
      <trkpt lat="45.20636" lon="6.10691">
        <ele>1613.3</ele>
        <time>2022-06-18T05:35:44Z</time>
      </trkpt>
      <trkpt lat="45.20638" lon="6.10695">
        <ele>1613.7</ele>
        <time>2022-06-18T05:35:45Z</time>
      </trkpt>
      <trkpt lat="45.2064" lon="6.10701">
        <ele>1614.3</ele>
        <time>2022-06-18T05:35:46Z</time>
      </trkpt>
      <trkpt lat="45.20642" lon="6.10704">
        <ele>1614.6</ele>
        <time>2022-06-18T05:35:47Z</time>
      </trkpt>
      <trkpt lat="45.20643" lon="6.10709">
        <ele>1615</ele>
        <time>2022-06-18T05:35:48Z</time>
      </trkpt>
      <trkpt lat="45.20645" lon="6.10714">
        <ele>1615.4</ele>
        <time>2022-06-18T05:35:49Z</time>
      </trkpt>
      <trkpt lat="45.20646" lon="6.10719">
        <ele>1615.9</ele>
        <time>2022-06-18T05:35:50Z</time>
      </trkpt>
      <trkpt lat="45.20648" lon="6.10724">
        <ele>1616.3</ele>
        <time>2022-06-18T05:35:52Z</time>
      </trkpt>
      <trkpt lat="45.20649" lon="6.10729">
        <ele>1616.7</ele>
        <time>2022-06-18T05:35:53Z</time>
      </trkpt>
      <trkpt lat="45.20651" lon="6.10735">
        <ele>1617.1</ele>
        <time>2022-06-18T05:35:54Z</time>
      </trkpt>
      <trkpt lat="45.20652" lon="6.1074">
        <ele>1617.4</ele>
        <time>2022-06-18T05:35:55Z</time>
      </trkpt>
      <trkpt lat="45.20653" lon="6.10744">
        <ele>1617.7</ele>
        <time>2022-06-18T05:35:56Z</time>
      </trkpt>
      <trkpt lat="45.20654" lon="6.10749">
        <ele>1618</ele>
        <time>2022-06-18T05:35:57Z</time>
      </trkpt>
      <trkpt lat="45.20656" lon="6.10753">
        <ele>1618.3</ele>
        <time>2022-06-18T05:35:58Z</time>
      </trkpt>
      <trkpt lat="45.20658" lon="6.10757">
        <ele>1618.6</ele>
        <time>2022-06-18T05:35:59Z</time>
      </trkpt>
      <trkpt lat="45.20659" lon="6.10761">
        <ele>1618.9</ele>
        <time>2022-06-18T05:36:01Z</time>
      </trkpt>
      <trkpt lat="45.2066" lon="6.10768">
        <ele>1619.4</ele>
        <time>2022-06-18T05:36:02Z</time>
      </trkpt>
      <trkpt lat="45.20661" lon="6.10773">
        <ele>1619.7</ele>
        <time>2022-06-18T05:36:03Z</time>
      </trkpt>
      <trkpt lat="45.20662" lon="6.10777">
        <ele>1619.9</ele>
        <time>2022-06-18T05:36:04Z</time>
      </trkpt>
      <trkpt lat="45.20663" lon="6.10781">
        <ele>1620.2</ele>
        <time>2022-06-18T05:36:05Z</time>
      </trkpt>
      <trkpt lat="45.20664" lon="6.10786">
        <ele>1620.5</ele>
        <time>2022-06-18T05:36:06Z</time>
      </trkpt>
      <trkpt lat="45.20665" lon="6.10791">
        <ele>1620.8</ele>
        <time>2022-06-18T05:36:07Z</time>
      </trkpt>
      <trkpt lat="45.20667" lon="6.10796">
        <ele>1621.1</ele>
        <time>2022-06-18T05:36:09Z</time>
      </trkpt>
      <trkpt lat="45.20669" lon="6.10803">
        <ele>1621.5</ele>
        <time>2022-06-18T05:36:10Z</time>
      </trkpt>
      <trkpt lat="45.2067" lon="6.10809">
        <ele>1621.9</ele>
        <time>2022-06-18T05:36:11Z</time>
      </trkpt>
      <trkpt lat="45.20672" lon="6.10816">
        <ele>1622.2</ele>
        <time>2022-06-18T05:36:13Z</time>
      </trkpt>
      <trkpt lat="45.20673" lon="6.10822">
        <ele>1622.6</ele>
        <time>2022-06-18T05:36:14Z</time>
      </trkpt>
      <trkpt lat="45.20673" lon="6.10829">
        <ele>1622.9</ele>
        <time>2022-06-18T05:36:15Z</time>
      </trkpt>
      <trkpt lat="45.20674" lon="6.10834">
        <ele>1623.2</ele>
        <time>2022-06-18T05:36:16Z</time>
      </trkpt>
      <trkpt lat="45.20674" lon="6.1084">
        <ele>1623.4</ele>
        <time>2022-06-18T05:36:17Z</time>
      </trkpt>
      <trkpt lat="45.20674" lon="6.10845">
        <ele>1623.7</ele>
        <time>2022-06-18T05:36:18Z</time>
      </trkpt>
      <trkpt lat="45.20674" lon="6.10851">
        <ele>1623.9</ele>
        <time>2022-06-18T05:36:19Z</time>
      </trkpt>
      <trkpt lat="45.20674" lon="6.10855">
        <ele>1624.1</ele>
        <time>2022-06-18T05:36:20Z</time>
      </trkpt>
      <trkpt lat="45.20674" lon="6.10861">
        <ele>1624.3</ele>
        <time>2022-06-18T05:36:21Z</time>
      </trkpt>
      <trkpt lat="45.20674" lon="6.10866">
        <ele>1624.5</ele>
        <time>2022-06-18T05:36:22Z</time>
      </trkpt>
      <trkpt lat="45.20674" lon="6.10872">
        <ele>1624.8</ele>
        <time>2022-06-18T05:36:23Z</time>
      </trkpt>
      <trkpt lat="45.20675" lon="6.1088">
        <ele>1625.1</ele>
        <time>2022-06-18T05:36:25Z</time>
      </trkpt>
      <trkpt lat="45.20677" lon="6.10886">
        <ele>1625.3</ele>
        <time>2022-06-18T05:36:26Z</time>
      </trkpt>
      <trkpt lat="45.2068" lon="6.10891">
        <ele>1625.6</ele>
        <time>2022-06-18T05:36:27Z</time>
      </trkpt>
      <trkpt lat="45.20686" lon="6.10895">
        <ele>1625.9</ele>
        <time>2022-06-18T05:36:28Z</time>
      </trkpt>
      <trkpt lat="45.20695" lon="6.1089">
        <ele>1626.3</ele>
        <time>2022-06-18T05:36:30Z</time>
      </trkpt>
      <trkpt lat="45.20698" lon="6.10885">
        <ele>1626.5</ele>
        <time>2022-06-18T05:36:31Z</time>
      </trkpt>
      <trkpt lat="45.20699" lon="6.10878">
        <ele>1626.6</ele>
        <time>2022-06-18T05:36:32Z</time>
      </trkpt>
      <trkpt lat="45.20699" lon="6.10871">
        <ele>1626.8</ele>
        <time>2022-06-18T05:36:33Z</time>
      </trkpt>
      <trkpt lat="45.20697" lon="6.10863">
        <ele>1626.9</ele>
        <time>2022-06-18T05:36:34Z</time>
      </trkpt>
      <trkpt lat="45.20694" lon="6.10856">
        <ele>1627.1</ele>
        <time>2022-06-18T05:36:35Z</time>
      </trkpt>
      <trkpt lat="45.20691" lon="6.1085">
        <ele>1627.2</ele>
        <time>2022-06-18T05:36:36Z</time>
      </trkpt>
      <trkpt lat="45.20689" lon="6.10844">
        <ele>1627.4</ele>
        <time>2022-06-18T05:36:37Z</time>
      </trkpt>
      <trkpt lat="45.20687" lon="6.10837">
        <ele>1627.5</ele>
        <time>2022-06-18T05:36:38Z</time>
      </trkpt>
      <trkpt lat="45.20686" lon="6.10831">
        <ele>1627.7</ele>
        <time>2022-06-18T05:36:39Z</time>
      </trkpt>
      <trkpt lat="45.20684" lon="6.10825">
        <ele>1627.9</ele>
        <time>2022-06-18T05:36:40Z</time>
      </trkpt>
      <trkpt lat="45.20683" lon="6.10818">
        <ele>1628.1</ele>
        <time>2022-06-18T05:36:41Z</time>
      </trkpt>
      <trkpt lat="45.20682" lon="6.10812">
        <ele>1628.2</ele>
        <time>2022-06-18T05:36:42Z</time>
      </trkpt>
      <trkpt lat="45.20681" lon="6.10807">
        <ele>1628.4</ele>
        <time>2022-06-18T05:36:43Z</time>
      </trkpt>
      <trkpt lat="45.2068" lon="6.10801">
        <ele>1628.6</ele>
        <time>2022-06-18T05:36:44Z</time>
      </trkpt>
      <trkpt lat="45.20679" lon="6.10794">
        <ele>1628.8</ele>
        <time>2022-06-18T05:36:45Z</time>
      </trkpt>
      <trkpt lat="45.20679" lon="6.10788">
        <ele>1629</ele>
        <time>2022-06-18T05:36:46Z</time>
      </trkpt>
      <trkpt lat="45.20678" lon="6.10783">
        <ele>1629.2</ele>
        <time>2022-06-18T05:36:47Z</time>
      </trkpt>
      <trkpt lat="45.20678" lon="6.10778">
        <ele>1629.4</ele>
        <time>2022-06-18T05:36:48Z</time>
      </trkpt>
      <trkpt lat="45.20675" lon="6.10771">
        <ele>1629.7</ele>
        <time>2022-06-18T05:36:50Z</time>
      </trkpt>
      <trkpt lat="45.20676" lon="6.10762">
        <ele>1630.1</ele>
        <time>2022-06-18T05:36:51Z</time>
      </trkpt>
      <trkpt lat="45.20677" lon="6.10753">
        <ele>1630.6</ele>
        <time>2022-06-18T05:36:52Z</time>
      </trkpt>
      <trkpt lat="45.20678" lon="6.10747">
        <ele>1630.9</ele>
        <time>2022-06-18T05:36:53Z</time>
      </trkpt>
      <trkpt lat="45.20678" lon="6.10741">
        <ele>1631.2</ele>
        <time>2022-06-18T05:36:54Z</time>
      </trkpt>
      <trkpt lat="45.20677" lon="6.10737">
        <ele>1631.5</ele>
        <time>2022-06-18T05:36:55Z</time>
      </trkpt>
      <trkpt lat="45.20676" lon="6.10732">
        <ele>1631.8</ele>
        <time>2022-06-18T05:36:56Z</time>
      </trkpt>
      <trkpt lat="45.20676" lon="6.10727">
        <ele>1632.1</ele>
        <time>2022-06-18T05:36:57Z</time>
      </trkpt>
      <trkpt lat="45.20675" lon="6.10722">
        <ele>1632.4</ele>
        <time>2022-06-18T05:36:58Z</time>
      </trkpt>
      <trkpt lat="45.20674" lon="6.10717">
        <ele>1632.7</ele>
        <time>2022-06-18T05:37:00Z</time>
      </trkpt>
      <trkpt lat="45.20673" lon="6.10712">
        <ele>1633.1</ele>
        <time>2022-06-18T05:37:01Z</time>
      </trkpt>
      <trkpt lat="45.20672" lon="6.10706">
        <ele>1633.5</ele>
        <time>2022-06-18T05:37:02Z</time>
      </trkpt>
      <trkpt lat="45.20671" lon="6.107">
        <ele>1633.9</ele>
        <time>2022-06-18T05:37:03Z</time>
      </trkpt>
      <trkpt lat="45.2067" lon="6.10696">
        <ele>1634.2</ele>
        <time>2022-06-18T05:37:04Z</time>
      </trkpt>
      <trkpt lat="45.20669" lon="6.1069">
        <ele>1634.6</ele>
        <time>2022-06-18T05:37:05Z</time>
      </trkpt>
      <trkpt lat="45.20669" lon="6.10685">
        <ele>1634.9</ele>
        <time>2022-06-18T05:37:06Z</time>
      </trkpt>
      <trkpt lat="45.20669" lon="6.10679">
        <ele>1635.3</ele>
        <time>2022-06-18T05:37:08Z</time>
      </trkpt>
      <trkpt lat="45.20668" lon="6.10673">
        <ele>1635.8</ele>
        <time>2022-06-18T05:37:09Z</time>
      </trkpt>
      <trkpt lat="45.20667" lon="6.10668">
        <ele>1636.1</ele>
        <time>2022-06-18T05:37:10Z</time>
      </trkpt>
      <trkpt lat="45.20666" lon="6.10662">
        <ele>1636.5</ele>
        <time>2022-06-18T05:37:11Z</time>
      </trkpt>
      <trkpt lat="45.20665" lon="6.10657">
        <ele>1636.8</ele>
        <time>2022-06-18T05:37:12Z</time>
      </trkpt>
      <trkpt lat="45.20664" lon="6.1065">
        <ele>1637.3</ele>
        <time>2022-06-18T05:37:14Z</time>
      </trkpt>
      <trkpt lat="45.20663" lon="6.10643">
        <ele>1637.8</ele>
        <time>2022-06-18T05:37:15Z</time>
      </trkpt>
      <trkpt lat="45.20663" lon="6.10637">
        <ele>1638.2</ele>
        <time>2022-06-18T05:37:16Z</time>
      </trkpt>
      <trkpt lat="45.20662" lon="6.10632">
        <ele>1638.5</ele>
        <time>2022-06-18T05:37:17Z</time>
      </trkpt>
      <trkpt lat="45.20662" lon="6.10628">
        <ele>1638.7</ele>
        <time>2022-06-18T05:37:18Z</time>
      </trkpt>
      <trkpt lat="45.20661" lon="6.10623">
        <ele>1639.1</ele>
        <time>2022-06-18T05:37:19Z</time>
      </trkpt>
      <trkpt lat="45.2066" lon="6.10617">
        <ele>1639.4</ele>
        <time>2022-06-18T05:37:20Z</time>
      </trkpt>
      <trkpt lat="45.20659" lon="6.10612">
        <ele>1639.7</ele>
        <time>2022-06-18T05:37:22Z</time>
      </trkpt>
      <trkpt lat="45.20659" lon="6.10605">
        <ele>1640.2</ele>
        <time>2022-06-18T05:37:23Z</time>
      </trkpt>
      <trkpt lat="45.20658" lon="6.106">
        <ele>1640.5</ele>
        <time>2022-06-18T05:37:24Z</time>
      </trkpt>
      <trkpt lat="45.20658" lon="6.10594">
        <ele>1640.9</ele>
        <time>2022-06-18T05:37:25Z</time>
      </trkpt>
      <trkpt lat="45.20658" lon="6.10589">
        <ele>1641.2</ele>
        <time>2022-06-18T05:37:26Z</time>
      </trkpt>
      <trkpt lat="45.20658" lon="6.10584">
        <ele>1641.5</ele>
        <time>2022-06-18T05:37:27Z</time>
      </trkpt>
      <trkpt lat="45.20658" lon="6.1058">
        <ele>1641.8</ele>
        <time>2022-06-18T05:37:28Z</time>
      </trkpt>
      <trkpt lat="45.20657" lon="6.10571">
        <ele>1642.4</ele>
        <time>2022-06-18T05:37:30Z</time>
      </trkpt>
      <trkpt lat="45.20656" lon="6.10565">
        <ele>1642.9</ele>
        <time>2022-06-18T05:37:31Z</time>
      </trkpt>
      <trkpt lat="45.20656" lon="6.10562">
        <ele>1643</ele>
        <time>2022-06-18T05:37:32Z</time>
      </trkpt>
      <trkpt lat="45.20654" lon="6.10555">
        <ele>1643.5</ele>
        <time>2022-06-18T05:37:34Z</time>
      </trkpt>
      <trkpt lat="45.20652" lon="6.10549">
        <ele>1644</ele>
        <time>2022-06-18T05:37:35Z</time>
      </trkpt>
      <trkpt lat="45.20651" lon="6.10545">
        <ele>1644.3</ele>
        <time>2022-06-18T05:37:36Z</time>
      </trkpt>
      <trkpt lat="45.20649" lon="6.10541">
        <ele>1644.6</ele>
        <time>2022-06-18T05:37:37Z</time>
      </trkpt>
      <trkpt lat="45.20647" lon="6.10537">
        <ele>1645</ele>
        <time>2022-06-18T05:37:38Z</time>
      </trkpt>
      <trkpt lat="45.20645" lon="6.10533">
        <ele>1645.2</ele>
        <time>2022-06-18T05:37:39Z</time>
      </trkpt>
      <trkpt lat="45.20642" lon="6.10529">
        <ele>1645.6</ele>
        <time>2022-06-18T05:37:41Z</time>
      </trkpt>
      <trkpt lat="45.2064" lon="6.10524">
        <ele>1646</ele>
        <time>2022-06-18T05:37:42Z</time>
      </trkpt>
      <trkpt lat="45.20638" lon="6.10519">
        <ele>1646.4</ele>
        <time>2022-06-18T05:37:43Z</time>
      </trkpt>
      <trkpt lat="45.20636" lon="6.10515">
        <ele>1646.7</ele>
        <time>2022-06-18T05:37:44Z</time>
      </trkpt>
      <trkpt lat="45.20634" lon="6.1051">
        <ele>1647</ele>
        <time>2022-06-18T05:37:45Z</time>
      </trkpt>
      <trkpt lat="45.20633" lon="6.10505">
        <ele>1647.3</ele>
        <time>2022-06-18T05:37:46Z</time>
      </trkpt>
      <trkpt lat="45.20632" lon="6.10502">
        <ele>1647.6</ele>
        <time>2022-06-18T05:37:47Z</time>
      </trkpt>
      <trkpt lat="45.2063" lon="6.10496">
        <ele>1647.9</ele>
        <time>2022-06-18T05:37:48Z</time>
      </trkpt>
      <trkpt lat="45.20629" lon="6.10492">
        <ele>1648.2</ele>
        <time>2022-06-18T05:37:49Z</time>
      </trkpt>
      <trkpt lat="45.20627" lon="6.10487">
        <ele>1648.5</ele>
        <time>2022-06-18T05:37:50Z</time>
      </trkpt>
      <trkpt lat="45.20626" lon="6.10482">
        <ele>1648.9</ele>
        <time>2022-06-18T05:37:52Z</time>
      </trkpt>
      <trkpt lat="45.20625" lon="6.10474">
        <ele>1649.3</ele>
        <time>2022-06-18T05:37:53Z</time>
      </trkpt>
      <trkpt lat="45.20623" lon="6.10467">
        <ele>1649.8</ele>
        <time>2022-06-18T05:37:55Z</time>
      </trkpt>
      <trkpt lat="45.20622" lon="6.10461">
        <ele>1650.2</ele>
        <time>2022-06-18T05:37:56Z</time>
      </trkpt>
      <trkpt lat="45.20621" lon="6.10456">
        <ele>1650.7</ele>
        <time>2022-06-18T05:37:58Z</time>
      </trkpt>
      <trkpt lat="45.2062" lon="6.1045">
        <ele>1651.2</ele>
        <time>2022-06-18T05:37:59Z</time>
      </trkpt>
      <trkpt lat="45.20619" lon="6.10446">
        <ele>1651.7</ele>
        <time>2022-06-18T05:38:00Z</time>
      </trkpt>
      <trkpt lat="45.20619" lon="6.10442">
        <ele>1655.8</ele>
        <time>2022-06-18T05:38:01Z</time>
      </trkpt>
      <trkpt lat="45.20618" lon="6.10438">
        <ele>1656.3</ele>
        <time>2022-06-18T05:38:02Z</time>
      </trkpt>
      <trkpt lat="45.20617" lon="6.10434">
        <ele>1656.8</ele>
        <time>2022-06-18T05:38:03Z</time>
      </trkpt>
      <trkpt lat="45.20616" lon="6.10429">
        <ele>1657.3</ele>
        <time>2022-06-18T05:38:04Z</time>
      </trkpt>
      <trkpt lat="45.20616" lon="6.10426">
        <ele>1660.7</ele>
        <time>2022-06-18T05:38:05Z</time>
      </trkpt>
      <trkpt lat="45.20615" lon="6.10422">
        <ele>1661.2</ele>
        <time>2022-06-18T05:38:06Z</time>
      </trkpt>
      <trkpt lat="45.20614" lon="6.10418">
        <ele>1661.8</ele>
        <time>2022-06-18T05:38:07Z</time>
      </trkpt>
      <trkpt lat="45.20613" lon="6.10414">
        <ele>1662.3</ele>
        <time>2022-06-18T05:38:08Z</time>
      </trkpt>
      <trkpt lat="45.20612" lon="6.10409">
        <ele>1665</ele>
        <time>2022-06-18T05:38:09Z</time>
      </trkpt>
      <trkpt lat="45.2061" lon="6.10404">
        <ele>1657.3</ele>
        <time>2022-06-18T05:38:10Z</time>
      </trkpt>
      <trkpt lat="45.20608" lon="6.104">
        <ele>1657.8</ele>
        <time>2022-06-18T05:38:11Z</time>
      </trkpt>
      <trkpt lat="45.20606" lon="6.10395">
        <ele>1658.4</ele>
        <time>2022-06-18T05:38:12Z</time>
      </trkpt>
      <trkpt lat="45.20603" lon="6.10391">
        <ele>1660.6</ele>
        <time>2022-06-18T05:38:13Z</time>
      </trkpt>
      <trkpt lat="45.20601" lon="6.10386">
        <ele>1661.1</ele>
        <time>2022-06-18T05:38:14Z</time>
      </trkpt>
      <trkpt lat="45.20599" lon="6.10383">
        <ele>1661.6</ele>
        <time>2022-06-18T05:38:15Z</time>
      </trkpt>
      <trkpt lat="45.20596" lon="6.10377">
        <ele>1654.6</ele>
        <time>2022-06-18T05:38:17Z</time>
      </trkpt>
      <trkpt lat="45.20594" lon="6.10372">
        <ele>1655.6</ele>
        <time>2022-06-18T05:38:18Z</time>
      </trkpt>
      <trkpt lat="45.20591" lon="6.10367">
        <ele>1656.1</ele>
        <time>2022-06-18T05:38:19Z</time>
      </trkpt>
      <trkpt lat="45.20589" lon="6.10363">
        <ele>1656.6</ele>
        <time>2022-06-18T05:38:20Z</time>
      </trkpt>
      <trkpt lat="45.20586" lon="6.10357">
        <ele>1648.3</ele>
        <time>2022-06-18T05:38:21Z</time>
      </trkpt>
      <trkpt lat="45.20583" lon="6.10352">
        <ele>1648.8</ele>
        <time>2022-06-18T05:38:22Z</time>
      </trkpt>
      <trkpt lat="45.20581" lon="6.10347">
        <ele>1649.3</ele>
        <time>2022-06-18T05:38:23Z</time>
      </trkpt>
      <trkpt lat="45.20579" lon="6.10342">
        <ele>1649.7</ele>
        <time>2022-06-18T05:38:25Z</time>
      </trkpt>
      <trkpt lat="45.20576" lon="6.10336">
        <ele>1650.2</ele>
        <time>2022-06-18T05:38:26Z</time>
      </trkpt>
      <trkpt lat="45.20573" lon="6.10327">
        <ele>1643.5</ele>
        <time>2022-06-18T05:38:28Z</time>
      </trkpt>
      <trkpt lat="45.20574" lon="6.10318">
        <ele>1644.2</ele>
        <time>2022-06-18T05:38:29Z</time>
      </trkpt>
      <trkpt lat="45.20579" lon="6.10313">
        <ele>1651.5</ele>
        <time>2022-06-18T05:38:30Z</time>
      </trkpt>
      <trkpt lat="45.20584" lon="6.10312">
        <ele>1652</ele>
        <time>2022-06-18T05:38:31Z</time>
      </trkpt>
      <trkpt lat="45.20588" lon="6.10314">
        <ele>1660</ele>
        <time>2022-06-18T05:38:32Z</time>
      </trkpt>
      <trkpt lat="45.20591" lon="6.1032">
        <ele>1660.2</ele>
        <time>2022-06-18T05:38:33Z</time>
      </trkpt>
      <trkpt lat="45.20593" lon="6.10328">
        <ele>1660.4</ele>
        <time>2022-06-18T05:38:34Z</time>
      </trkpt>
      <trkpt lat="45.20593" lon="6.10335">
        <ele>1660.6</ele>
        <time>2022-06-18T05:38:35Z</time>
      </trkpt>
      <trkpt lat="45.20592" lon="6.10343">
        <ele>1660.8</ele>
        <time>2022-06-18T05:38:36Z</time>
      </trkpt>
      <trkpt lat="45.20591" lon="6.1035">
        <ele>1661</ele>
        <time>2022-06-18T05:38:37Z</time>
      </trkpt>
      <trkpt lat="45.20591" lon="6.10357">
        <ele>1661.2</ele>
        <time>2022-06-18T05:38:38Z</time>
      </trkpt>
      <trkpt lat="45.20593" lon="6.10365">
        <ele>1661.4</ele>
        <time>2022-06-18T05:38:40Z</time>
      </trkpt>
      <trkpt lat="45.20594" lon="6.10369">
        <ele>1661.5</ele>
        <time>2022-06-18T05:38:41Z</time>
      </trkpt>
      <trkpt lat="45.20596" lon="6.10375">
        <ele>1661.7</ele>
        <time>2022-06-18T05:38:42Z</time>
      </trkpt>
      <trkpt lat="45.206" lon="6.10383">
        <ele>1661.9</ele>
        <time>2022-06-18T05:38:43Z</time>
      </trkpt>
      <trkpt lat="45.20603" lon="6.10388">
        <ele>1662.1</ele>
        <time>2022-06-18T05:38:44Z</time>
      </trkpt>
      <trkpt lat="45.20606" lon="6.10394">
        <ele>1662.2</ele>
        <time>2022-06-18T05:38:45Z</time>
      </trkpt>
      <trkpt lat="45.20609" lon="6.10399">
        <ele>1662.4</ele>
        <time>2022-06-18T05:38:46Z</time>
      </trkpt>
      <trkpt lat="45.20612" lon="6.10404">
        <ele>1662.6</ele>
        <time>2022-06-18T05:38:47Z</time>
      </trkpt>
      <trkpt lat="45.20615" lon="6.1041">
        <ele>1662.8</ele>
        <time>2022-06-18T05:38:48Z</time>
      </trkpt>
      <trkpt lat="45.20618" lon="6.10416">
        <ele>1663</ele>
        <time>2022-06-18T05:38:49Z</time>
      </trkpt>
      <trkpt lat="45.20621" lon="6.10421">
        <ele>1663.2</ele>
        <time>2022-06-18T05:38:50Z</time>
      </trkpt>
      <trkpt lat="45.20623" lon="6.10426">
        <ele>1663.4</ele>
        <time>2022-06-18T05:38:51Z</time>
      </trkpt>
      <trkpt lat="45.20625" lon="6.10432">
        <ele>1663.6</ele>
        <time>2022-06-18T05:38:52Z</time>
      </trkpt>
      <trkpt lat="45.20625" lon="6.10434">
        <ele>1663.7</ele>
        <time>2022-06-18T05:38:53Z</time>
      </trkpt>
      <trkpt lat="45.20628" lon="6.1044">
        <ele>1664</ele>
        <time>2022-06-18T05:38:54Z</time>
      </trkpt>
      <trkpt lat="45.20631" lon="6.10447">
        <ele>1664.4</ele>
        <time>2022-06-18T05:38:55Z</time>
      </trkpt>
      <trkpt lat="45.20633" lon="6.10454">
        <ele>1664.7</ele>
        <time>2022-06-18T05:38:57Z</time>
      </trkpt>
      <trkpt lat="45.20635" lon="6.10461">
        <ele>1665.1</ele>
        <time>2022-06-18T05:38:58Z</time>
      </trkpt>
      <trkpt lat="45.20638" lon="6.10468">
        <ele>1665.5</ele>
        <time>2022-06-18T05:38:59Z</time>
      </trkpt>
      <trkpt lat="45.20641" lon="6.10474">
        <ele>1665.9</ele>
        <time>2022-06-18T05:39:01Z</time>
      </trkpt>
      <trkpt lat="45.20643" lon="6.10478">
        <ele>1666.1</ele>
        <time>2022-06-18T05:39:02Z</time>
      </trkpt>
      <trkpt lat="45.20646" lon="6.10484">
        <ele>1666.5</ele>
        <time>2022-06-18T05:39:03Z</time>
      </trkpt>
      <trkpt lat="45.20648" lon="6.10488">
        <ele>1666.8</ele>
        <time>2022-06-18T05:39:04Z</time>
      </trkpt>
      <trkpt lat="45.20652" lon="6.10493">
        <ele>1667.2</ele>
        <time>2022-06-18T05:39:05Z</time>
      </trkpt>
      <trkpt lat="45.20654" lon="6.10497">
        <ele>1667.5</ele>
        <time>2022-06-18T05:39:06Z</time>
      </trkpt>
      <trkpt lat="45.20656" lon="6.10502">
        <ele>1667.9</ele>
        <time>2022-06-18T05:39:07Z</time>
      </trkpt>
      <trkpt lat="45.20658" lon="6.10505">
        <ele>1668.1</ele>
        <time>2022-06-18T05:39:08Z</time>
      </trkpt>
      <trkpt lat="45.2066" lon="6.10509">
        <ele>1668.4</ele>
        <time>2022-06-18T05:39:09Z</time>
      </trkpt>
      <trkpt lat="45.20663" lon="6.10514">
        <ele>1668.8</ele>
        <time>2022-06-18T05:39:10Z</time>
      </trkpt>
      <trkpt lat="45.20666" lon="6.10518">
        <ele>1669.2</ele>
        <time>2022-06-18T05:39:11Z</time>
      </trkpt>
      <trkpt lat="45.2067" lon="6.10524">
        <ele>1669.6</ele>
        <time>2022-06-18T05:39:13Z</time>
      </trkpt>
      <trkpt lat="45.20673" lon="6.10528">
        <ele>1670</ele>
        <time>2022-06-18T05:39:14Z</time>
      </trkpt>
      <trkpt lat="45.20676" lon="6.10533">
        <ele>1670.4</ele>
        <time>2022-06-18T05:39:15Z</time>
      </trkpt>
      <trkpt lat="45.20679" lon="6.10539">
        <ele>1670.9</ele>
        <time>2022-06-18T05:39:16Z</time>
      </trkpt>
      <trkpt lat="45.20685" lon="6.10545">
        <ele>1671.5</ele>
        <time>2022-06-18T05:39:18Z</time>
      </trkpt>
      <trkpt lat="45.20687" lon="6.1055">
        <ele>1671.8</ele>
        <time>2022-06-18T05:39:19Z</time>
      </trkpt>
      <trkpt lat="45.20687" lon="6.10553">
        <ele>1672</ele>
        <time>2022-06-18T05:39:20Z</time>
      </trkpt>
      <trkpt lat="45.20689" lon="6.10558">
        <ele>1672.4</ele>
        <time>2022-06-18T05:39:22Z</time>
      </trkpt>
      <trkpt lat="45.20691" lon="6.10564">
        <ele>1672.7</ele>
        <time>2022-06-18T05:39:23Z</time>
      </trkpt>
      <trkpt lat="45.20691" lon="6.10569">
        <ele>1673.1</ele>
        <time>2022-06-18T05:39:24Z</time>
      </trkpt>
      <trkpt lat="45.20693" lon="6.10577">
        <ele>1673.7</ele>
        <time>2022-06-18T05:39:26Z</time>
      </trkpt>
      <trkpt lat="45.20694" lon="6.10582">
        <ele>1674</ele>
        <time>2022-06-18T05:39:27Z</time>
      </trkpt>
      <trkpt lat="45.20695" lon="6.10587">
        <ele>1674.4</ele>
        <time>2022-06-18T05:39:28Z</time>
      </trkpt>
      <trkpt lat="45.20696" lon="6.10592">
        <ele>1674.8</ele>
        <time>2022-06-18T05:39:29Z</time>
      </trkpt>
      <trkpt lat="45.20698" lon="6.10595">
        <ele>1675</ele>
        <time>2022-06-18T05:39:30Z</time>
      </trkpt>
      <trkpt lat="45.20699" lon="6.10601">
        <ele>1675.5</ele>
        <time>2022-06-18T05:39:32Z</time>
      </trkpt>
      <trkpt lat="45.20701" lon="6.10606">
        <ele>1675.9</ele>
        <time>2022-06-18T05:39:33Z</time>
      </trkpt>
      <trkpt lat="45.20702" lon="6.10612">
        <ele>1676.3</ele>
        <time>2022-06-18T05:39:35Z</time>
      </trkpt>
      <trkpt lat="45.20704" lon="6.10615">
        <ele>1676.6</ele>
        <time>2022-06-18T05:39:36Z</time>
      </trkpt>
      <trkpt lat="45.20706" lon="6.1062">
        <ele>1677</ele>
        <time>2022-06-18T05:39:37Z</time>
      </trkpt>
      <trkpt lat="45.20708" lon="6.10626">
        <ele>1677.4</ele>
        <time>2022-06-18T05:39:39Z</time>
      </trkpt>
      <trkpt lat="45.20709" lon="6.10632">
        <ele>1677.9</ele>
        <time>2022-06-18T05:39:40Z</time>
      </trkpt>
      <trkpt lat="45.2071" lon="6.10637">
        <ele>1678.2</ele>
        <time>2022-06-18T05:39:41Z</time>
      </trkpt>
      <trkpt lat="45.20711" lon="6.1064">
        <ele>1678.5</ele>
        <time>2022-06-18T05:39:42Z</time>
      </trkpt>
      <trkpt lat="45.20714" lon="6.10646">
        <ele>1679</ele>
        <time>2022-06-18T05:39:44Z</time>
      </trkpt>
      <trkpt lat="45.20716" lon="6.10653">
        <ele>1679.5</ele>
        <time>2022-06-18T05:39:45Z</time>
      </trkpt>
      <trkpt lat="45.20718" lon="6.10658">
        <ele>1680.1</ele>
        <time>2022-06-18T05:39:47Z</time>
      </trkpt>
      <trkpt lat="45.2072" lon="6.10662">
        <ele>1680.5</ele>
        <time>2022-06-18T05:39:48Z</time>
      </trkpt>
      <trkpt lat="45.20723" lon="6.10667">
        <ele>1680.9</ele>
        <time>2022-06-18T05:39:49Z</time>
      </trkpt>
      <trkpt lat="45.20725" lon="6.10673">
        <ele>1681.5</ele>
        <time>2022-06-18T05:39:51Z</time>
      </trkpt>
      <trkpt lat="45.20728" lon="6.1068">
        <ele>1682.1</ele>
        <time>2022-06-18T05:39:52Z</time>
      </trkpt>
      <trkpt lat="45.20729" lon="6.10684">
        <ele>1682.4</ele>
        <time>2022-06-18T05:39:53Z</time>
      </trkpt>
      <trkpt lat="45.20731" lon="6.10689">
        <ele>1682.8</ele>
        <time>2022-06-18T05:39:54Z</time>
      </trkpt>
      <trkpt lat="45.20733" lon="6.10692">
        <ele>1683.1</ele>
        <time>2022-06-18T05:39:55Z</time>
      </trkpt>
      <trkpt lat="45.20736" lon="6.10699">
        <ele>1683.7</ele>
        <time>2022-06-18T05:39:57Z</time>
      </trkpt>
      <trkpt lat="45.20739" lon="6.10706">
        <ele>1684.2</ele>
        <time>2022-06-18T05:39:58Z</time>
      </trkpt>
      <trkpt lat="45.20741" lon="6.10712">
        <ele>1684.7</ele>
        <time>2022-06-18T05:40:00Z</time>
      </trkpt>
      <trkpt lat="45.20743" lon="6.10718">
        <ele>1685.1</ele>
        <time>2022-06-18T05:40:01Z</time>
      </trkpt>
      <trkpt lat="45.20744" lon="6.10723">
        <ele>1685.6</ele>
        <time>2022-06-18T05:40:03Z</time>
      </trkpt>
      <trkpt lat="45.20745" lon="6.10728">
        <ele>1685.9</ele>
        <time>2022-06-18T05:40:04Z</time>
      </trkpt>
      <trkpt lat="45.20746" lon="6.10732">
        <ele>1686.2</ele>
        <time>2022-06-18T05:40:05Z</time>
      </trkpt>
      <trkpt lat="45.20746" lon="6.10738">
        <ele>1686.6</ele>
        <time>2022-06-18T05:40:06Z</time>
      </trkpt>
      <trkpt lat="45.20746" lon="6.10742">
        <ele>1686.9</ele>
        <time>2022-06-18T05:40:07Z</time>
      </trkpt>
      <trkpt lat="45.20746" lon="6.10747">
        <ele>1687.2</ele>
        <time>2022-06-18T05:40:08Z</time>
      </trkpt>
      <trkpt lat="45.20746" lon="6.10751">
        <ele>1687.6</ele>
        <time>2022-06-18T05:40:09Z</time>
      </trkpt>
      <trkpt lat="45.20747" lon="6.10757">
        <ele>1688</ele>
        <time>2022-06-18T05:40:10Z</time>
      </trkpt>
      <trkpt lat="45.20747" lon="6.10759">
        <ele>1688.1</ele>
        <time>2022-06-18T05:40:11Z</time>
      </trkpt>
      <trkpt lat="45.20748" lon="6.10763">
        <ele>1688.4</ele>
        <time>2022-06-18T05:40:12Z</time>
      </trkpt>
      <trkpt lat="45.20748" lon="6.10768">
        <ele>1688.8</ele>
        <time>2022-06-18T05:40:13Z</time>
      </trkpt>
      <trkpt lat="45.20749" lon="6.10773">
        <ele>1689.1</ele>
        <time>2022-06-18T05:40:14Z</time>
      </trkpt>
      <trkpt lat="45.20749" lon="6.10778">
        <ele>1689.4</ele>
        <time>2022-06-18T05:40:15Z</time>
      </trkpt>
      <trkpt lat="45.2075" lon="6.10783">
        <ele>1689.8</ele>
        <time>2022-06-18T05:40:16Z</time>
      </trkpt>
      <trkpt lat="45.2075" lon="6.10788">
        <ele>1690.1</ele>
        <time>2022-06-18T05:40:17Z</time>
      </trkpt>
      <trkpt lat="45.2075" lon="6.10793">
        <ele>1690.5</ele>
        <time>2022-06-18T05:40:18Z</time>
      </trkpt>
      <trkpt lat="45.20751" lon="6.108">
        <ele>1691</ele>
        <time>2022-06-18T05:40:20Z</time>
      </trkpt>
      <trkpt lat="45.20752" lon="6.10806">
        <ele>1691.5</ele>
        <time>2022-06-18T05:40:21Z</time>
      </trkpt>
      <trkpt lat="45.20752" lon="6.1081">
        <ele>1691.7</ele>
        <time>2022-06-18T05:40:22Z</time>
      </trkpt>
      <trkpt lat="45.20753" lon="6.10814">
        <ele>1692</ele>
        <time>2022-06-18T05:40:23Z</time>
      </trkpt>
      <trkpt lat="45.20753" lon="6.10816">
        <ele>1692.1</ele>
        <time>2022-06-18T05:40:24Z</time>
      </trkpt>
      <trkpt lat="45.20755" lon="6.10821">
        <ele>1692.5</ele>
        <time>2022-06-18T05:40:25Z</time>
      </trkpt>
      <trkpt lat="45.20756" lon="6.10825">
        <ele>1692.8</ele>
        <time>2022-06-18T05:40:27Z</time>
      </trkpt>
      <trkpt lat="45.20757" lon="6.10829">
        <ele>1693.1</ele>
        <time>2022-06-18T05:40:28Z</time>
      </trkpt>
      <trkpt lat="45.20759" lon="6.10834">
        <ele>1693.5</ele>
        <time>2022-06-18T05:40:29Z</time>
      </trkpt>
      <trkpt lat="45.20762" lon="6.10842">
        <ele>1694</ele>
        <time>2022-06-18T05:40:31Z</time>
      </trkpt>
      <trkpt lat="45.20763" lon="6.10845">
        <ele>1694.3</ele>
        <time>2022-06-18T05:40:32Z</time>
      </trkpt>
      <trkpt lat="45.20764" lon="6.10847">
        <ele>1694.5</ele>
        <time>2022-06-18T05:40:33Z</time>
      </trkpt>
      <trkpt lat="45.20766" lon="6.10852">
        <ele>1694.9</ele>
        <time>2022-06-18T05:40:35Z</time>
      </trkpt>
      <trkpt lat="45.20768" lon="6.10857">
        <ele>1695.3</ele>
        <time>2022-06-18T05:40:36Z</time>
      </trkpt>
      <trkpt lat="45.2077" lon="6.10863">
        <ele>1695.8</ele>
        <time>2022-06-18T05:40:37Z</time>
      </trkpt>
      <trkpt lat="45.20774" lon="6.10873">
        <ele>1696.6</ele>
        <time>2022-06-18T05:40:39Z</time>
      </trkpt>
      <trkpt lat="45.20777" lon="6.1088">
        <ele>1697.2</ele>
        <time>2022-06-18T05:40:40Z</time>
      </trkpt>
      <trkpt lat="45.20779" lon="6.1089">
        <ele>1697.9</ele>
        <time>2022-06-18T05:40:41Z</time>
      </trkpt>
      <trkpt lat="45.20781" lon="6.10897">
        <ele>1698.4</ele>
        <time>2022-06-18T05:40:42Z</time>
      </trkpt>
      <trkpt lat="45.20782" lon="6.10903">
        <ele>1698.8</ele>
        <time>2022-06-18T05:40:43Z</time>
      </trkpt>
      <trkpt lat="45.20783" lon="6.10908">
        <ele>1699.2</ele>
        <time>2022-06-18T05:40:44Z</time>
      </trkpt>
      <trkpt lat="45.20784" lon="6.10914">
        <ele>1699.6</ele>
        <time>2022-06-18T05:40:45Z</time>
      </trkpt>
      <trkpt lat="45.20786" lon="6.10919">
        <ele>1700</ele>
        <time>2022-06-18T05:40:46Z</time>
      </trkpt>
      <trkpt lat="45.20788" lon="6.10924">
        <ele>1700.4</ele>
        <time>2022-06-18T05:40:48Z</time>
      </trkpt>
      <trkpt lat="45.20789" lon="6.10931">
        <ele>1700.9</ele>
        <time>2022-06-18T05:40:49Z</time>
      </trkpt>
      <trkpt lat="45.2079" lon="6.10938">
        <ele>1701.4</ele>
        <time>2022-06-18T05:40:50Z</time>
      </trkpt>
      <trkpt lat="45.20791" lon="6.10945">
        <ele>1701.9</ele>
        <time>2022-06-18T05:40:52Z</time>
      </trkpt>
      <trkpt lat="45.20791" lon="6.10951">
        <ele>1702.2</ele>
        <time>2022-06-18T05:40:53Z</time>
      </trkpt>
      <trkpt lat="45.2079" lon="6.10955">
        <ele>1702.5</ele>
        <time>2022-06-18T05:40:54Z</time>
      </trkpt>
      <trkpt lat="45.20789" lon="6.1096">
        <ele>1702.8</ele>
        <time>2022-06-18T05:40:55Z</time>
      </trkpt>
      <trkpt lat="45.20788" lon="6.10964">
        <ele>1703.2</ele>
        <time>2022-06-18T05:40:56Z</time>
      </trkpt>
      <trkpt lat="45.20787" lon="6.10969">
        <ele>1703.6</ele>
        <time>2022-06-18T05:40:57Z</time>
      </trkpt>
      <trkpt lat="45.20786" lon="6.10976">
        <ele>1704.1</ele>
        <time>2022-06-18T05:40:59Z</time>
      </trkpt>
      <trkpt lat="45.20784" lon="6.10983">
        <ele>1704.7</ele>
        <time>2022-06-18T05:41:00Z</time>
      </trkpt>
      <trkpt lat="45.20783" lon="6.10988">
        <ele>1705</ele>
        <time>2022-06-18T05:41:01Z</time>
      </trkpt>
      <trkpt lat="45.20783" lon="6.10993">
        <ele>1705.4</ele>
        <time>2022-06-18T05:41:02Z</time>
      </trkpt>
      <trkpt lat="45.20781" lon="6.11">
        <ele>1705.9</ele>
        <time>2022-06-18T05:41:04Z</time>
      </trkpt>
      <trkpt lat="45.2078" lon="6.11008">
        <ele>1706.5</ele>
        <time>2022-06-18T05:41:05Z</time>
      </trkpt>
      <trkpt lat="45.2078" lon="6.11015">
        <ele>1706.9</ele>
        <time>2022-06-18T05:41:07Z</time>
      </trkpt>
      <trkpt lat="45.2078" lon="6.11021">
        <ele>1707.3</ele>
        <time>2022-06-18T05:41:08Z</time>
      </trkpt>
      <trkpt lat="45.2078" lon="6.11028">
        <ele>1707.7</ele>
        <time>2022-06-18T05:41:09Z</time>
      </trkpt>
      <trkpt lat="45.2078" lon="6.11036">
        <ele>1708.2</ele>
        <time>2022-06-18T05:41:11Z</time>
      </trkpt>
      <trkpt lat="45.2078" lon="6.11044">
        <ele>1708.6</ele>
        <time>2022-06-18T05:41:12Z</time>
      </trkpt>
      <trkpt lat="45.20781" lon="6.11051">
        <ele>1709</ele>
        <time>2022-06-18T05:41:13Z</time>
      </trkpt>
      <trkpt lat="45.20781" lon="6.11058">
        <ele>1709.4</ele>
        <time>2022-06-18T05:41:15Z</time>
      </trkpt>
      <trkpt lat="45.20781" lon="6.11066">
        <ele>1709.8</ele>
        <time>2022-06-18T05:41:16Z</time>
      </trkpt>
      <trkpt lat="45.20781" lon="6.11072">
        <ele>1710.1</ele>
        <time>2022-06-18T05:41:17Z</time>
      </trkpt>
      <trkpt lat="45.20781" lon="6.11077">
        <ele>1710.4</ele>
        <time>2022-06-18T05:41:18Z</time>
      </trkpt>
      <trkpt lat="45.20781" lon="6.11086">
        <ele>1710.8</ele>
        <time>2022-06-18T05:41:20Z</time>
      </trkpt>
      <trkpt lat="45.20781" lon="6.11094">
        <ele>1711.3</ele>
        <time>2022-06-18T05:41:21Z</time>
      </trkpt>
      <trkpt lat="45.2078" lon="6.11103">
        <ele>1711.7</ele>
        <time>2022-06-18T05:41:23Z</time>
      </trkpt>
      <trkpt lat="45.20779" lon="6.1111">
        <ele>1712.1</ele>
        <time>2022-06-18T05:41:24Z</time>
      </trkpt>
      <trkpt lat="45.20777" lon="6.11118">
        <ele>1712.5</ele>
        <time>2022-06-18T05:41:25Z</time>
      </trkpt>
      <trkpt lat="45.20776" lon="6.11127">
        <ele>1712.9</ele>
        <time>2022-06-18T05:41:27Z</time>
      </trkpt>
      <trkpt lat="45.20774" lon="6.11136">
        <ele>1713.3</ele>
        <time>2022-06-18T05:41:28Z</time>
      </trkpt>
      <trkpt lat="45.20774" lon="6.11142">
        <ele>1713.6</ele>
        <time>2022-06-18T05:41:29Z</time>
      </trkpt>
      <trkpt lat="45.20773" lon="6.11147">
        <ele>1713.9</ele>
        <time>2022-06-18T05:41:30Z</time>
      </trkpt>
      <trkpt lat="45.20772" lon="6.11156">
        <ele>1714.3</ele>
        <time>2022-06-18T05:41:32Z</time>
      </trkpt>
      <trkpt lat="45.20771" lon="6.11165">
        <ele>1714.7</ele>
        <time>2022-06-18T05:41:33Z</time>
      </trkpt>
      <trkpt lat="45.20771" lon="6.11172">
        <ele>1715.1</ele>
        <time>2022-06-18T05:41:34Z</time>
      </trkpt>
      <trkpt lat="45.20772" lon="6.1118">
        <ele>1715.5</ele>
        <time>2022-06-18T05:41:36Z</time>
      </trkpt>
      <trkpt lat="45.20772" lon="6.11188">
        <ele>1715.9</ele>
        <time>2022-06-18T05:41:37Z</time>
      </trkpt>
      <trkpt lat="45.20773" lon="6.11196">
        <ele>1716.2</ele>
        <time>2022-06-18T05:41:38Z</time>
      </trkpt>
      <trkpt lat="45.20774" lon="6.11204">
        <ele>1716.6</ele>
        <time>2022-06-18T05:41:40Z</time>
      </trkpt>
      <trkpt lat="45.20776" lon="6.11213">
        <ele>1717.1</ele>
        <time>2022-06-18T05:41:41Z</time>
      </trkpt>
      <trkpt lat="45.20777" lon="6.11221">
        <ele>1717.5</ele>
        <time>2022-06-18T05:41:42Z</time>
      </trkpt>
      <trkpt lat="45.20779" lon="6.11228">
        <ele>1717.8</ele>
        <time>2022-06-18T05:41:44Z</time>
      </trkpt>
      <trkpt lat="45.20781" lon="6.11236">
        <ele>1718.2</ele>
        <time>2022-06-18T05:41:45Z</time>
      </trkpt>
      <trkpt lat="45.20783" lon="6.11242">
        <ele>1718.5</ele>
        <time>2022-06-18T05:41:46Z</time>
      </trkpt>
      <trkpt lat="45.20785" lon="6.1125">
        <ele>1718.9</ele>
        <time>2022-06-18T05:41:48Z</time>
      </trkpt>
      <trkpt lat="45.20787" lon="6.11258">
        <ele>1719.3</ele>
        <time>2022-06-18T05:41:49Z</time>
      </trkpt>
      <trkpt lat="45.20788" lon="6.11264">
        <ele>1719.6</ele>
        <time>2022-06-18T05:41:50Z</time>
      </trkpt>
      <trkpt lat="45.20789" lon="6.11271">
        <ele>1719.9</ele>
        <time>2022-06-18T05:41:51Z</time>
      </trkpt>
      <trkpt lat="45.2079" lon="6.11277">
        <ele>1720.2</ele>
        <time>2022-06-18T05:41:52Z</time>
      </trkpt>
      <trkpt lat="45.20791" lon="6.11283">
        <ele>1720.5</ele>
        <time>2022-06-18T05:41:53Z</time>
      </trkpt>
      <trkpt lat="45.20792" lon="6.11291">
        <ele>1720.9</ele>
        <time>2022-06-18T05:41:54Z</time>
      </trkpt>
      <trkpt lat="45.20792" lon="6.11298">
        <ele>1721.2</ele>
        <time>2022-06-18T05:41:55Z</time>
      </trkpt>
      <trkpt lat="45.20791" lon="6.11305">
        <ele>1721.5</ele>
        <time>2022-06-18T05:41:56Z</time>
      </trkpt>
      <trkpt lat="45.20791" lon="6.11311">
        <ele>1721.8</ele>
        <time>2022-06-18T05:41:57Z</time>
      </trkpt>
      <trkpt lat="45.20789" lon="6.11318">
        <ele>1722.1</ele>
        <time>2022-06-18T05:41:58Z</time>
      </trkpt>
      <trkpt lat="45.20789" lon="6.11321">
        <ele>1722.3</ele>
        <time>2022-06-18T05:41:59Z</time>
      </trkpt>
      <trkpt lat="45.20788" lon="6.11326">
        <ele>1722.6</ele>
        <time>2022-06-18T05:42:00Z</time>
      </trkpt>
      <trkpt lat="45.20787" lon="6.11331">
        <ele>1722.8</ele>
        <time>2022-06-18T05:42:01Z</time>
      </trkpt>
      <trkpt lat="45.20787" lon="6.11337">
        <ele>1723.1</ele>
        <time>2022-06-18T05:42:02Z</time>
      </trkpt>
      <trkpt lat="45.20786" lon="6.11344">
        <ele>1723.5</ele>
        <time>2022-06-18T05:42:03Z</time>
      </trkpt>
      <trkpt lat="45.20786" lon="6.1135">
        <ele>1723.8</ele>
        <time>2022-06-18T05:42:04Z</time>
      </trkpt>
      <trkpt lat="45.20786" lon="6.11359">
        <ele>1724.3</ele>
        <time>2022-06-18T05:42:06Z</time>
      </trkpt>
      <trkpt lat="45.20787" lon="6.11366">
        <ele>1724.6</ele>
        <time>2022-06-18T05:42:07Z</time>
      </trkpt>
      <trkpt lat="45.20789" lon="6.11375">
        <ele>1725.1</ele>
        <time>2022-06-18T05:42:08Z</time>
      </trkpt>
      <trkpt lat="45.20791" lon="6.11381">
        <ele>1725.4</ele>
        <time>2022-06-18T05:42:09Z</time>
      </trkpt>
      <trkpt lat="45.20794" lon="6.1139">
        <ele>1725.9</ele>
        <time>2022-06-18T05:42:11Z</time>
      </trkpt>
      <trkpt lat="45.20797" lon="6.11398">
        <ele>1726.3</ele>
        <time>2022-06-18T05:42:12Z</time>
      </trkpt>
      <trkpt lat="45.20799" lon="6.11404">
        <ele>1726.6</ele>
        <time>2022-06-18T05:42:13Z</time>
      </trkpt>
      <trkpt lat="45.20802" lon="6.11411">
        <ele>1727</ele>
        <time>2022-06-18T05:42:15Z</time>
      </trkpt>
      <trkpt lat="45.20805" lon="6.11418">
        <ele>1727.4</ele>
        <time>2022-06-18T05:42:16Z</time>
      </trkpt>
      <trkpt lat="45.20807" lon="6.11425">
        <ele>1727.7</ele>
        <time>2022-06-18T05:42:17Z</time>
      </trkpt>
      <trkpt lat="45.20808" lon="6.11431">
        <ele>1728</ele>
        <time>2022-06-18T05:42:18Z</time>
      </trkpt>
      <trkpt lat="45.20809" lon="6.11437">
        <ele>1728.3</ele>
        <time>2022-06-18T05:42:19Z</time>
      </trkpt>
      <trkpt lat="45.2081" lon="6.11444">
        <ele>1728.6</ele>
        <time>2022-06-18T05:42:20Z</time>
      </trkpt>
      <trkpt lat="45.2081" lon="6.11454">
        <ele>1729.1</ele>
        <time>2022-06-18T05:42:22Z</time>
      </trkpt>
      <trkpt lat="45.20812" lon="6.11463">
        <ele>1729.6</ele>
        <time>2022-06-18T05:42:23Z</time>
      </trkpt>
      <trkpt lat="45.20813" lon="6.11468">
        <ele>1729.8</ele>
        <time>2022-06-18T05:42:24Z</time>
      </trkpt>
      <trkpt lat="45.20815" lon="6.11474">
        <ele>1730.2</ele>
        <time>2022-06-18T05:42:25Z</time>
      </trkpt>
      <trkpt lat="45.20819" lon="6.11484">
        <ele>1730.7</ele>
        <time>2022-06-18T05:42:27Z</time>
      </trkpt>
      <trkpt lat="45.20822" lon="6.11492">
        <ele>1731.1</ele>
        <time>2022-06-18T05:42:28Z</time>
      </trkpt>
      <trkpt lat="45.20824" lon="6.11497">
        <ele>1731.4</ele>
        <time>2022-06-18T05:42:29Z</time>
      </trkpt>
      <trkpt lat="45.20827" lon="6.11504">
        <ele>1731.7</ele>
        <time>2022-06-18T05:42:30Z</time>
      </trkpt>
      <trkpt lat="45.20829" lon="6.1151">
        <ele>1732.1</ele>
        <time>2022-06-18T05:42:31Z</time>
      </trkpt>
      <trkpt lat="45.20831" lon="6.11516">
        <ele>1732.4</ele>
        <time>2022-06-18T05:42:32Z</time>
      </trkpt>
      <trkpt lat="45.20834" lon="6.11522">
        <ele>1732.7</ele>
        <time>2022-06-18T05:42:33Z</time>
      </trkpt>
      <trkpt lat="45.20836" lon="6.11529">
        <ele>1733</ele>
        <time>2022-06-18T05:42:34Z</time>
      </trkpt>
      <trkpt lat="45.20838" lon="6.11536">
        <ele>1733.3</ele>
        <time>2022-06-18T05:42:35Z</time>
      </trkpt>
      <trkpt lat="45.2084" lon="6.11542">
        <ele>1733.6</ele>
        <time>2022-06-18T05:42:36Z</time>
      </trkpt>
      <trkpt lat="45.20839" lon="6.11548">
        <ele>1733.8</ele>
        <time>2022-06-18T05:42:38Z</time>
      </trkpt>
      <trkpt lat="45.20843" lon="6.11555">
        <ele>1734.1</ele>
        <time>2022-06-18T05:42:39Z</time>
      </trkpt>
      <trkpt lat="45.20845" lon="6.1156">
        <ele>1734.3</ele>
        <time>2022-06-18T05:42:40Z</time>
      </trkpt>
      <trkpt lat="45.20846" lon="6.11568">
        <ele>1734.6</ele>
        <time>2022-06-18T05:42:41Z</time>
      </trkpt>
      <trkpt lat="45.20847" lon="6.11576">
        <ele>1734.8</ele>
        <time>2022-06-18T05:42:42Z</time>
      </trkpt>
      <trkpt lat="45.20848" lon="6.11583">
        <ele>1735.1</ele>
        <time>2022-06-18T05:42:43Z</time>
      </trkpt>
      <trkpt lat="45.20849" lon="6.11591">
        <ele>1735.3</ele>
        <time>2022-06-18T05:42:44Z</time>
      </trkpt>
      <trkpt lat="45.2085" lon="6.11599">
        <ele>1735.5</ele>
        <time>2022-06-18T05:42:45Z</time>
      </trkpt>
      <trkpt lat="45.2085" lon="6.11606">
        <ele>1735.6</ele>
        <time>2022-06-18T05:42:46Z</time>
      </trkpt>
      <trkpt lat="45.20851" lon="6.11614">
        <ele>1735.8</ele>
        <time>2022-06-18T05:42:47Z</time>
      </trkpt>
      <trkpt lat="45.20851" lon="6.11621">
        <ele>1735.9</ele>
        <time>2022-06-18T05:42:48Z</time>
      </trkpt>
      <trkpt lat="45.20852" lon="6.11629">
        <ele>1736.1</ele>
        <time>2022-06-18T05:42:49Z</time>
      </trkpt>
      <trkpt lat="45.20852" lon="6.11638">
        <ele>1736.2</ele>
        <time>2022-06-18T05:42:50Z</time>
      </trkpt>
      <trkpt lat="45.20852" lon="6.11647">
        <ele>1736.4</ele>
        <time>2022-06-18T05:42:51Z</time>
      </trkpt>
      <trkpt lat="45.20852" lon="6.11656">
        <ele>1736.5</ele>
        <time>2022-06-18T05:42:52Z</time>
      </trkpt>
      <trkpt lat="45.20852" lon="6.11665">
        <ele>1736.5</ele>
        <time>2022-06-18T05:42:53Z</time>
      </trkpt>
      <trkpt lat="45.20852" lon="6.11675">
        <ele>1736.6</ele>
        <time>2022-06-18T05:42:54Z</time>
      </trkpt>
      <trkpt lat="45.20853" lon="6.11684">
        <ele>1736.7</ele>
        <time>2022-06-18T05:42:55Z</time>
      </trkpt>
      <trkpt lat="45.20853" lon="6.11693">
        <ele>1736.7</ele>
        <time>2022-06-18T05:42:56Z</time>
      </trkpt>
      <trkpt lat="45.20853" lon="6.11703">
        <ele>1736.8</ele>
        <time>2022-06-18T05:42:57Z</time>
      </trkpt>
      <trkpt lat="45.20854" lon="6.11712">
        <ele>1736.4</ele>
        <time>2022-06-18T05:42:58Z</time>
      </trkpt>
      <trkpt lat="45.20855" lon="6.11721">
        <ele>1735.2</ele>
        <time>2022-06-18T05:42:59Z</time>
      </trkpt>
      <trkpt lat="45.20856" lon="6.1173">
        <ele>1734</ele>
        <time>2022-06-18T05:43:00Z</time>
      </trkpt>
      <trkpt lat="45.20855" lon="6.11739">
        <ele>1732.8</ele>
        <time>2022-06-18T05:43:01Z</time>
      </trkpt>
      <trkpt lat="45.20854" lon="6.11749">
        <ele>1731.4</ele>
        <time>2022-06-18T05:43:02Z</time>
      </trkpt>
      <trkpt lat="45.20854" lon="6.11758">
        <ele>1730.2</ele>
        <time>2022-06-18T05:43:03Z</time>
      </trkpt>
      <trkpt lat="45.20853" lon="6.11768">
        <ele>1728.8</ele>
        <time>2022-06-18T05:43:04Z</time>
      </trkpt>
      <trkpt lat="45.20852" lon="6.11778">
        <ele>1727.4</ele>
        <time>2022-06-18T05:43:05Z</time>
      </trkpt>
      <trkpt lat="45.2085" lon="6.11788">
        <ele>1726.1</ele>
        <time>2022-06-18T05:43:06Z</time>
      </trkpt>
      <trkpt lat="45.20849" lon="6.11798">
        <ele>1724.7</ele>
        <time>2022-06-18T05:43:07Z</time>
      </trkpt>
      <trkpt lat="45.20848" lon="6.11808">
        <ele>1723.3</ele>
        <time>2022-06-18T05:43:08Z</time>
      </trkpt>
      <trkpt lat="45.20847" lon="6.11819">
        <ele>1722</ele>
        <time>2022-06-18T05:43:09Z</time>
      </trkpt>
      <trkpt lat="45.20847" lon="6.11829">
        <ele>1720.6</ele>
        <time>2022-06-18T05:43:10Z</time>
      </trkpt>
      <trkpt lat="45.20847" lon="6.11838">
        <ele>1719.3</ele>
        <time>2022-06-18T05:43:11Z</time>
      </trkpt>
      <trkpt lat="45.20849" lon="6.11848">
        <ele>1718</ele>
        <time>2022-06-18T05:43:12Z</time>
      </trkpt>
      <trkpt lat="45.20851" lon="6.11857">
        <ele>1716.7</ele>
        <time>2022-06-18T05:43:13Z</time>
      </trkpt>
      <trkpt lat="45.20855" lon="6.11866">
        <ele>1715.4</ele>
        <time>2022-06-18T05:43:14Z</time>
      </trkpt>
      <trkpt lat="45.20858" lon="6.11875">
        <ele>1714</ele>
        <time>2022-06-18T05:43:15Z</time>
      </trkpt>
      <trkpt lat="45.20861" lon="6.11883">
        <ele>1712.7</ele>
        <time>2022-06-18T05:43:16Z</time>
      </trkpt>
      <trkpt lat="45.20864" lon="6.11892">
        <ele>1711.4</ele>
        <time>2022-06-18T05:43:17Z</time>
      </trkpt>
      <trkpt lat="45.20867" lon="6.11901">
        <ele>1710.1</ele>
        <time>2022-06-18T05:43:18Z</time>
      </trkpt>
      <trkpt lat="45.20868" lon="6.11911">
        <ele>1708.8</ele>
        <time>2022-06-18T05:43:19Z</time>
      </trkpt>
      <trkpt lat="45.20867" lon="6.11922">
        <ele>1707.3</ele>
        <time>2022-06-18T05:43:20Z</time>
      </trkpt>
      <trkpt lat="45.20866" lon="6.11933">
        <ele>1705.8</ele>
        <time>2022-06-18T05:43:21Z</time>
      </trkpt>
      <trkpt lat="45.20865" lon="6.11944">
        <ele>1704.3</ele>
        <time>2022-06-18T05:43:22Z</time>
      </trkpt>
      <trkpt lat="45.20864" lon="6.11955">
        <ele>1702.9</ele>
        <time>2022-06-18T05:43:23Z</time>
      </trkpt>
      <trkpt lat="45.20862" lon="6.11966">
        <ele>1701.6</ele>
        <time>2022-06-18T05:43:24Z</time>
      </trkpt>
      <trkpt lat="45.20861" lon="6.11976">
        <ele>1700.2</ele>
        <time>2022-06-18T05:43:25Z</time>
      </trkpt>
      <trkpt lat="45.2086" lon="6.11987">
        <ele>1699</ele>
        <time>2022-06-18T05:43:26Z</time>
      </trkpt>
      <trkpt lat="45.2086" lon="6.11997">
        <ele>1699.1</ele>
        <time>2022-06-18T05:43:27Z</time>
      </trkpt>
      <trkpt lat="45.20859" lon="6.12008">
        <ele>1699.2</ele>
        <time>2022-06-18T05:43:28Z</time>
      </trkpt>
      <trkpt lat="45.20859" lon="6.12018">
        <ele>1699.2</ele>
        <time>2022-06-18T05:43:29Z</time>
      </trkpt>
      <trkpt lat="45.2086" lon="6.12028">
        <ele>1699.3</ele>
        <time>2022-06-18T05:43:30Z</time>
      </trkpt>
      <trkpt lat="45.20861" lon="6.12037">
        <ele>1699.4</ele>
        <time>2022-06-18T05:43:31Z</time>
      </trkpt>
      <trkpt lat="45.20862" lon="6.12047">
        <ele>1699.5</ele>
        <time>2022-06-18T05:43:32Z</time>
      </trkpt>
      <trkpt lat="45.20864" lon="6.12056">
        <ele>1699.7</ele>
        <time>2022-06-18T05:43:33Z</time>
      </trkpt>
      <trkpt lat="45.20866" lon="6.12065">
        <ele>1699.8</ele>
        <time>2022-06-18T05:43:34Z</time>
      </trkpt>
      <trkpt lat="45.20869" lon="6.12074">
        <ele>1700</ele>
        <time>2022-06-18T05:43:35Z</time>
      </trkpt>
      <trkpt lat="45.20871" lon="6.12083">
        <ele>1700.1</ele>
        <time>2022-06-18T05:43:36Z</time>
      </trkpt>
      <trkpt lat="45.20873" lon="6.12091">
        <ele>1700.3</ele>
        <time>2022-06-18T05:43:37Z</time>
      </trkpt>
      <trkpt lat="45.20875" lon="6.121">
        <ele>1700.5</ele>
        <time>2022-06-18T05:43:38Z</time>
      </trkpt>
      <trkpt lat="45.20878" lon="6.12108">
        <ele>1700.6</ele>
        <time>2022-06-18T05:43:39Z</time>
      </trkpt>
      <trkpt lat="45.2088" lon="6.12116">
        <ele>1700.8</ele>
        <time>2022-06-18T05:43:40Z</time>
      </trkpt>
      <trkpt lat="45.20882" lon="6.12125">
        <ele>1701.1</ele>
        <time>2022-06-18T05:43:41Z</time>
      </trkpt>
      <trkpt lat="45.20884" lon="6.12133">
        <ele>1701.3</ele>
        <time>2022-06-18T05:43:42Z</time>
      </trkpt>
      <trkpt lat="45.20886" lon="6.12142">
        <ele>1701.6</ele>
        <time>2022-06-18T05:43:43Z</time>
      </trkpt>
      <trkpt lat="45.20889" lon="6.12149">
        <ele>1701.8</ele>
        <time>2022-06-18T05:43:44Z</time>
      </trkpt>
      <trkpt lat="45.20891" lon="6.12157">
        <ele>1702.1</ele>
        <time>2022-06-18T05:43:45Z</time>
      </trkpt>
      <trkpt lat="45.20893" lon="6.12164">
        <ele>1702.3</ele>
        <time>2022-06-18T05:43:46Z</time>
      </trkpt>
      <trkpt lat="45.20895" lon="6.12171">
        <ele>1702.6</ele>
        <time>2022-06-18T05:43:47Z</time>
      </trkpt>
      <trkpt lat="45.20897" lon="6.12178">
        <ele>1702.8</ele>
        <time>2022-06-18T05:43:48Z</time>
      </trkpt>
      <trkpt lat="45.20899" lon="6.12184">
        <ele>1703</ele>
        <time>2022-06-18T05:43:49Z</time>
      </trkpt>
      <trkpt lat="45.20901" lon="6.1219">
        <ele>1703.2</ele>
        <time>2022-06-18T05:43:50Z</time>
      </trkpt>
      <trkpt lat="45.20904" lon="6.12196">
        <ele>1703.5</ele>
        <time>2022-06-18T05:43:51Z</time>
      </trkpt>
      <trkpt lat="45.20907" lon="6.12202">
        <ele>1703.7</ele>
        <time>2022-06-18T05:43:52Z</time>
      </trkpt>
      <trkpt lat="45.20909" lon="6.12208">
        <ele>1703.9</ele>
        <time>2022-06-18T05:43:53Z</time>
      </trkpt>
      <trkpt lat="45.20912" lon="6.12213">
        <ele>1704.2</ele>
        <time>2022-06-18T05:43:54Z</time>
      </trkpt>
      <trkpt lat="45.20915" lon="6.12219">
        <ele>1704.4</ele>
        <time>2022-06-18T05:43:55Z</time>
      </trkpt>
      <trkpt lat="45.20918" lon="6.12225">
        <ele>1704.6</ele>
        <time>2022-06-18T05:43:56Z</time>
      </trkpt>
      <trkpt lat="45.20921" lon="6.12232">
        <ele>1704.9</ele>
        <time>2022-06-18T05:43:57Z</time>
      </trkpt>
      <trkpt lat="45.20924" lon="6.12238">
        <ele>1704.9</ele>
        <time>2022-06-18T05:43:58Z</time>
      </trkpt>
      <trkpt lat="45.20926" lon="6.12244">
        <ele>1705.1</ele>
        <time>2022-06-18T05:43:59Z</time>
      </trkpt>
      <trkpt lat="45.20929" lon="6.1225">
        <ele>1705.5</ele>
        <time>2022-06-18T05:44:00Z</time>
      </trkpt>
      <trkpt lat="45.20931" lon="6.12256">
        <ele>1705.8</ele>
        <time>2022-06-18T05:44:01Z</time>
      </trkpt>
      <trkpt lat="45.20934" lon="6.12262">
        <ele>1706.2</ele>
        <time>2022-06-18T05:44:02Z</time>
      </trkpt>
      <trkpt lat="45.20936" lon="6.12268">
        <ele>1706.5</ele>
        <time>2022-06-18T05:44:03Z</time>
      </trkpt>
      <trkpt lat="45.20938" lon="6.12273">
        <ele>1706.9</ele>
        <time>2022-06-18T05:44:04Z</time>
      </trkpt>
      <trkpt lat="45.2094" lon="6.12279">
        <ele>1707.2</ele>
        <time>2022-06-18T05:44:05Z</time>
      </trkpt>
      <trkpt lat="45.20943" lon="6.12285">
        <ele>1707.5</ele>
        <time>2022-06-18T05:44:06Z</time>
      </trkpt>
      <trkpt lat="45.20945" lon="6.12291">
        <ele>1707.9</ele>
        <time>2022-06-18T05:44:07Z</time>
      </trkpt>
      <trkpt lat="45.20947" lon="6.12297">
        <ele>1708.2</ele>
        <time>2022-06-18T05:44:08Z</time>
      </trkpt>
      <trkpt lat="45.20949" lon="6.12304">
        <ele>1708.6</ele>
        <time>2022-06-18T05:44:09Z</time>
      </trkpt>
      <trkpt lat="45.20952" lon="6.1231">
        <ele>1708.9</ele>
        <time>2022-06-18T05:44:10Z</time>
      </trkpt>
      <trkpt lat="45.20954" lon="6.12316">
        <ele>1709.3</ele>
        <time>2022-06-18T05:44:11Z</time>
      </trkpt>
      <trkpt lat="45.20957" lon="6.12322">
        <ele>1709.6</ele>
        <time>2022-06-18T05:44:12Z</time>
      </trkpt>
      <trkpt lat="45.20959" lon="6.12328">
        <ele>1709.9</ele>
        <time>2022-06-18T05:44:13Z</time>
      </trkpt>
      <trkpt lat="45.20961" lon="6.12334">
        <ele>1710.2</ele>
        <time>2022-06-18T05:44:14Z</time>
      </trkpt>
      <trkpt lat="45.20963" lon="6.12341">
        <ele>1710.6</ele>
        <time>2022-06-18T05:44:15Z</time>
      </trkpt>
      <trkpt lat="45.20966" lon="6.12347">
        <ele>1710.9</ele>
        <time>2022-06-18T05:44:16Z</time>
      </trkpt>
      <trkpt lat="45.20968" lon="6.12353">
        <ele>1711.2</ele>
        <time>2022-06-18T05:44:17Z</time>
      </trkpt>
      <trkpt lat="45.2097" lon="6.12359">
        <ele>1711.5</ele>
        <time>2022-06-18T05:44:18Z</time>
      </trkpt>
      <trkpt lat="45.20972" lon="6.12366">
        <ele>1711.8</ele>
        <time>2022-06-18T05:44:19Z</time>
      </trkpt>
      <trkpt lat="45.20974" lon="6.12372">
        <ele>1712.2</ele>
        <time>2022-06-18T05:44:20Z</time>
      </trkpt>
      <trkpt lat="45.20976" lon="6.12379">
        <ele>1712.5</ele>
        <time>2022-06-18T05:44:21Z</time>
      </trkpt>
      <trkpt lat="45.20978" lon="6.12386">
        <ele>1712.9</ele>
        <time>2022-06-18T05:44:22Z</time>
      </trkpt>
      <trkpt lat="45.20981" lon="6.12393">
        <ele>1713.2</ele>
        <time>2022-06-18T05:44:23Z</time>
      </trkpt>
      <trkpt lat="45.20983" lon="6.12399">
        <ele>1713.6</ele>
        <time>2022-06-18T05:44:24Z</time>
      </trkpt>
      <trkpt lat="45.20986" lon="6.12406">
        <ele>1713.9</ele>
        <time>2022-06-18T05:44:25Z</time>
      </trkpt>
      <trkpt lat="45.20988" lon="6.12412">
        <ele>1714.3</ele>
        <time>2022-06-18T05:44:26Z</time>
      </trkpt>
      <trkpt lat="45.2099" lon="6.12419">
        <ele>1714.6</ele>
        <time>2022-06-18T05:44:27Z</time>
      </trkpt>
      <trkpt lat="45.20992" lon="6.12425">
        <ele>1715</ele>
        <time>2022-06-18T05:44:28Z</time>
      </trkpt>
      <trkpt lat="45.20994" lon="6.12432">
        <ele>1715.3</ele>
        <time>2022-06-18T05:44:29Z</time>
      </trkpt>
      <trkpt lat="45.20996" lon="6.12438">
        <ele>1715.6</ele>
        <time>2022-06-18T05:44:30Z</time>
      </trkpt>
      <trkpt lat="45.20999" lon="6.12445">
        <ele>1716</ele>
        <time>2022-06-18T05:44:31Z</time>
      </trkpt>
      <trkpt lat="45.21001" lon="6.12451">
        <ele>1716.3</ele>
        <time>2022-06-18T05:44:32Z</time>
      </trkpt>
      <trkpt lat="45.21003" lon="6.12457">
        <ele>1716.6</ele>
        <time>2022-06-18T05:44:33Z</time>
      </trkpt>
      <trkpt lat="45.21004" lon="6.12462">
        <ele>1716.9</ele>
        <time>2022-06-18T05:44:34Z</time>
      </trkpt>
      <trkpt lat="45.21005" lon="6.12467">
        <ele>1717.1</ele>
        <time>2022-06-18T05:44:35Z</time>
      </trkpt>
      <trkpt lat="45.21006" lon="6.12471">
        <ele>1717.4</ele>
        <time>2022-06-18T05:44:36Z</time>
      </trkpt>
      <trkpt lat="45.21009" lon="6.12478">
        <ele>1717.7</ele>
        <time>2022-06-18T05:44:37Z</time>
      </trkpt>
      <trkpt lat="45.21011" lon="6.12484">
        <ele>1718.1</ele>
        <time>2022-06-18T05:44:38Z</time>
      </trkpt>
      <trkpt lat="45.21012" lon="6.12491">
        <ele>1718.4</ele>
        <time>2022-06-18T05:44:39Z</time>
      </trkpt>
      <trkpt lat="45.21013" lon="6.12495">
        <ele>1718.6</ele>
        <time>2022-06-18T05:44:40Z</time>
      </trkpt>
      <trkpt lat="45.21016" lon="6.12503">
        <ele>1719</ele>
        <time>2022-06-18T05:44:41Z</time>
      </trkpt>
      <trkpt lat="45.21017" lon="6.12511">
        <ele>1719.4</ele>
        <time>2022-06-18T05:44:42Z</time>
      </trkpt>
      <trkpt lat="45.21018" lon="6.12517">
        <ele>1719.8</ele>
        <time>2022-06-18T05:44:43Z</time>
      </trkpt>
      <trkpt lat="45.21022" lon="6.12522">
        <ele>1720.1</ele>
        <time>2022-06-18T05:44:44Z</time>
      </trkpt>
      <trkpt lat="45.21023" lon="6.12531">
        <ele>1720.6</ele>
        <time>2022-06-18T05:44:46Z</time>
      </trkpt>
      <trkpt lat="45.21024" lon="6.12539">
        <ele>1721</ele>
        <time>2022-06-18T05:44:47Z</time>
      </trkpt>
      <trkpt lat="45.21025" lon="6.12547">
        <ele>1721.4</ele>
        <time>2022-06-18T05:44:48Z</time>
      </trkpt>
      <trkpt lat="45.21027" lon="6.12554">
        <ele>1721.7</ele>
        <time>2022-06-18T05:44:49Z</time>
      </trkpt>
      <trkpt lat="45.21029" lon="6.1256">
        <ele>1722</ele>
        <time>2022-06-18T05:44:50Z</time>
      </trkpt>
      <trkpt lat="45.21031" lon="6.12567">
        <ele>1722.4</ele>
        <time>2022-06-18T05:44:52Z</time>
      </trkpt>
      <trkpt lat="45.21034" lon="6.12577">
        <ele>1722.9</ele>
        <time>2022-06-18T05:44:53Z</time>
      </trkpt>
      <trkpt lat="45.21036" lon="6.12584">
        <ele>1723.2</ele>
        <time>2022-06-18T05:44:54Z</time>
      </trkpt>
      <trkpt lat="45.21038" lon="6.1259">
        <ele>1723.5</ele>
        <time>2022-06-18T05:44:55Z</time>
      </trkpt>
      <trkpt lat="45.2104" lon="6.12596">
        <ele>1723.8</ele>
        <time>2022-06-18T05:44:56Z</time>
      </trkpt>
      <trkpt lat="45.21042" lon="6.12602">
        <ele>1724.1</ele>
        <time>2022-06-18T05:44:57Z</time>
      </trkpt>
      <trkpt lat="45.21044" lon="6.12608">
        <ele>1724.4</ele>
        <time>2022-06-18T05:44:58Z</time>
      </trkpt>
      <trkpt lat="45.21043" lon="6.12613">
        <ele>1724.6</ele>
        <time>2022-06-18T05:45:00Z</time>
      </trkpt>
      <trkpt lat="45.21046" lon="6.1262">
        <ele>1725</ele>
        <time>2022-06-18T05:45:01Z</time>
      </trkpt>
      <trkpt lat="45.21051" lon="6.12627">
        <ele>1725.4</ele>
        <time>2022-06-18T05:45:02Z</time>
      </trkpt>
      <trkpt lat="45.21055" lon="6.12634">
        <ele>1725.8</ele>
        <time>2022-06-18T05:45:03Z</time>
      </trkpt>
      <trkpt lat="45.21058" lon="6.1264">
        <ele>1726.2</ele>
        <time>2022-06-18T05:45:04Z</time>
      </trkpt>
      <trkpt lat="45.21061" lon="6.12646">
        <ele>1726.5</ele>
        <time>2022-06-18T05:45:05Z</time>
      </trkpt>
      <trkpt lat="45.21064" lon="6.12651">
        <ele>1726.8</ele>
        <time>2022-06-18T05:45:06Z</time>
      </trkpt>
      <trkpt lat="45.21066" lon="6.12657">
        <ele>1727.1</ele>
        <time>2022-06-18T05:45:07Z</time>
      </trkpt>
      <trkpt lat="45.21069" lon="6.12663">
        <ele>1727.4</ele>
        <time>2022-06-18T05:45:08Z</time>
      </trkpt>
      <trkpt lat="45.21072" lon="6.12668">
        <ele>1727.7</ele>
        <time>2022-06-18T05:45:09Z</time>
      </trkpt>
      <trkpt lat="45.21075" lon="6.12674">
        <ele>1728.1</ele>
        <time>2022-06-18T05:45:10Z</time>
      </trkpt>
      <trkpt lat="45.21078" lon="6.1268">
        <ele>1728.4</ele>
        <time>2022-06-18T05:45:11Z</time>
      </trkpt>
      <trkpt lat="45.21081" lon="6.12686">
        <ele>1728.7</ele>
        <time>2022-06-18T05:45:12Z</time>
      </trkpt>
      <trkpt lat="45.21084" lon="6.12692">
        <ele>1729.1</ele>
        <time>2022-06-18T05:45:13Z</time>
      </trkpt>
      <trkpt lat="45.21088" lon="6.12697">
        <ele>1729.4</ele>
        <time>2022-06-18T05:45:14Z</time>
      </trkpt>
      <trkpt lat="45.2109" lon="6.12702">
        <ele>1729.7</ele>
        <time>2022-06-18T05:45:15Z</time>
      </trkpt>
      <trkpt lat="45.21093" lon="6.12706">
        <ele>1730</ele>
        <time>2022-06-18T05:45:16Z</time>
      </trkpt>
      <trkpt lat="45.21096" lon="6.12712">
        <ele>1730.3</ele>
        <time>2022-06-18T05:45:17Z</time>
      </trkpt>
      <trkpt lat="45.21098" lon="6.12718">
        <ele>1730.6</ele>
        <time>2022-06-18T05:45:18Z</time>
      </trkpt>
      <trkpt lat="45.21101" lon="6.12723">
        <ele>1730.9</ele>
        <time>2022-06-18T05:45:19Z</time>
      </trkpt>
      <trkpt lat="45.21103" lon="6.12726">
        <ele>1731.1</ele>
        <time>2022-06-18T05:45:20Z</time>
      </trkpt>
      <trkpt lat="45.21105" lon="6.1273">
        <ele>1731.4</ele>
        <time>2022-06-18T05:45:21Z</time>
      </trkpt>
      <trkpt lat="45.2111" lon="6.12736">
        <ele>1731.8</ele>
        <time>2022-06-18T05:45:22Z</time>
      </trkpt>
      <trkpt lat="45.21114" lon="6.1274">
        <ele>1732.1</ele>
        <time>2022-06-18T05:45:23Z</time>
      </trkpt>
      <trkpt lat="45.21118" lon="6.12745">
        <ele>1732.5</ele>
        <time>2022-06-18T05:45:24Z</time>
      </trkpt>
      <trkpt lat="45.21122" lon="6.12748">
        <ele>1732.8</ele>
        <time>2022-06-18T05:45:25Z</time>
      </trkpt>
      <trkpt lat="45.21127" lon="6.12752">
        <ele>1733.1</ele>
        <time>2022-06-18T05:45:26Z</time>
      </trkpt>
      <trkpt lat="45.21131" lon="6.12755">
        <ele>1733.4</ele>
        <time>2022-06-18T05:45:27Z</time>
      </trkpt>
      <trkpt lat="45.21135" lon="6.12758">
        <ele>1733.7</ele>
        <time>2022-06-18T05:45:28Z</time>
      </trkpt>
      <trkpt lat="45.2114" lon="6.12761">
        <ele>1734</ele>
        <time>2022-06-18T05:45:29Z</time>
      </trkpt>
      <trkpt lat="45.21144" lon="6.12763">
        <ele>1734.2</ele>
        <time>2022-06-18T05:45:30Z</time>
      </trkpt>
      <trkpt lat="45.21148" lon="6.12765">
        <ele>1734.5</ele>
        <time>2022-06-18T05:45:31Z</time>
      </trkpt>
      <trkpt lat="45.21153" lon="6.12768">
        <ele>1734.8</ele>
        <time>2022-06-18T05:45:32Z</time>
      </trkpt>
      <trkpt lat="45.21158" lon="6.1277">
        <ele>1735.1</ele>
        <time>2022-06-18T05:45:33Z</time>
      </trkpt>
      <trkpt lat="45.21162" lon="6.12774">
        <ele>1735.4</ele>
        <time>2022-06-18T05:45:34Z</time>
      </trkpt>
      <trkpt lat="45.21166" lon="6.12777">
        <ele>1735.7</ele>
        <time>2022-06-18T05:45:35Z</time>
      </trkpt>
      <trkpt lat="45.2117" lon="6.12781">
        <ele>1736.1</ele>
        <time>2022-06-18T05:45:36Z</time>
      </trkpt>
      <trkpt lat="45.21175" lon="6.12785">
        <ele>1736.4</ele>
        <time>2022-06-18T05:45:37Z</time>
      </trkpt>
      <trkpt lat="45.21179" lon="6.1279">
        <ele>1736.7</ele>
        <time>2022-06-18T05:45:38Z</time>
      </trkpt>
      <trkpt lat="45.21182" lon="6.12795">
        <ele>1737.1</ele>
        <time>2022-06-18T05:45:39Z</time>
      </trkpt>
      <trkpt lat="45.21186" lon="6.12802">
        <ele>1737.4</ele>
        <time>2022-06-18T05:45:40Z</time>
      </trkpt>
      <trkpt lat="45.21188" lon="6.12808">
        <ele>1737.8</ele>
        <time>2022-06-18T05:45:41Z</time>
      </trkpt>
      <trkpt lat="45.21191" lon="6.12814">
        <ele>1738.1</ele>
        <time>2022-06-18T05:45:42Z</time>
      </trkpt>
      <trkpt lat="45.21194" lon="6.1282">
        <ele>1738.4</ele>
        <time>2022-06-18T05:45:43Z</time>
      </trkpt>
      <trkpt lat="45.21197" lon="6.12825">
        <ele>1738.7</ele>
        <time>2022-06-18T05:45:44Z</time>
      </trkpt>
      <trkpt lat="45.212" lon="6.1283">
        <ele>1739.1</ele>
        <time>2022-06-18T05:45:45Z</time>
      </trkpt>
      <trkpt lat="45.21202" lon="6.12836">
        <ele>1739.4</ele>
        <time>2022-06-18T05:45:46Z</time>
      </trkpt>
      <trkpt lat="45.21205" lon="6.12841">
        <ele>1739.7</ele>
        <time>2022-06-18T05:45:47Z</time>
      </trkpt>
      <trkpt lat="45.21208" lon="6.12846">
        <ele>1740.1</ele>
        <time>2022-06-18T05:45:48Z</time>
      </trkpt>
      <trkpt lat="45.2121" lon="6.12851">
        <ele>1740.4</ele>
        <time>2022-06-18T05:45:49Z</time>
      </trkpt>
      <trkpt lat="45.21213" lon="6.12856">
        <ele>1740.7</ele>
        <time>2022-06-18T05:45:50Z</time>
      </trkpt>
      <trkpt lat="45.21215" lon="6.1286">
        <ele>1740.9</ele>
        <time>2022-06-18T05:45:51Z</time>
      </trkpt>
      <trkpt lat="45.21217" lon="6.12864">
        <ele>1741.2</ele>
        <time>2022-06-18T05:45:52Z</time>
      </trkpt>
      <trkpt lat="45.2122" lon="6.12869">
        <ele>1741.5</ele>
        <time>2022-06-18T05:45:53Z</time>
      </trkpt>
      <trkpt lat="45.21224" lon="6.12875">
        <ele>1741.9</ele>
        <time>2022-06-18T05:45:54Z</time>
      </trkpt>
      <trkpt lat="45.21228" lon="6.1288">
        <ele>1742.3</ele>
        <time>2022-06-18T05:45:55Z</time>
      </trkpt>
      <trkpt lat="45.21232" lon="6.12884">
        <ele>1742.6</ele>
        <time>2022-06-18T05:45:56Z</time>
      </trkpt>
      <trkpt lat="45.21236" lon="6.12888">
        <ele>1742.9</ele>
        <time>2022-06-18T05:45:57Z</time>
      </trkpt>
      <trkpt lat="45.2124" lon="6.12892">
        <ele>1743.2</ele>
        <time>2022-06-18T05:45:58Z</time>
      </trkpt>
      <trkpt lat="45.21244" lon="6.12896">
        <ele>1743.5</ele>
        <time>2022-06-18T05:45:59Z</time>
      </trkpt>
      <trkpt lat="45.21247" lon="6.129">
        <ele>1743.8</ele>
        <time>2022-06-18T05:46:00Z</time>
      </trkpt>
      <trkpt lat="45.21251" lon="6.12905">
        <ele>1744.1</ele>
        <time>2022-06-18T05:46:01Z</time>
      </trkpt>
      <trkpt lat="45.21255" lon="6.12909">
        <ele>1744.5</ele>
        <time>2022-06-18T05:46:02Z</time>
      </trkpt>
      <trkpt lat="45.21258" lon="6.12914">
        <ele>1744.8</ele>
        <time>2022-06-18T05:46:03Z</time>
      </trkpt>
      <trkpt lat="45.21262" lon="6.12919">
        <ele>1745.1</ele>
        <time>2022-06-18T05:46:04Z</time>
      </trkpt>
      <trkpt lat="45.21266" lon="6.12924">
        <ele>1745.4</ele>
        <time>2022-06-18T05:46:05Z</time>
      </trkpt>
      <trkpt lat="45.2127" lon="6.12928">
        <ele>1745.7</ele>
        <time>2022-06-18T05:46:06Z</time>
      </trkpt>
      <trkpt lat="45.21274" lon="6.12932">
        <ele>1746</ele>
        <time>2022-06-18T05:46:07Z</time>
      </trkpt>
      <trkpt lat="45.21278" lon="6.12937">
        <ele>1746.3</ele>
        <time>2022-06-18T05:46:08Z</time>
      </trkpt>
      <trkpt lat="45.21282" lon="6.12941">
        <ele>1746.6</ele>
        <time>2022-06-18T05:46:09Z</time>
      </trkpt>
      <trkpt lat="45.21286" lon="6.12946">
        <ele>1746.9</ele>
        <time>2022-06-18T05:46:10Z</time>
      </trkpt>
      <trkpt lat="45.21291" lon="6.1295">
        <ele>1747.2</ele>
        <time>2022-06-18T05:46:11Z</time>
      </trkpt>
      <trkpt lat="45.21295" lon="6.12954">
        <ele>1747.6</ele>
        <time>2022-06-18T05:46:12Z</time>
      </trkpt>
      <trkpt lat="45.21299" lon="6.12959">
        <ele>1747.9</ele>
        <time>2022-06-18T05:46:13Z</time>
      </trkpt>
      <trkpt lat="45.21303" lon="6.12963">
        <ele>1748.2</ele>
        <time>2022-06-18T05:46:14Z</time>
      </trkpt>
      <trkpt lat="45.21307" lon="6.12968">
        <ele>1748.5</ele>
        <time>2022-06-18T05:46:15Z</time>
      </trkpt>
      <trkpt lat="45.2131" lon="6.12973">
        <ele>1748.8</ele>
        <time>2022-06-18T05:46:16Z</time>
      </trkpt>
      <trkpt lat="45.21313" lon="6.12978">
        <ele>1749.1</ele>
        <time>2022-06-18T05:46:17Z</time>
      </trkpt>
      <trkpt lat="45.21317" lon="6.12982">
        <ele>1749.4</ele>
        <time>2022-06-18T05:46:18Z</time>
      </trkpt>
      <trkpt lat="45.21321" lon="6.12986">
        <ele>1749.7</ele>
        <time>2022-06-18T05:46:19Z</time>
      </trkpt>
      <trkpt lat="45.21325" lon="6.1299">
        <ele>1750.1</ele>
        <time>2022-06-18T05:46:20Z</time>
      </trkpt>
      <trkpt lat="45.21329" lon="6.12994">
        <ele>1750.4</ele>
        <time>2022-06-18T05:46:21Z</time>
      </trkpt>
      <trkpt lat="45.21333" lon="6.12999">
        <ele>1750.7</ele>
        <time>2022-06-18T05:46:22Z</time>
      </trkpt>
      <trkpt lat="45.21337" lon="6.13003">
        <ele>1751</ele>
        <time>2022-06-18T05:46:23Z</time>
      </trkpt>
      <trkpt lat="45.21341" lon="6.13007">
        <ele>1751.4</ele>
        <time>2022-06-18T05:46:24Z</time>
      </trkpt>
      <trkpt lat="45.21345" lon="6.1301">
        <ele>1751.7</ele>
        <time>2022-06-18T05:46:25Z</time>
      </trkpt>
      <trkpt lat="45.21349" lon="6.13014">
        <ele>1752</ele>
        <time>2022-06-18T05:46:26Z</time>
      </trkpt>
      <trkpt lat="45.21353" lon="6.13018">
        <ele>1752.3</ele>
        <time>2022-06-18T05:46:27Z</time>
      </trkpt>
      <trkpt lat="45.21358" lon="6.13022">
        <ele>1752.7</ele>
        <time>2022-06-18T05:46:28Z</time>
      </trkpt>
      <trkpt lat="45.21362" lon="6.13025">
        <ele>1753</ele>
        <time>2022-06-18T05:46:29Z</time>
      </trkpt>
      <trkpt lat="45.21366" lon="6.13029">
        <ele>1753.3</ele>
        <time>2022-06-18T05:46:30Z</time>
      </trkpt>
      <trkpt lat="45.21371" lon="6.13032">
        <ele>1753.6</ele>
        <time>2022-06-18T05:46:31Z</time>
      </trkpt>
      <trkpt lat="45.21375" lon="6.13035">
        <ele>1753.9</ele>
        <time>2022-06-18T05:46:32Z</time>
      </trkpt>
      <trkpt lat="45.2138" lon="6.13039">
        <ele>1754.3</ele>
        <time>2022-06-18T05:46:33Z</time>
      </trkpt>
      <trkpt lat="45.21384" lon="6.13043">
        <ele>1754.6</ele>
        <time>2022-06-18T05:46:34Z</time>
      </trkpt>
      <trkpt lat="45.21389" lon="6.13047">
        <ele>1754.9</ele>
        <time>2022-06-18T05:46:35Z</time>
      </trkpt>
      <trkpt lat="45.21393" lon="6.13051">
        <ele>1755.2</ele>
        <time>2022-06-18T05:46:36Z</time>
      </trkpt>
      <trkpt lat="45.21397" lon="6.13054">
        <ele>1755.5</ele>
        <time>2022-06-18T05:46:37Z</time>
      </trkpt>
      <trkpt lat="45.21401" lon="6.13058">
        <ele>1755.9</ele>
        <time>2022-06-18T05:46:38Z</time>
      </trkpt>
      <trkpt lat="45.21404" lon="6.13062">
        <ele>1756.2</ele>
        <time>2022-06-18T05:46:39Z</time>
      </trkpt>
      <trkpt lat="45.21408" lon="6.13067">
        <ele>1756.5</ele>
        <time>2022-06-18T05:46:40Z</time>
      </trkpt>
      <trkpt lat="45.21411" lon="6.13071">
        <ele>1756.7</ele>
        <time>2022-06-18T05:46:41Z</time>
      </trkpt>
      <trkpt lat="45.21413" lon="6.13074">
        <ele>1757</ele>
        <time>2022-06-18T05:46:42Z</time>
      </trkpt>
      <trkpt lat="45.21416" lon="6.13078">
        <ele>1757.2</ele>
        <time>2022-06-18T05:46:43Z</time>
      </trkpt>
      <trkpt lat="45.21419" lon="6.13083">
        <ele>1757.6</ele>
        <time>2022-06-18T05:46:44Z</time>
      </trkpt>
      <trkpt lat="45.21422" lon="6.13087">
        <ele>1757.8</ele>
        <time>2022-06-18T05:46:45Z</time>
      </trkpt>
      <trkpt lat="45.21427" lon="6.13092">
        <ele>1758.2</ele>
        <time>2022-06-18T05:46:46Z</time>
      </trkpt>
      <trkpt lat="45.21431" lon="6.13097">
        <ele>1758.6</ele>
        <time>2022-06-18T05:46:47Z</time>
      </trkpt>
      <trkpt lat="45.21435" lon="6.13101">
        <ele>1758.9</ele>
        <time>2022-06-18T05:46:48Z</time>
      </trkpt>
      <trkpt lat="45.21439" lon="6.13106">
        <ele>1759.2</ele>
        <time>2022-06-18T05:46:49Z</time>
      </trkpt>
      <trkpt lat="45.21443" lon="6.1311">
        <ele>1759.6</ele>
        <time>2022-06-18T05:46:50Z</time>
      </trkpt>
      <trkpt lat="45.21448" lon="6.13114">
        <ele>1759.9</ele>
        <time>2022-06-18T05:46:51Z</time>
      </trkpt>
      <trkpt lat="45.21452" lon="6.13117">
        <ele>1760.3</ele>
        <time>2022-06-18T05:46:52Z</time>
      </trkpt>
      <trkpt lat="45.21457" lon="6.1312">
        <ele>1760.7</ele>
        <time>2022-06-18T05:46:53Z</time>
      </trkpt>
      <trkpt lat="45.21462" lon="6.13123">
        <ele>1761</ele>
        <time>2022-06-18T05:46:54Z</time>
      </trkpt>
      <trkpt lat="45.21467" lon="6.13125">
        <ele>1761.3</ele>
        <time>2022-06-18T05:46:55Z</time>
      </trkpt>
      <trkpt lat="45.21472" lon="6.13128">
        <ele>1761.6</ele>
        <time>2022-06-18T05:46:56Z</time>
      </trkpt>
      <trkpt lat="45.21477" lon="6.1313">
        <ele>1762</ele>
        <time>2022-06-18T05:46:57Z</time>
      </trkpt>
      <trkpt lat="45.21482" lon="6.13132">
        <ele>1762.3</ele>
        <time>2022-06-18T05:46:58Z</time>
      </trkpt>
      <trkpt lat="45.21488" lon="6.13134">
        <ele>1762.7</ele>
        <time>2022-06-18T05:46:59Z</time>
      </trkpt>
      <trkpt lat="45.21493" lon="6.13136">
        <ele>1763</ele>
        <time>2022-06-18T05:47:00Z</time>
      </trkpt>
      <trkpt lat="45.21498" lon="6.13139">
        <ele>1763.3</ele>
        <time>2022-06-18T05:47:01Z</time>
      </trkpt>
      <trkpt lat="45.21503" lon="6.13142">
        <ele>1763.7</ele>
        <time>2022-06-18T05:47:02Z</time>
      </trkpt>
      <trkpt lat="45.21508" lon="6.13145">
        <ele>1764.1</ele>
        <time>2022-06-18T05:47:03Z</time>
      </trkpt>
      <trkpt lat="45.21514" lon="6.13147">
        <ele>1764.5</ele>
        <time>2022-06-18T05:47:04Z</time>
      </trkpt>
      <trkpt lat="45.21519" lon="6.1315">
        <ele>1764.9</ele>
        <time>2022-06-18T05:47:05Z</time>
      </trkpt>
      <trkpt lat="45.21524" lon="6.13153">
        <ele>1765.3</ele>
        <time>2022-06-18T05:47:06Z</time>
      </trkpt>
      <trkpt lat="45.21529" lon="6.13155">
        <ele>1765.7</ele>
        <time>2022-06-18T05:47:07Z</time>
      </trkpt>
      <trkpt lat="45.21534" lon="6.13157">
        <ele>1766.1</ele>
        <time>2022-06-18T05:47:08Z</time>
      </trkpt>
      <trkpt lat="45.21538" lon="6.1316">
        <ele>1766.4</ele>
        <time>2022-06-18T05:47:09Z</time>
      </trkpt>
      <trkpt lat="45.21542" lon="6.13163">
        <ele>1766.8</ele>
        <time>2022-06-18T05:47:10Z</time>
      </trkpt>
      <trkpt lat="45.21546" lon="6.13166">
        <ele>1767</ele>
        <time>2022-06-18T05:47:11Z</time>
      </trkpt>
      <trkpt lat="45.2155" lon="6.13169">
        <ele>1767.4</ele>
        <time>2022-06-18T05:47:12Z</time>
      </trkpt>
      <trkpt lat="45.21555" lon="6.13171">
        <ele>1767.8</ele>
        <time>2022-06-18T05:47:13Z</time>
      </trkpt>
      <trkpt lat="45.21559" lon="6.13174">
        <ele>1768.1</ele>
        <time>2022-06-18T05:47:14Z</time>
      </trkpt>
      <trkpt lat="45.21564" lon="6.13178">
        <ele>1768.5</ele>
        <time>2022-06-18T05:47:15Z</time>
      </trkpt>
      <trkpt lat="45.21568" lon="6.13181">
        <ele>1768.9</ele>
        <time>2022-06-18T05:47:16Z</time>
      </trkpt>
      <trkpt lat="45.21573" lon="6.13185">
        <ele>1769.3</ele>
        <time>2022-06-18T05:47:17Z</time>
      </trkpt>
      <trkpt lat="45.21577" lon="6.13188">
        <ele>1769.7</ele>
        <time>2022-06-18T05:47:18Z</time>
      </trkpt>
      <trkpt lat="45.21582" lon="6.13192">
        <ele>1770.1</ele>
        <time>2022-06-18T05:47:19Z</time>
      </trkpt>
      <trkpt lat="45.21587" lon="6.13195">
        <ele>1770.5</ele>
        <time>2022-06-18T05:47:20Z</time>
      </trkpt>
      <trkpt lat="45.21592" lon="6.13199">
        <ele>1770.9</ele>
        <time>2022-06-18T05:47:21Z</time>
      </trkpt>
      <trkpt lat="45.21597" lon="6.13202">
        <ele>1771.2</ele>
        <time>2022-06-18T05:47:22Z</time>
      </trkpt>
      <trkpt lat="45.21601" lon="6.13205">
        <ele>1771.6</ele>
        <time>2022-06-18T05:47:23Z</time>
      </trkpt>
      <trkpt lat="45.21606" lon="6.13209">
        <ele>1772</ele>
        <time>2022-06-18T05:47:24Z</time>
      </trkpt>
      <trkpt lat="45.2161" lon="6.13212">
        <ele>1772.3</ele>
        <time>2022-06-18T05:47:25Z</time>
      </trkpt>
      <trkpt lat="45.21615" lon="6.13215">
        <ele>1772.7</ele>
        <time>2022-06-18T05:47:26Z</time>
      </trkpt>
      <trkpt lat="45.21619" lon="6.13219">
        <ele>1773.1</ele>
        <time>2022-06-18T05:47:27Z</time>
      </trkpt>
      <trkpt lat="45.21623" lon="6.13222">
        <ele>1773.4</ele>
        <time>2022-06-18T05:47:28Z</time>
      </trkpt>
      <trkpt lat="45.21627" lon="6.13226">
        <ele>1773.7</ele>
        <time>2022-06-18T05:47:29Z</time>
      </trkpt>
      <trkpt lat="45.21632" lon="6.13229">
        <ele>1774.1</ele>
        <time>2022-06-18T05:47:30Z</time>
      </trkpt>
      <trkpt lat="45.21636" lon="6.13232">
        <ele>1774.5</ele>
        <time>2022-06-18T05:47:31Z</time>
      </trkpt>
      <trkpt lat="45.2164" lon="6.13236">
        <ele>1774.9</ele>
        <time>2022-06-18T05:47:32Z</time>
      </trkpt>
      <trkpt lat="45.21645" lon="6.13239">
        <ele>1775.3</ele>
        <time>2022-06-18T05:47:33Z</time>
      </trkpt>
      <trkpt lat="45.21649" lon="6.13243">
        <ele>1775.7</ele>
        <time>2022-06-18T05:47:34Z</time>
      </trkpt>
      <trkpt lat="45.21654" lon="6.13247">
        <ele>1776</ele>
        <time>2022-06-18T05:47:35Z</time>
      </trkpt>
      <trkpt lat="45.21658" lon="6.1325">
        <ele>1776.4</ele>
        <time>2022-06-18T05:47:36Z</time>
      </trkpt>
      <trkpt lat="45.21662" lon="6.13254">
        <ele>1776.7</ele>
        <time>2022-06-18T05:47:37Z</time>
      </trkpt>
      <trkpt lat="45.21666" lon="6.13258">
        <ele>1777.1</ele>
        <time>2022-06-18T05:47:38Z</time>
      </trkpt>
      <trkpt lat="45.2167" lon="6.13261">
        <ele>1777.4</ele>
        <time>2022-06-18T05:47:39Z</time>
      </trkpt>
      <trkpt lat="45.21674" lon="6.13265">
        <ele>1777.8</ele>
        <time>2022-06-18T05:47:40Z</time>
      </trkpt>
      <trkpt lat="45.21679" lon="6.13269">
        <ele>1778.2</ele>
        <time>2022-06-18T05:47:41Z</time>
      </trkpt>
      <trkpt lat="45.21683" lon="6.13272">
        <ele>1778.5</ele>
        <time>2022-06-18T05:47:42Z</time>
      </trkpt>
      <trkpt lat="45.21688" lon="6.13276">
        <ele>1778.9</ele>
        <time>2022-06-18T05:47:43Z</time>
      </trkpt>
      <trkpt lat="45.21692" lon="6.1328">
        <ele>1779.1</ele>
        <time>2022-06-18T05:47:44Z</time>
      </trkpt>
      <trkpt lat="45.21696" lon="6.13285">
        <ele>1779.3</ele>
        <time>2022-06-18T05:47:45Z</time>
      </trkpt>
      <trkpt lat="45.217" lon="6.13289">
        <ele>1779.5</ele>
        <time>2022-06-18T05:47:46Z</time>
      </trkpt>
      <trkpt lat="45.21704" lon="6.13293">
        <ele>1779.7</ele>
        <time>2022-06-18T05:47:47Z</time>
      </trkpt>
      <trkpt lat="45.21709" lon="6.13297">
        <ele>1779.8</ele>
        <time>2022-06-18T05:47:48Z</time>
      </trkpt>
      <trkpt lat="45.21713" lon="6.13301">
        <ele>1780</ele>
        <time>2022-06-18T05:47:49Z</time>
      </trkpt>
      <trkpt lat="45.21717" lon="6.13305">
        <ele>1780.2</ele>
        <time>2022-06-18T05:47:50Z</time>
      </trkpt>
      <trkpt lat="45.21721" lon="6.13309">
        <ele>1780.4</ele>
        <time>2022-06-18T05:47:51Z</time>
      </trkpt>
      <trkpt lat="45.21726" lon="6.13313">
        <ele>1780.6</ele>
        <time>2022-06-18T05:47:52Z</time>
      </trkpt>
      <trkpt lat="45.2173" lon="6.13317">
        <ele>1780.8</ele>
        <time>2022-06-18T05:47:53Z</time>
      </trkpt>
      <trkpt lat="45.21734" lon="6.13321">
        <ele>1781</ele>
        <time>2022-06-18T05:47:54Z</time>
      </trkpt>
      <trkpt lat="45.21738" lon="6.13325">
        <ele>1781.2</ele>
        <time>2022-06-18T05:47:55Z</time>
      </trkpt>
      <trkpt lat="45.21743" lon="6.13328">
        <ele>1781.4</ele>
        <time>2022-06-18T05:47:56Z</time>
      </trkpt>
      <trkpt lat="45.21748" lon="6.13332">
        <ele>1781.6</ele>
        <time>2022-06-18T05:47:57Z</time>
      </trkpt>
      <trkpt lat="45.21753" lon="6.13335">
        <ele>1781.8</ele>
        <time>2022-06-18T05:47:58Z</time>
      </trkpt>
      <trkpt lat="45.21758" lon="6.13338">
        <ele>1782</ele>
        <time>2022-06-18T05:47:59Z</time>
      </trkpt>
      <trkpt lat="45.21762" lon="6.13341">
        <ele>1782.2</ele>
        <time>2022-06-18T05:48:00Z</time>
      </trkpt>
      <trkpt lat="45.21767" lon="6.13345">
        <ele>1782.5</ele>
        <time>2022-06-18T05:48:01Z</time>
      </trkpt>
      <trkpt lat="45.21772" lon="6.13348">
        <ele>1782.7</ele>
        <time>2022-06-18T05:48:02Z</time>
      </trkpt>
      <trkpt lat="45.21777" lon="6.13352">
        <ele>1782.9</ele>
        <time>2022-06-18T05:48:03Z</time>
      </trkpt>
      <trkpt lat="45.21781" lon="6.13355">
        <ele>1783.1</ele>
        <time>2022-06-18T05:48:04Z</time>
      </trkpt>
      <trkpt lat="45.21784" lon="6.13358">
        <ele>1783.3</ele>
        <time>2022-06-18T05:48:05Z</time>
      </trkpt>
      <trkpt lat="45.21787" lon="6.13361">
        <ele>1783.4</ele>
        <time>2022-06-18T05:48:06Z</time>
      </trkpt>
      <trkpt lat="45.21791" lon="6.13364">
        <ele>1783.6</ele>
        <time>2022-06-18T05:48:07Z</time>
      </trkpt>
      <trkpt lat="45.21796" lon="6.13368">
        <ele>1783.8</ele>
        <time>2022-06-18T05:48:08Z</time>
      </trkpt>
      <trkpt lat="45.218" lon="6.13371">
        <ele>1784</ele>
        <time>2022-06-18T05:48:09Z</time>
      </trkpt>
      <trkpt lat="45.21805" lon="6.13374">
        <ele>1784.2</ele>
        <time>2022-06-18T05:48:10Z</time>
      </trkpt>
      <trkpt lat="45.21809" lon="6.13378">
        <ele>1784.4</ele>
        <time>2022-06-18T05:48:11Z</time>
      </trkpt>
      <trkpt lat="45.21813" lon="6.13382">
        <ele>1784.6</ele>
        <time>2022-06-18T05:48:12Z</time>
      </trkpt>
      <trkpt lat="45.21818" lon="6.13385">
        <ele>1784.7</ele>
        <time>2022-06-18T05:48:13Z</time>
      </trkpt>
      <trkpt lat="45.21822" lon="6.13389">
        <ele>1784.9</ele>
        <time>2022-06-18T05:48:14Z</time>
      </trkpt>
      <trkpt lat="45.21827" lon="6.13393">
        <ele>1785.1</ele>
        <time>2022-06-18T05:48:15Z</time>
      </trkpt>
      <trkpt lat="45.21832" lon="6.13396">
        <ele>1785.3</ele>
        <time>2022-06-18T05:48:16Z</time>
      </trkpt>
      <trkpt lat="45.21837" lon="6.134">
        <ele>1785.5</ele>
        <time>2022-06-18T05:48:17Z</time>
      </trkpt>
      <trkpt lat="45.21842" lon="6.13403">
        <ele>1785.7</ele>
        <time>2022-06-18T05:48:18Z</time>
      </trkpt>
      <trkpt lat="45.21847" lon="6.13407">
        <ele>1785.9</ele>
        <time>2022-06-18T05:48:19Z</time>
      </trkpt>
      <trkpt lat="45.21851" lon="6.1341">
        <ele>1786.1</ele>
        <time>2022-06-18T05:48:20Z</time>
      </trkpt>
      <trkpt lat="45.21856" lon="6.13413">
        <ele>1786.3</ele>
        <time>2022-06-18T05:48:21Z</time>
      </trkpt>
      <trkpt lat="45.21861" lon="6.13417">
        <ele>1786.5</ele>
        <time>2022-06-18T05:48:22Z</time>
      </trkpt>
      <trkpt lat="45.21866" lon="6.1342">
        <ele>1786.7</ele>
        <time>2022-06-18T05:48:23Z</time>
      </trkpt>
      <trkpt lat="45.21871" lon="6.13424">
        <ele>1786.9</ele>
        <time>2022-06-18T05:48:24Z</time>
      </trkpt>
      <trkpt lat="45.21876" lon="6.13429">
        <ele>1787.1</ele>
        <time>2022-06-18T05:48:25Z</time>
      </trkpt>
      <trkpt lat="45.21881" lon="6.13433">
        <ele>1787.4</ele>
        <time>2022-06-18T05:48:26Z</time>
      </trkpt>
      <trkpt lat="45.21886" lon="6.13438">
        <ele>1787.6</ele>
        <time>2022-06-18T05:48:27Z</time>
      </trkpt>
      <trkpt lat="45.21891" lon="6.13443">
        <ele>1787.8</ele>
        <time>2022-06-18T05:48:28Z</time>
      </trkpt>
      <trkpt lat="45.21897" lon="6.13448">
        <ele>1788</ele>
        <time>2022-06-18T05:48:29Z</time>
      </trkpt>
      <trkpt lat="45.21902" lon="6.13453">
        <ele>1788.2</ele>
        <time>2022-06-18T05:48:30Z</time>
      </trkpt>
      <trkpt lat="45.21908" lon="6.13458">
        <ele>1788.5</ele>
        <time>2022-06-18T05:48:31Z</time>
      </trkpt>
      <trkpt lat="45.21914" lon="6.13463">
        <ele>1788.7</ele>
        <time>2022-06-18T05:48:32Z</time>
      </trkpt>
      <trkpt lat="45.21919" lon="6.13468">
        <ele>1788.9</ele>
        <time>2022-06-18T05:48:33Z</time>
      </trkpt>
      <trkpt lat="45.21924" lon="6.13473">
        <ele>1789.1</ele>
        <time>2022-06-18T05:48:34Z</time>
      </trkpt>
      <trkpt lat="45.21929" lon="6.13478">
        <ele>1789.2</ele>
        <time>2022-06-18T05:48:35Z</time>
      </trkpt>
      <trkpt lat="45.21933" lon="6.13483">
        <ele>1789.4</ele>
        <time>2022-06-18T05:48:36Z</time>
      </trkpt>
      <trkpt lat="45.21938" lon="6.13488">
        <ele>1789.5</ele>
        <time>2022-06-18T05:48:37Z</time>
      </trkpt>
      <trkpt lat="45.21943" lon="6.13494">
        <ele>1789.7</ele>
        <time>2022-06-18T05:48:38Z</time>
      </trkpt>
      <trkpt lat="45.21948" lon="6.13499">
        <ele>1789.8</ele>
        <time>2022-06-18T05:48:39Z</time>
      </trkpt>
      <trkpt lat="45.21953" lon="6.13505">
        <ele>1789.9</ele>
        <time>2022-06-18T05:48:40Z</time>
      </trkpt>
      <trkpt lat="45.21958" lon="6.1351">
        <ele>1790.1</ele>
        <time>2022-06-18T05:48:41Z</time>
      </trkpt>
      <trkpt lat="45.21964" lon="6.13515">
        <ele>1790.2</ele>
        <time>2022-06-18T05:48:42Z</time>
      </trkpt>
      <trkpt lat="45.2197" lon="6.1352">
        <ele>1790.3</ele>
        <time>2022-06-18T05:48:43Z</time>
      </trkpt>
      <trkpt lat="45.21975" lon="6.13525">
        <ele>1790.4</ele>
        <time>2022-06-18T05:48:44Z</time>
      </trkpt>
      <trkpt lat="45.21981" lon="6.1353">
        <ele>1790.4</ele>
        <time>2022-06-18T05:48:45Z</time>
      </trkpt>
      <trkpt lat="45.21986" lon="6.13535">
        <ele>1790.5</ele>
        <time>2022-06-18T05:48:46Z</time>
      </trkpt>
      <trkpt lat="45.21991" lon="6.1354">
        <ele>1790.6</ele>
        <time>2022-06-18T05:48:47Z</time>
      </trkpt>
      <trkpt lat="45.21997" lon="6.13545">
        <ele>1790.6</ele>
        <time>2022-06-18T05:48:48Z</time>
      </trkpt>
      <trkpt lat="45.22002" lon="6.13549">
        <ele>1790.7</ele>
        <time>2022-06-18T05:48:49Z</time>
      </trkpt>
      <trkpt lat="45.22008" lon="6.13554">
        <ele>1790.7</ele>
        <time>2022-06-18T05:48:50Z</time>
      </trkpt>
      <trkpt lat="45.22014" lon="6.13558">
        <ele>1790.7</ele>
        <time>2022-06-18T05:48:51Z</time>
      </trkpt>
      <trkpt lat="45.2202" lon="6.13561">
        <ele>1790.8</ele>
        <time>2022-06-18T05:48:52Z</time>
      </trkpt>
      <trkpt lat="45.22026" lon="6.13564">
        <ele>1790.8</ele>
        <time>2022-06-18T05:48:53Z</time>
      </trkpt>
      <trkpt lat="45.22032" lon="6.13567">
        <ele>1790.8</ele>
        <time>2022-06-18T05:48:54Z</time>
      </trkpt>
      <trkpt lat="45.22038" lon="6.1357">
        <ele>1790.9</ele>
        <time>2022-06-18T05:48:55Z</time>
      </trkpt>
      <trkpt lat="45.22044" lon="6.13573">
        <ele>1790.9</ele>
        <time>2022-06-18T05:48:56Z</time>
      </trkpt>
      <trkpt lat="45.2205" lon="6.13576">
        <ele>1790.8</ele>
        <time>2022-06-18T05:48:57Z</time>
      </trkpt>
      <trkpt lat="45.22055" lon="6.1358">
        <ele>1790.8</ele>
        <time>2022-06-18T05:48:58Z</time>
      </trkpt>
      <trkpt lat="45.22061" lon="6.13583">
        <ele>1790.8</ele>
        <time>2022-06-18T05:48:59Z</time>
      </trkpt>
      <trkpt lat="45.22067" lon="6.13587">
        <ele>1790.7</ele>
        <time>2022-06-18T05:49:00Z</time>
      </trkpt>
      <trkpt lat="45.22073" lon="6.1359">
        <ele>1790.6</ele>
        <time>2022-06-18T05:49:01Z</time>
      </trkpt>
      <trkpt lat="45.22079" lon="6.13593">
        <ele>1790.5</ele>
        <time>2022-06-18T05:49:02Z</time>
      </trkpt>
      <trkpt lat="45.22085" lon="6.13597">
        <ele>1790.4</ele>
        <time>2022-06-18T05:49:03Z</time>
      </trkpt>
      <trkpt lat="45.22092" lon="6.136">
        <ele>1790.3</ele>
        <time>2022-06-18T05:49:04Z</time>
      </trkpt>
      <trkpt lat="45.22098" lon="6.13605">
        <ele>1790.1</ele>
        <time>2022-06-18T05:49:05Z</time>
      </trkpt>
      <trkpt lat="45.22104" lon="6.13609">
        <ele>1790</ele>
        <time>2022-06-18T05:49:06Z</time>
      </trkpt>
      <trkpt lat="45.2211" lon="6.13615">
        <ele>1789.8</ele>
        <time>2022-06-18T05:49:07Z</time>
      </trkpt>
      <trkpt lat="45.22115" lon="6.1362">
        <ele>1789.6</ele>
        <time>2022-06-18T05:49:08Z</time>
      </trkpt>
      <trkpt lat="45.22121" lon="6.13626">
        <ele>1789.5</ele>
        <time>2022-06-18T05:49:09Z</time>
      </trkpt>
      <trkpt lat="45.22127" lon="6.13631">
        <ele>1789.3</ele>
        <time>2022-06-18T05:49:10Z</time>
      </trkpt>
      <trkpt lat="45.22133" lon="6.13636">
        <ele>1789.1</ele>
        <time>2022-06-18T05:49:11Z</time>
      </trkpt>
      <trkpt lat="45.22139" lon="6.13641">
        <ele>1788.9</ele>
        <time>2022-06-18T05:49:12Z</time>
      </trkpt>
      <trkpt lat="45.22145" lon="6.13645">
        <ele>1788.6</ele>
        <time>2022-06-18T05:49:13Z</time>
      </trkpt>
      <trkpt lat="45.22152" lon="6.1365">
        <ele>1788.4</ele>
        <time>2022-06-18T05:49:14Z</time>
      </trkpt>
      <trkpt lat="45.22158" lon="6.13654">
        <ele>1788.1</ele>
        <time>2022-06-18T05:49:15Z</time>
      </trkpt>
      <trkpt lat="45.22165" lon="6.13658">
        <ele>1787.7</ele>
        <time>2022-06-18T05:49:16Z</time>
      </trkpt>
      <trkpt lat="45.22172" lon="6.13661">
        <ele>1787.4</ele>
        <time>2022-06-18T05:49:17Z</time>
      </trkpt>
      <trkpt lat="45.22179" lon="6.13665">
        <ele>1787</ele>
        <time>2022-06-18T05:49:18Z</time>
      </trkpt>
      <trkpt lat="45.22187" lon="6.13669">
        <ele>1786.7</ele>
        <time>2022-06-18T05:49:19Z</time>
      </trkpt>
      <trkpt lat="45.22194" lon="6.13673">
        <ele>1786.3</ele>
        <time>2022-06-18T05:49:20Z</time>
      </trkpt>
      <trkpt lat="45.22201" lon="6.13678">
        <ele>1785.9</ele>
        <time>2022-06-18T05:49:21Z</time>
      </trkpt>
      <trkpt lat="45.22208" lon="6.13683">
        <ele>1785.5</ele>
        <time>2022-06-18T05:49:22Z</time>
      </trkpt>
      <trkpt lat="45.22214" lon="6.1369">
        <ele>1785.1</ele>
        <time>2022-06-18T05:49:23Z</time>
      </trkpt>
      <trkpt lat="45.2222" lon="6.13697">
        <ele>1784.6</ele>
        <time>2022-06-18T05:49:24Z</time>
      </trkpt>
      <trkpt lat="45.22226" lon="6.13705">
        <ele>1784.1</ele>
        <time>2022-06-18T05:49:25Z</time>
      </trkpt>
      <trkpt lat="45.22232" lon="6.13714">
        <ele>1783.6</ele>
        <time>2022-06-18T05:49:26Z</time>
      </trkpt>
      <trkpt lat="45.22237" lon="6.13724">
        <ele>1783</ele>
        <time>2022-06-18T05:49:27Z</time>
      </trkpt>
      <trkpt lat="45.22241" lon="6.13734">
        <ele>1782.5</ele>
        <time>2022-06-18T05:49:28Z</time>
      </trkpt>
      <trkpt lat="45.22246" lon="6.13745">
        <ele>1781.9</ele>
        <time>2022-06-18T05:49:29Z</time>
      </trkpt>
      <trkpt lat="45.2225" lon="6.13756">
        <ele>1781.4</ele>
        <time>2022-06-18T05:49:30Z</time>
      </trkpt>
      <trkpt lat="45.22254" lon="6.13768">
        <ele>1780.9</ele>
        <time>2022-06-18T05:49:31Z</time>
      </trkpt>
      <trkpt lat="45.22258" lon="6.13779">
        <ele>1780.3</ele>
        <time>2022-06-18T05:49:32Z</time>
      </trkpt>
      <trkpt lat="45.22263" lon="6.13791">
        <ele>1779.8</ele>
        <time>2022-06-18T05:49:33Z</time>
      </trkpt>
      <trkpt lat="45.22267" lon="6.13803">
        <ele>1779.2</ele>
        <time>2022-06-18T05:49:34Z</time>
      </trkpt>
      <trkpt lat="45.22272" lon="6.13814">
        <ele>1778.6</ele>
        <time>2022-06-18T05:49:35Z</time>
      </trkpt>
      <trkpt lat="45.22277" lon="6.13826">
        <ele>1778.1</ele>
        <time>2022-06-18T05:49:36Z</time>
      </trkpt>
      <trkpt lat="45.22282" lon="6.13837">
        <ele>1777.5</ele>
        <time>2022-06-18T05:49:37Z</time>
      </trkpt>
      <trkpt lat="45.22287" lon="6.13849">
        <ele>1776.9</ele>
        <time>2022-06-18T05:49:38Z</time>
      </trkpt>
      <trkpt lat="45.22293" lon="6.1386">
        <ele>1776.3</ele>
        <time>2022-06-18T05:49:39Z</time>
      </trkpt>
      <trkpt lat="45.223" lon="6.13869">
        <ele>1775.7</ele>
        <time>2022-06-18T05:49:40Z</time>
      </trkpt>
      <trkpt lat="45.22308" lon="6.13877">
        <ele>1775.1</ele>
        <time>2022-06-18T05:49:41Z</time>
      </trkpt>
      <trkpt lat="45.22318" lon="6.13883">
        <ele>1774.5</ele>
        <time>2022-06-18T05:49:42Z</time>
      </trkpt>
      <trkpt lat="45.22327" lon="6.13886">
        <ele>1773.8</ele>
        <time>2022-06-18T05:49:43Z</time>
      </trkpt>
      <trkpt lat="45.22337" lon="6.13887">
        <ele>1773.1</ele>
        <time>2022-06-18T05:49:44Z</time>
      </trkpt>
      <trkpt lat="45.22347" lon="6.13886">
        <ele>1772.5</ele>
        <time>2022-06-18T05:49:45Z</time>
      </trkpt>
      <trkpt lat="45.22357" lon="6.13882">
        <ele>1771.8</ele>
        <time>2022-06-18T05:49:46Z</time>
      </trkpt>
      <trkpt lat="45.22367" lon="6.13877">
        <ele>1771.2</ele>
        <time>2022-06-18T05:49:47Z</time>
      </trkpt>
      <trkpt lat="45.22376" lon="6.1387">
        <ele>1770.6</ele>
        <time>2022-06-18T05:49:48Z</time>
      </trkpt>
      <trkpt lat="45.22385" lon="6.13863">
        <ele>1770</ele>
        <time>2022-06-18T05:49:49Z</time>
      </trkpt>
      <trkpt lat="45.22394" lon="6.13856">
        <ele>1769.4</ele>
        <time>2022-06-18T05:49:50Z</time>
      </trkpt>
      <trkpt lat="45.22403" lon="6.13853">
        <ele>1768.9</ele>
        <time>2022-06-18T05:49:51Z</time>
      </trkpt>
      <trkpt lat="45.22413" lon="6.13854">
        <ele>1768.2</ele>
        <time>2022-06-18T05:49:52Z</time>
      </trkpt>
      <trkpt lat="45.22423" lon="6.1386">
        <ele>1768</ele>
        <time>2022-06-18T05:49:53Z</time>
      </trkpt>
      <trkpt lat="45.22431" lon="6.13871">
        <ele>1768.5</ele>
        <time>2022-06-18T05:49:54Z</time>
      </trkpt>
      <trkpt lat="45.22437" lon="6.13885">
        <ele>1769</ele>
        <time>2022-06-18T05:49:55Z</time>
      </trkpt>
      <trkpt lat="45.22442" lon="6.139">
        <ele>1769.8</ele>
        <time>2022-06-18T05:49:56Z</time>
      </trkpt>
      <trkpt lat="45.22446" lon="6.13915">
        <ele>1770.3</ele>
        <time>2022-06-18T05:49:57Z</time>
      </trkpt>
      <trkpt lat="45.22451" lon="6.13928">
        <ele>1770.5</ele>
        <time>2022-06-18T05:49:58Z</time>
      </trkpt>
      <trkpt lat="45.22456" lon="6.13942">
        <ele>1770.1</ele>
        <time>2022-06-18T05:49:59Z</time>
      </trkpt>
      <trkpt lat="45.22462" lon="6.13955">
        <ele>1769.6</ele>
        <time>2022-06-18T05:50:00Z</time>
      </trkpt>
      <trkpt lat="45.22468" lon="6.13967">
        <ele>1769.1</ele>
        <time>2022-06-18T05:50:01Z</time>
      </trkpt>
      <trkpt lat="45.22473" lon="6.1398">
        <ele>1768.7</ele>
        <time>2022-06-18T05:50:02Z</time>
      </trkpt>
      <trkpt lat="45.22478" lon="6.13993">
        <ele>1768.2</ele>
        <time>2022-06-18T05:50:03Z</time>
      </trkpt>
      <trkpt lat="45.22483" lon="6.14006">
        <ele>1767.7</ele>
        <time>2022-06-18T05:50:04Z</time>
      </trkpt>
      <trkpt lat="45.22488" lon="6.1402">
        <ele>1767.2</ele>
        <time>2022-06-18T05:50:05Z</time>
      </trkpt>
      <trkpt lat="45.22492" lon="6.14035">
        <ele>1766.6</ele>
        <time>2022-06-18T05:50:06Z</time>
      </trkpt>
      <trkpt lat="45.22496" lon="6.1405">
        <ele>1766</ele>
        <time>2022-06-18T05:50:07Z</time>
      </trkpt>
      <trkpt lat="45.225" lon="6.14065">
        <ele>1765.4</ele>
        <time>2022-06-18T05:50:08Z</time>
      </trkpt>
      <trkpt lat="45.22503" lon="6.14081">
        <ele>1764.9</ele>
        <time>2022-06-18T05:50:09Z</time>
      </trkpt>
      <trkpt lat="45.22506" lon="6.14096">
        <ele>1764.5</ele>
        <time>2022-06-18T05:50:10Z</time>
      </trkpt>
      <trkpt lat="45.22509" lon="6.14111">
        <ele>1764</ele>
        <time>2022-06-18T05:50:11Z</time>
      </trkpt>
      <trkpt lat="45.22512" lon="6.14126">
        <ele>1763.6</ele>
        <time>2022-06-18T05:50:12Z</time>
      </trkpt>
      <trkpt lat="45.22515" lon="6.14142">
        <ele>1763.1</ele>
        <time>2022-06-18T05:50:13Z</time>
      </trkpt>
      <trkpt lat="45.22518" lon="6.14156">
        <ele>1762.6</ele>
        <time>2022-06-18T05:50:14Z</time>
      </trkpt>
      <trkpt lat="45.22522" lon="6.14171">
        <ele>1762.1</ele>
        <time>2022-06-18T05:50:15Z</time>
      </trkpt>
      <trkpt lat="45.22526" lon="6.14186">
        <ele>1761.6</ele>
        <time>2022-06-18T05:50:16Z</time>
      </trkpt>
      <trkpt lat="45.22531" lon="6.142">
        <ele>1761</ele>
        <time>2022-06-18T05:50:17Z</time>
      </trkpt>
      <trkpt lat="45.22536" lon="6.14214">
        <ele>1760.5</ele>
        <time>2022-06-18T05:50:18Z</time>
      </trkpt>
      <trkpt lat="45.22542" lon="6.14227">
        <ele>1760</ele>
        <time>2022-06-18T05:50:19Z</time>
      </trkpt>
      <trkpt lat="45.22547" lon="6.1424">
        <ele>1759.5</ele>
        <time>2022-06-18T05:50:20Z</time>
      </trkpt>
      <trkpt lat="45.22553" lon="6.14254">
        <ele>1759</ele>
        <time>2022-06-18T05:50:21Z</time>
      </trkpt>
      <trkpt lat="45.22559" lon="6.14267">
        <ele>1758.4</ele>
        <time>2022-06-18T05:50:22Z</time>
      </trkpt>
      <trkpt lat="45.22565" lon="6.1428">
        <ele>1757.9</ele>
        <time>2022-06-18T05:50:23Z</time>
      </trkpt>
      <trkpt lat="45.2257" lon="6.14294">
        <ele>1757.4</ele>
        <time>2022-06-18T05:50:24Z</time>
      </trkpt>
      <trkpt lat="45.22576" lon="6.14308">
        <ele>1756.9</ele>
        <time>2022-06-18T05:50:25Z</time>
      </trkpt>
      <trkpt lat="45.22581" lon="6.14321">
        <ele>1756.4</ele>
        <time>2022-06-18T05:50:26Z</time>
      </trkpt>
      <trkpt lat="45.22587" lon="6.14335">
        <ele>1755.9</ele>
        <time>2022-06-18T05:50:27Z</time>
      </trkpt>
      <trkpt lat="45.22592" lon="6.14349">
        <ele>1755.4</ele>
        <time>2022-06-18T05:50:28Z</time>
      </trkpt>
      <trkpt lat="45.22598" lon="6.14364">
        <ele>1754.9</ele>
        <time>2022-06-18T05:50:29Z</time>
      </trkpt>
      <trkpt lat="45.22603" lon="6.14379">
        <ele>1754.4</ele>
        <time>2022-06-18T05:50:30Z</time>
      </trkpt>
      <trkpt lat="45.22607" lon="6.14394">
        <ele>1753.9</ele>
        <time>2022-06-18T05:50:31Z</time>
      </trkpt>
      <trkpt lat="45.22611" lon="6.1441">
        <ele>1753.4</ele>
        <time>2022-06-18T05:50:32Z</time>
      </trkpt>
      <trkpt lat="45.22616" lon="6.14426">
        <ele>1752.9</ele>
        <time>2022-06-18T05:50:33Z</time>
      </trkpt>
      <trkpt lat="45.2262" lon="6.14441">
        <ele>1752.4</ele>
        <time>2022-06-18T05:50:34Z</time>
      </trkpt>
      <trkpt lat="45.22626" lon="6.14456">
        <ele>1751.9</ele>
        <time>2022-06-18T05:50:35Z</time>
      </trkpt>
      <trkpt lat="45.22631" lon="6.1447">
        <ele>1751.5</ele>
        <time>2022-06-18T05:50:36Z</time>
      </trkpt>
      <trkpt lat="45.22637" lon="6.14484">
        <ele>1751.1</ele>
        <time>2022-06-18T05:50:37Z</time>
      </trkpt>
      <trkpt lat="45.22642" lon="6.14499">
        <ele>1750.6</ele>
        <time>2022-06-18T05:50:38Z</time>
      </trkpt>
      <trkpt lat="45.22647" lon="6.14514">
        <ele>1750.1</ele>
        <time>2022-06-18T05:50:39Z</time>
      </trkpt>
      <trkpt lat="45.22651" lon="6.1453">
        <ele>1749.7</ele>
        <time>2022-06-18T05:50:40Z</time>
      </trkpt>
      <trkpt lat="45.22653" lon="6.14546">
        <ele>1749.3</ele>
        <time>2022-06-18T05:50:41Z</time>
      </trkpt>
      <trkpt lat="45.22655" lon="6.14573">
        <ele>1748.5</ele>
        <time>2022-06-18T05:50:42Z</time>
      </trkpt>
      <trkpt lat="45.22655" lon="6.14592">
        <ele>1748</ele>
        <time>2022-06-18T05:50:43Z</time>
      </trkpt>
      <trkpt lat="45.22656" lon="6.14609">
        <ele>1747.5</ele>
        <time>2022-06-18T05:50:44Z</time>
      </trkpt>
      <trkpt lat="45.22656" lon="6.14625">
        <ele>1747.2</ele>
        <time>2022-06-18T05:50:45Z</time>
      </trkpt>
      <trkpt lat="45.22657" lon="6.1464">
        <ele>1746.8</ele>
        <time>2022-06-18T05:50:46Z</time>
      </trkpt>
      <trkpt lat="45.22657" lon="6.14654">
        <ele>1746.5</ele>
        <time>2022-06-18T05:50:47Z</time>
      </trkpt>
      <trkpt lat="45.22659" lon="6.14667">
        <ele>1746.2</ele>
        <time>2022-06-18T05:50:48Z</time>
      </trkpt>
      <trkpt lat="45.2266" lon="6.1468">
        <ele>1745.9</ele>
        <time>2022-06-18T05:50:49Z</time>
      </trkpt>
      <trkpt lat="45.22662" lon="6.14694">
        <ele>1745.6</ele>
        <time>2022-06-18T05:50:50Z</time>
      </trkpt>
      <trkpt lat="45.22664" lon="6.14708">
        <ele>1745.3</ele>
        <time>2022-06-18T05:50:51Z</time>
      </trkpt>
      <trkpt lat="45.22666" lon="6.14723">
        <ele>1745.4</ele>
        <time>2022-06-18T05:50:52Z</time>
      </trkpt>
      <trkpt lat="45.22667" lon="6.14739">
        <ele>1745.2</ele>
        <time>2022-06-18T05:50:53Z</time>
      </trkpt>
      <trkpt lat="45.22669" lon="6.14755">
        <ele>1744.5</ele>
        <time>2022-06-18T05:50:54Z</time>
      </trkpt>
      <trkpt lat="45.22669" lon="6.14772">
        <ele>1743.8</ele>
        <time>2022-06-18T05:50:55Z</time>
      </trkpt>
      <trkpt lat="45.2267" lon="6.14788">
        <ele>1743.1</ele>
        <time>2022-06-18T05:50:56Z</time>
      </trkpt>
      <trkpt lat="45.2267" lon="6.14805">
        <ele>1742.3</ele>
        <time>2022-06-18T05:50:57Z</time>
      </trkpt>
      <trkpt lat="45.2267" lon="6.14821">
        <ele>1741.7</ele>
        <time>2022-06-18T05:50:58Z</time>
      </trkpt>
      <trkpt lat="45.22668" lon="6.14838">
        <ele>1741</ele>
        <time>2022-06-18T05:50:59Z</time>
      </trkpt>
      <trkpt lat="45.22666" lon="6.14855">
        <ele>1740.3</ele>
        <time>2022-06-18T05:51:00Z</time>
      </trkpt>
      <trkpt lat="45.22665" lon="6.14872">
        <ele>1739.6</ele>
        <time>2022-06-18T05:51:01Z</time>
      </trkpt>
      <trkpt lat="45.22665" lon="6.14889">
        <ele>1738.9</ele>
        <time>2022-06-18T05:51:02Z</time>
      </trkpt>
      <trkpt lat="45.22668" lon="6.14906">
        <ele>1738.2</ele>
        <time>2022-06-18T05:51:03Z</time>
      </trkpt>
      <trkpt lat="45.22673" lon="6.14922">
        <ele>1737.4</ele>
        <time>2022-06-18T05:51:04Z</time>
      </trkpt>
      <trkpt lat="45.2268" lon="6.14937">
        <ele>1736.6</ele>
        <time>2022-06-18T05:51:05Z</time>
      </trkpt>
      <trkpt lat="45.22689" lon="6.1495">
        <ele>1735.8</ele>
        <time>2022-06-18T05:51:06Z</time>
      </trkpt>
      <trkpt lat="45.22699" lon="6.14961">
        <ele>1735</ele>
        <time>2022-06-18T05:51:07Z</time>
      </trkpt>
      <trkpt lat="45.22709" lon="6.14971">
        <ele>1734.2</ele>
        <time>2022-06-18T05:51:08Z</time>
      </trkpt>
      <trkpt lat="45.22719" lon="6.1498">
        <ele>1733.3</ele>
        <time>2022-06-18T05:51:09Z</time>
      </trkpt>
      <trkpt lat="45.22727" lon="6.1499">
        <ele>1732.6</ele>
        <time>2022-06-18T05:51:10Z</time>
      </trkpt>
      <trkpt lat="45.22733" lon="6.15">
        <ele>1731.9</ele>
        <time>2022-06-18T05:51:11Z</time>
      </trkpt>
      <trkpt lat="45.22738" lon="6.15012">
        <ele>1731.1</ele>
        <time>2022-06-18T05:51:12Z</time>
      </trkpt>
      <trkpt lat="45.22741" lon="6.15026">
        <ele>1730.3</ele>
        <time>2022-06-18T05:51:13Z</time>
      </trkpt>
      <trkpt lat="45.22742" lon="6.15041">
        <ele>1729.5</ele>
        <time>2022-06-18T05:51:14Z</time>
      </trkpt>
      <trkpt lat="45.22743" lon="6.15058">
        <ele>1728.7</ele>
        <time>2022-06-18T05:51:15Z</time>
      </trkpt>
      <trkpt lat="45.22743" lon="6.15075">
        <ele>1727.9</ele>
        <time>2022-06-18T05:51:16Z</time>
      </trkpt>
      <trkpt lat="45.22744" lon="6.15092">
        <ele>1727.3</ele>
        <time>2022-06-18T05:51:17Z</time>
      </trkpt>
      <trkpt lat="45.22747" lon="6.15107">
        <ele>1726.7</ele>
        <time>2022-06-18T05:51:18Z</time>
      </trkpt>
      <trkpt lat="45.22752" lon="6.1512">
        <ele>1726.3</ele>
        <time>2022-06-18T05:51:19Z</time>
      </trkpt>
      <trkpt lat="45.22759" lon="6.15131">
        <ele>1725.9</ele>
        <time>2022-06-18T05:51:20Z</time>
      </trkpt>
      <trkpt lat="45.22768" lon="6.15139">
        <ele>1725.5</ele>
        <time>2022-06-18T05:51:21Z</time>
      </trkpt>
      <trkpt lat="45.22777" lon="6.15147">
        <ele>1725.2</ele>
        <time>2022-06-18T05:51:22Z</time>
      </trkpt>
      <trkpt lat="45.22783" lon="6.15156">
        <ele>1725.1</ele>
        <time>2022-06-18T05:51:23Z</time>
      </trkpt>
      <trkpt lat="45.22787" lon="6.15166">
        <ele>1725</ele>
        <time>2022-06-18T05:51:24Z</time>
      </trkpt>
      <trkpt lat="45.22789" lon="6.15176">
        <ele>1725</ele>
        <time>2022-06-18T05:51:25Z</time>
      </trkpt>
      <trkpt lat="45.2279" lon="6.15187">
        <ele>1725</ele>
        <time>2022-06-18T05:51:26Z</time>
      </trkpt>
      <trkpt lat="45.22792" lon="6.15199">
        <ele>1725.1</ele>
        <time>2022-06-18T05:51:27Z</time>
      </trkpt>
      <trkpt lat="45.22794" lon="6.15213">
        <ele>1725.3</ele>
        <time>2022-06-18T05:51:28Z</time>
      </trkpt>
      <trkpt lat="45.22796" lon="6.15226">
        <ele>1725.6</ele>
        <time>2022-06-18T05:51:29Z</time>
      </trkpt>
      <trkpt lat="45.228" lon="6.15238">
        <ele>1726</ele>
        <time>2022-06-18T05:51:30Z</time>
      </trkpt>
      <trkpt lat="45.22804" lon="6.15249">
        <ele>1726</ele>
        <time>2022-06-18T05:51:31Z</time>
      </trkpt>
      <trkpt lat="45.22808" lon="6.15259">
        <ele>1726</ele>
        <time>2022-06-18T05:51:32Z</time>
      </trkpt>
      <trkpt lat="45.22811" lon="6.15268">
        <ele>1726</ele>
        <time>2022-06-18T05:51:33Z</time>
      </trkpt>
      <trkpt lat="45.22815" lon="6.15278">
        <ele>1726</ele>
        <time>2022-06-18T05:51:34Z</time>
      </trkpt>
      <trkpt lat="45.22818" lon="6.15286">
        <ele>1726.1</ele>
        <time>2022-06-18T05:51:35Z</time>
      </trkpt>
      <trkpt lat="45.22821" lon="6.15295">
        <ele>1726.2</ele>
        <time>2022-06-18T05:51:36Z</time>
      </trkpt>
      <trkpt lat="45.22825" lon="6.15303">
        <ele>1726.5</ele>
        <time>2022-06-18T05:51:37Z</time>
      </trkpt>
      <trkpt lat="45.22827" lon="6.15311">
        <ele>1726.9</ele>
        <time>2022-06-18T05:51:38Z</time>
      </trkpt>
      <trkpt lat="45.22829" lon="6.15319">
        <ele>1727.4</ele>
        <time>2022-06-18T05:51:39Z</time>
      </trkpt>
      <trkpt lat="45.22831" lon="6.15326">
        <ele>1727.8</ele>
        <time>2022-06-18T05:51:40Z</time>
      </trkpt>
      <trkpt lat="45.22833" lon="6.15333">
        <ele>1728.2</ele>
        <time>2022-06-18T05:51:41Z</time>
      </trkpt>
      <trkpt lat="45.22835" lon="6.1534">
        <ele>1728.7</ele>
        <time>2022-06-18T05:51:42Z</time>
      </trkpt>
      <trkpt lat="45.22837" lon="6.15347">
        <ele>1729.2</ele>
        <time>2022-06-18T05:51:43Z</time>
      </trkpt>
      <trkpt lat="45.22838" lon="6.15351">
        <ele>1729.5</ele>
        <time>2022-06-18T05:51:44Z</time>
      </trkpt>
      <trkpt lat="45.22841" lon="6.15359">
        <ele>1730.1</ele>
        <time>2022-06-18T05:51:45Z</time>
      </trkpt>
      <trkpt lat="45.22844" lon="6.15367">
        <ele>1730.7</ele>
        <time>2022-06-18T05:51:46Z</time>
      </trkpt>
      <trkpt lat="45.22846" lon="6.15374">
        <ele>1731.2</ele>
        <time>2022-06-18T05:51:47Z</time>
      </trkpt>
      <trkpt lat="45.22848" lon="6.1538">
        <ele>1731.6</ele>
        <time>2022-06-18T05:51:48Z</time>
      </trkpt>
      <trkpt lat="45.2285" lon="6.15386">
        <ele>1732.1</ele>
        <time>2022-06-18T05:51:49Z</time>
      </trkpt>
      <trkpt lat="45.22851" lon="6.15391">
        <ele>1732.4</ele>
        <time>2022-06-18T05:51:50Z</time>
      </trkpt>
      <trkpt lat="45.22852" lon="6.15393">
        <ele>1732.6</ele>
        <time>2022-06-18T05:51:52Z</time>
      </trkpt>
      <trkpt lat="45.22852" lon="6.15398">
        <ele>1732.9</ele>
        <time>2022-06-18T05:51:53Z</time>
      </trkpt>
      <trkpt lat="45.22854" lon="6.15407">
        <ele>1733.5</ele>
        <time>2022-06-18T05:51:54Z</time>
      </trkpt>
      <trkpt lat="45.22856" lon="6.15415">
        <ele>1734.1</ele>
        <time>2022-06-18T05:51:55Z</time>
      </trkpt>
      <trkpt lat="45.22858" lon="6.15424">
        <ele>1734.7</ele>
        <time>2022-06-18T05:51:56Z</time>
      </trkpt>
      <trkpt lat="45.22859" lon="6.1543">
        <ele>1735</ele>
        <time>2022-06-18T05:51:57Z</time>
      </trkpt>
      <trkpt lat="45.22859" lon="6.15438">
        <ele>1735.5</ele>
        <time>2022-06-18T05:51:59Z</time>
      </trkpt>
      <trkpt lat="45.2286" lon="6.15443">
        <ele>1735.8</ele>
        <time>2022-06-18T05:52:00Z</time>
      </trkpt>
      <trkpt lat="45.22859" lon="6.15447">
        <ele>1736.1</ele>
        <time>2022-06-18T05:52:01Z</time>
      </trkpt>
      <trkpt lat="45.22855" lon="6.15453">
        <ele>1736.5</ele>
        <time>2022-06-18T05:52:02Z</time>
      </trkpt>
      <trkpt lat="45.22852" lon="6.15457">
        <ele>1736.8</ele>
        <time>2022-06-18T05:52:03Z</time>
      </trkpt>
      <trkpt lat="45.2285" lon="6.15462">
        <ele>1737.1</ele>
        <time>2022-06-18T05:52:04Z</time>
      </trkpt>
      <trkpt lat="45.22847" lon="6.1547">
        <ele>1737.6</ele>
        <time>2022-06-18T05:52:06Z</time>
      </trkpt>
      <trkpt lat="45.22846" lon="6.15476">
        <ele>1738.1</ele>
        <time>2022-06-18T05:52:08Z</time>
      </trkpt>
      <trkpt lat="45.22845" lon="6.15483">
        <ele>1738.5</ele>
        <time>2022-06-18T05:52:09Z</time>
      </trkpt>
      <trkpt lat="45.22844" lon="6.15488">
        <ele>1738.9</ele>
        <time>2022-06-18T05:52:11Z</time>
      </trkpt>
      <trkpt lat="45.22843" lon="6.15494">
        <ele>1739.3</ele>
        <time>2022-06-18T05:52:12Z</time>
      </trkpt>
      <trkpt lat="45.22842" lon="6.15496">
        <ele>1739.5</ele>
        <time>2022-06-18T05:52:13Z</time>
      </trkpt>
      <trkpt lat="45.22841" lon="6.15501">
        <ele>1739.8</ele>
        <time>2022-06-18T05:52:14Z</time>
      </trkpt>
      <trkpt lat="45.22841" lon="6.15505">
        <ele>1740.1</ele>
        <time>2022-06-18T05:52:15Z</time>
      </trkpt>
      <trkpt lat="45.22841" lon="6.15511">
        <ele>1740.6</ele>
        <time>2022-06-18T05:52:17Z</time>
      </trkpt>
      <trkpt lat="45.22842" lon="6.15516">
        <ele>1740.8</ele>
        <time>2022-06-18T05:52:18Z</time>
      </trkpt>
      <trkpt lat="45.22841" lon="6.15521">
        <ele>1741.2</ele>
        <time>2022-06-18T05:52:19Z</time>
      </trkpt>
      <trkpt lat="45.22841" lon="6.15522">
        <ele>1741.3</ele>
        <time>2022-06-18T05:52:20Z</time>
      </trkpt>
      <trkpt lat="45.22842" lon="6.15527">
        <ele>1741.6</ele>
        <time>2022-06-18T05:52:21Z</time>
      </trkpt>
      <trkpt lat="45.22843" lon="6.15532">
        <ele>1741.9</ele>
        <time>2022-06-18T05:52:22Z</time>
      </trkpt>
      <trkpt lat="45.22844" lon="6.15537">
        <ele>1742.2</ele>
        <time>2022-06-18T05:52:24Z</time>
      </trkpt>
      <trkpt lat="45.22846" lon="6.15542">
        <ele>1742.6</ele>
        <time>2022-06-18T05:52:25Z</time>
      </trkpt>
      <trkpt lat="45.22848" lon="6.15548">
        <ele>1743</ele>
        <time>2022-06-18T05:52:26Z</time>
      </trkpt>
      <trkpt lat="45.2285" lon="6.15552">
        <ele>1743.3</ele>
        <time>2022-06-18T05:52:27Z</time>
      </trkpt>
      <trkpt lat="45.22852" lon="6.15556">
        <ele>1743.6</ele>
        <time>2022-06-18T05:52:28Z</time>
      </trkpt>
      <trkpt lat="45.22856" lon="6.15563">
        <ele>1744.1</ele>
        <time>2022-06-18T05:52:30Z</time>
      </trkpt>
      <trkpt lat="45.22859" lon="6.15567">
        <ele>1744.3</ele>
        <time>2022-06-18T05:52:31Z</time>
      </trkpt>
      <trkpt lat="45.22862" lon="6.15572">
        <ele>1744.8</ele>
        <time>2022-06-18T05:52:33Z</time>
      </trkpt>
      <trkpt lat="45.22865" lon="6.15578">
        <ele>1745.2</ele>
        <time>2022-06-18T05:52:34Z</time>
      </trkpt>
      <trkpt lat="45.22868" lon="6.15582">
        <ele>1745.5</ele>
        <time>2022-06-18T05:52:36Z</time>
      </trkpt>
      <trkpt lat="45.2287" lon="6.15586">
        <ele>1745.7</ele>
        <time>2022-06-18T05:52:37Z</time>
      </trkpt>
      <trkpt lat="45.22873" lon="6.15591">
        <ele>1746.1</ele>
        <time>2022-06-18T05:52:38Z</time>
      </trkpt>
      <trkpt lat="45.22875" lon="6.15596">
        <ele>1746.4</ele>
        <time>2022-06-18T05:52:40Z</time>
      </trkpt>
      <trkpt lat="45.22876" lon="6.156">
        <ele>1746.7</ele>
        <time>2022-06-18T05:52:41Z</time>
      </trkpt>
      <trkpt lat="45.22878" lon="6.15605">
        <ele>1747</ele>
        <time>2022-06-18T05:52:42Z</time>
      </trkpt>
      <trkpt lat="45.22881" lon="6.15609">
        <ele>1747.3</ele>
        <time>2022-06-18T05:52:43Z</time>
      </trkpt>
      <trkpt lat="45.22882" lon="6.15611">
        <ele>1747.4</ele>
        <time>2022-06-18T05:52:44Z</time>
      </trkpt>
      <trkpt lat="45.22883" lon="6.15615">
        <ele>1747.7</ele>
        <time>2022-06-18T05:52:45Z</time>
      </trkpt>
      <trkpt lat="45.22885" lon="6.15618">
        <ele>1747.9</ele>
        <time>2022-06-18T05:52:46Z</time>
      </trkpt>
      <trkpt lat="45.22887" lon="6.15623">
        <ele>1748.2</ele>
        <time>2022-06-18T05:52:47Z</time>
      </trkpt>
      <trkpt lat="45.22888" lon="6.15625">
        <ele>1748.3</ele>
        <time>2022-06-18T05:52:48Z</time>
      </trkpt>
      <trkpt lat="45.2289" lon="6.15629">
        <ele>1748.6</ele>
        <time>2022-06-18T05:52:49Z</time>
      </trkpt>
      <trkpt lat="45.22892" lon="6.15632">
        <ele>1748.8</ele>
        <time>2022-06-18T05:52:50Z</time>
      </trkpt>
      <trkpt lat="45.22894" lon="6.15636">
        <ele>1749.1</ele>
        <time>2022-06-18T05:52:52Z</time>
      </trkpt>
      <trkpt lat="45.22896" lon="6.1564">
        <ele>1749.4</ele>
        <time>2022-06-18T05:52:53Z</time>
      </trkpt>
      <trkpt lat="45.229" lon="6.15645">
        <ele>1749.8</ele>
        <time>2022-06-18T05:52:54Z</time>
      </trkpt>
      <trkpt lat="45.22903" lon="6.15651">
        <ele>1750.2</ele>
        <time>2022-06-18T05:52:56Z</time>
      </trkpt>
      <trkpt lat="45.22906" lon="6.15655">
        <ele>1750.5</ele>
        <time>2022-06-18T05:52:57Z</time>
      </trkpt>
      <trkpt lat="45.22909" lon="6.15659">
        <ele>1750.8</ele>
        <time>2022-06-18T05:52:58Z</time>
      </trkpt>
      <trkpt lat="45.22911" lon="6.15663">
        <ele>1751.1</ele>
        <time>2022-06-18T05:52:59Z</time>
      </trkpt>
      <trkpt lat="45.22915" lon="6.15669">
        <ele>1751.5</ele>
        <time>2022-06-18T05:53:01Z</time>
      </trkpt>
      <trkpt lat="45.22917" lon="6.15673">
        <ele>1751.8</ele>
        <time>2022-06-18T05:53:02Z</time>
      </trkpt>
      <trkpt lat="45.22919" lon="6.15676">
        <ele>1752</ele>
        <time>2022-06-18T05:53:03Z</time>
      </trkpt>
      <trkpt lat="45.22922" lon="6.15679">
        <ele>1752.3</ele>
        <time>2022-06-18T05:53:05Z</time>
      </trkpt>
      <trkpt lat="45.22924" lon="6.15683">
        <ele>1752.5</ele>
        <time>2022-06-18T05:53:06Z</time>
      </trkpt>
      <trkpt lat="45.22927" lon="6.15687">
        <ele>1752.8</ele>
        <time>2022-06-18T05:53:07Z</time>
      </trkpt>
      <trkpt lat="45.22929" lon="6.1569">
        <ele>1753</ele>
        <time>2022-06-18T05:53:08Z</time>
      </trkpt>
      <trkpt lat="45.22932" lon="6.15694">
        <ele>1753.4</ele>
        <time>2022-06-18T05:53:09Z</time>
      </trkpt>
      <trkpt lat="45.22935" lon="6.15698">
        <ele>1753.7</ele>
        <time>2022-06-18T05:53:11Z</time>
      </trkpt>
      <trkpt lat="45.22937" lon="6.15701">
        <ele>1753.9</ele>
        <time>2022-06-18T05:53:12Z</time>
      </trkpt>
      <trkpt lat="45.2294" lon="6.15704">
        <ele>1754.2</ele>
        <time>2022-06-18T05:53:13Z</time>
      </trkpt>
      <trkpt lat="45.22942" lon="6.15708">
        <ele>1754.4</ele>
        <time>2022-06-18T05:53:14Z</time>
      </trkpt>
      <trkpt lat="45.22944" lon="6.15712">
        <ele>1754.7</ele>
        <time>2022-06-18T05:53:15Z</time>
      </trkpt>
      <trkpt lat="45.22947" lon="6.15715">
        <ele>1755</ele>
        <time>2022-06-18T05:53:16Z</time>
      </trkpt>
      <trkpt lat="45.2295" lon="6.15719">
        <ele>1755.3</ele>
        <time>2022-06-18T05:53:18Z</time>
      </trkpt>
      <trkpt lat="45.22953" lon="6.15723">
        <ele>1755.6</ele>
        <time>2022-06-18T05:53:19Z</time>
      </trkpt>
      <trkpt lat="45.22956" lon="6.15728">
        <ele>1756</ele>
        <time>2022-06-18T05:53:20Z</time>
      </trkpt>
      <trkpt lat="45.22958" lon="6.15731">
        <ele>1756.2</ele>
        <time>2022-06-18T05:53:21Z</time>
      </trkpt>
      <trkpt lat="45.2296" lon="6.15735">
        <ele>1756.5</ele>
        <time>2022-06-18T05:53:22Z</time>
      </trkpt>
      <trkpt lat="45.22962" lon="6.15739">
        <ele>1756.8</ele>
        <time>2022-06-18T05:53:23Z</time>
      </trkpt>
      <trkpt lat="45.22963" lon="6.15743">
        <ele>1757</ele>
        <time>2022-06-18T05:53:24Z</time>
      </trkpt>
      <trkpt lat="45.22964" lon="6.15748">
        <ele>1757.4</ele>
        <time>2022-06-18T05:53:25Z</time>
      </trkpt>
      <trkpt lat="45.22966" lon="6.15752">
        <ele>1757.6</ele>
        <time>2022-06-18T05:53:26Z</time>
      </trkpt>
      <trkpt lat="45.22967" lon="6.15756">
        <ele>1757.9</ele>
        <time>2022-06-18T05:53:27Z</time>
      </trkpt>
      <trkpt lat="45.22968" lon="6.15762">
        <ele>1758.3</ele>
        <time>2022-06-18T05:53:29Z</time>
      </trkpt>
      <trkpt lat="45.22969" lon="6.15767">
        <ele>1758.6</ele>
        <time>2022-06-18T05:53:30Z</time>
      </trkpt>
      <trkpt lat="45.22971" lon="6.15771">
        <ele>1758.9</ele>
        <time>2022-06-18T05:53:31Z</time>
      </trkpt>
      <trkpt lat="45.22972" lon="6.15776">
        <ele>1759.2</ele>
        <time>2022-06-18T05:53:32Z</time>
      </trkpt>
      <trkpt lat="45.22972" lon="6.15782">
        <ele>1759.6</ele>
        <time>2022-06-18T05:53:33Z</time>
      </trkpt>
      <trkpt lat="45.22973" lon="6.15787">
        <ele>1759.8</ele>
        <time>2022-06-18T05:53:34Z</time>
      </trkpt>
      <trkpt lat="45.22973" lon="6.15792">
        <ele>1760.2</ele>
        <time>2022-06-18T05:53:35Z</time>
      </trkpt>
      <trkpt lat="45.22973" lon="6.15798">
        <ele>1760.6</ele>
        <time>2022-06-18T05:53:37Z</time>
      </trkpt>
      <trkpt lat="45.22974" lon="6.15803">
        <ele>1760.9</ele>
        <time>2022-06-18T05:53:38Z</time>
      </trkpt>
      <trkpt lat="45.22975" lon="6.15809">
        <ele>1761.3</ele>
        <time>2022-06-18T05:53:39Z</time>
      </trkpt>
      <trkpt lat="45.22976" lon="6.15814">
        <ele>1761.6</ele>
        <time>2022-06-18T05:53:40Z</time>
      </trkpt>
      <trkpt lat="45.22977" lon="6.1582">
        <ele>1762</ele>
        <time>2022-06-18T05:53:41Z</time>
      </trkpt>
      <trkpt lat="45.22977" lon="6.15822">
        <ele>1762.1</ele>
        <time>2022-06-18T05:53:42Z</time>
      </trkpt>
      <trkpt lat="45.22977" lon="6.15826">
        <ele>1762.4</ele>
        <time>2022-06-18T05:53:43Z</time>
      </trkpt>
      <trkpt lat="45.22979" lon="6.15833">
        <ele>1762.8</ele>
        <time>2022-06-18T05:53:45Z</time>
      </trkpt>
      <trkpt lat="45.22981" lon="6.15838">
        <ele>1763.1</ele>
        <time>2022-06-18T05:53:46Z</time>
      </trkpt>
      <trkpt lat="45.22983" lon="6.15843">
        <ele>1763.4</ele>
        <time>2022-06-18T05:53:47Z</time>
      </trkpt>
      <trkpt lat="45.22986" lon="6.15849">
        <ele>1763.8</ele>
        <time>2022-06-18T05:53:49Z</time>
      </trkpt>
      <trkpt lat="45.22989" lon="6.15855">
        <ele>1764.1</ele>
        <time>2022-06-18T05:53:50Z</time>
      </trkpt>
      <trkpt lat="45.22991" lon="6.1586">
        <ele>1764.4</ele>
        <time>2022-06-18T05:53:51Z</time>
      </trkpt>
      <trkpt lat="45.22993" lon="6.15865">
        <ele>1764.7</ele>
        <time>2022-06-18T05:53:53Z</time>
      </trkpt>
      <trkpt lat="45.22995" lon="6.15871">
        <ele>1765</ele>
        <time>2022-06-18T05:53:54Z</time>
      </trkpt>
      <trkpt lat="45.22998" lon="6.15878">
        <ele>1765.3</ele>
        <time>2022-06-18T05:53:55Z</time>
      </trkpt>
      <trkpt lat="45.23" lon="6.15882">
        <ele>1765.6</ele>
        <time>2022-06-18T05:53:56Z</time>
      </trkpt>
      <trkpt lat="45.23001" lon="6.15886">
        <ele>1765.7</ele>
        <time>2022-06-18T05:53:57Z</time>
      </trkpt>
      <trkpt lat="45.23002" lon="6.1589">
        <ele>1766</ele>
        <time>2022-06-18T05:53:58Z</time>
      </trkpt>
      <trkpt lat="45.23005" lon="6.15899">
        <ele>1766.4</ele>
        <time>2022-06-18T05:54:00Z</time>
      </trkpt>
      <trkpt lat="45.23007" lon="6.15903">
        <ele>1766.6</ele>
        <time>2022-06-18T05:54:01Z</time>
      </trkpt>
      <trkpt lat="45.23008" lon="6.15907">
        <ele>1766.9</ele>
        <time>2022-06-18T05:54:02Z</time>
      </trkpt>
      <trkpt lat="45.2301" lon="6.15911">
        <ele>1767.1</ele>
        <time>2022-06-18T05:54:03Z</time>
      </trkpt>
      <trkpt lat="45.23012" lon="6.15916">
        <ele>1767.4</ele>
        <time>2022-06-18T05:54:04Z</time>
      </trkpt>
      <trkpt lat="45.23015" lon="6.15919">
        <ele>1767.6</ele>
        <time>2022-06-18T05:54:05Z</time>
      </trkpt>
      <trkpt lat="45.23016" lon="6.15922">
        <ele>1767.8</ele>
        <time>2022-06-18T05:54:06Z</time>
      </trkpt>
      <trkpt lat="45.23019" lon="6.15925">
        <ele>1768</ele>
        <time>2022-06-18T05:54:07Z</time>
      </trkpt>
      <trkpt lat="45.23021" lon="6.15929">
        <ele>1768.3</ele>
        <time>2022-06-18T05:54:08Z</time>
      </trkpt>
      <trkpt lat="45.23025" lon="6.15932">
        <ele>1768.6</ele>
        <time>2022-06-18T05:54:10Z</time>
      </trkpt>
      <trkpt lat="45.23028" lon="6.15935">
        <ele>1768.8</ele>
        <time>2022-06-18T05:54:11Z</time>
      </trkpt>
      <trkpt lat="45.23031" lon="6.15937">
        <ele>1769.1</ele>
        <time>2022-06-18T05:54:12Z</time>
      </trkpt>
      <trkpt lat="45.23036" lon="6.15939">
        <ele>1769.4</ele>
        <time>2022-06-18T05:54:13Z</time>
      </trkpt>
      <trkpt lat="45.23039" lon="6.15942">
        <ele>1769.7</ele>
        <time>2022-06-18T05:54:14Z</time>
      </trkpt>
      <trkpt lat="45.23042" lon="6.15944">
        <ele>1769.9</ele>
        <time>2022-06-18T05:54:15Z</time>
      </trkpt>
      <trkpt lat="45.23045" lon="6.15945">
        <ele>1770.1</ele>
        <time>2022-06-18T05:54:16Z</time>
      </trkpt>
      <trkpt lat="45.23049" lon="6.15948">
        <ele>1770.4</ele>
        <time>2022-06-18T05:54:17Z</time>
      </trkpt>
      <trkpt lat="45.23052" lon="6.15951">
        <ele>1770.7</ele>
        <time>2022-06-18T05:54:19Z</time>
      </trkpt>
      <trkpt lat="45.23056" lon="6.15956">
        <ele>1771</ele>
        <time>2022-06-18T05:54:20Z</time>
      </trkpt>
      <trkpt lat="45.2306" lon="6.15961">
        <ele>1771.3</ele>
        <time>2022-06-18T05:54:22Z</time>
      </trkpt>
      <trkpt lat="45.23063" lon="6.15967">
        <ele>1771.6</ele>
        <time>2022-06-18T05:54:23Z</time>
      </trkpt>
      <trkpt lat="45.23065" lon="6.15973">
        <ele>1771.9</ele>
        <time>2022-06-18T05:54:24Z</time>
      </trkpt>
      <trkpt lat="45.23066" lon="6.15977">
        <ele>1772.1</ele>
        <time>2022-06-18T05:54:25Z</time>
      </trkpt>
      <trkpt lat="45.23067" lon="6.15981">
        <ele>1772.2</ele>
        <time>2022-06-18T05:54:26Z</time>
      </trkpt>
      <trkpt lat="45.23069" lon="6.15986">
        <ele>1772.5</ele>
        <time>2022-06-18T05:54:27Z</time>
      </trkpt>
      <trkpt lat="45.2307" lon="6.1599">
        <ele>1772.6</ele>
        <time>2022-06-18T05:54:28Z</time>
      </trkpt>
      <trkpt lat="45.23073" lon="6.15996">
        <ele>1772.9</ele>
        <time>2022-06-18T05:54:30Z</time>
      </trkpt>
      <trkpt lat="45.23075" lon="6.16002">
        <ele>1773.2</ele>
        <time>2022-06-18T05:54:31Z</time>
      </trkpt>
      <trkpt lat="45.23078" lon="6.16006">
        <ele>1773.4</ele>
        <time>2022-06-18T05:54:32Z</time>
      </trkpt>
      <trkpt lat="45.23081" lon="6.16013">
        <ele>1773.7</ele>
        <time>2022-06-18T05:54:33Z</time>
      </trkpt>
      <trkpt lat="45.23085" lon="6.1602">
        <ele>1774.1</ele>
        <time>2022-06-18T05:54:35Z</time>
      </trkpt>
      <trkpt lat="45.23087" lon="6.16025">
        <ele>1774.4</ele>
        <time>2022-06-18T05:54:36Z</time>
      </trkpt>
      <trkpt lat="45.23091" lon="6.1603">
        <ele>1774.7</ele>
        <time>2022-06-18T05:54:38Z</time>
      </trkpt>
      <trkpt lat="45.23095" lon="6.16036">
        <ele>1775</ele>
        <time>2022-06-18T05:54:39Z</time>
      </trkpt>
      <trkpt lat="45.23098" lon="6.16039">
        <ele>1775.2</ele>
        <time>2022-06-18T05:54:40Z</time>
      </trkpt>
      <trkpt lat="45.23101" lon="6.16043">
        <ele>1775.4</ele>
        <time>2022-06-18T05:54:41Z</time>
      </trkpt>
      <trkpt lat="45.23104" lon="6.16048">
        <ele>1775.7</ele>
        <time>2022-06-18T05:54:42Z</time>
      </trkpt>
      <trkpt lat="45.23108" lon="6.16053">
        <ele>1776</ele>
        <time>2022-06-18T05:54:44Z</time>
      </trkpt>
      <trkpt lat="45.23111" lon="6.16059">
        <ele>1776.3</ele>
        <time>2022-06-18T05:54:45Z</time>
      </trkpt>
      <trkpt lat="45.23114" lon="6.16065">
        <ele>1776.7</ele>
        <time>2022-06-18T05:54:47Z</time>
      </trkpt>
      <trkpt lat="45.23115" lon="6.1607">
        <ele>1777</ele>
        <time>2022-06-18T05:54:48Z</time>
      </trkpt>
      <trkpt lat="45.23117" lon="6.16077">
        <ele>1777.3</ele>
        <time>2022-06-18T05:54:49Z</time>
      </trkpt>
      <trkpt lat="45.23118" lon="6.16081">
        <ele>1777.6</ele>
        <time>2022-06-18T05:54:50Z</time>
      </trkpt>
      <trkpt lat="45.2312" lon="6.16086">
        <ele>1777.9</ele>
        <time>2022-06-18T05:54:51Z</time>
      </trkpt>
      <trkpt lat="45.23121" lon="6.1609">
        <ele>1778.2</ele>
        <time>2022-06-18T05:54:52Z</time>
      </trkpt>
      <trkpt lat="45.23123" lon="6.16095">
        <ele>1778.5</ele>
        <time>2022-06-18T05:54:53Z</time>
      </trkpt>
      <trkpt lat="45.23124" lon="6.16099">
        <ele>1778.7</ele>
        <time>2022-06-18T05:54:54Z</time>
      </trkpt>
      <trkpt lat="45.23126" lon="6.16105">
        <ele>1779.2</ele>
        <time>2022-06-18T05:54:56Z</time>
      </trkpt>
      <trkpt lat="45.2313" lon="6.16111">
        <ele>1779.6</ele>
        <time>2022-06-18T05:54:57Z</time>
      </trkpt>
      <trkpt lat="45.23132" lon="6.16115">
        <ele>1780</ele>
        <time>2022-06-18T05:54:59Z</time>
      </trkpt>
      <trkpt lat="45.23135" lon="6.16117">
        <ele>1780.3</ele>
        <time>2022-06-18T05:55:00Z</time>
      </trkpt>
      <trkpt lat="45.23139" lon="6.1612">
        <ele>1780.7</ele>
        <time>2022-06-18T05:55:01Z</time>
      </trkpt>
      <trkpt lat="45.23142" lon="6.16123">
        <ele>1781</ele>
        <time>2022-06-18T05:55:02Z</time>
      </trkpt>
      <trkpt lat="45.23146" lon="6.16126">
        <ele>1781.4</ele>
        <time>2022-06-18T05:55:04Z</time>
      </trkpt>
      <trkpt lat="45.23149" lon="6.16128">
        <ele>1781.7</ele>
        <time>2022-06-18T05:55:05Z</time>
      </trkpt>
      <trkpt lat="45.23152" lon="6.1613">
        <ele>1782</ele>
        <time>2022-06-18T05:55:06Z</time>
      </trkpt>
      <trkpt lat="45.23155" lon="6.16133">
        <ele>1782.3</ele>
        <time>2022-06-18T05:55:07Z</time>
      </trkpt>
      <trkpt lat="45.2316" lon="6.16137">
        <ele>1782.8</ele>
        <time>2022-06-18T05:55:09Z</time>
      </trkpt>
      <trkpt lat="45.23163" lon="6.16141">
        <ele>1783.1</ele>
        <time>2022-06-18T05:55:10Z</time>
      </trkpt>
      <trkpt lat="45.23164" lon="6.16142">
        <ele>1783.2</ele>
        <time>2022-06-18T05:55:11Z</time>
      </trkpt>
      <trkpt lat="45.23166" lon="6.16145">
        <ele>1783.5</ele>
        <time>2022-06-18T05:55:12Z</time>
      </trkpt>
      <trkpt lat="45.23167" lon="6.16149">
        <ele>1783.7</ele>
        <time>2022-06-18T05:55:13Z</time>
      </trkpt>
      <trkpt lat="45.23169" lon="6.16154">
        <ele>1784</ele>
        <time>2022-06-18T05:55:14Z</time>
      </trkpt>
      <trkpt lat="45.2317" lon="6.16159">
        <ele>1784.4</ele>
        <time>2022-06-18T05:55:15Z</time>
      </trkpt>
      <trkpt lat="45.23171" lon="6.16165">
        <ele>1784.8</ele>
        <time>2022-06-18T05:55:17Z</time>
      </trkpt>
      <trkpt lat="45.23174" lon="6.1617">
        <ele>1785.1</ele>
        <time>2022-06-18T05:55:18Z</time>
      </trkpt>
      <trkpt lat="45.23176" lon="6.16176">
        <ele>1785.6</ele>
        <time>2022-06-18T05:55:19Z</time>
      </trkpt>
      <trkpt lat="45.23179" lon="6.16181">
        <ele>1785.9</ele>
        <time>2022-06-18T05:55:21Z</time>
      </trkpt>
      <trkpt lat="45.23181" lon="6.16186">
        <ele>1786.2</ele>
        <time>2022-06-18T05:55:22Z</time>
      </trkpt>
      <trkpt lat="45.23183" lon="6.1619">
        <ele>1786.6</ele>
        <time>2022-06-18T05:55:23Z</time>
      </trkpt>
      <trkpt lat="45.23184" lon="6.16194">
        <ele>1786.9</ele>
        <time>2022-06-18T05:55:24Z</time>
      </trkpt>
      <trkpt lat="45.23186" lon="6.16198">
        <ele>1787.1</ele>
        <time>2022-06-18T05:55:25Z</time>
      </trkpt>
      <trkpt lat="45.23187" lon="6.16203">
        <ele>1787.5</ele>
        <time>2022-06-18T05:55:26Z</time>
      </trkpt>
      <trkpt lat="45.23188" lon="6.16205">
        <ele>1787.6</ele>
        <time>2022-06-18T05:55:27Z</time>
      </trkpt>
      <trkpt lat="45.2319" lon="6.16212">
        <ele>1788</ele>
        <time>2022-06-18T05:55:29Z</time>
      </trkpt>
      <trkpt lat="45.23191" lon="6.16218">
        <ele>1788.4</ele>
        <time>2022-06-18T05:55:30Z</time>
      </trkpt>
      <trkpt lat="45.23192" lon="6.16224">
        <ele>1788.9</ele>
        <time>2022-06-18T05:55:32Z</time>
      </trkpt>
      <trkpt lat="45.23193" lon="6.16231">
        <ele>1789.3</ele>
        <time>2022-06-18T05:55:33Z</time>
      </trkpt>
      <trkpt lat="45.23194" lon="6.16236">
        <ele>1789.6</ele>
        <time>2022-06-18T05:55:34Z</time>
      </trkpt>
      <trkpt lat="45.23195" lon="6.16241">
        <ele>1790</ele>
        <time>2022-06-18T05:55:36Z</time>
      </trkpt>
      <trkpt lat="45.23196" lon="6.16245">
        <ele>1790.2</ele>
        <time>2022-06-18T05:55:37Z</time>
      </trkpt>
      <trkpt lat="45.23197" lon="6.16251">
        <ele>1790.6</ele>
        <time>2022-06-18T05:55:38Z</time>
      </trkpt>
      <trkpt lat="45.23198" lon="6.16256">
        <ele>1790.9</ele>
        <time>2022-06-18T05:55:39Z</time>
      </trkpt>
      <trkpt lat="45.23198" lon="6.1626">
        <ele>1791.2</ele>
        <time>2022-06-18T05:55:40Z</time>
      </trkpt>
      <trkpt lat="45.23199" lon="6.16265">
        <ele>1791.5</ele>
        <time>2022-06-18T05:55:41Z</time>
      </trkpt>
      <trkpt lat="45.232" lon="6.16269">
        <ele>1791.8</ele>
        <time>2022-06-18T05:55:42Z</time>
      </trkpt>
      <trkpt lat="45.23201" lon="6.16275">
        <ele>1792.2</ele>
        <time>2022-06-18T05:55:44Z</time>
      </trkpt>
      <trkpt lat="45.23202" lon="6.16281">
        <ele>1792.6</ele>
        <time>2022-06-18T05:55:45Z</time>
      </trkpt>
      <trkpt lat="45.23202" lon="6.16285">
        <ele>1792.8</ele>
        <time>2022-06-18T05:55:46Z</time>
      </trkpt>
      <trkpt lat="45.23204" lon="6.16291">
        <ele>1793.1</ele>
        <time>2022-06-18T05:55:48Z</time>
      </trkpt>
      <trkpt lat="45.23205" lon="6.16297">
        <ele>1793.5</ele>
        <time>2022-06-18T05:55:49Z</time>
      </trkpt>
      <trkpt lat="45.23206" lon="6.16302">
        <ele>1793.9</ele>
        <time>2022-06-18T05:55:50Z</time>
      </trkpt>
      <trkpt lat="45.23206" lon="6.16308">
        <ele>1794.2</ele>
        <time>2022-06-18T05:55:52Z</time>
      </trkpt>
      <trkpt lat="45.23207" lon="6.16313">
        <ele>1794.5</ele>
        <time>2022-06-18T05:55:53Z</time>
      </trkpt>
      <trkpt lat="45.23208" lon="6.16318">
        <ele>1794.8</ele>
        <time>2022-06-18T05:55:54Z</time>
      </trkpt>
      <trkpt lat="45.23208" lon="6.16325">
        <ele>1795.2</ele>
        <time>2022-06-18T05:55:56Z</time>
      </trkpt>
      <trkpt lat="45.23209" lon="6.16331">
        <ele>1795.6</ele>
        <time>2022-06-18T05:55:57Z</time>
      </trkpt>
      <trkpt lat="45.2321" lon="6.16335">
        <ele>1795.9</ele>
        <time>2022-06-18T05:55:58Z</time>
      </trkpt>
      <trkpt lat="45.23211" lon="6.16341">
        <ele>1796.2</ele>
        <time>2022-06-18T05:56:00Z</time>
      </trkpt>
      <trkpt lat="45.23212" lon="6.16346">
        <ele>1796.5</ele>
        <time>2022-06-18T05:56:01Z</time>
      </trkpt>
      <trkpt lat="45.23213" lon="6.16351">
        <ele>1796.8</ele>
        <time>2022-06-18T05:56:02Z</time>
      </trkpt>
      <trkpt lat="45.23213" lon="6.16357">
        <ele>1797.1</ele>
        <time>2022-06-18T05:56:03Z</time>
      </trkpt>
      <trkpt lat="45.23215" lon="6.16362">
        <ele>1797.5</ele>
        <time>2022-06-18T05:56:05Z</time>
      </trkpt>
      <trkpt lat="45.23216" lon="6.16367">
        <ele>1797.8</ele>
        <time>2022-06-18T05:56:06Z</time>
      </trkpt>
      <trkpt lat="45.23217" lon="6.16372">
        <ele>1798.1</ele>
        <time>2022-06-18T05:56:07Z</time>
      </trkpt>
      <trkpt lat="45.23218" lon="6.16376">
        <ele>1798.3</ele>
        <time>2022-06-18T05:56:08Z</time>
      </trkpt>
      <trkpt lat="45.23219" lon="6.16379">
        <ele>1798.6</ele>
        <time>2022-06-18T05:56:09Z</time>
      </trkpt>
      <trkpt lat="45.2322" lon="6.16383">
        <ele>1798.8</ele>
        <time>2022-06-18T05:56:10Z</time>
      </trkpt>
      <trkpt lat="45.23222" lon="6.16388">
        <ele>1799.1</ele>
        <time>2022-06-18T05:56:11Z</time>
      </trkpt>
      <trkpt lat="45.23222" lon="6.1639">
        <ele>1799.3</ele>
        <time>2022-06-18T05:56:12Z</time>
      </trkpt>
      <trkpt lat="45.23224" lon="6.16395">
        <ele>1799.5</ele>
        <time>2022-06-18T05:56:13Z</time>
      </trkpt>
      <trkpt lat="45.23226" lon="6.16399">
        <ele>1799.8</ele>
        <time>2022-06-18T05:56:14Z</time>
      </trkpt>
      <trkpt lat="45.23227" lon="6.16403">
        <ele>1800.1</ele>
        <time>2022-06-18T05:56:15Z</time>
      </trkpt>
      <trkpt lat="45.23228" lon="6.16407">
        <ele>1800.3</ele>
        <time>2022-06-18T05:56:16Z</time>
      </trkpt>
      <trkpt lat="45.23229" lon="6.1641">
        <ele>1800.6</ele>
        <time>2022-06-18T05:56:17Z</time>
      </trkpt>
      <trkpt lat="45.2323" lon="6.16414">
        <ele>1800.8</ele>
        <time>2022-06-18T05:56:18Z</time>
      </trkpt>
      <trkpt lat="45.23232" lon="6.1642">
        <ele>1801.1</ele>
        <time>2022-06-18T05:56:19Z</time>
      </trkpt>
      <trkpt lat="45.23232" lon="6.16422">
        <ele>1801.3</ele>
        <time>2022-06-18T05:56:20Z</time>
      </trkpt>
      <trkpt lat="45.23233" lon="6.16427">
        <ele>1801.6</ele>
        <time>2022-06-18T05:56:21Z</time>
      </trkpt>
      <trkpt lat="45.23234" lon="6.16429">
        <ele>1801.7</ele>
        <time>2022-06-18T05:56:22Z</time>
      </trkpt>
      <trkpt lat="45.23236" lon="6.16434">
        <ele>1802.1</ele>
        <time>2022-06-18T05:56:24Z</time>
      </trkpt>
      <trkpt lat="45.23238" lon="6.1644">
        <ele>1802.4</ele>
        <time>2022-06-18T05:56:25Z</time>
      </trkpt>
      <trkpt lat="45.2324" lon="6.16444">
        <ele>1802.7</ele>
        <time>2022-06-18T05:56:26Z</time>
      </trkpt>
      <trkpt lat="45.2324" lon="6.16449">
        <ele>1803</ele>
        <time>2022-06-18T05:56:28Z</time>
      </trkpt>
      <trkpt lat="45.23242" lon="6.16453">
        <ele>1803.2</ele>
        <time>2022-06-18T05:56:29Z</time>
      </trkpt>
      <trkpt lat="45.23244" lon="6.16459">
        <ele>1803.6</ele>
        <time>2022-06-18T05:56:30Z</time>
      </trkpt>
      <trkpt lat="45.23245" lon="6.16463">
        <ele>1803.9</ele>
        <time>2022-06-18T05:56:31Z</time>
      </trkpt>
      <trkpt lat="45.23246" lon="6.16468">
        <ele>1804.2</ele>
        <time>2022-06-18T05:56:33Z</time>
      </trkpt>
      <trkpt lat="45.23248" lon="6.16473">
        <ele>1804.4</ele>
        <time>2022-06-18T05:56:34Z</time>
      </trkpt>
      <trkpt lat="45.2325" lon="6.16478">
        <ele>1804.8</ele>
        <time>2022-06-18T05:56:35Z</time>
      </trkpt>
      <trkpt lat="45.23252" lon="6.16482">
        <ele>1805</ele>
        <time>2022-06-18T05:56:36Z</time>
      </trkpt>
      <trkpt lat="45.23253" lon="6.16487">
        <ele>1805.3</ele>
        <time>2022-06-18T05:56:38Z</time>
      </trkpt>
      <trkpt lat="45.23254" lon="6.16493">
        <ele>1805.6</ele>
        <time>2022-06-18T05:56:39Z</time>
      </trkpt>
      <trkpt lat="45.23256" lon="6.16498">
        <ele>1805.9</ele>
        <time>2022-06-18T05:56:40Z</time>
      </trkpt>
      <trkpt lat="45.23257" lon="6.16502">
        <ele>1806.2</ele>
        <time>2022-06-18T05:56:41Z</time>
      </trkpt>
      <trkpt lat="45.23258" lon="6.16507">
        <ele>1806.4</ele>
        <time>2022-06-18T05:56:42Z</time>
      </trkpt>
      <trkpt lat="45.23259" lon="6.16511">
        <ele>1806.6</ele>
        <time>2022-06-18T05:56:43Z</time>
      </trkpt>
      <trkpt lat="45.23261" lon="6.16517">
        <ele>1807</ele>
        <time>2022-06-18T05:56:45Z</time>
      </trkpt>
      <trkpt lat="45.23262" lon="6.16523">
        <ele>1807.3</ele>
        <time>2022-06-18T05:56:46Z</time>
      </trkpt>
      <trkpt lat="45.23263" lon="6.16527">
        <ele>1807.6</ele>
        <time>2022-06-18T05:56:47Z</time>
      </trkpt>
      <trkpt lat="45.23264" lon="6.16533">
        <ele>1807.8</ele>
        <time>2022-06-18T05:56:48Z</time>
      </trkpt>
      <trkpt lat="45.23265" lon="6.16538">
        <ele>1808.1</ele>
        <time>2022-06-18T05:56:49Z</time>
      </trkpt>
      <trkpt lat="45.23266" lon="6.16543">
        <ele>1808.4</ele>
        <time>2022-06-18T05:56:50Z</time>
      </trkpt>
      <trkpt lat="45.23267" lon="6.16548">
        <ele>1808.7</ele>
        <time>2022-06-18T05:56:52Z</time>
      </trkpt>
      <trkpt lat="45.23267" lon="6.16554">
        <ele>1809.1</ele>
        <time>2022-06-18T05:56:53Z</time>
      </trkpt>
      <trkpt lat="45.23268" lon="6.16561">
        <ele>1809.4</ele>
        <time>2022-06-18T05:56:54Z</time>
      </trkpt>
      <trkpt lat="45.23269" lon="6.16565">
        <ele>1809.7</ele>
        <time>2022-06-18T05:56:55Z</time>
      </trkpt>
      <trkpt lat="45.23271" lon="6.1657">
        <ele>1810</ele>
        <time>2022-06-18T05:56:57Z</time>
      </trkpt>
      <trkpt lat="45.23272" lon="6.16575">
        <ele>1810.3</ele>
        <time>2022-06-18T05:56:58Z</time>
      </trkpt>
      <trkpt lat="45.23274" lon="6.16579">
        <ele>1810.5</ele>
        <time>2022-06-18T05:56:59Z</time>
      </trkpt>
      <trkpt lat="45.23275" lon="6.16583">
        <ele>1810.8</ele>
        <time>2022-06-18T05:57:00Z</time>
      </trkpt>
      <trkpt lat="45.23277" lon="6.16589">
        <ele>1811.1</ele>
        <time>2022-06-18T05:57:01Z</time>
      </trkpt>
      <trkpt lat="45.23279" lon="6.16593">
        <ele>1811.4</ele>
        <time>2022-06-18T05:57:02Z</time>
      </trkpt>
      <trkpt lat="45.2328" lon="6.16597">
        <ele>1811.6</ele>
        <time>2022-06-18T05:57:03Z</time>
      </trkpt>
      <trkpt lat="45.23282" lon="6.16602">
        <ele>1811.8</ele>
        <time>2022-06-18T05:57:04Z</time>
      </trkpt>
      <trkpt lat="45.23283" lon="6.16607">
        <ele>1812.1</ele>
        <time>2022-06-18T05:57:06Z</time>
      </trkpt>
      <trkpt lat="45.23286" lon="6.16614">
        <ele>1812.5</ele>
        <time>2022-06-18T05:57:07Z</time>
      </trkpt>
      <trkpt lat="45.23288" lon="6.16619">
        <ele>1812.7</ele>
        <time>2022-06-18T05:57:08Z</time>
      </trkpt>
      <trkpt lat="45.2329" lon="6.16623">
        <ele>1812.9</ele>
        <time>2022-06-18T05:57:09Z</time>
      </trkpt>
      <trkpt lat="45.23291" lon="6.16627">
        <ele>1813.1</ele>
        <time>2022-06-18T05:57:10Z</time>
      </trkpt>
      <trkpt lat="45.23293" lon="6.1663">
        <ele>1813.3</ele>
        <time>2022-06-18T05:57:11Z</time>
      </trkpt>
      <trkpt lat="45.23296" lon="6.16635">
        <ele>1813.6</ele>
        <time>2022-06-18T05:57:13Z</time>
      </trkpt>
      <trkpt lat="45.23298" lon="6.16641">
        <ele>1813.8</ele>
        <time>2022-06-18T05:57:14Z</time>
      </trkpt>
      <trkpt lat="45.23301" lon="6.16646">
        <ele>1814.1</ele>
        <time>2022-06-18T05:57:15Z</time>
      </trkpt>
      <trkpt lat="45.23302" lon="6.16652">
        <ele>1814.4</ele>
        <time>2022-06-18T05:57:17Z</time>
      </trkpt>
      <trkpt lat="45.23303" lon="6.16659">
        <ele>1814.7</ele>
        <time>2022-06-18T05:57:18Z</time>
      </trkpt>
      <trkpt lat="45.23304" lon="6.16665">
        <ele>1815</ele>
        <time>2022-06-18T05:57:19Z</time>
      </trkpt>
      <trkpt lat="45.23305" lon="6.16672">
        <ele>1815.3</ele>
        <time>2022-06-18T05:57:21Z</time>
      </trkpt>
      <trkpt lat="45.23305" lon="6.16678">
        <ele>1815.5</ele>
        <time>2022-06-18T05:57:22Z</time>
      </trkpt>
      <trkpt lat="45.23305" lon="6.16683">
        <ele>1815.8</ele>
        <time>2022-06-18T05:57:23Z</time>
      </trkpt>
      <trkpt lat="45.23305" lon="6.1669">
        <ele>1816.1</ele>
        <time>2022-06-18T05:57:25Z</time>
      </trkpt>
      <trkpt lat="45.23307" lon="6.16697">
        <ele>1816.5</ele>
        <time>2022-06-18T05:57:26Z</time>
      </trkpt>
      <trkpt lat="45.23308" lon="6.16704">
        <ele>1816.8</ele>
        <time>2022-06-18T05:57:28Z</time>
      </trkpt>
      <trkpt lat="45.23309" lon="6.1671">
        <ele>1817.1</ele>
        <time>2022-06-18T05:57:29Z</time>
      </trkpt>
      <trkpt lat="45.23311" lon="6.16716">
        <ele>1817.5</ele>
        <time>2022-06-18T05:57:30Z</time>
      </trkpt>
      <trkpt lat="45.23312" lon="6.16722">
        <ele>1817.9</ele>
        <time>2022-06-18T05:57:32Z</time>
      </trkpt>
      <trkpt lat="45.23314" lon="6.16727">
        <ele>1818.2</ele>
        <time>2022-06-18T05:57:33Z</time>
      </trkpt>
      <trkpt lat="45.23315" lon="6.16734">
        <ele>1818.5</ele>
        <time>2022-06-18T05:57:34Z</time>
      </trkpt>
      <trkpt lat="45.23317" lon="6.1674">
        <ele>1818.9</ele>
        <time>2022-06-18T05:57:36Z</time>
      </trkpt>
      <trkpt lat="45.23318" lon="6.16745">
        <ele>1819.2</ele>
        <time>2022-06-18T05:57:37Z</time>
      </trkpt>
      <trkpt lat="45.2332" lon="6.16751">
        <ele>1819.5</ele>
        <time>2022-06-18T05:57:38Z</time>
      </trkpt>
      <trkpt lat="45.23322" lon="6.16756">
        <ele>1819.8</ele>
        <time>2022-06-18T05:57:40Z</time>
      </trkpt>
      <trkpt lat="45.23323" lon="6.16761">
        <ele>1820.1</ele>
        <time>2022-06-18T05:57:41Z</time>
      </trkpt>
      <trkpt lat="45.23325" lon="6.16767">
        <ele>1820.5</ele>
        <time>2022-06-18T05:57:42Z</time>
      </trkpt>
      <trkpt lat="45.23327" lon="6.16771">
        <ele>1820.7</ele>
        <time>2022-06-18T05:57:44Z</time>
      </trkpt>
      <trkpt lat="45.23328" lon="6.16775">
        <ele>1821</ele>
        <time>2022-06-18T05:57:45Z</time>
      </trkpt>
      <trkpt lat="45.23331" lon="6.16782">
        <ele>1821.4</ele>
        <time>2022-06-18T05:57:46Z</time>
      </trkpt>
      <trkpt lat="45.23333" lon="6.16786">
        <ele>1821.7</ele>
        <time>2022-06-18T05:57:47Z</time>
      </trkpt>
      <trkpt lat="45.23335" lon="6.16791">
        <ele>1822</ele>
        <time>2022-06-18T05:57:49Z</time>
      </trkpt>
      <trkpt lat="45.23337" lon="6.16795">
        <ele>1822.3</ele>
        <time>2022-06-18T05:57:50Z</time>
      </trkpt>
      <trkpt lat="45.23339" lon="6.16801">
        <ele>1822.6</ele>
        <time>2022-06-18T05:57:51Z</time>
      </trkpt>
      <trkpt lat="45.23341" lon="6.16805">
        <ele>1822.9</ele>
        <time>2022-06-18T05:57:52Z</time>
      </trkpt>
      <trkpt lat="45.23343" lon="6.1681">
        <ele>1823.2</ele>
        <time>2022-06-18T05:57:53Z</time>
      </trkpt>
      <trkpt lat="45.23344" lon="6.16813">
        <ele>1823.4</ele>
        <time>2022-06-18T05:57:54Z</time>
      </trkpt>
      <trkpt lat="45.23346" lon="6.16817">
        <ele>1823.7</ele>
        <time>2022-06-18T05:57:55Z</time>
      </trkpt>
      <trkpt lat="45.23348" lon="6.16822">
        <ele>1824</ele>
        <time>2022-06-18T05:57:56Z</time>
      </trkpt>
      <trkpt lat="45.23349" lon="6.16826">
        <ele>1824.2</ele>
        <time>2022-06-18T05:57:57Z</time>
      </trkpt>
      <trkpt lat="45.2335" lon="6.16831">
        <ele>1824.5</ele>
        <time>2022-06-18T05:57:58Z</time>
      </trkpt>
      <trkpt lat="45.23351" lon="6.16836">
        <ele>1824.8</ele>
        <time>2022-06-18T05:57:59Z</time>
      </trkpt>
      <trkpt lat="45.23351" lon="6.16843">
        <ele>1825.2</ele>
        <time>2022-06-18T05:58:00Z</time>
      </trkpt>
      <trkpt lat="45.23351" lon="6.16847">
        <ele>1825.5</ele>
        <time>2022-06-18T05:58:01Z</time>
      </trkpt>
      <trkpt lat="45.23351" lon="6.16853">
        <ele>1825.9</ele>
        <time>2022-06-18T05:58:03Z</time>
      </trkpt>
      <trkpt lat="45.23352" lon="6.16859">
        <ele>1826.2</ele>
        <time>2022-06-18T05:58:04Z</time>
      </trkpt>
      <trkpt lat="45.23353" lon="6.16864">
        <ele>1826.6</ele>
        <time>2022-06-18T05:58:05Z</time>
      </trkpt>
      <trkpt lat="45.23353" lon="6.16866">
        <ele>1826.7</ele>
        <time>2022-06-18T05:58:06Z</time>
      </trkpt>
      <trkpt lat="45.23354" lon="6.1687">
        <ele>1827</ele>
        <time>2022-06-18T05:58:07Z</time>
      </trkpt>
      <trkpt lat="45.23356" lon="6.16874">
        <ele>1827.2</ele>
        <time>2022-06-18T05:58:08Z</time>
      </trkpt>
      <trkpt lat="45.23358" lon="6.16881">
        <ele>1827.7</ele>
        <time>2022-06-18T05:58:10Z</time>
      </trkpt>
      <trkpt lat="45.2336" lon="6.16886">
        <ele>1828.1</ele>
        <time>2022-06-18T05:58:11Z</time>
      </trkpt>
      <trkpt lat="45.23361" lon="6.16889">
        <ele>1828.3</ele>
        <time>2022-06-18T05:58:12Z</time>
      </trkpt>
      <trkpt lat="45.23363" lon="6.16895">
        <ele>1828.7</ele>
        <time>2022-06-18T05:58:14Z</time>
      </trkpt>
      <trkpt lat="45.23366" lon="6.169">
        <ele>1829.1</ele>
        <time>2022-06-18T05:58:15Z</time>
      </trkpt>
      <trkpt lat="45.23367" lon="6.16905">
        <ele>1829.4</ele>
        <time>2022-06-18T05:58:16Z</time>
      </trkpt>
      <trkpt lat="45.23369" lon="6.16909">
        <ele>1829.7</ele>
        <time>2022-06-18T05:58:17Z</time>
      </trkpt>
      <trkpt lat="45.23371" lon="6.16915">
        <ele>1830.2</ele>
        <time>2022-06-18T05:58:19Z</time>
      </trkpt>
      <trkpt lat="45.23373" lon="6.1692">
        <ele>1830.5</ele>
        <time>2022-06-18T05:58:20Z</time>
      </trkpt>
      <trkpt lat="45.23374" lon="6.16924">
        <ele>1830.8</ele>
        <time>2022-06-18T05:58:21Z</time>
      </trkpt>
      <trkpt lat="45.23376" lon="6.16928">
        <ele>1831.1</ele>
        <time>2022-06-18T05:58:22Z</time>
      </trkpt>
      <trkpt lat="45.23377" lon="6.16931">
        <ele>1831.3</ele>
        <time>2022-06-18T05:58:23Z</time>
      </trkpt>
      <trkpt lat="45.2338" lon="6.16936">
        <ele>1831.7</ele>
        <time>2022-06-18T05:58:24Z</time>
      </trkpt>
      <trkpt lat="45.23381" lon="6.16937">
        <ele>1831.8</ele>
        <time>2022-06-18T05:58:25Z</time>
      </trkpt>
      <trkpt lat="45.23383" lon="6.16941">
        <ele>1832.1</ele>
        <time>2022-06-18T05:58:26Z</time>
      </trkpt>
      <trkpt lat="45.23385" lon="6.16944">
        <ele>1832.4</ele>
        <time>2022-06-18T05:58:27Z</time>
      </trkpt>
      <trkpt lat="45.23386" lon="6.16947">
        <ele>1832.6</ele>
        <time>2022-06-18T05:58:28Z</time>
      </trkpt>
      <trkpt lat="45.23389" lon="6.16951">
        <ele>1833</ele>
        <time>2022-06-18T05:58:30Z</time>
      </trkpt>
      <trkpt lat="45.2339" lon="6.16955">
        <ele>1833.2</ele>
        <time>2022-06-18T05:58:31Z</time>
      </trkpt>
      <trkpt lat="45.23392" lon="6.16958">
        <ele>1833.5</ele>
        <time>2022-06-18T05:58:32Z</time>
      </trkpt>
      <trkpt lat="45.23396" lon="6.16964">
        <ele>1833.9</ele>
        <time>2022-06-18T05:58:33Z</time>
      </trkpt>
      <trkpt lat="45.23399" lon="6.16969">
        <ele>1834.3</ele>
        <time>2022-06-18T05:58:35Z</time>
      </trkpt>
      <trkpt lat="45.23402" lon="6.16974">
        <ele>1834.6</ele>
        <time>2022-06-18T05:58:36Z</time>
      </trkpt>
      <trkpt lat="45.23404" lon="6.1698">
        <ele>1835</ele>
        <time>2022-06-18T05:58:37Z</time>
      </trkpt>
      <trkpt lat="45.23407" lon="6.16986">
        <ele>1835.4</ele>
        <time>2022-06-18T05:58:39Z</time>
      </trkpt>
      <trkpt lat="45.2341" lon="6.16991">
        <ele>1835.7</ele>
        <time>2022-06-18T05:58:40Z</time>
      </trkpt>
      <trkpt lat="45.23412" lon="6.16997">
        <ele>1836</ele>
        <time>2022-06-18T05:58:41Z</time>
      </trkpt>
      <trkpt lat="45.23414" lon="6.17002">
        <ele>1836.3</ele>
        <time>2022-06-18T05:58:43Z</time>
      </trkpt>
      <trkpt lat="45.23416" lon="6.17008">
        <ele>1836.6</ele>
        <time>2022-06-18T05:58:44Z</time>
      </trkpt>
      <trkpt lat="45.23418" lon="6.17015">
        <ele>1837</ele>
        <time>2022-06-18T05:58:45Z</time>
      </trkpt>
      <trkpt lat="45.23419" lon="6.17022">
        <ele>1837.4</ele>
        <time>2022-06-18T05:58:47Z</time>
      </trkpt>
      <trkpt lat="45.2342" lon="6.17028">
        <ele>1837.7</ele>
        <time>2022-06-18T05:58:48Z</time>
      </trkpt>
      <trkpt lat="45.23421" lon="6.17034">
        <ele>1838</ele>
        <time>2022-06-18T05:58:49Z</time>
      </trkpt>
      <trkpt lat="45.23422" lon="6.1704">
        <ele>1838.4</ele>
        <time>2022-06-18T05:58:51Z</time>
      </trkpt>
      <trkpt lat="45.23424" lon="6.17045">
        <ele>1838.7</ele>
        <time>2022-06-18T05:58:52Z</time>
      </trkpt>
      <trkpt lat="45.23425" lon="6.17051">
        <ele>1839</ele>
        <time>2022-06-18T05:58:53Z</time>
      </trkpt>
      <trkpt lat="45.23426" lon="6.17055">
        <ele>1839.3</ele>
        <time>2022-06-18T05:58:54Z</time>
      </trkpt>
      <trkpt lat="45.23427" lon="6.1706">
        <ele>1839.6</ele>
        <time>2022-06-18T05:58:55Z</time>
      </trkpt>
      <trkpt lat="45.23429" lon="6.17066">
        <ele>1840</ele>
        <time>2022-06-18T05:58:57Z</time>
      </trkpt>
      <trkpt lat="45.2343" lon="6.17073">
        <ele>1840.4</ele>
        <time>2022-06-18T05:58:58Z</time>
      </trkpt>
      <trkpt lat="45.23432" lon="6.17078">
        <ele>1840.7</ele>
        <time>2022-06-18T05:58:59Z</time>
      </trkpt>
      <trkpt lat="45.23435" lon="6.17085">
        <ele>1841.2</ele>
        <time>2022-06-18T05:59:01Z</time>
      </trkpt>
      <trkpt lat="45.23437" lon="6.1709">
        <ele>1841.5</ele>
        <time>2022-06-18T05:59:02Z</time>
      </trkpt>
      <trkpt lat="45.23438" lon="6.17095">
        <ele>1841.9</ele>
        <time>2022-06-18T05:59:03Z</time>
      </trkpt>
      <trkpt lat="45.2344" lon="6.17099">
        <ele>1842.2</ele>
        <time>2022-06-18T05:59:04Z</time>
      </trkpt>
      <trkpt lat="45.23441" lon="6.17105">
        <ele>1842.6</ele>
        <time>2022-06-18T05:59:05Z</time>
      </trkpt>
      <trkpt lat="45.23442" lon="6.1711">
        <ele>1842.9</ele>
        <time>2022-06-18T05:59:06Z</time>
      </trkpt>
      <trkpt lat="45.23445" lon="6.17115">
        <ele>1843.3</ele>
        <time>2022-06-18T05:59:08Z</time>
      </trkpt>
      <trkpt lat="45.23447" lon="6.17119">
        <ele>1843.6</ele>
        <time>2022-06-18T05:59:09Z</time>
      </trkpt>
      <trkpt lat="45.23449" lon="6.17124">
        <ele>1844</ele>
        <time>2022-06-18T05:59:10Z</time>
      </trkpt>
      <trkpt lat="45.23451" lon="6.17129">
        <ele>1844.4</ele>
        <time>2022-06-18T05:59:11Z</time>
      </trkpt>
      <trkpt lat="45.23452" lon="6.17134">
        <ele>1844.7</ele>
        <time>2022-06-18T05:59:12Z</time>
      </trkpt>
      <trkpt lat="45.23453" lon="6.17138">
        <ele>1845</ele>
        <time>2022-06-18T05:59:13Z</time>
      </trkpt>
      <trkpt lat="45.23455" lon="6.17142">
        <ele>1845.3</ele>
        <time>2022-06-18T05:59:14Z</time>
      </trkpt>
      <trkpt lat="45.23455" lon="6.17143">
        <ele>1845.4</ele>
        <time>2022-06-18T05:59:15Z</time>
      </trkpt>
      <trkpt lat="45.23458" lon="6.17147">
        <ele>1845.7</ele>
        <time>2022-06-18T05:59:16Z</time>
      </trkpt>
      <trkpt lat="45.23459" lon="6.17148">
        <ele>1845.8</ele>
        <time>2022-06-18T05:59:17Z</time>
      </trkpt>
      <trkpt lat="45.23461" lon="6.1715">
        <ele>1846.1</ele>
        <time>2022-06-18T05:59:18Z</time>
      </trkpt>
      <trkpt lat="45.23463" lon="6.17153">
        <ele>1846.3</ele>
        <time>2022-06-18T05:59:19Z</time>
      </trkpt>
      <trkpt lat="45.23466" lon="6.17159">
        <ele>1846.8</ele>
        <time>2022-06-18T05:59:21Z</time>
      </trkpt>
      <trkpt lat="45.23467" lon="6.17163">
        <ele>1847.1</ele>
        <time>2022-06-18T05:59:22Z</time>
      </trkpt>
      <trkpt lat="45.23468" lon="6.17167">
        <ele>1847.3</ele>
        <time>2022-06-18T05:59:23Z</time>
      </trkpt>
      <trkpt lat="45.2347" lon="6.1717">
        <ele>1847.6</ele>
        <time>2022-06-18T05:59:24Z</time>
      </trkpt>
      <trkpt lat="45.23472" lon="6.17175">
        <ele>1848</ele>
        <time>2022-06-18T05:59:25Z</time>
      </trkpt>
      <trkpt lat="45.23473" lon="6.17178">
        <ele>1848.2</ele>
        <time>2022-06-18T05:59:26Z</time>
      </trkpt>
      <trkpt lat="45.23476" lon="6.17184">
        <ele>1848.6</ele>
        <time>2022-06-18T05:59:28Z</time>
      </trkpt>
      <trkpt lat="45.23478" lon="6.17189">
        <ele>1849.1</ele>
        <time>2022-06-18T05:59:29Z</time>
      </trkpt>
      <trkpt lat="45.2348" lon="6.17192">
        <ele>1849.3</ele>
        <time>2022-06-18T05:59:30Z</time>
      </trkpt>
      <trkpt lat="45.23482" lon="6.17196">
        <ele>1849.7</ele>
        <time>2022-06-18T05:59:31Z</time>
      </trkpt>
      <trkpt lat="45.23484" lon="6.172">
        <ele>1850</ele>
        <time>2022-06-18T05:59:33Z</time>
      </trkpt>
      <trkpt lat="45.23487" lon="6.17205">
        <ele>1850.4</ele>
        <time>2022-06-18T05:59:34Z</time>
      </trkpt>
      <trkpt lat="45.23489" lon="6.17209">
        <ele>1850.8</ele>
        <time>2022-06-18T05:59:35Z</time>
      </trkpt>
      <trkpt lat="45.23492" lon="6.17211">
        <ele>1851</ele>
        <time>2022-06-18T05:59:36Z</time>
      </trkpt>
      <trkpt lat="45.23496" lon="6.17214">
        <ele>1851.5</ele>
        <time>2022-06-18T05:59:38Z</time>
      </trkpt>
      <trkpt lat="45.235" lon="6.17216">
        <ele>1851.9</ele>
        <time>2022-06-18T05:59:39Z</time>
      </trkpt>
      <trkpt lat="45.23505" lon="6.17219">
        <ele>1852.3</ele>
        <time>2022-06-18T05:59:41Z</time>
      </trkpt>
      <trkpt lat="45.23508" lon="6.17221">
        <ele>1852.5</ele>
        <time>2022-06-18T05:59:42Z</time>
      </trkpt>
      <trkpt lat="45.23513" lon="6.17224">
        <ele>1852.9</ele>
        <time>2022-06-18T05:59:43Z</time>
      </trkpt>
      <trkpt lat="45.23516" lon="6.17226">
        <ele>1853.1</ele>
        <time>2022-06-18T05:59:44Z</time>
      </trkpt>
      <trkpt lat="45.23521" lon="6.17229">
        <ele>1853.4</ele>
        <time>2022-06-18T05:59:46Z</time>
      </trkpt>
      <trkpt lat="45.23525" lon="6.17231">
        <ele>1853.7</ele>
        <time>2022-06-18T05:59:47Z</time>
      </trkpt>
      <trkpt lat="45.2353" lon="6.17234">
        <ele>1854</ele>
        <time>2022-06-18T05:59:48Z</time>
      </trkpt>
      <trkpt lat="45.23535" lon="6.17238">
        <ele>1854.3</ele>
        <time>2022-06-18T05:59:50Z</time>
      </trkpt>
      <trkpt lat="45.23539" lon="6.17241">
        <ele>1854.6</ele>
        <time>2022-06-18T05:59:51Z</time>
      </trkpt>
      <trkpt lat="45.23543" lon="6.17243">
        <ele>1854.9</ele>
        <time>2022-06-18T05:59:52Z</time>
      </trkpt>
      <trkpt lat="45.23545" lon="6.17245">
        <ele>1855</ele>
        <time>2022-06-18T05:59:53Z</time>
      </trkpt>
      <trkpt lat="45.2355" lon="6.17248">
        <ele>1855.4</ele>
        <time>2022-06-18T05:59:55Z</time>
      </trkpt>
      <trkpt lat="45.23554" lon="6.17251">
        <ele>1855.7</ele>
        <time>2022-06-18T05:59:56Z</time>
      </trkpt>
      <trkpt lat="45.23557" lon="6.17254">
        <ele>1855.9</ele>
        <time>2022-06-18T05:59:57Z</time>
      </trkpt>
      <trkpt lat="45.23561" lon="6.17258">
        <ele>1856.2</ele>
        <time>2022-06-18T05:59:58Z</time>
      </trkpt>
      <trkpt lat="45.23564" lon="6.17262">
        <ele>1856.5</ele>
        <time>2022-06-18T05:59:59Z</time>
      </trkpt>
      <trkpt lat="45.23566" lon="6.17265">
        <ele>1856.7</ele>
        <time>2022-06-18T06:00:00Z</time>
      </trkpt>
      <trkpt lat="45.23571" lon="6.17272">
        <ele>1857.2</ele>
        <time>2022-06-18T06:00:02Z</time>
      </trkpt>
      <trkpt lat="45.23573" lon="6.17277">
        <ele>1857.6</ele>
        <time>2022-06-18T06:00:03Z</time>
      </trkpt>
      <trkpt lat="45.23575" lon="6.17283">
        <ele>1857.9</ele>
        <time>2022-06-18T06:00:05Z</time>
      </trkpt>
      <trkpt lat="45.23578" lon="6.17287">
        <ele>1858.2</ele>
        <time>2022-06-18T06:00:06Z</time>
      </trkpt>
      <trkpt lat="45.2358" lon="6.17293">
        <ele>1858.6</ele>
        <time>2022-06-18T06:00:08Z</time>
      </trkpt>
      <trkpt lat="45.23582" lon="6.17298">
        <ele>1859</ele>
        <time>2022-06-18T06:00:09Z</time>
      </trkpt>
      <trkpt lat="45.23584" lon="6.17304">
        <ele>1859.3</ele>
        <time>2022-06-18T06:00:11Z</time>
      </trkpt>
      <trkpt lat="45.23587" lon="6.17309">
        <ele>1859.7</ele>
        <time>2022-06-18T06:00:12Z</time>
      </trkpt>
      <trkpt lat="45.23589" lon="6.17315">
        <ele>1860.1</ele>
        <time>2022-06-18T06:00:13Z</time>
      </trkpt>
      <trkpt lat="45.23591" lon="6.1732">
        <ele>1860.4</ele>
        <time>2022-06-18T06:00:15Z</time>
      </trkpt>
      <trkpt lat="45.23592" lon="6.17324">
        <ele>1860.7</ele>
        <time>2022-06-18T06:00:16Z</time>
      </trkpt>
      <trkpt lat="45.23593" lon="6.17329">
        <ele>1861</ele>
        <time>2022-06-18T06:00:17Z</time>
      </trkpt>
      <trkpt lat="45.23596" lon="6.17333">
        <ele>1861.4</ele>
        <time>2022-06-18T06:00:19Z</time>
      </trkpt>
      <trkpt lat="45.236" lon="6.17337">
        <ele>1861.9</ele>
        <time>2022-06-18T06:00:20Z</time>
      </trkpt>
      <trkpt lat="45.23604" lon="6.17341">
        <ele>1862.3</ele>
        <time>2022-06-18T06:00:21Z</time>
      </trkpt>
      <trkpt lat="45.23608" lon="6.17345">
        <ele>1862.8</ele>
        <time>2022-06-18T06:00:23Z</time>
      </trkpt>
      <trkpt lat="45.23612" lon="6.17347">
        <ele>1863.2</ele>
        <time>2022-06-18T06:00:24Z</time>
      </trkpt>
      <trkpt lat="45.23614" lon="6.17348">
        <ele>1863.4</ele>
        <time>2022-06-18T06:00:25Z</time>
      </trkpt>
      <trkpt lat="45.23618" lon="6.17351">
        <ele>1863.8</ele>
        <time>2022-06-18T06:00:27Z</time>
      </trkpt>
      <trkpt lat="45.23621" lon="6.17353">
        <ele>1864.2</ele>
        <time>2022-06-18T06:00:28Z</time>
      </trkpt>
      <trkpt lat="45.23624" lon="6.17355">
        <ele>1864.5</ele>
        <time>2022-06-18T06:00:29Z</time>
      </trkpt>
      <trkpt lat="45.23628" lon="6.17358">
        <ele>1864.9</ele>
        <time>2022-06-18T06:00:30Z</time>
      </trkpt>
      <trkpt lat="45.23632" lon="6.17361">
        <ele>1865.4</ele>
        <time>2022-06-18T06:00:32Z</time>
      </trkpt>
      <trkpt lat="45.23635" lon="6.17365">
        <ele>1865.7</ele>
        <time>2022-06-18T06:00:33Z</time>
      </trkpt>
      <trkpt lat="45.23638" lon="6.17369">
        <ele>1866.1</ele>
        <time>2022-06-18T06:00:34Z</time>
      </trkpt>
      <trkpt lat="45.2364" lon="6.17374">
        <ele>1866.5</ele>
        <time>2022-06-18T06:00:36Z</time>
      </trkpt>
      <trkpt lat="45.23642" lon="6.17379">
        <ele>1866.9</ele>
        <time>2022-06-18T06:00:37Z</time>
      </trkpt>
      <trkpt lat="45.23643" lon="6.17383">
        <ele>1867.2</ele>
        <time>2022-06-18T06:00:38Z</time>
      </trkpt>
      <trkpt lat="45.23644" lon="6.17388">
        <ele>1867.5</ele>
        <time>2022-06-18T06:00:39Z</time>
      </trkpt>
      <trkpt lat="45.23645" lon="6.17392">
        <ele>1867.9</ele>
        <time>2022-06-18T06:00:40Z</time>
      </trkpt>
      <trkpt lat="45.23646" lon="6.17396">
        <ele>1868.2</ele>
        <time>2022-06-18T06:00:41Z</time>
      </trkpt>
      <trkpt lat="45.23647" lon="6.17402">
        <ele>1868.6</ele>
        <time>2022-06-18T06:00:43Z</time>
      </trkpt>
      <trkpt lat="45.23648" lon="6.17406">
        <ele>1868.9</ele>
        <time>2022-06-18T06:00:44Z</time>
      </trkpt>
      <trkpt lat="45.23649" lon="6.1741">
        <ele>1869.2</ele>
        <time>2022-06-18T06:00:45Z</time>
      </trkpt>
      <trkpt lat="45.23651" lon="6.17415">
        <ele>1869.6</ele>
        <time>2022-06-18T06:00:46Z</time>
      </trkpt>
      <trkpt lat="45.23652" lon="6.17419">
        <ele>1869.9</ele>
        <time>2022-06-18T06:00:47Z</time>
      </trkpt>
      <trkpt lat="45.23653" lon="6.17423">
        <ele>1870.3</ele>
        <time>2022-06-18T06:00:48Z</time>
      </trkpt>
      <trkpt lat="45.23655" lon="6.17427">
        <ele>1870.6</ele>
        <time>2022-06-18T06:00:49Z</time>
      </trkpt>
      <trkpt lat="45.23657" lon="6.17431">
        <ele>1871</ele>
        <time>2022-06-18T06:00:50Z</time>
      </trkpt>
      <trkpt lat="45.23657" lon="6.17433">
        <ele>1871.1</ele>
        <time>2022-06-18T06:00:51Z</time>
      </trkpt>
      <trkpt lat="45.23659" lon="6.17436">
        <ele>1871.4</ele>
        <time>2022-06-18T06:00:52Z</time>
      </trkpt>
      <trkpt lat="45.23661" lon="6.17441">
        <ele>1871.8</ele>
        <time>2022-06-18T06:00:53Z</time>
      </trkpt>
      <trkpt lat="45.23661" lon="6.17443">
        <ele>1871.9</ele>
        <time>2022-06-18T06:00:54Z</time>
      </trkpt>
      <trkpt lat="45.23664" lon="6.17448">
        <ele>1872.4</ele>
        <time>2022-06-18T06:00:56Z</time>
      </trkpt>
      <trkpt lat="45.23667" lon="6.17452">
        <ele>1872.8</ele>
        <time>2022-06-18T06:00:57Z</time>
      </trkpt>
      <trkpt lat="45.23669" lon="6.17456">
        <ele>1873.1</ele>
        <time>2022-06-18T06:00:59Z</time>
      </trkpt>
      <trkpt lat="45.23673" lon="6.1746">
        <ele>1873.6</ele>
        <time>2022-06-18T06:01:00Z</time>
      </trkpt>
      <trkpt lat="45.23674" lon="6.17462">
        <ele>1873.8</ele>
        <time>2022-06-18T06:01:01Z</time>
      </trkpt>
      <trkpt lat="45.23677" lon="6.17465">
        <ele>1874.1</ele>
        <time>2022-06-18T06:01:02Z</time>
      </trkpt>
      <trkpt lat="45.2368" lon="6.17468">
        <ele>1874.5</ele>
        <time>2022-06-18T06:01:03Z</time>
      </trkpt>
      <trkpt lat="45.23681" lon="6.17469">
        <ele>1874.7</ele>
        <time>2022-06-18T06:01:04Z</time>
      </trkpt>
      <trkpt lat="45.23684" lon="6.17472">
        <ele>1875.1</ele>
        <time>2022-06-18T06:01:05Z</time>
      </trkpt>
      <trkpt lat="45.23685" lon="6.17472">
        <ele>1875.2</ele>
        <time>2022-06-18T06:01:06Z</time>
      </trkpt>
      <trkpt lat="45.23689" lon="6.17474">
        <ele>1875.6</ele>
        <time>2022-06-18T06:01:08Z</time>
      </trkpt>
      <trkpt lat="45.23692" lon="6.17476">
        <ele>1876.1</ele>
        <time>2022-06-18T06:01:09Z</time>
      </trkpt>
      <trkpt lat="45.23696" lon="6.17477">
        <ele>1876.5</ele>
        <time>2022-06-18T06:01:11Z</time>
      </trkpt>
      <trkpt lat="45.237" lon="6.17478">
        <ele>1877</ele>
        <time>2022-06-18T06:01:12Z</time>
      </trkpt>
      <trkpt lat="45.23702" lon="6.17479">
        <ele>1877.2</ele>
        <time>2022-06-18T06:01:13Z</time>
      </trkpt>
      <trkpt lat="45.23706" lon="6.17481">
        <ele>1877.7</ele>
        <time>2022-06-18T06:01:15Z</time>
      </trkpt>
      <trkpt lat="45.2371" lon="6.17482">
        <ele>1878.2</ele>
        <time>2022-06-18T06:01:16Z</time>
      </trkpt>
      <trkpt lat="45.23713" lon="6.17484">
        <ele>1878.6</ele>
        <time>2022-06-18T06:01:17Z</time>
      </trkpt>
      <trkpt lat="45.23716" lon="6.17487">
        <ele>1879</ele>
        <time>2022-06-18T06:01:19Z</time>
      </trkpt>
      <trkpt lat="45.2372" lon="6.17489">
        <ele>1879.5</ele>
        <time>2022-06-18T06:01:20Z</time>
      </trkpt>
      <trkpt lat="45.23722" lon="6.17491">
        <ele>1879.8</ele>
        <time>2022-06-18T06:01:21Z</time>
      </trkpt>
      <trkpt lat="45.23725" lon="6.17495">
        <ele>1880.3</ele>
        <time>2022-06-18T06:01:23Z</time>
      </trkpt>
      <trkpt lat="45.23728" lon="6.17499">
        <ele>1880.7</ele>
        <time>2022-06-18T06:01:24Z</time>
      </trkpt>
      <trkpt lat="45.2373" lon="6.17501">
        <ele>1881</ele>
        <time>2022-06-18T06:01:25Z</time>
      </trkpt>
      <trkpt lat="45.23732" lon="6.17503">
        <ele>1881.4</ele>
        <time>2022-06-18T06:01:27Z</time>
      </trkpt>
      <trkpt lat="45.23736" lon="6.17506">
        <ele>1881.9</ele>
        <time>2022-06-18T06:01:28Z</time>
      </trkpt>
      <trkpt lat="45.23739" lon="6.17509">
        <ele>1882.2</ele>
        <time>2022-06-18T06:01:29Z</time>
      </trkpt>
      <trkpt lat="45.23741" lon="6.1751">
        <ele>1882.5</ele>
        <time>2022-06-18T06:01:30Z</time>
      </trkpt>
      <trkpt lat="45.23744" lon="6.17512">
        <ele>1882.9</ele>
        <time>2022-06-18T06:01:32Z</time>
      </trkpt>
      <trkpt lat="45.23747" lon="6.17513">
        <ele>1883.2</ele>
        <time>2022-06-18T06:01:33Z</time>
      </trkpt>
      <trkpt lat="45.2375" lon="6.17515">
        <ele>1883.6</ele>
        <time>2022-06-18T06:01:34Z</time>
      </trkpt>
      <trkpt lat="45.23754" lon="6.17517">
        <ele>1884</ele>
        <time>2022-06-18T06:01:35Z</time>
      </trkpt>
      <trkpt lat="45.23755" lon="6.17517">
        <ele>1884.2</ele>
        <time>2022-06-18T06:01:36Z</time>
      </trkpt>
      <trkpt lat="45.23759" lon="6.17519">
        <ele>1884.6</ele>
        <time>2022-06-18T06:01:37Z</time>
      </trkpt>
      <trkpt lat="45.2376" lon="6.17519">
        <ele>1884.7</ele>
        <time>2022-06-18T06:01:38Z</time>
      </trkpt>
      <trkpt lat="45.23765" lon="6.17521">
        <ele>1885.2</ele>
        <time>2022-06-18T06:01:40Z</time>
      </trkpt>
      <trkpt lat="45.23769" lon="6.17522">
        <ele>1885.7</ele>
        <time>2022-06-18T06:01:41Z</time>
      </trkpt>
      <trkpt lat="45.23773" lon="6.17523">
        <ele>1886</ele>
        <time>2022-06-18T06:01:43Z</time>
      </trkpt>
      <trkpt lat="45.23777" lon="6.17525">
        <ele>1886.5</ele>
        <time>2022-06-18T06:01:44Z</time>
      </trkpt>
      <trkpt lat="45.23781" lon="6.17526">
        <ele>1886.8</ele>
        <time>2022-06-18T06:01:45Z</time>
      </trkpt>
      <trkpt lat="45.23784" lon="6.17528">
        <ele>1887.1</ele>
        <time>2022-06-18T06:01:46Z</time>
      </trkpt>
      <trkpt lat="45.23789" lon="6.17529">
        <ele>1887.5</ele>
        <time>2022-06-18T06:01:48Z</time>
      </trkpt>
      <trkpt lat="45.23792" lon="6.1753">
        <ele>1887.8</ele>
        <time>2022-06-18T06:01:49Z</time>
      </trkpt>
      <trkpt lat="45.23796" lon="6.17532">
        <ele>1888.1</ele>
        <time>2022-06-18T06:01:50Z</time>
      </trkpt>
      <trkpt lat="45.23799" lon="6.17533">
        <ele>1888.4</ele>
        <time>2022-06-18T06:01:51Z</time>
      </trkpt>
      <trkpt lat="45.23801" lon="6.17535">
        <ele>1888.6</ele>
        <time>2022-06-18T06:01:52Z</time>
      </trkpt>
      <trkpt lat="45.23805" lon="6.17538">
        <ele>1888.9</ele>
        <time>2022-06-18T06:01:54Z</time>
      </trkpt>
      <trkpt lat="45.23809" lon="6.17541">
        <ele>1889.3</ele>
        <time>2022-06-18T06:01:55Z</time>
      </trkpt>
      <trkpt lat="45.23812" lon="6.17543">
        <ele>1889.6</ele>
        <time>2022-06-18T06:01:56Z</time>
      </trkpt>
      <trkpt lat="45.23818" lon="6.17546">
        <ele>1890.2</ele>
        <time>2022-06-18T06:01:58Z</time>
      </trkpt>
      <trkpt lat="45.23822" lon="6.17549">
        <ele>1890.5</ele>
        <time>2022-06-18T06:01:59Z</time>
      </trkpt>
      <trkpt lat="45.23824" lon="6.17551">
        <ele>1890.8</ele>
        <time>2022-06-18T06:02:00Z</time>
      </trkpt>
      <trkpt lat="45.23827" lon="6.17554">
        <ele>1891</ele>
        <time>2022-06-18T06:02:01Z</time>
      </trkpt>
      <trkpt lat="45.23829" lon="6.17556">
        <ele>1891.3</ele>
        <time>2022-06-18T06:02:02Z</time>
      </trkpt>
      <trkpt lat="45.23831" lon="6.17558">
        <ele>1891.5</ele>
        <time>2022-06-18T06:02:03Z</time>
      </trkpt>
      <trkpt lat="45.23835" lon="6.17561">
        <ele>1891.9</ele>
        <time>2022-06-18T06:02:04Z</time>
      </trkpt>
      <trkpt lat="45.23836" lon="6.17563">
        <ele>1892</ele>
        <time>2022-06-18T06:02:05Z</time>
      </trkpt>
      <trkpt lat="45.23838" lon="6.17565">
        <ele>1892.3</ele>
        <time>2022-06-18T06:02:06Z</time>
      </trkpt>
      <trkpt lat="45.2384" lon="6.17568">
        <ele>1892.6</ele>
        <time>2022-06-18T06:02:07Z</time>
      </trkpt>
      <trkpt lat="45.23843" lon="6.17572">
        <ele>1893</ele>
        <time>2022-06-18T06:02:09Z</time>
      </trkpt>
      <trkpt lat="45.23845" lon="6.17576">
        <ele>1893.2</ele>
        <time>2022-06-18T06:02:10Z</time>
      </trkpt>
      <trkpt lat="45.23846" lon="6.1758">
        <ele>1893.6</ele>
        <time>2022-06-18T06:02:11Z</time>
      </trkpt>
      <trkpt lat="45.23847" lon="6.17584">
        <ele>1893.8</ele>
        <time>2022-06-18T06:02:12Z</time>
      </trkpt>
      <trkpt lat="45.23847" lon="6.17591">
        <ele>1894.3</ele>
        <time>2022-06-18T06:02:13Z</time>
      </trkpt>
      <trkpt lat="45.23847" lon="6.17595">
        <ele>1894.6</ele>
        <time>2022-06-18T06:02:14Z</time>
      </trkpt>
      <trkpt lat="45.23847" lon="6.17599">
        <ele>1894.9</ele>
        <time>2022-06-18T06:02:15Z</time>
      </trkpt>
      <trkpt lat="45.23846" lon="6.17603">
        <ele>1895.2</ele>
        <time>2022-06-18T06:02:16Z</time>
      </trkpt>
      <trkpt lat="45.23846" lon="6.17608">
        <ele>1895.5</ele>
        <time>2022-06-18T06:02:17Z</time>
      </trkpt>
      <trkpt lat="45.23846" lon="6.17613">
        <ele>1895.8</ele>
        <time>2022-06-18T06:02:18Z</time>
      </trkpt>
      <trkpt lat="45.23846" lon="6.17618">
        <ele>1896.2</ele>
        <time>2022-06-18T06:02:19Z</time>
      </trkpt>
      <trkpt lat="45.23845" lon="6.17622">
        <ele>1896.4</ele>
        <time>2022-06-18T06:02:20Z</time>
      </trkpt>
      <trkpt lat="45.23846" lon="6.17626">
        <ele>1896.8</ele>
        <time>2022-06-18T06:02:21Z</time>
      </trkpt>
      <trkpt lat="45.23848" lon="6.17633">
        <ele>1897.3</ele>
        <time>2022-06-18T06:02:23Z</time>
      </trkpt>
      <trkpt lat="45.23849" lon="6.17638">
        <ele>1897.6</ele>
        <time>2022-06-18T06:02:24Z</time>
      </trkpt>
      <trkpt lat="45.23851" lon="6.17642">
        <ele>1897.9</ele>
        <time>2022-06-18T06:02:25Z</time>
      </trkpt>
      <trkpt lat="45.23852" lon="6.17648">
        <ele>1898.3</ele>
        <time>2022-06-18T06:02:26Z</time>
      </trkpt>
      <trkpt lat="45.23853" lon="6.1765">
        <ele>1898.5</ele>
        <time>2022-06-18T06:02:27Z</time>
      </trkpt>
      <trkpt lat="45.23854" lon="6.17655">
        <ele>1898.8</ele>
        <time>2022-06-18T06:02:28Z</time>
      </trkpt>
      <trkpt lat="45.23857" lon="6.17662">
        <ele>1899.4</ele>
        <time>2022-06-18T06:02:30Z</time>
      </trkpt>
      <trkpt lat="45.23857" lon="6.17666">
        <ele>1899.6</ele>
        <time>2022-06-18T06:02:31Z</time>
      </trkpt>
      <trkpt lat="45.23858" lon="6.1767">
        <ele>1899.9</ele>
        <time>2022-06-18T06:02:32Z</time>
      </trkpt>
      <trkpt lat="45.23859" lon="6.17674">
        <ele>1900.1</ele>
        <time>2022-06-18T06:02:33Z</time>
      </trkpt>
      <trkpt lat="45.2386" lon="6.17678">
        <ele>1900.4</ele>
        <time>2022-06-18T06:02:34Z</time>
      </trkpt>
      <trkpt lat="45.23861" lon="6.17683">
        <ele>1900.7</ele>
        <time>2022-06-18T06:02:35Z</time>
      </trkpt>
      <trkpt lat="45.23863" lon="6.17687">
        <ele>1900.9</ele>
        <time>2022-06-18T06:02:36Z</time>
      </trkpt>
      <trkpt lat="45.23864" lon="6.17691">
        <ele>1901.2</ele>
        <time>2022-06-18T06:02:37Z</time>
      </trkpt>
      <trkpt lat="45.23865" lon="6.17695">
        <ele>1901.5</ele>
        <time>2022-06-18T06:02:38Z</time>
      </trkpt>
      <trkpt lat="45.23867" lon="6.177">
        <ele>1901.8</ele>
        <time>2022-06-18T06:02:39Z</time>
      </trkpt>
      <trkpt lat="45.23868" lon="6.17706">
        <ele>1902.1</ele>
        <time>2022-06-18T06:02:41Z</time>
      </trkpt>
      <trkpt lat="45.23869" lon="6.17713">
        <ele>1902.5</ele>
        <time>2022-06-18T06:02:42Z</time>
      </trkpt>
      <trkpt lat="45.23871" lon="6.17719">
        <ele>1902.9</ele>
        <time>2022-06-18T06:02:43Z</time>
      </trkpt>
      <trkpt lat="45.23872" lon="6.17725">
        <ele>1903.2</ele>
        <time>2022-06-18T06:02:45Z</time>
      </trkpt>
      <trkpt lat="45.23872" lon="6.17731">
        <ele>1903.5</ele>
        <time>2022-06-18T06:02:46Z</time>
      </trkpt>
      <trkpt lat="45.23871" lon="6.17736">
        <ele>1903.8</ele>
        <time>2022-06-18T06:02:47Z</time>
      </trkpt>
      <trkpt lat="45.2387" lon="6.17741">
        <ele>1904.1</ele>
        <time>2022-06-18T06:02:48Z</time>
      </trkpt>
      <trkpt lat="45.23868" lon="6.17746">
        <ele>1904.4</ele>
        <time>2022-06-18T06:02:49Z</time>
      </trkpt>
      <trkpt lat="45.23867" lon="6.1775">
        <ele>1904.7</ele>
        <time>2022-06-18T06:02:51Z</time>
      </trkpt>
      <trkpt lat="45.23866" lon="6.17756">
        <ele>1905.1</ele>
        <time>2022-06-18T06:02:52Z</time>
      </trkpt>
      <trkpt lat="45.23866" lon="6.17762">
        <ele>1905.4</ele>
        <time>2022-06-18T06:02:54Z</time>
      </trkpt>
      <trkpt lat="45.23866" lon="6.17767">
        <ele>1905.7</ele>
        <time>2022-06-18T06:02:55Z</time>
      </trkpt>
      <trkpt lat="45.23868" lon="6.17773">
        <ele>1906.1</ele>
        <time>2022-06-18T06:02:56Z</time>
      </trkpt>
      <trkpt lat="45.2387" lon="6.17781">
        <ele>1906.5</ele>
        <time>2022-06-18T06:02:58Z</time>
      </trkpt>
      <trkpt lat="45.23871" lon="6.17786">
        <ele>1906.8</ele>
        <time>2022-06-18T06:02:59Z</time>
      </trkpt>
      <trkpt lat="45.23873" lon="6.17792">
        <ele>1907.1</ele>
        <time>2022-06-18T06:03:00Z</time>
      </trkpt>
      <trkpt lat="45.23875" lon="6.17799">
        <ele>1907.4</ele>
        <time>2022-06-18T06:03:01Z</time>
      </trkpt>
      <trkpt lat="45.23876" lon="6.17805">
        <ele>1907.5</ele>
        <time>2022-06-18T06:03:03Z</time>
      </trkpt>
      <trkpt lat="45.23878" lon="6.17812">
        <ele>1907.7</ele>
        <time>2022-06-18T06:03:04Z</time>
      </trkpt>
      <trkpt lat="45.23878" lon="6.17818">
        <ele>1907.8</ele>
        <time>2022-06-18T06:03:05Z</time>
      </trkpt>
      <trkpt lat="45.23879" lon="6.17825">
        <ele>1908</ele>
        <time>2022-06-18T06:03:06Z</time>
      </trkpt>
      <trkpt lat="45.2388" lon="6.17831">
        <ele>1908.1</ele>
        <time>2022-06-18T06:03:07Z</time>
      </trkpt>
      <trkpt lat="45.23881" lon="6.17837">
        <ele>1908.3</ele>
        <time>2022-06-18T06:03:08Z</time>
      </trkpt>
      <trkpt lat="45.23881" lon="6.17843">
        <ele>1908.5</ele>
        <time>2022-06-18T06:03:09Z</time>
      </trkpt>
      <trkpt lat="45.23882" lon="6.17848">
        <ele>1908.6</ele>
        <time>2022-06-18T06:03:10Z</time>
      </trkpt>
      <trkpt lat="45.23883" lon="6.17857">
        <ele>1908.9</ele>
        <time>2022-06-18T06:03:12Z</time>
      </trkpt>
      <trkpt lat="45.23884" lon="6.17862">
        <ele>1909.1</ele>
        <time>2022-06-18T06:03:13Z</time>
      </trkpt>
      <trkpt lat="45.23885" lon="6.17867">
        <ele>1909.3</ele>
        <time>2022-06-18T06:03:14Z</time>
      </trkpt>
      <trkpt lat="45.23887" lon="6.17874">
        <ele>1909.5</ele>
        <time>2022-06-18T06:03:15Z</time>
      </trkpt>
      <trkpt lat="45.23889" lon="6.17881">
        <ele>1909.8</ele>
        <time>2022-06-18T06:03:17Z</time>
      </trkpt>
      <trkpt lat="45.23891" lon="6.17887">
        <ele>1910.1</ele>
        <time>2022-06-18T06:03:18Z</time>
      </trkpt>
      <trkpt lat="45.23893" lon="6.17898">
        <ele>1910.5</ele>
        <time>2022-06-18T06:03:20Z</time>
      </trkpt>
      <trkpt lat="45.23894" lon="6.17904">
        <ele>1910.7</ele>
        <time>2022-06-18T06:03:21Z</time>
      </trkpt>
      <trkpt lat="45.23895" lon="6.17909">
        <ele>1911</ele>
        <time>2022-06-18T06:03:22Z</time>
      </trkpt>
      <trkpt lat="45.23896" lon="6.17917">
        <ele>1911.2</ele>
        <time>2022-06-18T06:03:24Z</time>
      </trkpt>
      <trkpt lat="45.23897" lon="6.17924">
        <ele>1911.5</ele>
        <time>2022-06-18T06:03:25Z</time>
      </trkpt>
      <trkpt lat="45.23897" lon="6.1793">
        <ele>1911.7</ele>
        <time>2022-06-18T06:03:26Z</time>
      </trkpt>
      <trkpt lat="45.23898" lon="6.17936">
        <ele>1912</ele>
        <time>2022-06-18T06:03:28Z</time>
      </trkpt>
      <trkpt lat="45.23898" lon="6.17941">
        <ele>1912.1</ele>
        <time>2022-06-18T06:03:29Z</time>
      </trkpt>
      <trkpt lat="45.23898" lon="6.17948">
        <ele>1912.4</ele>
        <time>2022-06-18T06:03:30Z</time>
      </trkpt>
      <trkpt lat="45.23897" lon="6.17954">
        <ele>1912.7</ele>
        <time>2022-06-18T06:03:31Z</time>
      </trkpt>
      <trkpt lat="45.23898" lon="6.17963">
        <ele>1913</ele>
        <time>2022-06-18T06:03:33Z</time>
      </trkpt>
      <trkpt lat="45.23898" lon="6.1797">
        <ele>1913.3</ele>
        <time>2022-06-18T06:03:34Z</time>
      </trkpt>
      <trkpt lat="45.23898" lon="6.17975">
        <ele>1913.4</ele>
        <time>2022-06-18T06:03:35Z</time>
      </trkpt>
      <trkpt lat="45.23899" lon="6.17981">
        <ele>1913.7</ele>
        <time>2022-06-18T06:03:36Z</time>
      </trkpt>
      <trkpt lat="45.23899" lon="6.17986">
        <ele>1913.9</ele>
        <time>2022-06-18T06:03:37Z</time>
      </trkpt>
      <trkpt lat="45.23899" lon="6.17992">
        <ele>1914.1</ele>
        <time>2022-06-18T06:03:38Z</time>
      </trkpt>
      <trkpt lat="45.23899" lon="6.18">
        <ele>1914.4</ele>
        <time>2022-06-18T06:03:40Z</time>
      </trkpt>
      <trkpt lat="45.23899" lon="6.18007">
        <ele>1914.7</ele>
        <time>2022-06-18T06:03:41Z</time>
      </trkpt>
      <trkpt lat="45.23899" lon="6.18013">
        <ele>1914.9</ele>
        <time>2022-06-18T06:03:42Z</time>
      </trkpt>
      <trkpt lat="45.239" lon="6.18019">
        <ele>1915.1</ele>
        <time>2022-06-18T06:03:43Z</time>
      </trkpt>
      <trkpt lat="45.239" lon="6.18023">
        <ele>1915.3</ele>
        <time>2022-06-18T06:03:44Z</time>
      </trkpt>
      <trkpt lat="45.23901" lon="6.18028">
        <ele>1915.5</ele>
        <time>2022-06-18T06:03:45Z</time>
      </trkpt>
      <trkpt lat="45.23902" lon="6.18034">
        <ele>1915.7</ele>
        <time>2022-06-18T06:03:46Z</time>
      </trkpt>
      <trkpt lat="45.23903" lon="6.18041">
        <ele>1916</ele>
        <time>2022-06-18T06:03:47Z</time>
      </trkpt>
      <trkpt lat="45.23905" lon="6.18048">
        <ele>1916.2</ele>
        <time>2022-06-18T06:03:49Z</time>
      </trkpt>
      <trkpt lat="45.23905" lon="6.18054">
        <ele>1916.4</ele>
        <time>2022-06-18T06:03:50Z</time>
      </trkpt>
      <trkpt lat="45.23906" lon="6.18061">
        <ele>1916.7</ele>
        <time>2022-06-18T06:03:51Z</time>
      </trkpt>
      <trkpt lat="45.23907" lon="6.1807">
        <ele>1917</ele>
        <time>2022-06-18T06:03:52Z</time>
      </trkpt>
      <trkpt lat="45.23908" lon="6.18078">
        <ele>1917.3</ele>
        <time>2022-06-18T06:03:54Z</time>
      </trkpt>
      <trkpt lat="45.23908" lon="6.18088">
        <ele>1917.6</ele>
        <time>2022-06-18T06:03:55Z</time>
      </trkpt>
      <trkpt lat="45.23909" lon="6.18094">
        <ele>1917.9</ele>
        <time>2022-06-18T06:03:56Z</time>
      </trkpt>
      <trkpt lat="45.23909" lon="6.18101">
        <ele>1918.2</ele>
        <time>2022-06-18T06:03:58Z</time>
      </trkpt>
      <trkpt lat="45.23909" lon="6.18106">
        <ele>1918.3</ele>
        <time>2022-06-18T06:03:59Z</time>
      </trkpt>
      <trkpt lat="45.23908" lon="6.18114">
        <ele>1918.6</ele>
        <time>2022-06-18T06:04:00Z</time>
      </trkpt>
      <trkpt lat="45.23908" lon="6.18119">
        <ele>1918.8</ele>
        <time>2022-06-18T06:04:01Z</time>
      </trkpt>
      <trkpt lat="45.23908" lon="6.18124">
        <ele>1919</ele>
        <time>2022-06-18T06:04:02Z</time>
      </trkpt>
      <trkpt lat="45.23908" lon="6.1813">
        <ele>1919.2</ele>
        <time>2022-06-18T06:04:03Z</time>
      </trkpt>
      <trkpt lat="45.23908" lon="6.18136">
        <ele>1919.4</ele>
        <time>2022-06-18T06:04:05Z</time>
      </trkpt>
      <trkpt lat="45.23908" lon="6.18144">
        <ele>1919.7</ele>
        <time>2022-06-18T06:04:06Z</time>
      </trkpt>
      <trkpt lat="45.23909" lon="6.1815">
        <ele>1920</ele>
        <time>2022-06-18T06:04:07Z</time>
      </trkpt>
      <trkpt lat="45.23909" lon="6.18156">
        <ele>1920.2</ele>
        <time>2022-06-18T06:04:08Z</time>
      </trkpt>
      <trkpt lat="45.23908" lon="6.18162">
        <ele>1920.4</ele>
        <time>2022-06-18T06:04:09Z</time>
      </trkpt>
      <trkpt lat="45.23906" lon="6.1817">
        <ele>1920.7</ele>
        <time>2022-06-18T06:04:11Z</time>
      </trkpt>
      <trkpt lat="45.23905" lon="6.18176">
        <ele>1920.9</ele>
        <time>2022-06-18T06:04:12Z</time>
      </trkpt>
      <trkpt lat="45.23903" lon="6.1818">
        <ele>1921.1</ele>
        <time>2022-06-18T06:04:13Z</time>
      </trkpt>
      <trkpt lat="45.23902" lon="6.18184">
        <ele>1921.3</ele>
        <time>2022-06-18T06:04:14Z</time>
      </trkpt>
      <trkpt lat="45.239" lon="6.18189">
        <ele>1921.5</ele>
        <time>2022-06-18T06:04:15Z</time>
      </trkpt>
      <trkpt lat="45.23898" lon="6.18195">
        <ele>1921.7</ele>
        <time>2022-06-18T06:04:16Z</time>
      </trkpt>
      <trkpt lat="45.23897" lon="6.182">
        <ele>1921.9</ele>
        <time>2022-06-18T06:04:17Z</time>
      </trkpt>
      <trkpt lat="45.23895" lon="6.18207">
        <ele>1922.2</ele>
        <time>2022-06-18T06:04:19Z</time>
      </trkpt>
      <trkpt lat="45.23894" lon="6.18213">
        <ele>1922.4</ele>
        <time>2022-06-18T06:04:20Z</time>
      </trkpt>
      <trkpt lat="45.23894" lon="6.18218">
        <ele>1922.6</ele>
        <time>2022-06-18T06:04:21Z</time>
      </trkpt>
      <trkpt lat="45.23893" lon="6.18224">
        <ele>1922.9</ele>
        <time>2022-06-18T06:04:22Z</time>
      </trkpt>
      <trkpt lat="45.23892" lon="6.18229">
        <ele>1923.1</ele>
        <time>2022-06-18T06:04:23Z</time>
      </trkpt>
      <trkpt lat="45.23892" lon="6.18235">
        <ele>1923.2</ele>
        <time>2022-06-18T06:04:24Z</time>
      </trkpt>
      <trkpt lat="45.23891" lon="6.1824">
        <ele>1923.5</ele>
        <time>2022-06-18T06:04:25Z</time>
      </trkpt>
      <trkpt lat="45.23891" lon="6.18248">
        <ele>1923.8</ele>
        <time>2022-06-18T06:04:27Z</time>
      </trkpt>
      <trkpt lat="45.23891" lon="6.18254">
        <ele>1924</ele>
        <time>2022-06-18T06:04:29Z</time>
      </trkpt>
      <trkpt lat="45.23891" lon="6.18261">
        <ele>1924.3</ele>
        <time>2022-06-18T06:04:30Z</time>
      </trkpt>
      <trkpt lat="45.2389" lon="6.18267">
        <ele>1924.5</ele>
        <time>2022-06-18T06:04:31Z</time>
      </trkpt>
      <trkpt lat="45.2389" lon="6.18276">
        <ele>1924.9</ele>
        <time>2022-06-18T06:04:33Z</time>
      </trkpt>
      <trkpt lat="45.2389" lon="6.18282">
        <ele>1925.1</ele>
        <time>2022-06-18T06:04:34Z</time>
      </trkpt>
      <trkpt lat="45.23891" lon="6.18288">
        <ele>1925.4</ele>
        <time>2022-06-18T06:04:35Z</time>
      </trkpt>
      <trkpt lat="45.23891" lon="6.18293">
        <ele>1925.6</ele>
        <time>2022-06-18T06:04:36Z</time>
      </trkpt>
      <trkpt lat="45.23892" lon="6.183">
        <ele>1925.9</ele>
        <time>2022-06-18T06:04:38Z</time>
      </trkpt>
      <trkpt lat="45.23892" lon="6.18307">
        <ele>1926.2</ele>
        <time>2022-06-18T06:04:39Z</time>
      </trkpt>
      <trkpt lat="45.23893" lon="6.18314">
        <ele>1926.5</ele>
        <time>2022-06-18T06:04:40Z</time>
      </trkpt>
      <trkpt lat="45.23894" lon="6.18319">
        <ele>1926.7</ele>
        <time>2022-06-18T06:04:41Z</time>
      </trkpt>
      <trkpt lat="45.23895" lon="6.18327">
        <ele>1927</ele>
        <time>2022-06-18T06:04:43Z</time>
      </trkpt>
      <trkpt lat="45.23894" lon="6.18335">
        <ele>1927.3</ele>
        <time>2022-06-18T06:04:44Z</time>
      </trkpt>
      <trkpt lat="45.23894" lon="6.1834">
        <ele>1927.5</ele>
        <time>2022-06-18T06:04:46Z</time>
      </trkpt>
      <trkpt lat="45.23894" lon="6.18346">
        <ele>1927.7</ele>
        <time>2022-06-18T06:04:47Z</time>
      </trkpt>
      <trkpt lat="45.23894" lon="6.18352">
        <ele>1928</ele>
        <time>2022-06-18T06:04:48Z</time>
      </trkpt>
      <trkpt lat="45.23894" lon="6.18359">
        <ele>1928.2</ele>
        <time>2022-06-18T06:04:49Z</time>
      </trkpt>
      <trkpt lat="45.23894" lon="6.18364">
        <ele>1928.4</ele>
        <time>2022-06-18T06:04:50Z</time>
      </trkpt>
      <trkpt lat="45.23893" lon="6.18369">
        <ele>1928.6</ele>
        <time>2022-06-18T06:04:51Z</time>
      </trkpt>
      <trkpt lat="45.23893" lon="6.18374">
        <ele>1928.8</ele>
        <time>2022-06-18T06:04:52Z</time>
      </trkpt>
      <trkpt lat="45.23892" lon="6.18381">
        <ele>1929.1</ele>
        <time>2022-06-18T06:04:54Z</time>
      </trkpt>
      <trkpt lat="45.23891" lon="6.18387">
        <ele>1929.4</ele>
        <time>2022-06-18T06:04:55Z</time>
      </trkpt>
      <trkpt lat="45.2389" lon="6.18393">
        <ele>1929.6</ele>
        <time>2022-06-18T06:04:56Z</time>
      </trkpt>
      <trkpt lat="45.23889" lon="6.18399">
        <ele>1929.9</ele>
        <time>2022-06-18T06:04:57Z</time>
      </trkpt>
      <trkpt lat="45.23888" lon="6.18409">
        <ele>1930.3</ele>
        <time>2022-06-18T06:04:59Z</time>
      </trkpt>
      <trkpt lat="45.23887" lon="6.18417">
        <ele>1930.6</ele>
        <time>2022-06-18T06:05:01Z</time>
      </trkpt>
      <trkpt lat="45.23885" lon="6.18424">
        <ele>1931</ele>
        <time>2022-06-18T06:05:02Z</time>
      </trkpt>
      <trkpt lat="45.23885" lon="6.18429">
        <ele>1931.2</ele>
        <time>2022-06-18T06:05:03Z</time>
      </trkpt>
      <trkpt lat="45.23885" lon="6.18438">
        <ele>1931.5</ele>
        <time>2022-06-18T06:05:05Z</time>
      </trkpt>
      <trkpt lat="45.23886" lon="6.18445">
        <ele>1931.8</ele>
        <time>2022-06-18T06:05:06Z</time>
      </trkpt>
      <trkpt lat="45.23888" lon="6.18449">
        <ele>1932</ele>
        <time>2022-06-18T06:05:07Z</time>
      </trkpt>
      <trkpt lat="45.23889" lon="6.18454">
        <ele>1932.2</ele>
        <time>2022-06-18T06:05:08Z</time>
      </trkpt>
      <trkpt lat="45.23891" lon="6.18459">
        <ele>1932.4</ele>
        <time>2022-06-18T06:05:09Z</time>
      </trkpt>
      <trkpt lat="45.23894" lon="6.18464">
        <ele>1932.6</ele>
        <time>2022-06-18T06:05:10Z</time>
      </trkpt>
      <trkpt lat="45.23896" lon="6.18469">
        <ele>1932.8</ele>
        <time>2022-06-18T06:05:11Z</time>
      </trkpt>
      <trkpt lat="45.239" lon="6.18474">
        <ele>1933</ele>
        <time>2022-06-18T06:05:13Z</time>
      </trkpt>
      <trkpt lat="45.23903" lon="6.18479">
        <ele>1933.2</ele>
        <time>2022-06-18T06:05:14Z</time>
      </trkpt>
      <trkpt lat="45.23908" lon="6.18484">
        <ele>1933.5</ele>
        <time>2022-06-18T06:05:16Z</time>
      </trkpt>
      <trkpt lat="45.23911" lon="6.1849">
        <ele>1933.7</ele>
        <time>2022-06-18T06:05:17Z</time>
      </trkpt>
      <trkpt lat="45.23914" lon="6.18495">
        <ele>1933.9</ele>
        <time>2022-06-18T06:05:18Z</time>
      </trkpt>
      <trkpt lat="45.23917" lon="6.185">
        <ele>1934.1</ele>
        <time>2022-06-18T06:05:19Z</time>
      </trkpt>
      <trkpt lat="45.23919" lon="6.18505">
        <ele>1934.3</ele>
        <time>2022-06-18T06:05:20Z</time>
      </trkpt>
      <trkpt lat="45.23921" lon="6.18509">
        <ele>1934.5</ele>
        <time>2022-06-18T06:05:21Z</time>
      </trkpt>
      <trkpt lat="45.23922" lon="6.18513">
        <ele>1934.7</ele>
        <time>2022-06-18T06:05:22Z</time>
      </trkpt>
      <trkpt lat="45.23923" lon="6.18517">
        <ele>1934.9</ele>
        <time>2022-06-18T06:05:23Z</time>
      </trkpt>
      <trkpt lat="45.23924" lon="6.18523">
        <ele>1935.1</ele>
        <time>2022-06-18T06:05:24Z</time>
      </trkpt>
      <trkpt lat="45.23923" lon="6.18533">
        <ele>1935.5</ele>
        <time>2022-06-18T06:05:26Z</time>
      </trkpt>
      <trkpt lat="45.23922" lon="6.1854">
        <ele>1935.8</ele>
        <time>2022-06-18T06:05:27Z</time>
      </trkpt>
      <trkpt lat="45.23921" lon="6.18546">
        <ele>1936.1</ele>
        <time>2022-06-18T06:05:29Z</time>
      </trkpt>
      <trkpt lat="45.23918" lon="6.18553">
        <ele>1936.5</ele>
        <time>2022-06-18T06:05:30Z</time>
      </trkpt>
      <trkpt lat="45.23916" lon="6.18558">
        <ele>1936.9</ele>
        <time>2022-06-18T06:05:31Z</time>
      </trkpt>
      <trkpt lat="45.23913" lon="6.18561">
        <ele>1937.3</ele>
        <time>2022-06-18T06:05:32Z</time>
      </trkpt>
      <trkpt lat="45.2391" lon="6.18564">
        <ele>1937.6</ele>
        <time>2022-06-18T06:05:33Z</time>
      </trkpt>
      <trkpt lat="45.23906" lon="6.18567">
        <ele>1938</ele>
        <time>2022-06-18T06:05:34Z</time>
      </trkpt>
      <trkpt lat="45.23902" lon="6.18568">
        <ele>1938.4</ele>
        <time>2022-06-18T06:05:35Z</time>
      </trkpt>
      <trkpt lat="45.23901" lon="6.18568">
        <ele>1938.5</ele>
        <time>2022-06-18T06:05:36Z</time>
      </trkpt>
      <trkpt lat="45.23898" lon="6.18568">
        <ele>1938.8</ele>
        <time>2022-06-18T06:05:37Z</time>
      </trkpt>
      <trkpt lat="45.23897" lon="6.18568">
        <ele>1938.9</ele>
        <time>2022-06-18T06:05:38Z</time>
      </trkpt>
      <trkpt lat="45.23894" lon="6.18568">
        <ele>1939.2</ele>
        <time>2022-06-18T06:05:40Z</time>
      </trkpt>
      <trkpt lat="45.2389" lon="6.18569">
        <ele>1939.5</ele>
        <time>2022-06-18T06:05:41Z</time>
      </trkpt>
      <trkpt lat="45.23886" lon="6.18569">
        <ele>1939.8</ele>
        <time>2022-06-18T06:05:42Z</time>
      </trkpt>
      <trkpt lat="45.23881" lon="6.18572">
        <ele>1940.3</ele>
        <time>2022-06-18T06:05:44Z</time>
      </trkpt>
      <trkpt lat="45.23877" lon="6.18574">
        <ele>1940.6</ele>
        <time>2022-06-18T06:05:45Z</time>
      </trkpt>
      <trkpt lat="45.23874" lon="6.18577">
        <ele>1940.9</ele>
        <time>2022-06-18T06:05:46Z</time>
      </trkpt>
      <trkpt lat="45.2387" lon="6.18581">
        <ele>1941.3</ele>
        <time>2022-06-18T06:05:48Z</time>
      </trkpt>
      <trkpt lat="45.23866" lon="6.18582">
        <ele>1941.5</ele>
        <time>2022-06-18T06:05:49Z</time>
      </trkpt>
      <trkpt lat="45.23863" lon="6.18587">
        <ele>1941.8</ele>
        <time>2022-06-18T06:05:50Z</time>
      </trkpt>
      <trkpt lat="45.2386" lon="6.1859">
        <ele>1942</ele>
        <time>2022-06-18T06:05:51Z</time>
      </trkpt>
      <trkpt lat="45.23855" lon="6.18596">
        <ele>1942.5</ele>
        <time>2022-06-18T06:05:53Z</time>
      </trkpt>
      <trkpt lat="45.23852" lon="6.18604">
        <ele>1942.8</ele>
        <time>2022-06-18T06:05:55Z</time>
      </trkpt>
      <trkpt lat="45.23851" lon="6.18609">
        <ele>1943</ele>
        <time>2022-06-18T06:05:56Z</time>
      </trkpt>
      <trkpt lat="45.23849" lon="6.18614">
        <ele>1943.3</ele>
        <time>2022-06-18T06:05:57Z</time>
      </trkpt>
      <trkpt lat="45.23847" lon="6.18617">
        <ele>1943.4</ele>
        <time>2022-06-18T06:05:58Z</time>
      </trkpt>
      <trkpt lat="45.23845" lon="6.18623">
        <ele>1943.7</ele>
        <time>2022-06-18T06:06:00Z</time>
      </trkpt>
      <trkpt lat="45.23842" lon="6.18628">
        <ele>1944</ele>
        <time>2022-06-18T06:06:01Z</time>
      </trkpt>
      <trkpt lat="45.2384" lon="6.18631">
        <ele>1944.1</ele>
        <time>2022-06-18T06:06:02Z</time>
      </trkpt>
      <trkpt lat="45.23836" lon="6.18635">
        <ele>1944.4</ele>
        <time>2022-06-18T06:06:04Z</time>
      </trkpt>
      <trkpt lat="45.23834" lon="6.18641">
        <ele>1944.6</ele>
        <time>2022-06-18T06:06:05Z</time>
      </trkpt>
      <trkpt lat="45.23832" lon="6.18645">
        <ele>1944.8</ele>
        <time>2022-06-18T06:06:06Z</time>
      </trkpt>
      <trkpt lat="45.2383" lon="6.18649">
        <ele>1945</ele>
        <time>2022-06-18T06:06:07Z</time>
      </trkpt>
      <trkpt lat="45.23828" lon="6.18653">
        <ele>1945.2</ele>
        <time>2022-06-18T06:06:08Z</time>
      </trkpt>
      <trkpt lat="45.23826" lon="6.18656">
        <ele>1945.4</ele>
        <time>2022-06-18T06:06:09Z</time>
      </trkpt>
      <trkpt lat="45.23825" lon="6.18662">
        <ele>1945.6</ele>
        <time>2022-06-18T06:06:11Z</time>
      </trkpt>
      <trkpt lat="45.23823" lon="6.18666">
        <ele>1945.8</ele>
        <time>2022-06-18T06:06:12Z</time>
      </trkpt>
      <trkpt lat="45.23821" lon="6.18672">
        <ele>1946</ele>
        <time>2022-06-18T06:06:13Z</time>
      </trkpt>
      <trkpt lat="45.23819" lon="6.18676">
        <ele>1946.2</ele>
        <time>2022-06-18T06:06:14Z</time>
      </trkpt>
      <trkpt lat="45.23817" lon="6.18683">
        <ele>1946.5</ele>
        <time>2022-06-18T06:06:16Z</time>
      </trkpt>
      <trkpt lat="45.23815" lon="6.18689">
        <ele>1946.7</ele>
        <time>2022-06-18T06:06:17Z</time>
      </trkpt>
      <trkpt lat="45.23813" lon="6.18696">
        <ele>1947</ele>
        <time>2022-06-18T06:06:18Z</time>
      </trkpt>
      <trkpt lat="45.2381" lon="6.18703">
        <ele>1947.3</ele>
        <time>2022-06-18T06:06:20Z</time>
      </trkpt>
      <trkpt lat="45.23807" lon="6.18709">
        <ele>1947.6</ele>
        <time>2022-06-18T06:06:21Z</time>
      </trkpt>
      <trkpt lat="45.23804" lon="6.18716">
        <ele>1947.9</ele>
        <time>2022-06-18T06:06:23Z</time>
      </trkpt>
      <trkpt lat="45.23802" lon="6.18721">
        <ele>1948.1</ele>
        <time>2022-06-18T06:06:24Z</time>
      </trkpt>
      <trkpt lat="45.23799" lon="6.18728">
        <ele>1948.4</ele>
        <time>2022-06-18T06:06:25Z</time>
      </trkpt>
      <trkpt lat="45.23797" lon="6.18734">
        <ele>1948.6</ele>
        <time>2022-06-18T06:06:26Z</time>
      </trkpt>
      <trkpt lat="45.23795" lon="6.18741">
        <ele>1948.9</ele>
        <time>2022-06-18T06:06:28Z</time>
      </trkpt>
      <trkpt lat="45.23793" lon="6.18746">
        <ele>1949.1</ele>
        <time>2022-06-18T06:06:29Z</time>
      </trkpt>
      <trkpt lat="45.23791" lon="6.18752">
        <ele>1949.3</ele>
        <time>2022-06-18T06:06:30Z</time>
      </trkpt>
      <trkpt lat="45.23788" lon="6.18758">
        <ele>1949.6</ele>
        <time>2022-06-18T06:06:31Z</time>
      </trkpt>
      <trkpt lat="45.23786" lon="6.18762">
        <ele>1949.8</ele>
        <time>2022-06-18T06:06:32Z</time>
      </trkpt>
      <trkpt lat="45.23783" lon="6.18768">
        <ele>1950.1</ele>
        <time>2022-06-18T06:06:33Z</time>
      </trkpt>
      <trkpt lat="45.23781" lon="6.18771">
        <ele>1950.2</ele>
        <time>2022-06-18T06:06:34Z</time>
      </trkpt>
      <trkpt lat="45.23778" lon="6.18774">
        <ele>1950.4</ele>
        <time>2022-06-18T06:06:36Z</time>
      </trkpt>
      <trkpt lat="45.23776" lon="6.18777">
        <ele>1950.6</ele>
        <time>2022-06-18T06:06:37Z</time>
      </trkpt>
      <trkpt lat="45.23773" lon="6.18783">
        <ele>1950.9</ele>
        <time>2022-06-18T06:06:38Z</time>
      </trkpt>
      <trkpt lat="45.23768" lon="6.18791">
        <ele>1951.3</ele>
        <time>2022-06-18T06:06:40Z</time>
      </trkpt>
      <trkpt lat="45.23765" lon="6.18797">
        <ele>1951.7</ele>
        <time>2022-06-18T06:06:41Z</time>
      </trkpt>
      <trkpt lat="45.23762" lon="6.18804">
        <ele>1952</ele>
        <time>2022-06-18T06:06:42Z</time>
      </trkpt>
      <trkpt lat="45.2376" lon="6.18811">
        <ele>1952.3</ele>
        <time>2022-06-18T06:06:44Z</time>
      </trkpt>
      <trkpt lat="45.23759" lon="6.18818">
        <ele>1952.6</ele>
        <time>2022-06-18T06:06:45Z</time>
      </trkpt>
      <trkpt lat="45.23758" lon="6.18825">
        <ele>1952.9</ele>
        <time>2022-06-18T06:06:46Z</time>
      </trkpt>
      <trkpt lat="45.23757" lon="6.18831">
        <ele>1953.2</ele>
        <time>2022-06-18T06:06:47Z</time>
      </trkpt>
      <trkpt lat="45.23757" lon="6.18841">
        <ele>1953.6</ele>
        <time>2022-06-18T06:06:49Z</time>
      </trkpt>
      <trkpt lat="45.23755" lon="6.18851">
        <ele>1954</ele>
        <time>2022-06-18T06:06:50Z</time>
      </trkpt>
      <trkpt lat="45.23755" lon="6.18857">
        <ele>1954.2</ele>
        <time>2022-06-18T06:06:51Z</time>
      </trkpt>
      <trkpt lat="45.23754" lon="6.18867">
        <ele>1954.5</ele>
        <time>2022-06-18T06:06:53Z</time>
      </trkpt>
      <trkpt lat="45.23751" lon="6.18875">
        <ele>1954.9</ele>
        <time>2022-06-18T06:06:54Z</time>
      </trkpt>
      <trkpt lat="45.23748" lon="6.18882">
        <ele>1955.1</ele>
        <time>2022-06-18T06:06:56Z</time>
      </trkpt>
      <trkpt lat="45.23745" lon="6.18891">
        <ele>1955.5</ele>
        <time>2022-06-18T06:06:57Z</time>
      </trkpt>
      <trkpt lat="45.23743" lon="6.18897">
        <ele>1955.7</ele>
        <time>2022-06-18T06:06:58Z</time>
      </trkpt>
      <trkpt lat="45.23741" lon="6.18902">
        <ele>1955.9</ele>
        <time>2022-06-18T06:06:59Z</time>
      </trkpt>
      <trkpt lat="45.23739" lon="6.18909">
        <ele>1956.2</ele>
        <time>2022-06-18T06:07:01Z</time>
      </trkpt>
      <trkpt lat="45.23737" lon="6.18914">
        <ele>1956.4</ele>
        <time>2022-06-18T06:07:02Z</time>
      </trkpt>
      <trkpt lat="45.23736" lon="6.18919">
        <ele>1956.6</ele>
        <time>2022-06-18T06:07:03Z</time>
      </trkpt>
      <trkpt lat="45.23734" lon="6.18924">
        <ele>1956.9</ele>
        <time>2022-06-18T06:07:04Z</time>
      </trkpt>
      <trkpt lat="45.23732" lon="6.18928">
        <ele>1957.1</ele>
        <time>2022-06-18T06:07:05Z</time>
      </trkpt>
      <trkpt lat="45.23731" lon="6.18933">
        <ele>1957.3</ele>
        <time>2022-06-18T06:07:06Z</time>
      </trkpt>
      <trkpt lat="45.23728" lon="6.18941">
        <ele>1957.7</ele>
        <time>2022-06-18T06:07:08Z</time>
      </trkpt>
      <trkpt lat="45.23727" lon="6.18946">
        <ele>1957.9</ele>
        <time>2022-06-18T06:07:09Z</time>
      </trkpt>
      <trkpt lat="45.23725" lon="6.18953">
        <ele>1958.2</ele>
        <time>2022-06-18T06:07:10Z</time>
      </trkpt>
      <trkpt lat="45.23724" lon="6.1896">
        <ele>1958.6</ele>
        <time>2022-06-18T06:07:11Z</time>
      </trkpt>
      <trkpt lat="45.23722" lon="6.18965">
        <ele>1958.8</ele>
        <time>2022-06-18T06:07:13Z</time>
      </trkpt>
      <trkpt lat="45.23721" lon="6.18971">
        <ele>1959.1</ele>
        <time>2022-06-18T06:07:14Z</time>
      </trkpt>
      <trkpt lat="45.2372" lon="6.18978">
        <ele>1959.4</ele>
        <time>2022-06-18T06:07:15Z</time>
      </trkpt>
      <trkpt lat="45.23718" lon="6.18984">
        <ele>1959.7</ele>
        <time>2022-06-18T06:07:16Z</time>
      </trkpt>
      <trkpt lat="45.23717" lon="6.18991">
        <ele>1960</ele>
        <time>2022-06-18T06:07:18Z</time>
      </trkpt>
      <trkpt lat="45.23716" lon="6.18997">
        <ele>1960.2</ele>
        <time>2022-06-18T06:07:19Z</time>
      </trkpt>
      <trkpt lat="45.23714" lon="6.19003">
        <ele>1960.5</ele>
        <time>2022-06-18T06:07:20Z</time>
      </trkpt>
      <trkpt lat="45.23713" lon="6.19008">
        <ele>1960.8</ele>
        <time>2022-06-18T06:07:21Z</time>
      </trkpt>
      <trkpt lat="45.23711" lon="6.19014">
        <ele>1961.1</ele>
        <time>2022-06-18T06:07:22Z</time>
      </trkpt>
      <trkpt lat="45.23709" lon="6.1902">
        <ele>1961.4</ele>
        <time>2022-06-18T06:07:23Z</time>
      </trkpt>
      <trkpt lat="45.23708" lon="6.19026">
        <ele>1961.7</ele>
        <time>2022-06-18T06:07:24Z</time>
      </trkpt>
      <trkpt lat="45.23706" lon="6.19032">
        <ele>1962</ele>
        <time>2022-06-18T06:07:26Z</time>
      </trkpt>
      <trkpt lat="45.23704" lon="6.19039">
        <ele>1962.3</ele>
        <time>2022-06-18T06:07:27Z</time>
      </trkpt>
      <trkpt lat="45.23702" lon="6.19047">
        <ele>1962.8</ele>
        <time>2022-06-18T06:07:28Z</time>
      </trkpt>
      <trkpt lat="45.23699" lon="6.19055">
        <ele>1963.2</ele>
        <time>2022-06-18T06:07:30Z</time>
      </trkpt>
      <trkpt lat="45.23696" lon="6.19064">
        <ele>1963.7</ele>
        <time>2022-06-18T06:07:31Z</time>
      </trkpt>
      <trkpt lat="45.23694" lon="6.19071">
        <ele>1964</ele>
        <time>2022-06-18T06:07:33Z</time>
      </trkpt>
      <trkpt lat="45.23692" lon="6.19077">
        <ele>1964.4</ele>
        <time>2022-06-18T06:07:34Z</time>
      </trkpt>
      <trkpt lat="45.23688" lon="6.19084">
        <ele>1964.8</ele>
        <time>2022-06-18T06:07:35Z</time>
      </trkpt>
      <trkpt lat="45.23685" lon="6.1909">
        <ele>1965.1</ele>
        <time>2022-06-18T06:07:37Z</time>
      </trkpt>
      <trkpt lat="45.23681" lon="6.19095">
        <ele>1965.4</ele>
        <time>2022-06-18T06:07:38Z</time>
      </trkpt>
      <trkpt lat="45.23679" lon="6.19098">
        <ele>1965.7</ele>
        <time>2022-06-18T06:07:39Z</time>
      </trkpt>
      <trkpt lat="45.23676" lon="6.19102">
        <ele>1966</ele>
        <time>2022-06-18T06:07:40Z</time>
      </trkpt>
      <trkpt lat="45.23672" lon="6.19107">
        <ele>1966.3</ele>
        <time>2022-06-18T06:07:42Z</time>
      </trkpt>
      <trkpt lat="45.2367" lon="6.19111">
        <ele>1966.6</ele>
        <time>2022-06-18T06:07:43Z</time>
      </trkpt>
      <trkpt lat="45.23667" lon="6.19116">
        <ele>1966.9</ele>
        <time>2022-06-18T06:07:44Z</time>
      </trkpt>
      <trkpt lat="45.23664" lon="6.19122">
        <ele>1967.2</ele>
        <time>2022-06-18T06:07:45Z</time>
      </trkpt>
      <trkpt lat="45.23661" lon="6.19126">
        <ele>1967.6</ele>
        <time>2022-06-18T06:07:46Z</time>
      </trkpt>
      <trkpt lat="45.23658" lon="6.19131">
        <ele>1967.8</ele>
        <time>2022-06-18T06:07:47Z</time>
      </trkpt>
      <trkpt lat="45.23656" lon="6.19135">
        <ele>1968.1</ele>
        <time>2022-06-18T06:07:48Z</time>
      </trkpt>
      <trkpt lat="45.23653" lon="6.1914">
        <ele>1968.4</ele>
        <time>2022-06-18T06:07:50Z</time>
      </trkpt>
      <trkpt lat="45.2365" lon="6.19145">
        <ele>1968.6</ele>
        <time>2022-06-18T06:07:51Z</time>
      </trkpt>
      <trkpt lat="45.23647" lon="6.19149">
        <ele>1968.9</ele>
        <time>2022-06-18T06:07:52Z</time>
      </trkpt>
      <trkpt lat="45.23643" lon="6.19154">
        <ele>1969.3</ele>
        <time>2022-06-18T06:07:53Z</time>
      </trkpt>
      <trkpt lat="45.23639" lon="6.19159">
        <ele>1969.6</ele>
        <time>2022-06-18T06:07:54Z</time>
      </trkpt>
      <trkpt lat="45.23636" lon="6.19162">
        <ele>1969.8</ele>
        <time>2022-06-18T06:07:55Z</time>
      </trkpt>
      <trkpt lat="45.23634" lon="6.19165">
        <ele>1970</ele>
        <time>2022-06-18T06:07:56Z</time>
      </trkpt>
      <trkpt lat="45.2363" lon="6.19169">
        <ele>1970.3</ele>
        <time>2022-06-18T06:07:58Z</time>
      </trkpt>
      <trkpt lat="45.23626" lon="6.19174">
        <ele>1970.7</ele>
        <time>2022-06-18T06:07:59Z</time>
      </trkpt>
      <trkpt lat="45.23622" lon="6.1918">
        <ele>1971</ele>
        <time>2022-06-18T06:08:00Z</time>
      </trkpt>
      <trkpt lat="45.23619" lon="6.19185">
        <ele>1971.3</ele>
        <time>2022-06-18T06:08:01Z</time>
      </trkpt>
      <trkpt lat="45.23616" lon="6.1919">
        <ele>1971.6</ele>
        <time>2022-06-18T06:08:03Z</time>
      </trkpt>
      <trkpt lat="45.23613" lon="6.19195">
        <ele>1971.9</ele>
        <time>2022-06-18T06:08:04Z</time>
      </trkpt>
      <trkpt lat="45.2361" lon="6.19199">
        <ele>1972.2</ele>
        <time>2022-06-18T06:08:05Z</time>
      </trkpt>
      <trkpt lat="45.23606" lon="6.19206">
        <ele>1972.6</ele>
        <time>2022-06-18T06:08:07Z</time>
      </trkpt>
      <trkpt lat="45.23603" lon="6.19212">
        <ele>1972.9</ele>
        <time>2022-06-18T06:08:08Z</time>
      </trkpt>
      <trkpt lat="45.236" lon="6.19217">
        <ele>1973.2</ele>
        <time>2022-06-18T06:08:09Z</time>
      </trkpt>
      <trkpt lat="45.23596" lon="6.19223">
        <ele>1973.6</ele>
        <time>2022-06-18T06:08:11Z</time>
      </trkpt>
      <trkpt lat="45.23592" lon="6.19228">
        <ele>1973.9</ele>
        <time>2022-06-18T06:08:12Z</time>
      </trkpt>
      <trkpt lat="45.2359" lon="6.19232">
        <ele>1974.2</ele>
        <time>2022-06-18T06:08:13Z</time>
      </trkpt>
      <trkpt lat="45.23586" lon="6.19238">
        <ele>1974.5</ele>
        <time>2022-06-18T06:08:15Z</time>
      </trkpt>
      <trkpt lat="45.23582" lon="6.19242">
        <ele>1974.9</ele>
        <time>2022-06-18T06:08:16Z</time>
      </trkpt>
      <trkpt lat="45.23578" lon="6.19247">
        <ele>1975.2</ele>
        <time>2022-06-18T06:08:17Z</time>
      </trkpt>
      <trkpt lat="45.23574" lon="6.19252">
        <ele>1975.6</ele>
        <time>2022-06-18T06:08:19Z</time>
      </trkpt>
      <trkpt lat="45.23571" lon="6.19258">
        <ele>1975.9</ele>
        <time>2022-06-18T06:08:20Z</time>
      </trkpt>
      <trkpt lat="45.23567" lon="6.19263">
        <ele>1976.3</ele>
        <time>2022-06-18T06:08:22Z</time>
      </trkpt>
      <trkpt lat="45.23564" lon="6.19268">
        <ele>1976.6</ele>
        <time>2022-06-18T06:08:23Z</time>
      </trkpt>
      <trkpt lat="45.2356" lon="6.19273">
        <ele>1977</ele>
        <time>2022-06-18T06:08:24Z</time>
      </trkpt>
      <trkpt lat="45.23556" lon="6.19276">
        <ele>1977.3</ele>
        <time>2022-06-18T06:08:25Z</time>
      </trkpt>
      <trkpt lat="45.23551" lon="6.1928">
        <ele>1977.6</ele>
        <time>2022-06-18T06:08:27Z</time>
      </trkpt>
      <trkpt lat="45.23546" lon="6.19283">
        <ele>1978</ele>
        <time>2022-06-18T06:08:28Z</time>
      </trkpt>
      <trkpt lat="45.23543" lon="6.19286">
        <ele>1978.3</ele>
        <time>2022-06-18T06:08:29Z</time>
      </trkpt>
      <trkpt lat="45.23536" lon="6.19287">
        <ele>1978.7</ele>
        <time>2022-06-18T06:08:31Z</time>
      </trkpt>
      <trkpt lat="45.23532" lon="6.19289">
        <ele>1979</ele>
        <time>2022-06-18T06:08:32Z</time>
      </trkpt>
      <trkpt lat="45.23527" lon="6.19291">
        <ele>1979.4</ele>
        <time>2022-06-18T06:08:33Z</time>
      </trkpt>
      <trkpt lat="45.23521" lon="6.19293">
        <ele>1979.8</ele>
        <time>2022-06-18T06:08:35Z</time>
      </trkpt>
      <trkpt lat="45.23515" lon="6.19296">
        <ele>1980.2</ele>
        <time>2022-06-18T06:08:36Z</time>
      </trkpt>
      <trkpt lat="45.2351" lon="6.19297">
        <ele>1980.5</ele>
        <time>2022-06-18T06:08:37Z</time>
      </trkpt>
      <trkpt lat="45.23506" lon="6.19299">
        <ele>1980.8</ele>
        <time>2022-06-18T06:08:38Z</time>
      </trkpt>
      <trkpt lat="45.23502" lon="6.19302">
        <ele>1981.1</ele>
        <time>2022-06-18T06:08:39Z</time>
      </trkpt>
      <trkpt lat="45.23498" lon="6.19305">
        <ele>1981.4</ele>
        <time>2022-06-18T06:08:40Z</time>
      </trkpt>
      <trkpt lat="45.23493" lon="6.19308">
        <ele>1981.7</ele>
        <time>2022-06-18T06:08:41Z</time>
      </trkpt>
      <trkpt lat="45.23489" lon="6.19305">
        <ele>1981.9</ele>
        <time>2022-06-18T06:08:43Z</time>
      </trkpt>
      <trkpt lat="45.23484" lon="6.19311">
        <ele>1982.3</ele>
        <time>2022-06-18T06:08:44Z</time>
      </trkpt>
      <trkpt lat="45.23479" lon="6.19315">
        <ele>1982.6</ele>
        <time>2022-06-18T06:08:45Z</time>
      </trkpt>
      <trkpt lat="45.23474" lon="6.19318">
        <ele>1982.9</ele>
        <time>2022-06-18T06:08:46Z</time>
      </trkpt>
      <trkpt lat="45.23469" lon="6.1932">
        <ele>1983.2</ele>
        <time>2022-06-18T06:08:47Z</time>
      </trkpt>
      <trkpt lat="45.23464" lon="6.1932">
        <ele>1983.5</ele>
        <time>2022-06-18T06:08:48Z</time>
      </trkpt>
      <trkpt lat="45.2346" lon="6.19321">
        <ele>1983.7</ele>
        <time>2022-06-18T06:08:49Z</time>
      </trkpt>
      <trkpt lat="45.23456" lon="6.19319">
        <ele>1984</ele>
        <time>2022-06-18T06:08:50Z</time>
      </trkpt>
      <trkpt lat="45.23451" lon="6.19319">
        <ele>1984.3</ele>
        <time>2022-06-18T06:08:52Z</time>
      </trkpt>
      <trkpt lat="45.23445" lon="6.1932">
        <ele>1984.6</ele>
        <time>2022-06-18T06:08:53Z</time>
      </trkpt>
      <trkpt lat="45.2344" lon="6.19321">
        <ele>1985</ele>
        <time>2022-06-18T06:08:54Z</time>
      </trkpt>
      <trkpt lat="45.23436" lon="6.19321">
        <ele>1985.3</ele>
        <time>2022-06-18T06:08:55Z</time>
      </trkpt>
      <trkpt lat="45.23431" lon="6.19323">
        <ele>1985.6</ele>
        <time>2022-06-18T06:08:56Z</time>
      </trkpt>
      <trkpt lat="45.23424" lon="6.19324">
        <ele>1985.9</ele>
        <time>2022-06-18T06:08:58Z</time>
      </trkpt>
      <trkpt lat="45.2342" lon="6.19325">
        <ele>1986.2</ele>
        <time>2022-06-18T06:08:59Z</time>
      </trkpt>
      <trkpt lat="45.23415" lon="6.19329">
        <ele>1986.5</ele>
        <time>2022-06-18T06:09:00Z</time>
      </trkpt>
      <trkpt lat="45.23412" lon="6.19334">
        <ele>1986.7</ele>
        <time>2022-06-18T06:09:01Z</time>
      </trkpt>
      <trkpt lat="45.2341" lon="6.1934">
        <ele>1986.9</ele>
        <time>2022-06-18T06:09:02Z</time>
      </trkpt>
      <trkpt lat="45.23408" lon="6.19346">
        <ele>1987.2</ele>
        <time>2022-06-18T06:09:03Z</time>
      </trkpt>
      <trkpt lat="45.23407" lon="6.19353">
        <ele>1987.5</ele>
        <time>2022-06-18T06:09:04Z</time>
      </trkpt>
      <trkpt lat="45.23405" lon="6.1936">
        <ele>1988.3</ele>
        <time>2022-06-18T06:09:05Z</time>
      </trkpt>
      <trkpt lat="45.23404" lon="6.19367">
        <ele>1989.1</ele>
        <time>2022-06-18T06:09:06Z</time>
      </trkpt>
      <trkpt lat="45.23402" lon="6.19373">
        <ele>1989.8</ele>
        <time>2022-06-18T06:09:07Z</time>
      </trkpt>
      <trkpt lat="45.23401" lon="6.1938">
        <ele>1990.5</ele>
        <time>2022-06-18T06:09:08Z</time>
      </trkpt>
      <trkpt lat="45.23399" lon="6.19386">
        <ele>1991.3</ele>
        <time>2022-06-18T06:09:09Z</time>
      </trkpt>
      <trkpt lat="45.23396" lon="6.19391">
        <ele>1991.5</ele>
        <time>2022-06-18T06:09:10Z</time>
      </trkpt>
      <trkpt lat="45.23394" lon="6.19397">
        <ele>1991.8</ele>
        <time>2022-06-18T06:09:11Z</time>
      </trkpt>
      <trkpt lat="45.23391" lon="6.19403">
        <ele>1992</ele>
        <time>2022-06-18T06:09:12Z</time>
      </trkpt>
      <trkpt lat="45.23389" lon="6.19409">
        <ele>1992.4</ele>
        <time>2022-06-18T06:09:13Z</time>
      </trkpt>
      <trkpt lat="45.23386" lon="6.19415">
        <ele>1992.8</ele>
        <time>2022-06-18T06:09:14Z</time>
      </trkpt>
      <trkpt lat="45.23384" lon="6.19421">
        <ele>1993.2</ele>
        <time>2022-06-18T06:09:15Z</time>
      </trkpt>
      <trkpt lat="45.23382" lon="6.19427">
        <ele>1993.6</ele>
        <time>2022-06-18T06:09:16Z</time>
      </trkpt>
      <trkpt lat="45.2338" lon="6.19433">
        <ele>1994</ele>
        <time>2022-06-18T06:09:17Z</time>
      </trkpt>
      <trkpt lat="45.23377" lon="6.19439">
        <ele>1994.4</ele>
        <time>2022-06-18T06:09:18Z</time>
      </trkpt>
      <trkpt lat="45.23376" lon="6.19442">
        <ele>1994.7</ele>
        <time>2022-06-18T06:09:19Z</time>
      </trkpt>
      <trkpt lat="45.23374" lon="6.19447">
        <ele>1995.1</ele>
        <time>2022-06-18T06:09:20Z</time>
      </trkpt>
      <trkpt lat="45.23371" lon="6.19454">
        <ele>1995.5</ele>
        <time>2022-06-18T06:09:21Z</time>
      </trkpt>
      <trkpt lat="45.23369" lon="6.19458">
        <ele>1995.9</ele>
        <time>2022-06-18T06:09:22Z</time>
      </trkpt>
      <trkpt lat="45.23366" lon="6.19463">
        <ele>1996.3</ele>
        <time>2022-06-18T06:09:23Z</time>
      </trkpt>
      <trkpt lat="45.23364" lon="6.19467">
        <ele>1996.6</ele>
        <time>2022-06-18T06:09:24Z</time>
      </trkpt>
      <trkpt lat="45.23361" lon="6.19471">
        <ele>1997</ele>
        <time>2022-06-18T06:09:26Z</time>
      </trkpt>
      <trkpt lat="45.23357" lon="6.19477">
        <ele>1997.6</ele>
        <time>2022-06-18T06:09:27Z</time>
      </trkpt>
      <trkpt lat="45.23354" lon="6.19485">
        <ele>1998.2</ele>
        <time>2022-06-18T06:09:28Z</time>
      </trkpt>
      <trkpt lat="45.23351" lon="6.1949">
        <ele>1998.7</ele>
        <time>2022-06-18T06:09:29Z</time>
      </trkpt>
      <trkpt lat="45.23349" lon="6.19494">
        <ele>1999.2</ele>
        <time>2022-06-18T06:09:30Z</time>
      </trkpt>
      <trkpt lat="45.23345" lon="6.19502">
        <ele>1999.8</ele>
        <time>2022-06-18T06:09:31Z</time>
      </trkpt>
      <trkpt lat="45.23342" lon="6.19509">
        <ele>2000.4</ele>
        <time>2022-06-18T06:09:33Z</time>
      </trkpt>
      <trkpt lat="45.2334" lon="6.19513">
        <ele>2000.8</ele>
        <time>2022-06-18T06:09:34Z</time>
      </trkpt>
      <trkpt lat="45.23338" lon="6.19518">
        <ele>2001.2</ele>
        <time>2022-06-18T06:09:35Z</time>
      </trkpt>
      <trkpt lat="45.23336" lon="6.19523">
        <ele>2001.5</ele>
        <time>2022-06-18T06:09:36Z</time>
      </trkpt>
      <trkpt lat="45.23335" lon="6.19528">
        <ele>2001.9</ele>
        <time>2022-06-18T06:09:37Z</time>
      </trkpt>
      <trkpt lat="45.23334" lon="6.19533">
        <ele>2002.3</ele>
        <time>2022-06-18T06:09:38Z</time>
      </trkpt>
      <trkpt lat="45.23333" lon="6.1954">
        <ele>2002.8</ele>
        <time>2022-06-18T06:09:40Z</time>
      </trkpt>
      <trkpt lat="45.23331" lon="6.19548">
        <ele>2003.4</ele>
        <time>2022-06-18T06:09:41Z</time>
      </trkpt>
      <trkpt lat="45.23331" lon="6.19553">
        <ele>2003.7</ele>
        <time>2022-06-18T06:09:42Z</time>
      </trkpt>
      <trkpt lat="45.2333" lon="6.1956">
        <ele>2004.2</ele>
        <time>2022-06-18T06:09:43Z</time>
      </trkpt>
      <trkpt lat="45.23329" lon="6.19565">
        <ele>2004.5</ele>
        <time>2022-06-18T06:09:44Z</time>
      </trkpt>
      <trkpt lat="45.23328" lon="6.19571">
        <ele>2004.9</ele>
        <time>2022-06-18T06:09:45Z</time>
      </trkpt>
      <trkpt lat="45.23328" lon="6.19577">
        <ele>2005.3</ele>
        <time>2022-06-18T06:09:46Z</time>
      </trkpt>
      <trkpt lat="45.23328" lon="6.19583">
        <ele>2005.7</ele>
        <time>2022-06-18T06:09:47Z</time>
      </trkpt>
      <trkpt lat="45.23327" lon="6.19588">
        <ele>2006.1</ele>
        <time>2022-06-18T06:09:48Z</time>
      </trkpt>
      <trkpt lat="45.23327" lon="6.19594">
        <ele>2006.4</ele>
        <time>2022-06-18T06:09:49Z</time>
      </trkpt>
      <trkpt lat="45.23326" lon="6.19602">
        <ele>2006.9</ele>
        <time>2022-06-18T06:09:50Z</time>
      </trkpt>
      <trkpt lat="45.23326" lon="6.19608">
        <ele>2007.3</ele>
        <time>2022-06-18T06:09:51Z</time>
      </trkpt>
      <trkpt lat="45.23325" lon="6.19613">
        <ele>2007.7</ele>
        <time>2022-06-18T06:09:52Z</time>
      </trkpt>
      <trkpt lat="45.23325" lon="6.19619">
        <ele>2008.1</ele>
        <time>2022-06-18T06:09:53Z</time>
      </trkpt>
      <trkpt lat="45.23324" lon="6.19624">
        <ele>2008.5</ele>
        <time>2022-06-18T06:09:54Z</time>
      </trkpt>
      <trkpt lat="45.23322" lon="6.1963">
        <ele>2008.9</ele>
        <time>2022-06-18T06:09:55Z</time>
      </trkpt>
      <trkpt lat="45.23319" lon="6.19637">
        <ele>2009.4</ele>
        <time>2022-06-18T06:09:57Z</time>
      </trkpt>
      <trkpt lat="45.23317" lon="6.19642">
        <ele>2009.9</ele>
        <time>2022-06-18T06:09:58Z</time>
      </trkpt>
      <trkpt lat="45.23314" lon="6.19647">
        <ele>2010.3</ele>
        <time>2022-06-18T06:09:59Z</time>
      </trkpt>
      <trkpt lat="45.23312" lon="6.19652">
        <ele>2010.7</ele>
        <time>2022-06-18T06:10:00Z</time>
      </trkpt>
      <trkpt lat="45.23309" lon="6.19657">
        <ele>2011.1</ele>
        <time>2022-06-18T06:10:01Z</time>
      </trkpt>
      <trkpt lat="45.23306" lon="6.19661">
        <ele>2011.5</ele>
        <time>2022-06-18T06:10:02Z</time>
      </trkpt>
      <trkpt lat="45.23304" lon="6.19665">
        <ele>2011.9</ele>
        <time>2022-06-18T06:10:03Z</time>
      </trkpt>
      <trkpt lat="45.23302" lon="6.19669">
        <ele>2012.2</ele>
        <time>2022-06-18T06:10:04Z</time>
      </trkpt>
      <trkpt lat="45.233" lon="6.19673">
        <ele>2012.6</ele>
        <time>2022-06-18T06:10:05Z</time>
      </trkpt>
      <trkpt lat="45.23298" lon="6.19678">
        <ele>2013</ele>
        <time>2022-06-18T06:10:06Z</time>
      </trkpt>
      <trkpt lat="45.23296" lon="6.19682">
        <ele>2013.4</ele>
        <time>2022-06-18T06:10:07Z</time>
      </trkpt>
      <trkpt lat="45.23292" lon="6.19687">
        <ele>2013.9</ele>
        <time>2022-06-18T06:10:09Z</time>
      </trkpt>
      <trkpt lat="45.23289" lon="6.19694">
        <ele>2014.4</ele>
        <time>2022-06-18T06:10:10Z</time>
      </trkpt>
      <trkpt lat="45.23286" lon="6.19699">
        <ele>2014.9</ele>
        <time>2022-06-18T06:10:11Z</time>
      </trkpt>
      <trkpt lat="45.23283" lon="6.19705">
        <ele>2015.4</ele>
        <time>2022-06-18T06:10:13Z</time>
      </trkpt>
      <trkpt lat="45.23279" lon="6.1971">
        <ele>2015.9</ele>
        <time>2022-06-18T06:10:14Z</time>
      </trkpt>
      <trkpt lat="45.23276" lon="6.19716">
        <ele>2016.4</ele>
        <time>2022-06-18T06:10:15Z</time>
      </trkpt>
      <trkpt lat="45.23273" lon="6.19722">
        <ele>2016.9</ele>
        <time>2022-06-18T06:10:17Z</time>
      </trkpt>
      <trkpt lat="45.23269" lon="6.19729">
        <ele>2017.5</ele>
        <time>2022-06-18T06:10:18Z</time>
      </trkpt>
      <trkpt lat="45.23265" lon="6.19735">
        <ele>2018.1</ele>
        <time>2022-06-18T06:10:19Z</time>
      </trkpt>
      <trkpt lat="45.23262" lon="6.19738">
        <ele>2018.5</ele>
        <time>2022-06-18T06:10:20Z</time>
      </trkpt>
      <trkpt lat="45.23257" lon="6.19743">
        <ele>2019</ele>
        <time>2022-06-18T06:10:22Z</time>
      </trkpt>
      <trkpt lat="45.23252" lon="6.19746">
        <ele>2019.6</ele>
        <time>2022-06-18T06:10:23Z</time>
      </trkpt>
      <trkpt lat="45.23248" lon="6.19749">
        <ele>2020</ele>
        <time>2022-06-18T06:10:24Z</time>
      </trkpt>
      <trkpt lat="45.23244" lon="6.19752">
        <ele>2020.5</ele>
        <time>2022-06-18T06:10:25Z</time>
      </trkpt>
      <trkpt lat="45.23238" lon="6.19757">
        <ele>2021.1</ele>
        <time>2022-06-18T06:10:27Z</time>
      </trkpt>
      <trkpt lat="45.23234" lon="6.19761">
        <ele>2021.6</ele>
        <time>2022-06-18T06:10:28Z</time>
      </trkpt>
      <trkpt lat="45.2323" lon="6.19766">
        <ele>2022.1</ele>
        <time>2022-06-18T06:10:29Z</time>
      </trkpt>
      <trkpt lat="45.23227" lon="6.19771">
        <ele>2022.5</ele>
        <time>2022-06-18T06:10:31Z</time>
      </trkpt>
      <trkpt lat="45.23223" lon="6.19777">
        <ele>2022.9</ele>
        <time>2022-06-18T06:10:32Z</time>
      </trkpt>
      <trkpt lat="45.2322" lon="6.19783">
        <ele>2023.4</ele>
        <time>2022-06-18T06:10:33Z</time>
      </trkpt>
      <trkpt lat="45.23216" lon="6.19787">
        <ele>2023.8</ele>
        <time>2022-06-18T06:10:34Z</time>
      </trkpt>
      <trkpt lat="45.2321" lon="6.19794">
        <ele>2024.4</ele>
        <time>2022-06-18T06:10:36Z</time>
      </trkpt>
      <trkpt lat="45.23207" lon="6.19799">
        <ele>2024.8</ele>
        <time>2022-06-18T06:10:37Z</time>
      </trkpt>
      <trkpt lat="45.23204" lon="6.19803">
        <ele>2025.1</ele>
        <time>2022-06-18T06:10:38Z</time>
      </trkpt>
      <trkpt lat="45.23198" lon="6.1981">
        <ele>2025.6</ele>
        <time>2022-06-18T06:10:40Z</time>
      </trkpt>
      <trkpt lat="45.23195" lon="6.19814">
        <ele>2025.9</ele>
        <time>2022-06-18T06:10:41Z</time>
      </trkpt>
      <trkpt lat="45.23193" lon="6.19818">
        <ele>2026.2</ele>
        <time>2022-06-18T06:10:42Z</time>
      </trkpt>
      <trkpt lat="45.23189" lon="6.19822">
        <ele>2026.5</ele>
        <time>2022-06-18T06:10:43Z</time>
      </trkpt>
      <trkpt lat="45.23185" lon="6.19828">
        <ele>2026.9</ele>
        <time>2022-06-18T06:10:45Z</time>
      </trkpt>
      <trkpt lat="45.2318" lon="6.19834">
        <ele>2027.4</ele>
        <time>2022-06-18T06:10:46Z</time>
      </trkpt>
      <trkpt lat="45.23176" lon="6.19841">
        <ele>2027.8</ele>
        <time>2022-06-18T06:10:48Z</time>
      </trkpt>
      <trkpt lat="45.23173" lon="6.19845">
        <ele>2028.1</ele>
        <time>2022-06-18T06:10:49Z</time>
      </trkpt>
      <trkpt lat="45.23169" lon="6.19852">
        <ele>2028.5</ele>
        <time>2022-06-18T06:10:50Z</time>
      </trkpt>
      <trkpt lat="45.23166" lon="6.19857">
        <ele>2028.8</ele>
        <time>2022-06-18T06:10:51Z</time>
      </trkpt>
      <trkpt lat="45.23163" lon="6.19863">
        <ele>2029.2</ele>
        <time>2022-06-18T06:10:53Z</time>
      </trkpt>
      <trkpt lat="45.23161" lon="6.19868">
        <ele>2029.5</ele>
        <time>2022-06-18T06:10:54Z</time>
      </trkpt>
      <trkpt lat="45.23158" lon="6.19875">
        <ele>2029.9</ele>
        <time>2022-06-18T06:10:55Z</time>
      </trkpt>
      <trkpt lat="45.23157" lon="6.19879">
        <ele>2030.1</ele>
        <time>2022-06-18T06:10:56Z</time>
      </trkpt>
      <trkpt lat="45.23155" lon="6.19884">
        <ele>2030.4</ele>
        <time>2022-06-18T06:10:57Z</time>
      </trkpt>
      <trkpt lat="45.23153" lon="6.19888">
        <ele>2030.6</ele>
        <time>2022-06-18T06:10:58Z</time>
      </trkpt>
      <trkpt lat="45.23151" lon="6.19893">
        <ele>2030.9</ele>
        <time>2022-06-18T06:10:59Z</time>
      </trkpt>
      <trkpt lat="45.23148" lon="6.199">
        <ele>2031.3</ele>
        <time>2022-06-18T06:11:00Z</time>
      </trkpt>
      <trkpt lat="45.23144" lon="6.19909">
        <ele>2031.9</ele>
        <time>2022-06-18T06:11:02Z</time>
      </trkpt>
      <trkpt lat="45.23141" lon="6.19915">
        <ele>2032.2</ele>
        <time>2022-06-18T06:11:03Z</time>
      </trkpt>
      <trkpt lat="45.23138" lon="6.19921">
        <ele>2032.6</ele>
        <time>2022-06-18T06:11:05Z</time>
      </trkpt>
      <trkpt lat="45.23135" lon="6.19928">
        <ele>2033</ele>
        <time>2022-06-18T06:11:06Z</time>
      </trkpt>
      <trkpt lat="45.23133" lon="6.19933">
        <ele>2033.3</ele>
        <time>2022-06-18T06:11:07Z</time>
      </trkpt>
      <trkpt lat="45.2313" lon="6.1994">
        <ele>2033.7</ele>
        <time>2022-06-18T06:11:09Z</time>
      </trkpt>
      <trkpt lat="45.23127" lon="6.19947">
        <ele>2034.1</ele>
        <time>2022-06-18T06:11:10Z</time>
      </trkpt>
      <trkpt lat="45.23125" lon="6.19952">
        <ele>2034.3</ele>
        <time>2022-06-18T06:11:11Z</time>
      </trkpt>
      <trkpt lat="45.23123" lon="6.19956">
        <ele>2034.5</ele>
        <time>2022-06-18T06:11:12Z</time>
      </trkpt>
      <trkpt lat="45.23121" lon="6.19961">
        <ele>2034.8</ele>
        <time>2022-06-18T06:11:13Z</time>
      </trkpt>
      <trkpt lat="45.23119" lon="6.19965">
        <ele>2035.1</ele>
        <time>2022-06-18T06:11:14Z</time>
      </trkpt>
      <trkpt lat="45.23115" lon="6.19971">
        <ele>2035.5</ele>
        <time>2022-06-18T06:11:15Z</time>
      </trkpt>
      <trkpt lat="45.23111" lon="6.1998">
        <ele>2036</ele>
        <time>2022-06-18T06:11:17Z</time>
      </trkpt>
      <trkpt lat="45.23109" lon="6.19984">
        <ele>2036.2</ele>
        <time>2022-06-18T06:11:18Z</time>
      </trkpt>
      <trkpt lat="45.23106" lon="6.19989">
        <ele>2036.5</ele>
        <time>2022-06-18T06:11:19Z</time>
      </trkpt>
      <trkpt lat="45.23102" lon="6.19995">
        <ele>2036.9</ele>
        <time>2022-06-18T06:11:21Z</time>
      </trkpt>
      <trkpt lat="45.23099" lon="6.20001">
        <ele>2037.2</ele>
        <time>2022-06-18T06:11:22Z</time>
      </trkpt>
      <trkpt lat="45.23097" lon="6.20006">
        <ele>2037.5</ele>
        <time>2022-06-18T06:11:23Z</time>
      </trkpt>
      <trkpt lat="45.23093" lon="6.20014">
        <ele>2038</ele>
        <time>2022-06-18T06:11:25Z</time>
      </trkpt>
      <trkpt lat="45.2309" lon="6.2002">
        <ele>2038.3</ele>
        <time>2022-06-18T06:11:26Z</time>
      </trkpt>
      <trkpt lat="45.23088" lon="6.20025">
        <ele>2038.7</ele>
        <time>2022-06-18T06:11:27Z</time>
      </trkpt>
      <trkpt lat="45.23085" lon="6.20031">
        <ele>2039</ele>
        <time>2022-06-18T06:11:28Z</time>
      </trkpt>
      <trkpt lat="45.23082" lon="6.20037">
        <ele>2039.4</ele>
        <time>2022-06-18T06:11:30Z</time>
      </trkpt>
      <trkpt lat="45.2308" lon="6.20042">
        <ele>2039.7</ele>
        <time>2022-06-18T06:11:31Z</time>
      </trkpt>
      <trkpt lat="45.23077" lon="6.20047">
        <ele>2040</ele>
        <time>2022-06-18T06:11:32Z</time>
      </trkpt>
      <trkpt lat="45.23074" lon="6.20053">
        <ele>2040.3</ele>
        <time>2022-06-18T06:11:33Z</time>
      </trkpt>
      <trkpt lat="45.23072" lon="6.20058">
        <ele>2040.6</ele>
        <time>2022-06-18T06:11:34Z</time>
      </trkpt>
      <trkpt lat="45.2307" lon="6.20062">
        <ele>2040.9</ele>
        <time>2022-06-18T06:11:35Z</time>
      </trkpt>
      <trkpt lat="45.23066" lon="6.20068">
        <ele>2041.3</ele>
        <time>2022-06-18T06:11:36Z</time>
      </trkpt>
      <trkpt lat="45.23062" lon="6.20074">
        <ele>2041.7</ele>
        <time>2022-06-18T06:11:38Z</time>
      </trkpt>
      <trkpt lat="45.23059" lon="6.20079">
        <ele>2042.1</ele>
        <time>2022-06-18T06:11:39Z</time>
      </trkpt>
      <trkpt lat="45.23056" lon="6.20083">
        <ele>2042.4</ele>
        <time>2022-06-18T06:11:40Z</time>
      </trkpt>
      <trkpt lat="45.23053" lon="6.20087">
        <ele>2042.6</ele>
        <time>2022-06-18T06:11:41Z</time>
      </trkpt>
      <trkpt lat="45.23051" lon="6.2009">
        <ele>2042.9</ele>
        <time>2022-06-18T06:11:42Z</time>
      </trkpt>
      <trkpt lat="45.23048" lon="6.20093">
        <ele>2043.2</ele>
        <time>2022-06-18T06:11:43Z</time>
      </trkpt>
      <trkpt lat="45.23044" lon="6.20099">
        <ele>2043.6</ele>
        <time>2022-06-18T06:11:44Z</time>
      </trkpt>
      <trkpt lat="45.23039" lon="6.20106">
        <ele>2044.1</ele>
        <time>2022-06-18T06:11:46Z</time>
      </trkpt>
      <trkpt lat="45.23035" lon="6.20111">
        <ele>2044.5</ele>
        <time>2022-06-18T06:11:47Z</time>
      </trkpt>
      <trkpt lat="45.23032" lon="6.20116">
        <ele>2044.8</ele>
        <time>2022-06-18T06:11:48Z</time>
      </trkpt>
      <trkpt lat="45.23029" lon="6.2012">
        <ele>2045.1</ele>
        <time>2022-06-18T06:11:49Z</time>
      </trkpt>
      <trkpt lat="45.23024" lon="6.20128">
        <ele>2045.6</ele>
        <time>2022-06-18T06:11:51Z</time>
      </trkpt>
      <trkpt lat="45.23021" lon="6.20132">
        <ele>2045.9</ele>
        <time>2022-06-18T06:11:52Z</time>
      </trkpt>
      <trkpt lat="45.23019" lon="6.20135">
        <ele>2046.1</ele>
        <time>2022-06-18T06:11:53Z</time>
      </trkpt>
      <trkpt lat="45.23017" lon="6.20139">
        <ele>2046.4</ele>
        <time>2022-06-18T06:11:54Z</time>
      </trkpt>
      <trkpt lat="45.23013" lon="6.20145">
        <ele>2046.8</ele>
        <time>2022-06-18T06:11:56Z</time>
      </trkpt>
      <trkpt lat="45.23009" lon="6.2015">
        <ele>2047.2</ele>
        <time>2022-06-18T06:11:57Z</time>
      </trkpt>
      <trkpt lat="45.23006" lon="6.20153">
        <ele>2047.4</ele>
        <time>2022-06-18T06:11:58Z</time>
      </trkpt>
      <trkpt lat="45.23002" lon="6.20157">
        <ele>2047.8</ele>
        <time>2022-06-18T06:11:59Z</time>
      </trkpt>
      <trkpt lat="45.22999" lon="6.20161">
        <ele>2048.1</ele>
        <time>2022-06-18T06:12:00Z</time>
      </trkpt>
      <trkpt lat="45.22996" lon="6.20165">
        <ele>2048.4</ele>
        <time>2022-06-18T06:12:01Z</time>
      </trkpt>
      <trkpt lat="45.22993" lon="6.20169">
        <ele>2048.7</ele>
        <time>2022-06-18T06:12:02Z</time>
      </trkpt>
      <trkpt lat="45.22989" lon="6.20175">
        <ele>2049.1</ele>
        <time>2022-06-18T06:12:04Z</time>
      </trkpt>
      <trkpt lat="45.22985" lon="6.20182">
        <ele>2049.5</ele>
        <time>2022-06-18T06:12:05Z</time>
      </trkpt>
      <trkpt lat="45.22978" lon="6.20191">
        <ele>2050.2</ele>
        <time>2022-06-18T06:12:07Z</time>
      </trkpt>
      <trkpt lat="45.22973" lon="6.20197">
        <ele>2050.6</ele>
        <time>2022-06-18T06:12:09Z</time>
      </trkpt>
      <trkpt lat="45.22969" lon="6.20201">
        <ele>2051</ele>
        <time>2022-06-18T06:12:10Z</time>
      </trkpt>
      <trkpt lat="45.22966" lon="6.20205">
        <ele>2051.2</ele>
        <time>2022-06-18T06:12:12Z</time>
      </trkpt>
      <trkpt lat="45.22962" lon="6.20209">
        <ele>2051.5</ele>
        <time>2022-06-18T06:12:13Z</time>
      </trkpt>
      <trkpt lat="45.22958" lon="6.20213">
        <ele>2051.9</ele>
        <time>2022-06-18T06:12:14Z</time>
      </trkpt>
      <trkpt lat="45.22954" lon="6.20215">
        <ele>2052.2</ele>
        <time>2022-06-18T06:12:15Z</time>
      </trkpt>
      <trkpt lat="45.22946" lon="6.20218">
        <ele>2052.8</ele>
        <time>2022-06-18T06:12:17Z</time>
      </trkpt>
      <trkpt lat="45.22941" lon="6.2022">
        <ele>2053.2</ele>
        <time>2022-06-18T06:12:18Z</time>
      </trkpt>
      <trkpt lat="45.22935" lon="6.2022">
        <ele>2053.6</ele>
        <time>2022-06-18T06:12:20Z</time>
      </trkpt>
      <trkpt lat="45.22929" lon="6.20221">
        <ele>2054</ele>
        <time>2022-06-18T06:12:21Z</time>
      </trkpt>
      <trkpt lat="45.22924" lon="6.20221">
        <ele>2054.3</ele>
        <time>2022-06-18T06:12:22Z</time>
      </trkpt>
      <trkpt lat="45.22918" lon="6.20221">
        <ele>2054.7</ele>
        <time>2022-06-18T06:12:24Z</time>
      </trkpt>
      <trkpt lat="45.22914" lon="6.20221">
        <ele>2055</ele>
        <time>2022-06-18T06:12:25Z</time>
      </trkpt>
      <trkpt lat="45.22909" lon="6.20222">
        <ele>2055.3</ele>
        <time>2022-06-18T06:12:26Z</time>
      </trkpt>
      <trkpt lat="45.22904" lon="6.20223">
        <ele>2055.7</ele>
        <time>2022-06-18T06:12:27Z</time>
      </trkpt>
      <trkpt lat="45.229" lon="6.20224">
        <ele>2056</ele>
        <time>2022-06-18T06:12:28Z</time>
      </trkpt>
      <trkpt lat="45.22896" lon="6.20226">
        <ele>2056.2</ele>
        <time>2022-06-18T06:12:29Z</time>
      </trkpt>
      <trkpt lat="45.22892" lon="6.20227">
        <ele>2056.5</ele>
        <time>2022-06-18T06:12:30Z</time>
      </trkpt>
      <trkpt lat="45.22886" lon="6.20228">
        <ele>2056.9</ele>
        <time>2022-06-18T06:12:32Z</time>
      </trkpt>
      <trkpt lat="45.2288" lon="6.2023">
        <ele>2057.3</ele>
        <time>2022-06-18T06:12:33Z</time>
      </trkpt>
      <trkpt lat="45.22874" lon="6.20231">
        <ele>2057.7</ele>
        <time>2022-06-18T06:12:34Z</time>
      </trkpt>
      <trkpt lat="45.2287" lon="6.20233">
        <ele>2058</ele>
        <time>2022-06-18T06:12:35Z</time>
      </trkpt>
      <trkpt lat="45.22868" lon="6.20234">
        <ele>2058.1</ele>
        <time>2022-06-18T06:12:36Z</time>
      </trkpt>
      <trkpt lat="45.22864" lon="6.20235">
        <ele>2058.5</ele>
        <time>2022-06-18T06:12:37Z</time>
      </trkpt>
      <trkpt lat="45.22859" lon="6.20236">
        <ele>2058.8</ele>
        <time>2022-06-18T06:12:38Z</time>
      </trkpt>
      <trkpt lat="45.22855" lon="6.20237">
        <ele>2059</ele>
        <time>2022-06-18T06:12:39Z</time>
      </trkpt>
      <trkpt lat="45.22851" lon="6.20239">
        <ele>2059.3</ele>
        <time>2022-06-18T06:12:40Z</time>
      </trkpt>
      <trkpt lat="45.22844" lon="6.20241">
        <ele>2059.8</ele>
        <time>2022-06-18T06:12:42Z</time>
      </trkpt>
      <trkpt lat="45.22838" lon="6.20244">
        <ele>2060.3</ele>
        <time>2022-06-18T06:12:43Z</time>
      </trkpt>
      <trkpt lat="45.22834" lon="6.20245">
        <ele>2060.6</ele>
        <time>2022-06-18T06:12:44Z</time>
      </trkpt>
      <trkpt lat="45.22826" lon="6.20248">
        <ele>2061.1</ele>
        <time>2022-06-18T06:12:46Z</time>
      </trkpt>
      <trkpt lat="45.22821" lon="6.2025">
        <ele>2061.5</ele>
        <time>2022-06-18T06:12:47Z</time>
      </trkpt>
      <trkpt lat="45.22817" lon="6.20252">
        <ele>2061.8</ele>
        <time>2022-06-18T06:12:48Z</time>
      </trkpt>
      <trkpt lat="45.22813" lon="6.20254">
        <ele>2062.1</ele>
        <time>2022-06-18T06:12:49Z</time>
      </trkpt>
      <trkpt lat="45.22808" lon="6.20255">
        <ele>2062.4</ele>
        <time>2022-06-18T06:12:50Z</time>
      </trkpt>
      <trkpt lat="45.22802" lon="6.20257">
        <ele>2062.9</ele>
        <time>2022-06-18T06:12:52Z</time>
      </trkpt>
      <trkpt lat="45.22795" lon="6.2026">
        <ele>2063.4</ele>
        <time>2022-06-18T06:12:53Z</time>
      </trkpt>
      <trkpt lat="45.22789" lon="6.20259">
        <ele>2063.8</ele>
        <time>2022-06-18T06:12:55Z</time>
      </trkpt>
      <trkpt lat="45.22782" lon="6.20266">
        <ele>2064.4</ele>
        <time>2022-06-18T06:12:56Z</time>
      </trkpt>
      <trkpt lat="45.22778" lon="6.20269">
        <ele>2064.7</ele>
        <time>2022-06-18T06:12:57Z</time>
      </trkpt>
      <trkpt lat="45.22774" lon="6.20272">
        <ele>2065</ele>
        <time>2022-06-18T06:12:58Z</time>
      </trkpt>
      <trkpt lat="45.2277" lon="6.20275">
        <ele>2065.3</ele>
        <time>2022-06-18T06:12:59Z</time>
      </trkpt>
      <trkpt lat="45.22767" lon="6.20279">
        <ele>2065.6</ele>
        <time>2022-06-18T06:13:00Z</time>
      </trkpt>
      <trkpt lat="45.22763" lon="6.20284">
        <ele>2065.9</ele>
        <time>2022-06-18T06:13:01Z</time>
      </trkpt>
      <trkpt lat="45.2276" lon="6.20289">
        <ele>2066.2</ele>
        <time>2022-06-18T06:13:02Z</time>
      </trkpt>
      <trkpt lat="45.22756" lon="6.20293">
        <ele>2066.5</ele>
        <time>2022-06-18T06:13:04Z</time>
      </trkpt>
      <trkpt lat="45.22754" lon="6.20298">
        <ele>2066.7</ele>
        <time>2022-06-18T06:13:05Z</time>
      </trkpt>
      <trkpt lat="45.22752" lon="6.20307">
        <ele>2067</ele>
        <time>2022-06-18T06:13:06Z</time>
      </trkpt>
      <trkpt lat="45.22751" lon="6.20313">
        <ele>2067.1</ele>
        <time>2022-06-18T06:13:07Z</time>
      </trkpt>
      <trkpt lat="45.2275" lon="6.20322">
        <ele>2067.5</ele>
        <time>2022-06-18T06:13:09Z</time>
      </trkpt>
      <trkpt lat="45.2275" lon="6.20329">
        <ele>2067.7</ele>
        <time>2022-06-18T06:13:10Z</time>
      </trkpt>
      <trkpt lat="45.22749" lon="6.20339">
        <ele>2068.1</ele>
        <time>2022-06-18T06:13:11Z</time>
      </trkpt>
      <trkpt lat="45.22749" lon="6.20344">
        <ele>2068.2</ele>
        <time>2022-06-18T06:13:12Z</time>
      </trkpt>
      <trkpt lat="45.22749" lon="6.2035">
        <ele>2068.2</ele>
        <time>2022-06-18T06:13:13Z</time>
      </trkpt>
      <trkpt lat="45.22749" lon="6.20355">
        <ele>2068.2</ele>
        <time>2022-06-18T06:13:14Z</time>
      </trkpt>
      <trkpt lat="45.22749" lon="6.20361">
        <ele>2068.2</ele>
        <time>2022-06-18T06:13:15Z</time>
      </trkpt>
      <trkpt lat="45.2275" lon="6.2037">
        <ele>2068.2</ele>
        <time>2022-06-18T06:13:16Z</time>
      </trkpt>
      <trkpt lat="45.2275" lon="6.20376">
        <ele>2068.2</ele>
        <time>2022-06-18T06:13:17Z</time>
      </trkpt>
      <trkpt lat="45.2275" lon="6.20383">
        <ele>2068.2</ele>
        <time>2022-06-18T06:13:18Z</time>
      </trkpt>
      <trkpt lat="45.2275" lon="6.20386">
        <ele>2068.3</ele>
        <time>2022-06-18T06:13:19Z</time>
      </trkpt>
      <trkpt lat="45.22748" lon="6.20395">
        <ele>2068.3</ele>
        <time>2022-06-18T06:13:21Z</time>
      </trkpt>
      <trkpt lat="45.22749" lon="6.20396">
        <ele>2068.2</ele>
        <time>2022-06-18T06:13:22Z</time>
      </trkpt>
      <trkpt lat="45.22749" lon="6.20396">
        <ele>2068.2</ele>
        <time>2022-06-18T06:13:23Z</time>
      </trkpt>
      <trkpt lat="45.22749" lon="6.20394">
        <ele>2068.1</ele>
        <time>2022-06-18T06:13:24Z</time>
      </trkpt>
      <trkpt lat="45.22749" lon="6.20393">
        <ele>2068.1</ele>
        <time>2022-06-18T06:13:25Z</time>
      </trkpt>
      <trkpt lat="45.22749" lon="6.20392">
        <ele>2068</ele>
        <time>2022-06-18T06:13:27Z</time>
      </trkpt>
      <trkpt lat="45.22749" lon="6.20391">
        <ele>2068</ele>
        <time>2022-06-18T06:13:28Z</time>
      </trkpt>
      <trkpt lat="45.22749" lon="6.20391">
        <ele>2068</ele>
        <time>2022-06-18T06:13:29Z</time>
      </trkpt>
      <trkpt lat="45.22749" lon="6.20391">
        <ele>2068</ele>
        <time>2022-06-18T06:13:30Z</time>
      </trkpt>
      <trkpt lat="45.22749" lon="6.20391">
        <ele>2068</ele>
        <time>2022-06-18T06:13:31Z</time>
      </trkpt>
      <trkpt lat="45.22749" lon="6.20394">
        <ele>2067.9</ele>
        <time>2022-06-18T06:13:33Z</time>
      </trkpt>
      <trkpt lat="45.22749" lon="6.20398">
        <ele>2067.7</ele>
        <time>2022-06-18T06:13:34Z</time>
      </trkpt>
      <trkpt lat="45.2275" lon="6.20401">
        <ele>2067.6</ele>
        <time>2022-06-18T06:13:35Z</time>
      </trkpt>
      <trkpt lat="45.2275" lon="6.20405">
        <ele>2067.4</ele>
        <time>2022-06-18T06:16:39Z</time>
      </trkpt>
      <trkpt lat="45.22751" lon="6.20408">
        <ele>2067.3</ele>
        <time>2022-06-18T06:16:40Z</time>
      </trkpt>
      <trkpt lat="45.22755" lon="6.20422">
        <ele>2066.5</ele>
        <time>2022-06-18T06:16:42Z</time>
      </trkpt>
      <trkpt lat="45.22759" lon="6.20429">
        <ele>2066</ele>
        <time>2022-06-18T06:16:43Z</time>
      </trkpt>
      <trkpt lat="45.22763" lon="6.20436">
        <ele>2065.5</ele>
        <time>2022-06-18T06:16:44Z</time>
      </trkpt>
      <trkpt lat="45.22771" lon="6.20447">
        <ele>2064.5</ele>
        <time>2022-06-18T06:16:45Z</time>
      </trkpt>
      <trkpt lat="45.22778" lon="6.20455">
        <ele>2063.7</ele>
        <time>2022-06-18T06:16:46Z</time>
      </trkpt>
      <trkpt lat="45.22786" lon="6.2046">
        <ele>2062.9</ele>
        <time>2022-06-18T06:16:47Z</time>
      </trkpt>
      <trkpt lat="45.22795" lon="6.20463">
        <ele>2062.1</ele>
        <time>2022-06-18T06:16:48Z</time>
      </trkpt>
      <trkpt lat="45.22804" lon="6.20465">
        <ele>2061.3</ele>
        <time>2022-06-18T06:16:49Z</time>
      </trkpt>
      <trkpt lat="45.22812" lon="6.20465">
        <ele>2060.5</ele>
        <time>2022-06-18T06:16:50Z</time>
      </trkpt>
      <trkpt lat="45.22821" lon="6.20466">
        <ele>2059.6</ele>
        <time>2022-06-18T06:16:51Z</time>
      </trkpt>
      <trkpt lat="45.22829" lon="6.20466">
        <ele>2058.7</ele>
        <time>2022-06-18T06:16:52Z</time>
      </trkpt>
      <trkpt lat="45.22837" lon="6.20468">
        <ele>2057.8</ele>
        <time>2022-06-18T06:16:53Z</time>
      </trkpt>
      <trkpt lat="45.22844" lon="6.20474">
        <ele>2056.9</ele>
        <time>2022-06-18T06:16:54Z</time>
      </trkpt>
      <trkpt lat="45.22849" lon="6.20482">
        <ele>2056</ele>
        <time>2022-06-18T06:16:55Z</time>
      </trkpt>
      <trkpt lat="45.22854" lon="6.20493">
        <ele>2055</ele>
        <time>2022-06-18T06:16:56Z</time>
      </trkpt>
      <trkpt lat="45.22859" lon="6.20504">
        <ele>2054</ele>
        <time>2022-06-18T06:16:57Z</time>
      </trkpt>
      <trkpt lat="45.22864" lon="6.20516">
        <ele>2052.9</ele>
        <time>2022-06-18T06:16:58Z</time>
      </trkpt>
      <trkpt lat="45.2287" lon="6.20527">
        <ele>2051.8</ele>
        <time>2022-06-18T06:16:59Z</time>
      </trkpt>
      <trkpt lat="45.22876" lon="6.20538">
        <ele>2050.8</ele>
        <time>2022-06-18T06:17:00Z</time>
      </trkpt>
      <trkpt lat="45.22883" lon="6.2055">
        <ele>2049.7</ele>
        <time>2022-06-18T06:17:01Z</time>
      </trkpt>
      <trkpt lat="45.22889" lon="6.20562">
        <ele>2048.6</ele>
        <time>2022-06-18T06:17:02Z</time>
      </trkpt>
      <trkpt lat="45.22896" lon="6.20575">
        <ele>2047.5</ele>
        <time>2022-06-18T06:17:03Z</time>
      </trkpt>
      <trkpt lat="45.22903" lon="6.20589">
        <ele>2046.4</ele>
        <time>2022-06-18T06:17:04Z</time>
      </trkpt>
      <trkpt lat="45.22909" lon="6.20603">
        <ele>2045.2</ele>
        <time>2022-06-18T06:17:05Z</time>
      </trkpt>
      <trkpt lat="45.22915" lon="6.20616">
        <ele>2044.1</ele>
        <time>2022-06-18T06:17:06Z</time>
      </trkpt>
      <trkpt lat="45.22922" lon="6.20631">
        <ele>2042.9</ele>
        <time>2022-06-18T06:17:07Z</time>
      </trkpt>
      <trkpt lat="45.22927" lon="6.20646">
        <ele>2041.7</ele>
        <time>2022-06-18T06:17:08Z</time>
      </trkpt>
      <trkpt lat="45.22933" lon="6.20662">
        <ele>2040.4</ele>
        <time>2022-06-18T06:17:09Z</time>
      </trkpt>
      <trkpt lat="45.22939" lon="6.20677">
        <ele>2039.1</ele>
        <time>2022-06-18T06:17:10Z</time>
      </trkpt>
      <trkpt lat="45.22946" lon="6.20692">
        <ele>2037.8</ele>
        <time>2022-06-18T06:17:11Z</time>
      </trkpt>
      <trkpt lat="45.22952" lon="6.20708">
        <ele>2036.4</ele>
        <time>2022-06-18T06:17:12Z</time>
      </trkpt>
      <trkpt lat="45.2296" lon="6.20723">
        <ele>2035.1</ele>
        <time>2022-06-18T06:17:13Z</time>
      </trkpt>
      <trkpt lat="45.22968" lon="6.20737">
        <ele>2033.8</ele>
        <time>2022-06-18T06:17:14Z</time>
      </trkpt>
      <trkpt lat="45.22977" lon="6.20752">
        <ele>2032.6</ele>
        <time>2022-06-18T06:17:15Z</time>
      </trkpt>
      <trkpt lat="45.22986" lon="6.20766">
        <ele>2031.3</ele>
        <time>2022-06-18T06:17:16Z</time>
      </trkpt>
      <trkpt lat="45.22994" lon="6.20781">
        <ele>2030.1</ele>
        <time>2022-06-18T06:17:17Z</time>
      </trkpt>
      <trkpt lat="45.23001" lon="6.20795">
        <ele>2029</ele>
        <time>2022-06-18T06:17:18Z</time>
      </trkpt>
      <trkpt lat="45.23015" lon="6.2082">
        <ele>2027.1</ele>
        <time>2022-06-18T06:17:20Z</time>
      </trkpt>
      <trkpt lat="45.23022" lon="6.20833">
        <ele>2026.2</ele>
        <time>2022-06-18T06:17:21Z</time>
      </trkpt>
      <trkpt lat="45.23029" lon="6.20846">
        <ele>2025.3</ele>
        <time>2022-06-18T06:17:22Z</time>
      </trkpt>
      <trkpt lat="45.23035" lon="6.20859">
        <ele>2024.5</ele>
        <time>2022-06-18T06:17:23Z</time>
      </trkpt>
      <trkpt lat="45.23042" lon="6.20871">
        <ele>2023.6</ele>
        <time>2022-06-18T06:17:24Z</time>
      </trkpt>
      <trkpt lat="45.23049" lon="6.20883">
        <ele>2022.8</ele>
        <time>2022-06-18T06:17:25Z</time>
      </trkpt>
      <trkpt lat="45.23054" lon="6.20895">
        <ele>2022</ele>
        <time>2022-06-18T06:17:26Z</time>
      </trkpt>
      <trkpt lat="45.2306" lon="6.20908">
        <ele>2021.1</ele>
        <time>2022-06-18T06:17:27Z</time>
      </trkpt>
      <trkpt lat="45.23064" lon="6.20921">
        <ele>2020.1</ele>
        <time>2022-06-18T06:17:28Z</time>
      </trkpt>
      <trkpt lat="45.23068" lon="6.20936">
        <ele>2019.1</ele>
        <time>2022-06-18T06:17:29Z</time>
      </trkpt>
      <trkpt lat="45.23071" lon="6.20951">
        <ele>2018.1</ele>
        <time>2022-06-18T06:17:30Z</time>
      </trkpt>
      <trkpt lat="45.23072" lon="6.20966">
        <ele>2017.2</ele>
        <time>2022-06-18T06:17:31Z</time>
      </trkpt>
      <trkpt lat="45.23073" lon="6.20982">
        <ele>2016.3</ele>
        <time>2022-06-18T06:17:32Z</time>
      </trkpt>
      <trkpt lat="45.23072" lon="6.20998">
        <ele>2015.5</ele>
        <time>2022-06-18T06:17:33Z</time>
      </trkpt>
      <trkpt lat="45.23072" lon="6.21015">
        <ele>2015</ele>
        <time>2022-06-18T06:17:34Z</time>
      </trkpt>
      <trkpt lat="45.23073" lon="6.21031">
        <ele>2014.7</ele>
        <time>2022-06-18T06:17:35Z</time>
      </trkpt>
      <trkpt lat="45.23073" lon="6.21046">
        <ele>2014.3</ele>
        <time>2022-06-18T06:17:36Z</time>
      </trkpt>
      <trkpt lat="45.23073" lon="6.21059">
        <ele>2013.8</ele>
        <time>2022-06-18T06:17:37Z</time>
      </trkpt>
      <trkpt lat="45.23073" lon="6.21068">
        <ele>2013.5</ele>
        <time>2022-06-18T06:17:38Z</time>
      </trkpt>
      <trkpt lat="45.23071" lon="6.21073">
        <ele>2013.4</ele>
        <time>2022-06-18T06:17:39Z</time>
      </trkpt>
      <trkpt lat="45.23067" lon="6.21074">
        <ele>2013.3</ele>
        <time>2022-06-18T06:17:40Z</time>
      </trkpt>
      <trkpt lat="45.2306" lon="6.21069">
        <ele>2013.2</ele>
        <time>2022-06-18T06:17:41Z</time>
      </trkpt>
      <trkpt lat="45.23055" lon="6.21058">
        <ele>2012.1</ele>
        <time>2022-06-18T06:17:42Z</time>
      </trkpt>
      <trkpt lat="45.23054" lon="6.21045">
        <ele>2011.1</ele>
        <time>2022-06-18T06:17:43Z</time>
      </trkpt>
      <trkpt lat="45.23055" lon="6.21032">
        <ele>2010</ele>
        <time>2022-06-18T06:17:44Z</time>
      </trkpt>
      <trkpt lat="45.23057" lon="6.21019">
        <ele>2009</ele>
        <time>2022-06-18T06:17:45Z</time>
      </trkpt>
      <trkpt lat="45.23058" lon="6.21007">
        <ele>2008.1</ele>
        <time>2022-06-18T06:17:46Z</time>
      </trkpt>
      <trkpt lat="45.23057" lon="6.20997">
        <ele>2007.4</ele>
        <time>2022-06-18T06:17:47Z</time>
      </trkpt>
      <trkpt lat="45.23056" lon="6.20989">
        <ele>2006.8</ele>
        <time>2022-06-18T06:17:48Z</time>
      </trkpt>
      <trkpt lat="45.23054" lon="6.20984">
        <ele>2006.4</ele>
        <time>2022-06-18T06:17:49Z</time>
      </trkpt>
      <trkpt lat="45.23052" lon="6.20981">
        <ele>2006.1</ele>
        <time>2022-06-18T06:17:50Z</time>
      </trkpt>
      <trkpt lat="45.23051" lon="6.20981">
        <ele>2006</ele>
        <time>2022-06-18T06:17:51Z</time>
      </trkpt>
      <trkpt lat="45.23051" lon="6.20983">
        <ele>2005.8</ele>
        <time>2022-06-18T06:17:52Z</time>
      </trkpt>
      <trkpt lat="45.23051" lon="6.20985">
        <ele>2005.6</ele>
        <time>2022-06-18T06:17:53Z</time>
      </trkpt>
      <trkpt lat="45.23052" lon="6.20987">
        <ele>2005.5</ele>
        <time>2022-06-18T06:17:54Z</time>
      </trkpt>
      <trkpt lat="45.23051" lon="6.20987">
        <ele>2005.5</ele>
        <time>2022-06-18T06:17:55Z</time>
      </trkpt>
      <trkpt lat="45.23052" lon="6.20989">
        <ele>2005.3</ele>
        <time>2022-06-18T06:17:56Z</time>
      </trkpt>
      <trkpt lat="45.23052" lon="6.2099">
        <ele>2005.2</ele>
        <time>2022-06-18T06:17:57Z</time>
      </trkpt>
      <trkpt lat="45.23052" lon="6.20991">
        <ele>2005.2</ele>
        <time>2022-06-18T06:17:58Z</time>
      </trkpt>
      <trkpt lat="45.23052" lon="6.20989">
        <ele>2005.1</ele>
        <time>2022-06-18T06:17:59Z</time>
      </trkpt>
      <trkpt lat="45.23052" lon="6.20988">
        <ele>2005</ele>
        <time>2022-06-18T06:18:00Z</time>
      </trkpt>
      <trkpt lat="45.23051" lon="6.20987">
        <ele>2004.9</ele>
        <time>2022-06-18T06:18:01Z</time>
      </trkpt>
      <trkpt lat="45.23051" lon="6.20986">
        <ele>2004.8</ele>
        <time>2022-06-18T06:18:02Z</time>
      </trkpt>
      <trkpt lat="45.2305" lon="6.20985">
        <ele>2004.7</ele>
        <time>2022-06-18T06:18:03Z</time>
      </trkpt>
      <trkpt lat="45.2305" lon="6.20984">
        <ele>2004.6</ele>
        <time>2022-06-18T06:18:04Z</time>
      </trkpt>
      <trkpt lat="45.23049" lon="6.20982">
        <ele>2004.5</ele>
        <time>2022-06-18T06:18:05Z</time>
      </trkpt>
      <trkpt lat="45.23049" lon="6.20981">
        <ele>2004.4</ele>
        <time>2022-06-18T06:18:06Z</time>
      </trkpt>
      <trkpt lat="45.23048" lon="6.2098">
        <ele>2004.3</ele>
        <time>2022-06-18T06:18:07Z</time>
      </trkpt>
      <trkpt lat="45.23048" lon="6.20979">
        <ele>2004.2</ele>
        <time>2022-06-18T06:18:24Z</time>
      </trkpt>
      <trkpt lat="45.23048" lon="6.20978">
        <ele>2004.1</ele>
        <time>2022-06-18T06:18:25Z</time>
      </trkpt>
      <trkpt lat="45.23044" lon="6.20967">
        <ele>2003.2</ele>
        <time>2022-06-18T06:18:26Z</time>
      </trkpt>
      <trkpt lat="45.2304" lon="6.20961">
        <ele>2002.5</ele>
        <time>2022-06-18T06:18:27Z</time>
      </trkpt>
      <trkpt lat="45.23035" lon="6.20956">
        <ele>2001.8</ele>
        <time>2022-06-18T06:18:28Z</time>
      </trkpt>
      <trkpt lat="45.23029" lon="6.20951">
        <ele>2001.1</ele>
        <time>2022-06-18T06:18:29Z</time>
      </trkpt>
      <trkpt lat="45.23022" lon="6.20947">
        <ele>2000.2</ele>
        <time>2022-06-18T06:18:30Z</time>
      </trkpt>
      <trkpt lat="45.23014" lon="6.20943">
        <ele>1999.3</ele>
        <time>2022-06-18T06:18:31Z</time>
      </trkpt>
      <trkpt lat="45.23006" lon="6.20939">
        <ele>1998.4</ele>
        <time>2022-06-18T06:18:32Z</time>
      </trkpt>
      <trkpt lat="45.22998" lon="6.20935">
        <ele>1997.5</ele>
        <time>2022-06-18T06:18:33Z</time>
      </trkpt>
      <trkpt lat="45.22989" lon="6.2093">
        <ele>1996.6</ele>
        <time>2022-06-18T06:18:34Z</time>
      </trkpt>
      <trkpt lat="45.22981" lon="6.20925">
        <ele>1995.9</ele>
        <time>2022-06-18T06:18:35Z</time>
      </trkpt>
      <trkpt lat="45.22972" lon="6.2092">
        <ele>1995.2</ele>
        <time>2022-06-18T06:18:36Z</time>
      </trkpt>
      <trkpt lat="45.22963" lon="6.20914">
        <ele>1994.5</ele>
        <time>2022-06-18T06:18:37Z</time>
      </trkpt>
      <trkpt lat="45.22954" lon="6.20909">
        <ele>1993.9</ele>
        <time>2022-06-18T06:18:38Z</time>
      </trkpt>
      <trkpt lat="45.22944" lon="6.20903">
        <ele>1993.2</ele>
        <time>2022-06-18T06:18:39Z</time>
      </trkpt>
      <trkpt lat="45.22934" lon="6.20897">
        <ele>1992.6</ele>
        <time>2022-06-18T06:18:40Z</time>
      </trkpt>
      <trkpt lat="45.22924" lon="6.20891">
        <ele>1992</ele>
        <time>2022-06-18T06:18:41Z</time>
      </trkpt>
      <trkpt lat="45.22916" lon="6.20886">
        <ele>1991.7</ele>
        <time>2022-06-18T06:18:42Z</time>
      </trkpt>
      <trkpt lat="45.22908" lon="6.2088">
        <ele>1991.7</ele>
        <time>2022-06-18T06:18:43Z</time>
      </trkpt>
      <trkpt lat="45.22902" lon="6.20875">
        <ele>1991.2</ele>
        <time>2022-06-18T06:18:44Z</time>
      </trkpt>
      <trkpt lat="45.22897" lon="6.20874">
        <ele>1990.6</ele>
        <time>2022-06-18T06:18:45Z</time>
      </trkpt>
      <trkpt lat="45.22894" lon="6.2088">
        <ele>1990</ele>
        <time>2022-06-18T06:18:46Z</time>
      </trkpt>
      <trkpt lat="45.22893" lon="6.20884">
        <ele>1989.6</ele>
        <time>2022-06-18T06:18:47Z</time>
      </trkpt>
      <trkpt lat="45.22893" lon="6.20897">
        <ele>1988.6</ele>
        <time>2022-06-18T06:18:48Z</time>
      </trkpt>
      <trkpt lat="45.22896" lon="6.20912">
        <ele>1987.5</ele>
        <time>2022-06-18T06:18:49Z</time>
      </trkpt>
      <trkpt lat="45.22899" lon="6.20927">
        <ele>1986.5</ele>
        <time>2022-06-18T06:18:50Z</time>
      </trkpt>
      <trkpt lat="45.22901" lon="6.20942">
        <ele>1985.6</ele>
        <time>2022-06-18T06:18:51Z</time>
      </trkpt>
      <trkpt lat="45.22902" lon="6.20956">
        <ele>1984.7</ele>
        <time>2022-06-18T06:18:52Z</time>
      </trkpt>
      <trkpt lat="45.22903" lon="6.20971">
        <ele>1983.8</ele>
        <time>2022-06-18T06:18:53Z</time>
      </trkpt>
      <trkpt lat="45.22903" lon="6.20986">
        <ele>1983</ele>
        <time>2022-06-18T06:18:54Z</time>
      </trkpt>
      <trkpt lat="45.22903" lon="6.21001">
        <ele>1982.1</ele>
        <time>2022-06-18T06:18:55Z</time>
      </trkpt>
      <trkpt lat="45.22902" lon="6.21016">
        <ele>1981.2</ele>
        <time>2022-06-18T06:18:56Z</time>
      </trkpt>
      <trkpt lat="45.22902" lon="6.21032">
        <ele>1980.3</ele>
        <time>2022-06-18T06:18:57Z</time>
      </trkpt>
      <trkpt lat="45.22901" lon="6.21048">
        <ele>1979.4</ele>
        <time>2022-06-18T06:18:58Z</time>
      </trkpt>
      <trkpt lat="45.229" lon="6.21064">
        <ele>1978.5</ele>
        <time>2022-06-18T06:18:59Z</time>
      </trkpt>
      <trkpt lat="45.22898" lon="6.21079">
        <ele>1977.6</ele>
        <time>2022-06-18T06:19:00Z</time>
      </trkpt>
      <trkpt lat="45.22895" lon="6.21094">
        <ele>1976.7</ele>
        <time>2022-06-18T06:19:01Z</time>
      </trkpt>
      <trkpt lat="45.22892" lon="6.21108">
        <ele>1975.7</ele>
        <time>2022-06-18T06:19:02Z</time>
      </trkpt>
      <trkpt lat="45.22889" lon="6.21121">
        <ele>1974.8</ele>
        <time>2022-06-18T06:19:03Z</time>
      </trkpt>
      <trkpt lat="45.22889" lon="6.21134">
        <ele>1973.9</ele>
        <time>2022-06-18T06:19:04Z</time>
      </trkpt>
      <trkpt lat="45.22891" lon="6.21148">
        <ele>1973.1</ele>
        <time>2022-06-18T06:19:05Z</time>
      </trkpt>
      <trkpt lat="45.22895" lon="6.21162">
        <ele>1972.1</ele>
        <time>2022-06-18T06:19:06Z</time>
      </trkpt>
      <trkpt lat="45.22899" lon="6.21177">
        <ele>1971.2</ele>
        <time>2022-06-18T06:19:07Z</time>
      </trkpt>
      <trkpt lat="45.22901" lon="6.21193">
        <ele>1970.3</ele>
        <time>2022-06-18T06:19:08Z</time>
      </trkpt>
      <trkpt lat="45.22902" lon="6.2121">
        <ele>1969.4</ele>
        <time>2022-06-18T06:19:09Z</time>
      </trkpt>
      <trkpt lat="45.22902" lon="6.21227">
        <ele>1968.5</ele>
        <time>2022-06-18T06:19:10Z</time>
      </trkpt>
      <trkpt lat="45.229" lon="6.21243">
        <ele>1967.5</ele>
        <time>2022-06-18T06:19:11Z</time>
      </trkpt>
      <trkpt lat="45.22897" lon="6.21258">
        <ele>1966.5</ele>
        <time>2022-06-18T06:19:12Z</time>
      </trkpt>
      <trkpt lat="45.22892" lon="6.21272">
        <ele>1965.5</ele>
        <time>2022-06-18T06:19:13Z</time>
      </trkpt>
      <trkpt lat="45.22884" lon="6.21284">
        <ele>1964.4</ele>
        <time>2022-06-18T06:19:14Z</time>
      </trkpt>
      <trkpt lat="45.22876" lon="6.21296">
        <ele>1963.4</ele>
        <time>2022-06-18T06:19:15Z</time>
      </trkpt>
      <trkpt lat="45.22868" lon="6.21309">
        <ele>1962.4</ele>
        <time>2022-06-18T06:19:16Z</time>
      </trkpt>
      <trkpt lat="45.2286" lon="6.21321">
        <ele>1961.5</ele>
        <time>2022-06-18T06:19:17Z</time>
      </trkpt>
      <trkpt lat="45.22855" lon="6.21333">
        <ele>1960.7</ele>
        <time>2022-06-18T06:19:18Z</time>
      </trkpt>
      <trkpt lat="45.22853" lon="6.21344">
        <ele>1959.9</ele>
        <time>2022-06-18T06:19:19Z</time>
      </trkpt>
      <trkpt lat="45.22854" lon="6.21355">
        <ele>1959.1</ele>
        <time>2022-06-18T06:19:20Z</time>
      </trkpt>
      <trkpt lat="45.22859" lon="6.21365">
        <ele>1958.2</ele>
        <time>2022-06-18T06:19:21Z</time>
      </trkpt>
      <trkpt lat="45.22868" lon="6.21372">
        <ele>1957.1</ele>
        <time>2022-06-18T06:19:22Z</time>
      </trkpt>
      <trkpt lat="45.22878" lon="6.21377">
        <ele>1956</ele>
        <time>2022-06-18T06:19:23Z</time>
      </trkpt>
      <trkpt lat="45.2289" lon="6.21382">
        <ele>1955</ele>
        <time>2022-06-18T06:19:24Z</time>
      </trkpt>
      <trkpt lat="45.22901" lon="6.21387">
        <ele>1954.1</ele>
        <time>2022-06-18T06:19:25Z</time>
      </trkpt>
      <trkpt lat="45.22912" lon="6.21394">
        <ele>1953.5</ele>
        <time>2022-06-18T06:19:26Z</time>
      </trkpt>
      <trkpt lat="45.2292" lon="6.21404">
        <ele>1952.7</ele>
        <time>2022-06-18T06:19:27Z</time>
      </trkpt>
      <trkpt lat="45.22927" lon="6.21417">
        <ele>1952</ele>
        <time>2022-06-18T06:19:28Z</time>
      </trkpt>
      <trkpt lat="45.2293" lon="6.21432">
        <ele>1951.3</ele>
        <time>2022-06-18T06:19:29Z</time>
      </trkpt>
      <trkpt lat="45.22929" lon="6.2145">
        <ele>1950.4</ele>
        <time>2022-06-18T06:19:30Z</time>
      </trkpt>
      <trkpt lat="45.22927" lon="6.21466">
        <ele>1949.5</ele>
        <time>2022-06-18T06:19:31Z</time>
      </trkpt>
      <trkpt lat="45.22927" lon="6.21479">
        <ele>1948.6</ele>
        <time>2022-06-18T06:19:32Z</time>
      </trkpt>
      <trkpt lat="45.22929" lon="6.2149">
        <ele>1947.7</ele>
        <time>2022-06-18T06:19:33Z</time>
      </trkpt>
      <trkpt lat="45.22934" lon="6.21498">
        <ele>1946.8</ele>
        <time>2022-06-18T06:19:34Z</time>
      </trkpt>
      <trkpt lat="45.22943" lon="6.21503">
        <ele>1945.7</ele>
        <time>2022-06-18T06:19:35Z</time>
      </trkpt>
      <trkpt lat="45.22954" lon="6.21506">
        <ele>1944.5</ele>
        <time>2022-06-18T06:19:36Z</time>
      </trkpt>
      <trkpt lat="45.22965" lon="6.21507">
        <ele>1943.3</ele>
        <time>2022-06-18T06:19:37Z</time>
      </trkpt>
      <trkpt lat="45.22977" lon="6.21508">
        <ele>1942.2</ele>
        <time>2022-06-18T06:19:38Z</time>
      </trkpt>
      <trkpt lat="45.22988" lon="6.21509">
        <ele>1941.2</ele>
        <time>2022-06-18T06:19:39Z</time>
      </trkpt>
      <trkpt lat="45.23" lon="6.21512">
        <ele>1940.3</ele>
        <time>2022-06-18T06:19:40Z</time>
      </trkpt>
      <trkpt lat="45.23011" lon="6.21516">
        <ele>1939.3</ele>
        <time>2022-06-18T06:19:41Z</time>
      </trkpt>
      <trkpt lat="45.23023" lon="6.21521">
        <ele>1938.3</ele>
        <time>2022-06-18T06:19:42Z</time>
      </trkpt>
      <trkpt lat="45.23034" lon="6.21528">
        <ele>1937.2</ele>
        <time>2022-06-18T06:19:43Z</time>
      </trkpt>
      <trkpt lat="45.23045" lon="6.21538">
        <ele>1936.2</ele>
        <time>2022-06-18T06:19:44Z</time>
      </trkpt>
      <trkpt lat="45.23056" lon="6.21548">
        <ele>1935.2</ele>
        <time>2022-06-18T06:19:45Z</time>
      </trkpt>
      <trkpt lat="45.23065" lon="6.21561">
        <ele>1934.2</ele>
        <time>2022-06-18T06:19:46Z</time>
      </trkpt>
      <trkpt lat="45.23073" lon="6.21575">
        <ele>1933.2</ele>
        <time>2022-06-18T06:19:47Z</time>
      </trkpt>
      <trkpt lat="45.2308" lon="6.2159">
        <ele>1932.4</ele>
        <time>2022-06-18T06:19:48Z</time>
      </trkpt>
      <trkpt lat="45.23086" lon="6.21606">
        <ele>1931.9</ele>
        <time>2022-06-18T06:19:49Z</time>
      </trkpt>
      <trkpt lat="45.23094" lon="6.21621">
        <ele>1931.7</ele>
        <time>2022-06-18T06:19:50Z</time>
      </trkpt>
      <trkpt lat="45.231" lon="6.21635">
        <ele>1931.6</ele>
        <time>2022-06-18T06:19:51Z</time>
      </trkpt>
      <trkpt lat="45.23106" lon="6.21648">
        <ele>1931.5</ele>
        <time>2022-06-18T06:19:52Z</time>
      </trkpt>
      <trkpt lat="45.23111" lon="6.21659">
        <ele>1931.1</ele>
        <time>2022-06-18T06:19:53Z</time>
      </trkpt>
      <trkpt lat="45.23115" lon="6.21668">
        <ele>1930.4</ele>
        <time>2022-06-18T06:19:54Z</time>
      </trkpt>
      <trkpt lat="45.23115" lon="6.21675">
        <ele>1929.8</ele>
        <time>2022-06-18T06:19:55Z</time>
      </trkpt>
      <trkpt lat="45.23112" lon="6.21678">
        <ele>1929.3</ele>
        <time>2022-06-18T06:19:56Z</time>
      </trkpt>
      <trkpt lat="45.23105" lon="6.2168">
        <ele>1928.2</ele>
        <time>2022-06-18T06:19:57Z</time>
      </trkpt>
      <trkpt lat="45.23097" lon="6.21674">
        <ele>1927.1</ele>
        <time>2022-06-18T06:19:58Z</time>
      </trkpt>
      <trkpt lat="45.2309" lon="6.21665">
        <ele>1926.1</ele>
        <time>2022-06-18T06:19:59Z</time>
      </trkpt>
      <trkpt lat="45.23085" lon="6.21654">
        <ele>1925.2</ele>
        <time>2022-06-18T06:20:00Z</time>
      </trkpt>
      <trkpt lat="45.23081" lon="6.21644">
        <ele>1924.5</ele>
        <time>2022-06-18T06:20:01Z</time>
      </trkpt>
      <trkpt lat="45.23078" lon="6.21636">
        <ele>1923.9</ele>
        <time>2022-06-18T06:20:02Z</time>
      </trkpt>
      <trkpt lat="45.23074" lon="6.21628">
        <ele>1923.4</ele>
        <time>2022-06-18T06:20:03Z</time>
      </trkpt>
      <trkpt lat="45.23069" lon="6.2162">
        <ele>1922.8</ele>
        <time>2022-06-18T06:20:04Z</time>
      </trkpt>
      <trkpt lat="45.23062" lon="6.21614">
        <ele>1922.1</ele>
        <time>2022-06-18T06:20:05Z</time>
      </trkpt>
      <trkpt lat="45.23054" lon="6.21609">
        <ele>1921.4</ele>
        <time>2022-06-18T06:20:06Z</time>
      </trkpt>
      <trkpt lat="45.23044" lon="6.21606">
        <ele>1920.6</ele>
        <time>2022-06-18T06:20:07Z</time>
      </trkpt>
      <trkpt lat="45.23034" lon="6.21605">
        <ele>1919.8</ele>
        <time>2022-06-18T06:20:08Z</time>
      </trkpt>
      <trkpt lat="45.23024" lon="6.21604">
        <ele>1919</ele>
        <time>2022-06-18T06:20:09Z</time>
      </trkpt>
      <trkpt lat="45.23013" lon="6.21604">
        <ele>1918.1</ele>
        <time>2022-06-18T06:20:10Z</time>
      </trkpt>
      <trkpt lat="45.23003" lon="6.21603">
        <ele>1917.4</ele>
        <time>2022-06-18T06:20:11Z</time>
      </trkpt>
      <trkpt lat="45.22992" lon="6.21602">
        <ele>1916.6</ele>
        <time>2022-06-18T06:20:12Z</time>
      </trkpt>
      <trkpt lat="45.22981" lon="6.21601">
        <ele>1915.7</ele>
        <time>2022-06-18T06:20:13Z</time>
      </trkpt>
      <trkpt lat="45.2297" lon="6.216">
        <ele>1914.8</ele>
        <time>2022-06-18T06:20:14Z</time>
      </trkpt>
      <trkpt lat="45.22958" lon="6.216">
        <ele>1913.8</ele>
        <time>2022-06-18T06:20:15Z</time>
      </trkpt>
      <trkpt lat="45.22948" lon="6.21599">
        <ele>1912.9</ele>
        <time>2022-06-18T06:20:16Z</time>
      </trkpt>
      <trkpt lat="45.22938" lon="6.21597">
        <ele>1912</ele>
        <time>2022-06-18T06:20:17Z</time>
      </trkpt>
      <trkpt lat="45.22929" lon="6.21594">
        <ele>1911.1</ele>
        <time>2022-06-18T06:20:18Z</time>
      </trkpt>
      <trkpt lat="45.2292" lon="6.21588">
        <ele>1910.1</ele>
        <time>2022-06-18T06:20:19Z</time>
      </trkpt>
      <trkpt lat="45.22912" lon="6.2158">
        <ele>1909</ele>
        <time>2022-06-18T06:20:20Z</time>
      </trkpt>
      <trkpt lat="45.22904" lon="6.2157">
        <ele>1907.9</ele>
        <time>2022-06-18T06:20:21Z</time>
      </trkpt>
      <trkpt lat="45.22895" lon="6.21559">
        <ele>1906.8</ele>
        <time>2022-06-18T06:20:22Z</time>
      </trkpt>
      <trkpt lat="45.22885" lon="6.2155">
        <ele>1905.8</ele>
        <time>2022-06-18T06:20:23Z</time>
      </trkpt>
      <trkpt lat="45.22874" lon="6.21542">
        <ele>1904.8</ele>
        <time>2022-06-18T06:20:24Z</time>
      </trkpt>
      <trkpt lat="45.22864" lon="6.21535">
        <ele>1903.9</ele>
        <time>2022-06-18T06:20:25Z</time>
      </trkpt>
      <trkpt lat="45.22853" lon="6.2153">
        <ele>1903</ele>
        <time>2022-06-18T06:20:26Z</time>
      </trkpt>
      <trkpt lat="45.22841" lon="6.21525">
        <ele>1902.1</ele>
        <time>2022-06-18T06:20:27Z</time>
      </trkpt>
      <trkpt lat="45.22829" lon="6.21521">
        <ele>1901.2</ele>
        <time>2022-06-18T06:20:28Z</time>
      </trkpt>
      <trkpt lat="45.22819" lon="6.21516">
        <ele>1900.3</ele>
        <time>2022-06-18T06:20:29Z</time>
      </trkpt>
      <trkpt lat="45.22809" lon="6.21512">
        <ele>1899.5</ele>
        <time>2022-06-18T06:20:30Z</time>
      </trkpt>
      <trkpt lat="45.22799" lon="6.21505">
        <ele>1898.7</ele>
        <time>2022-06-18T06:20:31Z</time>
      </trkpt>
      <trkpt lat="45.2279" lon="6.21498">
        <ele>1897.8</ele>
        <time>2022-06-18T06:20:32Z</time>
      </trkpt>
      <trkpt lat="45.22782" lon="6.21489">
        <ele>1896.9</ele>
        <time>2022-06-18T06:20:33Z</time>
      </trkpt>
      <trkpt lat="45.22774" lon="6.21479">
        <ele>1896</ele>
        <time>2022-06-18T06:20:34Z</time>
      </trkpt>
      <trkpt lat="45.22768" lon="6.21469">
        <ele>1895.1</ele>
        <time>2022-06-18T06:20:35Z</time>
      </trkpt>
      <trkpt lat="45.22763" lon="6.21457">
        <ele>1894</ele>
        <time>2022-06-18T06:20:36Z</time>
      </trkpt>
      <trkpt lat="45.2276" lon="6.21444">
        <ele>1892.8</ele>
        <time>2022-06-18T06:20:37Z</time>
      </trkpt>
      <trkpt lat="45.22757" lon="6.21429">
        <ele>1891.6</ele>
        <time>2022-06-18T06:20:38Z</time>
      </trkpt>
      <trkpt lat="45.22753" lon="6.21414">
        <ele>1890.4</ele>
        <time>2022-06-18T06:20:39Z</time>
      </trkpt>
      <trkpt lat="45.22748" lon="6.21398">
        <ele>1889.2</ele>
        <time>2022-06-18T06:20:40Z</time>
      </trkpt>
      <trkpt lat="45.22743" lon="6.21382">
        <ele>1887.9</ele>
        <time>2022-06-18T06:20:41Z</time>
      </trkpt>
      <trkpt lat="45.22738" lon="6.21367">
        <ele>1886.6</ele>
        <time>2022-06-18T06:20:42Z</time>
      </trkpt>
      <trkpt lat="45.22732" lon="6.21354">
        <ele>1885.5</ele>
        <time>2022-06-18T06:20:43Z</time>
      </trkpt>
      <trkpt lat="45.22725" lon="6.21343">
        <ele>1884.5</ele>
        <time>2022-06-18T06:20:44Z</time>
      </trkpt>
      <trkpt lat="45.22716" lon="6.21334">
        <ele>1883.4</ele>
        <time>2022-06-18T06:20:45Z</time>
      </trkpt>
      <trkpt lat="45.22706" lon="6.21325">
        <ele>1882.3</ele>
        <time>2022-06-18T06:20:46Z</time>
      </trkpt>
      <trkpt lat="45.22696" lon="6.21317">
        <ele>1881.3</ele>
        <time>2022-06-18T06:20:47Z</time>
      </trkpt>
      <trkpt lat="45.22684" lon="6.21311">
        <ele>1880.1</ele>
        <time>2022-06-18T06:20:48Z</time>
      </trkpt>
      <trkpt lat="45.22671" lon="6.21306">
        <ele>1879</ele>
        <time>2022-06-18T06:20:49Z</time>
      </trkpt>
      <trkpt lat="45.22658" lon="6.21301">
        <ele>1877.9</ele>
        <time>2022-06-18T06:20:50Z</time>
      </trkpt>
      <trkpt lat="45.22646" lon="6.21296">
        <ele>1876.8</ele>
        <time>2022-06-18T06:20:51Z</time>
      </trkpt>
      <trkpt lat="45.22635" lon="6.21289">
        <ele>1876.1</ele>
        <time>2022-06-18T06:20:52Z</time>
      </trkpt>
      <trkpt lat="45.22625" lon="6.21281">
        <ele>1875.5</ele>
        <time>2022-06-18T06:20:53Z</time>
      </trkpt>
      <trkpt lat="45.22616" lon="6.21273">
        <ele>1875</ele>
        <time>2022-06-18T06:20:54Z</time>
      </trkpt>
      <trkpt lat="45.22607" lon="6.21264">
        <ele>1874.6</ele>
        <time>2022-06-18T06:20:55Z</time>
      </trkpt>
      <trkpt lat="45.226" lon="6.21256">
        <ele>1874.3</ele>
        <time>2022-06-18T06:20:56Z</time>
      </trkpt>
      <trkpt lat="45.22594" lon="6.21249">
        <ele>1873.9</ele>
        <time>2022-06-18T06:20:57Z</time>
      </trkpt>
      <trkpt lat="45.22589" lon="6.21245">
        <ele>1873.6</ele>
        <time>2022-06-18T06:20:58Z</time>
      </trkpt>
      <trkpt lat="45.22585" lon="6.21243">
        <ele>1872.9</ele>
        <time>2022-06-18T06:20:59Z</time>
      </trkpt>
      <trkpt lat="45.22581" lon="6.21247">
        <ele>1872.3</ele>
        <time>2022-06-18T06:21:00Z</time>
      </trkpt>
      <trkpt lat="45.22581" lon="6.21253">
        <ele>1871.7</ele>
        <time>2022-06-18T06:21:01Z</time>
      </trkpt>
      <trkpt lat="45.22584" lon="6.21264">
        <ele>1870.5</ele>
        <time>2022-06-18T06:21:02Z</time>
      </trkpt>
      <trkpt lat="45.22589" lon="6.21276">
        <ele>1869.2</ele>
        <time>2022-06-18T06:21:03Z</time>
      </trkpt>
      <trkpt lat="45.22596" lon="6.21284">
        <ele>1868</ele>
        <time>2022-06-18T06:21:04Z</time>
      </trkpt>
      <trkpt lat="45.22605" lon="6.21291">
        <ele>1866.9</ele>
        <time>2022-06-18T06:21:05Z</time>
      </trkpt>
      <trkpt lat="45.22613" lon="6.21298">
        <ele>1865.9</ele>
        <time>2022-06-18T06:21:06Z</time>
      </trkpt>
      <trkpt lat="45.22621" lon="6.21306">
        <ele>1864.9</ele>
        <time>2022-06-18T06:21:07Z</time>
      </trkpt>
      <trkpt lat="45.22628" lon="6.21315">
        <ele>1863.9</ele>
        <time>2022-06-18T06:21:08Z</time>
      </trkpt>
      <trkpt lat="45.22636" lon="6.21324">
        <ele>1862.9</ele>
        <time>2022-06-18T06:21:09Z</time>
      </trkpt>
      <trkpt lat="45.22643" lon="6.21334">
        <ele>1861.9</ele>
        <time>2022-06-18T06:21:10Z</time>
      </trkpt>
      <trkpt lat="45.22651" lon="6.21345">
        <ele>1860.9</ele>
        <time>2022-06-18T06:21:11Z</time>
      </trkpt>
      <trkpt lat="45.22658" lon="6.21355">
        <ele>1859.9</ele>
        <time>2022-06-18T06:21:12Z</time>
      </trkpt>
      <trkpt lat="45.22667" lon="6.21365">
        <ele>1858.8</ele>
        <time>2022-06-18T06:21:13Z</time>
      </trkpt>
      <trkpt lat="45.22675" lon="6.21375">
        <ele>1857.7</ele>
        <time>2022-06-18T06:21:14Z</time>
      </trkpt>
      <trkpt lat="45.22683" lon="6.21387">
        <ele>1856.5</ele>
        <time>2022-06-18T06:21:15Z</time>
      </trkpt>
      <trkpt lat="45.2269" lon="6.214">
        <ele>1855.3</ele>
        <time>2022-06-18T06:21:16Z</time>
      </trkpt>
      <trkpt lat="45.22696" lon="6.21414">
        <ele>1854.2</ele>
        <time>2022-06-18T06:21:17Z</time>
      </trkpt>
      <trkpt lat="45.22702" lon="6.21429">
        <ele>1853</ele>
        <time>2022-06-18T06:21:18Z</time>
      </trkpt>
      <trkpt lat="45.22709" lon="6.21443">
        <ele>1851.9</ele>
        <time>2022-06-18T06:21:19Z</time>
      </trkpt>
      <trkpt lat="45.22715" lon="6.21458">
        <ele>1850.8</ele>
        <time>2022-06-18T06:21:20Z</time>
      </trkpt>
      <trkpt lat="45.22722" lon="6.21472">
        <ele>1849.7</ele>
        <time>2022-06-18T06:21:21Z</time>
      </trkpt>
      <trkpt lat="45.22729" lon="6.21487">
        <ele>1848.5</ele>
        <time>2022-06-18T06:21:22Z</time>
      </trkpt>
      <trkpt lat="45.22736" lon="6.21502">
        <ele>1847.3</ele>
        <time>2022-06-18T06:21:23Z</time>
      </trkpt>
      <trkpt lat="45.22743" lon="6.21517">
        <ele>1846</ele>
        <time>2022-06-18T06:21:24Z</time>
      </trkpt>
      <trkpt lat="45.22751" lon="6.21531">
        <ele>1844.9</ele>
        <time>2022-06-18T06:21:25Z</time>
      </trkpt>
      <trkpt lat="45.22758" lon="6.21546">
        <ele>1843.8</ele>
        <time>2022-06-18T06:21:26Z</time>
      </trkpt>
      <trkpt lat="45.22765" lon="6.21562">
        <ele>1842.8</ele>
        <time>2022-06-18T06:21:27Z</time>
      </trkpt>
      <trkpt lat="45.22771" lon="6.21578">
        <ele>1842</ele>
        <time>2022-06-18T06:21:28Z</time>
      </trkpt>
      <trkpt lat="45.22776" lon="6.21594">
        <ele>1841.3</ele>
        <time>2022-06-18T06:21:29Z</time>
      </trkpt>
      <trkpt lat="45.22781" lon="6.21611">
        <ele>1840.6</ele>
        <time>2022-06-18T06:21:30Z</time>
      </trkpt>
      <trkpt lat="45.22786" lon="6.21628">
        <ele>1840.1</ele>
        <time>2022-06-18T06:21:31Z</time>
      </trkpt>
      <trkpt lat="45.22791" lon="6.21645">
        <ele>1839.8</ele>
        <time>2022-06-18T06:21:32Z</time>
      </trkpt>
      <trkpt lat="45.22797" lon="6.21661">
        <ele>1839.7</ele>
        <time>2022-06-18T06:21:33Z</time>
      </trkpt>
      <trkpt lat="45.22801" lon="6.21674">
        <ele>1839.6</ele>
        <time>2022-06-18T06:21:34Z</time>
      </trkpt>
      <trkpt lat="45.22803" lon="6.21683">
        <ele>1839.4</ele>
        <time>2022-06-18T06:21:35Z</time>
      </trkpt>
      <trkpt lat="45.22802" lon="6.21689">
        <ele>1839</ele>
        <time>2022-06-18T06:21:36Z</time>
      </trkpt>
      <trkpt lat="45.22796" lon="6.21692">
        <ele>1838.5</ele>
        <time>2022-06-18T06:21:37Z</time>
      </trkpt>
      <trkpt lat="45.22789" lon="6.21689">
        <ele>1837.5</ele>
        <time>2022-06-18T06:21:38Z</time>
      </trkpt>
      <trkpt lat="45.22782" lon="6.2168">
        <ele>1836.2</ele>
        <time>2022-06-18T06:21:39Z</time>
      </trkpt>
      <trkpt lat="45.22777" lon="6.21668">
        <ele>1835.1</ele>
        <time>2022-06-18T06:21:40Z</time>
      </trkpt>
      <trkpt lat="45.22773" lon="6.21655">
        <ele>1834</ele>
        <time>2022-06-18T06:21:41Z</time>
      </trkpt>
      <trkpt lat="45.2277" lon="6.21642">
        <ele>1832.9</ele>
        <time>2022-06-18T06:21:42Z</time>
      </trkpt>
      <trkpt lat="45.22767" lon="6.2163">
        <ele>1832</ele>
        <time>2022-06-18T06:21:43Z</time>
      </trkpt>
      <trkpt lat="45.22763" lon="6.21619">
        <ele>1831</ele>
        <time>2022-06-18T06:21:44Z</time>
      </trkpt>
      <trkpt lat="45.22759" lon="6.21607">
        <ele>1830.1</ele>
        <time>2022-06-18T06:21:45Z</time>
      </trkpt>
      <trkpt lat="45.22755" lon="6.21595">
        <ele>1829.2</ele>
        <time>2022-06-18T06:21:46Z</time>
      </trkpt>
      <trkpt lat="45.2275" lon="6.21582">
        <ele>1828.2</ele>
        <time>2022-06-18T06:21:47Z</time>
      </trkpt>
      <trkpt lat="45.22745" lon="6.2157">
        <ele>1827.2</ele>
        <time>2022-06-18T06:21:48Z</time>
      </trkpt>
      <trkpt lat="45.22738" lon="6.21558">
        <ele>1826.2</ele>
        <time>2022-06-18T06:21:49Z</time>
      </trkpt>
      <trkpt lat="45.2273" lon="6.21546">
        <ele>1825.1</ele>
        <time>2022-06-18T06:21:50Z</time>
      </trkpt>
      <trkpt lat="45.22722" lon="6.21535">
        <ele>1824</ele>
        <time>2022-06-18T06:21:51Z</time>
      </trkpt>
      <trkpt lat="45.22714" lon="6.21523">
        <ele>1822.8</ele>
        <time>2022-06-18T06:21:52Z</time>
      </trkpt>
      <trkpt lat="45.22705" lon="6.21513">
        <ele>1821.7</ele>
        <time>2022-06-18T06:21:53Z</time>
      </trkpt>
      <trkpt lat="45.22695" lon="6.21502">
        <ele>1820.5</ele>
        <time>2022-06-18T06:21:54Z</time>
      </trkpt>
      <trkpt lat="45.22685" lon="6.21491">
        <ele>1819.3</ele>
        <time>2022-06-18T06:21:55Z</time>
      </trkpt>
      <trkpt lat="45.22675" lon="6.21481">
        <ele>1818.2</ele>
        <time>2022-06-18T06:21:56Z</time>
      </trkpt>
      <trkpt lat="45.22665" lon="6.2147">
        <ele>1817.1</ele>
        <time>2022-06-18T06:21:57Z</time>
      </trkpt>
      <trkpt lat="45.22655" lon="6.2146">
        <ele>1815.9</ele>
        <time>2022-06-18T06:21:58Z</time>
      </trkpt>
      <trkpt lat="45.22646" lon="6.21451">
        <ele>1814.8</ele>
        <time>2022-06-18T06:21:59Z</time>
      </trkpt>
      <trkpt lat="45.22636" lon="6.21442">
        <ele>1813.7</ele>
        <time>2022-06-18T06:22:00Z</time>
      </trkpt>
      <trkpt lat="45.22626" lon="6.21435">
        <ele>1815.1</ele>
        <time>2022-06-18T06:22:01Z</time>
      </trkpt>
      <trkpt lat="45.22615" lon="6.21427">
        <ele>1813.5</ele>
        <time>2022-06-18T06:22:02Z</time>
      </trkpt>
      <trkpt lat="45.22604" lon="6.21419">
        <ele>1811.8</ele>
        <time>2022-06-18T06:22:03Z</time>
      </trkpt>
      <trkpt lat="45.22593" lon="6.21411">
        <ele>1810.1</ele>
        <time>2022-06-18T06:22:04Z</time>
      </trkpt>
      <trkpt lat="45.22582" lon="6.21403">
        <ele>1808.4</ele>
        <time>2022-06-18T06:22:05Z</time>
      </trkpt>
      <trkpt lat="45.22571" lon="6.21395">
        <ele>1806.8</ele>
        <time>2022-06-18T06:22:06Z</time>
      </trkpt>
      <trkpt lat="45.22559" lon="6.21389">
        <ele>1805.1</ele>
        <time>2022-06-18T06:22:07Z</time>
      </trkpt>
      <trkpt lat="45.22547" lon="6.21383">
        <ele>1803.4</ele>
        <time>2022-06-18T06:22:08Z</time>
      </trkpt>
      <trkpt lat="45.22536" lon="6.21377">
        <ele>1801.8</ele>
        <time>2022-06-18T06:22:09Z</time>
      </trkpt>
      <trkpt lat="45.22525" lon="6.21372">
        <ele>1800.2</ele>
        <time>2022-06-18T06:22:10Z</time>
      </trkpt>
      <trkpt lat="45.22514" lon="6.21366">
        <ele>1798.8</ele>
        <time>2022-06-18T06:22:11Z</time>
      </trkpt>
      <trkpt lat="45.22504" lon="6.21358">
        <ele>1797.7</ele>
        <time>2022-06-18T06:22:12Z</time>
      </trkpt>
      <trkpt lat="45.22494" lon="6.21348">
        <ele>1796.5</ele>
        <time>2022-06-18T06:22:13Z</time>
      </trkpt>
      <trkpt lat="45.22483" lon="6.21337">
        <ele>1795.3</ele>
        <time>2022-06-18T06:22:14Z</time>
      </trkpt>
      <trkpt lat="45.22473" lon="6.21326">
        <ele>1794.1</ele>
        <time>2022-06-18T06:22:15Z</time>
      </trkpt>
      <trkpt lat="45.22462" lon="6.21317">
        <ele>1793.1</ele>
        <time>2022-06-18T06:22:16Z</time>
      </trkpt>
      <trkpt lat="45.22452" lon="6.21308">
        <ele>1792</ele>
        <time>2022-06-18T06:22:17Z</time>
      </trkpt>
      <trkpt lat="45.22443" lon="6.21299">
        <ele>1791</ele>
        <time>2022-06-18T06:22:18Z</time>
      </trkpt>
      <trkpt lat="45.22435" lon="6.21287">
        <ele>1789.8</ele>
        <time>2022-06-18T06:22:19Z</time>
      </trkpt>
      <trkpt lat="45.22427" lon="6.21275">
        <ele>1788.6</ele>
        <time>2022-06-18T06:22:20Z</time>
      </trkpt>
      <trkpt lat="45.22419" lon="6.21262">
        <ele>1787.4</ele>
        <time>2022-06-18T06:22:21Z</time>
      </trkpt>
      <trkpt lat="45.22411" lon="6.21248">
        <ele>1786.2</ele>
        <time>2022-06-18T06:22:22Z</time>
      </trkpt>
      <trkpt lat="45.22403" lon="6.21234">
        <ele>1784.9</ele>
        <time>2022-06-18T06:22:23Z</time>
      </trkpt>
      <trkpt lat="45.22395" lon="6.21222">
        <ele>1783.7</ele>
        <time>2022-06-18T06:22:24Z</time>
      </trkpt>
      <trkpt lat="45.22385" lon="6.2121">
        <ele>1782.4</ele>
        <time>2022-06-18T06:22:25Z</time>
      </trkpt>
      <trkpt lat="45.22375" lon="6.212">
        <ele>1781.1</ele>
        <time>2022-06-18T06:22:26Z</time>
      </trkpt>
      <trkpt lat="45.22364" lon="6.21191">
        <ele>1779.8</ele>
        <time>2022-06-18T06:22:27Z</time>
      </trkpt>
      <trkpt lat="45.22353" lon="6.21183">
        <ele>1778.5</ele>
        <time>2022-06-18T06:22:28Z</time>
      </trkpt>
      <trkpt lat="45.22341" lon="6.21178">
        <ele>1777.2</ele>
        <time>2022-06-18T06:22:29Z</time>
      </trkpt>
      <trkpt lat="45.22328" lon="6.21173">
        <ele>1775.9</ele>
        <time>2022-06-18T06:22:30Z</time>
      </trkpt>
      <trkpt lat="45.22315" lon="6.2117">
        <ele>1774.6</ele>
        <time>2022-06-18T06:22:31Z</time>
      </trkpt>
      <trkpt lat="45.22301" lon="6.21168">
        <ele>1773.3</ele>
        <time>2022-06-18T06:22:32Z</time>
      </trkpt>
      <trkpt lat="45.22289" lon="6.21165">
        <ele>1772.2</ele>
        <time>2022-06-18T06:22:33Z</time>
      </trkpt>
      <trkpt lat="45.22277" lon="6.21164">
        <ele>1771.2</ele>
        <time>2022-06-18T06:22:34Z</time>
      </trkpt>
      <trkpt lat="45.22265" lon="6.21166">
        <ele>1770.2</ele>
        <time>2022-06-18T06:22:35Z</time>
      </trkpt>
      <trkpt lat="45.22254" lon="6.21169">
        <ele>1769.2</ele>
        <time>2022-06-18T06:22:36Z</time>
      </trkpt>
      <trkpt lat="45.22241" lon="6.21171">
        <ele>1768.1</ele>
        <time>2022-06-18T06:22:37Z</time>
      </trkpt>
      <trkpt lat="45.22229" lon="6.21174">
        <ele>1767</ele>
        <time>2022-06-18T06:22:38Z</time>
      </trkpt>
      <trkpt lat="45.22216" lon="6.21177">
        <ele>1765.9</ele>
        <time>2022-06-18T06:22:39Z</time>
      </trkpt>
      <trkpt lat="45.22204" lon="6.21181">
        <ele>1764.9</ele>
        <time>2022-06-18T06:22:40Z</time>
      </trkpt>
      <trkpt lat="45.22193" lon="6.21187">
        <ele>1764.1</ele>
        <time>2022-06-18T06:22:41Z</time>
      </trkpt>
      <trkpt lat="45.22182" lon="6.21194">
        <ele>1763.3</ele>
        <time>2022-06-18T06:22:42Z</time>
      </trkpt>
      <trkpt lat="45.22171" lon="6.21202">
        <ele>1762.6</ele>
        <time>2022-06-18T06:22:43Z</time>
      </trkpt>
      <trkpt lat="45.2216" lon="6.21211">
        <ele>1762</ele>
        <time>2022-06-18T06:22:44Z</time>
      </trkpt>
      <trkpt lat="45.22149" lon="6.21219">
        <ele>1761.4</ele>
        <time>2022-06-18T06:22:45Z</time>
      </trkpt>
      <trkpt lat="45.22139" lon="6.21227">
        <ele>1761</ele>
        <time>2022-06-18T06:22:46Z</time>
      </trkpt>
      <trkpt lat="45.2213" lon="6.21233">
        <ele>1760.5</ele>
        <time>2022-06-18T06:22:47Z</time>
      </trkpt>
      <trkpt lat="45.22123" lon="6.21237">
        <ele>1760</ele>
        <time>2022-06-18T06:22:48Z</time>
      </trkpt>
      <trkpt lat="45.22119" lon="6.21242">
        <ele>1759.6</ele>
        <time>2022-06-18T06:22:49Z</time>
      </trkpt>
      <trkpt lat="45.22118" lon="6.21248">
        <ele>1759.2</ele>
        <time>2022-06-18T06:22:50Z</time>
      </trkpt>
      <trkpt lat="45.22122" lon="6.21254">
        <ele>1758.6</ele>
        <time>2022-06-18T06:22:51Z</time>
      </trkpt>
      <trkpt lat="45.22129" lon="6.21259">
        <ele>1757.5</ele>
        <time>2022-06-18T06:22:52Z</time>
      </trkpt>
      <trkpt lat="45.22137" lon="6.21261">
        <ele>1756.4</ele>
        <time>2022-06-18T06:22:53Z</time>
      </trkpt>
      <trkpt lat="45.22148" lon="6.21257">
        <ele>1755.1</ele>
        <time>2022-06-18T06:22:54Z</time>
      </trkpt>
      <trkpt lat="45.22159" lon="6.2125">
        <ele>1753.8</ele>
        <time>2022-06-18T06:22:55Z</time>
      </trkpt>
      <trkpt lat="45.2217" lon="6.21243">
        <ele>1752.5</ele>
        <time>2022-06-18T06:22:56Z</time>
      </trkpt>
      <trkpt lat="45.2218" lon="6.21239">
        <ele>1751.4</ele>
        <time>2022-06-18T06:22:57Z</time>
      </trkpt>
      <trkpt lat="45.22191" lon="6.21238">
        <ele>1750.4</ele>
        <time>2022-06-18T06:22:58Z</time>
      </trkpt>
      <trkpt lat="45.22201" lon="6.21239">
        <ele>1749.3</ele>
        <time>2022-06-18T06:22:59Z</time>
      </trkpt>
      <trkpt lat="45.22212" lon="6.21242">
        <ele>1748.2</ele>
        <time>2022-06-18T06:23:00Z</time>
      </trkpt>
      <trkpt lat="45.22222" lon="6.21247">
        <ele>1747.1</ele>
        <time>2022-06-18T06:23:01Z</time>
      </trkpt>
      <trkpt lat="45.22233" lon="6.21253">
        <ele>1746</ele>
        <time>2022-06-18T06:23:02Z</time>
      </trkpt>
      <trkpt lat="45.22243" lon="6.2126">
        <ele>1744.9</ele>
        <time>2022-06-18T06:23:03Z</time>
      </trkpt>
      <trkpt lat="45.22253" lon="6.21268">
        <ele>1743.9</ele>
        <time>2022-06-18T06:23:04Z</time>
      </trkpt>
      <trkpt lat="45.22262" lon="6.21277">
        <ele>1743</ele>
        <time>2022-06-18T06:23:05Z</time>
      </trkpt>
      <trkpt lat="45.22271" lon="6.21286">
        <ele>1742.1</ele>
        <time>2022-06-18T06:23:06Z</time>
      </trkpt>
      <trkpt lat="45.2228" lon="6.21295">
        <ele>1741.2</ele>
        <time>2022-06-18T06:23:07Z</time>
      </trkpt>
      <trkpt lat="45.22289" lon="6.21304">
        <ele>1740.4</ele>
        <time>2022-06-18T06:23:08Z</time>
      </trkpt>
      <trkpt lat="45.22298" lon="6.21314">
        <ele>1739.6</ele>
        <time>2022-06-18T06:23:09Z</time>
      </trkpt>
      <trkpt lat="45.22308" lon="6.21324">
        <ele>1738.7</ele>
        <time>2022-06-18T06:23:10Z</time>
      </trkpt>
      <trkpt lat="45.22318" lon="6.21334">
        <ele>1737.9</ele>
        <time>2022-06-18T06:23:11Z</time>
      </trkpt>
      <trkpt lat="45.22327" lon="6.21345">
        <ele>1737.1</ele>
        <time>2022-06-18T06:23:12Z</time>
      </trkpt>
      <trkpt lat="45.22337" lon="6.21355">
        <ele>1736.4</ele>
        <time>2022-06-18T06:23:13Z</time>
      </trkpt>
      <trkpt lat="45.22346" lon="6.21366">
        <ele>1735.7</ele>
        <time>2022-06-18T06:23:14Z</time>
      </trkpt>
      <trkpt lat="45.22354" lon="6.21376">
        <ele>1735.1</ele>
        <time>2022-06-18T06:23:15Z</time>
      </trkpt>
      <trkpt lat="45.22363" lon="6.21387">
        <ele>1734.4</ele>
        <time>2022-06-18T06:23:16Z</time>
      </trkpt>
      <trkpt lat="45.22371" lon="6.21398">
        <ele>1733.8</ele>
        <time>2022-06-18T06:23:17Z</time>
      </trkpt>
      <trkpt lat="45.22378" lon="6.2141">
        <ele>1733</ele>
        <time>2022-06-18T06:23:18Z</time>
      </trkpt>
      <trkpt lat="45.22386" lon="6.21421">
        <ele>1732.2</ele>
        <time>2022-06-18T06:23:19Z</time>
      </trkpt>
      <trkpt lat="45.22393" lon="6.21433">
        <ele>1731.3</ele>
        <time>2022-06-18T06:23:20Z</time>
      </trkpt>
      <trkpt lat="45.22399" lon="6.21445">
        <ele>1730.6</ele>
        <time>2022-06-18T06:23:21Z</time>
      </trkpt>
      <trkpt lat="45.22404" lon="6.21459">
        <ele>1729.9</ele>
        <time>2022-06-18T06:23:22Z</time>
      </trkpt>
      <trkpt lat="45.22408" lon="6.21474">
        <ele>1729.3</ele>
        <time>2022-06-18T06:23:23Z</time>
      </trkpt>
      <trkpt lat="45.2241" lon="6.2149">
        <ele>1728.7</ele>
        <time>2022-06-18T06:23:24Z</time>
      </trkpt>
      <trkpt lat="45.22411" lon="6.21507">
        <ele>1728</ele>
        <time>2022-06-18T06:23:25Z</time>
      </trkpt>
      <trkpt lat="45.22411" lon="6.21522">
        <ele>1727.2</ele>
        <time>2022-06-18T06:23:26Z</time>
      </trkpt>
      <trkpt lat="45.22411" lon="6.21535">
        <ele>1726.3</ele>
        <time>2022-06-18T06:23:27Z</time>
      </trkpt>
      <trkpt lat="45.22414" lon="6.21547">
        <ele>1725.4</ele>
        <time>2022-06-18T06:23:28Z</time>
      </trkpt>
      <trkpt lat="45.22418" lon="6.21558">
        <ele>1724.5</ele>
        <time>2022-06-18T06:23:29Z</time>
      </trkpt>
      <trkpt lat="45.22424" lon="6.21566">
        <ele>1723.5</ele>
        <time>2022-06-18T06:23:30Z</time>
      </trkpt>
      <trkpt lat="45.22432" lon="6.21574">
        <ele>1722.5</ele>
        <time>2022-06-18T06:23:31Z</time>
      </trkpt>
      <trkpt lat="45.2244" lon="6.21582">
        <ele>1721.5</ele>
        <time>2022-06-18T06:23:32Z</time>
      </trkpt>
      <trkpt lat="45.22449" lon="6.21592">
        <ele>1720.5</ele>
        <time>2022-06-18T06:23:33Z</time>
      </trkpt>
      <trkpt lat="45.22457" lon="6.21603">
        <ele>1719.6</ele>
        <time>2022-06-18T06:23:34Z</time>
      </trkpt>
      <trkpt lat="45.22465" lon="6.21614">
        <ele>1718.8</ele>
        <time>2022-06-18T06:23:35Z</time>
      </trkpt>
      <trkpt lat="45.22473" lon="6.21626">
        <ele>1718.1</ele>
        <time>2022-06-18T06:23:36Z</time>
      </trkpt>
      <trkpt lat="45.22481" lon="6.21638">
        <ele>1717.4</ele>
        <time>2022-06-18T06:23:37Z</time>
      </trkpt>
      <trkpt lat="45.22488" lon="6.2165">
        <ele>1716.7</ele>
        <time>2022-06-18T06:23:38Z</time>
      </trkpt>
      <trkpt lat="45.22496" lon="6.21662">
        <ele>1716</ele>
        <time>2022-06-18T06:23:39Z</time>
      </trkpt>
      <trkpt lat="45.22504" lon="6.21674">
        <ele>1715.5</ele>
        <time>2022-06-18T06:23:40Z</time>
      </trkpt>
      <trkpt lat="45.22512" lon="6.21687">
        <ele>1715.3</ele>
        <time>2022-06-18T06:23:41Z</time>
      </trkpt>
      <trkpt lat="45.22519" lon="6.21698">
        <ele>1715</ele>
        <time>2022-06-18T06:23:42Z</time>
      </trkpt>
      <trkpt lat="45.22525" lon="6.21707">
        <ele>1714.9</ele>
        <time>2022-06-18T06:23:43Z</time>
      </trkpt>
      <trkpt lat="45.22529" lon="6.21714">
        <ele>1714.7</ele>
        <time>2022-06-18T06:23:44Z</time>
      </trkpt>
      <trkpt lat="45.22531" lon="6.2172">
        <ele>1714.6</ele>
        <time>2022-06-18T06:23:45Z</time>
      </trkpt>
      <trkpt lat="45.22529" lon="6.21727">
        <ele>1714</ele>
        <time>2022-06-18T06:23:46Z</time>
      </trkpt>
      <trkpt lat="45.22523" lon="6.21731">
        <ele>1713.3</ele>
        <time>2022-06-18T06:23:47Z</time>
      </trkpt>
      <trkpt lat="45.22514" lon="6.21729">
        <ele>1712.3</ele>
        <time>2022-06-18T06:23:48Z</time>
      </trkpt>
      <trkpt lat="45.22505" lon="6.21721">
        <ele>1711.2</ele>
        <time>2022-06-18T06:23:49Z</time>
      </trkpt>
      <trkpt lat="45.22498" lon="6.2171">
        <ele>1710.2</ele>
        <time>2022-06-18T06:23:50Z</time>
      </trkpt>
      <trkpt lat="45.22491" lon="6.21699">
        <ele>1709.3</ele>
        <time>2022-06-18T06:23:51Z</time>
      </trkpt>
      <trkpt lat="45.22484" lon="6.21689">
        <ele>1708.4</ele>
        <time>2022-06-18T06:23:52Z</time>
      </trkpt>
      <trkpt lat="45.22476" lon="6.21681">
        <ele>1707.5</ele>
        <time>2022-06-18T06:23:53Z</time>
      </trkpt>
      <trkpt lat="45.22468" lon="6.21675">
        <ele>1706.7</ele>
        <time>2022-06-18T06:23:54Z</time>
      </trkpt>
      <trkpt lat="45.22459" lon="6.21669">
        <ele>1705.8</ele>
        <time>2022-06-18T06:23:55Z</time>
      </trkpt>
      <trkpt lat="45.2245" lon="6.21662">
        <ele>1704.9</ele>
        <time>2022-06-18T06:23:56Z</time>
      </trkpt>
      <trkpt lat="45.2244" lon="6.21656">
        <ele>1703.9</ele>
        <time>2022-06-18T06:23:57Z</time>
      </trkpt>
      <trkpt lat="45.22429" lon="6.2165">
        <ele>1702.9</ele>
        <time>2022-06-18T06:23:58Z</time>
      </trkpt>
      <trkpt lat="45.22418" lon="6.21644">
        <ele>1702</ele>
        <time>2022-06-18T06:23:59Z</time>
      </trkpt>
      <trkpt lat="45.22407" lon="6.21638">
        <ele>1701.1</ele>
        <time>2022-06-18T06:24:00Z</time>
      </trkpt>
      <trkpt lat="45.22397" lon="6.21631">
        <ele>1700.3</ele>
        <time>2022-06-18T06:24:01Z</time>
      </trkpt>
      <trkpt lat="45.22387" lon="6.21626">
        <ele>1699.6</ele>
        <time>2022-06-18T06:24:02Z</time>
      </trkpt>
      <trkpt lat="45.22377" lon="6.21622">
        <ele>1698.9</ele>
        <time>2022-06-18T06:24:03Z</time>
      </trkpt>
      <trkpt lat="45.22368" lon="6.21618">
        <ele>1698.2</ele>
        <time>2022-06-18T06:24:04Z</time>
      </trkpt>
      <trkpt lat="45.22358" lon="6.21614">
        <ele>1697.5</ele>
        <time>2022-06-18T06:24:05Z</time>
      </trkpt>
      <trkpt lat="45.22348" lon="6.2161">
        <ele>1696.7</ele>
        <time>2022-06-18T06:24:06Z</time>
      </trkpt>
      <trkpt lat="45.22339" lon="6.21608">
        <ele>1696</ele>
        <time>2022-06-18T06:24:07Z</time>
      </trkpt>
      <trkpt lat="45.22332" lon="6.21606">
        <ele>1695.3</ele>
        <time>2022-06-18T06:24:08Z</time>
      </trkpt>
      <trkpt lat="45.22325" lon="6.21605">
        <ele>1694.6</ele>
        <time>2022-06-18T06:24:09Z</time>
      </trkpt>
      <trkpt lat="45.22318" lon="6.21603">
        <ele>1693.9</ele>
        <time>2022-06-18T06:24:10Z</time>
      </trkpt>
      <trkpt lat="45.22311" lon="6.21599">
        <ele>1693.1</ele>
        <time>2022-06-18T06:24:11Z</time>
      </trkpt>
      <trkpt lat="45.22304" lon="6.21592">
        <ele>1692.4</ele>
        <time>2022-06-18T06:24:12Z</time>
      </trkpt>
      <trkpt lat="45.22295" lon="6.21587">
        <ele>1691.5</ele>
        <time>2022-06-18T06:24:13Z</time>
      </trkpt>
      <trkpt lat="45.22286" lon="6.21583">
        <ele>1690.7</ele>
        <time>2022-06-18T06:24:14Z</time>
      </trkpt>
      <trkpt lat="45.22276" lon="6.21583">
        <ele>1689.8</ele>
        <time>2022-06-18T06:24:15Z</time>
      </trkpt>
      <trkpt lat="45.22266" lon="6.21587">
        <ele>1689.4</ele>
        <time>2022-06-18T06:24:16Z</time>
      </trkpt>
      <trkpt lat="45.22257" lon="6.21594">
        <ele>1686.9</ele>
        <time>2022-06-18T06:24:17Z</time>
      </trkpt>
      <trkpt lat="45.22247" lon="6.21603">
        <ele>1683.8</ele>
        <time>2022-06-18T06:24:18Z</time>
      </trkpt>
      <trkpt lat="45.22237" lon="6.21612">
        <ele>1681.3</ele>
        <time>2022-06-18T06:24:19Z</time>
      </trkpt>
      <trkpt lat="45.22227" lon="6.21624">
        <ele>1680.2</ele>
        <time>2022-06-18T06:24:20Z</time>
      </trkpt>
      <trkpt lat="45.22217" lon="6.21635">
        <ele>1678.4</ele>
        <time>2022-06-18T06:24:21Z</time>
      </trkpt>
      <trkpt lat="45.22206" lon="6.21645">
        <ele>1676.6</ele>
        <time>2022-06-18T06:24:22Z</time>
      </trkpt>
      <trkpt lat="45.22196" lon="6.21654">
        <ele>1674.9</ele>
        <time>2022-06-18T06:24:23Z</time>
      </trkpt>
      <trkpt lat="45.22185" lon="6.21661">
        <ele>1673.1</ele>
        <time>2022-06-18T06:24:24Z</time>
      </trkpt>
      <trkpt lat="45.22175" lon="6.21667">
        <ele>1671.6</ele>
        <time>2022-06-18T06:24:25Z</time>
      </trkpt>
      <trkpt lat="45.22166" lon="6.21671">
        <ele>1670.2</ele>
        <time>2022-06-18T06:24:26Z</time>
      </trkpt>
      <trkpt lat="45.22156" lon="6.21675">
        <ele>1668.8</ele>
        <time>2022-06-18T06:24:27Z</time>
      </trkpt>
      <trkpt lat="45.22147" lon="6.2168">
        <ele>1667.4</ele>
        <time>2022-06-18T06:24:28Z</time>
      </trkpt>
      <trkpt lat="45.22137" lon="6.21685">
        <ele>1666</ele>
        <time>2022-06-18T06:24:29Z</time>
      </trkpt>
      <trkpt lat="45.22128" lon="6.2169">
        <ele>1664.6</ele>
        <time>2022-06-18T06:24:30Z</time>
      </trkpt>
      <trkpt lat="45.2212" lon="6.21697">
        <ele>1663.3</ele>
        <time>2022-06-18T06:24:31Z</time>
      </trkpt>
      <trkpt lat="45.22113" lon="6.21706">
        <ele>1662</ele>
        <time>2022-06-18T06:24:32Z</time>
      </trkpt>
      <trkpt lat="45.22106" lon="6.21716">
        <ele>1660.7</ele>
        <time>2022-06-18T06:24:33Z</time>
      </trkpt>
      <trkpt lat="45.221" lon="6.21726">
        <ele>1659.3</ele>
        <time>2022-06-18T06:24:34Z</time>
      </trkpt>
      <trkpt lat="45.22093" lon="6.21734">
        <ele>1658.1</ele>
        <time>2022-06-18T06:24:35Z</time>
      </trkpt>
      <trkpt lat="45.22085" lon="6.21739">
        <ele>1656.8</ele>
        <time>2022-06-18T06:24:36Z</time>
      </trkpt>
      <trkpt lat="45.22075" lon="6.21741">
        <ele>1656.2</ele>
        <time>2022-06-18T06:24:37Z</time>
      </trkpt>
      <trkpt lat="45.22065" lon="6.21739">
        <ele>1655.7</ele>
        <time>2022-06-18T06:24:38Z</time>
      </trkpt>
      <trkpt lat="45.22055" lon="6.21735">
        <ele>1655.2</ele>
        <time>2022-06-18T06:24:39Z</time>
      </trkpt>
      <trkpt lat="45.22045" lon="6.21728">
        <ele>1654.7</ele>
        <time>2022-06-18T06:24:40Z</time>
      </trkpt>
      <trkpt lat="45.22034" lon="6.21722">
        <ele>1654.4</ele>
        <time>2022-06-18T06:24:41Z</time>
      </trkpt>
      <trkpt lat="45.22023" lon="6.21718">
        <ele>1654.1</ele>
        <time>2022-06-18T06:24:42Z</time>
      </trkpt>
      <trkpt lat="45.22011" lon="6.21716">
        <ele>1654</ele>
        <time>2022-06-18T06:24:43Z</time>
      </trkpt>
      <trkpt lat="45.22001" lon="6.21714">
        <ele>1653.9</ele>
        <time>2022-06-18T06:24:44Z</time>
      </trkpt>
      <trkpt lat="45.21991" lon="6.21713">
        <ele>1653.9</ele>
        <time>2022-06-18T06:24:45Z</time>
      </trkpt>
      <trkpt lat="45.21984" lon="6.21712">
        <ele>1653.9</ele>
        <time>2022-06-18T06:24:46Z</time>
      </trkpt>
      <trkpt lat="45.21978" lon="6.21713">
        <ele>1653.9</ele>
        <time>2022-06-18T06:24:47Z</time>
      </trkpt>
      <trkpt lat="45.21976" lon="6.21716">
        <ele>1653.8</ele>
        <time>2022-06-18T06:24:48Z</time>
      </trkpt>
      <trkpt lat="45.21973" lon="6.21724">
        <ele>1653.6</ele>
        <time>2022-06-18T06:24:49Z</time>
      </trkpt>
      <trkpt lat="45.21975" lon="6.21733">
        <ele>1653.4</ele>
        <time>2022-06-18T06:24:50Z</time>
      </trkpt>
      <trkpt lat="45.2198" lon="6.21743">
        <ele>1653.1</ele>
        <time>2022-06-18T06:24:51Z</time>
      </trkpt>
      <trkpt lat="45.21987" lon="6.21748">
        <ele>1652.9</ele>
        <time>2022-06-18T06:24:52Z</time>
      </trkpt>
      <trkpt lat="45.21998" lon="6.21749">
        <ele>1652.6</ele>
        <time>2022-06-18T06:24:53Z</time>
      </trkpt>
      <trkpt lat="45.22011" lon="6.21749">
        <ele>1651.6</ele>
        <time>2022-06-18T06:24:54Z</time>
      </trkpt>
      <trkpt lat="45.22021" lon="6.21751">
        <ele>1649.7</ele>
        <time>2022-06-18T06:24:55Z</time>
      </trkpt>
      <trkpt lat="45.2203" lon="6.21757">
        <ele>1647.8</ele>
        <time>2022-06-18T06:24:56Z</time>
      </trkpt>
      <trkpt lat="45.22037" lon="6.21766">
        <ele>1646</ele>
        <time>2022-06-18T06:24:57Z</time>
      </trkpt>
      <trkpt lat="45.22041" lon="6.21778">
        <ele>1643.8</ele>
        <time>2022-06-18T06:24:58Z</time>
      </trkpt>
      <trkpt lat="45.22044" lon="6.21792">
        <ele>1641.6</ele>
        <time>2022-06-18T06:24:59Z</time>
      </trkpt>
      <trkpt lat="45.22046" lon="6.21807">
        <ele>1639.2</ele>
        <time>2022-06-18T06:25:00Z</time>
      </trkpt>
      <trkpt lat="45.22048" lon="6.21822">
        <ele>1638.9</ele>
        <time>2022-06-18T06:25:01Z</time>
      </trkpt>
      <trkpt lat="45.22051" lon="6.21837">
        <ele>1636.5</ele>
        <time>2022-06-18T06:25:02Z</time>
      </trkpt>
      <trkpt lat="45.22054" lon="6.21853">
        <ele>1634.6</ele>
        <time>2022-06-18T06:25:03Z</time>
      </trkpt>
      <trkpt lat="45.22058" lon="6.2187">
        <ele>1633.1</ele>
        <time>2022-06-18T06:25:04Z</time>
      </trkpt>
      <trkpt lat="45.22062" lon="6.21885">
        <ele>1631.7</ele>
        <time>2022-06-18T06:25:05Z</time>
      </trkpt>
      <trkpt lat="45.22065" lon="6.21899">
        <ele>1630.4</ele>
        <time>2022-06-18T06:25:06Z</time>
      </trkpt>
      <trkpt lat="45.22068" lon="6.2191">
        <ele>1629.2</ele>
        <time>2022-06-18T06:25:07Z</time>
      </trkpt>
      <trkpt lat="45.22071" lon="6.21921">
        <ele>1628</ele>
        <time>2022-06-18T06:25:08Z</time>
      </trkpt>
      <trkpt lat="45.22074" lon="6.21934">
        <ele>1627.2</ele>
        <time>2022-06-18T06:25:09Z</time>
      </trkpt>
      <trkpt lat="45.22077" lon="6.21948">
        <ele>1626.2</ele>
        <time>2022-06-18T06:25:10Z</time>
      </trkpt>
      <trkpt lat="45.2208" lon="6.21963">
        <ele>1624.9</ele>
        <time>2022-06-18T06:25:11Z</time>
      </trkpt>
      <trkpt lat="45.22084" lon="6.21978">
        <ele>1623.5</ele>
        <time>2022-06-18T06:25:12Z</time>
      </trkpt>
      <trkpt lat="45.22087" lon="6.21991">
        <ele>1622.1</ele>
        <time>2022-06-18T06:25:13Z</time>
      </trkpt>
      <trkpt lat="45.22091" lon="6.22003">
        <ele>1620.8</ele>
        <time>2022-06-18T06:25:14Z</time>
      </trkpt>
      <trkpt lat="45.22097" lon="6.22013">
        <ele>1619.6</ele>
        <time>2022-06-18T06:25:15Z</time>
      </trkpt>
      <trkpt lat="45.22105" lon="6.22022">
        <ele>1618.9</ele>
        <time>2022-06-18T06:25:16Z</time>
      </trkpt>
      <trkpt lat="45.22114" lon="6.22028">
        <ele>1618.3</ele>
        <time>2022-06-18T06:25:17Z</time>
      </trkpt>
      <trkpt lat="45.22124" lon="6.22033">
        <ele>1617.6</ele>
        <time>2022-06-18T06:25:18Z</time>
      </trkpt>
      <trkpt lat="45.22134" lon="6.22038">
        <ele>1616.9</ele>
        <time>2022-06-18T06:25:19Z</time>
      </trkpt>
      <trkpt lat="45.22143" lon="6.22043">
        <ele>1616.3</ele>
        <time>2022-06-18T06:25:20Z</time>
      </trkpt>
      <trkpt lat="45.22149" lon="6.22049">
        <ele>1615.5</ele>
        <time>2022-06-18T06:25:21Z</time>
      </trkpt>
      <trkpt lat="45.22152" lon="6.22059">
        <ele>1614.7</ele>
        <time>2022-06-18T06:25:22Z</time>
      </trkpt>
      <trkpt lat="45.22152" lon="6.22072">
        <ele>1613.7</ele>
        <time>2022-06-18T06:25:23Z</time>
      </trkpt>
      <trkpt lat="45.2215" lon="6.22087">
        <ele>1612.7</ele>
        <time>2022-06-18T06:25:24Z</time>
      </trkpt>
      <trkpt lat="45.22149" lon="6.22102">
        <ele>1611.6</ele>
        <time>2022-06-18T06:25:25Z</time>
      </trkpt>
      <trkpt lat="45.22149" lon="6.22117">
        <ele>1612</ele>
        <time>2022-06-18T06:25:26Z</time>
      </trkpt>
      <trkpt lat="45.22152" lon="6.2213">
        <ele>1613.1</ele>
        <time>2022-06-18T06:25:27Z</time>
      </trkpt>
      <trkpt lat="45.22157" lon="6.22143">
        <ele>1611.9</ele>
        <time>2022-06-18T06:25:28Z</time>
      </trkpt>
      <trkpt lat="45.22163" lon="6.22156">
        <ele>1609.1</ele>
        <time>2022-06-18T06:25:29Z</time>
      </trkpt>
      <trkpt lat="45.22171" lon="6.22169">
        <ele>1606.1</ele>
        <time>2022-06-18T06:25:30Z</time>
      </trkpt>
      <trkpt lat="45.22178" lon="6.22181">
        <ele>1603.1</ele>
        <time>2022-06-18T06:25:31Z</time>
      </trkpt>
      <trkpt lat="45.22186" lon="6.22194">
        <ele>1601.4</ele>
        <time>2022-06-18T06:25:32Z</time>
      </trkpt>
      <trkpt lat="45.22194" lon="6.22206">
        <ele>1600</ele>
        <time>2022-06-18T06:25:33Z</time>
      </trkpt>
      <trkpt lat="45.22201" lon="6.22218">
        <ele>1598.7</ele>
        <time>2022-06-18T06:25:34Z</time>
      </trkpt>
      <trkpt lat="45.22207" lon="6.22229">
        <ele>1597.6</ele>
        <time>2022-06-18T06:25:35Z</time>
      </trkpt>
      <trkpt lat="45.22212" lon="6.22242">
        <ele>1596.5</ele>
        <time>2022-06-18T06:25:36Z</time>
      </trkpt>
      <trkpt lat="45.22214" lon="6.22256">
        <ele>1595.4</ele>
        <time>2022-06-18T06:25:37Z</time>
      </trkpt>
      <trkpt lat="45.22215" lon="6.22271">
        <ele>1594.3</ele>
        <time>2022-06-18T06:25:38Z</time>
      </trkpt>
      <trkpt lat="45.22215" lon="6.22286">
        <ele>1593.3</ele>
        <time>2022-06-18T06:25:39Z</time>
      </trkpt>
      <trkpt lat="45.22216" lon="6.22303">
        <ele>1592.3</ele>
        <time>2022-06-18T06:25:40Z</time>
      </trkpt>
      <trkpt lat="45.22216" lon="6.22319">
        <ele>1591.6</ele>
        <time>2022-06-18T06:25:41Z</time>
      </trkpt>
      <trkpt lat="45.22215" lon="6.22336">
        <ele>1591.2</ele>
        <time>2022-06-18T06:25:42Z</time>
      </trkpt>
      <trkpt lat="45.22214" lon="6.22351">
        <ele>1590.8</ele>
        <time>2022-06-18T06:25:43Z</time>
      </trkpt>
      <trkpt lat="45.22213" lon="6.22364">
        <ele>1590.5</ele>
        <time>2022-06-18T06:25:44Z</time>
      </trkpt>
      <trkpt lat="45.22212" lon="6.22374">
        <ele>1590.2</ele>
        <time>2022-06-18T06:25:45Z</time>
      </trkpt>
      <trkpt lat="45.22212" lon="6.22383">
        <ele>1590</ele>
        <time>2022-06-18T06:25:46Z</time>
      </trkpt>
      <trkpt lat="45.22211" lon="6.22389">
        <ele>1589.8</ele>
        <time>2022-06-18T06:25:47Z</time>
      </trkpt>
      <trkpt lat="45.22208" lon="6.22392">
        <ele>1589.9</ele>
        <time>2022-06-18T06:25:48Z</time>
      </trkpt>
      <trkpt lat="45.22204" lon="6.22391">
        <ele>1589.9</ele>
        <time>2022-06-18T06:25:49Z</time>
      </trkpt>
      <trkpt lat="45.22199" lon="6.22384">
        <ele>1589.9</ele>
        <time>2022-06-18T06:25:50Z</time>
      </trkpt>
      <trkpt lat="45.22194" lon="6.22375">
        <ele>1589.8</ele>
        <time>2022-06-18T06:25:51Z</time>
      </trkpt>
      <trkpt lat="45.22192" lon="6.22365">
        <ele>1589.8</ele>
        <time>2022-06-18T06:25:52Z</time>
      </trkpt>
      <trkpt lat="45.22191" lon="6.22354">
        <ele>1589.8</ele>
        <time>2022-06-18T06:25:53Z</time>
      </trkpt>
      <trkpt lat="45.22191" lon="6.22344">
        <ele>1589.8</ele>
        <time>2022-06-18T06:25:54Z</time>
      </trkpt>
      <trkpt lat="45.22191" lon="6.22334">
        <ele>1589.9</ele>
        <time>2022-06-18T06:25:55Z</time>
      </trkpt>
      <trkpt lat="45.22191" lon="6.22323">
        <ele>1589.9</ele>
        <time>2022-06-18T06:25:56Z</time>
      </trkpt>
      <trkpt lat="45.22191" lon="6.22313">
        <ele>1590</ele>
        <time>2022-06-18T06:25:57Z</time>
      </trkpt>
      <trkpt lat="45.2219" lon="6.22304">
        <ele>1590</ele>
        <time>2022-06-18T06:25:58Z</time>
      </trkpt>
      <trkpt lat="45.22189" lon="6.22295">
        <ele>1590</ele>
        <time>2022-06-18T06:25:59Z</time>
      </trkpt>
      <trkpt lat="45.22187" lon="6.22288">
        <ele>1589.9</ele>
        <time>2022-06-18T06:26:00Z</time>
      </trkpt>
      <trkpt lat="45.22183" lon="6.22281">
        <ele>1589.8</ele>
        <time>2022-06-18T06:26:01Z</time>
      </trkpt>
      <trkpt lat="45.22178" lon="6.22275">
        <ele>1589.6</ele>
        <time>2022-06-18T06:26:02Z</time>
      </trkpt>
      <trkpt lat="45.22171" lon="6.22271">
        <ele>1589.4</ele>
        <time>2022-06-18T06:26:03Z</time>
      </trkpt>
      <trkpt lat="45.22163" lon="6.2227">
        <ele>1589.2</ele>
        <time>2022-06-18T06:26:04Z</time>
      </trkpt>
      <trkpt lat="45.22154" lon="6.22271">
        <ele>1588.8</ele>
        <time>2022-06-18T06:26:05Z</time>
      </trkpt>
      <trkpt lat="45.22146" lon="6.22275">
        <ele>1587.5</ele>
        <time>2022-06-18T06:26:06Z</time>
      </trkpt>
      <trkpt lat="45.22136" lon="6.22283">
        <ele>1585.4</ele>
        <time>2022-06-18T06:26:07Z</time>
      </trkpt>
      <trkpt lat="45.22126" lon="6.22291">
        <ele>1583.3</ele>
        <time>2022-06-18T06:26:08Z</time>
      </trkpt>
      <trkpt lat="45.22115" lon="6.22299">
        <ele>1583.9</ele>
        <time>2022-06-18T06:26:09Z</time>
      </trkpt>
      <trkpt lat="45.22105" lon="6.22308">
        <ele>1582.8</ele>
        <time>2022-06-18T06:26:10Z</time>
      </trkpt>
      <trkpt lat="45.22094" lon="6.22316">
        <ele>1581.6</ele>
        <time>2022-06-18T06:26:11Z</time>
      </trkpt>
      <trkpt lat="45.22083" lon="6.22324">
        <ele>1580.4</ele>
        <time>2022-06-18T06:26:12Z</time>
      </trkpt>
      <trkpt lat="45.22072" lon="6.22331">
        <ele>1579.2</ele>
        <time>2022-06-18T06:26:13Z</time>
      </trkpt>
      <trkpt lat="45.22062" lon="6.22336">
        <ele>1578</ele>
        <time>2022-06-18T06:26:14Z</time>
      </trkpt>
      <trkpt lat="45.22051" lon="6.22339">
        <ele>1576.9</ele>
        <time>2022-06-18T06:26:15Z</time>
      </trkpt>
      <trkpt lat="45.22043" lon="6.22339">
        <ele>1575.9</ele>
        <time>2022-06-18T06:26:16Z</time>
      </trkpt>
      <trkpt lat="45.22035" lon="6.22339">
        <ele>1575.2</ele>
        <time>2022-06-18T06:26:17Z</time>
      </trkpt>
      <trkpt lat="45.2203" lon="6.22339">
        <ele>1574.6</ele>
        <time>2022-06-18T06:26:18Z</time>
      </trkpt>
      <trkpt lat="45.22026" lon="6.22343">
        <ele>1574</ele>
        <time>2022-06-18T06:26:19Z</time>
      </trkpt>
      <trkpt lat="45.22025" lon="6.2235">
        <ele>1573.3</ele>
        <time>2022-06-18T06:26:20Z</time>
      </trkpt>
      <trkpt lat="45.22029" lon="6.2236">
        <ele>1572.4</ele>
        <time>2022-06-18T06:26:21Z</time>
      </trkpt>
      <trkpt lat="45.22037" lon="6.22369">
        <ele>1571.5</ele>
        <time>2022-06-18T06:26:22Z</time>
      </trkpt>
      <trkpt lat="45.22047" lon="6.22375">
        <ele>1570.5</ele>
        <time>2022-06-18T06:26:23Z</time>
      </trkpt>
      <trkpt lat="45.22059" lon="6.22379">
        <ele>1569.5</ele>
        <time>2022-06-18T06:26:24Z</time>
      </trkpt>
      <trkpt lat="45.2207" lon="6.22384">
        <ele>1568.6</ele>
        <time>2022-06-18T06:26:25Z</time>
      </trkpt>
      <trkpt lat="45.2208" lon="6.22389">
        <ele>1567.9</ele>
        <time>2022-06-18T06:26:26Z</time>
      </trkpt>
      <trkpt lat="45.2209" lon="6.22394">
        <ele>1567.2</ele>
        <time>2022-06-18T06:26:27Z</time>
      </trkpt>
      <trkpt lat="45.22099" lon="6.224">
        <ele>1566.9</ele>
        <time>2022-06-18T06:26:28Z</time>
      </trkpt>
      <trkpt lat="45.22108" lon="6.22405">
        <ele>1566.3</ele>
        <time>2022-06-18T06:26:29Z</time>
      </trkpt>
      <trkpt lat="45.22116" lon="6.22411">
        <ele>1565.1</ele>
        <time>2022-06-18T06:26:30Z</time>
      </trkpt>
      <trkpt lat="45.22122" lon="6.22418">
        <ele>1564</ele>
        <time>2022-06-18T06:26:31Z</time>
      </trkpt>
      <trkpt lat="45.22126" lon="6.22429">
        <ele>1562.8</ele>
        <time>2022-06-18T06:26:32Z</time>
      </trkpt>
      <trkpt lat="45.22126" lon="6.22443">
        <ele>1561.2</ele>
        <time>2022-06-18T06:26:33Z</time>
      </trkpt>
      <trkpt lat="45.22122" lon="6.2246">
        <ele>1559.3</ele>
        <time>2022-06-18T06:26:34Z</time>
      </trkpt>
      <trkpt lat="45.22117" lon="6.22477">
        <ele>1557.5</ele>
        <time>2022-06-18T06:26:35Z</time>
      </trkpt>
      <trkpt lat="45.22113" lon="6.22492">
        <ele>1555.8</ele>
        <time>2022-06-18T06:26:36Z</time>
      </trkpt>
      <trkpt lat="45.22109" lon="6.22507">
        <ele>1554.4</ele>
        <time>2022-06-18T06:26:37Z</time>
      </trkpt>
      <trkpt lat="45.22106" lon="6.22523">
        <ele>1553</ele>
        <time>2022-06-18T06:26:38Z</time>
      </trkpt>
      <trkpt lat="45.22104" lon="6.22539">
        <ele>1551.6</ele>
        <time>2022-06-18T06:26:39Z</time>
      </trkpt>
      <trkpt lat="45.22104" lon="6.22556">
        <ele>1550.3</ele>
        <time>2022-06-18T06:26:40Z</time>
      </trkpt>
      <trkpt lat="45.22104" lon="6.22573">
        <ele>1548.9</ele>
        <time>2022-06-18T06:26:41Z</time>
      </trkpt>
      <trkpt lat="45.22105" lon="6.2259">
        <ele>1547.4</ele>
        <time>2022-06-18T06:26:42Z</time>
      </trkpt>
      <trkpt lat="45.22105" lon="6.22608">
        <ele>1545.8</ele>
        <time>2022-06-18T06:26:43Z</time>
      </trkpt>
      <trkpt lat="45.22106" lon="6.22626">
        <ele>1545.5</ele>
        <time>2022-06-18T06:26:44Z</time>
      </trkpt>
      <trkpt lat="45.22107" lon="6.22641">
        <ele>1544.7</ele>
        <time>2022-06-18T06:26:45Z</time>
      </trkpt>
      <trkpt lat="45.2211" lon="6.22654">
        <ele>1543.7</ele>
        <time>2022-06-18T06:26:46Z</time>
      </trkpt>
      <trkpt lat="45.22114" lon="6.22666">
        <ele>1542.9</ele>
        <time>2022-06-18T06:26:47Z</time>
      </trkpt>
      <trkpt lat="45.22121" lon="6.22675">
        <ele>1543</ele>
        <time>2022-06-18T06:26:48Z</time>
      </trkpt>
      <trkpt lat="45.22128" lon="6.22682">
        <ele>1542.9</ele>
        <time>2022-06-18T06:26:49Z</time>
      </trkpt>
      <trkpt lat="45.22137" lon="6.22689">
        <ele>1542.8</ele>
        <time>2022-06-18T06:26:50Z</time>
      </trkpt>
      <trkpt lat="45.22143" lon="6.22697">
        <ele>1542.8</ele>
        <time>2022-06-18T06:26:51Z</time>
      </trkpt>
      <trkpt lat="45.22145" lon="6.22708">
        <ele>1542.6</ele>
        <time>2022-06-18T06:26:52Z</time>
      </trkpt>
      <trkpt lat="45.22146" lon="6.2272">
        <ele>1540.7</ele>
        <time>2022-06-18T06:26:53Z</time>
      </trkpt>
      <trkpt lat="45.22146" lon="6.22734">
        <ele>1537.9</ele>
        <time>2022-06-18T06:26:54Z</time>
      </trkpt>
      <trkpt lat="45.22146" lon="6.22748">
        <ele>1535.1</ele>
        <time>2022-06-18T06:26:55Z</time>
      </trkpt>
      <trkpt lat="45.22147" lon="6.22764">
        <ele>1534.5</ele>
        <time>2022-06-18T06:26:56Z</time>
      </trkpt>
      <trkpt lat="45.22147" lon="6.22781">
        <ele>1534</ele>
        <time>2022-06-18T06:26:57Z</time>
      </trkpt>
      <trkpt lat="45.22147" lon="6.22797">
        <ele>1533.5</ele>
        <time>2022-06-18T06:26:58Z</time>
      </trkpt>
      <trkpt lat="45.22147" lon="6.22814">
        <ele>1531.8</ele>
        <time>2022-06-18T06:26:59Z</time>
      </trkpt>
      <trkpt lat="45.22147" lon="6.2283">
        <ele>1530.2</ele>
        <time>2022-06-18T06:27:00Z</time>
      </trkpt>
      <trkpt lat="45.22148" lon="6.22845">
        <ele>1529.1</ele>
        <time>2022-06-18T06:27:01Z</time>
      </trkpt>
      <trkpt lat="45.22148" lon="6.22862">
        <ele>1528.1</ele>
        <time>2022-06-18T06:27:02Z</time>
      </trkpt>
      <trkpt lat="45.22148" lon="6.22878">
        <ele>1527</ele>
        <time>2022-06-18T06:27:03Z</time>
      </trkpt>
      <trkpt lat="45.22148" lon="6.22895">
        <ele>1526.8</ele>
        <time>2022-06-18T06:27:04Z</time>
      </trkpt>
      <trkpt lat="45.22148" lon="6.22912">
        <ele>1526.8</ele>
        <time>2022-06-18T06:27:05Z</time>
      </trkpt>
      <trkpt lat="45.22148" lon="6.22929">
        <ele>1526.8</ele>
        <time>2022-06-18T06:27:06Z</time>
      </trkpt>
      <trkpt lat="45.22147" lon="6.22944">
        <ele>1526.8</ele>
        <time>2022-06-18T06:27:07Z</time>
      </trkpt>
      <trkpt lat="45.22147" lon="6.22957">
        <ele>1526.3</ele>
        <time>2022-06-18T06:27:08Z</time>
      </trkpt>
      <trkpt lat="45.22147" lon="6.22969">
        <ele>1524.6</ele>
        <time>2022-06-18T06:27:09Z</time>
      </trkpt>
      <trkpt lat="45.22146" lon="6.22982">
        <ele>1522.8</ele>
        <time>2022-06-18T06:27:10Z</time>
      </trkpt>
      <trkpt lat="45.22145" lon="6.22996">
        <ele>1521.9</ele>
        <time>2022-06-18T06:27:11Z</time>
      </trkpt>
      <trkpt lat="45.22145" lon="6.2301">
        <ele>1520.8</ele>
        <time>2022-06-18T06:27:12Z</time>
      </trkpt>
      <trkpt lat="45.22144" lon="6.23026">
        <ele>1519.8</ele>
        <time>2022-06-18T06:27:13Z</time>
      </trkpt>
      <trkpt lat="45.22144" lon="6.23041">
        <ele>1518.7</ele>
        <time>2022-06-18T06:27:14Z</time>
      </trkpt>
      <trkpt lat="45.22144" lon="6.23057">
        <ele>1517.6</ele>
        <time>2022-06-18T06:27:15Z</time>
      </trkpt>
      <trkpt lat="45.22144" lon="6.23073">
        <ele>1516.5</ele>
        <time>2022-06-18T06:27:16Z</time>
      </trkpt>
      <trkpt lat="45.22143" lon="6.2309">
        <ele>1515.5</ele>
        <time>2022-06-18T06:27:17Z</time>
      </trkpt>
      <trkpt lat="45.22143" lon="6.23107">
        <ele>1515.2</ele>
        <time>2022-06-18T06:27:18Z</time>
      </trkpt>
      <trkpt lat="45.22142" lon="6.23124">
        <ele>1515</ele>
        <time>2022-06-18T06:27:19Z</time>
      </trkpt>
      <trkpt lat="45.22142" lon="6.23141">
        <ele>1515</ele>
        <time>2022-06-18T06:27:20Z</time>
      </trkpt>
      <trkpt lat="45.22142" lon="6.23158">
        <ele>1515.2</ele>
        <time>2022-06-18T06:27:21Z</time>
      </trkpt>
      <trkpt lat="45.22142" lon="6.23175">
        <ele>1515.3</ele>
        <time>2022-06-18T06:27:22Z</time>
      </trkpt>
      <trkpt lat="45.22143" lon="6.23192">
        <ele>1515.3</ele>
        <time>2022-06-18T06:27:23Z</time>
      </trkpt>
      <trkpt lat="45.22145" lon="6.23208">
        <ele>1515.5</ele>
        <time>2022-06-18T06:27:24Z</time>
      </trkpt>
      <trkpt lat="45.22147" lon="6.23223">
        <ele>1515.7</ele>
        <time>2022-06-18T06:27:25Z</time>
      </trkpt>
      <trkpt lat="45.2215" lon="6.23238">
        <ele>1516</ele>
        <time>2022-06-18T06:27:26Z</time>
      </trkpt>
      <trkpt lat="45.22154" lon="6.23251">
        <ele>1516.3</ele>
        <time>2022-06-18T06:27:27Z</time>
      </trkpt>
      <trkpt lat="45.22156" lon="6.23262">
        <ele>1516.6</ele>
        <time>2022-06-18T06:27:28Z</time>
      </trkpt>
      <trkpt lat="45.22156" lon="6.23273">
        <ele>1516.8</ele>
        <time>2022-06-18T06:27:29Z</time>
      </trkpt>
      <trkpt lat="45.22154" lon="6.23284">
        <ele>1516.8</ele>
        <time>2022-06-18T06:27:30Z</time>
      </trkpt>
      <trkpt lat="45.22149" lon="6.23294">
        <ele>1516.8</ele>
        <time>2022-06-18T06:27:31Z</time>
      </trkpt>
      <trkpt lat="45.22144" lon="6.23304">
        <ele>1516.2</ele>
        <time>2022-06-18T06:27:32Z</time>
      </trkpt>
      <trkpt lat="45.2214" lon="6.23314">
        <ele>1515.5</ele>
        <time>2022-06-18T06:27:33Z</time>
      </trkpt>
      <trkpt lat="45.22136" lon="6.23325">
        <ele>1514.9</ele>
        <time>2022-06-18T06:27:34Z</time>
      </trkpt>
      <trkpt lat="45.22132" lon="6.23337">
        <ele>1514.6</ele>
        <time>2022-06-18T06:27:35Z</time>
      </trkpt>
      <trkpt lat="45.22129" lon="6.23348">
        <ele>1514.3</ele>
        <time>2022-06-18T06:27:36Z</time>
      </trkpt>
      <trkpt lat="45.22126" lon="6.2336">
        <ele>1514</ele>
        <time>2022-06-18T06:27:37Z</time>
      </trkpt>
      <trkpt lat="45.22123" lon="6.23372">
        <ele>1513.8</ele>
        <time>2022-06-18T06:27:38Z</time>
      </trkpt>
      <trkpt lat="45.2212" lon="6.23384">
        <ele>1513.6</ele>
        <time>2022-06-18T06:27:39Z</time>
      </trkpt>
      <trkpt lat="45.22117" lon="6.23396">
        <ele>1513.4</ele>
        <time>2022-06-18T06:27:40Z</time>
      </trkpt>
      <trkpt lat="45.22114" lon="6.23409">
        <ele>1513.2</ele>
        <time>2022-06-18T06:27:41Z</time>
      </trkpt>
      <trkpt lat="45.22112" lon="6.23421">
        <ele>1513.1</ele>
        <time>2022-06-18T06:27:42Z</time>
      </trkpt>
      <trkpt lat="45.22109" lon="6.23433">
        <ele>1512.9</ele>
        <time>2022-06-18T06:27:43Z</time>
      </trkpt>
      <trkpt lat="45.22106" lon="6.23445">
        <ele>1512.7</ele>
        <time>2022-06-18T06:27:44Z</time>
      </trkpt>
      <trkpt lat="45.22104" lon="6.23457">
        <ele>1512.5</ele>
        <time>2022-06-18T06:27:45Z</time>
      </trkpt>
      <trkpt lat="45.22102" lon="6.23469">
        <ele>1512.4</ele>
        <time>2022-06-18T06:27:46Z</time>
      </trkpt>
      <trkpt lat="45.22101" lon="6.23481">
        <ele>1512.2</ele>
        <time>2022-06-18T06:27:47Z</time>
      </trkpt>
      <trkpt lat="45.221" lon="6.23493">
        <ele>1512.1</ele>
        <time>2022-06-18T06:27:48Z</time>
      </trkpt>
      <trkpt lat="45.22099" lon="6.23506">
        <ele>1511.9</ele>
        <time>2022-06-18T06:27:49Z</time>
      </trkpt>
      <trkpt lat="45.22099" lon="6.23518">
        <ele>1511.8</ele>
        <time>2022-06-18T06:27:50Z</time>
      </trkpt>
      <trkpt lat="45.22098" lon="6.23529">
        <ele>1511.7</ele>
        <time>2022-06-18T06:27:51Z</time>
      </trkpt>
      <trkpt lat="45.22098" lon="6.23538">
        <ele>1511.6</ele>
        <time>2022-06-18T06:27:52Z</time>
      </trkpt>
      <trkpt lat="45.22098" lon="6.23545">
        <ele>1511.5</ele>
        <time>2022-06-18T06:27:53Z</time>
      </trkpt>
      <trkpt lat="45.22099" lon="6.23551">
        <ele>1511.5</ele>
        <time>2022-06-18T06:27:54Z</time>
      </trkpt>
      <trkpt lat="45.22099" lon="6.23558">
        <ele>1511.3</ele>
        <time>2022-06-18T06:27:55Z</time>
      </trkpt>
      <trkpt lat="45.22099" lon="6.23566">
        <ele>1511.2</ele>
        <time>2022-06-18T06:27:56Z</time>
      </trkpt>
      <trkpt lat="45.22098" lon="6.23575">
        <ele>1510.9</ele>
        <time>2022-06-18T06:27:57Z</time>
      </trkpt>
      <trkpt lat="45.22096" lon="6.23585">
        <ele>1510.6</ele>
        <time>2022-06-18T06:27:58Z</time>
      </trkpt>
      <trkpt lat="45.22094" lon="6.23596">
        <ele>1510.3</ele>
        <time>2022-06-18T06:27:59Z</time>
      </trkpt>
      <trkpt lat="45.22092" lon="6.23607">
        <ele>1510</ele>
        <time>2022-06-18T06:28:00Z</time>
      </trkpt>
      <trkpt lat="45.2209" lon="6.23619">
        <ele>1509.7</ele>
        <time>2022-06-18T06:28:01Z</time>
      </trkpt>
      <trkpt lat="45.22088" lon="6.23631">
        <ele>1509.3</ele>
        <time>2022-06-18T06:28:02Z</time>
      </trkpt>
      <trkpt lat="45.22085" lon="6.23643">
        <ele>1508.9</ele>
        <time>2022-06-18T06:28:03Z</time>
      </trkpt>
      <trkpt lat="45.22083" lon="6.23655">
        <ele>1508.5</ele>
        <time>2022-06-18T06:28:04Z</time>
      </trkpt>
      <trkpt lat="45.2208" lon="6.23667">
        <ele>1508.1</ele>
        <time>2022-06-18T06:28:05Z</time>
      </trkpt>
      <trkpt lat="45.22078" lon="6.23679">
        <ele>1507.7</ele>
        <time>2022-06-18T06:28:06Z</time>
      </trkpt>
      <trkpt lat="45.22075" lon="6.23692">
        <ele>1507.3</ele>
        <time>2022-06-18T06:28:07Z</time>
      </trkpt>
      <trkpt lat="45.22073" lon="6.23704">
        <ele>1506.9</ele>
        <time>2022-06-18T06:28:08Z</time>
      </trkpt>
      <trkpt lat="45.22071" lon="6.23716">
        <ele>1506.5</ele>
        <time>2022-06-18T06:28:09Z</time>
      </trkpt>
      <trkpt lat="45.22068" lon="6.23727">
        <ele>1506.5</ele>
        <time>2022-06-18T06:28:10Z</time>
      </trkpt>
      <trkpt lat="45.22062" lon="6.23737">
        <ele>1506.5</ele>
        <time>2022-06-18T06:28:11Z</time>
      </trkpt>
      <trkpt lat="45.22054" lon="6.23746">
        <ele>1506.5</ele>
        <time>2022-06-18T06:28:12Z</time>
      </trkpt>
      <trkpt lat="45.22047" lon="6.23755">
        <ele>1506.2</ele>
        <time>2022-06-18T06:28:13Z</time>
      </trkpt>
      <trkpt lat="45.22041" lon="6.23764">
        <ele>1505.4</ele>
        <time>2022-06-18T06:28:14Z</time>
      </trkpt>
      <trkpt lat="45.22035" lon="6.23773">
        <ele>1504.7</ele>
        <time>2022-06-18T06:28:15Z</time>
      </trkpt>
      <trkpt lat="45.2203" lon="6.23782">
        <ele>1504</ele>
        <time>2022-06-18T06:28:16Z</time>
      </trkpt>
      <trkpt lat="45.22026" lon="6.23794">
        <ele>1503.9</ele>
        <time>2022-06-18T06:28:17Z</time>
      </trkpt>
      <trkpt lat="45.22024" lon="6.23807">
        <ele>1503.2</ele>
        <time>2022-06-18T06:28:18Z</time>
      </trkpt>
      <trkpt lat="45.22023" lon="6.2382">
        <ele>1502.5</ele>
        <time>2022-06-18T06:28:19Z</time>
      </trkpt>
      <trkpt lat="45.22022" lon="6.23835">
        <ele>1501.7</ele>
        <time>2022-06-18T06:28:20Z</time>
      </trkpt>
      <trkpt lat="45.22022" lon="6.23849">
        <ele>1500.9</ele>
        <time>2022-06-18T06:28:21Z</time>
      </trkpt>
      <trkpt lat="45.22022" lon="6.23865">
        <ele>1500</ele>
        <time>2022-06-18T06:28:22Z</time>
      </trkpt>
      <trkpt lat="45.2202" lon="6.23879">
        <ele>1499.3</ele>
        <time>2022-06-18T06:28:23Z</time>
      </trkpt>
      <trkpt lat="45.22019" lon="6.23894">
        <ele>1498.6</ele>
        <time>2022-06-18T06:28:24Z</time>
      </trkpt>
      <trkpt lat="45.22017" lon="6.23909">
        <ele>1497.9</ele>
        <time>2022-06-18T06:28:25Z</time>
      </trkpt>
      <trkpt lat="45.22015" lon="6.23924">
        <ele>1497.2</ele>
        <time>2022-06-18T06:28:26Z</time>
      </trkpt>
      <trkpt lat="45.22013" lon="6.23938">
        <ele>1496.6</ele>
        <time>2022-06-18T06:28:27Z</time>
      </trkpt>
      <trkpt lat="45.22011" lon="6.23953">
        <ele>1495.9</ele>
        <time>2022-06-18T06:28:28Z</time>
      </trkpt>
      <trkpt lat="45.22009" lon="6.23968">
        <ele>1495.3</ele>
        <time>2022-06-18T06:28:29Z</time>
      </trkpt>
      <trkpt lat="45.22005" lon="6.23982">
        <ele>1494.7</ele>
        <time>2022-06-18T06:28:30Z</time>
      </trkpt>
      <trkpt lat="45.22" lon="6.23996">
        <ele>1494.1</ele>
        <time>2022-06-18T06:28:31Z</time>
      </trkpt>
      <trkpt lat="45.21993" lon="6.24008">
        <ele>1493.4</ele>
        <time>2022-06-18T06:28:32Z</time>
      </trkpt>
      <trkpt lat="45.21987" lon="6.2402">
        <ele>1492.8</ele>
        <time>2022-06-18T06:28:33Z</time>
      </trkpt>
      <trkpt lat="45.21981" lon="6.24032">
        <ele>1492.4</ele>
        <time>2022-06-18T06:28:34Z</time>
      </trkpt>
      <trkpt lat="45.21975" lon="6.24044">
        <ele>1492.2</ele>
        <time>2022-06-18T06:28:35Z</time>
      </trkpt>
      <trkpt lat="45.21969" lon="6.24057">
        <ele>1492</ele>
        <time>2022-06-18T06:28:36Z</time>
      </trkpt>
      <trkpt lat="45.21964" lon="6.24069">
        <ele>1491.7</ele>
        <time>2022-06-18T06:28:37Z</time>
      </trkpt>
      <trkpt lat="45.21959" lon="6.24082">
        <ele>1491.5</ele>
        <time>2022-06-18T06:28:38Z</time>
      </trkpt>
      <trkpt lat="45.21954" lon="6.24096">
        <ele>1491.3</ele>
        <time>2022-06-18T06:28:39Z</time>
      </trkpt>
      <trkpt lat="45.21948" lon="6.24109">
        <ele>1491.2</ele>
        <time>2022-06-18T06:28:40Z</time>
      </trkpt>
      <trkpt lat="45.21942" lon="6.24122">
        <ele>1490.9</ele>
        <time>2022-06-18T06:28:41Z</time>
      </trkpt>
      <trkpt lat="45.21935" lon="6.24133">
        <ele>1490.5</ele>
        <time>2022-06-18T06:28:42Z</time>
      </trkpt>
      <trkpt lat="45.21927" lon="6.24143">
        <ele>1490.1</ele>
        <time>2022-06-18T06:28:43Z</time>
      </trkpt>
      <trkpt lat="45.21917" lon="6.24152">
        <ele>1489.8</ele>
        <time>2022-06-18T06:28:44Z</time>
      </trkpt>
      <trkpt lat="45.21909" lon="6.24162">
        <ele>1489.5</ele>
        <time>2022-06-18T06:28:45Z</time>
      </trkpt>
      <trkpt lat="45.21902" lon="6.24174">
        <ele>1489.2</ele>
        <time>2022-06-18T06:28:46Z</time>
      </trkpt>
      <trkpt lat="45.21895" lon="6.24186">
        <ele>1488.9</ele>
        <time>2022-06-18T06:28:47Z</time>
      </trkpt>
      <trkpt lat="45.2189" lon="6.242">
        <ele>1488.7</ele>
        <time>2022-06-18T06:28:48Z</time>
      </trkpt>
      <trkpt lat="45.21886" lon="6.24214">
        <ele>1488.5</ele>
        <time>2022-06-18T06:28:49Z</time>
      </trkpt>
      <trkpt lat="45.21881" lon="6.24228">
        <ele>1488.2</ele>
        <time>2022-06-18T06:28:50Z</time>
      </trkpt>
      <trkpt lat="45.21877" lon="6.24242">
        <ele>1488</ele>
        <time>2022-06-18T06:28:51Z</time>
      </trkpt>
      <trkpt lat="45.21872" lon="6.24255">
        <ele>1487.8</ele>
        <time>2022-06-18T06:28:52Z</time>
      </trkpt>
      <trkpt lat="45.21866" lon="6.24268">
        <ele>1487.6</ele>
        <time>2022-06-18T06:28:53Z</time>
      </trkpt>
      <trkpt lat="45.21862" lon="6.24281">
        <ele>1487.4</ele>
        <time>2022-06-18T06:28:54Z</time>
      </trkpt>
      <trkpt lat="45.21856" lon="6.24294">
        <ele>1487.2</ele>
        <time>2022-06-18T06:28:55Z</time>
      </trkpt>
      <trkpt lat="45.21851" lon="6.24307">
        <ele>1487</ele>
        <time>2022-06-18T06:28:56Z</time>
      </trkpt>
      <trkpt lat="45.21846" lon="6.2432">
        <ele>1486.9</ele>
        <time>2022-06-18T06:28:57Z</time>
      </trkpt>
      <trkpt lat="45.21841" lon="6.24333">
        <ele>1486.7</ele>
        <time>2022-06-18T06:28:58Z</time>
      </trkpt>
      <trkpt lat="45.21834" lon="6.24345">
        <ele>1486.5</ele>
        <time>2022-06-18T06:28:59Z</time>
      </trkpt>
      <trkpt lat="45.21827" lon="6.24356">
        <ele>1486.4</ele>
        <time>2022-06-18T06:29:00Z</time>
      </trkpt>
      <trkpt lat="45.21819" lon="6.24366">
        <ele>1486.2</ele>
        <time>2022-06-18T06:29:01Z</time>
      </trkpt>
      <trkpt lat="45.2181" lon="6.24375">
        <ele>1486.1</ele>
        <time>2022-06-18T06:29:02Z</time>
      </trkpt>
      <trkpt lat="45.21802" lon="6.24384">
        <ele>1486</ele>
        <time>2022-06-18T06:29:03Z</time>
      </trkpt>
      <trkpt lat="45.21794" lon="6.24393">
        <ele>1485.9</ele>
        <time>2022-06-18T06:29:04Z</time>
      </trkpt>
      <trkpt lat="45.21786" lon="6.24403">
        <ele>1485.8</ele>
        <time>2022-06-18T06:29:05Z</time>
      </trkpt>
      <trkpt lat="45.2178" lon="6.24414">
        <ele>1484.6</ele>
        <time>2022-06-18T06:29:06Z</time>
      </trkpt>
      <trkpt lat="45.21775" lon="6.24426">
        <ele>1483.3</ele>
        <time>2022-06-18T06:29:07Z</time>
      </trkpt>
      <trkpt lat="45.21771" lon="6.24438">
        <ele>1481.9</ele>
        <time>2022-06-18T06:29:08Z</time>
      </trkpt>
      <trkpt lat="45.21766" lon="6.2445">
        <ele>1480.6</ele>
        <time>2022-06-18T06:29:09Z</time>
      </trkpt>
      <trkpt lat="45.21762" lon="6.24463">
        <ele>1480.5</ele>
        <time>2022-06-18T06:29:10Z</time>
      </trkpt>
      <trkpt lat="45.2176" lon="6.24476">
        <ele>1480.5</ele>
        <time>2022-06-18T06:29:11Z</time>
      </trkpt>
      <trkpt lat="45.21761" lon="6.2449">
        <ele>1480.1</ele>
        <time>2022-06-18T06:29:12Z</time>
      </trkpt>
      <trkpt lat="45.21763" lon="6.24505">
        <ele>1479.8</ele>
        <time>2022-06-18T06:29:13Z</time>
      </trkpt>
      <trkpt lat="45.21765" lon="6.24519">
        <ele>1479.4</ele>
        <time>2022-06-18T06:29:14Z</time>
      </trkpt>
      <trkpt lat="45.21767" lon="6.24534">
        <ele>1478.9</ele>
        <time>2022-06-18T06:29:15Z</time>
      </trkpt>
      <trkpt lat="45.21768" lon="6.24549">
        <ele>1478.5</ele>
        <time>2022-06-18T06:29:16Z</time>
      </trkpt>
      <trkpt lat="45.21768" lon="6.24564">
        <ele>1478</ele>
        <time>2022-06-18T06:29:17Z</time>
      </trkpt>
      <trkpt lat="45.21767" lon="6.24578">
        <ele>1477.5</ele>
        <time>2022-06-18T06:29:18Z</time>
      </trkpt>
      <trkpt lat="45.21765" lon="6.24593">
        <ele>1476.9</ele>
        <time>2022-06-18T06:29:19Z</time>
      </trkpt>
      <trkpt lat="45.21761" lon="6.24607">
        <ele>1476.9</ele>
        <time>2022-06-18T06:29:20Z</time>
      </trkpt>
      <trkpt lat="45.21755" lon="6.2462">
        <ele>1476</ele>
        <time>2022-06-18T06:29:21Z</time>
      </trkpt>
      <trkpt lat="45.21747" lon="6.24633">
        <ele>1475</ele>
        <time>2022-06-18T06:29:22Z</time>
      </trkpt>
      <trkpt lat="45.21739" lon="6.24645">
        <ele>1473.9</ele>
        <time>2022-06-18T06:29:23Z</time>
      </trkpt>
      <trkpt lat="45.21731" lon="6.24658">
        <ele>1472.8</ele>
        <time>2022-06-18T06:29:24Z</time>
      </trkpt>
      <trkpt lat="45.21722" lon="6.2467">
        <ele>1471.8</ele>
        <time>2022-06-18T06:29:25Z</time>
      </trkpt>
      <trkpt lat="45.21714" lon="6.24683">
        <ele>1470.8</ele>
        <time>2022-06-18T06:29:26Z</time>
      </trkpt>
      <trkpt lat="45.21706" lon="6.24697">
        <ele>1469.9</ele>
        <time>2022-06-18T06:29:27Z</time>
      </trkpt>
      <trkpt lat="45.21698" lon="6.24711">
        <ele>1469.1</ele>
        <time>2022-06-18T06:29:28Z</time>
      </trkpt>
      <trkpt lat="45.2169" lon="6.24725">
        <ele>1468.4</ele>
        <time>2022-06-18T06:29:29Z</time>
      </trkpt>
      <trkpt lat="45.21682" lon="6.24739">
        <ele>1467.6</ele>
        <time>2022-06-18T06:29:30Z</time>
      </trkpt>
      <trkpt lat="45.21674" lon="6.24753">
        <ele>1467</ele>
        <time>2022-06-18T06:29:31Z</time>
      </trkpt>
      <trkpt lat="45.21667" lon="6.24767">
        <ele>1466.5</ele>
        <time>2022-06-18T06:29:32Z</time>
      </trkpt>
      <trkpt lat="45.2166" lon="6.24781">
        <ele>1466.1</ele>
        <time>2022-06-18T06:29:33Z</time>
      </trkpt>
      <trkpt lat="45.21652" lon="6.24794">
        <ele>1465.7</ele>
        <time>2022-06-18T06:29:34Z</time>
      </trkpt>
      <trkpt lat="45.21644" lon="6.24806">
        <ele>1465.4</ele>
        <time>2022-06-18T06:29:35Z</time>
      </trkpt>
      <trkpt lat="45.21636" lon="6.24816">
        <ele>1465.1</ele>
        <time>2022-06-18T06:29:36Z</time>
      </trkpt>
      <trkpt lat="45.21627" lon="6.24825">
        <ele>1464.9</ele>
        <time>2022-06-18T06:29:37Z</time>
      </trkpt>
      <trkpt lat="45.21617" lon="6.24831">
        <ele>1464.7</ele>
        <time>2022-06-18T06:29:38Z</time>
      </trkpt>
      <trkpt lat="45.21606" lon="6.24837">
        <ele>1464.5</ele>
        <time>2022-06-18T06:29:39Z</time>
      </trkpt>
      <trkpt lat="45.21596" lon="6.24842">
        <ele>1464.4</ele>
        <time>2022-06-18T06:29:40Z</time>
      </trkpt>
      <trkpt lat="45.21586" lon="6.24848">
        <ele>1464.3</ele>
        <time>2022-06-18T06:29:41Z</time>
      </trkpt>
      <trkpt lat="45.21577" lon="6.24853">
        <ele>1464.2</ele>
        <time>2022-06-18T06:29:42Z</time>
      </trkpt>
      <trkpt lat="45.21567" lon="6.24859">
        <ele>1464.1</ele>
        <time>2022-06-18T06:29:43Z</time>
      </trkpt>
      <trkpt lat="45.21559" lon="6.24866">
        <ele>1464</ele>
        <time>2022-06-18T06:29:44Z</time>
      </trkpt>
      <trkpt lat="45.2155" lon="6.24874">
        <ele>1463.9</ele>
        <time>2022-06-18T06:29:45Z</time>
      </trkpt>
      <trkpt lat="45.21542" lon="6.24883">
        <ele>1463.7</ele>
        <time>2022-06-18T06:29:46Z</time>
      </trkpt>
      <trkpt lat="45.21535" lon="6.24893">
        <ele>1463.6</ele>
        <time>2022-06-18T06:29:47Z</time>
      </trkpt>
      <trkpt lat="45.21528" lon="6.24905">
        <ele>1463.4</ele>
        <time>2022-06-18T06:29:48Z</time>
      </trkpt>
      <trkpt lat="45.21521" lon="6.24917">
        <ele>1463.2</ele>
        <time>2022-06-18T06:29:49Z</time>
      </trkpt>
      <trkpt lat="45.21515" lon="6.24929">
        <ele>1462.8</ele>
        <time>2022-06-18T06:29:50Z</time>
      </trkpt>
      <trkpt lat="45.21509" lon="6.24943">
        <ele>1462.4</ele>
        <time>2022-06-18T06:29:51Z</time>
      </trkpt>
      <trkpt lat="45.21505" lon="6.24957">
        <ele>1462</ele>
        <time>2022-06-18T06:29:52Z</time>
      </trkpt>
      <trkpt lat="45.21502" lon="6.24971">
        <ele>1461.5</ele>
        <time>2022-06-18T06:29:53Z</time>
      </trkpt>
      <trkpt lat="45.21499" lon="6.24984">
        <ele>1461.2</ele>
        <time>2022-06-18T06:29:54Z</time>
      </trkpt>
      <trkpt lat="45.21498" lon="6.24997">
        <ele>1460.6</ele>
        <time>2022-06-18T06:29:55Z</time>
      </trkpt>
      <trkpt lat="45.21498" lon="6.25012">
        <ele>1459.4</ele>
        <time>2022-06-18T06:29:56Z</time>
      </trkpt>
      <trkpt lat="45.21499" lon="6.25027">
        <ele>1458.2</ele>
        <time>2022-06-18T06:29:57Z</time>
      </trkpt>
      <trkpt lat="45.21501" lon="6.25043">
        <ele>1457.2</ele>
        <time>2022-06-18T06:29:58Z</time>
      </trkpt>
      <trkpt lat="45.21502" lon="6.25058">
        <ele>1456.3</ele>
        <time>2022-06-18T06:29:59Z</time>
      </trkpt>
      <trkpt lat="45.21502" lon="6.25074">
        <ele>1455.4</ele>
        <time>2022-06-18T06:30:00Z</time>
      </trkpt>
      <trkpt lat="45.21501" lon="6.2509">
        <ele>1454.6</ele>
        <time>2022-06-18T06:30:01Z</time>
      </trkpt>
      <trkpt lat="45.21499" lon="6.25107">
        <ele>1453.7</ele>
        <time>2022-06-18T06:30:02Z</time>
      </trkpt>
      <trkpt lat="45.21498" lon="6.25124">
        <ele>1453</ele>
        <time>2022-06-18T06:30:03Z</time>
      </trkpt>
      <trkpt lat="45.21497" lon="6.25142">
        <ele>1452.2</ele>
        <time>2022-06-18T06:30:04Z</time>
      </trkpt>
      <trkpt lat="45.21496" lon="6.25159">
        <ele>1451.5</ele>
        <time>2022-06-18T06:30:05Z</time>
      </trkpt>
      <trkpt lat="45.21494" lon="6.25176">
        <ele>1450.8</ele>
        <time>2022-06-18T06:30:06Z</time>
      </trkpt>
      <trkpt lat="45.21491" lon="6.25191">
        <ele>1450</ele>
        <time>2022-06-18T06:30:07Z</time>
      </trkpt>
      <trkpt lat="45.21485" lon="6.25204">
        <ele>1449.2</ele>
        <time>2022-06-18T06:30:08Z</time>
      </trkpt>
      <trkpt lat="45.21477" lon="6.25214">
        <ele>1448.1</ele>
        <time>2022-06-18T06:30:09Z</time>
      </trkpt>
      <trkpt lat="45.21465" lon="6.25221">
        <ele>1447.1</ele>
        <time>2022-06-18T06:30:10Z</time>
      </trkpt>
      <trkpt lat="45.21453" lon="6.25225">
        <ele>1446.1</ele>
        <time>2022-06-18T06:30:11Z</time>
      </trkpt>
      <trkpt lat="45.21438" lon="6.25226">
        <ele>1445.2</ele>
        <time>2022-06-18T06:30:12Z</time>
      </trkpt>
      <trkpt lat="45.21425" lon="6.25227">
        <ele>1444.4</ele>
        <time>2022-06-18T06:30:13Z</time>
      </trkpt>
      <trkpt lat="45.21412" lon="6.25228">
        <ele>1443.7</ele>
        <time>2022-06-18T06:30:14Z</time>
      </trkpt>
      <trkpt lat="45.21399" lon="6.2523">
        <ele>1443.1</ele>
        <time>2022-06-18T06:30:15Z</time>
      </trkpt>
      <trkpt lat="45.21387" lon="6.25232">
        <ele>1442.4</ele>
        <time>2022-06-18T06:30:16Z</time>
      </trkpt>
      <trkpt lat="45.21374" lon="6.25236">
        <ele>1441.7</ele>
        <time>2022-06-18T06:30:17Z</time>
      </trkpt>
      <trkpt lat="45.21362" lon="6.2524">
        <ele>1441.1</ele>
        <time>2022-06-18T06:30:18Z</time>
      </trkpt>
      <trkpt lat="45.2135" lon="6.25244">
        <ele>1440.5</ele>
        <time>2022-06-18T06:30:19Z</time>
      </trkpt>
      <trkpt lat="45.21338" lon="6.25248">
        <ele>1439.9</ele>
        <time>2022-06-18T06:30:20Z</time>
      </trkpt>
      <trkpt lat="45.21327" lon="6.25252">
        <ele>1439.3</ele>
        <time>2022-06-18T06:30:21Z</time>
      </trkpt>
      <trkpt lat="45.21316" lon="6.25257">
        <ele>1438.7</ele>
        <time>2022-06-18T06:30:22Z</time>
      </trkpt>
      <trkpt lat="45.21306" lon="6.25262">
        <ele>1438.2</ele>
        <time>2022-06-18T06:30:23Z</time>
      </trkpt>
      <trkpt lat="45.21297" lon="6.25269">
        <ele>1437.7</ele>
        <time>2022-06-18T06:30:24Z</time>
      </trkpt>
      <trkpt lat="45.21289" lon="6.25279">
        <ele>1437.1</ele>
        <time>2022-06-18T06:30:25Z</time>
      </trkpt>
      <trkpt lat="45.21282" lon="6.2529">
        <ele>1436.4</ele>
        <time>2022-06-18T06:30:26Z</time>
      </trkpt>
      <trkpt lat="45.21276" lon="6.25304">
        <ele>1435.7</ele>
        <time>2022-06-18T06:30:27Z</time>
      </trkpt>
      <trkpt lat="45.2127" lon="6.25318">
        <ele>1435</ele>
        <time>2022-06-18T06:30:28Z</time>
      </trkpt>
      <trkpt lat="45.21264" lon="6.25332">
        <ele>1434.3</ele>
        <time>2022-06-18T06:30:29Z</time>
      </trkpt>
      <trkpt lat="45.21257" lon="6.25346">
        <ele>1433.6</ele>
        <time>2022-06-18T06:30:30Z</time>
      </trkpt>
      <trkpt lat="45.21251" lon="6.2536">
        <ele>1432.9</ele>
        <time>2022-06-18T06:30:31Z</time>
      </trkpt>
      <trkpt lat="45.21246" lon="6.25375">
        <ele>1432.1</ele>
        <time>2022-06-18T06:30:32Z</time>
      </trkpt>
      <trkpt lat="45.21241" lon="6.25391">
        <ele>1431.3</ele>
        <time>2022-06-18T06:30:33Z</time>
      </trkpt>
      <trkpt lat="45.21238" lon="6.25408">
        <ele>1430.4</ele>
        <time>2022-06-18T06:30:34Z</time>
      </trkpt>
      <trkpt lat="45.21235" lon="6.25425">
        <ele>1429.4</ele>
        <time>2022-06-18T06:30:35Z</time>
      </trkpt>
      <trkpt lat="45.21231" lon="6.25443">
        <ele>1428.4</ele>
        <time>2022-06-18T06:30:36Z</time>
      </trkpt>
      <trkpt lat="45.21225" lon="6.2546">
        <ele>1427.4</ele>
        <time>2022-06-18T06:30:37Z</time>
      </trkpt>
      <trkpt lat="45.21219" lon="6.25477">
        <ele>1426.5</ele>
        <time>2022-06-18T06:30:38Z</time>
      </trkpt>
      <trkpt lat="45.21212" lon="6.25494">
        <ele>1425.5</ele>
        <time>2022-06-18T06:30:39Z</time>
      </trkpt>
      <trkpt lat="45.21204" lon="6.2551">
        <ele>1424.5</ele>
        <time>2022-06-18T06:30:40Z</time>
      </trkpt>
      <trkpt lat="45.21196" lon="6.25526">
        <ele>1423.5</ele>
        <time>2022-06-18T06:30:41Z</time>
      </trkpt>
      <trkpt lat="45.21188" lon="6.25543">
        <ele>1422.6</ele>
        <time>2022-06-18T06:30:42Z</time>
      </trkpt>
      <trkpt lat="45.21181" lon="6.25559">
        <ele>1421.8</ele>
        <time>2022-06-18T06:30:43Z</time>
      </trkpt>
      <trkpt lat="45.21173" lon="6.25576">
        <ele>1421.2</ele>
        <time>2022-06-18T06:30:44Z</time>
      </trkpt>
      <trkpt lat="45.21166" lon="6.25593">
        <ele>1420.8</ele>
        <time>2022-06-18T06:30:45Z</time>
      </trkpt>
      <trkpt lat="45.21158" lon="6.2561">
        <ele>1420.5</ele>
        <time>2022-06-18T06:30:46Z</time>
      </trkpt>
      <trkpt lat="45.21151" lon="6.25626">
        <ele>1420.3</ele>
        <time>2022-06-18T06:30:47Z</time>
      </trkpt>
      <trkpt lat="45.21144" lon="6.25643">
        <ele>1420.2</ele>
        <time>2022-06-18T06:30:48Z</time>
      </trkpt>
      <trkpt lat="45.21137" lon="6.25658">
        <ele>1420</ele>
        <time>2022-06-18T06:30:49Z</time>
      </trkpt>
      <trkpt lat="45.2113" lon="6.25674">
        <ele>1420</ele>
        <time>2022-06-18T06:30:50Z</time>
      </trkpt>
      <trkpt lat="45.21124" lon="6.25689">
        <ele>1420</ele>
        <time>2022-06-18T06:30:51Z</time>
      </trkpt>
      <trkpt lat="45.21117" lon="6.25704">
        <ele>1420.1</ele>
        <time>2022-06-18T06:30:52Z</time>
      </trkpt>
      <trkpt lat="45.21111" lon="6.25718">
        <ele>1420.1</ele>
        <time>2022-06-18T06:30:53Z</time>
      </trkpt>
      <trkpt lat="45.21104" lon="6.25731">
        <ele>1420.2</ele>
        <time>2022-06-18T06:30:54Z</time>
      </trkpt>
      <trkpt lat="45.21096" lon="6.25744">
        <ele>1420.1</ele>
        <time>2022-06-18T06:30:55Z</time>
      </trkpt>
      <trkpt lat="45.21087" lon="6.25754">
        <ele>1420.1</ele>
        <time>2022-06-18T06:30:56Z</time>
      </trkpt>
      <trkpt lat="45.21077" lon="6.25763">
        <ele>1420</ele>
        <time>2022-06-18T06:30:57Z</time>
      </trkpt>
      <trkpt lat="45.21066" lon="6.2577">
        <ele>1419.9</ele>
        <time>2022-06-18T06:30:58Z</time>
      </trkpt>
      <trkpt lat="45.21054" lon="6.25776">
        <ele>1419.8</ele>
        <time>2022-06-18T06:30:59Z</time>
      </trkpt>
      <trkpt lat="45.21043" lon="6.25781">
        <ele>1419.9</ele>
        <time>2022-06-18T06:31:00Z</time>
      </trkpt>
      <trkpt lat="45.21031" lon="6.25785">
        <ele>1419.9</ele>
        <time>2022-06-18T06:31:01Z</time>
      </trkpt>
      <trkpt lat="45.21021" lon="6.25791">
        <ele>1420.1</ele>
        <time>2022-06-18T06:31:02Z</time>
      </trkpt>
      <trkpt lat="45.21011" lon="6.25797">
        <ele>1420.1</ele>
        <time>2022-06-18T06:31:03Z</time>
      </trkpt>
      <trkpt lat="45.21002" lon="6.25806">
        <ele>1420.2</ele>
        <time>2022-06-18T06:31:04Z</time>
      </trkpt>
      <trkpt lat="45.20994" lon="6.25816">
        <ele>1420.2</ele>
        <time>2022-06-18T06:31:05Z</time>
      </trkpt>
      <trkpt lat="45.20987" lon="6.25828">
        <ele>1420.1</ele>
        <time>2022-06-18T06:31:06Z</time>
      </trkpt>
      <trkpt lat="45.2098" lon="6.2584">
        <ele>1420.1</ele>
        <time>2022-06-18T06:31:07Z</time>
      </trkpt>
      <trkpt lat="45.20974" lon="6.25852">
        <ele>1420.1</ele>
        <time>2022-06-18T06:31:08Z</time>
      </trkpt>
      <trkpt lat="45.20969" lon="6.25865">
        <ele>1420.1</ele>
        <time>2022-06-18T06:31:09Z</time>
      </trkpt>
      <trkpt lat="45.20963" lon="6.25877">
        <ele>1420.1</ele>
        <time>2022-06-18T06:31:10Z</time>
      </trkpt>
      <trkpt lat="45.20957" lon="6.25889">
        <ele>1420.1</ele>
        <time>2022-06-18T06:31:11Z</time>
      </trkpt>
      <trkpt lat="45.20951" lon="6.25901">
        <ele>1420.1</ele>
        <time>2022-06-18T06:31:12Z</time>
      </trkpt>
      <trkpt lat="45.20946" lon="6.25914">
        <ele>1420.1</ele>
        <time>2022-06-18T06:31:13Z</time>
      </trkpt>
      <trkpt lat="45.20941" lon="6.25927">
        <ele>1420.1</ele>
        <time>2022-06-18T06:31:14Z</time>
      </trkpt>
      <trkpt lat="45.20936" lon="6.25939">
        <ele>1420.1</ele>
        <time>2022-06-18T06:31:15Z</time>
      </trkpt>
      <trkpt lat="45.20931" lon="6.25953">
        <ele>1420</ele>
        <time>2022-06-18T06:31:16Z</time>
      </trkpt>
      <trkpt lat="45.20927" lon="6.25966">
        <ele>1419.9</ele>
        <time>2022-06-18T06:31:17Z</time>
      </trkpt>
      <trkpt lat="45.20923" lon="6.25979">
        <ele>1419.7</ele>
        <time>2022-06-18T06:31:18Z</time>
      </trkpt>
      <trkpt lat="45.20918" lon="6.25992">
        <ele>1419.6</ele>
        <time>2022-06-18T06:31:19Z</time>
      </trkpt>
      <trkpt lat="45.20913" lon="6.26005">
        <ele>1419.4</ele>
        <time>2022-06-18T06:31:20Z</time>
      </trkpt>
      <trkpt lat="45.20908" lon="6.26019">
        <ele>1419.1</ele>
        <time>2022-06-18T06:31:21Z</time>
      </trkpt>
      <trkpt lat="45.20903" lon="6.26032">
        <ele>1418.7</ele>
        <time>2022-06-18T06:31:22Z</time>
      </trkpt>
      <trkpt lat="45.20898" lon="6.26046">
        <ele>1418.3</ele>
        <time>2022-06-18T06:31:23Z</time>
      </trkpt>
      <trkpt lat="45.20894" lon="6.2606">
        <ele>1417.8</ele>
        <time>2022-06-18T06:31:24Z</time>
      </trkpt>
      <trkpt lat="45.2089" lon="6.26075">
        <ele>1417.3</ele>
        <time>2022-06-18T06:31:25Z</time>
      </trkpt>
      <trkpt lat="45.20886" lon="6.26091">
        <ele>1416.7</ele>
        <time>2022-06-18T06:31:26Z</time>
      </trkpt>
      <trkpt lat="45.20882" lon="6.26107">
        <ele>1416.1</ele>
        <time>2022-06-18T06:31:27Z</time>
      </trkpt>
      <trkpt lat="45.20879" lon="6.26122">
        <ele>1415.5</ele>
        <time>2022-06-18T06:31:28Z</time>
      </trkpt>
      <trkpt lat="45.20874" lon="6.26138">
        <ele>1414.9</ele>
        <time>2022-06-18T06:31:29Z</time>
      </trkpt>
      <trkpt lat="45.2087" lon="6.26153">
        <ele>1414.2</ele>
        <time>2022-06-18T06:31:30Z</time>
      </trkpt>
      <trkpt lat="45.20865" lon="6.26168">
        <ele>1413.5</ele>
        <time>2022-06-18T06:31:31Z</time>
      </trkpt>
      <trkpt lat="45.20859" lon="6.26183">
        <ele>1412.9</ele>
        <time>2022-06-18T06:31:32Z</time>
      </trkpt>
      <trkpt lat="45.20851" lon="6.26196">
        <ele>1412.3</ele>
        <time>2022-06-18T06:31:33Z</time>
      </trkpt>
      <trkpt lat="45.20843" lon="6.26208">
        <ele>1411.7</ele>
        <time>2022-06-18T06:31:34Z</time>
      </trkpt>
      <trkpt lat="45.20833" lon="6.26218">
        <ele>1411.1</ele>
        <time>2022-06-18T06:31:35Z</time>
      </trkpt>
      <trkpt lat="45.20822" lon="6.26227">
        <ele>1410.5</ele>
        <time>2022-06-18T06:31:36Z</time>
      </trkpt>
      <trkpt lat="45.20812" lon="6.26237">
        <ele>1410</ele>
        <time>2022-06-18T06:31:37Z</time>
      </trkpt>
      <trkpt lat="45.20801" lon="6.26246">
        <ele>1409.5</ele>
        <time>2022-06-18T06:31:38Z</time>
      </trkpt>
      <trkpt lat="45.20791" lon="6.26255">
        <ele>1409.1</ele>
        <time>2022-06-18T06:31:39Z</time>
      </trkpt>
      <trkpt lat="45.20779" lon="6.26261">
        <ele>1408.8</ele>
        <time>2022-06-18T06:31:40Z</time>
      </trkpt>
      <trkpt lat="45.20768" lon="6.26267">
        <ele>1408.7</ele>
        <time>2022-06-18T06:31:41Z</time>
      </trkpt>
      <trkpt lat="45.20756" lon="6.26271">
        <ele>1408.6</ele>
        <time>2022-06-18T06:31:42Z</time>
      </trkpt>
      <trkpt lat="45.20745" lon="6.26275">
        <ele>1408.5</ele>
        <time>2022-06-18T06:31:43Z</time>
      </trkpt>
      <trkpt lat="45.20734" lon="6.2628">
        <ele>1408.4</ele>
        <time>2022-06-18T06:31:44Z</time>
      </trkpt>
      <trkpt lat="45.20724" lon="6.26284">
        <ele>1408.2</ele>
        <time>2022-06-18T06:31:45Z</time>
      </trkpt>
      <trkpt lat="45.20714" lon="6.26289">
        <ele>1408.1</ele>
        <time>2022-06-18T06:31:46Z</time>
      </trkpt>
      <trkpt lat="45.20704" lon="6.26294">
        <ele>1407.9</ele>
        <time>2022-06-18T06:31:47Z</time>
      </trkpt>
      <trkpt lat="45.20694" lon="6.26299">
        <ele>1407.8</ele>
        <time>2022-06-18T06:31:48Z</time>
      </trkpt>
      <trkpt lat="45.20684" lon="6.26304">
        <ele>1407.5</ele>
        <time>2022-06-18T06:31:49Z</time>
      </trkpt>
      <trkpt lat="45.20674" lon="6.26309">
        <ele>1407.3</ele>
        <time>2022-06-18T06:31:50Z</time>
      </trkpt>
      <trkpt lat="45.20664" lon="6.26317">
        <ele>1407.1</ele>
        <time>2022-06-18T06:31:51Z</time>
      </trkpt>
      <trkpt lat="45.20655" lon="6.26326">
        <ele>1406.8</ele>
        <time>2022-06-18T06:31:52Z</time>
      </trkpt>
      <trkpt lat="45.20647" lon="6.26337">
        <ele>1406.5</ele>
        <time>2022-06-18T06:31:53Z</time>
      </trkpt>
      <trkpt lat="45.20639" lon="6.2635">
        <ele>1406.3</ele>
        <time>2022-06-18T06:31:54Z</time>
      </trkpt>
      <trkpt lat="45.20631" lon="6.26363">
        <ele>1406</ele>
        <time>2022-06-18T06:31:55Z</time>
      </trkpt>
      <trkpt lat="45.20624" lon="6.26375">
        <ele>1405.8</ele>
        <time>2022-06-18T06:31:56Z</time>
      </trkpt>
      <trkpt lat="45.20617" lon="6.26386">
        <ele>1405.6</ele>
        <time>2022-06-18T06:31:57Z</time>
      </trkpt>
      <trkpt lat="45.2061" lon="6.26397">
        <ele>1405.2</ele>
        <time>2022-06-18T06:31:58Z</time>
      </trkpt>
      <trkpt lat="45.20605" lon="6.26408">
        <ele>1404.8</ele>
        <time>2022-06-18T06:31:59Z</time>
      </trkpt>
      <trkpt lat="45.20601" lon="6.2642">
        <ele>1404.2</ele>
        <time>2022-06-18T06:32:00Z</time>
      </trkpt>
      <trkpt lat="45.20597" lon="6.26434">
        <ele>1403.6</ele>
        <time>2022-06-18T06:32:01Z</time>
      </trkpt>
      <trkpt lat="45.20593" lon="6.26447">
        <ele>1402.8</ele>
        <time>2022-06-18T06:32:02Z</time>
      </trkpt>
      <trkpt lat="45.20587" lon="6.26459">
        <ele>1402.1</ele>
        <time>2022-06-18T06:32:03Z</time>
      </trkpt>
      <trkpt lat="45.20578" lon="6.26469">
        <ele>1401.2</ele>
        <time>2022-06-18T06:32:04Z</time>
      </trkpt>
      <trkpt lat="45.20567" lon="6.26478">
        <ele>1400.1</ele>
        <time>2022-06-18T06:32:05Z</time>
      </trkpt>
      <trkpt lat="45.20557" lon="6.26485">
        <ele>1399.2</ele>
        <time>2022-06-18T06:32:06Z</time>
      </trkpt>
      <trkpt lat="45.20546" lon="6.26493">
        <ele>1398.7</ele>
        <time>2022-06-18T06:32:07Z</time>
      </trkpt>
      <trkpt lat="45.20535" lon="6.265">
        <ele>1398.2</ele>
        <time>2022-06-18T06:32:08Z</time>
      </trkpt>
      <trkpt lat="45.20525" lon="6.26507">
        <ele>1397.7</ele>
        <time>2022-06-18T06:32:09Z</time>
      </trkpt>
      <trkpt lat="45.20516" lon="6.26514">
        <ele>1397.2</ele>
        <time>2022-06-18T06:32:10Z</time>
      </trkpt>
      <trkpt lat="45.20507" lon="6.26522">
        <ele>1396.7</ele>
        <time>2022-06-18T06:32:11Z</time>
      </trkpt>
      <trkpt lat="45.20498" lon="6.2653">
        <ele>1396.1</ele>
        <time>2022-06-18T06:32:12Z</time>
      </trkpt>
      <trkpt lat="45.20489" lon="6.26538">
        <ele>1395.6</ele>
        <time>2022-06-18T06:32:13Z</time>
      </trkpt>
      <trkpt lat="45.2048" lon="6.26547">
        <ele>1394.9</ele>
        <time>2022-06-18T06:32:14Z</time>
      </trkpt>
      <trkpt lat="45.20471" lon="6.26556">
        <ele>1394.3</ele>
        <time>2022-06-18T06:32:15Z</time>
      </trkpt>
      <trkpt lat="45.20461" lon="6.26564">
        <ele>1393.6</ele>
        <time>2022-06-18T06:32:16Z</time>
      </trkpt>
      <trkpt lat="45.20451" lon="6.26571">
        <ele>1393</ele>
        <time>2022-06-18T06:32:17Z</time>
      </trkpt>
      <trkpt lat="45.2044" lon="6.26575">
        <ele>1392.3</ele>
        <time>2022-06-18T06:32:18Z</time>
      </trkpt>
      <trkpt lat="45.20428" lon="6.26576">
        <ele>1391.5</ele>
        <time>2022-06-18T06:32:19Z</time>
      </trkpt>
      <trkpt lat="45.20417" lon="6.26578">
        <ele>1390.8</ele>
        <time>2022-06-18T06:32:20Z</time>
      </trkpt>
      <trkpt lat="45.20405" lon="6.2658">
        <ele>1390</ele>
        <time>2022-06-18T06:32:21Z</time>
      </trkpt>
      <trkpt lat="45.20394" lon="6.26584">
        <ele>1389.2</ele>
        <time>2022-06-18T06:32:22Z</time>
      </trkpt>
      <trkpt lat="45.20383" lon="6.26591">
        <ele>1388.5</ele>
        <time>2022-06-18T06:32:23Z</time>
      </trkpt>
      <trkpt lat="45.20374" lon="6.26599">
        <ele>1387.8</ele>
        <time>2022-06-18T06:32:24Z</time>
      </trkpt>
      <trkpt lat="45.20365" lon="6.26609">
        <ele>1387.2</ele>
        <time>2022-06-18T06:32:25Z</time>
      </trkpt>
      <trkpt lat="45.20356" lon="6.2662">
        <ele>1386.4</ele>
        <time>2022-06-18T06:32:26Z</time>
      </trkpt>
      <trkpt lat="45.20348" lon="6.26632">
        <ele>1385.7</ele>
        <time>2022-06-18T06:32:27Z</time>
      </trkpt>
      <trkpt lat="45.20341" lon="6.26647">
        <ele>1384.9</ele>
        <time>2022-06-18T06:32:28Z</time>
      </trkpt>
      <trkpt lat="45.20335" lon="6.26663">
        <ele>1384.2</ele>
        <time>2022-06-18T06:32:29Z</time>
      </trkpt>
      <trkpt lat="45.2033" lon="6.2668">
        <ele>1383.4</ele>
        <time>2022-06-18T06:32:30Z</time>
      </trkpt>
      <trkpt lat="45.20326" lon="6.26698">
        <ele>1382.6</ele>
        <time>2022-06-18T06:32:31Z</time>
      </trkpt>
      <trkpt lat="45.20321" lon="6.26716">
        <ele>1381.9</ele>
        <time>2022-06-18T06:32:32Z</time>
      </trkpt>
      <trkpt lat="45.20316" lon="6.26733">
        <ele>1381.2</ele>
        <time>2022-06-18T06:32:33Z</time>
      </trkpt>
      <trkpt lat="45.2031" lon="6.2675">
        <ele>1380.4</ele>
        <time>2022-06-18T06:32:34Z</time>
      </trkpt>
      <trkpt lat="45.20302" lon="6.26765">
        <ele>1379.6</ele>
        <time>2022-06-18T06:32:35Z</time>
      </trkpt>
      <trkpt lat="45.20294" lon="6.26779">
        <ele>1378.9</ele>
        <time>2022-06-18T06:32:36Z</time>
      </trkpt>
      <trkpt lat="45.20285" lon="6.26792">
        <ele>1378.3</ele>
        <time>2022-06-18T06:32:37Z</time>
      </trkpt>
      <trkpt lat="45.20274" lon="6.26804">
        <ele>1377.8</ele>
        <time>2022-06-18T06:32:38Z</time>
      </trkpt>
      <trkpt lat="45.20263" lon="6.26815">
        <ele>1377.3</ele>
        <time>2022-06-18T06:32:39Z</time>
      </trkpt>
      <trkpt lat="45.20251" lon="6.26824">
        <ele>1376.7</ele>
        <time>2022-06-18T06:32:40Z</time>
      </trkpt>
      <trkpt lat="45.2024" lon="6.26833">
        <ele>1376.2</ele>
        <time>2022-06-18T06:32:41Z</time>
      </trkpt>
      <trkpt lat="45.20231" lon="6.26844">
        <ele>1375.6</ele>
        <time>2022-06-18T06:32:42Z</time>
      </trkpt>
      <trkpt lat="45.20223" lon="6.26857">
        <ele>1375</ele>
        <time>2022-06-18T06:32:43Z</time>
      </trkpt>
      <trkpt lat="45.20215" lon="6.26872">
        <ele>1374.4</ele>
        <time>2022-06-18T06:32:44Z</time>
      </trkpt>
      <trkpt lat="45.20207" lon="6.26886">
        <ele>1373.7</ele>
        <time>2022-06-18T06:32:45Z</time>
      </trkpt>
      <trkpt lat="45.20198" lon="6.26899">
        <ele>1373</ele>
        <time>2022-06-18T06:32:46Z</time>
      </trkpt>
      <trkpt lat="45.20188" lon="6.26911">
        <ele>1372.3</ele>
        <time>2022-06-18T06:32:47Z</time>
      </trkpt>
      <trkpt lat="45.20177" lon="6.26922">
        <ele>1371.7</ele>
        <time>2022-06-18T06:32:48Z</time>
      </trkpt>
      <trkpt lat="45.20168" lon="6.26935">
        <ele>1371</ele>
        <time>2022-06-18T06:32:49Z</time>
      </trkpt>
      <trkpt lat="45.2016" lon="6.2695">
        <ele>1370.4</ele>
        <time>2022-06-18T06:32:50Z</time>
      </trkpt>
      <trkpt lat="45.20154" lon="6.26967">
        <ele>1369.6</ele>
        <time>2022-06-18T06:32:51Z</time>
      </trkpt>
      <trkpt lat="45.2015" lon="6.26987">
        <ele>1368.9</ele>
        <time>2022-06-18T06:32:52Z</time>
      </trkpt>
      <trkpt lat="45.20147" lon="6.27007">
        <ele>1368.2</ele>
        <time>2022-06-18T06:32:53Z</time>
      </trkpt>
      <trkpt lat="45.20143" lon="6.27027">
        <ele>1367.5</ele>
        <time>2022-06-18T06:32:54Z</time>
      </trkpt>
      <trkpt lat="45.2014" lon="6.27046">
        <ele>1366.8</ele>
        <time>2022-06-18T06:32:55Z</time>
      </trkpt>
      <trkpt lat="45.20136" lon="6.27066">
        <ele>1366.1</ele>
        <time>2022-06-18T06:32:56Z</time>
      </trkpt>
      <trkpt lat="45.20132" lon="6.27085">
        <ele>1365.3</ele>
        <time>2022-06-18T06:32:57Z</time>
      </trkpt>
      <trkpt lat="45.20128" lon="6.27104">
        <ele>1364.6</ele>
        <time>2022-06-18T06:32:58Z</time>
      </trkpt>
      <trkpt lat="45.20124" lon="6.27123">
        <ele>1363.9</ele>
        <time>2022-06-18T06:32:59Z</time>
      </trkpt>
      <trkpt lat="45.20121" lon="6.27143">
        <ele>1363.3</ele>
        <time>2022-06-18T06:33:00Z</time>
      </trkpt>
      <trkpt lat="45.20118" lon="6.27162">
        <ele>1362.7</ele>
        <time>2022-06-18T06:33:01Z</time>
      </trkpt>
      <trkpt lat="45.20116" lon="6.27181">
        <ele>1362.1</ele>
        <time>2022-06-18T06:33:02Z</time>
      </trkpt>
      <trkpt lat="45.20114" lon="6.27201">
        <ele>1361.7</ele>
        <time>2022-06-18T06:33:03Z</time>
      </trkpt>
      <trkpt lat="45.20112" lon="6.2722">
        <ele>1361.4</ele>
        <time>2022-06-18T06:33:04Z</time>
      </trkpt>
      <trkpt lat="45.20108" lon="6.27238">
        <ele>1361.2</ele>
        <time>2022-06-18T06:33:05Z</time>
      </trkpt>
      <trkpt lat="45.20101" lon="6.27255">
        <ele>1361</ele>
        <time>2022-06-18T06:33:06Z</time>
      </trkpt>
      <trkpt lat="45.20093" lon="6.27269">
        <ele>1360.9</ele>
        <time>2022-06-18T06:33:07Z</time>
      </trkpt>
      <trkpt lat="45.20085" lon="6.27283">
        <ele>1360.9</ele>
        <time>2022-06-18T06:33:08Z</time>
      </trkpt>
      <trkpt lat="45.20077" lon="6.27296">
        <ele>1360.9</ele>
        <time>2022-06-18T06:33:09Z</time>
      </trkpt>
      <trkpt lat="45.20072" lon="6.27309">
        <ele>1360.9</ele>
        <time>2022-06-18T06:33:10Z</time>
      </trkpt>
      <trkpt lat="45.20071" lon="6.27323">
        <ele>1360.9</ele>
        <time>2022-06-18T06:33:11Z</time>
      </trkpt>
      <trkpt lat="45.20075" lon="6.27337">
        <ele>1360.9</ele>
        <time>2022-06-18T06:33:12Z</time>
      </trkpt>
      <trkpt lat="45.20084" lon="6.27349">
        <ele>1361</ele>
        <time>2022-06-18T06:33:13Z</time>
      </trkpt>
      <trkpt lat="45.20094" lon="6.2736">
        <ele>1361</ele>
        <time>2022-06-18T06:33:14Z</time>
      </trkpt>
      <trkpt lat="45.20104" lon="6.2737">
        <ele>1361.1</ele>
        <time>2022-06-18T06:33:15Z</time>
      </trkpt>
      <trkpt lat="45.20114" lon="6.2738">
        <ele>1361.2</ele>
        <time>2022-06-18T06:33:16Z</time>
      </trkpt>
      <trkpt lat="45.2012" lon="6.27392">
        <ele>1361.2</ele>
        <time>2022-06-18T06:33:17Z</time>
      </trkpt>
      <trkpt lat="45.20125" lon="6.27406">
        <ele>1361.3</ele>
        <time>2022-06-18T06:33:18Z</time>
      </trkpt>
      <trkpt lat="45.20126" lon="6.27421">
        <ele>1361.3</ele>
        <time>2022-06-18T06:33:19Z</time>
      </trkpt>
      <trkpt lat="45.20124" lon="6.27436">
        <ele>1361.4</ele>
        <time>2022-06-18T06:33:20Z</time>
      </trkpt>
      <trkpt lat="45.2012" lon="6.27451">
        <ele>1361.3</ele>
        <time>2022-06-18T06:33:21Z</time>
      </trkpt>
      <trkpt lat="45.20113" lon="6.27464">
        <ele>1361.3</ele>
        <time>2022-06-18T06:33:22Z</time>
      </trkpt>
      <trkpt lat="45.20105" lon="6.27475">
        <ele>1361.2</ele>
        <time>2022-06-18T06:33:23Z</time>
      </trkpt>
      <trkpt lat="45.20096" lon="6.27485">
        <ele>1361</ele>
        <time>2022-06-18T06:33:24Z</time>
      </trkpt>
      <trkpt lat="45.20088" lon="6.27494">
        <ele>1360.7</ele>
        <time>2022-06-18T06:33:25Z</time>
      </trkpt>
      <trkpt lat="45.20079" lon="6.27502">
        <ele>1360.3</ele>
        <time>2022-06-18T06:33:26Z</time>
      </trkpt>
      <trkpt lat="45.2007" lon="6.27511">
        <ele>1359.9</ele>
        <time>2022-06-18T06:33:27Z</time>
      </trkpt>
      <trkpt lat="45.20062" lon="6.2752">
        <ele>1359.5</ele>
        <time>2022-06-18T06:33:28Z</time>
      </trkpt>
      <trkpt lat="45.20054" lon="6.2753">
        <ele>1359</ele>
        <time>2022-06-18T06:33:29Z</time>
      </trkpt>
      <trkpt lat="45.20047" lon="6.2754">
        <ele>1358.4</ele>
        <time>2022-06-18T06:33:30Z</time>
      </trkpt>
      <trkpt lat="45.2004" lon="6.27551">
        <ele>1357.8</ele>
        <time>2022-06-18T06:33:31Z</time>
      </trkpt>
      <trkpt lat="45.20034" lon="6.27563">
        <ele>1357.1</ele>
        <time>2022-06-18T06:33:32Z</time>
      </trkpt>
      <trkpt lat="45.20027" lon="6.27573">
        <ele>1356.4</ele>
        <time>2022-06-18T06:33:33Z</time>
      </trkpt>
      <trkpt lat="45.20019" lon="6.27583">
        <ele>1355.8</ele>
        <time>2022-06-18T06:33:34Z</time>
      </trkpt>
      <trkpt lat="45.2001" lon="6.27591">
        <ele>1355.1</ele>
        <time>2022-06-18T06:33:35Z</time>
      </trkpt>
      <trkpt lat="45.20001" lon="6.27599">
        <ele>1354.4</ele>
        <time>2022-06-18T06:33:36Z</time>
      </trkpt>
      <trkpt lat="45.19991" lon="6.27608">
        <ele>1353.7</ele>
        <time>2022-06-18T06:33:37Z</time>
      </trkpt>
      <trkpt lat="45.19983" lon="6.27618">
        <ele>1353</ele>
        <time>2022-06-18T06:33:38Z</time>
      </trkpt>
      <trkpt lat="45.19975" lon="6.2763">
        <ele>1352.3</ele>
        <time>2022-06-18T06:33:39Z</time>
      </trkpt>
      <trkpt lat="45.19968" lon="6.27642">
        <ele>1351.6</ele>
        <time>2022-06-18T06:33:40Z</time>
      </trkpt>
      <trkpt lat="45.19961" lon="6.27654">
        <ele>1350.8</ele>
        <time>2022-06-18T06:33:41Z</time>
      </trkpt>
      <trkpt lat="45.19954" lon="6.27666">
        <ele>1350</ele>
        <time>2022-06-18T06:33:42Z</time>
      </trkpt>
      <trkpt lat="45.19947" lon="6.27677">
        <ele>1349.1</ele>
        <time>2022-06-18T06:33:43Z</time>
      </trkpt>
      <trkpt lat="45.19939" lon="6.27687">
        <ele>1348.8</ele>
        <time>2022-06-18T06:33:44Z</time>
      </trkpt>
      <trkpt lat="45.1993" lon="6.27696">
        <ele>1348.8</ele>
        <time>2022-06-18T06:33:45Z</time>
      </trkpt>
      <trkpt lat="45.19923" lon="6.27707">
        <ele>1348.8</ele>
        <time>2022-06-18T06:33:46Z</time>
      </trkpt>
      <trkpt lat="45.19916" lon="6.2772">
        <ele>1348.8</ele>
        <time>2022-06-18T06:33:47Z</time>
      </trkpt>
      <trkpt lat="45.1991" lon="6.27735">
        <ele>1348.9</ele>
        <time>2022-06-18T06:33:48Z</time>
      </trkpt>
      <trkpt lat="45.19905" lon="6.27752">
        <ele>1349</ele>
        <time>2022-06-18T06:33:49Z</time>
      </trkpt>
      <trkpt lat="45.19899" lon="6.27768">
        <ele>1348.6</ele>
        <time>2022-06-18T06:33:50Z</time>
      </trkpt>
      <trkpt lat="45.19892" lon="6.27782">
        <ele>1347.7</ele>
        <time>2022-06-18T06:33:51Z</time>
      </trkpt>
      <trkpt lat="45.19883" lon="6.27795">
        <ele>1346.7</ele>
        <time>2022-06-18T06:33:52Z</time>
      </trkpt>
      <trkpt lat="45.19873" lon="6.27805">
        <ele>1345.6</ele>
        <time>2022-06-18T06:33:53Z</time>
      </trkpt>
      <trkpt lat="45.19861" lon="6.27815">
        <ele>1344.6</ele>
        <time>2022-06-18T06:33:54Z</time>
      </trkpt>
      <trkpt lat="45.1985" lon="6.27824">
        <ele>1343.5</ele>
        <time>2022-06-18T06:33:55Z</time>
      </trkpt>
      <trkpt lat="45.19838" lon="6.27835">
        <ele>1342.5</ele>
        <time>2022-06-18T06:33:56Z</time>
      </trkpt>
      <trkpt lat="45.19827" lon="6.27846">
        <ele>1341.4</ele>
        <time>2022-06-18T06:33:57Z</time>
      </trkpt>
      <trkpt lat="45.19818" lon="6.2786">
        <ele>1340.4</ele>
        <time>2022-06-18T06:33:58Z</time>
      </trkpt>
      <trkpt lat="45.19811" lon="6.27876">
        <ele>1339.2</ele>
        <time>2022-06-18T06:33:59Z</time>
      </trkpt>
      <trkpt lat="45.19807" lon="6.27895">
        <ele>1338.1</ele>
        <time>2022-06-18T06:34:00Z</time>
      </trkpt>
      <trkpt lat="45.19803" lon="6.27914">
        <ele>1337</ele>
        <time>2022-06-18T06:34:01Z</time>
      </trkpt>
      <trkpt lat="45.19799" lon="6.27931">
        <ele>1335.9</ele>
        <time>2022-06-18T06:34:02Z</time>
      </trkpt>
      <trkpt lat="45.19792" lon="6.27947">
        <ele>1334.8</ele>
        <time>2022-06-18T06:34:03Z</time>
      </trkpt>
      <trkpt lat="45.19783" lon="6.2796">
        <ele>1333.7</ele>
        <time>2022-06-18T06:34:04Z</time>
      </trkpt>
      <trkpt lat="45.19772" lon="6.27972">
        <ele>1332.5</ele>
        <time>2022-06-18T06:34:05Z</time>
      </trkpt>
      <trkpt lat="45.19748" lon="6.27989">
        <ele>1330.2</ele>
        <time>2022-06-18T06:34:07Z</time>
      </trkpt>
      <trkpt lat="45.19735" lon="6.27994">
        <ele>1329.1</ele>
        <time>2022-06-18T06:34:08Z</time>
      </trkpt>
      <trkpt lat="45.19723" lon="6.27999">
        <ele>1328</ele>
        <time>2022-06-18T06:34:09Z</time>
      </trkpt>
      <trkpt lat="45.19713" lon="6.28008">
        <ele>1326.9</ele>
        <time>2022-06-18T06:34:10Z</time>
      </trkpt>
      <trkpt lat="45.19705" lon="6.28019">
        <ele>1325.8</ele>
        <time>2022-06-18T06:34:11Z</time>
      </trkpt>
      <trkpt lat="45.19698" lon="6.28034">
        <ele>1324.6</ele>
        <time>2022-06-18T06:34:12Z</time>
      </trkpt>
      <trkpt lat="45.19693" lon="6.28051">
        <ele>1323.3</ele>
        <time>2022-06-18T06:34:13Z</time>
      </trkpt>
      <trkpt lat="45.19689" lon="6.28069">
        <ele>1322</ele>
        <time>2022-06-18T06:34:14Z</time>
      </trkpt>
      <trkpt lat="45.19687" lon="6.28088">
        <ele>1320.7</ele>
        <time>2022-06-18T06:34:15Z</time>
      </trkpt>
      <trkpt lat="45.19684" lon="6.28107">
        <ele>1319.5</ele>
        <time>2022-06-18T06:34:16Z</time>
      </trkpt>
      <trkpt lat="45.1968" lon="6.28126">
        <ele>1318.4</ele>
        <time>2022-06-18T06:34:17Z</time>
      </trkpt>
      <trkpt lat="45.19675" lon="6.28144">
        <ele>1317.3</ele>
        <time>2022-06-18T06:34:18Z</time>
      </trkpt>
      <trkpt lat="45.19667" lon="6.28161">
        <ele>1316.3</ele>
        <time>2022-06-18T06:34:19Z</time>
      </trkpt>
      <trkpt lat="45.19659" lon="6.28176">
        <ele>1315.6</ele>
        <time>2022-06-18T06:34:20Z</time>
      </trkpt>
      <trkpt lat="45.19651" lon="6.28188">
        <ele>1315.1</ele>
        <time>2022-06-18T06:34:21Z</time>
      </trkpt>
      <trkpt lat="45.19644" lon="6.28197">
        <ele>1314.7</ele>
        <time>2022-06-18T06:34:22Z</time>
      </trkpt>
      <trkpt lat="45.19636" lon="6.28201">
        <ele>1314.3</ele>
        <time>2022-06-18T06:34:23Z</time>
      </trkpt>
      <trkpt lat="45.19627" lon="6.28199">
        <ele>1314.5</ele>
        <time>2022-06-18T06:34:24Z</time>
      </trkpt>
      <trkpt lat="45.1962" lon="6.28191">
        <ele>1314.7</ele>
        <time>2022-06-18T06:34:25Z</time>
      </trkpt>
      <trkpt lat="45.19613" lon="6.2818">
        <ele>1314.9</ele>
        <time>2022-06-18T06:34:26Z</time>
      </trkpt>
      <trkpt lat="45.19607" lon="6.28169">
        <ele>1315.1</ele>
        <time>2022-06-18T06:34:27Z</time>
      </trkpt>
      <trkpt lat="45.19601" lon="6.28162">
        <ele>1314.9</ele>
        <time>2022-06-18T06:34:28Z</time>
      </trkpt>
      <trkpt lat="45.19594" lon="6.28162">
        <ele>1314.4</ele>
        <time>2022-06-18T06:34:29Z</time>
      </trkpt>
      <trkpt lat="45.19587" lon="6.2817">
        <ele>1313.8</ele>
        <time>2022-06-18T06:34:30Z</time>
      </trkpt>
      <trkpt lat="45.19581" lon="6.28182">
        <ele>1312.9</ele>
        <time>2022-06-18T06:34:31Z</time>
      </trkpt>
      <trkpt lat="45.19576" lon="6.28196">
        <ele>1312</ele>
        <time>2022-06-18T06:34:32Z</time>
      </trkpt>
      <trkpt lat="45.1957" lon="6.2821">
        <ele>1311</ele>
        <time>2022-06-18T06:34:33Z</time>
      </trkpt>
      <trkpt lat="45.19564" lon="6.28224">
        <ele>1310.1</ele>
        <time>2022-06-18T06:34:34Z</time>
      </trkpt>
      <trkpt lat="45.19558" lon="6.28238">
        <ele>1309.1</ele>
        <time>2022-06-18T06:34:35Z</time>
      </trkpt>
      <trkpt lat="45.19551" lon="6.28252">
        <ele>1308.1</ele>
        <time>2022-06-18T06:34:36Z</time>
      </trkpt>
      <trkpt lat="45.19544" lon="6.28267">
        <ele>1307.1</ele>
        <time>2022-06-18T06:34:37Z</time>
      </trkpt>
      <trkpt lat="45.19538" lon="6.2828">
        <ele>1306.1</ele>
        <time>2022-06-18T06:34:38Z</time>
      </trkpt>
      <trkpt lat="45.19531" lon="6.28294">
        <ele>1305.2</ele>
        <time>2022-06-18T06:34:39Z</time>
      </trkpt>
      <trkpt lat="45.19524" lon="6.28307">
        <ele>1304.4</ele>
        <time>2022-06-18T06:34:40Z</time>
      </trkpt>
      <trkpt lat="45.19516" lon="6.2832">
        <ele>1303.5</ele>
        <time>2022-06-18T06:34:41Z</time>
      </trkpt>
      <trkpt lat="45.19508" lon="6.28332">
        <ele>1302.6</ele>
        <time>2022-06-18T06:34:42Z</time>
      </trkpt>
      <trkpt lat="45.19501" lon="6.28345">
        <ele>1301.8</ele>
        <time>2022-06-18T06:34:43Z</time>
      </trkpt>
      <trkpt lat="45.19492" lon="6.28357">
        <ele>1301</ele>
        <time>2022-06-18T06:34:44Z</time>
      </trkpt>
      <trkpt lat="45.19484" lon="6.28369">
        <ele>1300.3</ele>
        <time>2022-06-18T06:34:45Z</time>
      </trkpt>
      <trkpt lat="45.19474" lon="6.28381">
        <ele>1299.5</ele>
        <time>2022-06-18T06:34:46Z</time>
      </trkpt>
      <trkpt lat="45.19465" lon="6.28391">
        <ele>1299.2</ele>
        <time>2022-06-18T06:34:47Z</time>
      </trkpt>
      <trkpt lat="45.19454" lon="6.284">
        <ele>1298.9</ele>
        <time>2022-06-18T06:34:48Z</time>
      </trkpt>
      <trkpt lat="45.19444" lon="6.28408">
        <ele>1298.6</ele>
        <time>2022-06-18T06:34:49Z</time>
      </trkpt>
      <trkpt lat="45.19433" lon="6.28415">
        <ele>1298.3</ele>
        <time>2022-06-18T06:34:50Z</time>
      </trkpt>
      <trkpt lat="45.19422" lon="6.28421">
        <ele>1298</ele>
        <time>2022-06-18T06:34:51Z</time>
      </trkpt>
      <trkpt lat="45.19411" lon="6.28425">
        <ele>1297.7</ele>
        <time>2022-06-18T06:34:52Z</time>
      </trkpt>
      <trkpt lat="45.19399" lon="6.28428">
        <ele>1297.4</ele>
        <time>2022-06-18T06:34:53Z</time>
      </trkpt>
      <trkpt lat="45.19386" lon="6.28431">
        <ele>1297.1</ele>
        <time>2022-06-18T06:34:54Z</time>
      </trkpt>
      <trkpt lat="45.19375" lon="6.28435">
        <ele>1296.8</ele>
        <time>2022-06-18T06:34:55Z</time>
      </trkpt>
      <trkpt lat="45.19363" lon="6.28442">
        <ele>1296.5</ele>
        <time>2022-06-18T06:34:56Z</time>
      </trkpt>
      <trkpt lat="45.19353" lon="6.28451">
        <ele>1296.1</ele>
        <time>2022-06-18T06:34:57Z</time>
      </trkpt>
      <trkpt lat="45.19343" lon="6.28461">
        <ele>1295.7</ele>
        <time>2022-06-18T06:34:58Z</time>
      </trkpt>
      <trkpt lat="45.19333" lon="6.28472">
        <ele>1295.3</ele>
        <time>2022-06-18T06:34:59Z</time>
      </trkpt>
      <trkpt lat="45.19325" lon="6.28485">
        <ele>1294.9</ele>
        <time>2022-06-18T06:35:00Z</time>
      </trkpt>
      <trkpt lat="45.19316" lon="6.28499">
        <ele>1294.6</ele>
        <time>2022-06-18T06:35:01Z</time>
      </trkpt>
      <trkpt lat="45.19307" lon="6.28512">
        <ele>1294.3</ele>
        <time>2022-06-18T06:35:02Z</time>
      </trkpt>
      <trkpt lat="45.19297" lon="6.28524">
        <ele>1293.7</ele>
        <time>2022-06-18T06:35:03Z</time>
      </trkpt>
      <trkpt lat="45.19288" lon="6.28536">
        <ele>1292.4</ele>
        <time>2022-06-18T06:35:04Z</time>
      </trkpt>
      <trkpt lat="45.19278" lon="6.28548">
        <ele>1290.9</ele>
        <time>2022-06-18T06:35:05Z</time>
      </trkpt>
      <trkpt lat="45.19269" lon="6.2856">
        <ele>1289.7</ele>
        <time>2022-06-18T06:35:06Z</time>
      </trkpt>
      <trkpt lat="45.19259" lon="6.28571">
        <ele>1289.3</ele>
        <time>2022-06-18T06:35:07Z</time>
      </trkpt>
      <trkpt lat="45.19252" lon="6.28581">
        <ele>1289</ele>
        <time>2022-06-18T06:35:08Z</time>
      </trkpt>
      <trkpt lat="45.19246" lon="6.28591">
        <ele>1288.8</ele>
        <time>2022-06-18T06:35:09Z</time>
      </trkpt>
      <trkpt lat="45.19243" lon="6.28603">
        <ele>1288.6</ele>
        <time>2022-06-18T06:35:10Z</time>
      </trkpt>
      <trkpt lat="45.19243" lon="6.28615">
        <ele>1288.6</ele>
        <time>2022-06-18T06:35:11Z</time>
      </trkpt>
      <trkpt lat="45.19247" lon="6.28628">
        <ele>1288.7</ele>
        <time>2022-06-18T06:35:12Z</time>
      </trkpt>
      <trkpt lat="45.19256" lon="6.2864">
        <ele>1288.9</ele>
        <time>2022-06-18T06:35:13Z</time>
      </trkpt>
      <trkpt lat="45.19265" lon="6.28651">
        <ele>1288.5</ele>
        <time>2022-06-18T06:35:14Z</time>
      </trkpt>
      <trkpt lat="45.19272" lon="6.28662">
        <ele>1287.9</ele>
        <time>2022-06-18T06:35:15Z</time>
      </trkpt>
      <trkpt lat="45.19277" lon="6.28675">
        <ele>1287.3</ele>
        <time>2022-06-18T06:35:16Z</time>
      </trkpt>
      <trkpt lat="45.19279" lon="6.2869">
        <ele>1286.8</ele>
        <time>2022-06-18T06:35:17Z</time>
      </trkpt>
      <trkpt lat="45.19279" lon="6.28705">
        <ele>1286.1</ele>
        <time>2022-06-18T06:35:18Z</time>
      </trkpt>
      <trkpt lat="45.19276" lon="6.28721">
        <ele>1285.5</ele>
        <time>2022-06-18T06:35:19Z</time>
      </trkpt>
      <trkpt lat="45.1927" lon="6.28736">
        <ele>1284.8</ele>
        <time>2022-06-18T06:35:20Z</time>
      </trkpt>
      <trkpt lat="45.19262" lon="6.28749">
        <ele>1284.1</ele>
        <time>2022-06-18T06:35:21Z</time>
      </trkpt>
      <trkpt lat="45.19253" lon="6.28761">
        <ele>1283.4</ele>
        <time>2022-06-18T06:35:22Z</time>
      </trkpt>
      <trkpt lat="45.19244" lon="6.28772">
        <ele>1282.8</ele>
        <time>2022-06-18T06:35:23Z</time>
      </trkpt>
      <trkpt lat="45.19235" lon="6.28783">
        <ele>1282.1</ele>
        <time>2022-06-18T06:35:24Z</time>
      </trkpt>
      <trkpt lat="45.19227" lon="6.28794">
        <ele>1281.5</ele>
        <time>2022-06-18T06:35:25Z</time>
      </trkpt>
      <trkpt lat="45.19221" lon="6.28807">
        <ele>1280.8</ele>
        <time>2022-06-18T06:35:26Z</time>
      </trkpt>
      <trkpt lat="45.19217" lon="6.28822">
        <ele>1280.1</ele>
        <time>2022-06-18T06:35:27Z</time>
      </trkpt>
      <trkpt lat="45.19215" lon="6.28838">
        <ele>1279.4</ele>
        <time>2022-06-18T06:35:28Z</time>
      </trkpt>
      <trkpt lat="45.19215" lon="6.28854">
        <ele>1278.6</ele>
        <time>2022-06-18T06:35:29Z</time>
      </trkpt>
      <trkpt lat="45.19216" lon="6.2887">
        <ele>1277.9</ele>
        <time>2022-06-18T06:35:30Z</time>
      </trkpt>
      <trkpt lat="45.19217" lon="6.28886">
        <ele>1277.3</ele>
        <time>2022-06-18T06:35:31Z</time>
      </trkpt>
      <trkpt lat="45.19218" lon="6.28902">
        <ele>1276.7</ele>
        <time>2022-06-18T06:35:32Z</time>
      </trkpt>
      <trkpt lat="45.19219" lon="6.28919">
        <ele>1276.1</ele>
        <time>2022-06-18T06:35:33Z</time>
      </trkpt>
      <trkpt lat="45.1922" lon="6.28935">
        <ele>1275.6</ele>
        <time>2022-06-18T06:35:34Z</time>
      </trkpt>
      <trkpt lat="45.19222" lon="6.2895">
        <ele>1275.4</ele>
        <time>2022-06-18T06:35:35Z</time>
      </trkpt>
      <trkpt lat="45.19226" lon="6.28964">
        <ele>1275.3</ele>
        <time>2022-06-18T06:35:36Z</time>
      </trkpt>
      <trkpt lat="45.19234" lon="6.28975">
        <ele>1275.2</ele>
        <time>2022-06-18T06:35:37Z</time>
      </trkpt>
      <trkpt lat="45.19243" lon="6.28985">
        <ele>1275.2</ele>
        <time>2022-06-18T06:35:38Z</time>
      </trkpt>
      <trkpt lat="45.19255" lon="6.28994">
        <ele>1275.1</ele>
        <time>2022-06-18T06:35:39Z</time>
      </trkpt>
      <trkpt lat="45.19265" lon="6.29003">
        <ele>1275.1</ele>
        <time>2022-06-18T06:35:40Z</time>
      </trkpt>
      <trkpt lat="45.19275" lon="6.29013">
        <ele>1275.2</ele>
        <time>2022-06-18T06:35:41Z</time>
      </trkpt>
      <trkpt lat="45.19284" lon="6.29026">
        <ele>1275.2</ele>
        <time>2022-06-18T06:35:42Z</time>
      </trkpt>
      <trkpt lat="45.1929" lon="6.29041">
        <ele>1275.2</ele>
        <time>2022-06-18T06:35:43Z</time>
      </trkpt>
      <trkpt lat="45.19293" lon="6.29057">
        <ele>1273.8</ele>
        <time>2022-06-18T06:35:44Z</time>
      </trkpt>
      <trkpt lat="45.19293" lon="6.29074">
        <ele>1272</ele>
        <time>2022-06-18T06:35:45Z</time>
      </trkpt>
      <trkpt lat="45.19289" lon="6.2909">
        <ele>1270.1</ele>
        <time>2022-06-18T06:35:46Z</time>
      </trkpt>
      <trkpt lat="45.19282" lon="6.29104">
        <ele>1268.3</ele>
        <time>2022-06-18T06:35:47Z</time>
      </trkpt>
      <trkpt lat="45.19274" lon="6.29116">
        <ele>1266.8</ele>
        <time>2022-06-18T06:35:48Z</time>
      </trkpt>
      <trkpt lat="45.19264" lon="6.29127">
        <ele>1266</ele>
        <time>2022-06-18T06:35:49Z</time>
      </trkpt>
      <trkpt lat="45.19255" lon="6.29139">
        <ele>1265.3</ele>
        <time>2022-06-18T06:35:50Z</time>
      </trkpt>
      <trkpt lat="45.19248" lon="6.29151">
        <ele>1265.2</ele>
        <time>2022-06-18T06:35:51Z</time>
      </trkpt>
      <trkpt lat="45.19241" lon="6.29164">
        <ele>1265.1</ele>
        <time>2022-06-18T06:35:52Z</time>
      </trkpt>
      <trkpt lat="45.19237" lon="6.29179">
        <ele>1265</ele>
        <time>2022-06-18T06:35:53Z</time>
      </trkpt>
      <trkpt lat="45.19234" lon="6.29195">
        <ele>1264.8</ele>
        <time>2022-06-18T06:35:54Z</time>
      </trkpt>
      <trkpt lat="45.19232" lon="6.29211">
        <ele>1264.6</ele>
        <time>2022-06-18T06:35:55Z</time>
      </trkpt>
      <trkpt lat="45.19231" lon="6.29228">
        <ele>1264.4</ele>
        <time>2022-06-18T06:35:56Z</time>
      </trkpt>
      <trkpt lat="45.1923" lon="6.29244">
        <ele>1264.1</ele>
        <time>2022-06-18T06:35:57Z</time>
      </trkpt>
      <trkpt lat="45.1923" lon="6.2926">
        <ele>1263.9</ele>
        <time>2022-06-18T06:35:58Z</time>
      </trkpt>
      <trkpt lat="45.19231" lon="6.29276">
        <ele>1263.7</ele>
        <time>2022-06-18T06:35:59Z</time>
      </trkpt>
      <trkpt lat="45.19235" lon="6.29291">
        <ele>1263.5</ele>
        <time>2022-06-18T06:36:00Z</time>
      </trkpt>
      <trkpt lat="45.19242" lon="6.29305">
        <ele>1263.2</ele>
        <time>2022-06-18T06:36:01Z</time>
      </trkpt>
      <trkpt lat="45.19251" lon="6.29318">
        <ele>1262.8</ele>
        <time>2022-06-18T06:36:02Z</time>
      </trkpt>
      <trkpt lat="45.19262" lon="6.29329">
        <ele>1262.5</ele>
        <time>2022-06-18T06:36:03Z</time>
      </trkpt>
      <trkpt lat="45.19274" lon="6.29338">
        <ele>1262.1</ele>
        <time>2022-06-18T06:36:04Z</time>
      </trkpt>
      <trkpt lat="45.19285" lon="6.29347">
        <ele>1261.8</ele>
        <time>2022-06-18T06:36:05Z</time>
      </trkpt>
      <trkpt lat="45.19294" lon="6.29358">
        <ele>1261.5</ele>
        <time>2022-06-18T06:36:06Z</time>
      </trkpt>
      <trkpt lat="45.193" lon="6.29372">
        <ele>1261.1</ele>
        <time>2022-06-18T06:36:07Z</time>
      </trkpt>
      <trkpt lat="45.19305" lon="6.29388">
        <ele>1260.9</ele>
        <time>2022-06-18T06:36:08Z</time>
      </trkpt>
      <trkpt lat="45.19309" lon="6.29404">
        <ele>1260.5</ele>
        <time>2022-06-18T06:36:09Z</time>
      </trkpt>
      <trkpt lat="45.19312" lon="6.29421">
        <ele>1260.1</ele>
        <time>2022-06-18T06:36:10Z</time>
      </trkpt>
      <trkpt lat="45.19316" lon="6.29437">
        <ele>1259.7</ele>
        <time>2022-06-18T06:36:11Z</time>
      </trkpt>
      <trkpt lat="45.1932" lon="6.29453">
        <ele>1259.2</ele>
        <time>2022-06-18T06:36:12Z</time>
      </trkpt>
      <trkpt lat="45.19324" lon="6.29469">
        <ele>1258.8</ele>
        <time>2022-06-18T06:36:13Z</time>
      </trkpt>
      <trkpt lat="45.19328" lon="6.29486">
        <ele>1258.5</ele>
        <time>2022-06-18T06:36:14Z</time>
      </trkpt>
      <trkpt lat="45.19333" lon="6.29504">
        <ele>1258.4</ele>
        <time>2022-06-18T06:36:15Z</time>
      </trkpt>
      <trkpt lat="45.19337" lon="6.29523">
        <ele>1258.3</ele>
        <time>2022-06-18T06:36:16Z</time>
      </trkpt>
      <trkpt lat="45.1934" lon="6.29542">
        <ele>1257.8</ele>
        <time>2022-06-18T06:36:17Z</time>
      </trkpt>
      <trkpt lat="45.19342" lon="6.29561">
        <ele>1257.3</ele>
        <time>2022-06-18T06:36:18Z</time>
      </trkpt>
      <trkpt lat="45.19343" lon="6.2958">
        <ele>1256.9</ele>
        <time>2022-06-18T06:36:19Z</time>
      </trkpt>
      <trkpt lat="45.19345" lon="6.29598">
        <ele>1256.5</ele>
        <time>2022-06-18T06:36:20Z</time>
      </trkpt>
      <trkpt lat="45.19346" lon="6.29616">
        <ele>1256.1</ele>
        <time>2022-06-18T06:36:21Z</time>
      </trkpt>
      <trkpt lat="45.19349" lon="6.29632">
        <ele>1255.7</ele>
        <time>2022-06-18T06:36:22Z</time>
      </trkpt>
      <trkpt lat="45.19352" lon="6.29649">
        <ele>1255.2</ele>
        <time>2022-06-18T06:36:23Z</time>
      </trkpt>
      <trkpt lat="45.19357" lon="6.29665">
        <ele>1254.8</ele>
        <time>2022-06-18T06:36:24Z</time>
      </trkpt>
      <trkpt lat="45.19363" lon="6.2968">
        <ele>1254.3</ele>
        <time>2022-06-18T06:36:25Z</time>
      </trkpt>
      <trkpt lat="45.19369" lon="6.29695">
        <ele>1253.8</ele>
        <time>2022-06-18T06:36:26Z</time>
      </trkpt>
      <trkpt lat="45.19376" lon="6.2971">
        <ele>1253.4</ele>
        <time>2022-06-18T06:36:27Z</time>
      </trkpt>
      <trkpt lat="45.19383" lon="6.29725">
        <ele>1253</ele>
        <time>2022-06-18T06:36:28Z</time>
      </trkpt>
      <trkpt lat="45.19391" lon="6.2974">
        <ele>1252.6</ele>
        <time>2022-06-18T06:36:29Z</time>
      </trkpt>
      <trkpt lat="45.194" lon="6.29753">
        <ele>1252.2</ele>
        <time>2022-06-18T06:36:30Z</time>
      </trkpt>
      <trkpt lat="45.1941" lon="6.29765">
        <ele>1251.8</ele>
        <time>2022-06-18T06:36:31Z</time>
      </trkpt>
      <trkpt lat="45.19421" lon="6.29775">
        <ele>1251.4</ele>
        <time>2022-06-18T06:36:32Z</time>
      </trkpt>
      <trkpt lat="45.19432" lon="6.29784">
        <ele>1250.9</ele>
        <time>2022-06-18T06:36:33Z</time>
      </trkpt>
      <trkpt lat="45.19443" lon="6.29791">
        <ele>1250.4</ele>
        <time>2022-06-18T06:36:34Z</time>
      </trkpt>
      <trkpt lat="45.19455" lon="6.29798">
        <ele>1249.9</ele>
        <time>2022-06-18T06:36:35Z</time>
      </trkpt>
      <trkpt lat="45.19467" lon="6.29805">
        <ele>1249.3</ele>
        <time>2022-06-18T06:36:36Z</time>
      </trkpt>
      <trkpt lat="45.19479" lon="6.29811">
        <ele>1248.8</ele>
        <time>2022-06-18T06:36:37Z</time>
      </trkpt>
      <trkpt lat="45.19491" lon="6.29817">
        <ele>1248.3</ele>
        <time>2022-06-18T06:36:38Z</time>
      </trkpt>
      <trkpt lat="45.19503" lon="6.29822">
        <ele>1248</ele>
        <time>2022-06-18T06:36:39Z</time>
      </trkpt>
      <trkpt lat="45.19515" lon="6.29828">
        <ele>1247.9</ele>
        <time>2022-06-18T06:36:40Z</time>
      </trkpt>
      <trkpt lat="45.19528" lon="6.29834">
        <ele>1248</ele>
        <time>2022-06-18T06:36:41Z</time>
      </trkpt>
      <trkpt lat="45.1954" lon="6.2984">
        <ele>1248.1</ele>
        <time>2022-06-18T06:36:42Z</time>
      </trkpt>
      <trkpt lat="45.19552" lon="6.29846">
        <ele>1248.2</ele>
        <time>2022-06-18T06:36:43Z</time>
      </trkpt>
      <trkpt lat="45.19564" lon="6.29852">
        <ele>1248.3</ele>
        <time>2022-06-18T06:36:44Z</time>
      </trkpt>
      <trkpt lat="45.19575" lon="6.29858">
        <ele>1248.4</ele>
        <time>2022-06-18T06:36:45Z</time>
      </trkpt>
      <trkpt lat="45.19585" lon="6.29865">
        <ele>1248.5</ele>
        <time>2022-06-18T06:36:46Z</time>
      </trkpt>
      <trkpt lat="45.19594" lon="6.29874">
        <ele>1248.6</ele>
        <time>2022-06-18T06:36:47Z</time>
      </trkpt>
      <trkpt lat="45.196" lon="6.29886">
        <ele>1248.7</ele>
        <time>2022-06-18T06:36:48Z</time>
      </trkpt>
      <trkpt lat="45.19604" lon="6.299">
        <ele>1248.7</ele>
        <time>2022-06-18T06:36:49Z</time>
      </trkpt>
      <trkpt lat="45.19606" lon="6.29917">
        <ele>1248.7</ele>
        <time>2022-06-18T06:36:50Z</time>
      </trkpt>
      <trkpt lat="45.19607" lon="6.29934">
        <ele>1248.7</ele>
        <time>2022-06-18T06:36:51Z</time>
      </trkpt>
      <trkpt lat="45.19607" lon="6.2995">
        <ele>1248.8</ele>
        <time>2022-06-18T06:36:52Z</time>
      </trkpt>
      <trkpt lat="45.19608" lon="6.29966">
        <ele>1249</ele>
        <time>2022-06-18T06:36:53Z</time>
      </trkpt>
      <trkpt lat="45.19609" lon="6.29983">
        <ele>1249.2</ele>
        <time>2022-06-18T06:36:54Z</time>
      </trkpt>
      <trkpt lat="45.19611" lon="6.29999">
        <ele>1249.4</ele>
        <time>2022-06-18T06:36:55Z</time>
      </trkpt>
      <trkpt lat="45.19615" lon="6.30014">
        <ele>1249.7</ele>
        <time>2022-06-18T06:36:56Z</time>
      </trkpt>
      <trkpt lat="45.19619" lon="6.30027">
        <ele>1250.1</ele>
        <time>2022-06-18T06:36:57Z</time>
      </trkpt>
      <trkpt lat="45.19624" lon="6.30039">
        <ele>1250.4</ele>
        <time>2022-06-18T06:36:58Z</time>
      </trkpt>
      <trkpt lat="45.1963" lon="6.30048">
        <ele>1250.6</ele>
        <time>2022-06-18T06:36:59Z</time>
      </trkpt>
      <trkpt lat="45.19637" lon="6.30056">
        <ele>1250.8</ele>
        <time>2022-06-18T06:37:00Z</time>
      </trkpt>
      <trkpt lat="45.19644" lon="6.30061">
        <ele>1251</ele>
        <time>2022-06-18T06:37:01Z</time>
      </trkpt>
      <trkpt lat="45.19652" lon="6.30065">
        <ele>1251.2</ele>
        <time>2022-06-18T06:37:02Z</time>
      </trkpt>
      <trkpt lat="45.1966" lon="6.3007">
        <ele>1251.4</ele>
        <time>2022-06-18T06:37:03Z</time>
      </trkpt>
      <trkpt lat="45.19667" lon="6.30076">
        <ele>1251.7</ele>
        <time>2022-06-18T06:37:04Z</time>
      </trkpt>
      <trkpt lat="45.19674" lon="6.30083">
        <ele>1252</ele>
        <time>2022-06-18T06:37:05Z</time>
      </trkpt>
      <trkpt lat="45.19681" lon="6.30091">
        <ele>1252.4</ele>
        <time>2022-06-18T06:37:06Z</time>
      </trkpt>
      <trkpt lat="45.19686" lon="6.30099">
        <ele>1252.8</ele>
        <time>2022-06-18T06:37:07Z</time>
      </trkpt>
      <trkpt lat="45.19691" lon="6.30108">
        <ele>1253.2</ele>
        <time>2022-06-18T06:37:08Z</time>
      </trkpt>
      <trkpt lat="45.19697" lon="6.30116">
        <ele>1253.5</ele>
        <time>2022-06-18T06:37:09Z</time>
      </trkpt>
      <trkpt lat="45.19702" lon="6.30121">
        <ele>1253.8</ele>
        <time>2022-06-18T06:37:10Z</time>
      </trkpt>
      <trkpt lat="45.19709" lon="6.30123">
        <ele>1254</ele>
        <time>2022-06-18T06:37:11Z</time>
      </trkpt>
      <trkpt lat="45.19717" lon="6.30122">
        <ele>1254.3</ele>
        <time>2022-06-18T06:37:12Z</time>
      </trkpt>
      <trkpt lat="45.19723" lon="6.30118">
        <ele>1254.6</ele>
        <time>2022-06-18T06:37:13Z</time>
      </trkpt>
      <trkpt lat="45.1973" lon="6.30113">
        <ele>1254.9</ele>
        <time>2022-06-18T06:37:14Z</time>
      </trkpt>
      <trkpt lat="45.19736" lon="6.30109">
        <ele>1255.3</ele>
        <time>2022-06-18T06:37:15Z</time>
      </trkpt>
      <trkpt lat="45.19742" lon="6.30107">
        <ele>1255.6</ele>
        <time>2022-06-18T06:37:16Z</time>
      </trkpt>
      <trkpt lat="45.19747" lon="6.30105">
        <ele>1256</ele>
        <time>2022-06-18T06:37:17Z</time>
      </trkpt>
      <trkpt lat="45.19753" lon="6.30105">
        <ele>1256.3</ele>
        <time>2022-06-18T06:37:18Z</time>
      </trkpt>
      <trkpt lat="45.19758" lon="6.30106">
        <ele>1256.7</ele>
        <time>2022-06-18T06:37:19Z</time>
      </trkpt>
      <trkpt lat="45.19763" lon="6.30107">
        <ele>1257</ele>
        <time>2022-06-18T06:37:20Z</time>
      </trkpt>
      <trkpt lat="45.19768" lon="6.30106">
        <ele>1257.4</ele>
        <time>2022-06-18T06:37:21Z</time>
      </trkpt>
      <trkpt lat="45.19773" lon="6.30105">
        <ele>1257.8</ele>
        <time>2022-06-18T06:37:22Z</time>
      </trkpt>
      <trkpt lat="45.19778" lon="6.30105">
        <ele>1258.1</ele>
        <time>2022-06-18T06:37:23Z</time>
      </trkpt>
      <trkpt lat="45.19782" lon="6.30106">
        <ele>1258.4</ele>
        <time>2022-06-18T06:37:24Z</time>
      </trkpt>
      <trkpt lat="45.19786" lon="6.30108">
        <ele>1258.7</ele>
        <time>2022-06-18T06:37:25Z</time>
      </trkpt>
      <trkpt lat="45.19791" lon="6.3011">
        <ele>1259.1</ele>
        <time>2022-06-18T06:37:26Z</time>
      </trkpt>
      <trkpt lat="45.19795" lon="6.30113">
        <ele>1259.5</ele>
        <time>2022-06-18T06:37:27Z</time>
      </trkpt>
      <trkpt lat="45.19799" lon="6.30117">
        <ele>1259.8</ele>
        <time>2022-06-18T06:37:28Z</time>
      </trkpt>
      <trkpt lat="45.19801" lon="6.30123">
        <ele>1260.1</ele>
        <time>2022-06-18T06:37:29Z</time>
      </trkpt>
      <trkpt lat="45.19804" lon="6.30131">
        <ele>1259.6</ele>
        <time>2022-06-18T06:37:30Z</time>
      </trkpt>
      <trkpt lat="45.19805" lon="6.30138">
        <ele>1258.8</ele>
        <time>2022-06-18T06:37:31Z</time>
      </trkpt>
      <trkpt lat="45.19807" lon="6.30149">
        <ele>1257.2</ele>
        <time>2022-06-18T06:37:32Z</time>
      </trkpt>
      <trkpt lat="45.19808" lon="6.30158">
        <ele>1256.1</ele>
        <time>2022-06-18T06:37:33Z</time>
      </trkpt>
      <trkpt lat="45.19808" lon="6.30163">
        <ele>1255.5</ele>
        <time>2022-06-18T06:37:34Z</time>
      </trkpt>
      <trkpt lat="45.1981" lon="6.30173">
        <ele>1254.2</ele>
        <time>2022-06-18T06:37:35Z</time>
      </trkpt>
      <trkpt lat="45.19811" lon="6.30181">
        <ele>1253.2</ele>
        <time>2022-06-18T06:37:36Z</time>
      </trkpt>
      <trkpt lat="45.19812" lon="6.30189">
        <ele>1252.2</ele>
        <time>2022-06-18T06:37:37Z</time>
      </trkpt>
      <trkpt lat="45.19813" lon="6.30196">
        <ele>1251.2</ele>
        <time>2022-06-18T06:37:38Z</time>
      </trkpt>
      <trkpt lat="45.19814" lon="6.30203">
        <ele>1250.4</ele>
        <time>2022-06-18T06:37:39Z</time>
      </trkpt>
      <trkpt lat="45.19815" lon="6.30207">
        <ele>1249.8</ele>
        <time>2022-06-18T06:37:40Z</time>
      </trkpt>
      <trkpt lat="45.19814" lon="6.30213">
        <ele>1249.1</ele>
        <time>2022-06-18T06:37:41Z</time>
      </trkpt>
      <trkpt lat="45.19811" lon="6.30221">
        <ele>1248</ele>
        <time>2022-06-18T06:37:42Z</time>
      </trkpt>
      <trkpt lat="45.1981" lon="6.30227">
        <ele>1247.2</ele>
        <time>2022-06-18T06:37:43Z</time>
      </trkpt>
      <trkpt lat="45.1981" lon="6.30233">
        <ele>1246.4</ele>
        <time>2022-06-18T06:37:44Z</time>
      </trkpt>
      <trkpt lat="45.19809" lon="6.30244">
        <ele>1245.1</ele>
        <time>2022-06-18T06:37:46Z</time>
      </trkpt>
      <trkpt lat="45.19808" lon="6.30252">
        <ele>1244.1</ele>
        <time>2022-06-18T06:37:47Z</time>
      </trkpt>
      <trkpt lat="45.19806" lon="6.30259">
        <ele>1243.1</ele>
        <time>2022-06-18T06:37:49Z</time>
      </trkpt>
      <trkpt lat="45.19804" lon="6.30268">
        <ele>1241.9</ele>
        <time>2022-06-18T06:37:50Z</time>
      </trkpt>
      <trkpt lat="45.19802" lon="6.30275">
        <ele>1240.9</ele>
        <time>2022-06-18T06:37:52Z</time>
      </trkpt>
      <trkpt lat="45.198" lon="6.3028">
        <ele>1240.2</ele>
        <time>2022-06-18T06:37:53Z</time>
      </trkpt>
      <trkpt lat="45.19797" lon="6.30291">
        <ele>1238.8</ele>
        <time>2022-06-18T06:37:54Z</time>
      </trkpt>
      <trkpt lat="45.19797" lon="6.30298">
        <ele>1237.8</ele>
        <time>2022-06-18T06:37:56Z</time>
      </trkpt>
      <trkpt lat="45.19797" lon="6.30306">
        <ele>1236.8</ele>
        <time>2022-06-18T06:37:57Z</time>
      </trkpt>
      <trkpt lat="45.19803" lon="6.30314">
        <ele>1235.5</ele>
        <time>2022-06-18T06:37:58Z</time>
      </trkpt>
      <trkpt lat="45.19805" lon="6.3032">
        <ele>1234.6</ele>
        <time>2022-06-18T06:37:59Z</time>
      </trkpt>
      <trkpt lat="45.19808" lon="6.30325">
        <ele>1233.8</ele>
        <time>2022-06-18T06:38:00Z</time>
      </trkpt>
      <trkpt lat="45.19811" lon="6.3033">
        <ele>1233</ele>
        <time>2022-06-18T06:38:01Z</time>
      </trkpt>
      <trkpt lat="45.19815" lon="6.30338">
        <ele>1231.8</ele>
        <time>2022-06-18T06:38:03Z</time>
      </trkpt>
      <trkpt lat="45.19823" lon="6.30337">
        <ele>1231.5</ele>
        <time>2022-06-18T06:38:04Z</time>
      </trkpt>
      <trkpt lat="45.19828" lon="6.30337">
        <ele>1231.6</ele>
        <time>2022-06-18T06:38:05Z</time>
      </trkpt>
      <trkpt lat="45.19833" lon="6.30336">
        <ele>1231.6</ele>
        <time>2022-06-18T06:38:06Z</time>
      </trkpt>
      <trkpt lat="45.19838" lon="6.30334">
        <ele>1232</ele>
        <time>2022-06-18T06:38:07Z</time>
      </trkpt>
      <trkpt lat="45.19843" lon="6.30332">
        <ele>1232.5</ele>
        <time>2022-06-18T06:38:08Z</time>
      </trkpt>
      <trkpt lat="45.19847" lon="6.3033">
        <ele>1233</ele>
        <time>2022-06-18T06:38:09Z</time>
      </trkpt>
      <trkpt lat="45.19852" lon="6.30327">
        <ele>1233.4</ele>
        <time>2022-06-18T06:38:10Z</time>
      </trkpt>
      <trkpt lat="45.19857" lon="6.30325">
        <ele>1233.9</ele>
        <time>2022-06-18T06:38:11Z</time>
      </trkpt>
      <trkpt lat="45.19862" lon="6.30324">
        <ele>1234.4</ele>
        <time>2022-06-18T06:38:12Z</time>
      </trkpt>
      <trkpt lat="45.19867" lon="6.30322">
        <ele>1234.8</ele>
        <time>2022-06-18T06:38:13Z</time>
      </trkpt>
      <trkpt lat="45.19872" lon="6.30321">
        <ele>1235.3</ele>
        <time>2022-06-18T06:38:14Z</time>
      </trkpt>
      <trkpt lat="45.19878" lon="6.3032">
        <ele>1235.8</ele>
        <time>2022-06-18T06:38:15Z</time>
      </trkpt>
      <trkpt lat="45.19883" lon="6.30319">
        <ele>1236.3</ele>
        <time>2022-06-18T06:38:16Z</time>
      </trkpt>
      <trkpt lat="45.19889" lon="6.30317">
        <ele>1236.7</ele>
        <time>2022-06-18T06:38:17Z</time>
      </trkpt>
      <trkpt lat="45.19894" lon="6.30316">
        <ele>1237.2</ele>
        <time>2022-06-18T06:38:18Z</time>
      </trkpt>
      <trkpt lat="45.199" lon="6.30314">
        <ele>1237.7</ele>
        <time>2022-06-18T06:38:19Z</time>
      </trkpt>
      <trkpt lat="45.19905" lon="6.30313">
        <ele>1238.2</ele>
        <time>2022-06-18T06:38:20Z</time>
      </trkpt>
      <trkpt lat="45.1991" lon="6.30312">
        <ele>1238.6</ele>
        <time>2022-06-18T06:38:21Z</time>
      </trkpt>
      <trkpt lat="45.19915" lon="6.30311">
        <ele>1239.1</ele>
        <time>2022-06-18T06:38:22Z</time>
      </trkpt>
      <trkpt lat="45.1992" lon="6.30309">
        <ele>1239.5</ele>
        <time>2022-06-18T06:38:23Z</time>
      </trkpt>
      <trkpt lat="45.19925" lon="6.30307">
        <ele>1240</ele>
        <time>2022-06-18T06:38:24Z</time>
      </trkpt>
      <trkpt lat="45.19929" lon="6.30304">
        <ele>1240.5</ele>
        <time>2022-06-18T06:38:25Z</time>
      </trkpt>
      <trkpt lat="45.19934" lon="6.30301">
        <ele>1240.9</ele>
        <time>2022-06-18T06:38:26Z</time>
      </trkpt>
      <trkpt lat="45.19938" lon="6.30297">
        <ele>1241.4</ele>
        <time>2022-06-18T06:38:27Z</time>
      </trkpt>
      <trkpt lat="45.19942" lon="6.30293">
        <ele>1241.9</ele>
        <time>2022-06-18T06:38:28Z</time>
      </trkpt>
      <trkpt lat="45.19947" lon="6.30289">
        <ele>1242.4</ele>
        <time>2022-06-18T06:38:29Z</time>
      </trkpt>
      <trkpt lat="45.19952" lon="6.30286">
        <ele>1242.9</ele>
        <time>2022-06-18T06:38:30Z</time>
      </trkpt>
      <trkpt lat="45.19957" lon="6.30282">
        <ele>1243.5</ele>
        <time>2022-06-18T06:38:31Z</time>
      </trkpt>
      <trkpt lat="45.19962" lon="6.30279">
        <ele>1244.1</ele>
        <time>2022-06-18T06:38:32Z</time>
      </trkpt>
      <trkpt lat="45.19967" lon="6.30277">
        <ele>1244.6</ele>
        <time>2022-06-18T06:38:33Z</time>
      </trkpt>
      <trkpt lat="45.19972" lon="6.30274">
        <ele>1245.1</ele>
        <time>2022-06-18T06:38:34Z</time>
      </trkpt>
      <trkpt lat="45.19976" lon="6.30271">
        <ele>1245.6</ele>
        <time>2022-06-18T06:38:35Z</time>
      </trkpt>
      <trkpt lat="45.1998" lon="6.30268">
        <ele>1246.1</ele>
        <time>2022-06-18T06:38:36Z</time>
      </trkpt>
      <trkpt lat="45.19984" lon="6.30265">
        <ele>1246.5</ele>
        <time>2022-06-18T06:38:37Z</time>
      </trkpt>
      <trkpt lat="45.19988" lon="6.30262">
        <ele>1247</ele>
        <time>2022-06-18T06:38:38Z</time>
      </trkpt>
      <trkpt lat="45.19992" lon="6.30259">
        <ele>1247.4</ele>
        <time>2022-06-18T06:38:39Z</time>
      </trkpt>
      <trkpt lat="45.19996" lon="6.30256">
        <ele>1247.9</ele>
        <time>2022-06-18T06:38:40Z</time>
      </trkpt>
      <trkpt lat="45.20001" lon="6.30253">
        <ele>1248.5</ele>
        <time>2022-06-18T06:38:41Z</time>
      </trkpt>
      <trkpt lat="45.20005" lon="6.3025">
        <ele>1249</ele>
        <time>2022-06-18T06:38:42Z</time>
      </trkpt>
      <trkpt lat="45.2001" lon="6.30247">
        <ele>1249.6</ele>
        <time>2022-06-18T06:38:43Z</time>
      </trkpt>
      <trkpt lat="45.20015" lon="6.30244">
        <ele>1250.1</ele>
        <time>2022-06-18T06:38:44Z</time>
      </trkpt>
      <trkpt lat="45.20019" lon="6.30241">
        <ele>1250.7</ele>
        <time>2022-06-18T06:38:45Z</time>
      </trkpt>
      <trkpt lat="45.20024" lon="6.3024">
        <ele>1251.2</ele>
        <time>2022-06-18T06:38:46Z</time>
      </trkpt>
      <trkpt lat="45.20029" lon="6.30239">
        <ele>1251.7</ele>
        <time>2022-06-18T06:38:47Z</time>
      </trkpt>
      <trkpt lat="45.20034" lon="6.30239">
        <ele>1252.2</ele>
        <time>2022-06-18T06:38:48Z</time>
      </trkpt>
      <trkpt lat="45.20037" lon="6.30239">
        <ele>1252.5</ele>
        <time>2022-06-18T06:38:49Z</time>
      </trkpt>
      <trkpt lat="45.20042" lon="6.3024">
        <ele>1253</ele>
        <time>2022-06-18T06:38:50Z</time>
      </trkpt>
      <trkpt lat="45.20046" lon="6.3024">
        <ele>1253.4</ele>
        <time>2022-06-18T06:38:51Z</time>
      </trkpt>
      <trkpt lat="45.2005" lon="6.3024">
        <ele>1253.8</ele>
        <time>2022-06-18T06:38:52Z</time>
      </trkpt>
      <trkpt lat="45.20055" lon="6.3024">
        <ele>1254.3</ele>
        <time>2022-06-18T06:38:53Z</time>
      </trkpt>
      <trkpt lat="45.20058" lon="6.30241">
        <ele>1254.6</ele>
        <time>2022-06-18T06:38:54Z</time>
      </trkpt>
      <trkpt lat="45.20064" lon="6.30242">
        <ele>1255.3</ele>
        <time>2022-06-18T06:38:55Z</time>
      </trkpt>
      <trkpt lat="45.2007" lon="6.30246">
        <ele>1256</ele>
        <time>2022-06-18T06:38:57Z</time>
      </trkpt>
      <trkpt lat="45.20076" lon="6.30248">
        <ele>1256.7</ele>
        <time>2022-06-18T06:38:58Z</time>
      </trkpt>
      <trkpt lat="45.20081" lon="6.30249">
        <ele>1257.3</ele>
        <time>2022-06-18T06:38:59Z</time>
      </trkpt>
      <trkpt lat="45.20084" lon="6.30249">
        <ele>1257.6</ele>
        <time>2022-06-18T06:39:00Z</time>
      </trkpt>
      <trkpt lat="45.2009" lon="6.30251">
        <ele>1258.2</ele>
        <time>2022-06-18T06:39:01Z</time>
      </trkpt>
      <trkpt lat="45.20093" lon="6.30254">
        <ele>1258.7</ele>
        <time>2022-06-18T06:39:02Z</time>
      </trkpt>
      <trkpt lat="45.20098" lon="6.30258">
        <ele>1259.3</ele>
        <time>2022-06-18T06:39:03Z</time>
      </trkpt>
      <trkpt lat="45.20102" lon="6.30262">
        <ele>1259.8</ele>
        <time>2022-06-18T06:39:04Z</time>
      </trkpt>
      <trkpt lat="45.20106" lon="6.30266">
        <ele>1260.3</ele>
        <time>2022-06-18T06:39:05Z</time>
      </trkpt>
      <trkpt lat="45.2011" lon="6.30269">
        <ele>1260.8</ele>
        <time>2022-06-18T06:39:06Z</time>
      </trkpt>
      <trkpt lat="45.20114" lon="6.30273">
        <ele>1261.2</ele>
        <time>2022-06-18T06:39:07Z</time>
      </trkpt>
      <trkpt lat="45.2012" lon="6.30272">
        <ele>1261.8</ele>
        <time>2022-06-18T06:39:09Z</time>
      </trkpt>
      <trkpt lat="45.20124" lon="6.30278">
        <ele>1262.4</ele>
        <time>2022-06-18T06:39:10Z</time>
      </trkpt>
      <trkpt lat="45.20129" lon="6.30284">
        <ele>1263.2</ele>
        <time>2022-06-18T06:39:12Z</time>
      </trkpt>
      <trkpt lat="45.20135" lon="6.30289">
        <ele>1264.1</ele>
        <time>2022-06-18T06:39:13Z</time>
      </trkpt>
      <trkpt lat="45.2014" lon="6.30293">
        <ele>1264.7</ele>
        <time>2022-06-18T06:39:15Z</time>
      </trkpt>
      <trkpt lat="45.20143" lon="6.30296">
        <ele>1265.2</ele>
        <time>2022-06-18T06:39:16Z</time>
      </trkpt>
      <trkpt lat="45.20145" lon="6.30299">
        <ele>1265.6</ele>
        <time>2022-06-18T06:39:17Z</time>
      </trkpt>
      <trkpt lat="45.20148" lon="6.30301">
        <ele>1266</ele>
        <time>2022-06-18T06:39:18Z</time>
      </trkpt>
      <trkpt lat="45.20151" lon="6.30306">
        <ele>1266.6</ele>
        <time>2022-06-18T06:39:19Z</time>
      </trkpt>
      <trkpt lat="45.20154" lon="6.3031">
        <ele>1267.2</ele>
        <time>2022-06-18T06:39:20Z</time>
      </trkpt>
      <trkpt lat="45.20157" lon="6.30315">
        <ele>1267.8</ele>
        <time>2022-06-18T06:39:21Z</time>
      </trkpt>
      <trkpt lat="45.20161" lon="6.30322">
        <ele>1268.6</ele>
        <time>2022-06-18T06:39:23Z</time>
      </trkpt>
      <trkpt lat="45.20164" lon="6.30329">
        <ele>1269.4</ele>
        <time>2022-06-18T06:39:24Z</time>
      </trkpt>
      <trkpt lat="45.20167" lon="6.30336">
        <ele>1270.2</ele>
        <time>2022-06-18T06:39:26Z</time>
      </trkpt>
      <trkpt lat="45.2017" lon="6.30342">
        <ele>1270.9</ele>
        <time>2022-06-18T06:39:27Z</time>
      </trkpt>
      <trkpt lat="45.20173" lon="6.30348">
        <ele>1271.5</ele>
        <time>2022-06-18T06:39:28Z</time>
      </trkpt>
      <trkpt lat="45.20176" lon="6.30354">
        <ele>1272.1</ele>
        <time>2022-06-18T06:39:29Z</time>
      </trkpt>
      <trkpt lat="45.20178" lon="6.30359">
        <ele>1272.7</ele>
        <time>2022-06-18T06:39:30Z</time>
      </trkpt>
      <trkpt lat="45.2018" lon="6.30365">
        <ele>1273.3</ele>
        <time>2022-06-18T06:39:32Z</time>
      </trkpt>
      <trkpt lat="45.20183" lon="6.30372">
        <ele>1274</ele>
        <time>2022-06-18T06:39:33Z</time>
      </trkpt>
      <trkpt lat="45.20185" lon="6.30379">
        <ele>1274.7</ele>
        <time>2022-06-18T06:39:34Z</time>
      </trkpt>
      <trkpt lat="45.20188" lon="6.30388">
        <ele>1275.6</ele>
        <time>2022-06-18T06:39:36Z</time>
      </trkpt>
      <trkpt lat="45.20191" lon="6.30394">
        <ele>1276.1</ele>
        <time>2022-06-18T06:39:37Z</time>
      </trkpt>
      <trkpt lat="45.20192" lon="6.30398">
        <ele>1276.5</ele>
        <time>2022-06-18T06:39:38Z</time>
      </trkpt>
      <trkpt lat="45.20194" lon="6.30402">
        <ele>1277</ele>
        <time>2022-06-18T06:39:39Z</time>
      </trkpt>
      <trkpt lat="45.20197" lon="6.30407">
        <ele>1277.2</ele>
        <time>2022-06-18T06:39:40Z</time>
      </trkpt>
      <trkpt lat="45.202" lon="6.30411">
        <ele>1276.8</ele>
        <time>2022-06-18T06:39:41Z</time>
      </trkpt>
      <trkpt lat="45.20203" lon="6.30416">
        <ele>1276.4</ele>
        <time>2022-06-18T06:39:42Z</time>
      </trkpt>
      <trkpt lat="45.20206" lon="6.30421">
        <ele>1276.1</ele>
        <time>2022-06-18T06:39:44Z</time>
      </trkpt>
      <trkpt lat="45.20209" lon="6.30426">
        <ele>1275.7</ele>
        <time>2022-06-18T06:39:45Z</time>
      </trkpt>
      <trkpt lat="45.20212" lon="6.3043">
        <ele>1275.4</ele>
        <time>2022-06-18T06:39:46Z</time>
      </trkpt>
      <trkpt lat="45.20215" lon="6.30436">
        <ele>1275</ele>
        <time>2022-06-18T06:39:47Z</time>
      </trkpt>
      <trkpt lat="45.20218" lon="6.3044">
        <ele>1274.7</ele>
        <time>2022-06-18T06:39:48Z</time>
      </trkpt>
      <trkpt lat="45.20222" lon="6.30445">
        <ele>1274.3</ele>
        <time>2022-06-18T06:39:50Z</time>
      </trkpt>
      <trkpt lat="45.20225" lon="6.30449">
        <ele>1274.1</ele>
        <time>2022-06-18T06:39:51Z</time>
      </trkpt>
      <trkpt lat="45.20228" lon="6.30455">
        <ele>1273.7</ele>
        <time>2022-06-18T06:39:52Z</time>
      </trkpt>
      <trkpt lat="45.2023" lon="6.30462">
        <ele>1273.3</ele>
        <time>2022-06-18T06:39:54Z</time>
      </trkpt>
      <trkpt lat="45.20232" lon="6.30472">
        <ele>1272.8</ele>
        <time>2022-06-18T06:39:55Z</time>
      </trkpt>
      <trkpt lat="45.20234" lon="6.30479">
        <ele>1272.4</ele>
        <time>2022-06-18T06:39:56Z</time>
      </trkpt>
      <trkpt lat="45.20234" lon="6.30485">
        <ele>1272.1</ele>
        <time>2022-06-18T06:39:57Z</time>
      </trkpt>
      <trkpt lat="45.20235" lon="6.30492">
        <ele>1271.7</ele>
        <time>2022-06-18T06:39:58Z</time>
      </trkpt>
      <trkpt lat="45.20236" lon="6.30499">
        <ele>1271.3</ele>
        <time>2022-06-18T06:39:59Z</time>
      </trkpt>
      <trkpt lat="45.20236" lon="6.3051">
        <ele>1270.7</ele>
        <time>2022-06-18T06:40:01Z</time>
      </trkpt>
      <trkpt lat="45.20235" lon="6.30518">
        <ele>1270.2</ele>
        <time>2022-06-18T06:40:02Z</time>
      </trkpt>
      <trkpt lat="45.20234" lon="6.30524">
        <ele>1269.8</ele>
        <time>2022-06-18T06:40:03Z</time>
      </trkpt>
      <trkpt lat="45.20234" lon="6.30532">
        <ele>1269.3</ele>
        <time>2022-06-18T06:40:05Z</time>
      </trkpt>
      <trkpt lat="45.20233" lon="6.30541">
        <ele>1268.8</ele>
        <time>2022-06-18T06:40:06Z</time>
      </trkpt>
      <trkpt lat="45.20231" lon="6.30547">
        <ele>1268.4</ele>
        <time>2022-06-18T06:40:07Z</time>
      </trkpt>
      <trkpt lat="45.2023" lon="6.30555">
        <ele>1267.9</ele>
        <time>2022-06-18T06:40:09Z</time>
      </trkpt>
      <trkpt lat="45.20229" lon="6.30563">
        <ele>1267.4</ele>
        <time>2022-06-18T06:40:10Z</time>
      </trkpt>
      <trkpt lat="45.20228" lon="6.30571">
        <ele>1266.9</ele>
        <time>2022-06-18T06:40:12Z</time>
      </trkpt>
      <trkpt lat="45.20228" lon="6.3058">
        <ele>1266.4</ele>
        <time>2022-06-18T06:40:13Z</time>
      </trkpt>
      <trkpt lat="45.20227" lon="6.30586">
        <ele>1266.1</ele>
        <time>2022-06-18T06:40:14Z</time>
      </trkpt>
      <trkpt lat="45.20227" lon="6.30591">
        <ele>1265.8</ele>
        <time>2022-06-18T06:40:15Z</time>
      </trkpt>
      <trkpt lat="45.20227" lon="6.30596">
        <ele>1266.1</ele>
        <time>2022-06-18T06:40:16Z</time>
      </trkpt>
      <trkpt lat="45.20227" lon="6.30602">
        <ele>1266.4</ele>
        <time>2022-06-18T06:40:17Z</time>
      </trkpt>
      <trkpt lat="45.20228" lon="6.30607">
        <ele>1266.8</ele>
        <time>2022-06-18T06:40:18Z</time>
      </trkpt>
      <trkpt lat="45.20229" lon="6.30613">
        <ele>1267.2</ele>
        <time>2022-06-18T06:40:20Z</time>
      </trkpt>
      <trkpt lat="45.2023" lon="6.30622">
        <ele>1267.7</ele>
        <time>2022-06-18T06:40:21Z</time>
      </trkpt>
      <trkpt lat="45.20232" lon="6.30627">
        <ele>1268.1</ele>
        <time>2022-06-18T06:40:22Z</time>
      </trkpt>
      <trkpt lat="45.20234" lon="6.30631">
        <ele>1268.4</ele>
        <time>2022-06-18T06:40:23Z</time>
      </trkpt>
      <trkpt lat="45.20237" lon="6.30635">
        <ele>1268.7</ele>
        <time>2022-06-18T06:40:24Z</time>
      </trkpt>
      <trkpt lat="45.20242" lon="6.30637">
        <ele>1269</ele>
        <time>2022-06-18T06:40:25Z</time>
      </trkpt>
      <trkpt lat="45.20247" lon="6.3064">
        <ele>1269.4</ele>
        <time>2022-06-18T06:40:26Z</time>
      </trkpt>
      <trkpt lat="45.20252" lon="6.30642">
        <ele>1269.7</ele>
        <time>2022-06-18T06:40:27Z</time>
      </trkpt>
      <trkpt lat="45.20257" lon="6.30644">
        <ele>1270.1</ele>
        <time>2022-06-18T06:40:28Z</time>
      </trkpt>
      <trkpt lat="45.20262" lon="6.30646">
        <ele>1270.5</ele>
        <time>2022-06-18T06:40:29Z</time>
      </trkpt>
      <trkpt lat="45.20267" lon="6.30648">
        <ele>1270.8</ele>
        <time>2022-06-18T06:40:30Z</time>
      </trkpt>
      <trkpt lat="45.20272" lon="6.3065">
        <ele>1271.2</ele>
        <time>2022-06-18T06:40:31Z</time>
      </trkpt>
      <trkpt lat="45.20277" lon="6.30651">
        <ele>1271.6</ele>
        <time>2022-06-18T06:40:32Z</time>
      </trkpt>
      <trkpt lat="45.20282" lon="6.30653">
        <ele>1271.9</ele>
        <time>2022-06-18T06:40:33Z</time>
      </trkpt>
      <trkpt lat="45.20287" lon="6.30654">
        <ele>1272.3</ele>
        <time>2022-06-18T06:40:34Z</time>
      </trkpt>
      <trkpt lat="45.20292" lon="6.30656">
        <ele>1272.7</ele>
        <time>2022-06-18T06:40:35Z</time>
      </trkpt>
      <trkpt lat="45.20297" lon="6.30658">
        <ele>1273</ele>
        <time>2022-06-18T06:40:36Z</time>
      </trkpt>
      <trkpt lat="45.20301" lon="6.3066">
        <ele>1273.4</ele>
        <time>2022-06-18T06:40:37Z</time>
      </trkpt>
      <trkpt lat="45.20306" lon="6.30662">
        <ele>1273.8</ele>
        <time>2022-06-18T06:40:38Z</time>
      </trkpt>
      <trkpt lat="45.20311" lon="6.30664">
        <ele>1274.2</ele>
        <time>2022-06-18T06:40:39Z</time>
      </trkpt>
      <trkpt lat="45.20316" lon="6.30665">
        <ele>1274.5</ele>
        <time>2022-06-18T06:40:40Z</time>
      </trkpt>
      <trkpt lat="45.2032" lon="6.30667">
        <ele>1274.9</ele>
        <time>2022-06-18T06:40:41Z</time>
      </trkpt>
      <trkpt lat="45.20325" lon="6.30668">
        <ele>1275.3</ele>
        <time>2022-06-18T06:40:42Z</time>
      </trkpt>
      <trkpt lat="45.20329" lon="6.30668">
        <ele>1275.6</ele>
        <time>2022-06-18T06:40:43Z</time>
      </trkpt>
      <trkpt lat="45.20334" lon="6.30669">
        <ele>1275.9</ele>
        <time>2022-06-18T06:40:44Z</time>
      </trkpt>
      <trkpt lat="45.2034" lon="6.30669">
        <ele>1276.3</ele>
        <time>2022-06-18T06:40:45Z</time>
      </trkpt>
      <trkpt lat="45.20345" lon="6.3067">
        <ele>1276.7</ele>
        <time>2022-06-18T06:40:46Z</time>
      </trkpt>
      <trkpt lat="45.20351" lon="6.3067">
        <ele>1277.1</ele>
        <time>2022-06-18T06:40:47Z</time>
      </trkpt>
      <trkpt lat="45.20356" lon="6.30671">
        <ele>1277.4</ele>
        <time>2022-06-18T06:40:48Z</time>
      </trkpt>
      <trkpt lat="45.20362" lon="6.30671">
        <ele>1277.7</ele>
        <time>2022-06-18T06:40:49Z</time>
      </trkpt>
      <trkpt lat="45.20367" lon="6.30672">
        <ele>1278.1</ele>
        <time>2022-06-18T06:40:50Z</time>
      </trkpt>
      <trkpt lat="45.20373" lon="6.30673">
        <ele>1278.4</ele>
        <time>2022-06-18T06:40:51Z</time>
      </trkpt>
      <trkpt lat="45.20378" lon="6.30676">
        <ele>1278.7</ele>
        <time>2022-06-18T06:40:52Z</time>
      </trkpt>
      <trkpt lat="45.20384" lon="6.30679">
        <ele>1279</ele>
        <time>2022-06-18T06:40:53Z</time>
      </trkpt>
      <trkpt lat="45.2039" lon="6.30682">
        <ele>1279.3</ele>
        <time>2022-06-18T06:40:54Z</time>
      </trkpt>
      <trkpt lat="45.20395" lon="6.30686">
        <ele>1279.6</ele>
        <time>2022-06-18T06:40:55Z</time>
      </trkpt>
      <trkpt lat="45.20401" lon="6.30691">
        <ele>1279.8</ele>
        <time>2022-06-18T06:40:56Z</time>
      </trkpt>
      <trkpt lat="45.20406" lon="6.30695">
        <ele>1280.1</ele>
        <time>2022-06-18T06:40:57Z</time>
      </trkpt>
      <trkpt lat="45.20411" lon="6.307">
        <ele>1280.4</ele>
        <time>2022-06-18T06:40:58Z</time>
      </trkpt>
      <trkpt lat="45.20417" lon="6.30705">
        <ele>1280.7</ele>
        <time>2022-06-18T06:40:59Z</time>
      </trkpt>
      <trkpt lat="45.20422" lon="6.30709">
        <ele>1281</ele>
        <time>2022-06-18T06:41:00Z</time>
      </trkpt>
      <trkpt lat="45.20428" lon="6.30714">
        <ele>1281.4</ele>
        <time>2022-06-18T06:41:01Z</time>
      </trkpt>
      <trkpt lat="45.20434" lon="6.30719">
        <ele>1281.7</ele>
        <time>2022-06-18T06:41:02Z</time>
      </trkpt>
      <trkpt lat="45.20439" lon="6.30723">
        <ele>1282</ele>
        <time>2022-06-18T06:41:03Z</time>
      </trkpt>
      <trkpt lat="45.20445" lon="6.30727">
        <ele>1282.4</ele>
        <time>2022-06-18T06:41:04Z</time>
      </trkpt>
      <trkpt lat="45.20451" lon="6.30731">
        <ele>1282.7</ele>
        <time>2022-06-18T06:41:05Z</time>
      </trkpt>
      <trkpt lat="45.20456" lon="6.30733">
        <ele>1283</ele>
        <time>2022-06-18T06:41:06Z</time>
      </trkpt>
      <trkpt lat="45.20462" lon="6.30736">
        <ele>1283.3</ele>
        <time>2022-06-18T06:41:07Z</time>
      </trkpt>
      <trkpt lat="45.20468" lon="6.3074">
        <ele>1283.7</ele>
        <time>2022-06-18T06:41:08Z</time>
      </trkpt>
      <trkpt lat="45.20473" lon="6.30744">
        <ele>1284.1</ele>
        <time>2022-06-18T06:41:09Z</time>
      </trkpt>
      <trkpt lat="45.20478" lon="6.3075">
        <ele>1284.5</ele>
        <time>2022-06-18T06:41:10Z</time>
      </trkpt>
      <trkpt lat="45.20482" lon="6.30755">
        <ele>1284.8</ele>
        <time>2022-06-18T06:41:11Z</time>
      </trkpt>
      <trkpt lat="45.20486" lon="6.3076">
        <ele>1285.2</ele>
        <time>2022-06-18T06:41:12Z</time>
      </trkpt>
      <trkpt lat="45.20491" lon="6.30764">
        <ele>1285.5</ele>
        <time>2022-06-18T06:41:13Z</time>
      </trkpt>
      <trkpt lat="45.20496" lon="6.30767">
        <ele>1285.8</ele>
        <time>2022-06-18T06:41:14Z</time>
      </trkpt>
      <trkpt lat="45.20502" lon="6.3077">
        <ele>1286.2</ele>
        <time>2022-06-18T06:41:15Z</time>
      </trkpt>
      <trkpt lat="45.20507" lon="6.30773">
        <ele>1286.6</ele>
        <time>2022-06-18T06:41:16Z</time>
      </trkpt>
      <trkpt lat="45.20513" lon="6.30776">
        <ele>1287</ele>
        <time>2022-06-18T06:41:17Z</time>
      </trkpt>
      <trkpt lat="45.20519" lon="6.30778">
        <ele>1287.4</ele>
        <time>2022-06-18T06:41:18Z</time>
      </trkpt>
      <trkpt lat="45.20525" lon="6.3078">
        <ele>1287.8</ele>
        <time>2022-06-18T06:41:19Z</time>
      </trkpt>
      <trkpt lat="45.20531" lon="6.30782">
        <ele>1288.1</ele>
        <time>2022-06-18T06:41:20Z</time>
      </trkpt>
      <trkpt lat="45.20536" lon="6.30784">
        <ele>1288.5</ele>
        <time>2022-06-18T06:41:21Z</time>
      </trkpt>
      <trkpt lat="45.20542" lon="6.30786">
        <ele>1288.8</ele>
        <time>2022-06-18T06:41:22Z</time>
      </trkpt>
      <trkpt lat="45.20547" lon="6.30789">
        <ele>1289.2</ele>
        <time>2022-06-18T06:41:23Z</time>
      </trkpt>
      <trkpt lat="45.20553" lon="6.30792">
        <ele>1289.5</ele>
        <time>2022-06-18T06:41:24Z</time>
      </trkpt>
      <trkpt lat="45.20559" lon="6.30795">
        <ele>1289.9</ele>
        <time>2022-06-18T06:41:25Z</time>
      </trkpt>
      <trkpt lat="45.20564" lon="6.30798">
        <ele>1290.3</ele>
        <time>2022-06-18T06:41:26Z</time>
      </trkpt>
      <trkpt lat="45.2057" lon="6.30801">
        <ele>1290.6</ele>
        <time>2022-06-18T06:41:27Z</time>
      </trkpt>
      <trkpt lat="45.20576" lon="6.30804">
        <ele>1290.9</ele>
        <time>2022-06-18T06:41:28Z</time>
      </trkpt>
      <trkpt lat="45.20581" lon="6.30807">
        <ele>1291.2</ele>
        <time>2022-06-18T06:41:29Z</time>
      </trkpt>
      <trkpt lat="45.20587" lon="6.30809">
        <ele>1291.6</ele>
        <time>2022-06-18T06:41:30Z</time>
      </trkpt>
      <trkpt lat="45.20592" lon="6.30812">
        <ele>1291.9</ele>
        <time>2022-06-18T06:41:31Z</time>
      </trkpt>
      <trkpt lat="45.20598" lon="6.30815">
        <ele>1292.3</ele>
        <time>2022-06-18T06:41:32Z</time>
      </trkpt>
      <trkpt lat="45.20603" lon="6.30818">
        <ele>1292.7</ele>
        <time>2022-06-18T06:41:33Z</time>
      </trkpt>
      <trkpt lat="45.20609" lon="6.3082">
        <ele>1293.1</ele>
        <time>2022-06-18T06:41:34Z</time>
      </trkpt>
      <trkpt lat="45.20614" lon="6.30823">
        <ele>1293.4</ele>
        <time>2022-06-18T06:41:35Z</time>
      </trkpt>
      <trkpt lat="45.2062" lon="6.30827">
        <ele>1293.8</ele>
        <time>2022-06-18T06:41:36Z</time>
      </trkpt>
      <trkpt lat="45.20625" lon="6.3083">
        <ele>1294.2</ele>
        <time>2022-06-18T06:41:37Z</time>
      </trkpt>
      <trkpt lat="45.2063" lon="6.30833">
        <ele>1294.6</ele>
        <time>2022-06-18T06:41:38Z</time>
      </trkpt>
      <trkpt lat="45.20635" lon="6.30836">
        <ele>1294.9</ele>
        <time>2022-06-18T06:41:39Z</time>
      </trkpt>
      <trkpt lat="45.2064" lon="6.30838">
        <ele>1295.3</ele>
        <time>2022-06-18T06:41:40Z</time>
      </trkpt>
      <trkpt lat="45.20646" lon="6.3084">
        <ele>1295.7</ele>
        <time>2022-06-18T06:41:41Z</time>
      </trkpt>
      <trkpt lat="45.20652" lon="6.30841">
        <ele>1296.1</ele>
        <time>2022-06-18T06:41:42Z</time>
      </trkpt>
      <trkpt lat="45.20658" lon="6.30842">
        <ele>1296.4</ele>
        <time>2022-06-18T06:41:43Z</time>
      </trkpt>
      <trkpt lat="45.20664" lon="6.30842">
        <ele>1296.6</ele>
        <time>2022-06-18T06:41:44Z</time>
      </trkpt>
      <trkpt lat="45.2067" lon="6.30843">
        <ele>1296.7</ele>
        <time>2022-06-18T06:41:45Z</time>
      </trkpt>
      <trkpt lat="45.20676" lon="6.30844">
        <ele>1296.9</ele>
        <time>2022-06-18T06:41:46Z</time>
      </trkpt>
      <trkpt lat="45.20682" lon="6.30845">
        <ele>1297.1</ele>
        <time>2022-06-18T06:41:47Z</time>
      </trkpt>
      <trkpt lat="45.20687" lon="6.30845">
        <ele>1297.3</ele>
        <time>2022-06-18T06:41:48Z</time>
      </trkpt>
      <trkpt lat="45.20693" lon="6.30845">
        <ele>1297.4</ele>
        <time>2022-06-18T06:41:49Z</time>
      </trkpt>
      <trkpt lat="45.20698" lon="6.30844">
        <ele>1297.6</ele>
        <time>2022-06-18T06:41:50Z</time>
      </trkpt>
      <trkpt lat="45.20704" lon="6.30845">
        <ele>1297.7</ele>
        <time>2022-06-18T06:41:51Z</time>
      </trkpt>
      <trkpt lat="45.2071" lon="6.30845">
        <ele>1297.9</ele>
        <time>2022-06-18T06:41:52Z</time>
      </trkpt>
      <trkpt lat="45.20715" lon="6.30845">
        <ele>1298.1</ele>
        <time>2022-06-18T06:41:53Z</time>
      </trkpt>
      <trkpt lat="45.20721" lon="6.30845">
        <ele>1298.3</ele>
        <time>2022-06-18T06:41:54Z</time>
      </trkpt>
      <trkpt lat="45.20726" lon="6.30845">
        <ele>1298.5</ele>
        <time>2022-06-18T06:41:55Z</time>
      </trkpt>
      <trkpt lat="45.20732" lon="6.30847">
        <ele>1298.7</ele>
        <time>2022-06-18T06:41:56Z</time>
      </trkpt>
      <trkpt lat="45.20737" lon="6.30848">
        <ele>1298.9</ele>
        <time>2022-06-18T06:41:57Z</time>
      </trkpt>
      <trkpt lat="45.20742" lon="6.3085">
        <ele>1299.1</ele>
        <time>2022-06-18T06:41:58Z</time>
      </trkpt>
      <trkpt lat="45.20747" lon="6.30852">
        <ele>1299.3</ele>
        <time>2022-06-18T06:41:59Z</time>
      </trkpt>
      <trkpt lat="45.20752" lon="6.30855">
        <ele>1299.6</ele>
        <time>2022-06-18T06:42:00Z</time>
      </trkpt>
      <trkpt lat="45.20757" lon="6.30858">
        <ele>1299.8</ele>
        <time>2022-06-18T06:42:01Z</time>
      </trkpt>
      <trkpt lat="45.20762" lon="6.30861">
        <ele>1300</ele>
        <time>2022-06-18T06:42:02Z</time>
      </trkpt>
      <trkpt lat="45.20767" lon="6.30864">
        <ele>1300.2</ele>
        <time>2022-06-18T06:42:03Z</time>
      </trkpt>
      <trkpt lat="45.20772" lon="6.30867">
        <ele>1300.4</ele>
        <time>2022-06-18T06:42:04Z</time>
      </trkpt>
      <trkpt lat="45.20776" lon="6.3087">
        <ele>1300.6</ele>
        <time>2022-06-18T06:42:05Z</time>
      </trkpt>
      <trkpt lat="45.20781" lon="6.30874">
        <ele>1300.8</ele>
        <time>2022-06-18T06:42:06Z</time>
      </trkpt>
      <trkpt lat="45.20785" lon="6.3088">
        <ele>1301</ele>
        <time>2022-06-18T06:42:07Z</time>
      </trkpt>
      <trkpt lat="45.2079" lon="6.30886">
        <ele>1300.1</ele>
        <time>2022-06-18T06:42:08Z</time>
      </trkpt>
      <trkpt lat="45.20794" lon="6.30892">
        <ele>1299.1</ele>
        <time>2022-06-18T06:42:09Z</time>
      </trkpt>
      <trkpt lat="45.20799" lon="6.30899">
        <ele>1298.1</ele>
        <time>2022-06-18T06:42:10Z</time>
      </trkpt>
      <trkpt lat="45.20804" lon="6.30904">
        <ele>1297.2</ele>
        <time>2022-06-18T06:42:11Z</time>
      </trkpt>
      <trkpt lat="45.2081" lon="6.30909">
        <ele>1296.3</ele>
        <time>2022-06-18T06:42:12Z</time>
      </trkpt>
      <trkpt lat="45.20815" lon="6.30913">
        <ele>1295.5</ele>
        <time>2022-06-18T06:42:13Z</time>
      </trkpt>
      <trkpt lat="45.2082" lon="6.30915">
        <ele>1294.7</ele>
        <time>2022-06-18T06:42:14Z</time>
      </trkpt>
      <trkpt lat="45.20825" lon="6.30915">
        <ele>1293.9</ele>
        <time>2022-06-18T06:42:15Z</time>
      </trkpt>
      <trkpt lat="45.2083" lon="6.30914">
        <ele>1293.1</ele>
        <time>2022-06-18T06:42:16Z</time>
      </trkpt>
      <trkpt lat="45.20835" lon="6.30913">
        <ele>1292.1</ele>
        <time>2022-06-18T06:42:17Z</time>
      </trkpt>
      <trkpt lat="45.20841" lon="6.3091">
        <ele>1291</ele>
        <time>2022-06-18T06:42:18Z</time>
      </trkpt>
      <trkpt lat="45.20847" lon="6.30907">
        <ele>1289.8</ele>
        <time>2022-06-18T06:42:19Z</time>
      </trkpt>
      <trkpt lat="45.20853" lon="6.30904">
        <ele>1288.5</ele>
        <time>2022-06-18T06:42:20Z</time>
      </trkpt>
      <trkpt lat="45.20859" lon="6.30901">
        <ele>1287.1</ele>
        <time>2022-06-18T06:42:21Z</time>
      </trkpt>
      <trkpt lat="45.20865" lon="6.30898">
        <ele>1285.6</ele>
        <time>2022-06-18T06:42:22Z</time>
      </trkpt>
      <trkpt lat="45.20872" lon="6.30895">
        <ele>1284.1</ele>
        <time>2022-06-18T06:42:23Z</time>
      </trkpt>
      <trkpt lat="45.20879" lon="6.30891">
        <ele>1282.5</ele>
        <time>2022-06-18T06:42:24Z</time>
      </trkpt>
      <trkpt lat="45.20886" lon="6.30888">
        <ele>1280.8</ele>
        <time>2022-06-18T06:42:25Z</time>
      </trkpt>
      <trkpt lat="45.20893" lon="6.30884">
        <ele>1279.9</ele>
        <time>2022-06-18T06:42:26Z</time>
      </trkpt>
      <trkpt lat="45.20901" lon="6.30878">
        <ele>1280.1</ele>
        <time>2022-06-18T06:42:27Z</time>
      </trkpt>
      <trkpt lat="45.20907" lon="6.30871">
        <ele>1280.3</ele>
        <time>2022-06-18T06:42:28Z</time>
      </trkpt>
      <trkpt lat="45.20913" lon="6.30863">
        <ele>1280.5</ele>
        <time>2022-06-18T06:42:29Z</time>
      </trkpt>
      <trkpt lat="45.20917" lon="6.30853">
        <ele>1280.7</ele>
        <time>2022-06-18T06:42:30Z</time>
      </trkpt>
      <trkpt lat="45.2092" lon="6.30842">
        <ele>1280.9</ele>
        <time>2022-06-18T06:42:31Z</time>
      </trkpt>
      <trkpt lat="45.20923" lon="6.30832">
        <ele>1281.1</ele>
        <time>2022-06-18T06:42:32Z</time>
      </trkpt>
      <trkpt lat="45.20927" lon="6.30821">
        <ele>1281.3</ele>
        <time>2022-06-18T06:42:33Z</time>
      </trkpt>
      <trkpt lat="45.20931" lon="6.3081">
        <ele>1281.5</ele>
        <time>2022-06-18T06:42:34Z</time>
      </trkpt>
      <trkpt lat="45.20936" lon="6.30799">
        <ele>1281.7</ele>
        <time>2022-06-18T06:42:35Z</time>
      </trkpt>
      <trkpt lat="45.20941" lon="6.30789">
        <ele>1282</ele>
        <time>2022-06-18T06:42:36Z</time>
      </trkpt>
      <trkpt lat="45.20948" lon="6.3078">
        <ele>1282.2</ele>
        <time>2022-06-18T06:42:37Z</time>
      </trkpt>
      <trkpt lat="45.20956" lon="6.30771">
        <ele>1282.5</ele>
        <time>2022-06-18T06:42:38Z</time>
      </trkpt>
      <trkpt lat="45.20963" lon="6.30761">
        <ele>1282.7</ele>
        <time>2022-06-18T06:42:39Z</time>
      </trkpt>
      <trkpt lat="45.20971" lon="6.30751">
        <ele>1283</ele>
        <time>2022-06-18T06:42:40Z</time>
      </trkpt>
      <trkpt lat="45.20978" lon="6.30741">
        <ele>1283.3</ele>
        <time>2022-06-18T06:42:41Z</time>
      </trkpt>
      <trkpt lat="45.20986" lon="6.3073">
        <ele>1283.5</ele>
        <time>2022-06-18T06:42:42Z</time>
      </trkpt>
      <trkpt lat="45.20993" lon="6.3072">
        <ele>1283.7</ele>
        <time>2022-06-18T06:42:43Z</time>
      </trkpt>
      <trkpt lat="45.21" lon="6.3071">
        <ele>1284</ele>
        <time>2022-06-18T06:42:44Z</time>
      </trkpt>
      <trkpt lat="45.21008" lon="6.307">
        <ele>1284.3</ele>
        <time>2022-06-18T06:42:45Z</time>
      </trkpt>
      <trkpt lat="45.21015" lon="6.3069">
        <ele>1284.5</ele>
        <time>2022-06-18T06:42:46Z</time>
      </trkpt>
      <trkpt lat="45.21024" lon="6.30682">
        <ele>1284.8</ele>
        <time>2022-06-18T06:42:47Z</time>
      </trkpt>
      <trkpt lat="45.21032" lon="6.30674">
        <ele>1285.1</ele>
        <time>2022-06-18T06:42:48Z</time>
      </trkpt>
      <trkpt lat="45.2104" lon="6.30666">
        <ele>1285.4</ele>
        <time>2022-06-18T06:42:49Z</time>
      </trkpt>
      <trkpt lat="45.21047" lon="6.30658">
        <ele>1285.7</ele>
        <time>2022-06-18T06:42:50Z</time>
      </trkpt>
      <trkpt lat="45.21055" lon="6.30649">
        <ele>1286</ele>
        <time>2022-06-18T06:42:51Z</time>
      </trkpt>
      <trkpt lat="45.21063" lon="6.30642">
        <ele>1286.3</ele>
        <time>2022-06-18T06:42:52Z</time>
      </trkpt>
      <trkpt lat="45.21071" lon="6.30637">
        <ele>1286.5</ele>
        <time>2022-06-18T06:42:53Z</time>
      </trkpt>
      <trkpt lat="45.2108" lon="6.30632">
        <ele>1286.6</ele>
        <time>2022-06-18T06:42:54Z</time>
      </trkpt>
      <trkpt lat="45.21089" lon="6.3063">
        <ele>1286.8</ele>
        <time>2022-06-18T06:42:55Z</time>
      </trkpt>
      <trkpt lat="45.21099" lon="6.3063">
        <ele>1287</ele>
        <time>2022-06-18T06:42:56Z</time>
      </trkpt>
      <trkpt lat="45.21111" lon="6.30632">
        <ele>1287.4</ele>
        <time>2022-06-18T06:42:57Z</time>
      </trkpt>
      <trkpt lat="45.21121" lon="6.30637">
        <ele>1287.8</ele>
        <time>2022-06-18T06:42:58Z</time>
      </trkpt>
      <trkpt lat="45.21131" lon="6.30644">
        <ele>1288.4</ele>
        <time>2022-06-18T06:42:59Z</time>
      </trkpt>
      <trkpt lat="45.2114" lon="6.30654">
        <ele>1289.1</ele>
        <time>2022-06-18T06:43:00Z</time>
      </trkpt>
      <trkpt lat="45.21148" lon="6.30665">
        <ele>1289.8</ele>
        <time>2022-06-18T06:43:01Z</time>
      </trkpt>
      <trkpt lat="45.21155" lon="6.30677">
        <ele>1290.6</ele>
        <time>2022-06-18T06:43:02Z</time>
      </trkpt>
      <trkpt lat="45.21161" lon="6.30687">
        <ele>1291.3</ele>
        <time>2022-06-18T06:43:03Z</time>
      </trkpt>
      <trkpt lat="45.21168" lon="6.30694">
        <ele>1294.7</ele>
        <time>2022-06-18T06:43:04Z</time>
      </trkpt>
      <trkpt lat="45.21175" lon="6.30699">
        <ele>1295.3</ele>
        <time>2022-06-18T06:43:05Z</time>
      </trkpt>
      <trkpt lat="45.21183" lon="6.30703">
        <ele>1295.9</ele>
        <time>2022-06-18T06:43:06Z</time>
      </trkpt>
      <trkpt lat="45.21192" lon="6.30706">
        <ele>1296.6</ele>
        <time>2022-06-18T06:43:07Z</time>
      </trkpt>
      <trkpt lat="45.21202" lon="6.30708">
        <ele>1297.4</ele>
        <time>2022-06-18T06:43:08Z</time>
      </trkpt>
      <trkpt lat="45.21638" lon="6.30582">
        <ele>1320.9</ele>
        <time>2022-06-18T06:44:06Z</time>
      </trkpt>
      <trkpt lat="45.21645" lon="6.30581">
        <ele>1319.6</ele>
        <time>2022-06-18T06:44:07Z</time>
      </trkpt>
      <trkpt lat="45.2165" lon="6.30583">
        <ele>1318.6</ele>
        <time>2022-06-18T06:44:08Z</time>
      </trkpt>
      <trkpt lat="45.21656" lon="6.30581">
        <ele>1317.3</ele>
        <time>2022-06-18T06:44:09Z</time>
      </trkpt>
      <trkpt lat="45.21663" lon="6.3058">
        <ele>1315.9</ele>
        <time>2022-06-18T06:44:10Z</time>
      </trkpt>
      <trkpt lat="45.21671" lon="6.30578">
        <ele>1314.3</ele>
        <time>2022-06-18T06:44:11Z</time>
      </trkpt>
      <trkpt lat="45.21678" lon="6.30577">
        <ele>1312.8</ele>
        <time>2022-06-18T06:44:12Z</time>
      </trkpt>
      <trkpt lat="45.21685" lon="6.30576">
        <ele>1311.1</ele>
        <time>2022-06-18T06:44:13Z</time>
      </trkpt>
      <trkpt lat="45.21694" lon="6.30574">
        <ele>1310</ele>
        <time>2022-06-18T06:44:14Z</time>
      </trkpt>
      <trkpt lat="45.21702" lon="6.30572">
        <ele>1309</ele>
        <time>2022-06-18T06:44:15Z</time>
      </trkpt>
      <trkpt lat="45.21709" lon="6.3057">
        <ele>1308</ele>
        <time>2022-06-18T06:44:16Z</time>
      </trkpt>
      <trkpt lat="45.21717" lon="6.30567">
        <ele>1307</ele>
        <time>2022-06-18T06:44:17Z</time>
      </trkpt>
      <trkpt lat="45.21744" lon="6.30564">
        <ele>1303.5</ele>
        <time>2022-06-18T06:44:35Z</time>
      </trkpt>
      <trkpt lat="45.21744" lon="6.30564">
        <ele>1303.5</ele>
        <time>2022-06-18T06:44:35Z</time>
      </trkpt>
      <trkpt lat="45.21793" lon="6.30574">
        <ele>1296.2</ele>
        <time>2022-06-18T06:44:36Z</time>
      </trkpt>
      <trkpt lat="45.21816" lon="6.30579">
        <ele>1292.4</ele>
        <time>2022-06-18T06:44:37Z</time>
      </trkpt>
      <trkpt lat="45.2184" lon="6.30584">
        <ele>1289.5</ele>
        <time>2022-06-18T06:44:38Z</time>
      </trkpt>
      <trkpt lat="45.21871" lon="6.30589">
        <ele>1287.5</ele>
        <time>2022-06-18T06:44:39Z</time>
      </trkpt>
      <trkpt lat="45.21896" lon="6.30591">
        <ele>1285.6</ele>
        <time>2022-06-18T06:44:40Z</time>
      </trkpt>
      <trkpt lat="45.21914" lon="6.30591">
        <ele>1284.3</ele>
        <time>2022-06-18T06:44:41Z</time>
      </trkpt>
      <trkpt lat="45.21928" lon="6.3059">
        <ele>1283.3</ele>
        <time>2022-06-18T06:44:42Z</time>
      </trkpt>
      <trkpt lat="45.21939" lon="6.30588">
        <ele>1282.6</ele>
        <time>2022-06-18T06:44:43Z</time>
      </trkpt>
      <trkpt lat="45.21948" lon="6.30584">
        <ele>1282.8</ele>
        <time>2022-06-18T06:44:44Z</time>
      </trkpt>
      <trkpt lat="45.21957" lon="6.3058">
        <ele>1283.1</ele>
        <time>2022-06-18T06:44:45Z</time>
      </trkpt>
      <trkpt lat="45.21965" lon="6.30577">
        <ele>1283.3</ele>
        <time>2022-06-18T06:44:46Z</time>
      </trkpt>
      <trkpt lat="45.21974" lon="6.30574">
        <ele>1283.5</ele>
        <time>2022-06-18T06:44:47Z</time>
      </trkpt>
      <trkpt lat="45.21982" lon="6.30571">
        <ele>1283.7</ele>
        <time>2022-06-18T06:44:48Z</time>
      </trkpt>
      <trkpt lat="45.2199" lon="6.30568">
        <ele>1284</ele>
        <time>2022-06-18T06:44:49Z</time>
      </trkpt>
      <trkpt lat="45.21999" lon="6.30565">
        <ele>1284.2</ele>
        <time>2022-06-18T06:44:50Z</time>
      </trkpt>
      <trkpt lat="45.22008" lon="6.30559">
        <ele>1284.4</ele>
        <time>2022-06-18T06:44:51Z</time>
      </trkpt>
      <trkpt lat="45.22016" lon="6.30552">
        <ele>1284.5</ele>
        <time>2022-06-18T06:44:52Z</time>
      </trkpt>
      <trkpt lat="45.22024" lon="6.30543">
        <ele>1284.6</ele>
        <time>2022-06-18T06:44:53Z</time>
      </trkpt>
      <trkpt lat="45.22031" lon="6.30535">
        <ele>1284.7</ele>
        <time>2022-06-18T06:44:54Z</time>
      </trkpt>
      <trkpt lat="45.22038" lon="6.30527">
        <ele>1284.7</ele>
        <time>2022-06-18T06:44:55Z</time>
      </trkpt>
      <trkpt lat="45.22046" lon="6.30518">
        <ele>1284.7</ele>
        <time>2022-06-18T06:44:56Z</time>
      </trkpt>
      <trkpt lat="45.22053" lon="6.30508">
        <ele>1284.6</ele>
        <time>2022-06-18T06:44:57Z</time>
      </trkpt>
      <trkpt lat="45.22059" lon="6.30498">
        <ele>1284.5</ele>
        <time>2022-06-18T06:44:58Z</time>
      </trkpt>
      <trkpt lat="45.22066" lon="6.30487">
        <ele>1284.3</ele>
        <time>2022-06-18T06:44:59Z</time>
      </trkpt>
      <trkpt lat="45.22073" lon="6.30476">
        <ele>1284.1</ele>
        <time>2022-06-18T06:45:00Z</time>
      </trkpt>
      <trkpt lat="45.22078" lon="6.30464">
        <ele>1283.8</ele>
        <time>2022-06-18T06:45:01Z</time>
      </trkpt>
      <trkpt lat="45.22084" lon="6.30452">
        <ele>1283.6</ele>
        <time>2022-06-18T06:45:02Z</time>
      </trkpt>
      <trkpt lat="45.22088" lon="6.30438">
        <ele>1283.4</ele>
        <time>2022-06-18T06:45:03Z</time>
      </trkpt>
      <trkpt lat="45.22092" lon="6.30424">
        <ele>1283.2</ele>
        <time>2022-06-18T06:45:04Z</time>
      </trkpt>
      <trkpt lat="45.22098" lon="6.30411">
        <ele>1283</ele>
        <time>2022-06-18T06:45:05Z</time>
      </trkpt>
      <trkpt lat="45.22106" lon="6.304">
        <ele>1282.9</ele>
        <time>2022-06-18T06:45:06Z</time>
      </trkpt>
      <trkpt lat="45.22116" lon="6.30392">
        <ele>1282.8</ele>
        <time>2022-06-18T06:45:07Z</time>
      </trkpt>
      <trkpt lat="45.22125" lon="6.30383">
        <ele>1282.3</ele>
        <time>2022-06-18T06:45:08Z</time>
      </trkpt>
      <trkpt lat="45.22135" lon="6.30375">
        <ele>1281.6</ele>
        <time>2022-06-18T06:45:09Z</time>
      </trkpt>
      <trkpt lat="45.22145" lon="6.30367">
        <ele>1280.8</ele>
        <time>2022-06-18T06:45:10Z</time>
      </trkpt>
      <trkpt lat="45.22227" lon="6.30371">
        <ele>1271.2</ele>
        <time>2022-06-18T06:45:19Z</time>
      </trkpt>
      <trkpt lat="45.22239" lon="6.30377">
        <ele>1270.1</ele>
        <time>2022-06-18T06:45:20Z</time>
      </trkpt>
      <trkpt lat="45.22243" lon="6.30391">
        <ele>1269.2</ele>
        <time>2022-06-18T06:45:21Z</time>
      </trkpt>
      <trkpt lat="45.22259" lon="6.30397">
        <ele>1268</ele>
        <time>2022-06-18T06:45:23Z</time>
      </trkpt>
      <trkpt lat="45.22272" lon="6.30391">
        <ele>1267.2</ele>
        <time>2022-06-18T06:45:24Z</time>
      </trkpt>
      <trkpt lat="45.22283" lon="6.30384">
        <ele>1266.4</ele>
        <time>2022-06-18T06:45:25Z</time>
      </trkpt>
      <trkpt lat="45.22294" lon="6.30374">
        <ele>1265.6</ele>
        <time>2022-06-18T06:45:26Z</time>
      </trkpt>
      <trkpt lat="45.22303" lon="6.30366">
        <ele>1264.7</ele>
        <time>2022-06-18T06:45:27Z</time>
      </trkpt>
      <trkpt lat="45.22311" lon="6.30359">
        <ele>1264</ele>
        <time>2022-06-18T06:45:28Z</time>
      </trkpt>
      <trkpt lat="45.22319" lon="6.30359">
        <ele>1263.3</ele>
        <time>2022-06-18T06:45:29Z</time>
      </trkpt>
      <trkpt lat="45.22326" lon="6.30368">
        <ele>1262.6</ele>
        <time>2022-06-18T06:45:30Z</time>
      </trkpt>
      <trkpt lat="45.22332" lon="6.30383">
        <ele>1261.5</ele>
        <time>2022-06-18T06:45:31Z</time>
      </trkpt>
      <trkpt lat="45.22338" lon="6.30398">
        <ele>1260.4</ele>
        <time>2022-06-18T06:45:32Z</time>
      </trkpt>
      <trkpt lat="45.22344" lon="6.30409">
        <ele>1259.4</ele>
        <time>2022-06-18T06:45:33Z</time>
      </trkpt>
      <trkpt lat="45.22351" lon="6.30416">
        <ele>1258.5</ele>
        <time>2022-06-18T06:45:34Z</time>
      </trkpt>
      <trkpt lat="45.2236" lon="6.30417">
        <ele>1257.4</ele>
        <time>2022-06-18T06:45:35Z</time>
      </trkpt>
      <trkpt lat="45.22371" lon="6.30415">
        <ele>1256</ele>
        <time>2022-06-18T06:45:36Z</time>
      </trkpt>
      <trkpt lat="45.22383" lon="6.30414">
        <ele>1254.5</ele>
        <time>2022-06-18T06:45:37Z</time>
      </trkpt>
      <trkpt lat="45.22395" lon="6.30411">
        <ele>1252.9</ele>
        <time>2022-06-18T06:45:38Z</time>
      </trkpt>
      <trkpt lat="45.22407" lon="6.30407">
        <ele>1251.4</ele>
        <time>2022-06-18T06:45:39Z</time>
      </trkpt>
      <trkpt lat="45.22418" lon="6.30401">
        <ele>1250</ele>
        <time>2022-06-18T06:45:40Z</time>
      </trkpt>
      <trkpt lat="45.22429" lon="6.30393">
        <ele>1248.7</ele>
        <time>2022-06-18T06:45:41Z</time>
      </trkpt>
      <trkpt lat="45.22439" lon="6.30384">
        <ele>1247.5</ele>
        <time>2022-06-18T06:45:42Z</time>
      </trkpt>
      <trkpt lat="45.22449" lon="6.30376">
        <ele>1246.3</ele>
        <time>2022-06-18T06:45:43Z</time>
      </trkpt>
      <trkpt lat="45.2246" lon="6.30369">
        <ele>1245.2</ele>
        <time>2022-06-18T06:45:44Z</time>
      </trkpt>
      <trkpt lat="45.22471" lon="6.30365">
        <ele>1243.9</ele>
        <time>2022-06-18T06:45:45Z</time>
      </trkpt>
      <trkpt lat="45.22483" lon="6.30363">
        <ele>1242.5</ele>
        <time>2022-06-18T06:45:46Z</time>
      </trkpt>
      <trkpt lat="45.22494" lon="6.30363">
        <ele>1241.1</ele>
        <time>2022-06-18T06:45:47Z</time>
      </trkpt>
      <trkpt lat="45.22506" lon="6.30366">
        <ele>1239.7</ele>
        <time>2022-06-18T06:45:48Z</time>
      </trkpt>
      <trkpt lat="45.22518" lon="6.30373">
        <ele>1238.1</ele>
        <time>2022-06-18T06:45:49Z</time>
      </trkpt>
      <trkpt lat="45.2253" lon="6.30382">
        <ele>1236.8</ele>
        <time>2022-06-18T06:45:50Z</time>
      </trkpt>
      <trkpt lat="45.22541" lon="6.30393">
        <ele>1235.6</ele>
        <time>2022-06-18T06:45:51Z</time>
      </trkpt>
      <trkpt lat="45.22553" lon="6.30405">
        <ele>1234.4</ele>
        <time>2022-06-18T06:45:52Z</time>
      </trkpt>
      <trkpt lat="45.22563" lon="6.30418">
        <ele>1233.3</ele>
        <time>2022-06-18T06:45:53Z</time>
      </trkpt>
      <trkpt lat="45.22573" lon="6.3043">
        <ele>1233.5</ele>
        <time>2022-06-18T06:45:54Z</time>
      </trkpt>
      <trkpt lat="45.22582" lon="6.30439">
        <ele>1234.2</ele>
        <time>2022-06-18T06:45:55Z</time>
      </trkpt>
      <trkpt lat="45.22592" lon="6.30447">
        <ele>1234.8</ele>
        <time>2022-06-18T06:45:56Z</time>
      </trkpt>
      <trkpt lat="45.22603" lon="6.30449">
        <ele>1235.4</ele>
        <time>2022-06-18T06:45:57Z</time>
      </trkpt>
      <trkpt lat="45.22615" lon="6.30445">
        <ele>1235.3</ele>
        <time>2022-06-18T06:45:58Z</time>
      </trkpt>
      <trkpt lat="45.22628" lon="6.30437">
        <ele>1234.7</ele>
        <time>2022-06-18T06:45:59Z</time>
      </trkpt>
      <trkpt lat="45.2264" lon="6.30426">
        <ele>1234.3</ele>
        <time>2022-06-18T06:46:00Z</time>
      </trkpt>
      <trkpt lat="45.22653" lon="6.30416">
        <ele>1234.2</ele>
        <time>2022-06-18T06:46:01Z</time>
      </trkpt>
      <trkpt lat="45.22667" lon="6.30409">
        <ele>1234.3</ele>
        <time>2022-06-18T06:46:02Z</time>
      </trkpt>
      <trkpt lat="45.2268" lon="6.30405">
        <ele>1234.4</ele>
        <time>2022-06-18T06:46:03Z</time>
      </trkpt>
      <trkpt lat="45.22693" lon="6.30404">
        <ele>1234.3</ele>
        <time>2022-06-18T06:46:04Z</time>
      </trkpt>
      <trkpt lat="45.22706" lon="6.30404">
        <ele>1234.1</ele>
        <time>2022-06-18T06:46:05Z</time>
      </trkpt>
      <trkpt lat="45.22716" lon="6.30402">
        <ele>1233.8</ele>
        <time>2022-06-18T06:46:06Z</time>
      </trkpt>
      <trkpt lat="45.22726" lon="6.30395">
        <ele>1233.3</ele>
        <time>2022-06-18T06:46:07Z</time>
      </trkpt>
      <trkpt lat="45.22735" lon="6.30384">
        <ele>1232.6</ele>
        <time>2022-06-18T06:46:08Z</time>
      </trkpt>
      <trkpt lat="45.22742" lon="6.30368">
        <ele>1232</ele>
        <time>2022-06-18T06:46:09Z</time>
      </trkpt>
      <trkpt lat="45.22746" lon="6.30348">
        <ele>1231.5</ele>
        <time>2022-06-18T06:46:10Z</time>
      </trkpt>
      <trkpt lat="45.2275" lon="6.30328">
        <ele>1231.3</ele>
        <time>2022-06-18T06:46:11Z</time>
      </trkpt>
      <trkpt lat="45.22755" lon="6.30308">
        <ele>1231.4</ele>
        <time>2022-06-18T06:46:12Z</time>
      </trkpt>
      <trkpt lat="45.22761" lon="6.30289">
        <ele>1231.7</ele>
        <time>2022-06-18T06:46:13Z</time>
      </trkpt>
      <trkpt lat="45.22769" lon="6.30274">
        <ele>1232.2</ele>
        <time>2022-06-18T06:46:14Z</time>
      </trkpt>
      <trkpt lat="45.22777" lon="6.30261">
        <ele>1232.8</ele>
        <time>2022-06-18T06:46:15Z</time>
      </trkpt>
      <trkpt lat="45.22784" lon="6.30252">
        <ele>1233.2</ele>
        <time>2022-06-18T06:46:16Z</time>
      </trkpt>
      <trkpt lat="45.2279" lon="6.30245">
        <ele>1233.4</ele>
        <time>2022-06-18T06:46:17Z</time>
      </trkpt>
      <trkpt lat="45.22797" lon="6.30243">
        <ele>1233.5</ele>
        <time>2022-06-18T06:46:18Z</time>
      </trkpt>
      <trkpt lat="45.22805" lon="6.30246">
        <ele>1233.6</ele>
        <time>2022-06-18T06:46:19Z</time>
      </trkpt>
      <trkpt lat="45.22814" lon="6.30257">
        <ele>1231.6</ele>
        <time>2022-06-18T06:46:20Z</time>
      </trkpt>
      <trkpt lat="45.22821" lon="6.30273">
        <ele>1229.1</ele>
        <time>2022-06-18T06:46:21Z</time>
      </trkpt>
      <trkpt lat="45.22825" lon="6.30293">
        <ele>1226.6</ele>
        <time>2022-06-18T06:46:22Z</time>
      </trkpt>
      <trkpt lat="45.22828" lon="6.30313">
        <ele>1224.4</ele>
        <time>2022-06-18T06:46:23Z</time>
      </trkpt>
      <trkpt lat="45.22831" lon="6.30332">
        <ele>1222.8</ele>
        <time>2022-06-18T06:46:24Z</time>
      </trkpt>
      <trkpt lat="45.22834" lon="6.3035">
        <ele>1221.6</ele>
        <time>2022-06-18T06:46:25Z</time>
      </trkpt>
      <trkpt lat="45.22843" lon="6.30382">
        <ele>1219.7</ele>
        <time>2022-06-18T06:46:27Z</time>
      </trkpt>
      <trkpt lat="45.22848" lon="6.30393">
        <ele>1218.8</ele>
        <time>2022-06-18T06:46:28Z</time>
      </trkpt>
      <trkpt lat="45.22855" lon="6.304">
        <ele>1218</ele>
        <time>2022-06-18T06:46:29Z</time>
      </trkpt>
      <trkpt lat="45.22865" lon="6.30403">
        <ele>1217.1</ele>
        <time>2022-06-18T06:46:30Z</time>
      </trkpt>
      <trkpt lat="45.22876" lon="6.30402">
        <ele>1216.1</ele>
        <time>2022-06-18T06:46:31Z</time>
      </trkpt>
      <trkpt lat="45.22887" lon="6.30403">
        <ele>1215.2</ele>
        <time>2022-06-18T06:46:32Z</time>
      </trkpt>
      <trkpt lat="45.22897" lon="6.30405">
        <ele>1214.3</ele>
        <time>2022-06-18T06:46:33Z</time>
      </trkpt>
      <trkpt lat="45.22906" lon="6.30406">
        <ele>1213.3</ele>
        <time>2022-06-18T06:46:34Z</time>
      </trkpt>
      <trkpt lat="45.22914" lon="6.30403">
        <ele>1212.2</ele>
        <time>2022-06-18T06:46:35Z</time>
      </trkpt>
      <trkpt lat="45.2292" lon="6.30394">
        <ele>1211</ele>
        <time>2022-06-18T06:46:36Z</time>
      </trkpt>
      <trkpt lat="45.22923" lon="6.30378">
        <ele>1209.4</ele>
        <time>2022-06-18T06:46:37Z</time>
      </trkpt>
      <trkpt lat="45.22926" lon="6.30361">
        <ele>1208</ele>
        <time>2022-06-18T06:46:38Z</time>
      </trkpt>
      <trkpt lat="45.22928" lon="6.30343">
        <ele>1206.7</ele>
        <time>2022-06-18T06:46:39Z</time>
      </trkpt>
      <trkpt lat="45.22931" lon="6.30329">
        <ele>1205.7</ele>
        <time>2022-06-18T06:46:40Z</time>
      </trkpt>
      <trkpt lat="45.22938" lon="6.3032">
        <ele>1204.7</ele>
        <time>2022-06-18T06:46:41Z</time>
      </trkpt>
      <trkpt lat="45.22946" lon="6.30318">
        <ele>1203.7</ele>
        <time>2022-06-18T06:46:42Z</time>
      </trkpt>
      <trkpt lat="45.22953" lon="6.30326">
        <ele>1202.2</ele>
        <time>2022-06-18T06:46:43Z</time>
      </trkpt>
      <trkpt lat="45.22959" lon="6.30339">
        <ele>1200.3</ele>
        <time>2022-06-18T06:46:44Z</time>
      </trkpt>
      <trkpt lat="45.22962" lon="6.30357">
        <ele>1198.1</ele>
        <time>2022-06-18T06:46:45Z</time>
      </trkpt>
      <trkpt lat="45.22963" lon="6.30375">
        <ele>1195.8</ele>
        <time>2022-06-18T06:46:46Z</time>
      </trkpt>
      <trkpt lat="45.22963" lon="6.30393">
        <ele>1193.9</ele>
        <time>2022-06-18T06:46:47Z</time>
      </trkpt>
      <trkpt lat="45.22965" lon="6.30409">
        <ele>1192.4</ele>
        <time>2022-06-18T06:46:48Z</time>
      </trkpt>
      <trkpt lat="45.22968" lon="6.30424">
        <ele>1191.1</ele>
        <time>2022-06-18T06:46:49Z</time>
      </trkpt>
      <trkpt lat="45.22973" lon="6.30437">
        <ele>1189.8</ele>
        <time>2022-06-18T06:46:50Z</time>
      </trkpt>
      <trkpt lat="45.2298" lon="6.30448">
        <ele>1188.6</ele>
        <time>2022-06-18T06:46:51Z</time>
      </trkpt>
      <trkpt lat="45.22989" lon="6.30456">
        <ele>1187.3</ele>
        <time>2022-06-18T06:46:52Z</time>
      </trkpt>
      <trkpt lat="45.23" lon="6.30463">
        <ele>1185.9</ele>
        <time>2022-06-18T06:46:53Z</time>
      </trkpt>
      <trkpt lat="45.23012" lon="6.30468">
        <ele>1184.5</ele>
        <time>2022-06-18T06:46:54Z</time>
      </trkpt>
      <trkpt lat="45.23026" lon="6.30473">
        <ele>1183.1</ele>
        <time>2022-06-18T06:46:55Z</time>
      </trkpt>
      <trkpt lat="45.23039" lon="6.30477">
        <ele>1181.7</ele>
        <time>2022-06-18T06:46:56Z</time>
      </trkpt>
      <trkpt lat="45.23052" lon="6.3048">
        <ele>1180.4</ele>
        <time>2022-06-18T06:46:57Z</time>
      </trkpt>
      <trkpt lat="45.23066" lon="6.30481">
        <ele>1178.9</ele>
        <time>2022-06-18T06:46:58Z</time>
      </trkpt>
      <trkpt lat="45.23079" lon="6.30479">
        <ele>1177.5</ele>
        <time>2022-06-18T06:46:59Z</time>
      </trkpt>
      <trkpt lat="45.23091" lon="6.30474">
        <ele>1176.1</ele>
        <time>2022-06-18T06:47:00Z</time>
      </trkpt>
      <trkpt lat="45.23102" lon="6.30466">
        <ele>1174.8</ele>
        <time>2022-06-18T06:47:01Z</time>
      </trkpt>
      <trkpt lat="45.23112" lon="6.30454">
        <ele>1172.8</ele>
        <time>2022-06-18T06:47:02Z</time>
      </trkpt>
      <trkpt lat="45.2312" lon="6.30443">
        <ele>1171.8</ele>
        <time>2022-06-18T06:47:03Z</time>
      </trkpt>
      <trkpt lat="45.23129" lon="6.30435">
        <ele>1170.9</ele>
        <time>2022-06-18T06:47:04Z</time>
      </trkpt>
      <trkpt lat="45.23139" lon="6.30432">
        <ele>1169.8</ele>
        <time>2022-06-18T06:47:05Z</time>
      </trkpt>
      <trkpt lat="45.2315" lon="6.30437">
        <ele>1166.5</ele>
        <time>2022-06-18T06:47:06Z</time>
      </trkpt>
      <trkpt lat="45.2316" lon="6.30446">
        <ele>1162.8</ele>
        <time>2022-06-18T06:47:07Z</time>
      </trkpt>
      <trkpt lat="45.23171" lon="6.30454">
        <ele>1159</ele>
        <time>2022-06-18T06:47:08Z</time>
      </trkpt>
      <trkpt lat="45.23183" lon="6.30461">
        <ele>1155.4</ele>
        <time>2022-06-18T06:47:09Z</time>
      </trkpt>
      <trkpt lat="45.23196" lon="6.30464">
        <ele>1152.6</ele>
        <time>2022-06-18T06:47:10Z</time>
      </trkpt>
      <trkpt lat="45.2321" lon="6.30465">
        <ele>1150.3</ele>
        <time>2022-06-18T06:47:11Z</time>
      </trkpt>
      <trkpt lat="45.23223" lon="6.30466">
        <ele>1148.1</ele>
        <time>2022-06-18T06:47:12Z</time>
      </trkpt>
      <trkpt lat="45.23237" lon="6.30468">
        <ele>1145.9</ele>
        <time>2022-06-18T06:47:13Z</time>
      </trkpt>
      <trkpt lat="45.23251" lon="6.30472">
        <ele>1143.8</ele>
        <time>2022-06-18T06:47:14Z</time>
      </trkpt>
      <trkpt lat="45.23265" lon="6.30477">
        <ele>1141.7</ele>
        <time>2022-06-18T06:47:15Z</time>
      </trkpt>
      <trkpt lat="45.23278" lon="6.30483">
        <ele>1139.7</ele>
        <time>2022-06-18T06:47:16Z</time>
      </trkpt>
      <trkpt lat="45.23291" lon="6.30488">
        <ele>1138.5</ele>
        <time>2022-06-18T06:47:17Z</time>
      </trkpt>
      <trkpt lat="45.23304" lon="6.30492">
        <ele>1137.8</ele>
        <time>2022-06-18T06:47:18Z</time>
      </trkpt>
      <trkpt lat="45.23315" lon="6.30494">
        <ele>1137.2</ele>
        <time>2022-06-18T06:47:19Z</time>
      </trkpt>
      <trkpt lat="45.23323" lon="6.30493">
        <ele>1136.8</ele>
        <time>2022-06-18T06:47:20Z</time>
      </trkpt>
      <trkpt lat="45.23329" lon="6.30492">
        <ele>1136.6</ele>
        <time>2022-06-18T06:47:21Z</time>
      </trkpt>
      <trkpt lat="45.23332" lon="6.30493">
        <ele>1136.5</ele>
        <time>2022-06-18T06:47:22Z</time>
      </trkpt>
      <trkpt lat="45.23333" lon="6.30497">
        <ele>1136.4</ele>
        <time>2022-06-18T06:47:23Z</time>
      </trkpt>
      <trkpt lat="45.23329" lon="6.30506">
        <ele>1136.2</ele>
        <time>2022-06-18T06:47:24Z</time>
      </trkpt>
      <trkpt lat="45.23321" lon="6.30513">
        <ele>1134.1</ele>
        <time>2022-06-18T06:47:25Z</time>
      </trkpt>
      <trkpt lat="45.2331" lon="6.30516">
        <ele>1132.5</ele>
        <time>2022-06-18T06:47:26Z</time>
      </trkpt>
      <trkpt lat="45.233" lon="6.30514">
        <ele>1131</ele>
        <time>2022-06-18T06:47:27Z</time>
      </trkpt>
      <trkpt lat="45.2329" lon="6.3051">
        <ele>1129.7</ele>
        <time>2022-06-18T06:47:28Z</time>
      </trkpt>
      <trkpt lat="45.2328" lon="6.30507">
        <ele>1128.5</ele>
        <time>2022-06-18T06:47:29Z</time>
      </trkpt>
      <trkpt lat="45.2327" lon="6.30506">
        <ele>1127.3</ele>
        <time>2022-06-18T06:47:30Z</time>
      </trkpt>
      <trkpt lat="45.2326" lon="6.30505">
        <ele>1126.1</ele>
        <time>2022-06-18T06:47:31Z</time>
      </trkpt>
      <trkpt lat="45.2325" lon="6.30507">
        <ele>1125.2</ele>
        <time>2022-06-18T06:47:32Z</time>
      </trkpt>
      <trkpt lat="45.23239" lon="6.30508">
        <ele>1125.9</ele>
        <time>2022-06-18T06:47:33Z</time>
      </trkpt>
      <trkpt lat="45.23228" lon="6.3051">
        <ele>1126.6</ele>
        <time>2022-06-18T06:47:34Z</time>
      </trkpt>
      <trkpt lat="45.23217" lon="6.30513">
        <ele>1127.3</ele>
        <time>2022-06-18T06:47:35Z</time>
      </trkpt>
      <trkpt lat="45.23206" lon="6.30517">
        <ele>1127.8</ele>
        <time>2022-06-18T06:47:36Z</time>
      </trkpt>
      <trkpt lat="45.23194" lon="6.30523">
        <ele>1127.3</ele>
        <time>2022-06-18T06:47:37Z</time>
      </trkpt>
      <trkpt lat="45.23183" lon="6.3053">
        <ele>1126.7</ele>
        <time>2022-06-18T06:47:38Z</time>
      </trkpt>
      <trkpt lat="45.23172" lon="6.30538">
        <ele>1126.1</ele>
        <time>2022-06-18T06:47:39Z</time>
      </trkpt>
      <trkpt lat="45.23162" lon="6.30545">
        <ele>1125.5</ele>
        <time>2022-06-18T06:47:40Z</time>
      </trkpt>
      <trkpt lat="45.23151" lon="6.30548">
        <ele>1124.9</ele>
        <time>2022-06-18T06:47:41Z</time>
      </trkpt>
      <trkpt lat="45.23141" lon="6.30549">
        <ele>1123.6</ele>
        <time>2022-06-18T06:47:42Z</time>
      </trkpt>
      <trkpt lat="45.23131" lon="6.30549">
        <ele>1121.9</ele>
        <time>2022-06-18T06:47:43Z</time>
      </trkpt>
      <trkpt lat="45.23123" lon="6.30551">
        <ele>1120.5</ele>
        <time>2022-06-18T06:47:44Z</time>
      </trkpt>
      <trkpt lat="45.23116" lon="6.30557">
        <ele>1119.1</ele>
        <time>2022-06-18T06:47:45Z</time>
      </trkpt>
      <trkpt lat="45.23111" lon="6.30569">
        <ele>1117.4</ele>
        <time>2022-06-18T06:47:46Z</time>
      </trkpt>
      <trkpt lat="45.23106" lon="6.30583">
        <ele>1115.5</ele>
        <time>2022-06-18T06:47:47Z</time>
      </trkpt>
      <trkpt lat="45.231" lon="6.30597">
        <ele>1113.6</ele>
        <time>2022-06-18T06:47:48Z</time>
      </trkpt>
      <trkpt lat="45.23091" lon="6.30607">
        <ele>1111.8</ele>
        <time>2022-06-18T06:47:49Z</time>
      </trkpt>
      <trkpt lat="45.2308" lon="6.30613">
        <ele>1110</ele>
        <time>2022-06-18T06:47:50Z</time>
      </trkpt>
      <trkpt lat="45.23068" lon="6.30618">
        <ele>1108.2</ele>
        <time>2022-06-18T06:47:51Z</time>
      </trkpt>
      <trkpt lat="45.23057" lon="6.30622">
        <ele>1106.6</ele>
        <time>2022-06-18T06:47:52Z</time>
      </trkpt>
      <trkpt lat="45.23046" lon="6.30623">
        <ele>1105</ele>
        <time>2022-06-18T06:47:53Z</time>
      </trkpt>
      <trkpt lat="45.23036" lon="6.30621">
        <ele>1103.6</ele>
        <time>2022-06-18T06:47:54Z</time>
      </trkpt>
      <trkpt lat="45.23028" lon="6.30614">
        <ele>1103.1</ele>
        <time>2022-06-18T06:47:55Z</time>
      </trkpt>
      <trkpt lat="45.2302" lon="6.30603">
        <ele>1104.2</ele>
        <time>2022-06-18T06:47:56Z</time>
      </trkpt>
      <trkpt lat="45.23013" lon="6.3059">
        <ele>1104.3</ele>
        <time>2022-06-18T06:47:57Z</time>
      </trkpt>
      <trkpt lat="45.23005" lon="6.30576">
        <ele>1104.2</ele>
        <time>2022-06-18T06:47:58Z</time>
      </trkpt>
      <trkpt lat="45.22998" lon="6.30563">
        <ele>1104.3</ele>
        <time>2022-06-18T06:47:59Z</time>
      </trkpt>
      <trkpt lat="45.2299" lon="6.30553">
        <ele>1104.4</ele>
        <time>2022-06-18T06:48:00Z</time>
      </trkpt>
      <trkpt lat="45.22982" lon="6.30547">
        <ele>1104.5</ele>
        <time>2022-06-18T06:48:01Z</time>
      </trkpt>
      <trkpt lat="45.22973" lon="6.30547">
        <ele>1104.5</ele>
        <time>2022-06-18T06:48:02Z</time>
      </trkpt>
      <trkpt lat="45.22965" lon="6.30554">
        <ele>1104.3</ele>
        <time>2022-06-18T06:48:03Z</time>
      </trkpt>
      <trkpt lat="45.22959" lon="6.30566">
        <ele>1103.8</ele>
        <time>2022-06-18T06:48:04Z</time>
      </trkpt>
      <trkpt lat="45.22957" lon="6.30582">
        <ele>1103.1</ele>
        <time>2022-06-18T06:48:05Z</time>
      </trkpt>
      <trkpt lat="45.22956" lon="6.306">
        <ele>1102.2</ele>
        <time>2022-06-18T06:48:06Z</time>
      </trkpt>
      <trkpt lat="45.22957" lon="6.3062">
        <ele>1101.4</ele>
        <time>2022-06-18T06:48:07Z</time>
      </trkpt>
      <trkpt lat="45.22958" lon="6.3064">
        <ele>1100.7</ele>
        <time>2022-06-18T06:48:08Z</time>
      </trkpt>
      <trkpt lat="45.22957" lon="6.30658">
        <ele>1100.1</ele>
        <time>2022-06-18T06:48:09Z</time>
      </trkpt>
      <trkpt lat="45.22954" lon="6.3067">
        <ele>1099.6</ele>
        <time>2022-06-18T06:48:10Z</time>
      </trkpt>
      <trkpt lat="45.22945" lon="6.30672">
        <ele>1099</ele>
        <time>2022-06-18T06:48:11Z</time>
      </trkpt>
      <trkpt lat="45.22932" lon="6.30664">
        <ele>1097.9</ele>
        <time>2022-06-18T06:48:12Z</time>
      </trkpt>
      <trkpt lat="45.22918" lon="6.30654">
        <ele>1096.7</ele>
        <time>2022-06-18T06:48:13Z</time>
      </trkpt>
      <trkpt lat="45.22904" lon="6.30644">
        <ele>1096</ele>
        <time>2022-06-18T06:48:14Z</time>
      </trkpt>
      <trkpt lat="45.2289" lon="6.30635">
        <ele>1095.7</ele>
        <time>2022-06-18T06:48:15Z</time>
      </trkpt>
      <trkpt lat="45.22878" lon="6.30626">
        <ele>1095.5</ele>
        <time>2022-06-18T06:48:16Z</time>
      </trkpt>
      <trkpt lat="45.22868" lon="6.30619">
        <ele>1095.4</ele>
        <time>2022-06-18T06:48:17Z</time>
      </trkpt>
      <trkpt lat="45.22859" lon="6.30614">
        <ele>1095.1</ele>
        <time>2022-06-18T06:48:18Z</time>
      </trkpt>
      <trkpt lat="45.22851" lon="6.30613">
        <ele>1094.6</ele>
        <time>2022-06-18T06:48:19Z</time>
      </trkpt>
      <trkpt lat="45.22845" lon="6.30619">
        <ele>1094</ele>
        <time>2022-06-18T06:48:20Z</time>
      </trkpt>
      <trkpt lat="45.2284" lon="6.3063">
        <ele>1093.2</ele>
        <time>2022-06-18T06:48:21Z</time>
      </trkpt>
      <trkpt lat="45.2284" lon="6.30645">
        <ele>1092.1</ele>
        <time>2022-06-18T06:48:22Z</time>
      </trkpt>
      <trkpt lat="45.22844" lon="6.30662">
        <ele>1090.9</ele>
        <time>2022-06-18T06:48:23Z</time>
      </trkpt>
      <trkpt lat="45.22848" lon="6.3068">
        <ele>1089.9</ele>
        <time>2022-06-18T06:48:24Z</time>
      </trkpt>
      <trkpt lat="45.22854" lon="6.30696">
        <ele>1088.9</ele>
        <time>2022-06-18T06:48:25Z</time>
      </trkpt>
      <trkpt lat="45.22862" lon="6.30711">
        <ele>1087.1</ele>
        <time>2022-06-18T06:48:26Z</time>
      </trkpt>
      <trkpt lat="45.2287" lon="6.30724">
        <ele>1085.4</ele>
        <time>2022-06-18T06:48:27Z</time>
      </trkpt>
      <trkpt lat="45.22878" lon="6.30734">
        <ele>1083.5</ele>
        <time>2022-06-18T06:48:28Z</time>
      </trkpt>
      <trkpt lat="45.22883" lon="6.30744">
        <ele>1081.8</ele>
        <time>2022-06-18T06:48:29Z</time>
      </trkpt>
      <trkpt lat="45.22883" lon="6.30753">
        <ele>1080.2</ele>
        <time>2022-06-18T06:48:30Z</time>
      </trkpt>
      <trkpt lat="45.22878" lon="6.30761">
        <ele>1078.3</ele>
        <time>2022-06-18T06:48:31Z</time>
      </trkpt>
      <trkpt lat="45.22869" lon="6.30768">
        <ele>1075.6</ele>
        <time>2022-06-18T06:48:32Z</time>
      </trkpt>
      <trkpt lat="45.22857" lon="6.30773">
        <ele>1072.6</ele>
        <time>2022-06-18T06:48:33Z</time>
      </trkpt>
      <trkpt lat="45.22846" lon="6.30779">
        <ele>1069.7</ele>
        <time>2022-06-18T06:48:34Z</time>
      </trkpt>
      <trkpt lat="45.22834" lon="6.30786">
        <ele>1067</ele>
        <time>2022-06-18T06:48:35Z</time>
      </trkpt>
      <trkpt lat="45.22822" lon="6.30794">
        <ele>1064.4</ele>
        <time>2022-06-18T06:48:36Z</time>
      </trkpt>
      <trkpt lat="45.22811" lon="6.30802">
        <ele>1062</ele>
        <time>2022-06-18T06:48:37Z</time>
      </trkpt>
      <trkpt lat="45.22799" lon="6.30811">
        <ele>1059.6</ele>
        <time>2022-06-18T06:48:38Z</time>
      </trkpt>
      <trkpt lat="45.22788" lon="6.3082">
        <ele>1057.4</ele>
        <time>2022-06-18T06:48:39Z</time>
      </trkpt>
      <trkpt lat="45.22777" lon="6.3083">
        <ele>1055.2</ele>
        <time>2022-06-18T06:48:40Z</time>
      </trkpt>
      <trkpt lat="45.22767" lon="6.30838">
        <ele>1053.2</ele>
        <time>2022-06-18T06:48:41Z</time>
      </trkpt>
      <trkpt lat="45.22757" lon="6.30842">
        <ele>1051.1</ele>
        <time>2022-06-18T06:48:42Z</time>
      </trkpt>
      <trkpt lat="45.22748" lon="6.30842">
        <ele>1049.2</ele>
        <time>2022-06-18T06:48:43Z</time>
      </trkpt>
      <trkpt lat="45.22738" lon="6.30839">
        <ele>1047.1</ele>
        <time>2022-06-18T06:48:44Z</time>
      </trkpt>
      <trkpt lat="45.22729" lon="6.30833">
        <ele>1045.1</ele>
        <time>2022-06-18T06:48:45Z</time>
      </trkpt>
      <trkpt lat="45.2272" lon="6.30829">
        <ele>1043</ele>
        <time>2022-06-18T06:48:46Z</time>
      </trkpt>
      <trkpt lat="45.2271" lon="6.30827">
        <ele>1041</ele>
        <time>2022-06-18T06:48:47Z</time>
      </trkpt>
      <trkpt lat="45.227" lon="6.3083">
        <ele>1039.1</ele>
        <time>2022-06-18T06:48:48Z</time>
      </trkpt>
      <trkpt lat="45.22691" lon="6.30838">
        <ele>1036.9</ele>
        <time>2022-06-18T06:48:49Z</time>
      </trkpt>
      <trkpt lat="45.22683" lon="6.3085">
        <ele>1034.5</ele>
        <time>2022-06-18T06:48:50Z</time>
      </trkpt>
      <trkpt lat="45.22675" lon="6.30865">
        <ele>1031.8</ele>
        <time>2022-06-18T06:48:51Z</time>
      </trkpt>
      <trkpt lat="45.22666" lon="6.30882">
        <ele>1029.2</ele>
        <time>2022-06-18T06:48:52Z</time>
      </trkpt>
      <trkpt lat="45.22658" lon="6.30896">
        <ele>1026.8</ele>
        <time>2022-06-18T06:48:53Z</time>
      </trkpt>
      <trkpt lat="45.22648" lon="6.30908">
        <ele>1024.6</ele>
        <time>2022-06-18T06:48:54Z</time>
      </trkpt>
      <trkpt lat="45.22638" lon="6.30919">
        <ele>1022.5</ele>
        <time>2022-06-18T06:48:55Z</time>
      </trkpt>
      <trkpt lat="45.22628" lon="6.30931">
        <ele>1020.5</ele>
        <time>2022-06-18T06:48:56Z</time>
      </trkpt>
      <trkpt lat="45.22617" lon="6.30945">
        <ele>1018.4</ele>
        <time>2022-06-18T06:48:57Z</time>
      </trkpt>
      <trkpt lat="45.22608" lon="6.30958">
        <ele>1016.4</ele>
        <time>2022-06-18T06:48:58Z</time>
      </trkpt>
      <trkpt lat="45.22598" lon="6.30969">
        <ele>1016.4</ele>
        <time>2022-06-18T06:48:59Z</time>
      </trkpt>
      <trkpt lat="45.22589" lon="6.30977">
        <ele>1017.1</ele>
        <time>2022-06-18T06:49:00Z</time>
      </trkpt>
      <trkpt lat="45.2258" lon="6.30979">
        <ele>1017.7</ele>
        <time>2022-06-18T06:49:01Z</time>
      </trkpt>
      <trkpt lat="45.2257" lon="6.30975">
        <ele>1018.3</ele>
        <time>2022-06-18T06:49:02Z</time>
      </trkpt>
      <trkpt lat="45.2256" lon="6.30967">
        <ele>1018.8</ele>
        <time>2022-06-18T06:49:03Z</time>
      </trkpt>
      <trkpt lat="45.22551" lon="6.30958">
        <ele>1019.4</ele>
        <time>2022-06-18T06:49:04Z</time>
      </trkpt>
      <trkpt lat="45.22541" lon="6.30947">
        <ele>1020.1</ele>
        <time>2022-06-18T06:49:05Z</time>
      </trkpt>
      <trkpt lat="45.22532" lon="6.30937">
        <ele>1020.9</ele>
        <time>2022-06-18T06:49:06Z</time>
      </trkpt>
      <trkpt lat="45.22521" lon="6.30928">
        <ele>1021.5</ele>
        <time>2022-06-18T06:49:07Z</time>
      </trkpt>
      <trkpt lat="45.22511" lon="6.3092">
        <ele>1021.2</ele>
        <time>2022-06-18T06:49:08Z</time>
      </trkpt>
      <trkpt lat="45.225" lon="6.3091">
        <ele>1019.4</ele>
        <time>2022-06-18T06:49:09Z</time>
      </trkpt>
      <trkpt lat="45.22491" lon="6.30898">
        <ele>1017.7</ele>
        <time>2022-06-18T06:49:10Z</time>
      </trkpt>
      <trkpt lat="45.22481" lon="6.30886">
        <ele>1015.9</ele>
        <time>2022-06-18T06:49:11Z</time>
      </trkpt>
      <trkpt lat="45.22471" lon="6.30874">
        <ele>1014.1</ele>
        <time>2022-06-18T06:49:12Z</time>
      </trkpt>
      <trkpt lat="45.22461" lon="6.30862">
        <ele>1012.4</ele>
        <time>2022-06-18T06:49:13Z</time>
      </trkpt>
      <trkpt lat="45.2245" lon="6.30853">
        <ele>1010.6</ele>
        <time>2022-06-18T06:49:14Z</time>
      </trkpt>
      <trkpt lat="45.22438" lon="6.30845">
        <ele>1008.7</ele>
        <time>2022-06-18T06:49:15Z</time>
      </trkpt>
      <trkpt lat="45.22425" lon="6.30838">
        <ele>1006.9</ele>
        <time>2022-06-18T06:49:16Z</time>
      </trkpt>
      <trkpt lat="45.22413" lon="6.30831">
        <ele>1005.1</ele>
        <time>2022-06-18T06:49:17Z</time>
      </trkpt>
      <trkpt lat="45.22399" lon="6.30825">
        <ele>1003.3</ele>
        <time>2022-06-18T06:49:18Z</time>
      </trkpt>
      <trkpt lat="45.22385" lon="6.30821">
        <ele>1001.5</ele>
        <time>2022-06-18T06:49:19Z</time>
      </trkpt>
      <trkpt lat="45.22371" lon="6.30819">
        <ele>1001.3</ele>
        <time>2022-06-18T06:49:20Z</time>
      </trkpt>
      <trkpt lat="45.22356" lon="6.3082">
        <ele>1001.3</ele>
        <time>2022-06-18T06:49:21Z</time>
      </trkpt>
      <trkpt lat="45.22343" lon="6.3082">
        <ele>1001.2</ele>
        <time>2022-06-18T06:49:22Z</time>
      </trkpt>
      <trkpt lat="45.22332" lon="6.30821">
        <ele>1001.1</ele>
        <time>2022-06-18T06:49:23Z</time>
      </trkpt>
      <trkpt lat="45.22323" lon="6.30821">
        <ele>1000.9</ele>
        <time>2022-06-18T06:49:24Z</time>
      </trkpt>
      <trkpt lat="45.22317" lon="6.30823">
        <ele>1000.6</ele>
        <time>2022-06-18T06:49:25Z</time>
      </trkpt>
      <trkpt lat="45.22314" lon="6.3083">
        <ele>1000.4</ele>
        <time>2022-06-18T06:49:26Z</time>
      </trkpt>
      <trkpt lat="45.22315" lon="6.3084">
        <ele>1000</ele>
        <time>2022-06-18T06:49:27Z</time>
      </trkpt>
      <trkpt lat="45.22321" lon="6.30848">
        <ele>999.5</ele>
        <time>2022-06-18T06:49:28Z</time>
      </trkpt>
      <trkpt lat="45.22329" lon="6.30854">
        <ele>999.1</ele>
        <time>2022-06-18T06:49:29Z</time>
      </trkpt>
      <trkpt lat="45.2234" lon="6.30856">
        <ele>998.6</ele>
        <time>2022-06-18T06:49:30Z</time>
      </trkpt>
      <trkpt lat="45.22352" lon="6.30856">
        <ele>998.1</ele>
        <time>2022-06-18T06:49:31Z</time>
      </trkpt>
      <trkpt lat="45.22364" lon="6.30854">
        <ele>997.7</ele>
        <time>2022-06-18T06:49:32Z</time>
      </trkpt>
      <trkpt lat="45.22375" lon="6.30853">
        <ele>997.3</ele>
        <time>2022-06-18T06:49:33Z</time>
      </trkpt>
      <trkpt lat="45.22385" lon="6.30854">
        <ele>996.9</ele>
        <time>2022-06-18T06:49:34Z</time>
      </trkpt>
      <trkpt lat="45.22394" lon="6.30855">
        <ele>996.5</ele>
        <time>2022-06-18T06:49:35Z</time>
      </trkpt>
      <trkpt lat="45.22404" lon="6.30857">
        <ele>996.2</ele>
        <time>2022-06-18T06:49:36Z</time>
      </trkpt>
      <trkpt lat="45.22413" lon="6.30863">
        <ele>995.8</ele>
        <time>2022-06-18T06:49:37Z</time>
      </trkpt>
      <trkpt lat="45.22421" lon="6.30871">
        <ele>995.4</ele>
        <time>2022-06-18T06:49:38Z</time>
      </trkpt>
      <trkpt lat="45.22428" lon="6.30881">
        <ele>995.1</ele>
        <time>2022-06-18T06:49:39Z</time>
      </trkpt>
      <trkpt lat="45.22435" lon="6.30893">
        <ele>994.7</ele>
        <time>2022-06-18T06:49:40Z</time>
      </trkpt>
      <trkpt lat="45.22443" lon="6.30905">
        <ele>994.4</ele>
        <time>2022-06-18T06:49:41Z</time>
      </trkpt>
      <trkpt lat="45.2245" lon="6.30917">
        <ele>994.1</ele>
        <time>2022-06-18T06:49:42Z</time>
      </trkpt>
      <trkpt lat="45.22458" lon="6.3093">
        <ele>993.8</ele>
        <time>2022-06-18T06:49:43Z</time>
      </trkpt>
      <trkpt lat="45.22464" lon="6.30943">
        <ele>993.1</ele>
        <time>2022-06-18T06:49:44Z</time>
      </trkpt>
      <trkpt lat="45.22471" lon="6.30956">
        <ele>991.2</ele>
        <time>2022-06-18T06:49:45Z</time>
      </trkpt>
      <trkpt lat="45.22475" lon="6.30971">
        <ele>989.3</ele>
        <time>2022-06-18T06:49:46Z</time>
      </trkpt>
      <trkpt lat="45.22479" lon="6.30986">
        <ele>987.3</ele>
        <time>2022-06-18T06:49:47Z</time>
      </trkpt>
      <trkpt lat="45.22483" lon="6.31002">
        <ele>985.3</ele>
        <time>2022-06-18T06:49:48Z</time>
      </trkpt>
      <trkpt lat="45.22487" lon="6.31016">
        <ele>983.4</ele>
        <time>2022-06-18T06:49:49Z</time>
      </trkpt>
      <trkpt lat="45.22494" lon="6.31027">
        <ele>981.5</ele>
        <time>2022-06-18T06:49:50Z</time>
      </trkpt>
      <trkpt lat="45.22504" lon="6.31035">
        <ele>979.5</ele>
        <time>2022-06-18T06:49:51Z</time>
      </trkpt>
      <trkpt lat="45.22516" lon="6.31039">
        <ele>977.3</ele>
        <time>2022-06-18T06:49:52Z</time>
      </trkpt>
      <trkpt lat="45.22528" lon="6.31043">
        <ele>975.1</ele>
        <time>2022-06-18T06:49:53Z</time>
      </trkpt>
      <trkpt lat="45.2254" lon="6.31048">
        <ele>974.5</ele>
        <time>2022-06-18T06:49:54Z</time>
      </trkpt>
      <trkpt lat="45.22552" lon="6.31057">
        <ele>975.7</ele>
        <time>2022-06-18T06:49:55Z</time>
      </trkpt>
      <trkpt lat="45.22563" lon="6.31067">
        <ele>976.9</ele>
        <time>2022-06-18T06:49:56Z</time>
      </trkpt>
      <trkpt lat="45.22573" lon="6.31077">
        <ele>978.2</ele>
        <time>2022-06-18T06:49:57Z</time>
      </trkpt>
      <trkpt lat="45.22582" lon="6.31086">
        <ele>979.1</ele>
        <time>2022-06-18T06:49:58Z</time>
      </trkpt>
      <trkpt lat="45.22592" lon="6.3109">
        <ele>979.8</ele>
        <time>2022-06-18T06:49:59Z</time>
      </trkpt>
      <trkpt lat="45.22601" lon="6.31089">
        <ele>980.2</ele>
        <time>2022-06-18T06:50:00Z</time>
      </trkpt>
      <trkpt lat="45.2261" lon="6.31082">
        <ele>980.5</ele>
        <time>2022-06-18T06:50:01Z</time>
      </trkpt>
      <trkpt lat="45.22619" lon="6.31071">
        <ele>980.8</ele>
        <time>2022-06-18T06:50:02Z</time>
      </trkpt>
      <trkpt lat="45.22629" lon="6.31059">
        <ele>981.2</ele>
        <time>2022-06-18T06:50:03Z</time>
      </trkpt>
      <trkpt lat="45.22639" lon="6.31048">
        <ele>981.7</ele>
        <time>2022-06-18T06:50:04Z</time>
      </trkpt>
      <trkpt lat="45.22649" lon="6.3104">
        <ele>982.2</ele>
        <time>2022-06-18T06:50:05Z</time>
      </trkpt>
      <trkpt lat="45.22658" lon="6.31033">
        <ele>982.7</ele>
        <time>2022-06-18T06:50:06Z</time>
      </trkpt>
      <trkpt lat="45.22668" lon="6.31022">
        <ele>983.3</ele>
        <time>2022-06-18T06:50:07Z</time>
      </trkpt>
      <trkpt lat="45.22677" lon="6.3101">
        <ele>984</ele>
        <time>2022-06-18T06:50:08Z</time>
      </trkpt>
      <trkpt lat="45.22688" lon="6.30998">
        <ele>984.7</ele>
        <time>2022-06-18T06:50:09Z</time>
      </trkpt>
      <trkpt lat="45.22698" lon="6.30988">
        <ele>985.4</ele>
        <time>2022-06-18T06:50:10Z</time>
      </trkpt>
      <trkpt lat="45.22708" lon="6.30979">
        <ele>986</ele>
        <time>2022-06-18T06:50:11Z</time>
      </trkpt>
      <trkpt lat="45.22717" lon="6.3097">
        <ele>986.5</ele>
        <time>2022-06-18T06:50:12Z</time>
      </trkpt>
      <trkpt lat="45.22725" lon="6.30964">
        <ele>986.9</ele>
        <time>2022-06-18T06:50:13Z</time>
      </trkpt>
      <trkpt lat="45.22734" lon="6.30961">
        <ele>984</ele>
        <time>2022-06-18T06:50:14Z</time>
      </trkpt>
      <trkpt lat="45.22744" lon="6.30962">
        <ele>980.5</ele>
        <time>2022-06-18T06:50:15Z</time>
      </trkpt>
      <trkpt lat="45.22756" lon="6.30967">
        <ele>976.2</ele>
        <time>2022-06-18T06:50:16Z</time>
      </trkpt>
      <trkpt lat="45.22768" lon="6.30974">
        <ele>971.5</ele>
        <time>2022-06-18T06:50:17Z</time>
      </trkpt>
      <trkpt lat="45.22781" lon="6.3098">
        <ele>967</ele>
        <time>2022-06-18T06:50:18Z</time>
      </trkpt>
      <trkpt lat="45.22792" lon="6.30986">
        <ele>962.7</ele>
        <time>2022-06-18T06:50:19Z</time>
      </trkpt>
      <trkpt lat="45.22803" lon="6.30992">
        <ele>962.2</ele>
        <time>2022-06-18T06:50:20Z</time>
      </trkpt>
      <trkpt lat="45.22812" lon="6.30999">
        <ele>962.7</ele>
        <time>2022-06-18T06:50:21Z</time>
      </trkpt>
      <trkpt lat="45.22818" lon="6.31008">
        <ele>963.3</ele>
        <time>2022-06-18T06:50:22Z</time>
      </trkpt>
      <trkpt lat="45.22822" lon="6.31019">
        <ele>963.8</ele>
        <time>2022-06-18T06:50:23Z</time>
      </trkpt>
      <trkpt lat="45.22827" lon="6.31029">
        <ele>964.4</ele>
        <time>2022-06-18T06:50:24Z</time>
      </trkpt>
      <trkpt lat="45.22831" lon="6.31038">
        <ele>965</ele>
        <time>2022-06-18T06:50:25Z</time>
      </trkpt>
      <trkpt lat="45.22834" lon="6.31046">
        <ele>965.4</ele>
        <time>2022-06-18T06:50:26Z</time>
      </trkpt>
      <trkpt lat="45.22838" lon="6.31053">
        <ele>965.8</ele>
        <time>2022-06-18T06:50:27Z</time>
      </trkpt>
      <trkpt lat="45.22841" lon="6.31058">
        <ele>966</ele>
        <time>2022-06-18T06:50:28Z</time>
      </trkpt>
      <trkpt lat="45.22843" lon="6.3106">
        <ele>966.1</ele>
        <time>2022-06-18T06:50:29Z</time>
      </trkpt>
      <trkpt lat="45.22847" lon="6.31061">
        <ele>966.2</ele>
        <time>2022-06-18T06:50:30Z</time>
      </trkpt>
      <trkpt lat="45.22851" lon="6.31059">
        <ele>966.2</ele>
        <time>2022-06-18T06:50:31Z</time>
      </trkpt>
      <trkpt lat="45.22856" lon="6.31056">
        <ele>966.3</ele>
        <time>2022-06-18T06:50:32Z</time>
      </trkpt>
      <trkpt lat="45.22862" lon="6.3105">
        <ele>966.2</ele>
        <time>2022-06-18T06:50:33Z</time>
      </trkpt>
      <trkpt lat="45.22869" lon="6.31044">
        <ele>966.1</ele>
        <time>2022-06-18T06:50:34Z</time>
      </trkpt>
      <trkpt lat="45.22877" lon="6.31038">
        <ele>966.1</ele>
        <time>2022-06-18T06:50:35Z</time>
      </trkpt>
      <trkpt lat="45.22884" lon="6.31033">
        <ele>966.2</ele>
        <time>2022-06-18T06:50:36Z</time>
      </trkpt>
      <trkpt lat="45.22892" lon="6.3103">
        <ele>966.3</ele>
        <time>2022-06-18T06:50:37Z</time>
      </trkpt>
      <trkpt lat="45.229" lon="6.31029">
        <ele>966.4</ele>
        <time>2022-06-18T06:50:38Z</time>
      </trkpt>
      <trkpt lat="45.22907" lon="6.31028">
        <ele>966.6</ele>
        <time>2022-06-18T06:50:39Z</time>
      </trkpt>
      <trkpt lat="45.22913" lon="6.31026">
        <ele>966.9</ele>
        <time>2022-06-18T06:50:40Z</time>
      </trkpt>
      <trkpt lat="45.2292" lon="6.31021">
        <ele>967.3</ele>
        <time>2022-06-18T06:50:41Z</time>
      </trkpt>
      <trkpt lat="45.22925" lon="6.31013">
        <ele>967.8</ele>
        <time>2022-06-18T06:50:42Z</time>
      </trkpt>
      <trkpt lat="45.2293" lon="6.31003">
        <ele>968.3</ele>
        <time>2022-06-18T06:50:43Z</time>
      </trkpt>
      <trkpt lat="45.22936" lon="6.30993">
        <ele>968.9</ele>
        <time>2022-06-18T06:50:44Z</time>
      </trkpt>
      <trkpt lat="45.22942" lon="6.30983">
        <ele>969.4</ele>
        <time>2022-06-18T06:50:45Z</time>
      </trkpt>
      <trkpt lat="45.22948" lon="6.30976">
        <ele>969.8</ele>
        <time>2022-06-18T06:50:46Z</time>
      </trkpt>
      <trkpt lat="45.22954" lon="6.30972">
        <ele>969.8</ele>
        <time>2022-06-18T06:50:47Z</time>
      </trkpt>
      <trkpt lat="45.22963" lon="6.30975">
        <ele>969.4</ele>
        <time>2022-06-18T06:50:48Z</time>
      </trkpt>
      <trkpt lat="45.22972" lon="6.30984">
        <ele>966.9</ele>
        <time>2022-06-18T06:50:49Z</time>
      </trkpt>
      <trkpt lat="45.22981" lon="6.30998">
        <ele>963.9</ele>
        <time>2022-06-18T06:50:50Z</time>
      </trkpt>
      <trkpt lat="45.2299" lon="6.31013">
        <ele>960.9</ele>
        <time>2022-06-18T06:50:51Z</time>
      </trkpt>
      <trkpt lat="45.23" lon="6.31027">
        <ele>958.1</ele>
        <time>2022-06-18T06:50:52Z</time>
      </trkpt>
      <trkpt lat="45.2301" lon="6.31038">
        <ele>955.5</ele>
        <time>2022-06-18T06:50:53Z</time>
      </trkpt>
      <trkpt lat="45.23022" lon="6.31047">
        <ele>953.1</ele>
        <time>2022-06-18T06:50:54Z</time>
      </trkpt>
      <trkpt lat="45.23034" lon="6.31054">
        <ele>950.7</ele>
        <time>2022-06-18T06:50:55Z</time>
      </trkpt>
      <trkpt lat="45.23048" lon="6.31058">
        <ele>948.5</ele>
        <time>2022-06-18T06:50:56Z</time>
      </trkpt>
      <trkpt lat="45.2306" lon="6.3106">
        <ele>946.5</ele>
        <time>2022-06-18T06:50:57Z</time>
      </trkpt>
      <trkpt lat="45.23072" lon="6.3106">
        <ele>944.8</ele>
        <time>2022-06-18T06:50:58Z</time>
      </trkpt>
      <trkpt lat="45.23084" lon="6.31057">
        <ele>943.2</ele>
        <time>2022-06-18T06:50:59Z</time>
      </trkpt>
      <trkpt lat="45.23095" lon="6.31051">
        <ele>941.6</ele>
        <time>2022-06-18T06:51:00Z</time>
      </trkpt>
      <trkpt lat="45.23106" lon="6.31042">
        <ele>940.1</ele>
        <time>2022-06-18T06:51:01Z</time>
      </trkpt>
      <trkpt lat="45.23115" lon="6.31031">
        <ele>938.5</ele>
        <time>2022-06-18T06:51:02Z</time>
      </trkpt>
      <trkpt lat="45.23122" lon="6.31018">
        <ele>936.9</ele>
        <time>2022-06-18T06:51:03Z</time>
      </trkpt>
      <trkpt lat="45.23129" lon="6.31007">
        <ele>935.4</ele>
        <time>2022-06-18T06:51:04Z</time>
      </trkpt>
      <trkpt lat="45.23136" lon="6.31002">
        <ele>934</ele>
        <time>2022-06-18T06:51:05Z</time>
      </trkpt>
      <trkpt lat="45.23143" lon="6.31006">
        <ele>932.4</ele>
        <time>2022-06-18T06:51:06Z</time>
      </trkpt>
      <trkpt lat="45.2315" lon="6.31016">
        <ele>930.3</ele>
        <time>2022-06-18T06:51:07Z</time>
      </trkpt>
      <trkpt lat="45.23155" lon="6.31032">
        <ele>927.7</ele>
        <time>2022-06-18T06:51:08Z</time>
      </trkpt>
      <trkpt lat="45.23159" lon="6.3105">
        <ele>925</ele>
        <time>2022-06-18T06:51:09Z</time>
      </trkpt>
      <trkpt lat="45.23163" lon="6.31068">
        <ele>922.6</ele>
        <time>2022-06-18T06:51:10Z</time>
      </trkpt>
      <trkpt lat="45.23168" lon="6.31085">
        <ele>920.5</ele>
        <time>2022-06-18T06:51:11Z</time>
      </trkpt>
      <trkpt lat="45.23174" lon="6.31099">
        <ele>918.5</ele>
        <time>2022-06-18T06:51:12Z</time>
      </trkpt>
      <trkpt lat="45.23181" lon="6.3111">
        <ele>916.5</ele>
        <time>2022-06-18T06:51:13Z</time>
      </trkpt>
      <trkpt lat="45.2319" lon="6.31117">
        <ele>914.2</ele>
        <time>2022-06-18T06:51:14Z</time>
      </trkpt>
      <trkpt lat="45.23202" lon="6.31118">
        <ele>911.7</ele>
        <time>2022-06-18T06:51:15Z</time>
      </trkpt>
      <trkpt lat="45.23216" lon="6.31117">
        <ele>908.8</ele>
        <time>2022-06-18T06:51:16Z</time>
      </trkpt>
      <trkpt lat="45.23229" lon="6.31117">
        <ele>906.8</ele>
        <time>2022-06-18T06:51:17Z</time>
      </trkpt>
      <trkpt lat="45.23243" lon="6.3112">
        <ele>904.9</ele>
        <time>2022-06-18T06:51:18Z</time>
      </trkpt>
      <trkpt lat="45.23256" lon="6.31124">
        <ele>903.2</ele>
        <time>2022-06-18T06:51:19Z</time>
      </trkpt>
      <trkpt lat="45.23268" lon="6.31128">
        <ele>901.6</ele>
        <time>2022-06-18T06:51:20Z</time>
      </trkpt>
      <trkpt lat="45.23277" lon="6.31134">
        <ele>900.2</ele>
        <time>2022-06-18T06:51:21Z</time>
      </trkpt>
      <trkpt lat="45.23284" lon="6.31145">
        <ele>898.8</ele>
        <time>2022-06-18T06:51:22Z</time>
      </trkpt>
      <trkpt lat="45.2329" lon="6.31157">
        <ele>897.2</ele>
        <time>2022-06-18T06:51:23Z</time>
      </trkpt>
      <trkpt lat="45.23295" lon="6.31166">
        <ele>895.7</ele>
        <time>2022-06-18T06:51:24Z</time>
      </trkpt>
      <trkpt lat="45.23303" lon="6.31173">
        <ele>894.1</ele>
        <time>2022-06-18T06:51:25Z</time>
      </trkpt>
      <trkpt lat="45.23312" lon="6.31176">
        <ele>892.3</ele>
        <time>2022-06-18T06:51:26Z</time>
      </trkpt>
      <trkpt lat="45.23323" lon="6.31175">
        <ele>890.2</ele>
        <time>2022-06-18T06:51:27Z</time>
      </trkpt>
      <trkpt lat="45.23335" lon="6.3117">
        <ele>887.9</ele>
        <time>2022-06-18T06:51:28Z</time>
      </trkpt>
      <trkpt lat="45.23347" lon="6.31164">
        <ele>885.5</ele>
        <time>2022-06-18T06:51:29Z</time>
      </trkpt>
      <trkpt lat="45.2336" lon="6.3116">
        <ele>883.2</ele>
        <time>2022-06-18T06:51:30Z</time>
      </trkpt>
      <trkpt lat="45.23374" lon="6.31157">
        <ele>880.9</ele>
        <time>2022-06-18T06:51:31Z</time>
      </trkpt>
      <trkpt lat="45.23387" lon="6.31157">
        <ele>878.6</ele>
        <time>2022-06-18T06:51:32Z</time>
      </trkpt>
      <trkpt lat="45.234" lon="6.31159">
        <ele>876.4</ele>
        <time>2022-06-18T06:51:33Z</time>
      </trkpt>
      <trkpt lat="45.23412" lon="6.31164">
        <ele>874.1</ele>
        <time>2022-06-18T06:51:34Z</time>
      </trkpt>
      <trkpt lat="45.23424" lon="6.31172">
        <ele>871.7</ele>
        <time>2022-06-18T06:51:35Z</time>
      </trkpt>
      <trkpt lat="45.23437" lon="6.31181">
        <ele>869.2</ele>
        <time>2022-06-18T06:51:36Z</time>
      </trkpt>
      <trkpt lat="45.2345" lon="6.31191">
        <ele>866.8</ele>
        <time>2022-06-18T06:51:37Z</time>
      </trkpt>
      <trkpt lat="45.23464" lon="6.312">
        <ele>864.4</ele>
        <time>2022-06-18T06:51:38Z</time>
      </trkpt>
      <trkpt lat="45.23478" lon="6.31209">
        <ele>862.3</ele>
        <time>2022-06-18T06:51:39Z</time>
      </trkpt>
      <trkpt lat="45.2349" lon="6.31218">
        <ele>860.4</ele>
        <time>2022-06-18T06:51:40Z</time>
      </trkpt>
      <trkpt lat="45.23502" lon="6.31224">
        <ele>858.5</ele>
        <time>2022-06-18T06:51:41Z</time>
      </trkpt>
      <trkpt lat="45.23515" lon="6.31228">
        <ele>856.8</ele>
        <time>2022-06-18T06:51:42Z</time>
      </trkpt>
      <trkpt lat="45.23528" lon="6.31229">
        <ele>855</ele>
        <time>2022-06-18T06:51:43Z</time>
      </trkpt>
      <trkpt lat="45.23541" lon="6.3123">
        <ele>853.4</ele>
        <time>2022-06-18T06:51:44Z</time>
      </trkpt>
      <trkpt lat="45.23553" lon="6.31231">
        <ele>851.8</ele>
        <time>2022-06-18T06:51:45Z</time>
      </trkpt>
      <trkpt lat="45.23565" lon="6.31232">
        <ele>850.4</ele>
        <time>2022-06-18T06:51:46Z</time>
      </trkpt>
      <trkpt lat="45.23577" lon="6.31233">
        <ele>848.9</ele>
        <time>2022-06-18T06:51:47Z</time>
      </trkpt>
      <trkpt lat="45.2359" lon="6.31236">
        <ele>847.3</ele>
        <time>2022-06-18T06:51:48Z</time>
      </trkpt>
      <trkpt lat="45.23602" lon="6.31238">
        <ele>845.7</ele>
        <time>2022-06-18T06:51:49Z</time>
      </trkpt>
      <trkpt lat="45.23615" lon="6.31238">
        <ele>844</ele>
        <time>2022-06-18T06:51:50Z</time>
      </trkpt>
      <trkpt lat="45.23628" lon="6.31235">
        <ele>842.2</ele>
        <time>2022-06-18T06:51:51Z</time>
      </trkpt>
      <trkpt lat="45.2364" lon="6.31232">
        <ele>840.6</ele>
        <time>2022-06-18T06:51:52Z</time>
      </trkpt>
      <trkpt lat="45.23652" lon="6.3123">
        <ele>839</ele>
        <time>2022-06-18T06:51:53Z</time>
      </trkpt>
      <trkpt lat="45.23664" lon="6.31228">
        <ele>837.5</ele>
        <time>2022-06-18T06:51:54Z</time>
      </trkpt>
      <trkpt lat="45.23675" lon="6.31227">
        <ele>836.1</ele>
        <time>2022-06-18T06:51:55Z</time>
      </trkpt>
      <trkpt lat="45.23686" lon="6.3123">
        <ele>834.6</ele>
        <time>2022-06-18T06:51:56Z</time>
      </trkpt>
      <trkpt lat="45.23698" lon="6.31236">
        <ele>833</ele>
        <time>2022-06-18T06:51:57Z</time>
      </trkpt>
      <trkpt lat="45.23709" lon="6.31244">
        <ele>831.4</ele>
        <time>2022-06-18T06:51:58Z</time>
      </trkpt>
      <trkpt lat="45.2372" lon="6.31252">
        <ele>829.8</ele>
        <time>2022-06-18T06:51:59Z</time>
      </trkpt>
      <trkpt lat="45.23732" lon="6.31261">
        <ele>828.3</ele>
        <time>2022-06-18T06:52:00Z</time>
      </trkpt>
      <trkpt lat="45.23744" lon="6.3127">
        <ele>826.9</ele>
        <time>2022-06-18T06:52:01Z</time>
      </trkpt>
      <trkpt lat="45.23754" lon="6.3128">
        <ele>825.6</ele>
        <time>2022-06-18T06:52:02Z</time>
      </trkpt>
      <trkpt lat="45.23765" lon="6.3129">
        <ele>824.4</ele>
        <time>2022-06-18T06:52:03Z</time>
      </trkpt>
      <trkpt lat="45.23775" lon="6.31302">
        <ele>823.1</ele>
        <time>2022-06-18T06:52:04Z</time>
      </trkpt>
      <trkpt lat="45.23784" lon="6.31314">
        <ele>822</ele>
        <time>2022-06-18T06:52:05Z</time>
      </trkpt>
      <trkpt lat="45.23792" lon="6.31325">
        <ele>820.8</ele>
        <time>2022-06-18T06:52:06Z</time>
      </trkpt>
      <trkpt lat="45.238" lon="6.31333">
        <ele>819.8</ele>
        <time>2022-06-18T06:52:07Z</time>
      </trkpt>
      <trkpt lat="45.23807" lon="6.31337">
        <ele>820.4</ele>
        <time>2022-06-18T06:52:08Z</time>
      </trkpt>
      <trkpt lat="45.23814" lon="6.31334">
        <ele>820.8</ele>
        <time>2022-06-18T06:52:09Z</time>
      </trkpt>
      <trkpt lat="45.23818" lon="6.31325">
        <ele>821.3</ele>
        <time>2022-06-18T06:52:10Z</time>
      </trkpt>
      <trkpt lat="45.23821" lon="6.31311">
        <ele>821.9</ele>
        <time>2022-06-18T06:52:11Z</time>
      </trkpt>
      <trkpt lat="45.23825" lon="6.31293">
        <ele>822.8</ele>
        <time>2022-06-18T06:52:12Z</time>
      </trkpt>
      <trkpt lat="45.23828" lon="6.31275">
        <ele>823.8</ele>
        <time>2022-06-18T06:52:13Z</time>
      </trkpt>
      <trkpt lat="45.23832" lon="6.3126">
        <ele>824.7</ele>
        <time>2022-06-18T06:52:14Z</time>
      </trkpt>
      <trkpt lat="45.23835" lon="6.31244">
        <ele>825.6</ele>
        <time>2022-06-18T06:52:15Z</time>
      </trkpt>
      <trkpt lat="45.23834" lon="6.31228">
        <ele>826.6</ele>
        <time>2022-06-18T06:52:16Z</time>
      </trkpt>
      <trkpt lat="45.23832" lon="6.31211">
        <ele>827.6</ele>
        <time>2022-06-18T06:52:17Z</time>
      </trkpt>
      <trkpt lat="45.2383" lon="6.31194">
        <ele>828.7</ele>
        <time>2022-06-18T06:52:18Z</time>
      </trkpt>
      <trkpt lat="45.23828" lon="6.31177">
        <ele>830</ele>
        <time>2022-06-18T06:52:19Z</time>
      </trkpt>
      <trkpt lat="45.23829" lon="6.31159">
        <ele>831.3</ele>
        <time>2022-06-18T06:52:20Z</time>
      </trkpt>
      <trkpt lat="45.2383" lon="6.31141">
        <ele>832.7</ele>
        <time>2022-06-18T06:52:21Z</time>
      </trkpt>
      <trkpt lat="45.23832" lon="6.31122">
        <ele>834</ele>
        <time>2022-06-18T06:52:22Z</time>
      </trkpt>
      <trkpt lat="45.23835" lon="6.31103">
        <ele>835.4</ele>
        <time>2022-06-18T06:52:23Z</time>
      </trkpt>
      <trkpt lat="45.2384" lon="6.31085">
        <ele>836.8</ele>
        <time>2022-06-18T06:52:24Z</time>
      </trkpt>
      <trkpt lat="45.23845" lon="6.31067">
        <ele>835</ele>
        <time>2022-06-18T06:52:25Z</time>
      </trkpt>
      <trkpt lat="45.2385" lon="6.3105">
        <ele>831.4</ele>
        <time>2022-06-18T06:52:26Z</time>
      </trkpt>
      <trkpt lat="45.23854" lon="6.31033">
        <ele>828</ele>
        <time>2022-06-18T06:52:27Z</time>
      </trkpt>
      <trkpt lat="45.2386" lon="6.31019">
        <ele>824.6</ele>
        <time>2022-06-18T06:52:28Z</time>
      </trkpt>
      <trkpt lat="45.23868" lon="6.31005">
        <ele>821.1</ele>
        <time>2022-06-18T06:52:29Z</time>
      </trkpt>
      <trkpt lat="45.23879" lon="6.30995">
        <ele>817.7</ele>
        <time>2022-06-18T06:52:30Z</time>
      </trkpt>
      <trkpt lat="45.23891" lon="6.3099">
        <ele>814.9</ele>
        <time>2022-06-18T06:52:31Z</time>
      </trkpt>
      <trkpt lat="45.23904" lon="6.3099">
        <ele>812</ele>
        <time>2022-06-18T06:52:32Z</time>
      </trkpt>
      <trkpt lat="45.23917" lon="6.30992">
        <ele>809.4</ele>
        <time>2022-06-18T06:52:33Z</time>
      </trkpt>
      <trkpt lat="45.23929" lon="6.30995">
        <ele>809.9</ele>
        <time>2022-06-18T06:52:34Z</time>
      </trkpt>
      <trkpt lat="45.23939" lon="6.31">
        <ele>811.2</ele>
        <time>2022-06-18T06:52:35Z</time>
      </trkpt>
      <trkpt lat="45.23949" lon="6.31007">
        <ele>812.5</ele>
        <time>2022-06-18T06:52:36Z</time>
      </trkpt>
      <trkpt lat="45.23956" lon="6.31016">
        <ele>812.6</ele>
        <time>2022-06-18T06:52:37Z</time>
      </trkpt>
      <trkpt lat="45.23962" lon="6.31029">
        <ele>812.7</ele>
        <time>2022-06-18T06:52:38Z</time>
      </trkpt>
      <trkpt lat="45.23964" lon="6.31043">
        <ele>812.8</ele>
        <time>2022-06-18T06:52:39Z</time>
      </trkpt>
      <trkpt lat="45.23963" lon="6.31058">
        <ele>812.9</ele>
        <time>2022-06-18T06:52:40Z</time>
      </trkpt>
      <trkpt lat="45.2396" lon="6.31072">
        <ele>813.2</ele>
        <time>2022-06-18T06:52:41Z</time>
      </trkpt>
      <trkpt lat="45.23957" lon="6.31085">
        <ele>813.5</ele>
        <time>2022-06-18T06:52:42Z</time>
      </trkpt>
      <trkpt lat="45.23953" lon="6.31099">
        <ele>813.9</ele>
        <time>2022-06-18T06:52:43Z</time>
      </trkpt>
      <trkpt lat="45.2395" lon="6.31111">
        <ele>814.3</ele>
        <time>2022-06-18T06:52:44Z</time>
      </trkpt>
      <trkpt lat="45.23947" lon="6.31124">
        <ele>814.7</ele>
        <time>2022-06-18T06:52:45Z</time>
      </trkpt>
      <trkpt lat="45.23946" lon="6.31137">
        <ele>815.1</ele>
        <time>2022-06-18T06:52:46Z</time>
      </trkpt>
      <trkpt lat="45.23945" lon="6.3115">
        <ele>815.6</ele>
        <time>2022-06-18T06:52:47Z</time>
      </trkpt>
      <trkpt lat="45.23945" lon="6.31163">
        <ele>816.1</ele>
        <time>2022-06-18T06:52:48Z</time>
      </trkpt>
      <trkpt lat="45.23946" lon="6.31176">
        <ele>816.5</ele>
        <time>2022-06-18T06:52:49Z</time>
      </trkpt>
      <trkpt lat="45.23947" lon="6.31189">
        <ele>817.1</ele>
        <time>2022-06-18T06:52:50Z</time>
      </trkpt>
      <trkpt lat="45.23949" lon="6.31202">
        <ele>817.6</ele>
        <time>2022-06-18T06:52:51Z</time>
      </trkpt>
      <trkpt lat="45.2395" lon="6.31214">
        <ele>818.2</ele>
        <time>2022-06-18T06:52:52Z</time>
      </trkpt>
      <trkpt lat="45.23952" lon="6.31227">
        <ele>818.8</ele>
        <time>2022-06-18T06:52:53Z</time>
      </trkpt>
      <trkpt lat="45.23954" lon="6.31239">
        <ele>819.5</ele>
        <time>2022-06-18T06:52:54Z</time>
      </trkpt>
      <trkpt lat="45.23957" lon="6.31251">
        <ele>820.2</ele>
        <time>2022-06-18T06:52:55Z</time>
      </trkpt>
      <trkpt lat="45.23961" lon="6.31263">
        <ele>820.8</ele>
        <time>2022-06-18T06:52:56Z</time>
      </trkpt>
      <trkpt lat="45.23964" lon="6.31274">
        <ele>821.5</ele>
        <time>2022-06-18T06:52:57Z</time>
      </trkpt>
      <trkpt lat="45.23968" lon="6.31285">
        <ele>822.1</ele>
        <time>2022-06-18T06:52:58Z</time>
      </trkpt>
      <trkpt lat="45.23972" lon="6.31295">
        <ele>822.6</ele>
        <time>2022-06-18T06:52:59Z</time>
      </trkpt>
      <trkpt lat="45.23975" lon="6.31305">
        <ele>823.2</ele>
        <time>2022-06-18T06:53:00Z</time>
      </trkpt>
      <trkpt lat="45.23977" lon="6.31315">
        <ele>823.7</ele>
        <time>2022-06-18T06:53:01Z</time>
      </trkpt>
      <trkpt lat="45.23978" lon="6.31325">
        <ele>824.3</ele>
        <time>2022-06-18T06:53:02Z</time>
      </trkpt>
      <trkpt lat="45.23979" lon="6.31336">
        <ele>824.9</ele>
        <time>2022-06-18T06:53:03Z</time>
      </trkpt>
      <trkpt lat="45.23979" lon="6.31347">
        <ele>825</ele>
        <time>2022-06-18T06:53:04Z</time>
      </trkpt>
      <trkpt lat="45.23977" lon="6.31357">
        <ele>824.9</ele>
        <time>2022-06-18T06:53:05Z</time>
      </trkpt>
      <trkpt lat="45.23976" lon="6.31366">
        <ele>824.8</ele>
        <time>2022-06-18T06:53:06Z</time>
      </trkpt>
      <trkpt lat="45.23974" lon="6.31375">
        <ele>824.6</ele>
        <time>2022-06-18T06:53:07Z</time>
      </trkpt>
      <trkpt lat="45.23973" lon="6.31384">
        <ele>824.5</ele>
        <time>2022-06-18T06:53:08Z</time>
      </trkpt>
      <trkpt lat="45.23973" lon="6.31393">
        <ele>824.3</ele>
        <time>2022-06-18T06:53:09Z</time>
      </trkpt>
      <trkpt lat="45.23973" lon="6.31403">
        <ele>824.2</ele>
        <time>2022-06-18T06:53:10Z</time>
      </trkpt>
      <trkpt lat="45.23973" lon="6.31413">
        <ele>824.1</ele>
        <time>2022-06-18T06:53:11Z</time>
      </trkpt>
      <trkpt lat="45.23974" lon="6.31424">
        <ele>824</ele>
        <time>2022-06-18T06:53:12Z</time>
      </trkpt>
      <trkpt lat="45.23974" lon="6.31433">
        <ele>824</ele>
        <time>2022-06-18T06:53:13Z</time>
      </trkpt>
      <trkpt lat="45.23975" lon="6.31443">
        <ele>824</ele>
        <time>2022-06-18T06:53:14Z</time>
      </trkpt>
      <trkpt lat="45.23975" lon="6.31453">
        <ele>824.1</ele>
        <time>2022-06-18T06:53:15Z</time>
      </trkpt>
      <trkpt lat="45.23975" lon="6.31462">
        <ele>824.3</ele>
        <time>2022-06-18T06:53:16Z</time>
      </trkpt>
      <trkpt lat="45.23975" lon="6.31471">
        <ele>824.5</ele>
        <time>2022-06-18T06:53:17Z</time>
      </trkpt>
      <trkpt lat="45.23974" lon="6.31478">
        <ele>824.7</ele>
        <time>2022-06-18T06:53:18Z</time>
      </trkpt>
      <trkpt lat="45.23974" lon="6.31484">
        <ele>824.9</ele>
        <time>2022-06-18T06:53:19Z</time>
      </trkpt>
      <trkpt lat="45.23974" lon="6.3149">
        <ele>825.2</ele>
        <time>2022-06-18T06:53:20Z</time>
      </trkpt>
      <trkpt lat="45.23974" lon="6.31493">
        <ele>825.3</ele>
        <time>2022-06-18T06:53:21Z</time>
      </trkpt>
      <trkpt lat="45.23974" lon="6.31498">
        <ele>825.5</ele>
        <time>2022-06-18T06:53:22Z</time>
      </trkpt>
      <trkpt lat="45.23975" lon="6.31504">
        <ele>825.7</ele>
        <time>2022-06-18T06:53:23Z</time>
      </trkpt>
      <trkpt lat="45.23976" lon="6.31508">
        <ele>826</ele>
        <time>2022-06-18T06:53:24Z</time>
      </trkpt>
      <trkpt lat="45.23977" lon="6.31513">
        <ele>826.2</ele>
        <time>2022-06-18T06:53:25Z</time>
      </trkpt>
      <trkpt lat="45.23978" lon="6.31518">
        <ele>826.5</ele>
        <time>2022-06-18T06:53:26Z</time>
      </trkpt>
      <trkpt lat="45.2398" lon="6.31523">
        <ele>826.7</ele>
        <time>2022-06-18T06:53:27Z</time>
      </trkpt>
      <trkpt lat="45.23982" lon="6.31528">
        <ele>827</ele>
        <time>2022-06-18T06:53:28Z</time>
      </trkpt>
      <trkpt lat="45.23983" lon="6.31533">
        <ele>827.2</ele>
        <time>2022-06-18T06:53:29Z</time>
      </trkpt>
      <trkpt lat="45.23985" lon="6.31538">
        <ele>827.4</ele>
        <time>2022-06-18T06:53:30Z</time>
      </trkpt>
      <trkpt lat="45.23988" lon="6.31547">
        <ele>827.8</ele>
        <time>2022-06-18T06:53:32Z</time>
      </trkpt>
      <trkpt lat="45.2399" lon="6.31551">
        <ele>828</ele>
        <time>2022-06-18T06:53:33Z</time>
      </trkpt>
      <trkpt lat="45.23993" lon="6.31556">
        <ele>828.2</ele>
        <time>2022-06-18T06:53:34Z</time>
      </trkpt>
      <trkpt lat="45.23996" lon="6.3156">
        <ele>828.4</ele>
        <time>2022-06-18T06:53:35Z</time>
      </trkpt>
      <trkpt lat="45.23999" lon="6.31564">
        <ele>828.6</ele>
        <time>2022-06-18T06:53:36Z</time>
      </trkpt>
      <trkpt lat="45.24003" lon="6.31567">
        <ele>828.8</ele>
        <time>2022-06-18T06:53:37Z</time>
      </trkpt>
      <trkpt lat="45.24006" lon="6.31569">
        <ele>829</ele>
        <time>2022-06-18T06:53:38Z</time>
      </trkpt>
      <trkpt lat="45.2401" lon="6.31572">
        <ele>829.2</ele>
        <time>2022-06-18T06:53:39Z</time>
      </trkpt>
      <trkpt lat="45.24016" lon="6.31575">
        <ele>829.5</ele>
        <time>2022-06-18T06:53:41Z</time>
      </trkpt>
      <trkpt lat="45.24019" lon="6.31577">
        <ele>829.7</ele>
        <time>2022-06-18T06:53:42Z</time>
      </trkpt>
      <trkpt lat="45.24022" lon="6.31579">
        <ele>829.8</ele>
        <time>2022-06-18T06:53:43Z</time>
      </trkpt>
      <trkpt lat="45.24026" lon="6.31582">
        <ele>830</ele>
        <time>2022-06-18T06:53:44Z</time>
      </trkpt>
      <trkpt lat="45.24029" lon="6.31584">
        <ele>830.1</ele>
        <time>2022-06-18T06:53:45Z</time>
      </trkpt>
      <trkpt lat="45.24034" lon="6.31586">
        <ele>830.3</ele>
        <time>2022-06-18T06:53:47Z</time>
      </trkpt>
      <trkpt lat="45.24038" lon="6.31589">
        <ele>830.5</ele>
        <time>2022-06-18T06:53:48Z</time>
      </trkpt>
      <trkpt lat="45.24042" lon="6.31591">
        <ele>830.6</ele>
        <time>2022-06-18T06:53:49Z</time>
      </trkpt>
      <trkpt lat="45.24048" lon="6.31594">
        <ele>830.8</ele>
        <time>2022-06-18T06:53:50Z</time>
      </trkpt>
      <trkpt lat="45.24052" lon="6.31597">
        <ele>831</ele>
        <time>2022-06-18T06:53:51Z</time>
      </trkpt>
      <trkpt lat="45.24056" lon="6.316">
        <ele>831.1</ele>
        <time>2022-06-18T06:53:53Z</time>
      </trkpt>
      <trkpt lat="45.24061" lon="6.31603">
        <ele>831.3</ele>
        <time>2022-06-18T06:53:54Z</time>
      </trkpt>
      <trkpt lat="45.24066" lon="6.31605">
        <ele>831.5</ele>
        <time>2022-06-18T06:53:55Z</time>
      </trkpt>
      <trkpt lat="45.24072" lon="6.31608">
        <ele>831.6</ele>
        <time>2022-06-18T06:53:57Z</time>
      </trkpt>
      <trkpt lat="45.24079" lon="6.3161">
        <ele>831.9</ele>
        <time>2022-06-18T06:53:58Z</time>
      </trkpt>
      <trkpt lat="45.24083" lon="6.31611">
        <ele>832</ele>
        <time>2022-06-18T06:53:59Z</time>
      </trkpt>
      <trkpt lat="45.24088" lon="6.31611">
        <ele>832.2</ele>
        <time>2022-06-18T06:54:01Z</time>
      </trkpt>
      <trkpt lat="45.24093" lon="6.3161">
        <ele>832.4</ele>
        <time>2022-06-18T06:54:02Z</time>
      </trkpt>
      <trkpt lat="45.24097" lon="6.31608">
        <ele>832.6</ele>
        <time>2022-06-18T06:54:03Z</time>
      </trkpt>
      <trkpt lat="45.241" lon="6.31606">
        <ele>832.8</ele>
        <time>2022-06-18T06:54:04Z</time>
      </trkpt>
      <trkpt lat="45.24103" lon="6.31603">
        <ele>833</ele>
        <time>2022-06-18T06:54:05Z</time>
      </trkpt>
      <trkpt lat="45.24106" lon="6.31601">
        <ele>833.1</ele>
        <time>2022-06-18T06:54:06Z</time>
      </trkpt>
      <trkpt lat="45.24109" lon="6.31599">
        <ele>833.3</ele>
        <time>2022-06-18T06:54:07Z</time>
      </trkpt>
      <trkpt lat="45.24112" lon="6.31597">
        <ele>833.5</ele>
        <time>2022-06-18T06:54:08Z</time>
      </trkpt>
      <trkpt lat="45.24114" lon="6.31595">
        <ele>833.7</ele>
        <time>2022-06-18T06:54:09Z</time>
      </trkpt>
      <trkpt lat="45.24117" lon="6.31594">
        <ele>833.9</ele>
        <time>2022-06-18T06:54:10Z</time>
      </trkpt>
      <trkpt lat="45.24121" lon="6.31594">
        <ele>834.1</ele>
        <time>2022-06-18T06:54:11Z</time>
      </trkpt>
      <trkpt lat="45.24124" lon="6.31596">
        <ele>834.3</ele>
        <time>2022-06-18T06:54:12Z</time>
      </trkpt>
      <trkpt lat="45.24127" lon="6.31599">
        <ele>834.6</ele>
        <time>2022-06-18T06:54:13Z</time>
      </trkpt>
      <trkpt lat="45.24129" lon="6.31602">
        <ele>834.9</ele>
        <time>2022-06-18T06:54:14Z</time>
      </trkpt>
      <trkpt lat="45.24133" lon="6.31606">
        <ele>835.2</ele>
        <time>2022-06-18T06:54:15Z</time>
      </trkpt>
      <trkpt lat="45.24136" lon="6.3161">
        <ele>835.6</ele>
        <time>2022-06-18T06:54:16Z</time>
      </trkpt>
      <trkpt lat="45.2414" lon="6.31614">
        <ele>836</ele>
        <time>2022-06-18T06:54:18Z</time>
      </trkpt>
      <trkpt lat="45.24144" lon="6.31618">
        <ele>836.4</ele>
        <time>2022-06-18T06:54:19Z</time>
      </trkpt>
      <trkpt lat="45.24146" lon="6.31621">
        <ele>836.7</ele>
        <time>2022-06-18T06:54:20Z</time>
      </trkpt>
      <trkpt lat="45.24149" lon="6.31622">
        <ele>836.9</ele>
        <time>2022-06-18T06:54:21Z</time>
      </trkpt>
      <trkpt lat="45.24153" lon="6.31623">
        <ele>837.2</ele>
        <time>2022-06-18T06:54:22Z</time>
      </trkpt>
      <trkpt lat="45.24158" lon="6.31623">
        <ele>837.5</ele>
        <time>2022-06-18T06:54:24Z</time>
      </trkpt>
      <trkpt lat="45.24162" lon="6.31621">
        <ele>837.7</ele>
        <time>2022-06-18T06:54:25Z</time>
      </trkpt>
      <trkpt lat="45.24167" lon="6.31618">
        <ele>837.9</ele>
        <time>2022-06-18T06:54:26Z</time>
      </trkpt>
      <trkpt lat="45.2417" lon="6.31615">
        <ele>838</ele>
        <time>2022-06-18T06:54:27Z</time>
      </trkpt>
      <trkpt lat="45.24175" lon="6.3161">
        <ele>838</ele>
        <time>2022-06-18T06:54:28Z</time>
      </trkpt>
      <trkpt lat="45.24181" lon="6.31602">
        <ele>838</ele>
        <time>2022-06-18T06:54:30Z</time>
      </trkpt>
      <trkpt lat="45.24184" lon="6.31596">
        <ele>837.9</ele>
        <time>2022-06-18T06:54:31Z</time>
      </trkpt>
      <trkpt lat="45.24188" lon="6.3159">
        <ele>837.8</ele>
        <time>2022-06-18T06:54:32Z</time>
      </trkpt>
      <trkpt lat="45.24191" lon="6.31585">
        <ele>837.7</ele>
        <time>2022-06-18T06:54:33Z</time>
      </trkpt>
      <trkpt lat="45.24195" lon="6.31581">
        <ele>837.6</ele>
        <time>2022-06-18T06:54:34Z</time>
      </trkpt>
      <trkpt lat="45.242" lon="6.31577">
        <ele>837.5</ele>
        <time>2022-06-18T06:54:35Z</time>
      </trkpt>
      <trkpt lat="45.24204" lon="6.31573">
        <ele>837.6</ele>
        <time>2022-06-18T06:54:36Z</time>
      </trkpt>
      <trkpt lat="45.2421" lon="6.3157">
        <ele>837.7</ele>
        <time>2022-06-18T06:54:37Z</time>
      </trkpt>
      <trkpt lat="45.24215" lon="6.31568">
        <ele>837.9</ele>
        <time>2022-06-18T06:54:38Z</time>
      </trkpt>
      <trkpt lat="45.2422" lon="6.31567">
        <ele>838</ele>
        <time>2022-06-18T06:54:39Z</time>
      </trkpt>
      <trkpt lat="45.24225" lon="6.31568">
        <ele>838.1</ele>
        <time>2022-06-18T06:54:40Z</time>
      </trkpt>
      <trkpt lat="45.24231" lon="6.31569">
        <ele>838.1</ele>
        <time>2022-06-18T06:54:41Z</time>
      </trkpt>
      <trkpt lat="45.24236" lon="6.3157">
        <ele>838.2</ele>
        <time>2022-06-18T06:54:42Z</time>
      </trkpt>
      <trkpt lat="45.24241" lon="6.31571">
        <ele>838.2</ele>
        <time>2022-06-18T06:54:43Z</time>
      </trkpt>
      <trkpt lat="45.24246" lon="6.31571">
        <ele>838.2</ele>
        <time>2022-06-18T06:54:44Z</time>
      </trkpt>
      <trkpt lat="45.24252" lon="6.31571">
        <ele>838.1</ele>
        <time>2022-06-18T06:54:45Z</time>
      </trkpt>
      <trkpt lat="45.24258" lon="6.31571">
        <ele>838.1</ele>
        <time>2022-06-18T06:54:46Z</time>
      </trkpt>
      <trkpt lat="45.24263" lon="6.31572">
        <ele>838.1</ele>
        <time>2022-06-18T06:54:47Z</time>
      </trkpt>
      <trkpt lat="45.24269" lon="6.31572">
        <ele>838</ele>
        <time>2022-06-18T06:54:48Z</time>
      </trkpt>
      <trkpt lat="45.24276" lon="6.31574">
        <ele>838</ele>
        <time>2022-06-18T06:54:49Z</time>
      </trkpt>
      <trkpt lat="45.24282" lon="6.31576">
        <ele>838</ele>
        <time>2022-06-18T06:54:50Z</time>
      </trkpt>
      <trkpt lat="45.24289" lon="6.31579">
        <ele>838</ele>
        <time>2022-06-18T06:54:51Z</time>
      </trkpt>
      <trkpt lat="45.24296" lon="6.31582">
        <ele>838.1</ele>
        <time>2022-06-18T06:54:52Z</time>
      </trkpt>
      <trkpt lat="45.24302" lon="6.31586">
        <ele>838.2</ele>
        <time>2022-06-18T06:54:53Z</time>
      </trkpt>
      <trkpt lat="45.24309" lon="6.3159">
        <ele>838.3</ele>
        <time>2022-06-18T06:54:54Z</time>
      </trkpt>
      <trkpt lat="45.24315" lon="6.31593">
        <ele>838.5</ele>
        <time>2022-06-18T06:54:55Z</time>
      </trkpt>
      <trkpt lat="45.24321" lon="6.31597">
        <ele>838.6</ele>
        <time>2022-06-18T06:54:56Z</time>
      </trkpt>
      <trkpt lat="45.24327" lon="6.316">
        <ele>838.8</ele>
        <time>2022-06-18T06:54:57Z</time>
      </trkpt>
      <trkpt lat="45.24334" lon="6.31603">
        <ele>839</ele>
        <time>2022-06-18T06:54:58Z</time>
      </trkpt>
      <trkpt lat="45.24339" lon="6.31607">
        <ele>839.3</ele>
        <time>2022-06-18T06:54:59Z</time>
      </trkpt>
      <trkpt lat="45.24345" lon="6.3161">
        <ele>839.5</ele>
        <time>2022-06-18T06:55:00Z</time>
      </trkpt>
      <trkpt lat="45.24351" lon="6.31613">
        <ele>839.7</ele>
        <time>2022-06-18T06:55:01Z</time>
      </trkpt>
      <trkpt lat="45.24357" lon="6.31615">
        <ele>839.9</ele>
        <time>2022-06-18T06:55:02Z</time>
      </trkpt>
      <trkpt lat="45.24363" lon="6.31617">
        <ele>840.1</ele>
        <time>2022-06-18T06:55:03Z</time>
      </trkpt>
      <trkpt lat="45.24368" lon="6.31619">
        <ele>840.3</ele>
        <time>2022-06-18T06:55:04Z</time>
      </trkpt>
      <trkpt lat="45.24375" lon="6.31619">
        <ele>840.5</ele>
        <time>2022-06-18T06:55:05Z</time>
      </trkpt>
      <trkpt lat="45.2438" lon="6.31618">
        <ele>840.7</ele>
        <time>2022-06-18T06:55:06Z</time>
      </trkpt>
      <trkpt lat="45.24386" lon="6.31617">
        <ele>840.8</ele>
        <time>2022-06-18T06:55:07Z</time>
      </trkpt>
      <trkpt lat="45.24393" lon="6.31618">
        <ele>841</ele>
        <time>2022-06-18T06:55:08Z</time>
      </trkpt>
      <trkpt lat="45.24399" lon="6.3162">
        <ele>841.1</ele>
        <time>2022-06-18T06:55:09Z</time>
      </trkpt>
      <trkpt lat="45.24406" lon="6.31624">
        <ele>841.3</ele>
        <time>2022-06-18T06:55:10Z</time>
      </trkpt>
      <trkpt lat="45.24412" lon="6.31629">
        <ele>841.5</ele>
        <time>2022-06-18T06:55:11Z</time>
      </trkpt>
      <trkpt lat="45.24417" lon="6.31635">
        <ele>841.7</ele>
        <time>2022-06-18T06:55:12Z</time>
      </trkpt>
      <trkpt lat="45.24422" lon="6.31641">
        <ele>841.9</ele>
        <time>2022-06-18T06:55:13Z</time>
      </trkpt>
      <trkpt lat="45.24427" lon="6.31647">
        <ele>842</ele>
        <time>2022-06-18T06:55:14Z</time>
      </trkpt>
      <trkpt lat="45.24432" lon="6.31653">
        <ele>842.2</ele>
        <time>2022-06-18T06:55:15Z</time>
      </trkpt>
      <trkpt lat="45.24437" lon="6.31658">
        <ele>842.4</ele>
        <time>2022-06-18T06:55:16Z</time>
      </trkpt>
      <trkpt lat="45.24443" lon="6.31661">
        <ele>842.6</ele>
        <time>2022-06-18T06:55:17Z</time>
      </trkpt>
      <trkpt lat="45.24449" lon="6.31665">
        <ele>842.8</ele>
        <time>2022-06-18T06:55:18Z</time>
      </trkpt>
      <trkpt lat="45.24455" lon="6.31668">
        <ele>843</ele>
        <time>2022-06-18T06:55:19Z</time>
      </trkpt>
      <trkpt lat="45.24461" lon="6.3167">
        <ele>843.2</ele>
        <time>2022-06-18T06:55:20Z</time>
      </trkpt>
      <trkpt lat="45.24468" lon="6.31673">
        <ele>843.4</ele>
        <time>2022-06-18T06:55:21Z</time>
      </trkpt>
      <trkpt lat="45.24474" lon="6.31675">
        <ele>843.6</ele>
        <time>2022-06-18T06:55:22Z</time>
      </trkpt>
      <trkpt lat="45.2448" lon="6.31678">
        <ele>843.8</ele>
        <time>2022-06-18T06:55:23Z</time>
      </trkpt>
      <trkpt lat="45.24486" lon="6.31679">
        <ele>844</ele>
        <time>2022-06-18T06:55:24Z</time>
      </trkpt>
      <trkpt lat="45.24492" lon="6.31681">
        <ele>844.2</ele>
        <time>2022-06-18T06:55:25Z</time>
      </trkpt>
      <trkpt lat="45.24499" lon="6.31681">
        <ele>844.4</ele>
        <time>2022-06-18T06:55:26Z</time>
      </trkpt>
      <trkpt lat="45.24505" lon="6.3168">
        <ele>844.6</ele>
        <time>2022-06-18T06:55:27Z</time>
      </trkpt>
      <trkpt lat="45.24511" lon="6.31676">
        <ele>844.8</ele>
        <time>2022-06-18T06:55:28Z</time>
      </trkpt>
      <trkpt lat="45.24516" lon="6.31672">
        <ele>844.9</ele>
        <time>2022-06-18T06:55:29Z</time>
      </trkpt>
      <trkpt lat="45.24522" lon="6.31665">
        <ele>845.1</ele>
        <time>2022-06-18T06:55:30Z</time>
      </trkpt>
      <trkpt lat="45.24527" lon="6.31658">
        <ele>845.2</ele>
        <time>2022-06-18T06:55:31Z</time>
      </trkpt>
      <trkpt lat="45.24532" lon="6.31651">
        <ele>845.4</ele>
        <time>2022-06-18T06:55:32Z</time>
      </trkpt>
      <trkpt lat="45.24538" lon="6.31645">
        <ele>845.5</ele>
        <time>2022-06-18T06:55:33Z</time>
      </trkpt>
      <trkpt lat="45.24544" lon="6.31639">
        <ele>845.7</ele>
        <time>2022-06-18T06:55:34Z</time>
      </trkpt>
      <trkpt lat="45.24551" lon="6.31635">
        <ele>845.9</ele>
        <time>2022-06-18T06:55:35Z</time>
      </trkpt>
      <trkpt lat="45.24557" lon="6.31632">
        <ele>846.1</ele>
        <time>2022-06-18T06:55:36Z</time>
      </trkpt>
      <trkpt lat="45.24564" lon="6.31631">
        <ele>846.3</ele>
        <time>2022-06-18T06:55:37Z</time>
      </trkpt>
      <trkpt lat="45.24571" lon="6.31633">
        <ele>846.6</ele>
        <time>2022-06-18T06:55:38Z</time>
      </trkpt>
      <trkpt lat="45.24578" lon="6.31636">
        <ele>846.9</ele>
        <time>2022-06-18T06:55:39Z</time>
      </trkpt>
      <trkpt lat="45.24585" lon="6.31641">
        <ele>847.2</ele>
        <time>2022-06-18T06:55:40Z</time>
      </trkpt>
      <trkpt lat="45.2459" lon="6.31646">
        <ele>847.5</ele>
        <time>2022-06-18T06:55:41Z</time>
      </trkpt>
      <trkpt lat="45.24595" lon="6.31654">
        <ele>847.8</ele>
        <time>2022-06-18T06:55:42Z</time>
      </trkpt>
      <trkpt lat="45.24598" lon="6.31663">
        <ele>848</ele>
        <time>2022-06-18T06:55:43Z</time>
      </trkpt>
      <trkpt lat="45.24601" lon="6.31671">
        <ele>848.2</ele>
        <time>2022-06-18T06:55:44Z</time>
      </trkpt>
      <trkpt lat="45.24603" lon="6.3168">
        <ele>848.5</ele>
        <time>2022-06-18T06:55:45Z</time>
      </trkpt>
      <trkpt lat="45.24605" lon="6.31688">
        <ele>848.7</ele>
        <time>2022-06-18T06:55:46Z</time>
      </trkpt>
      <trkpt lat="45.24607" lon="6.31696">
        <ele>848.9</ele>
        <time>2022-06-18T06:55:47Z</time>
      </trkpt>
      <trkpt lat="45.24608" lon="6.31703">
        <ele>849.1</ele>
        <time>2022-06-18T06:55:48Z</time>
      </trkpt>
      <trkpt lat="45.24608" lon="6.31711">
        <ele>849.3</ele>
        <time>2022-06-18T06:55:49Z</time>
      </trkpt>
      <trkpt lat="45.24609" lon="6.31718">
        <ele>849.4</ele>
        <time>2022-06-18T06:55:50Z</time>
      </trkpt>
      <trkpt lat="45.2461" lon="6.31726">
        <ele>849.6</ele>
        <time>2022-06-18T06:55:51Z</time>
      </trkpt>
      <trkpt lat="45.24612" lon="6.31734">
        <ele>849.8</ele>
        <time>2022-06-18T06:55:52Z</time>
      </trkpt>
      <trkpt lat="45.24614" lon="6.31741">
        <ele>850</ele>
        <time>2022-06-18T06:55:53Z</time>
      </trkpt>
      <trkpt lat="45.24616" lon="6.31748">
        <ele>850.1</ele>
        <time>2022-06-18T06:55:54Z</time>
      </trkpt>
      <trkpt lat="45.2462" lon="6.31752">
        <ele>850.2</ele>
        <time>2022-06-18T06:55:55Z</time>
      </trkpt>
      <trkpt lat="45.24626" lon="6.31755">
        <ele>850.3</ele>
        <time>2022-06-18T06:55:56Z</time>
      </trkpt>
      <trkpt lat="45.24633" lon="6.31754">
        <ele>850.3</ele>
        <time>2022-06-18T06:55:57Z</time>
      </trkpt>
      <trkpt lat="45.2464" lon="6.31751">
        <ele>850.4</ele>
        <time>2022-06-18T06:55:58Z</time>
      </trkpt>
      <trkpt lat="45.24647" lon="6.31745">
        <ele>850.4</ele>
        <time>2022-06-18T06:55:59Z</time>
      </trkpt>
      <trkpt lat="45.24653" lon="6.31739">
        <ele>850.3</ele>
        <time>2022-06-18T06:56:00Z</time>
      </trkpt>
      <trkpt lat="45.24658" lon="6.31732">
        <ele>850.3</ele>
        <time>2022-06-18T06:56:01Z</time>
      </trkpt>
      <trkpt lat="45.24663" lon="6.31724">
        <ele>850.2</ele>
        <time>2022-06-18T06:56:02Z</time>
      </trkpt>
      <trkpt lat="45.24668" lon="6.31717">
        <ele>850.1</ele>
        <time>2022-06-18T06:56:03Z</time>
      </trkpt>
      <trkpt lat="45.24672" lon="6.31708">
        <ele>849.9</ele>
        <time>2022-06-18T06:56:04Z</time>
      </trkpt>
      <trkpt lat="45.24676" lon="6.31698">
        <ele>849.7</ele>
        <time>2022-06-18T06:56:05Z</time>
      </trkpt>
      <trkpt lat="45.2468" lon="6.31689">
        <ele>849.4</ele>
        <time>2022-06-18T06:56:06Z</time>
      </trkpt>
      <trkpt lat="45.24684" lon="6.3168">
        <ele>849.2</ele>
        <time>2022-06-18T06:56:07Z</time>
      </trkpt>
      <trkpt lat="45.24688" lon="6.31671">
        <ele>848.9</ele>
        <time>2022-06-18T06:56:08Z</time>
      </trkpt>
      <trkpt lat="45.24694" lon="6.31662">
        <ele>848.7</ele>
        <time>2022-06-18T06:56:09Z</time>
      </trkpt>
      <trkpt lat="45.24699" lon="6.31653">
        <ele>848.5</ele>
        <time>2022-06-18T06:56:10Z</time>
      </trkpt>
      <trkpt lat="45.24705" lon="6.31644">
        <ele>848.3</ele>
        <time>2022-06-18T06:56:11Z</time>
      </trkpt>
      <trkpt lat="45.2471" lon="6.31635">
        <ele>848.1</ele>
        <time>2022-06-18T06:56:12Z</time>
      </trkpt>
      <trkpt lat="45.24715" lon="6.31625">
        <ele>847.9</ele>
        <time>2022-06-18T06:56:13Z</time>
      </trkpt>
      <trkpt lat="45.24719" lon="6.31615">
        <ele>847.7</ele>
        <time>2022-06-18T06:56:14Z</time>
      </trkpt>
      <trkpt lat="45.24724" lon="6.31605">
        <ele>847.4</ele>
        <time>2022-06-18T06:56:15Z</time>
      </trkpt>
      <trkpt lat="45.24729" lon="6.31597">
        <ele>847.1</ele>
        <time>2022-06-18T06:56:16Z</time>
      </trkpt>
      <trkpt lat="45.24735" lon="6.31588">
        <ele>846.7</ele>
        <time>2022-06-18T06:56:17Z</time>
      </trkpt>
      <trkpt lat="45.24741" lon="6.3158">
        <ele>846.2</ele>
        <time>2022-06-18T06:56:18Z</time>
      </trkpt>
      <trkpt lat="45.24749" lon="6.31574">
        <ele>845.7</ele>
        <time>2022-06-18T06:56:19Z</time>
      </trkpt>
      <trkpt lat="45.24758" lon="6.3157">
        <ele>845.1</ele>
        <time>2022-06-18T06:56:20Z</time>
      </trkpt>
      <trkpt lat="45.24767" lon="6.31565">
        <ele>844.6</ele>
        <time>2022-06-18T06:56:21Z</time>
      </trkpt>
      <trkpt lat="45.24777" lon="6.3156">
        <ele>844.1</ele>
        <time>2022-06-18T06:56:22Z</time>
      </trkpt>
      <trkpt lat="45.24786" lon="6.31554">
        <ele>843.6</ele>
        <time>2022-06-18T06:56:23Z</time>
      </trkpt>
      <trkpt lat="45.24795" lon="6.31548">
        <ele>843.2</ele>
        <time>2022-06-18T06:56:24Z</time>
      </trkpt>
      <trkpt lat="45.24805" lon="6.31545">
        <ele>842.8</ele>
        <time>2022-06-18T06:56:25Z</time>
      </trkpt>
      <trkpt lat="45.24814" lon="6.31544">
        <ele>842.3</ele>
        <time>2022-06-18T06:56:26Z</time>
      </trkpt>
      <trkpt lat="45.24825" lon="6.31546">
        <ele>841.8</ele>
        <time>2022-06-18T06:56:27Z</time>
      </trkpt>
      <trkpt lat="45.24834" lon="6.31549">
        <ele>841.3</ele>
        <time>2022-06-18T06:56:28Z</time>
      </trkpt>
      <trkpt lat="45.24844" lon="6.3155">
        <ele>840.9</ele>
        <time>2022-06-18T06:56:29Z</time>
      </trkpt>
      <trkpt lat="45.24854" lon="6.31549">
        <ele>840.5</ele>
        <time>2022-06-18T06:56:30Z</time>
      </trkpt>
      <trkpt lat="45.24864" lon="6.31545">
        <ele>840.2</ele>
        <time>2022-06-18T06:56:31Z</time>
      </trkpt>
      <trkpt lat="45.24873" lon="6.31542">
        <ele>840</ele>
        <time>2022-06-18T06:56:32Z</time>
      </trkpt>
      <trkpt lat="45.24883" lon="6.31542">
        <ele>839.9</ele>
        <time>2022-06-18T06:56:33Z</time>
      </trkpt>
      <trkpt lat="45.24893" lon="6.31545">
        <ele>839.8</ele>
        <time>2022-06-18T06:56:34Z</time>
      </trkpt>
      <trkpt lat="45.24901" lon="6.31552">
        <ele>839.9</ele>
        <time>2022-06-18T06:56:35Z</time>
      </trkpt>
      <trkpt lat="45.24908" lon="6.3156">
        <ele>840</ele>
        <time>2022-06-18T06:56:36Z</time>
      </trkpt>
      <trkpt lat="45.24915" lon="6.31569">
        <ele>840.3</ele>
        <time>2022-06-18T06:56:37Z</time>
      </trkpt>
      <trkpt lat="45.24922" lon="6.31577">
        <ele>840.5</ele>
        <time>2022-06-18T06:56:38Z</time>
      </trkpt>
      <trkpt lat="45.24929" lon="6.31585">
        <ele>840.7</ele>
        <time>2022-06-18T06:56:39Z</time>
      </trkpt>
      <trkpt lat="45.24936" lon="6.31592">
        <ele>841</ele>
        <time>2022-06-18T06:56:40Z</time>
      </trkpt>
      <trkpt lat="45.24942" lon="6.31599">
        <ele>841.3</ele>
        <time>2022-06-18T06:56:41Z</time>
      </trkpt>
      <trkpt lat="45.24948" lon="6.31606">
        <ele>841.7</ele>
        <time>2022-06-18T06:56:42Z</time>
      </trkpt>
      <trkpt lat="45.24954" lon="6.31612">
        <ele>842.1</ele>
        <time>2022-06-18T06:56:43Z</time>
      </trkpt>
      <trkpt lat="45.2496" lon="6.31619">
        <ele>842.5</ele>
        <time>2022-06-18T06:56:44Z</time>
      </trkpt>
      <trkpt lat="45.24965" lon="6.31624">
        <ele>842.8</ele>
        <time>2022-06-18T06:56:45Z</time>
      </trkpt>
      <trkpt lat="45.24971" lon="6.31627">
        <ele>843.2</ele>
        <time>2022-06-18T06:56:46Z</time>
      </trkpt>
      <trkpt lat="45.24978" lon="6.31629">
        <ele>843.4</ele>
        <time>2022-06-18T06:56:47Z</time>
      </trkpt>
      <trkpt lat="45.24984" lon="6.31629">
        <ele>843.7</ele>
        <time>2022-06-18T06:56:48Z</time>
      </trkpt>
      <trkpt lat="45.24991" lon="6.31627">
        <ele>843.8</ele>
        <time>2022-06-18T06:56:49Z</time>
      </trkpt>
      <trkpt lat="45.24998" lon="6.31623">
        <ele>843.9</ele>
        <time>2022-06-18T06:56:50Z</time>
      </trkpt>
      <trkpt lat="45.25005" lon="6.31618">
        <ele>843.9</ele>
        <time>2022-06-18T06:56:51Z</time>
      </trkpt>
      <trkpt lat="45.25012" lon="6.31613">
        <ele>843.8</ele>
        <time>2022-06-18T06:56:52Z</time>
      </trkpt>
      <trkpt lat="45.25019" lon="6.31607">
        <ele>843.6</ele>
        <time>2022-06-18T06:56:53Z</time>
      </trkpt>
      <trkpt lat="45.25027" lon="6.31602">
        <ele>843.4</ele>
        <time>2022-06-18T06:56:54Z</time>
      </trkpt>
      <trkpt lat="45.25034" lon="6.31597">
        <ele>843.1</ele>
        <time>2022-06-18T06:56:55Z</time>
      </trkpt>
      <trkpt lat="45.25041" lon="6.3159">
        <ele>842.8</ele>
        <time>2022-06-18T06:56:56Z</time>
      </trkpt>
      <trkpt lat="45.25048" lon="6.31584">
        <ele>842.4</ele>
        <time>2022-06-18T06:56:57Z</time>
      </trkpt>
      <trkpt lat="45.25056" lon="6.31579">
        <ele>842</ele>
        <time>2022-06-18T06:56:58Z</time>
      </trkpt>
      <trkpt lat="45.25065" lon="6.3158">
        <ele>841.5</ele>
        <time>2022-06-18T06:56:59Z</time>
      </trkpt>
      <trkpt lat="45.25073" lon="6.31587">
        <ele>841.1</ele>
        <time>2022-06-18T06:57:00Z</time>
      </trkpt>
      <trkpt lat="45.25079" lon="6.31601">
        <ele>840.5</ele>
        <time>2022-06-18T06:57:01Z</time>
      </trkpt>
      <trkpt lat="45.25081" lon="6.31619">
        <ele>840</ele>
        <time>2022-06-18T06:57:02Z</time>
      </trkpt>
      <trkpt lat="45.25081" lon="6.31637">
        <ele>839.6</ele>
        <time>2022-06-18T06:57:03Z</time>
      </trkpt>
      <trkpt lat="45.25079" lon="6.31653">
        <ele>839.5</ele>
        <time>2022-06-18T06:57:04Z</time>
      </trkpt>
      <trkpt lat="45.25077" lon="6.31667">
        <ele>839.5</ele>
        <time>2022-06-18T06:57:05Z</time>
      </trkpt>
      <trkpt lat="45.25075" lon="6.31679">
        <ele>839.6</ele>
        <time>2022-06-18T06:57:06Z</time>
      </trkpt>
      <trkpt lat="45.25076" lon="6.3169">
        <ele>839.7</ele>
        <time>2022-06-18T06:57:07Z</time>
      </trkpt>
      <trkpt lat="45.25079" lon="6.317">
        <ele>839.9</ele>
        <time>2022-06-18T06:57:08Z</time>
      </trkpt>
      <trkpt lat="45.25084" lon="6.31708">
        <ele>840.1</ele>
        <time>2022-06-18T06:57:09Z</time>
      </trkpt>
      <trkpt lat="45.2509" lon="6.31715">
        <ele>840.3</ele>
        <time>2022-06-18T06:57:10Z</time>
      </trkpt>
      <trkpt lat="45.25096" lon="6.31721">
        <ele>840.7</ele>
        <time>2022-06-18T06:57:11Z</time>
      </trkpt>
      <trkpt lat="45.25104" lon="6.31724">
        <ele>841.2</ele>
        <time>2022-06-18T06:57:12Z</time>
      </trkpt>
      <trkpt lat="45.25111" lon="6.31727">
        <ele>841.7</ele>
        <time>2022-06-18T06:57:13Z</time>
      </trkpt>
      <trkpt lat="45.25119" lon="6.31727">
        <ele>842.2</ele>
        <time>2022-06-18T06:57:14Z</time>
      </trkpt>
      <trkpt lat="45.25125" lon="6.31726">
        <ele>842.7</ele>
        <time>2022-06-18T06:57:15Z</time>
      </trkpt>
      <trkpt lat="45.25132" lon="6.31726">
        <ele>843.3</ele>
        <time>2022-06-18T06:57:16Z</time>
      </trkpt>
      <trkpt lat="45.25138" lon="6.31725">
        <ele>843.8</ele>
        <time>2022-06-18T06:57:17Z</time>
      </trkpt>
      <trkpt lat="45.25143" lon="6.31724">
        <ele>844.3</ele>
        <time>2022-06-18T06:57:18Z</time>
      </trkpt>
      <trkpt lat="45.25148" lon="6.31723">
        <ele>844.8</ele>
        <time>2022-06-18T06:57:19Z</time>
      </trkpt>
      <trkpt lat="45.25153" lon="6.31722">
        <ele>845.3</ele>
        <time>2022-06-18T06:57:20Z</time>
      </trkpt>
      <trkpt lat="45.25157" lon="6.31721">
        <ele>845.8</ele>
        <time>2022-06-18T06:57:21Z</time>
      </trkpt>
      <trkpt lat="45.25162" lon="6.31721">
        <ele>846.2</ele>
        <time>2022-06-18T06:57:22Z</time>
      </trkpt>
      <trkpt lat="45.25163" lon="6.3172">
        <ele>846.4</ele>
        <time>2022-06-18T06:57:23Z</time>
      </trkpt>
      <trkpt lat="45.25168" lon="6.31719">
        <ele>846.8</ele>
        <time>2022-06-18T06:57:24Z</time>
      </trkpt>
      <trkpt lat="45.25171" lon="6.31718">
        <ele>847.1</ele>
        <time>2022-06-18T06:57:25Z</time>
      </trkpt>
      <trkpt lat="45.25175" lon="6.31716">
        <ele>847.5</ele>
        <time>2022-06-18T06:57:26Z</time>
      </trkpt>
      <trkpt lat="45.25178" lon="6.31715">
        <ele>847.9</ele>
        <time>2022-06-18T06:57:27Z</time>
      </trkpt>
      <trkpt lat="45.25183" lon="6.31712">
        <ele>848.3</ele>
        <time>2022-06-18T06:57:28Z</time>
      </trkpt>
      <trkpt lat="45.25187" lon="6.31708">
        <ele>848.8</ele>
        <time>2022-06-18T06:57:30Z</time>
      </trkpt>
      <trkpt lat="45.25192" lon="6.31704">
        <ele>849.3</ele>
        <time>2022-06-18T06:57:31Z</time>
      </trkpt>
      <trkpt lat="45.25196" lon="6.317">
        <ele>849.7</ele>
        <time>2022-06-18T06:57:32Z</time>
      </trkpt>
      <trkpt lat="45.252" lon="6.31693">
        <ele>850.3</ele>
        <time>2022-06-18T06:57:34Z</time>
      </trkpt>
      <trkpt lat="45.25203" lon="6.31687">
        <ele>850.7</ele>
        <time>2022-06-18T06:57:35Z</time>
      </trkpt>
      <trkpt lat="45.25206" lon="6.31683">
        <ele>851</ele>
        <time>2022-06-18T06:57:36Z</time>
      </trkpt>
      <trkpt lat="45.25209" lon="6.31677">
        <ele>851.5</ele>
        <time>2022-06-18T06:57:38Z</time>
      </trkpt>
      <trkpt lat="45.25212" lon="6.3167">
        <ele>852</ele>
        <time>2022-06-18T06:57:39Z</time>
      </trkpt>
      <trkpt lat="45.25214" lon="6.31666">
        <ele>852.3</ele>
        <time>2022-06-18T06:57:40Z</time>
      </trkpt>
      <trkpt lat="45.25216" lon="6.3166">
        <ele>852.7</ele>
        <time>2022-06-18T06:57:42Z</time>
      </trkpt>
      <trkpt lat="45.25219" lon="6.31655">
        <ele>853.1</ele>
        <time>2022-06-18T06:57:43Z</time>
      </trkpt>
      <trkpt lat="45.25222" lon="6.3165">
        <ele>853.5</ele>
        <time>2022-06-18T06:57:44Z</time>
      </trkpt>
      <trkpt lat="45.25225" lon="6.31646">
        <ele>853.9</ele>
        <time>2022-06-18T06:57:45Z</time>
      </trkpt>
      <trkpt lat="45.25229" lon="6.31644">
        <ele>854.3</ele>
        <time>2022-06-18T06:57:46Z</time>
      </trkpt>
      <trkpt lat="45.25234" lon="6.31642">
        <ele>854.8</ele>
        <time>2022-06-18T06:57:47Z</time>
      </trkpt>
      <trkpt lat="45.25238" lon="6.31643">
        <ele>855.3</ele>
        <time>2022-06-18T06:57:48Z</time>
      </trkpt>
      <trkpt lat="45.25243" lon="6.31646">
        <ele>855.8</ele>
        <time>2022-06-18T06:57:49Z</time>
      </trkpt>
      <trkpt lat="45.25249" lon="6.31651">
        <ele>856.4</ele>
        <time>2022-06-18T06:57:51Z</time>
      </trkpt>
      <trkpt lat="45.25253" lon="6.31654">
        <ele>856.8</ele>
        <time>2022-06-18T06:57:52Z</time>
      </trkpt>
      <trkpt lat="45.25258" lon="6.31659">
        <ele>857.4</ele>
        <time>2022-06-18T06:57:53Z</time>
      </trkpt>
      <trkpt lat="45.25265" lon="6.31663">
        <ele>858.1</ele>
        <time>2022-06-18T06:57:55Z</time>
      </trkpt>
      <trkpt lat="45.25269" lon="6.31665">
        <ele>858.4</ele>
        <time>2022-06-18T06:57:56Z</time>
      </trkpt>
      <trkpt lat="45.25275" lon="6.31667">
        <ele>858.9</ele>
        <time>2022-06-18T06:57:57Z</time>
      </trkpt>
      <trkpt lat="45.25279" lon="6.31668">
        <ele>859.2</ele>
        <time>2022-06-18T06:57:58Z</time>
      </trkpt>
      <trkpt lat="45.25282" lon="6.31669">
        <ele>859.5</ele>
        <time>2022-06-18T06:57:59Z</time>
      </trkpt>
      <trkpt lat="45.25285" lon="6.31669">
        <ele>859.8</ele>
        <time>2022-06-18T06:58:00Z</time>
      </trkpt>
      <trkpt lat="45.25289" lon="6.31671">
        <ele>860.1</ele>
        <time>2022-06-18T06:58:01Z</time>
      </trkpt>
      <trkpt lat="45.25292" lon="6.31672">
        <ele>860.3</ele>
        <time>2022-06-18T06:58:02Z</time>
      </trkpt>
      <trkpt lat="45.25296" lon="6.31673">
        <ele>860.6</ele>
        <time>2022-06-18T06:58:03Z</time>
      </trkpt>
      <trkpt lat="45.25302" lon="6.31674">
        <ele>861.1</ele>
        <time>2022-06-18T06:58:04Z</time>
      </trkpt>
      <trkpt lat="45.25305" lon="6.31676">
        <ele>861.4</ele>
        <time>2022-06-18T06:58:05Z</time>
      </trkpt>
      <trkpt lat="45.2531" lon="6.31678">
        <ele>861.8</ele>
        <time>2022-06-18T06:58:06Z</time>
      </trkpt>
      <trkpt lat="45.25317" lon="6.31682">
        <ele>862.4</ele>
        <time>2022-06-18T06:58:08Z</time>
      </trkpt>
      <trkpt lat="45.25323" lon="6.31685">
        <ele>863</ele>
        <time>2022-06-18T06:58:09Z</time>
      </trkpt>
      <trkpt lat="45.25328" lon="6.31689">
        <ele>863.4</ele>
        <time>2022-06-18T06:58:11Z</time>
      </trkpt>
      <trkpt lat="45.25331" lon="6.31692">
        <ele>863.7</ele>
        <time>2022-06-18T06:58:12Z</time>
      </trkpt>
      <trkpt lat="45.25335" lon="6.31697">
        <ele>864.2</ele>
        <time>2022-06-18T06:58:13Z</time>
      </trkpt>
      <trkpt lat="45.25338" lon="6.31702">
        <ele>864.6</ele>
        <time>2022-06-18T06:58:14Z</time>
      </trkpt>
      <trkpt lat="45.2534" lon="6.31706">
        <ele>864.9</ele>
        <time>2022-06-18T06:58:15Z</time>
      </trkpt>
      <trkpt lat="45.25342" lon="6.31714">
        <ele>865.5</ele>
        <time>2022-06-18T06:58:16Z</time>
      </trkpt>
      <trkpt lat="45.25344" lon="6.31722">
        <ele>865.9</ele>
        <time>2022-06-18T06:58:17Z</time>
      </trkpt>
      <trkpt lat="45.25345" lon="6.31729">
        <ele>866.2</ele>
        <time>2022-06-18T06:58:18Z</time>
      </trkpt>
      <trkpt lat="45.25346" lon="6.31735">
        <ele>866.6</ele>
        <time>2022-06-18T06:58:19Z</time>
      </trkpt>
      <trkpt lat="45.25347" lon="6.31739">
        <ele>866.7</ele>
        <time>2022-06-18T06:58:20Z</time>
      </trkpt>
      <trkpt lat="45.25347" lon="6.31746">
        <ele>867</ele>
        <time>2022-06-18T06:58:22Z</time>
      </trkpt>
      <trkpt lat="45.25351" lon="6.31755">
        <ele>867.3</ele>
        <time>2022-06-18T06:58:23Z</time>
      </trkpt>
      <trkpt lat="45.25355" lon="6.31765">
        <ele>867.5</ele>
        <time>2022-06-18T06:58:24Z</time>
      </trkpt>
      <trkpt lat="45.25359" lon="6.3177">
        <ele>867.5</ele>
        <time>2022-06-18T06:58:25Z</time>
      </trkpt>
      <trkpt lat="45.25363" lon="6.31775">
        <ele>867.5</ele>
        <time>2022-06-18T06:58:26Z</time>
      </trkpt>
      <trkpt lat="45.25367" lon="6.3178">
        <ele>867.4</ele>
        <time>2022-06-18T06:58:27Z</time>
      </trkpt>
      <trkpt lat="45.25371" lon="6.31785">
        <ele>867.4</ele>
        <time>2022-06-18T06:58:28Z</time>
      </trkpt>
      <trkpt lat="45.25375" lon="6.3179">
        <ele>867.3</ele>
        <time>2022-06-18T06:58:29Z</time>
      </trkpt>
      <trkpt lat="45.25379" lon="6.31794">
        <ele>867.3</ele>
        <time>2022-06-18T06:58:30Z</time>
      </trkpt>
      <trkpt lat="45.25383" lon="6.31799">
        <ele>867.3</ele>
        <time>2022-06-18T06:58:31Z</time>
      </trkpt>
      <trkpt lat="45.25387" lon="6.31805">
        <ele>867.2</ele>
        <time>2022-06-18T06:58:32Z</time>
      </trkpt>
      <trkpt lat="45.25391" lon="6.3181">
        <ele>867.2</ele>
        <time>2022-06-18T06:58:33Z</time>
      </trkpt>
      <trkpt lat="45.25395" lon="6.31816">
        <ele>867.2</ele>
        <time>2022-06-18T06:58:34Z</time>
      </trkpt>
      <trkpt lat="45.254" lon="6.31821">
        <ele>867.1</ele>
        <time>2022-06-18T06:58:35Z</time>
      </trkpt>
      <trkpt lat="45.25404" lon="6.31826">
        <ele>867.1</ele>
        <time>2022-06-18T06:58:36Z</time>
      </trkpt>
      <trkpt lat="45.25408" lon="6.31832">
        <ele>867.1</ele>
        <time>2022-06-18T06:58:37Z</time>
      </trkpt>
      <trkpt lat="45.25413" lon="6.31837">
        <ele>867</ele>
        <time>2022-06-18T06:58:38Z</time>
      </trkpt>
      <trkpt lat="45.25418" lon="6.31843">
        <ele>866.9</ele>
        <time>2022-06-18T06:58:39Z</time>
      </trkpt>
      <trkpt lat="45.25422" lon="6.31848">
        <ele>866.9</ele>
        <time>2022-06-18T06:58:40Z</time>
      </trkpt>
      <trkpt lat="45.25427" lon="6.31852">
        <ele>866.8</ele>
        <time>2022-06-18T06:58:41Z</time>
      </trkpt>
      <trkpt lat="45.25432" lon="6.31856">
        <ele>866.6</ele>
        <time>2022-06-18T06:58:42Z</time>
      </trkpt>
      <trkpt lat="45.25439" lon="6.31859">
        <ele>866.5</ele>
        <time>2022-06-18T06:58:43Z</time>
      </trkpt>
      <trkpt lat="45.25445" lon="6.31862">
        <ele>866.3</ele>
        <time>2022-06-18T06:58:44Z</time>
      </trkpt>
      <trkpt lat="45.25452" lon="6.31864">
        <ele>866</ele>
        <time>2022-06-18T06:58:45Z</time>
      </trkpt>
      <trkpt lat="45.25459" lon="6.31865">
        <ele>865.8</ele>
        <time>2022-06-18T06:58:46Z</time>
      </trkpt>
      <trkpt lat="45.25467" lon="6.31865">
        <ele>865.5</ele>
        <time>2022-06-18T06:58:47Z</time>
      </trkpt>
      <trkpt lat="45.25474" lon="6.31865">
        <ele>865.2</ele>
        <time>2022-06-18T06:58:48Z</time>
      </trkpt>
      <trkpt lat="45.25483" lon="6.31863">
        <ele>864.9</ele>
        <time>2022-06-18T06:58:49Z</time>
      </trkpt>
      <trkpt lat="45.25491" lon="6.31861">
        <ele>864.4</ele>
        <time>2022-06-18T06:58:50Z</time>
      </trkpt>
      <trkpt lat="45.25499" lon="6.31856">
        <ele>863.9</ele>
        <time>2022-06-18T06:58:51Z</time>
      </trkpt>
      <trkpt lat="45.25508" lon="6.3185">
        <ele>863.4</ele>
        <time>2022-06-18T06:58:52Z</time>
      </trkpt>
      <trkpt lat="45.25515" lon="6.31842">
        <ele>862.9</ele>
        <time>2022-06-18T06:58:53Z</time>
      </trkpt>
      <trkpt lat="45.25522" lon="6.31832">
        <ele>862.3</ele>
        <time>2022-06-18T06:58:54Z</time>
      </trkpt>
      <trkpt lat="45.25528" lon="6.3182">
        <ele>861.8</ele>
        <time>2022-06-18T06:58:55Z</time>
      </trkpt>
      <trkpt lat="45.25535" lon="6.31808">
        <ele>861.2</ele>
        <time>2022-06-18T06:58:56Z</time>
      </trkpt>
      <trkpt lat="45.25542" lon="6.31799">
        <ele>860.7</ele>
        <time>2022-06-18T06:58:57Z</time>
      </trkpt>
      <trkpt lat="45.25552" lon="6.31793">
        <ele>860</ele>
        <time>2022-06-18T06:58:58Z</time>
      </trkpt>
      <trkpt lat="45.25561" lon="6.31791">
        <ele>859.3</ele>
        <time>2022-06-18T06:58:59Z</time>
      </trkpt>
      <trkpt lat="45.25569" lon="6.31793">
        <ele>858.6</ele>
        <time>2022-06-18T06:59:00Z</time>
      </trkpt>
      <trkpt lat="45.25577" lon="6.31801">
        <ele>857.7</ele>
        <time>2022-06-18T06:59:01Z</time>
      </trkpt>
      <trkpt lat="45.25583" lon="6.31814">
        <ele>856.6</ele>
        <time>2022-06-18T06:59:02Z</time>
      </trkpt>
      <trkpt lat="45.25586" lon="6.31832">
        <ele>855.4</ele>
        <time>2022-06-18T06:59:03Z</time>
      </trkpt>
      <trkpt lat="45.25588" lon="6.31852">
        <ele>854.2</ele>
        <time>2022-06-18T06:59:04Z</time>
      </trkpt>
      <trkpt lat="45.25592" lon="6.3187">
        <ele>853</ele>
        <time>2022-06-18T06:59:05Z</time>
      </trkpt>
      <trkpt lat="45.25597" lon="6.31884">
        <ele>851.9</ele>
        <time>2022-06-18T06:59:06Z</time>
      </trkpt>
      <trkpt lat="45.25604" lon="6.31895">
        <ele>850.8</ele>
        <time>2022-06-18T06:59:07Z</time>
      </trkpt>
      <trkpt lat="45.25613" lon="6.31905">
        <ele>849.7</ele>
        <time>2022-06-18T06:59:08Z</time>
      </trkpt>
      <trkpt lat="45.25623" lon="6.31914">
        <ele>848.4</ele>
        <time>2022-06-18T06:59:09Z</time>
      </trkpt>
      <trkpt lat="45.25633" lon="6.31922">
        <ele>847.2</ele>
        <time>2022-06-18T06:59:10Z</time>
      </trkpt>
      <trkpt lat="45.25644" lon="6.31931">
        <ele>845.9</ele>
        <time>2022-06-18T06:59:11Z</time>
      </trkpt>
      <trkpt lat="45.25654" lon="6.31941">
        <ele>844.4</ele>
        <time>2022-06-18T06:59:12Z</time>
      </trkpt>
      <trkpt lat="45.25665" lon="6.3195">
        <ele>843.1</ele>
        <time>2022-06-18T06:59:13Z</time>
      </trkpt>
      <trkpt lat="45.25676" lon="6.31961">
        <ele>841.6</ele>
        <time>2022-06-18T06:59:14Z</time>
      </trkpt>
      <trkpt lat="45.25688" lon="6.31971">
        <ele>840.1</ele>
        <time>2022-06-18T06:59:15Z</time>
      </trkpt>
      <trkpt lat="45.25699" lon="6.31982">
        <ele>838.5</ele>
        <time>2022-06-18T06:59:16Z</time>
      </trkpt>
      <trkpt lat="45.25711" lon="6.31993">
        <ele>836.8</ele>
        <time>2022-06-18T06:59:17Z</time>
      </trkpt>
      <trkpt lat="45.25722" lon="6.32005">
        <ele>835.1</ele>
        <time>2022-06-18T06:59:18Z</time>
      </trkpt>
      <trkpt lat="45.25733" lon="6.32017">
        <ele>833.3</ele>
        <time>2022-06-18T06:59:19Z</time>
      </trkpt>
      <trkpt lat="45.25744" lon="6.32031">
        <ele>831.5</ele>
        <time>2022-06-18T06:59:20Z</time>
      </trkpt>
      <trkpt lat="45.25754" lon="6.32046">
        <ele>829.6</ele>
        <time>2022-06-18T06:59:21Z</time>
      </trkpt>
      <trkpt lat="45.25764" lon="6.32062">
        <ele>827.8</ele>
        <time>2022-06-18T06:59:22Z</time>
      </trkpt>
      <trkpt lat="45.25774" lon="6.32078">
        <ele>826</ele>
        <time>2022-06-18T06:59:23Z</time>
      </trkpt>
      <trkpt lat="45.25783" lon="6.32095">
        <ele>824.2</ele>
        <time>2022-06-18T06:59:24Z</time>
      </trkpt>
      <trkpt lat="45.25793" lon="6.32111">
        <ele>822.5</ele>
        <time>2022-06-18T06:59:25Z</time>
      </trkpt>
      <trkpt lat="45.25803" lon="6.32127">
        <ele>820.8</ele>
        <time>2022-06-18T06:59:26Z</time>
      </trkpt>
      <trkpt lat="45.25813" lon="6.32143">
        <ele>819.2</ele>
        <time>2022-06-18T06:59:27Z</time>
      </trkpt>
      <trkpt lat="45.25824" lon="6.32158">
        <ele>817.5</ele>
        <time>2022-06-18T06:59:28Z</time>
      </trkpt>
      <trkpt lat="45.25834" lon="6.32174">
        <ele>815.9</ele>
        <time>2022-06-18T06:59:29Z</time>
      </trkpt>
      <trkpt lat="45.25845" lon="6.32189">
        <ele>814.1</ele>
        <time>2022-06-18T06:59:30Z</time>
      </trkpt>
      <trkpt lat="45.25856" lon="6.32204">
        <ele>812.3</ele>
        <time>2022-06-18T06:59:31Z</time>
      </trkpt>
      <trkpt lat="45.25867" lon="6.32218">
        <ele>810.6</ele>
        <time>2022-06-18T06:59:32Z</time>
      </trkpt>
      <trkpt lat="45.25877" lon="6.32232">
        <ele>809</ele>
        <time>2022-06-18T06:59:33Z</time>
      </trkpt>
      <trkpt lat="45.25888" lon="6.32246">
        <ele>807.3</ele>
        <time>2022-06-18T06:59:34Z</time>
      </trkpt>
      <trkpt lat="45.25899" lon="6.32261">
        <ele>805.7</ele>
        <time>2022-06-18T06:59:35Z</time>
      </trkpt>
      <trkpt lat="45.2591" lon="6.32275">
        <ele>804.1</ele>
        <time>2022-06-18T06:59:36Z</time>
      </trkpt>
      <trkpt lat="45.25921" lon="6.3229">
        <ele>802.5</ele>
        <time>2022-06-18T06:59:37Z</time>
      </trkpt>
      <trkpt lat="45.25933" lon="6.32305">
        <ele>800.9</ele>
        <time>2022-06-18T06:59:38Z</time>
      </trkpt>
      <trkpt lat="45.25945" lon="6.32319">
        <ele>799.3</ele>
        <time>2022-06-18T06:59:39Z</time>
      </trkpt>
      <trkpt lat="45.25956" lon="6.32334">
        <ele>797.7</ele>
        <time>2022-06-18T06:59:40Z</time>
      </trkpt>
      <trkpt lat="45.25967" lon="6.3235">
        <ele>796.1</ele>
        <time>2022-06-18T06:59:41Z</time>
      </trkpt>
      <trkpt lat="45.25977" lon="6.32366">
        <ele>794.4</ele>
        <time>2022-06-18T06:59:42Z</time>
      </trkpt>
      <trkpt lat="45.25985" lon="6.32383">
        <ele>792.8</ele>
        <time>2022-06-18T06:59:43Z</time>
      </trkpt>
      <trkpt lat="45.25994" lon="6.32401">
        <ele>791.5</ele>
        <time>2022-06-18T06:59:44Z</time>
      </trkpt>
      <trkpt lat="45.26003" lon="6.32419">
        <ele>790.1</ele>
        <time>2022-06-18T06:59:45Z</time>
      </trkpt>
      <trkpt lat="45.26012" lon="6.32436">
        <ele>788.7</ele>
        <time>2022-06-18T06:59:46Z</time>
      </trkpt>
      <trkpt lat="45.26022" lon="6.32451">
        <ele>787.4</ele>
        <time>2022-06-18T06:59:47Z</time>
      </trkpt>
      <trkpt lat="45.26033" lon="6.32467">
        <ele>786.1</ele>
        <time>2022-06-18T06:59:48Z</time>
      </trkpt>
      <trkpt lat="45.26044" lon="6.32483">
        <ele>784.8</ele>
        <time>2022-06-18T06:59:49Z</time>
      </trkpt>
      <trkpt lat="45.26055" lon="6.32498">
        <ele>783.5</ele>
        <time>2022-06-18T06:59:50Z</time>
      </trkpt>
      <trkpt lat="45.26067" lon="6.32515">
        <ele>782.2</ele>
        <time>2022-06-18T06:59:51Z</time>
      </trkpt>
      <trkpt lat="45.26077" lon="6.32532">
        <ele>780.9</ele>
        <time>2022-06-18T06:59:52Z</time>
      </trkpt>
      <trkpt lat="45.26087" lon="6.3255">
        <ele>779.6</ele>
        <time>2022-06-18T06:59:53Z</time>
      </trkpt>
      <trkpt lat="45.26097" lon="6.32569">
        <ele>778.1</ele>
        <time>2022-06-18T06:59:54Z</time>
      </trkpt>
      <trkpt lat="45.26107" lon="6.32587">
        <ele>776.6</ele>
        <time>2022-06-18T06:59:55Z</time>
      </trkpt>
      <trkpt lat="45.26118" lon="6.32604">
        <ele>775.1</ele>
        <time>2022-06-18T06:59:56Z</time>
      </trkpt>
      <trkpt lat="45.2613" lon="6.32619">
        <ele>773.5</ele>
        <time>2022-06-18T06:59:57Z</time>
      </trkpt>
      <trkpt lat="45.26143" lon="6.32633">
        <ele>771.9</ele>
        <time>2022-06-18T06:59:58Z</time>
      </trkpt>
      <trkpt lat="45.26157" lon="6.32645">
        <ele>770.2</ele>
        <time>2022-06-18T06:59:59Z</time>
      </trkpt>
      <trkpt lat="45.26171" lon="6.32658">
        <ele>768.6</ele>
        <time>2022-06-18T07:00:00Z</time>
      </trkpt>
      <trkpt lat="45.26184" lon="6.32671">
        <ele>767</ele>
        <time>2022-06-18T07:00:01Z</time>
      </trkpt>
      <trkpt lat="45.26196" lon="6.32686">
        <ele>765.5</ele>
        <time>2022-06-18T07:00:02Z</time>
      </trkpt>
      <trkpt lat="45.26208" lon="6.327">
        <ele>764</ele>
        <time>2022-06-18T07:00:03Z</time>
      </trkpt>
      <trkpt lat="45.2622" lon="6.32715">
        <ele>762.5</ele>
        <time>2022-06-18T07:00:04Z</time>
      </trkpt>
      <trkpt lat="45.26232" lon="6.32731">
        <ele>761</ele>
        <time>2022-06-18T07:00:05Z</time>
      </trkpt>
      <trkpt lat="45.26245" lon="6.32746">
        <ele>759.6</ele>
        <time>2022-06-18T07:00:06Z</time>
      </trkpt>
      <trkpt lat="45.26258" lon="6.32761">
        <ele>758.1</ele>
        <time>2022-06-18T07:00:07Z</time>
      </trkpt>
      <trkpt lat="45.2627" lon="6.32777">
        <ele>756.8</ele>
        <time>2022-06-18T07:00:08Z</time>
      </trkpt>
      <trkpt lat="45.26282" lon="6.32791">
        <ele>755.5</ele>
        <time>2022-06-18T07:00:09Z</time>
      </trkpt>
      <trkpt lat="45.26294" lon="6.32804">
        <ele>754.1</ele>
        <time>2022-06-18T07:00:10Z</time>
      </trkpt>
      <trkpt lat="45.26306" lon="6.32815">
        <ele>752.8</ele>
        <time>2022-06-18T07:00:11Z</time>
      </trkpt>
      <trkpt lat="45.26319" lon="6.32824">
        <ele>751.4</ele>
        <time>2022-06-18T07:00:12Z</time>
      </trkpt>
      <trkpt lat="45.26334" lon="6.32831">
        <ele>750</ele>
        <time>2022-06-18T07:00:13Z</time>
      </trkpt>
      <trkpt lat="45.26348" lon="6.32837">
        <ele>748.7</ele>
        <time>2022-06-18T07:00:14Z</time>
      </trkpt>
      <trkpt lat="45.26363" lon="6.32843">
        <ele>747.4</ele>
        <time>2022-06-18T07:00:15Z</time>
      </trkpt>
      <trkpt lat="45.26378" lon="6.3285">
        <ele>745.9</ele>
        <time>2022-06-18T07:00:16Z</time>
      </trkpt>
      <trkpt lat="45.26393" lon="6.32858">
        <ele>744.3</ele>
        <time>2022-06-18T07:00:17Z</time>
      </trkpt>
      <trkpt lat="45.26407" lon="6.32869">
        <ele>742.7</ele>
        <time>2022-06-18T07:00:18Z</time>
      </trkpt>
      <trkpt lat="45.2642" lon="6.32883">
        <ele>740.9</ele>
        <time>2022-06-18T07:00:19Z</time>
      </trkpt>
      <trkpt lat="45.26433" lon="6.32898">
        <ele>739.3</ele>
        <time>2022-06-18T07:00:20Z</time>
      </trkpt>
      <trkpt lat="45.26445" lon="6.32914">
        <ele>737.7</ele>
        <time>2022-06-18T07:00:21Z</time>
      </trkpt>
      <trkpt lat="45.26458" lon="6.32929">
        <ele>736.1</ele>
        <time>2022-06-18T07:00:22Z</time>
      </trkpt>
      <trkpt lat="45.26471" lon="6.32943">
        <ele>734.5</ele>
        <time>2022-06-18T07:00:23Z</time>
      </trkpt>
      <trkpt lat="45.26484" lon="6.32957">
        <ele>732.9</ele>
        <time>2022-06-18T07:00:24Z</time>
      </trkpt>
      <trkpt lat="45.26497" lon="6.3297">
        <ele>731.1</ele>
        <time>2022-06-18T07:00:25Z</time>
      </trkpt>
      <trkpt lat="45.2651" lon="6.32983">
        <ele>729.5</ele>
        <time>2022-06-18T07:00:26Z</time>
      </trkpt>
      <trkpt lat="45.26524" lon="6.32996">
        <ele>727.9</ele>
        <time>2022-06-18T07:00:27Z</time>
      </trkpt>
      <trkpt lat="45.26537" lon="6.33008">
        <ele>726.4</ele>
        <time>2022-06-18T07:00:28Z</time>
      </trkpt>
      <trkpt lat="45.2655" lon="6.3302">
        <ele>724.8</ele>
        <time>2022-06-18T07:00:29Z</time>
      </trkpt>
      <trkpt lat="45.26563" lon="6.33033">
        <ele>723.2</ele>
        <time>2022-06-18T07:00:30Z</time>
      </trkpt>
      <trkpt lat="45.26576" lon="6.33044">
        <ele>721.7</ele>
        <time>2022-06-18T07:00:31Z</time>
      </trkpt>
      <trkpt lat="45.26589" lon="6.33053">
        <ele>720.4</ele>
        <time>2022-06-18T07:00:32Z</time>
      </trkpt>
      <trkpt lat="45.266" lon="6.33058">
        <ele>719.2</ele>
        <time>2022-06-18T07:00:33Z</time>
      </trkpt>
      <trkpt lat="45.26612" lon="6.33061">
        <ele>718</ele>
        <time>2022-06-18T07:00:34Z</time>
      </trkpt>
      <trkpt lat="45.26623" lon="6.33061">
        <ele>716.9</ele>
        <time>2022-06-18T07:00:35Z</time>
      </trkpt>
      <trkpt lat="45.26635" lon="6.33061">
        <ele>715.8</ele>
        <time>2022-06-18T07:00:36Z</time>
      </trkpt>
      <trkpt lat="45.26648" lon="6.33063">
        <ele>714.7</ele>
        <time>2022-06-18T07:00:37Z</time>
      </trkpt>
      <trkpt lat="45.2666" lon="6.33069">
        <ele>713.6</ele>
        <time>2022-06-18T07:00:38Z</time>
      </trkpt>
      <trkpt lat="45.26672" lon="6.33077">
        <ele>712.5</ele>
        <time>2022-06-18T07:00:39Z</time>
      </trkpt>
      <trkpt lat="45.26685" lon="6.33086">
        <ele>711.4</ele>
        <time>2022-06-18T07:00:40Z</time>
      </trkpt>
      <trkpt lat="45.26697" lon="6.33096">
        <ele>710.3</ele>
        <time>2022-06-18T07:00:41Z</time>
      </trkpt>
      <trkpt lat="45.26709" lon="6.33106">
        <ele>709.1</ele>
        <time>2022-06-18T07:00:42Z</time>
      </trkpt>
      <trkpt lat="45.26719" lon="6.33119">
        <ele>707.8</ele>
        <time>2022-06-18T07:00:43Z</time>
      </trkpt>
      <trkpt lat="45.26726" lon="6.33135">
        <ele>706.3</ele>
        <time>2022-06-18T07:00:44Z</time>
      </trkpt>
      <trkpt lat="45.26731" lon="6.33154">
        <ele>704.8</ele>
        <time>2022-06-18T07:00:45Z</time>
      </trkpt>
      <trkpt lat="45.26734" lon="6.33174">
        <ele>703.3</ele>
        <time>2022-06-18T07:00:46Z</time>
      </trkpt>
      <trkpt lat="45.26738" lon="6.33194">
        <ele>701.8</ele>
        <time>2022-06-18T07:00:47Z</time>
      </trkpt>
      <trkpt lat="45.26741" lon="6.33214">
        <ele>700.5</ele>
        <time>2022-06-18T07:00:48Z</time>
      </trkpt>
      <trkpt lat="45.26745" lon="6.33233">
        <ele>699.3</ele>
        <time>2022-06-18T07:00:49Z</time>
      </trkpt>
      <trkpt lat="45.26749" lon="6.33252">
        <ele>698.1</ele>
        <time>2022-06-18T07:00:50Z</time>
      </trkpt>
      <trkpt lat="45.26755" lon="6.3327">
        <ele>696.9</ele>
        <time>2022-06-18T07:00:51Z</time>
      </trkpt>
      <trkpt lat="45.2676" lon="6.33288">
        <ele>695.8</ele>
        <time>2022-06-18T07:00:52Z</time>
      </trkpt>
      <trkpt lat="45.26767" lon="6.33306">
        <ele>694.6</ele>
        <time>2022-06-18T07:00:53Z</time>
      </trkpt>
      <trkpt lat="45.26773" lon="6.33324">
        <ele>693.4</ele>
        <time>2022-06-18T07:00:54Z</time>
      </trkpt>
      <trkpt lat="45.26779" lon="6.33342">
        <ele>692.2</ele>
        <time>2022-06-18T07:00:55Z</time>
      </trkpt>
      <trkpt lat="45.26785" lon="6.33361">
        <ele>690.9</ele>
        <time>2022-06-18T07:00:56Z</time>
      </trkpt>
      <trkpt lat="45.26793" lon="6.33379">
        <ele>689.7</ele>
        <time>2022-06-18T07:00:57Z</time>
      </trkpt>
      <trkpt lat="45.26801" lon="6.33395">
        <ele>688.5</ele>
        <time>2022-06-18T07:00:58Z</time>
      </trkpt>
      <trkpt lat="45.26811" lon="6.33411">
        <ele>687.3</ele>
        <time>2022-06-18T07:00:59Z</time>
      </trkpt>
      <trkpt lat="45.26821" lon="6.33426">
        <ele>686.3</ele>
        <time>2022-06-18T07:01:00Z</time>
      </trkpt>
      <trkpt lat="45.26831" lon="6.33441">
        <ele>685.4</ele>
        <time>2022-06-18T07:01:01Z</time>
      </trkpt>
      <trkpt lat="45.26841" lon="6.33455">
        <ele>684.6</ele>
        <time>2022-06-18T07:01:02Z</time>
      </trkpt>
      <trkpt lat="45.26851" lon="6.33469">
        <ele>684</ele>
        <time>2022-06-18T07:01:03Z</time>
      </trkpt>
      <trkpt lat="45.26861" lon="6.33484">
        <ele>683.5</ele>
        <time>2022-06-18T07:01:04Z</time>
      </trkpt>
      <trkpt lat="45.2687" lon="6.33499">
        <ele>683.1</ele>
        <time>2022-06-18T07:01:05Z</time>
      </trkpt>
      <trkpt lat="45.26877" lon="6.33515">
        <ele>682.8</ele>
        <time>2022-06-18T07:01:06Z</time>
      </trkpt>
      <trkpt lat="45.26883" lon="6.33532">
        <ele>682.5</ele>
        <time>2022-06-18T07:01:07Z</time>
      </trkpt>
      <trkpt lat="45.26887" lon="6.33549">
        <ele>682.1</ele>
        <time>2022-06-18T07:01:08Z</time>
      </trkpt>
      <trkpt lat="45.26892" lon="6.33565">
        <ele>681.8</ele>
        <time>2022-06-18T07:01:09Z</time>
      </trkpt>
      <trkpt lat="45.26897" lon="6.33579">
        <ele>681.4</ele>
        <time>2022-06-18T07:01:10Z</time>
      </trkpt>
      <trkpt lat="45.26904" lon="6.33591">
        <ele>680.9</ele>
        <time>2022-06-18T07:01:11Z</time>
      </trkpt>
      <trkpt lat="45.26914" lon="6.33601">
        <ele>680.3</ele>
        <time>2022-06-18T07:01:12Z</time>
      </trkpt>
      <trkpt lat="45.26924" lon="6.3361">
        <ele>679.7</ele>
        <time>2022-06-18T07:01:13Z</time>
      </trkpt>
      <trkpt lat="45.26936" lon="6.33617">
        <ele>679</ele>
        <time>2022-06-18T07:01:14Z</time>
      </trkpt>
      <trkpt lat="45.26949" lon="6.33622">
        <ele>678.2</ele>
        <time>2022-06-18T07:01:15Z</time>
      </trkpt>
      <trkpt lat="45.26962" lon="6.33626">
        <ele>677.4</ele>
        <time>2022-06-18T07:01:16Z</time>
      </trkpt>
      <trkpt lat="45.26974" lon="6.33628">
        <ele>676.7</ele>
        <time>2022-06-18T07:01:17Z</time>
      </trkpt>
      <trkpt lat="45.26987" lon="6.33629">
        <ele>675.9</ele>
        <time>2022-06-18T07:01:18Z</time>
      </trkpt>
      <trkpt lat="45.27" lon="6.33631">
        <ele>675</ele>
        <time>2022-06-18T07:01:19Z</time>
      </trkpt>
      <trkpt lat="45.27014" lon="6.33632">
        <ele>674</ele>
        <time>2022-06-18T07:01:20Z</time>
      </trkpt>
      <trkpt lat="45.27027" lon="6.33635">
        <ele>672.9</ele>
        <time>2022-06-18T07:01:21Z</time>
      </trkpt>
      <trkpt lat="45.2704" lon="6.33638">
        <ele>671.9</ele>
        <time>2022-06-18T07:01:22Z</time>
      </trkpt>
      <trkpt lat="45.27054" lon="6.33641">
        <ele>670.9</ele>
        <time>2022-06-18T07:01:23Z</time>
      </trkpt>
      <trkpt lat="45.27067" lon="6.33644">
        <ele>670</ele>
        <time>2022-06-18T07:01:24Z</time>
      </trkpt>
      <trkpt lat="45.27081" lon="6.33647">
        <ele>669.1</ele>
        <time>2022-06-18T07:01:25Z</time>
      </trkpt>
      <trkpt lat="45.27093" lon="6.33651">
        <ele>668.2</ele>
        <time>2022-06-18T07:01:26Z</time>
      </trkpt>
      <trkpt lat="45.27103" lon="6.33656">
        <ele>667.4</ele>
        <time>2022-06-18T07:01:27Z</time>
      </trkpt>
      <trkpt lat="45.27109" lon="6.33663">
        <ele>666.8</ele>
        <time>2022-06-18T07:01:28Z</time>
      </trkpt>
      <trkpt lat="45.27113" lon="6.33674">
        <ele>666</ele>
        <time>2022-06-18T07:01:29Z</time>
      </trkpt>
      <trkpt lat="45.27113" lon="6.33689">
        <ele>664.8</ele>
        <time>2022-06-18T07:01:30Z</time>
      </trkpt>
      <trkpt lat="45.27111" lon="6.33706">
        <ele>662.9</ele>
        <time>2022-06-18T07:01:31Z</time>
      </trkpt>
      <trkpt lat="45.27109" lon="6.33723">
        <ele>661</ele>
        <time>2022-06-18T07:01:32Z</time>
      </trkpt>
      <trkpt lat="45.27108" lon="6.3374">
        <ele>659.2</ele>
        <time>2022-06-18T07:01:33Z</time>
      </trkpt>
      <trkpt lat="45.27106" lon="6.33756">
        <ele>657.8</ele>
        <time>2022-06-18T07:01:34Z</time>
      </trkpt>
      <trkpt lat="45.27101" lon="6.33772">
        <ele>656.4</ele>
        <time>2022-06-18T07:01:35Z</time>
      </trkpt>
      <trkpt lat="45.27094" lon="6.33786">
        <ele>655</ele>
        <time>2022-06-18T07:01:36Z</time>
      </trkpt>
      <trkpt lat="45.27085" lon="6.33799">
        <ele>653.5</ele>
        <time>2022-06-18T07:01:37Z</time>
      </trkpt>
      <trkpt lat="45.27076" lon="6.33813">
        <ele>652.2</ele>
        <time>2022-06-18T07:01:38Z</time>
      </trkpt>
      <trkpt lat="45.27069" lon="6.33829">
        <ele>651.3</ele>
        <time>2022-06-18T07:01:39Z</time>
      </trkpt>
      <trkpt lat="45.27063" lon="6.33845">
        <ele>650.4</ele>
        <time>2022-06-18T07:01:40Z</time>
      </trkpt>
      <trkpt lat="45.27058" lon="6.3386">
        <ele>649.5</ele>
        <time>2022-06-18T07:01:41Z</time>
      </trkpt>
      <trkpt lat="45.2705" lon="6.33871">
        <ele>648.6</ele>
        <time>2022-06-18T07:01:42Z</time>
      </trkpt>
      <trkpt lat="45.27041" lon="6.33878">
        <ele>647.8</ele>
        <time>2022-06-18T07:01:43Z</time>
      </trkpt>
      <trkpt lat="45.27029" lon="6.33879">
        <ele>646.9</ele>
        <time>2022-06-18T07:01:44Z</time>
      </trkpt>
      <trkpt lat="45.27016" lon="6.33873">
        <ele>646</ele>
        <time>2022-06-18T07:01:45Z</time>
      </trkpt>
      <trkpt lat="45.27005" lon="6.33865">
        <ele>645.2</ele>
        <time>2022-06-18T07:01:46Z</time>
      </trkpt>
      <trkpt lat="45.26995" lon="6.33856">
        <ele>644.5</ele>
        <time>2022-06-18T07:01:47Z</time>
      </trkpt>
      <trkpt lat="45.26988" lon="6.3385">
        <ele>643.9</ele>
        <time>2022-06-18T07:01:48Z</time>
      </trkpt>
      <trkpt lat="45.26982" lon="6.33848">
        <ele>643.5</ele>
        <time>2022-06-18T07:01:49Z</time>
      </trkpt>
      <trkpt lat="45.26978" lon="6.3385">
        <ele>643.1</ele>
        <time>2022-06-18T07:01:50Z</time>
      </trkpt>
      <trkpt lat="45.26976" lon="6.33858">
        <ele>642.6</ele>
        <time>2022-06-18T07:01:51Z</time>
      </trkpt>
      <trkpt lat="45.26977" lon="6.3387">
        <ele>641.9</ele>
        <time>2022-06-18T07:01:52Z</time>
      </trkpt>
      <trkpt lat="45.26982" lon="6.33882">
        <ele>641</ele>
        <time>2022-06-18T07:01:53Z</time>
      </trkpt>
      <trkpt lat="45.26989" lon="6.33891">
        <ele>640.1</ele>
        <time>2022-06-18T07:01:54Z</time>
      </trkpt>
      <trkpt lat="45.26998" lon="6.33896">
        <ele>639.3</ele>
        <time>2022-06-18T07:01:55Z</time>
      </trkpt>
      <trkpt lat="45.27009" lon="6.339">
        <ele>638.2</ele>
        <time>2022-06-18T07:01:56Z</time>
      </trkpt>
      <trkpt lat="45.27021" lon="6.33903">
        <ele>637.1</ele>
        <time>2022-06-18T07:01:57Z</time>
      </trkpt>
      <trkpt lat="45.27033" lon="6.33907">
        <ele>636.1</ele>
        <time>2022-06-18T07:01:58Z</time>
      </trkpt>
      <trkpt lat="45.27044" lon="6.3391">
        <ele>635</ele>
        <time>2022-06-18T07:01:59Z</time>
      </trkpt>
      <trkpt lat="45.27056" lon="6.33914">
        <ele>634</ele>
        <time>2022-06-18T07:02:00Z</time>
      </trkpt>
      <trkpt lat="45.27067" lon="6.33919">
        <ele>633</ele>
        <time>2022-06-18T07:02:01Z</time>
      </trkpt>
      <trkpt lat="45.27078" lon="6.33925">
        <ele>633.3</ele>
        <time>2022-06-18T07:02:02Z</time>
      </trkpt>
      <trkpt lat="45.2709" lon="6.33932">
        <ele>632.3</ele>
        <time>2022-06-18T07:02:03Z</time>
      </trkpt>
      <trkpt lat="45.27101" lon="6.33939">
        <ele>631.2</ele>
        <time>2022-06-18T07:02:04Z</time>
      </trkpt>
      <trkpt lat="45.27113" lon="6.33947">
        <ele>631.2</ele>
        <time>2022-06-18T07:02:05Z</time>
      </trkpt>
      <trkpt lat="45.27125" lon="6.33955">
        <ele>630.1</ele>
        <time>2022-06-18T07:02:06Z</time>
      </trkpt>
      <trkpt lat="45.27136" lon="6.33963">
        <ele>628.8</ele>
        <time>2022-06-18T07:02:07Z</time>
      </trkpt>
      <trkpt lat="45.27148" lon="6.33971">
        <ele>627.4</ele>
        <time>2022-06-18T07:02:08Z</time>
      </trkpt>
      <trkpt lat="45.2716" lon="6.3398">
        <ele>626</ele>
        <time>2022-06-18T07:02:09Z</time>
      </trkpt>
      <trkpt lat="45.27173" lon="6.33987">
        <ele>624.5</ele>
        <time>2022-06-18T07:02:10Z</time>
      </trkpt>
      <trkpt lat="45.27185" lon="6.33994">
        <ele>623.1</ele>
        <time>2022-06-18T07:02:11Z</time>
      </trkpt>
      <trkpt lat="45.27197" lon="6.34002">
        <ele>621.9</ele>
        <time>2022-06-18T07:02:12Z</time>
      </trkpt>
      <trkpt lat="45.27208" lon="6.3401">
        <ele>620.7</ele>
        <time>2022-06-18T07:02:13Z</time>
      </trkpt>
      <trkpt lat="45.27218" lon="6.34018">
        <ele>619.7</ele>
        <time>2022-06-18T07:02:14Z</time>
      </trkpt>
      <trkpt lat="45.27225" lon="6.34027">
        <ele>618.7</ele>
        <time>2022-06-18T07:02:15Z</time>
      </trkpt>
      <trkpt lat="45.27231" lon="6.34039">
        <ele>617.7</ele>
        <time>2022-06-18T07:02:16Z</time>
      </trkpt>
      <trkpt lat="45.27237" lon="6.34052">
        <ele>616.7</ele>
        <time>2022-06-18T07:02:17Z</time>
      </trkpt>
      <trkpt lat="45.27241" lon="6.34067">
        <ele>615.6</ele>
        <time>2022-06-18T07:02:18Z</time>
      </trkpt>
      <trkpt lat="45.27245" lon="6.34082">
        <ele>614.5</ele>
        <time>2022-06-18T07:02:19Z</time>
      </trkpt>
      <trkpt lat="45.27247" lon="6.34098">
        <ele>614</ele>
        <time>2022-06-18T07:02:20Z</time>
      </trkpt>
      <trkpt lat="45.27246" lon="6.34114">
        <ele>611.8</ele>
        <time>2022-06-18T07:02:21Z</time>
      </trkpt>
      <trkpt lat="45.27244" lon="6.3413">
        <ele>610.8</ele>
        <time>2022-06-18T07:02:22Z</time>
      </trkpt>
      <trkpt lat="45.27242" lon="6.34146">
        <ele>609.8</ele>
        <time>2022-06-18T07:02:23Z</time>
      </trkpt>
      <trkpt lat="45.27239" lon="6.34163">
        <ele>608.8</ele>
        <time>2022-06-18T07:02:24Z</time>
      </trkpt>
      <trkpt lat="45.27237" lon="6.3418">
        <ele>607.7</ele>
        <time>2022-06-18T07:02:25Z</time>
      </trkpt>
      <trkpt lat="45.27235" lon="6.34197">
        <ele>606.7</ele>
        <time>2022-06-18T07:02:26Z</time>
      </trkpt>
      <trkpt lat="45.27233" lon="6.34212">
        <ele>605.7</ele>
        <time>2022-06-18T07:02:27Z</time>
      </trkpt>
      <trkpt lat="45.27231" lon="6.34228">
        <ele>604.8</ele>
        <time>2022-06-18T07:02:28Z</time>
      </trkpt>
      <trkpt lat="45.2723" lon="6.34243">
        <ele>603.9</ele>
        <time>2022-06-18T07:02:29Z</time>
      </trkpt>
      <trkpt lat="45.27228" lon="6.34259">
        <ele>602.9</ele>
        <time>2022-06-18T07:02:30Z</time>
      </trkpt>
      <trkpt lat="45.27227" lon="6.34276">
        <ele>602</ele>
        <time>2022-06-18T07:02:31Z</time>
      </trkpt>
      <trkpt lat="45.27225" lon="6.34293">
        <ele>601</ele>
        <time>2022-06-18T07:02:32Z</time>
      </trkpt>
      <trkpt lat="45.27223" lon="6.3431">
        <ele>600</ele>
        <time>2022-06-18T07:02:33Z</time>
      </trkpt>
      <trkpt lat="45.27221" lon="6.34327">
        <ele>599.1</ele>
        <time>2022-06-18T07:02:34Z</time>
      </trkpt>
      <trkpt lat="45.27219" lon="6.34341">
        <ele>598.3</ele>
        <time>2022-06-18T07:02:35Z</time>
      </trkpt>
      <trkpt lat="45.27218" lon="6.34354">
        <ele>597.6</ele>
        <time>2022-06-18T07:02:36Z</time>
      </trkpt>
      <trkpt lat="45.27216" lon="6.34363">
        <ele>597.1</ele>
        <time>2022-06-18T07:02:37Z</time>
      </trkpt>
      <trkpt lat="45.27214" lon="6.34371">
        <ele>597.1</ele>
        <time>2022-06-18T07:02:38Z</time>
      </trkpt>
      <trkpt lat="45.2721" lon="6.34378">
        <ele>597.3</ele>
        <time>2022-06-18T07:02:39Z</time>
      </trkpt>
      <trkpt lat="45.27208" lon="6.34386">
        <ele>597.2</ele>
        <time>2022-06-18T07:02:40Z</time>
      </trkpt>
      <trkpt lat="45.27209" lon="6.34395">
        <ele>597.2</ele>
        <time>2022-06-18T07:02:41Z</time>
      </trkpt>
      <trkpt lat="45.27215" lon="6.34402">
        <ele>597.1</ele>
        <time>2022-06-18T07:02:42Z</time>
      </trkpt>
      <trkpt lat="45.27222" lon="6.34409">
        <ele>595.2</ele>
        <time>2022-06-18T07:02:43Z</time>
      </trkpt>
      <trkpt lat="45.27229" lon="6.34417">
        <ele>593.7</ele>
        <time>2022-06-18T07:02:44Z</time>
      </trkpt>
      <trkpt lat="45.27236" lon="6.34427">
        <ele>592</ele>
        <time>2022-06-18T07:02:45Z</time>
      </trkpt>
      <trkpt lat="45.27244" lon="6.34437">
        <ele>591.5</ele>
        <time>2022-06-18T07:02:46Z</time>
      </trkpt>
      <trkpt lat="45.27252" lon="6.34447">
        <ele>591.2</ele>
        <time>2022-06-18T07:02:47Z</time>
      </trkpt>
      <trkpt lat="45.2726" lon="6.34458">
        <ele>591</ele>
        <time>2022-06-18T07:02:48Z</time>
      </trkpt>
      <trkpt lat="45.27267" lon="6.34468">
        <ele>590.9</ele>
        <time>2022-06-18T07:02:49Z</time>
      </trkpt>
      <trkpt lat="45.27273" lon="6.34479">
        <ele>590.8</ele>
        <time>2022-06-18T07:02:50Z</time>
      </trkpt>
      <trkpt lat="45.27278" lon="6.34488">
        <ele>590.6</ele>
        <time>2022-06-18T07:02:51Z</time>
      </trkpt>
      <trkpt lat="45.27282" lon="6.34496">
        <ele>590.4</ele>
        <time>2022-06-18T07:02:52Z</time>
      </trkpt>
      <trkpt lat="45.27283" lon="6.34505">
        <ele>590.1</ele>
        <time>2022-06-18T07:02:53Z</time>
      </trkpt>
      <trkpt lat="45.27285" lon="6.34512">
        <ele>589.7</ele>
        <time>2022-06-18T07:02:54Z</time>
      </trkpt>
      <trkpt lat="45.27287" lon="6.34518">
        <ele>589.7</ele>
        <time>2022-06-18T07:02:55Z</time>
      </trkpt>
      <trkpt lat="45.27292" lon="6.34522">
        <ele>589.6</ele>
        <time>2022-06-18T07:02:56Z</time>
      </trkpt>
      <trkpt lat="45.27297" lon="6.34524">
        <ele>589</ele>
        <time>2022-06-18T07:02:57Z</time>
      </trkpt>
      <trkpt lat="45.27302" lon="6.34526">
        <ele>588.3</ele>
        <time>2022-06-18T07:02:58Z</time>
      </trkpt>
      <trkpt lat="45.27306" lon="6.34529">
        <ele>587.5</ele>
        <time>2022-06-18T07:02:59Z</time>
      </trkpt>
      <trkpt lat="45.27311" lon="6.34534">
        <ele>586.6</ele>
        <time>2022-06-18T07:03:00Z</time>
      </trkpt>
      <trkpt lat="45.27316" lon="6.34541">
        <ele>585.4</ele>
        <time>2022-06-18T07:03:01Z</time>
      </trkpt>
      <trkpt lat="45.27321" lon="6.34551">
        <ele>584.1</ele>
        <time>2022-06-18T07:03:02Z</time>
      </trkpt>
      <trkpt lat="45.27325" lon="6.34562">
        <ele>582.8</ele>
        <time>2022-06-18T07:03:03Z</time>
      </trkpt>
      <trkpt lat="45.2733" lon="6.34573">
        <ele>581.9</ele>
        <time>2022-06-18T07:03:04Z</time>
      </trkpt>
      <trkpt lat="45.27337" lon="6.34584">
        <ele>581</ele>
        <time>2022-06-18T07:03:05Z</time>
      </trkpt>
      <trkpt lat="45.27344" lon="6.34595">
        <ele>580</ele>
        <time>2022-06-18T07:03:06Z</time>
      </trkpt>
      <trkpt lat="45.27351" lon="6.34606">
        <ele>579</ele>
        <time>2022-06-18T07:03:07Z</time>
      </trkpt>
      <trkpt lat="45.27359" lon="6.34618">
        <ele>578</ele>
        <time>2022-06-18T07:03:08Z</time>
      </trkpt>
      <trkpt lat="45.27368" lon="6.3463">
        <ele>577</ele>
        <time>2022-06-18T07:03:09Z</time>
      </trkpt>
      <trkpt lat="45.27376" lon="6.34641">
        <ele>576.1</ele>
        <time>2022-06-18T07:03:10Z</time>
      </trkpt>
      <trkpt lat="45.27384" lon="6.34652">
        <ele>575.3</ele>
        <time>2022-06-18T07:03:11Z</time>
      </trkpt>
      <trkpt lat="45.27391" lon="6.34662">
        <ele>574.7</ele>
        <time>2022-06-18T07:03:12Z</time>
      </trkpt>
      <trkpt lat="45.27398" lon="6.3467">
        <ele>574.1</ele>
        <time>2022-06-18T07:03:13Z</time>
      </trkpt>
      <trkpt lat="45.27404" lon="6.34679">
        <ele>573.5</ele>
        <time>2022-06-18T07:03:14Z</time>
      </trkpt>
      <trkpt lat="45.27411" lon="6.34689">
        <ele>573</ele>
        <time>2022-06-18T07:03:15Z</time>
      </trkpt>
      <trkpt lat="45.27417" lon="6.34699">
        <ele>572.5</ele>
        <time>2022-06-18T07:03:16Z</time>
      </trkpt>
      <trkpt lat="45.27424" lon="6.3471">
        <ele>572.1</ele>
        <time>2022-06-18T07:03:17Z</time>
      </trkpt>
      <trkpt lat="45.2743" lon="6.34721">
        <ele>571.7</ele>
        <time>2022-06-18T07:03:18Z</time>
      </trkpt>
      <trkpt lat="45.27437" lon="6.34732">
        <ele>571.5</ele>
        <time>2022-06-18T07:03:19Z</time>
      </trkpt>
      <trkpt lat="45.27443" lon="6.34741">
        <ele>571.3</ele>
        <time>2022-06-18T07:03:20Z</time>
      </trkpt>
      <trkpt lat="45.27449" lon="6.34749">
        <ele>571.2</ele>
        <time>2022-06-18T07:03:21Z</time>
      </trkpt>
      <trkpt lat="45.27455" lon="6.34757">
        <ele>571.1</ele>
        <time>2022-06-18T07:03:22Z</time>
      </trkpt>
      <trkpt lat="45.27461" lon="6.34762">
        <ele>571.1</ele>
        <time>2022-06-18T07:03:23Z</time>
      </trkpt>
      <trkpt lat="45.27466" lon="6.34765">
        <ele>571</ele>
        <time>2022-06-18T07:03:24Z</time>
      </trkpt>
      <trkpt lat="45.27471" lon="6.34765">
        <ele>571.2</ele>
        <time>2022-06-18T07:03:25Z</time>
      </trkpt>
      <trkpt lat="45.27476" lon="6.3476">
        <ele>571.4</ele>
        <time>2022-06-18T07:03:26Z</time>
      </trkpt>
      <trkpt lat="45.27481" lon="6.34753">
        <ele>571.5</ele>
        <time>2022-06-18T07:03:27Z</time>
      </trkpt>
      <trkpt lat="45.27485" lon="6.34744">
        <ele>571.7</ele>
        <time>2022-06-18T07:03:28Z</time>
      </trkpt>
      <trkpt lat="45.27488" lon="6.34735">
        <ele>571.8</ele>
        <time>2022-06-18T07:03:29Z</time>
      </trkpt>
      <trkpt lat="45.27492" lon="6.34728">
        <ele>572</ele>
        <time>2022-06-18T07:03:30Z</time>
      </trkpt>
      <trkpt lat="45.27497" lon="6.34721">
        <ele>572.1</ele>
        <time>2022-06-18T07:03:31Z</time>
      </trkpt>
      <trkpt lat="45.27501" lon="6.34715">
        <ele>572.3</ele>
        <time>2022-06-18T07:03:32Z</time>
      </trkpt>
      <trkpt lat="45.27505" lon="6.34709">
        <ele>572.5</ele>
        <time>2022-06-18T07:03:33Z</time>
      </trkpt>
      <trkpt lat="45.27509" lon="6.34704">
        <ele>572.7</ele>
        <time>2022-06-18T07:03:34Z</time>
      </trkpt>
      <trkpt lat="45.27513" lon="6.34699">
        <ele>572.9</ele>
        <time>2022-06-18T07:03:35Z</time>
      </trkpt>
      <trkpt lat="45.27517" lon="6.34693">
        <ele>573.1</ele>
        <time>2022-06-18T07:03:36Z</time>
      </trkpt>
      <trkpt lat="45.27521" lon="6.34688">
        <ele>573.2</ele>
        <time>2022-06-18T07:03:37Z</time>
      </trkpt>
      <trkpt lat="45.27525" lon="6.34682">
        <ele>573.4</ele>
        <time>2022-06-18T07:03:38Z</time>
      </trkpt>
      <trkpt lat="45.27529" lon="6.34676">
        <ele>573.5</ele>
        <time>2022-06-18T07:03:39Z</time>
      </trkpt>
      <trkpt lat="45.27532" lon="6.3467">
        <ele>573.5</ele>
        <time>2022-06-18T07:03:40Z</time>
      </trkpt>
      <trkpt lat="45.27536" lon="6.34664">
        <ele>573.6</ele>
        <time>2022-06-18T07:03:41Z</time>
      </trkpt>
      <trkpt lat="45.2754" lon="6.34658">
        <ele>573.6</ele>
        <time>2022-06-18T07:03:42Z</time>
      </trkpt>
      <trkpt lat="45.27544" lon="6.34653">
        <ele>573.6</ele>
        <time>2022-06-18T07:03:43Z</time>
      </trkpt>
      <trkpt lat="45.27548" lon="6.34647">
        <ele>573.6</ele>
        <time>2022-06-18T07:03:44Z</time>
      </trkpt>
      <trkpt lat="45.27553" lon="6.3464">
        <ele>573.6</ele>
        <time>2022-06-18T07:03:45Z</time>
      </trkpt>
      <trkpt lat="45.27558" lon="6.34634">
        <ele>573.6</ele>
        <time>2022-06-18T07:03:46Z</time>
      </trkpt>
      <trkpt lat="45.27563" lon="6.34629">
        <ele>573.6</ele>
        <time>2022-06-18T07:03:47Z</time>
      </trkpt>
      <trkpt lat="45.27568" lon="6.34623">
        <ele>573.6</ele>
        <time>2022-06-18T07:03:48Z</time>
      </trkpt>
      <trkpt lat="45.27574" lon="6.34617">
        <ele>573.5</ele>
        <time>2022-06-18T07:03:49Z</time>
      </trkpt>
      <trkpt lat="45.27579" lon="6.3461">
        <ele>573.5</ele>
        <time>2022-06-18T07:03:50Z</time>
      </trkpt>
      <trkpt lat="45.27585" lon="6.34604">
        <ele>573.5</ele>
        <time>2022-06-18T07:03:51Z</time>
      </trkpt>
      <trkpt lat="45.27591" lon="6.34598">
        <ele>573.4</ele>
        <time>2022-06-18T07:03:52Z</time>
      </trkpt>
      <trkpt lat="45.27597" lon="6.34592">
        <ele>573.4</ele>
        <time>2022-06-18T07:03:53Z</time>
      </trkpt>
      <trkpt lat="45.27603" lon="6.34587">
        <ele>573.3</ele>
        <time>2022-06-18T07:03:54Z</time>
      </trkpt>
      <trkpt lat="45.27609" lon="6.34582">
        <ele>573.3</ele>
        <time>2022-06-18T07:03:55Z</time>
      </trkpt>
      <trkpt lat="45.27615" lon="6.34578">
        <ele>573.2</ele>
        <time>2022-06-18T07:03:56Z</time>
      </trkpt>
      <trkpt lat="45.27622" lon="6.34575">
        <ele>573.2</ele>
        <time>2022-06-18T07:03:57Z</time>
      </trkpt>
      <trkpt lat="45.27629" lon="6.34573">
        <ele>573.1</ele>
        <time>2022-06-18T07:03:58Z</time>
      </trkpt>
      <trkpt lat="45.27635" lon="6.34569">
        <ele>573.1</ele>
        <time>2022-06-18T07:03:59Z</time>
      </trkpt>
      <trkpt lat="45.27641" lon="6.34565">
        <ele>573.1</ele>
        <time>2022-06-18T07:04:00Z</time>
      </trkpt>
      <trkpt lat="45.27646" lon="6.34559">
        <ele>573.1</ele>
        <time>2022-06-18T07:04:01Z</time>
      </trkpt>
      <trkpt lat="45.27651" lon="6.34553">
        <ele>573.1</ele>
        <time>2022-06-18T07:04:02Z</time>
      </trkpt>
      <trkpt lat="45.27656" lon="6.34549">
        <ele>572.7</ele>
        <time>2022-06-18T07:04:03Z</time>
      </trkpt>
      <trkpt lat="45.27661" lon="6.34547">
        <ele>572.4</ele>
        <time>2022-06-18T07:04:04Z</time>
      </trkpt>
      <trkpt lat="45.27668" lon="6.34549">
        <ele>572.1</ele>
        <time>2022-06-18T07:04:05Z</time>
      </trkpt>
      <trkpt lat="45.27674" lon="6.34552">
        <ele>571.7</ele>
        <time>2022-06-18T07:04:06Z</time>
      </trkpt>
      <trkpt lat="45.2768" lon="6.34556">
        <ele>571.3</ele>
        <time>2022-06-18T07:04:07Z</time>
      </trkpt>
      <trkpt lat="45.27687" lon="6.3456">
        <ele>570.9</ele>
        <time>2022-06-18T07:04:08Z</time>
      </trkpt>
      <trkpt lat="45.27694" lon="6.34564">
        <ele>570.4</ele>
        <time>2022-06-18T07:04:09Z</time>
      </trkpt>
      <trkpt lat="45.27701" lon="6.34568">
        <ele>570</ele>
        <time>2022-06-18T07:04:10Z</time>
      </trkpt>
      <trkpt lat="45.27707" lon="6.34571">
        <ele>569.6</ele>
        <time>2022-06-18T07:04:11Z</time>
      </trkpt>
      <trkpt lat="45.27714" lon="6.34576">
        <ele>569.1</ele>
        <time>2022-06-18T07:04:12Z</time>
      </trkpt>
      <trkpt lat="45.27721" lon="6.34582">
        <ele>568.7</ele>
        <time>2022-06-18T07:04:13Z</time>
      </trkpt>
      <trkpt lat="45.27728" lon="6.34589">
        <ele>568.2</ele>
        <time>2022-06-18T07:04:14Z</time>
      </trkpt>
      <trkpt lat="45.27734" lon="6.34595">
        <ele>567.8</ele>
        <time>2022-06-18T07:04:15Z</time>
      </trkpt>
      <trkpt lat="45.27739" lon="6.34601">
        <ele>567.4</ele>
        <time>2022-06-18T07:04:16Z</time>
      </trkpt>
      <trkpt lat="45.27744" lon="6.34606">
        <ele>567</ele>
        <time>2022-06-18T07:04:17Z</time>
      </trkpt>
      <trkpt lat="45.27746" lon="6.34609">
        <ele>566.8</ele>
        <time>2022-06-18T07:04:18Z</time>
      </trkpt>
      <trkpt lat="45.27749" lon="6.34613">
        <ele>566.9</ele>
        <time>2022-06-18T07:04:19Z</time>
      </trkpt>
      <trkpt lat="45.2775" lon="6.34615">
        <ele>566.8</ele>
        <time>2022-06-18T07:04:20Z</time>
      </trkpt>
      <trkpt lat="45.27753" lon="6.3462">
        <ele>566.6</ele>
        <time>2022-06-18T07:04:21Z</time>
      </trkpt>
      <trkpt lat="45.27757" lon="6.34627">
        <ele>566.3</ele>
        <time>2022-06-18T07:04:22Z</time>
      </trkpt>
      <trkpt lat="45.27762" lon="6.34631">
        <ele>566.2</ele>
        <time>2022-06-18T07:04:23Z</time>
      </trkpt>
      <trkpt lat="45.27768" lon="6.34631">
        <ele>566.2</ele>
        <time>2022-06-18T07:04:24Z</time>
      </trkpt>
      <trkpt lat="45.27774" lon="6.34626">
        <ele>566.2</ele>
        <time>2022-06-18T07:04:25Z</time>
      </trkpt>
      <trkpt lat="45.27779" lon="6.34616">
        <ele>566.2</ele>
        <time>2022-06-18T07:04:26Z</time>
      </trkpt>
      <trkpt lat="45.27783" lon="6.34605">
        <ele>566.1</ele>
        <time>2022-06-18T07:04:27Z</time>
      </trkpt>
      <trkpt lat="45.27785" lon="6.34595">
        <ele>566.1</ele>
        <time>2022-06-18T07:04:28Z</time>
      </trkpt>
      <trkpt lat="45.27787" lon="6.34588">
        <ele>566.1</ele>
        <time>2022-06-18T07:04:29Z</time>
      </trkpt>
      <trkpt lat="45.27789" lon="6.34581">
        <ele>566.1</ele>
        <time>2022-06-18T07:04:30Z</time>
      </trkpt>
      <trkpt lat="45.27791" lon="6.34574">
        <ele>566.1</ele>
        <time>2022-06-18T07:04:31Z</time>
      </trkpt>
      <trkpt lat="45.27791" lon="6.34568">
        <ele>566.1</ele>
        <time>2022-06-18T07:04:32Z</time>
      </trkpt>
      <trkpt lat="45.2779" lon="6.34561">
        <ele>566.2</ele>
        <time>2022-06-18T07:04:33Z</time>
      </trkpt>
      <trkpt lat="45.27789" lon="6.34555">
        <ele>566.2</ele>
        <time>2022-06-18T07:04:34Z</time>
      </trkpt>
      <trkpt lat="45.27788" lon="6.34548">
        <ele>566.2</ele>
        <time>2022-06-18T07:04:35Z</time>
      </trkpt>
      <trkpt lat="45.27788" lon="6.34543">
        <ele>566.2</ele>
        <time>2022-06-18T07:04:36Z</time>
      </trkpt>
      <trkpt lat="45.27788" lon="6.34539">
        <ele>566.2</ele>
        <time>2022-06-18T07:04:37Z</time>
      </trkpt>
      <trkpt lat="45.27789" lon="6.34534">
        <ele>566.2</ele>
        <time>2022-06-18T07:04:38Z</time>
      </trkpt>
      <trkpt lat="45.27792" lon="6.34529">
        <ele>566.2</ele>
        <time>2022-06-18T07:04:39Z</time>
      </trkpt>
      <trkpt lat="45.27794" lon="6.34523">
        <ele>566.2</ele>
        <time>2022-06-18T07:04:40Z</time>
      </trkpt>
      <trkpt lat="45.27797" lon="6.34516">
        <ele>566.2</ele>
        <time>2022-06-18T07:04:41Z</time>
      </trkpt>
      <trkpt lat="45.27799" lon="6.3451">
        <ele>566.2</ele>
        <time>2022-06-18T07:04:42Z</time>
      </trkpt>
      <trkpt lat="45.27801" lon="6.34503">
        <ele>566.3</ele>
        <time>2022-06-18T07:04:43Z</time>
      </trkpt>
      <trkpt lat="45.27803" lon="6.34497">
        <ele>566.3</ele>
        <time>2022-06-18T07:04:44Z</time>
      </trkpt>
      <trkpt lat="45.27804" lon="6.3449">
        <ele>566.4</ele>
        <time>2022-06-18T07:04:45Z</time>
      </trkpt>
      <trkpt lat="45.27806" lon="6.34483">
        <ele>566.4</ele>
        <time>2022-06-18T07:04:46Z</time>
      </trkpt>
      <trkpt lat="45.27808" lon="6.34476">
        <ele>566.5</ele>
        <time>2022-06-18T07:04:47Z</time>
      </trkpt>
      <trkpt lat="45.2781" lon="6.34468">
        <ele>566.6</ele>
        <time>2022-06-18T07:04:48Z</time>
      </trkpt>
      <trkpt lat="45.27812" lon="6.34461">
        <ele>566.8</ele>
        <time>2022-06-18T07:04:49Z</time>
      </trkpt>
      <trkpt lat="45.27815" lon="6.34453">
        <ele>566.9</ele>
        <time>2022-06-18T07:04:50Z</time>
      </trkpt>
      <trkpt lat="45.27816" lon="6.34446">
        <ele>567.1</ele>
        <time>2022-06-18T07:04:51Z</time>
      </trkpt>
      <trkpt lat="45.27818" lon="6.3444">
        <ele>567.3</ele>
        <time>2022-06-18T07:04:52Z</time>
      </trkpt>
      <trkpt lat="45.27817" lon="6.34434">
        <ele>567.4</ele>
        <time>2022-06-18T07:04:53Z</time>
      </trkpt>
      <trkpt lat="45.27817" lon="6.34428">
        <ele>567.5</ele>
        <time>2022-06-18T07:04:54Z</time>
      </trkpt>
      <trkpt lat="45.27817" lon="6.34423">
        <ele>567.6</ele>
        <time>2022-06-18T07:04:55Z</time>
      </trkpt>
      <trkpt lat="45.27817" lon="6.34421">
        <ele>567.5</ele>
        <time>2022-06-18T07:04:56Z</time>
      </trkpt>
      <trkpt lat="45.27819" lon="6.34421">
        <ele>567.4</ele>
        <time>2022-06-18T07:04:57Z</time>
      </trkpt>
      <trkpt lat="45.27822" lon="6.34424">
        <ele>567.2</ele>
        <time>2022-06-18T07:04:58Z</time>
      </trkpt>
      <trkpt lat="45.27824" lon="6.34428">
        <ele>566.9</ele>
        <time>2022-06-18T07:04:59Z</time>
      </trkpt>
      <trkpt lat="45.27824" lon="6.3443">
        <ele>566.9</ele>
        <time>2022-06-18T07:05:00Z</time>
      </trkpt>
      <trkpt lat="45.27827" lon="6.34433">
        <ele>566.7</ele>
        <time>2022-06-18T07:05:01Z</time>
      </trkpt>
      <trkpt lat="45.27834" lon="6.34439">
        <ele>566.1</ele>
        <time>2022-06-18T07:05:02Z</time>
      </trkpt>
      <trkpt lat="45.27839" lon="6.34444">
        <ele>565.7</ele>
        <time>2022-06-18T07:05:03Z</time>
      </trkpt>
      <trkpt lat="45.27844" lon="6.34448">
        <ele>565.4</ele>
        <time>2022-06-18T07:05:04Z</time>
      </trkpt>
      <trkpt lat="45.27849" lon="6.34452">
        <ele>565</ele>
        <time>2022-06-18T07:05:05Z</time>
      </trkpt>
      <trkpt lat="45.27854" lon="6.34456">
        <ele>564.6</ele>
        <time>2022-06-18T07:05:06Z</time>
      </trkpt>
      <trkpt lat="45.27859" lon="6.34459">
        <ele>564.2</ele>
        <time>2022-06-18T07:05:07Z</time>
      </trkpt>
      <trkpt lat="45.27865" lon="6.34463">
        <ele>563.8</ele>
        <time>2022-06-18T07:05:08Z</time>
      </trkpt>
      <trkpt lat="45.27871" lon="6.34468">
        <ele>563.4</ele>
        <time>2022-06-18T07:05:09Z</time>
      </trkpt>
      <trkpt lat="45.27876" lon="6.34473">
        <ele>562.9</ele>
        <time>2022-06-18T07:05:10Z</time>
      </trkpt>
      <trkpt lat="45.27882" lon="6.34478">
        <ele>562.5</ele>
        <time>2022-06-18T07:05:11Z</time>
      </trkpt>
      <trkpt lat="45.27886" lon="6.34483">
        <ele>562.2</ele>
        <time>2022-06-18T07:05:12Z</time>
      </trkpt>
      <trkpt lat="45.27891" lon="6.34487">
        <ele>561.8</ele>
        <time>2022-06-18T07:05:13Z</time>
      </trkpt>
      <trkpt lat="45.27894" lon="6.3449">
        <ele>561.6</ele>
        <time>2022-06-18T07:05:14Z</time>
      </trkpt>
      <trkpt lat="45.27897" lon="6.34493">
        <ele>561.3</ele>
        <time>2022-06-18T07:05:15Z</time>
      </trkpt>
      <trkpt lat="45.279" lon="6.34496">
        <ele>561.1</ele>
        <time>2022-06-18T07:05:16Z</time>
      </trkpt>
      <trkpt lat="45.27903" lon="6.34498">
        <ele>560.9</ele>
        <time>2022-06-18T07:05:17Z</time>
      </trkpt>
      <trkpt lat="45.27905" lon="6.345">
        <ele>560.8</ele>
        <time>2022-06-18T07:05:18Z</time>
      </trkpt>
      <trkpt lat="45.2791" lon="6.34504">
        <ele>560.3</ele>
        <time>2022-06-18T07:05:20Z</time>
      </trkpt>
      <trkpt lat="45.27917" lon="6.34508">
        <ele>559.9</ele>
        <time>2022-06-18T07:05:21Z</time>
      </trkpt>
      <trkpt lat="45.27922" lon="6.34512">
        <ele>559.5</ele>
        <time>2022-06-18T07:05:22Z</time>
      </trkpt>
      <trkpt lat="45.27927" lon="6.34517">
        <ele>559.1</ele>
        <time>2022-06-18T07:05:23Z</time>
      </trkpt>
      <trkpt lat="45.27932" lon="6.34521">
        <ele>558.7</ele>
        <time>2022-06-18T07:05:24Z</time>
      </trkpt>
      <trkpt lat="45.27938" lon="6.34526">
        <ele>558.4</ele>
        <time>2022-06-18T07:05:25Z</time>
      </trkpt>
      <trkpt lat="45.27942" lon="6.34531">
        <ele>558</ele>
        <time>2022-06-18T07:05:26Z</time>
      </trkpt>
      <trkpt lat="45.27946" lon="6.34535">
        <ele>557.7</ele>
        <time>2022-06-18T07:05:27Z</time>
      </trkpt>
      <trkpt lat="45.27949" lon="6.34541">
        <ele>557.4</ele>
        <time>2022-06-18T07:05:28Z</time>
      </trkpt>
      <trkpt lat="45.2795" lon="6.34548">
        <ele>557.3</ele>
        <time>2022-06-18T07:05:29Z</time>
      </trkpt>
      <trkpt lat="45.27949" lon="6.34558">
        <ele>556.9</ele>
        <time>2022-06-18T07:05:30Z</time>
      </trkpt>
      <trkpt lat="45.27949" lon="6.34567">
        <ele>556.1</ele>
        <time>2022-06-18T07:05:31Z</time>
      </trkpt>
      <trkpt lat="45.27951" lon="6.34575">
        <ele>555.9</ele>
        <time>2022-06-18T07:05:32Z</time>
      </trkpt>
      <trkpt lat="45.27957" lon="6.34579">
        <ele>555.9</ele>
        <time>2022-06-18T07:05:33Z</time>
      </trkpt>
      <trkpt lat="45.27965" lon="6.34578">
        <ele>555.9</ele>
        <time>2022-06-18T07:05:34Z</time>
      </trkpt>
      <trkpt lat="45.27972" lon="6.34577">
        <ele>555.8</ele>
        <time>2022-06-18T07:05:35Z</time>
      </trkpt>
      <trkpt lat="45.27979" lon="6.34577">
        <ele>555.7</ele>
        <time>2022-06-18T07:05:36Z</time>
      </trkpt>
      <trkpt lat="45.27985" lon="6.34581">
        <ele>555.5</ele>
        <time>2022-06-18T07:05:37Z</time>
      </trkpt>
      <trkpt lat="45.2799" lon="6.34587">
        <ele>555.3</ele>
        <time>2022-06-18T07:05:38Z</time>
      </trkpt>
      <trkpt lat="45.27995" lon="6.34593">
        <ele>555</ele>
        <time>2022-06-18T07:05:39Z</time>
      </trkpt>
      <trkpt lat="45.28001" lon="6.34598">
        <ele>554.7</ele>
        <time>2022-06-18T07:05:40Z</time>
      </trkpt>
      <trkpt lat="45.28007" lon="6.34604">
        <ele>554.3</ele>
        <time>2022-06-18T07:05:41Z</time>
      </trkpt>
      <trkpt lat="45.28013" lon="6.3461">
        <ele>553.8</ele>
        <time>2022-06-18T07:05:42Z</time>
      </trkpt>
      <trkpt lat="45.2802" lon="6.34616">
        <ele>553.4</ele>
        <time>2022-06-18T07:05:43Z</time>
      </trkpt>
      <trkpt lat="45.28027" lon="6.34622">
        <ele>552.8</ele>
        <time>2022-06-18T07:05:44Z</time>
      </trkpt>
      <trkpt lat="45.28034" lon="6.34629">
        <ele>552.3</ele>
        <time>2022-06-18T07:05:45Z</time>
      </trkpt>
      <trkpt lat="45.28042" lon="6.34635">
        <ele>551.7</ele>
        <time>2022-06-18T07:05:46Z</time>
      </trkpt>
      <trkpt lat="45.2805" lon="6.34642">
        <ele>551.1</ele>
        <time>2022-06-18T07:05:47Z</time>
      </trkpt>
      <trkpt lat="45.28058" lon="6.3465">
        <ele>550.5</ele>
        <time>2022-06-18T07:05:48Z</time>
      </trkpt>
      <trkpt lat="45.28066" lon="6.34658">
        <ele>549.8</ele>
        <time>2022-06-18T07:05:49Z</time>
      </trkpt>
      <trkpt lat="45.28074" lon="6.34667">
        <ele>549.1</ele>
        <time>2022-06-18T07:05:50Z</time>
      </trkpt>
      <trkpt lat="45.28082" lon="6.34675">
        <ele>548.5</ele>
        <time>2022-06-18T07:05:51Z</time>
      </trkpt>
      <trkpt lat="45.2809" lon="6.34683">
        <ele>547.9</ele>
        <time>2022-06-18T07:05:52Z</time>
      </trkpt>
      <trkpt lat="45.28098" lon="6.34691">
        <ele>547.3</ele>
        <time>2022-06-18T07:05:53Z</time>
      </trkpt>
      <trkpt lat="45.28106" lon="6.34699">
        <ele>547.2</ele>
        <time>2022-06-18T07:05:54Z</time>
      </trkpt>
      <trkpt lat="45.28114" lon="6.34706">
        <ele>546.9</ele>
        <time>2022-06-18T07:05:55Z</time>
      </trkpt>
      <trkpt lat="45.28122" lon="6.34714">
        <ele>546.4</ele>
        <time>2022-06-18T07:05:56Z</time>
      </trkpt>
      <trkpt lat="45.2813" lon="6.34723">
        <ele>545.9</ele>
        <time>2022-06-18T07:05:57Z</time>
      </trkpt>
      <trkpt lat="45.28139" lon="6.34732">
        <ele>545.4</ele>
        <time>2022-06-18T07:05:58Z</time>
      </trkpt>
      <trkpt lat="45.28148" lon="6.34742">
        <ele>544.9</ele>
        <time>2022-06-18T07:05:59Z</time>
      </trkpt>
      <trkpt lat="45.28156" lon="6.34751">
        <ele>544.3</ele>
        <time>2022-06-18T07:06:00Z</time>
      </trkpt>
      <trkpt lat="45.28165" lon="6.3476">
        <ele>543.8</ele>
        <time>2022-06-18T07:06:01Z</time>
      </trkpt>
      <trkpt lat="45.28171" lon="6.34769">
        <ele>543.3</ele>
        <time>2022-06-18T07:06:02Z</time>
      </trkpt>
      <trkpt lat="45.28176" lon="6.34777">
        <ele>542.9</ele>
        <time>2022-06-18T07:06:03Z</time>
      </trkpt>
      <trkpt lat="45.2818" lon="6.34787">
        <ele>542.5</ele>
        <time>2022-06-18T07:06:04Z</time>
      </trkpt>
      <trkpt lat="45.28183" lon="6.34798">
        <ele>542.1</ele>
        <time>2022-06-18T07:06:05Z</time>
      </trkpt>
      <trkpt lat="45.28184" lon="6.34809">
        <ele>541.6</ele>
        <time>2022-06-18T07:06:06Z</time>
      </trkpt>
      <trkpt lat="45.28186" lon="6.3482">
        <ele>541.2</ele>
        <time>2022-06-18T07:06:07Z</time>
      </trkpt>
      <trkpt lat="45.28189" lon="6.34828">
        <ele>540.8</ele>
        <time>2022-06-18T07:06:08Z</time>
      </trkpt>
      <trkpt lat="45.28195" lon="6.34833">
        <ele>540.5</ele>
        <time>2022-06-18T07:06:09Z</time>
      </trkpt>
      <trkpt lat="45.28203" lon="6.34834">
        <ele>540</ele>
        <time>2022-06-18T07:06:10Z</time>
      </trkpt>
      <trkpt lat="45.28212" lon="6.34829">
        <ele>539.6</ele>
        <time>2022-06-18T07:06:11Z</time>
      </trkpt>
      <trkpt lat="45.28221" lon="6.34824">
        <ele>539.1</ele>
        <time>2022-06-18T07:06:12Z</time>
      </trkpt>
      <trkpt lat="45.28228" lon="6.34822">
        <ele>538.8</ele>
        <time>2022-06-18T07:06:13Z</time>
      </trkpt>
      <trkpt lat="45.28235" lon="6.34824">
        <ele>538.4</ele>
        <time>2022-06-18T07:06:14Z</time>
      </trkpt>
      <trkpt lat="45.28242" lon="6.3483">
        <ele>537.9</ele>
        <time>2022-06-18T07:06:15Z</time>
      </trkpt>
      <trkpt lat="45.28249" lon="6.34839">
        <ele>537.4</ele>
        <time>2022-06-18T07:06:16Z</time>
      </trkpt>
      <trkpt lat="45.28256" lon="6.34848">
        <ele>536.8</ele>
        <time>2022-06-18T07:06:17Z</time>
      </trkpt>
      <trkpt lat="45.28263" lon="6.34858">
        <ele>536.3</ele>
        <time>2022-06-18T07:06:18Z</time>
      </trkpt>
      <trkpt lat="45.28271" lon="6.34868">
        <ele>535.8</ele>
        <time>2022-06-18T07:06:19Z</time>
      </trkpt>
      <trkpt lat="45.28279" lon="6.34877">
        <ele>535.2</ele>
        <time>2022-06-18T07:06:20Z</time>
      </trkpt>
      <trkpt lat="45.28288" lon="6.34886">
        <ele>534.7</ele>
        <time>2022-06-18T07:06:21Z</time>
      </trkpt>
      <trkpt lat="45.28296" lon="6.34895">
        <ele>534.2</ele>
        <time>2022-06-18T07:06:22Z</time>
      </trkpt>
      <trkpt lat="45.28305" lon="6.34903">
        <ele>533.7</ele>
        <time>2022-06-18T07:06:23Z</time>
      </trkpt>
      <trkpt lat="45.28313" lon="6.34912">
        <ele>533.3</ele>
        <time>2022-06-18T07:06:24Z</time>
      </trkpt>
      <trkpt lat="45.28322" lon="6.3492">
        <ele>532.8</ele>
        <time>2022-06-18T07:06:25Z</time>
      </trkpt>
      <trkpt lat="45.28331" lon="6.34929">
        <ele>532.4</ele>
        <time>2022-06-18T07:06:26Z</time>
      </trkpt>
      <trkpt lat="45.2834" lon="6.34937">
        <ele>531.9</ele>
        <time>2022-06-18T07:06:27Z</time>
      </trkpt>
      <trkpt lat="45.28349" lon="6.34946">
        <ele>531.5</ele>
        <time>2022-06-18T07:06:28Z</time>
      </trkpt>
      <trkpt lat="45.28359" lon="6.34954">
        <ele>531.1</ele>
        <time>2022-06-18T07:06:29Z</time>
      </trkpt>
      <trkpt lat="45.28368" lon="6.34963">
        <ele>530.7</ele>
        <time>2022-06-18T07:06:30Z</time>
      </trkpt>
      <trkpt lat="45.28378" lon="6.34971">
        <ele>530.3</ele>
        <time>2022-06-18T07:06:31Z</time>
      </trkpt>
      <trkpt lat="45.28387" lon="6.34979">
        <ele>530</ele>
        <time>2022-06-18T07:06:32Z</time>
      </trkpt>
      <trkpt lat="45.28396" lon="6.34987">
        <ele>529.6</ele>
        <time>2022-06-18T07:06:33Z</time>
      </trkpt>
      <trkpt lat="45.28405" lon="6.34995">
        <ele>529.2</ele>
        <time>2022-06-18T07:06:34Z</time>
      </trkpt>
      <trkpt lat="45.28414" lon="6.35004">
        <ele>528.8</ele>
        <time>2022-06-18T07:06:35Z</time>
      </trkpt>
      <trkpt lat="45.28423" lon="6.35013">
        <ele>528.5</ele>
        <time>2022-06-18T07:06:36Z</time>
      </trkpt>
      <trkpt lat="45.28432" lon="6.35021">
        <ele>528.1</ele>
        <time>2022-06-18T07:06:37Z</time>
      </trkpt>
      <trkpt lat="45.28441" lon="6.3503">
        <ele>527.8</ele>
        <time>2022-06-18T07:06:38Z</time>
      </trkpt>
      <trkpt lat="45.2845" lon="6.35038">
        <ele>527.5</ele>
        <time>2022-06-18T07:06:39Z</time>
      </trkpt>
      <trkpt lat="45.28458" lon="6.35047">
        <ele>527.2</ele>
        <time>2022-06-18T07:06:40Z</time>
      </trkpt>
      <trkpt lat="45.28467" lon="6.35055">
        <ele>526.8</ele>
        <time>2022-06-18T07:06:41Z</time>
      </trkpt>
      <trkpt lat="45.28475" lon="6.35063">
        <ele>526.5</ele>
        <time>2022-06-18T07:06:42Z</time>
      </trkpt>
      <trkpt lat="45.28483" lon="6.35071">
        <ele>526.2</ele>
        <time>2022-06-18T07:06:43Z</time>
      </trkpt>
      <trkpt lat="45.28491" lon="6.35079">
        <ele>526</ele>
        <time>2022-06-18T07:06:44Z</time>
      </trkpt>
      <trkpt lat="45.285" lon="6.35087">
        <ele>525.7</ele>
        <time>2022-06-18T07:06:45Z</time>
      </trkpt>
      <trkpt lat="45.28508" lon="6.35096">
        <ele>525.5</ele>
        <time>2022-06-18T07:06:46Z</time>
      </trkpt>
      <trkpt lat="45.28516" lon="6.35105">
        <ele>525.3</ele>
        <time>2022-06-18T07:06:47Z</time>
      </trkpt>
      <trkpt lat="45.28525" lon="6.35114">
        <ele>525.1</ele>
        <time>2022-06-18T07:06:48Z</time>
      </trkpt>
      <trkpt lat="45.28534" lon="6.35122">
        <ele>525</ele>
        <time>2022-06-18T07:06:49Z</time>
      </trkpt>
      <trkpt lat="45.28543" lon="6.35131">
        <ele>524.9</ele>
        <time>2022-06-18T07:06:50Z</time>
      </trkpt>
      <trkpt lat="45.28551" lon="6.35139">
        <ele>524.8</ele>
        <time>2022-06-18T07:06:51Z</time>
      </trkpt>
      <trkpt lat="45.28559" lon="6.35148">
        <ele>524.7</ele>
        <time>2022-06-18T07:06:52Z</time>
      </trkpt>
      <trkpt lat="45.28567" lon="6.35156">
        <ele>524.6</ele>
        <time>2022-06-18T07:06:53Z</time>
      </trkpt>
      <trkpt lat="45.28576" lon="6.35164">
        <ele>524.6</ele>
        <time>2022-06-18T07:06:54Z</time>
      </trkpt>
      <trkpt lat="45.28584" lon="6.35172">
        <ele>524.5</ele>
        <time>2022-06-18T07:06:55Z</time>
      </trkpt>
      <trkpt lat="45.28592" lon="6.35179">
        <ele>524.5</ele>
        <time>2022-06-18T07:06:56Z</time>
      </trkpt>
      <trkpt lat="45.28599" lon="6.35187">
        <ele>524.4</ele>
        <time>2022-06-18T07:06:57Z</time>
      </trkpt>
      <trkpt lat="45.28607" lon="6.35194">
        <ele>524.3</ele>
        <time>2022-06-18T07:06:58Z</time>
      </trkpt>
      <trkpt lat="45.28615" lon="6.35201">
        <ele>524.3</ele>
        <time>2022-06-18T07:06:59Z</time>
      </trkpt>
      <trkpt lat="45.28622" lon="6.35208">
        <ele>524.3</ele>
        <time>2022-06-18T07:07:00Z</time>
      </trkpt>
      <trkpt lat="45.28629" lon="6.35215">
        <ele>524.2</ele>
        <time>2022-06-18T07:07:01Z</time>
      </trkpt>
      <trkpt lat="45.28637" lon="6.35222">
        <ele>524.2</ele>
        <time>2022-06-18T07:07:02Z</time>
      </trkpt>
      <trkpt lat="45.28644" lon="6.35229">
        <ele>524.1</ele>
        <time>2022-06-18T07:07:03Z</time>
      </trkpt>
      <trkpt lat="45.28652" lon="6.35235">
        <ele>524.1</ele>
        <time>2022-06-18T07:07:04Z</time>
      </trkpt>
      <trkpt lat="45.28659" lon="6.35242">
        <ele>524</ele>
        <time>2022-06-18T07:07:05Z</time>
      </trkpt>
      <trkpt lat="45.28667" lon="6.35249">
        <ele>523.9</ele>
        <time>2022-06-18T07:07:06Z</time>
      </trkpt>
      <trkpt lat="45.28674" lon="6.35257">
        <ele>523.9</ele>
        <time>2022-06-18T07:07:07Z</time>
      </trkpt>
      <trkpt lat="45.28682" lon="6.35264">
        <ele>523.9</ele>
        <time>2022-06-18T07:07:08Z</time>
      </trkpt>
      <trkpt lat="45.28689" lon="6.35271">
        <ele>523.9</ele>
        <time>2022-06-18T07:07:09Z</time>
      </trkpt>
      <trkpt lat="45.28697" lon="6.35279">
        <ele>523.9</ele>
        <time>2022-06-18T07:07:10Z</time>
      </trkpt>
      <trkpt lat="45.28705" lon="6.35285">
        <ele>523.9</ele>
        <time>2022-06-18T07:07:11Z</time>
      </trkpt>
      <trkpt lat="45.28713" lon="6.35291">
        <ele>523.8</ele>
        <time>2022-06-18T07:07:12Z</time>
      </trkpt>
      <trkpt lat="45.28721" lon="6.35295">
        <ele>523.7</ele>
        <time>2022-06-18T07:07:13Z</time>
      </trkpt>
      <trkpt lat="45.28729" lon="6.35298">
        <ele>523.7</ele>
        <time>2022-06-18T07:07:14Z</time>
      </trkpt>
      <trkpt lat="45.28739" lon="6.35299">
        <ele>523.6</ele>
        <time>2022-06-18T07:07:15Z</time>
      </trkpt>
      <trkpt lat="45.28749" lon="6.353">
        <ele>523.6</ele>
        <time>2022-06-18T07:07:16Z</time>
      </trkpt>
      <trkpt lat="45.28759" lon="6.35299">
        <ele>523.5</ele>
        <time>2022-06-18T07:07:17Z</time>
      </trkpt>
      <trkpt lat="45.28769" lon="6.35298">
        <ele>523.4</ele>
        <time>2022-06-18T07:07:18Z</time>
      </trkpt>
      <trkpt lat="45.28778" lon="6.35297">
        <ele>523.3</ele>
        <time>2022-06-18T07:07:19Z</time>
      </trkpt>
      <trkpt lat="45.28788" lon="6.35297">
        <ele>523.2</ele>
        <time>2022-06-18T07:07:20Z</time>
      </trkpt>
      <trkpt lat="45.28797" lon="6.35297">
        <ele>523.1</ele>
        <time>2022-06-18T07:07:21Z</time>
      </trkpt>
      <trkpt lat="45.28806" lon="6.35297">
        <ele>523</ele>
        <time>2022-06-18T07:07:22Z</time>
      </trkpt>
      <trkpt lat="45.28815" lon="6.35298">
        <ele>523</ele>
        <time>2022-06-18T07:07:23Z</time>
      </trkpt>
      <trkpt lat="45.28824" lon="6.35298">
        <ele>522.9</ele>
        <time>2022-06-18T07:07:24Z</time>
      </trkpt>
      <trkpt lat="45.28833" lon="6.35299">
        <ele>522.8</ele>
        <time>2022-06-18T07:07:25Z</time>
      </trkpt>
      <trkpt lat="45.28842" lon="6.35299">
        <ele>522.7</ele>
        <time>2022-06-18T07:07:26Z</time>
      </trkpt>
      <trkpt lat="45.28851" lon="6.353">
        <ele>522.7</ele>
        <time>2022-06-18T07:07:27Z</time>
      </trkpt>
      <trkpt lat="45.28859" lon="6.35301">
        <ele>522.6</ele>
        <time>2022-06-18T07:07:28Z</time>
      </trkpt>
      <trkpt lat="45.28868" lon="6.35301">
        <ele>522.5</ele>
        <time>2022-06-18T07:07:29Z</time>
      </trkpt>
      <trkpt lat="45.28877" lon="6.35302">
        <ele>522.4</ele>
        <time>2022-06-18T07:07:30Z</time>
      </trkpt>
      <trkpt lat="45.28887" lon="6.35303">
        <ele>522.3</ele>
        <time>2022-06-18T07:07:31Z</time>
      </trkpt>
      <trkpt lat="45.28896" lon="6.35303">
        <ele>522.2</ele>
        <time>2022-06-18T07:07:32Z</time>
      </trkpt>
      <trkpt lat="45.28905" lon="6.35303">
        <ele>522.1</ele>
        <time>2022-06-18T07:07:33Z</time>
      </trkpt>
      <trkpt lat="45.28914" lon="6.35303">
        <ele>522</ele>
        <time>2022-06-18T07:07:34Z</time>
      </trkpt>
      <trkpt lat="45.28923" lon="6.35303">
        <ele>521.9</ele>
        <time>2022-06-18T07:07:35Z</time>
      </trkpt>
      <trkpt lat="45.28932" lon="6.35303">
        <ele>521.8</ele>
        <time>2022-06-18T07:07:36Z</time>
      </trkpt>
      <trkpt lat="45.28941" lon="6.35303">
        <ele>521.8</ele>
        <time>2022-06-18T07:07:37Z</time>
      </trkpt>
      <trkpt lat="45.2895" lon="6.35302">
        <ele>521.7</ele>
        <time>2022-06-18T07:07:38Z</time>
      </trkpt>
      <trkpt lat="45.2896" lon="6.35302">
        <ele>521.7</ele>
        <time>2022-06-18T07:07:39Z</time>
      </trkpt>
      <trkpt lat="45.28969" lon="6.35302">
        <ele>521.6</ele>
        <time>2022-06-18T07:07:40Z</time>
      </trkpt>
      <trkpt lat="45.28978" lon="6.35302">
        <ele>521.6</ele>
        <time>2022-06-18T07:07:41Z</time>
      </trkpt>
      <trkpt lat="45.28987" lon="6.35301">
        <ele>521.6</ele>
        <time>2022-06-18T07:07:42Z</time>
      </trkpt>
      <trkpt lat="45.28996" lon="6.35301">
        <ele>521.5</ele>
        <time>2022-06-18T07:07:43Z</time>
      </trkpt>
      <trkpt lat="45.29005" lon="6.35301">
        <ele>521.5</ele>
        <time>2022-06-18T07:07:44Z</time>
      </trkpt>
      <trkpt lat="45.29014" lon="6.35301">
        <ele>521.4</ele>
        <time>2022-06-18T07:07:45Z</time>
      </trkpt>
      <trkpt lat="45.29023" lon="6.35302">
        <ele>521.4</ele>
        <time>2022-06-18T07:07:46Z</time>
      </trkpt>
      <trkpt lat="45.29033" lon="6.35302">
        <ele>521.3</ele>
        <time>2022-06-18T07:07:47Z</time>
      </trkpt>
      <trkpt lat="45.29042" lon="6.35303">
        <ele>521.2</ele>
        <time>2022-06-18T07:07:48Z</time>
      </trkpt>
      <trkpt lat="45.29052" lon="6.35304">
        <ele>521.2</ele>
        <time>2022-06-18T07:07:49Z</time>
      </trkpt>
      <trkpt lat="45.29062" lon="6.35305">
        <ele>521</ele>
        <time>2022-06-18T07:07:50Z</time>
      </trkpt>
      <trkpt lat="45.29071" lon="6.35306">
        <ele>520.9</ele>
        <time>2022-06-18T07:07:51Z</time>
      </trkpt>
      <trkpt lat="45.2908" lon="6.35307">
        <ele>520.8</ele>
        <time>2022-06-18T07:07:52Z</time>
      </trkpt>
      <trkpt lat="45.2909" lon="6.35307">
        <ele>520.6</ele>
        <time>2022-06-18T07:07:53Z</time>
      </trkpt>
      <trkpt lat="45.29099" lon="6.35308">
        <ele>520.5</ele>
        <time>2022-06-18T07:07:54Z</time>
      </trkpt>
      <trkpt lat="45.29108" lon="6.35309">
        <ele>520.3</ele>
        <time>2022-06-18T07:07:55Z</time>
      </trkpt>
      <trkpt lat="45.29118" lon="6.35309">
        <ele>520.2</ele>
        <time>2022-06-18T07:07:56Z</time>
      </trkpt>
      <trkpt lat="45.29127" lon="6.3531">
        <ele>520.1</ele>
        <time>2022-06-18T07:07:57Z</time>
      </trkpt>
      <trkpt lat="45.29137" lon="6.3531">
        <ele>519.9</ele>
        <time>2022-06-18T07:07:58Z</time>
      </trkpt>
      <trkpt lat="45.29147" lon="6.35309">
        <ele>519.8</ele>
        <time>2022-06-18T07:07:59Z</time>
      </trkpt>
      <trkpt lat="45.29156" lon="6.35308">
        <ele>519.6</ele>
        <time>2022-06-18T07:08:00Z</time>
      </trkpt>
      <trkpt lat="45.29165" lon="6.35307">
        <ele>519.5</ele>
        <time>2022-06-18T07:08:01Z</time>
      </trkpt>
      <trkpt lat="45.29174" lon="6.35304">
        <ele>519.5</ele>
        <time>2022-06-18T07:08:02Z</time>
      </trkpt>
      <trkpt lat="45.29182" lon="6.353">
        <ele>519.4</ele>
        <time>2022-06-18T07:08:03Z</time>
      </trkpt>
      <trkpt lat="45.29191" lon="6.35295">
        <ele>519.3</ele>
        <time>2022-06-18T07:08:04Z</time>
      </trkpt>
      <trkpt lat="45.29199" lon="6.35288">
        <ele>519.2</ele>
        <time>2022-06-18T07:08:05Z</time>
      </trkpt>
      <trkpt lat="45.29207" lon="6.35282">
        <ele>519.2</ele>
        <time>2022-06-18T07:08:06Z</time>
      </trkpt>
      <trkpt lat="45.29215" lon="6.35275">
        <ele>519.1</ele>
        <time>2022-06-18T07:08:07Z</time>
      </trkpt>
      <trkpt lat="45.29223" lon="6.3527">
        <ele>519.1</ele>
        <time>2022-06-18T07:08:08Z</time>
      </trkpt>
      <trkpt lat="45.29231" lon="6.35264">
        <ele>519</ele>
        <time>2022-06-18T07:08:09Z</time>
      </trkpt>
      <trkpt lat="45.29239" lon="6.35258">
        <ele>518.9</ele>
        <time>2022-06-18T07:08:10Z</time>
      </trkpt>
      <trkpt lat="45.29248" lon="6.35253">
        <ele>518.9</ele>
        <time>2022-06-18T07:08:11Z</time>
      </trkpt>
      <trkpt lat="45.29256" lon="6.35248">
        <ele>518.8</ele>
        <time>2022-06-18T07:08:12Z</time>
      </trkpt>
      <trkpt lat="45.29264" lon="6.35243">
        <ele>518.8</ele>
        <time>2022-06-18T07:08:13Z</time>
      </trkpt>
      <trkpt lat="45.29273" lon="6.35238">
        <ele>518.8</ele>
        <time>2022-06-18T07:08:14Z</time>
      </trkpt>
      <trkpt lat="45.29281" lon="6.35234">
        <ele>518.7</ele>
        <time>2022-06-18T07:08:15Z</time>
      </trkpt>
      <trkpt lat="45.2929" lon="6.35231">
        <ele>518.6</ele>
        <time>2022-06-18T07:08:16Z</time>
      </trkpt>
      <trkpt lat="45.29299" lon="6.3523">
        <ele>518.6</ele>
        <time>2022-06-18T07:08:17Z</time>
      </trkpt>
      <trkpt lat="45.29309" lon="6.35231">
        <ele>518.6</ele>
        <time>2022-06-18T07:08:18Z</time>
      </trkpt>
      <trkpt lat="45.29318" lon="6.35234">
        <ele>518.6</ele>
        <time>2022-06-18T07:08:19Z</time>
      </trkpt>
      <trkpt lat="45.29327" lon="6.35237">
        <ele>518.7</ele>
        <time>2022-06-18T07:08:20Z</time>
      </trkpt>
      <trkpt lat="45.29335" lon="6.35241">
        <ele>518.7</ele>
        <time>2022-06-18T07:08:21Z</time>
      </trkpt>
      <trkpt lat="45.29343" lon="6.35247">
        <ele>518.8</ele>
        <time>2022-06-18T07:08:22Z</time>
      </trkpt>
      <trkpt lat="45.2935" lon="6.35254">
        <ele>518.8</ele>
        <time>2022-06-18T07:08:23Z</time>
      </trkpt>
      <trkpt lat="45.29356" lon="6.35261">
        <ele>518.9</ele>
        <time>2022-06-18T07:08:24Z</time>
      </trkpt>
      <trkpt lat="45.29362" lon="6.3527">
        <ele>518.9</ele>
        <time>2022-06-18T07:08:25Z</time>
      </trkpt>
      <trkpt lat="45.29368" lon="6.35279">
        <ele>519</ele>
        <time>2022-06-18T07:08:26Z</time>
      </trkpt>
      <trkpt lat="45.29373" lon="6.35288">
        <ele>519.1</ele>
        <time>2022-06-18T07:08:27Z</time>
      </trkpt>
      <trkpt lat="45.29377" lon="6.35298">
        <ele>519.2</ele>
        <time>2022-06-18T07:08:28Z</time>
      </trkpt>
      <trkpt lat="45.2938" lon="6.35308">
        <ele>519.4</ele>
        <time>2022-06-18T07:08:29Z</time>
      </trkpt>
      <trkpt lat="45.29384" lon="6.35319">
        <ele>519.5</ele>
        <time>2022-06-18T07:08:30Z</time>
      </trkpt>
      <trkpt lat="45.29386" lon="6.35329">
        <ele>519.7</ele>
        <time>2022-06-18T07:08:31Z</time>
      </trkpt>
      <trkpt lat="45.29389" lon="6.35339">
        <ele>519.9</ele>
        <time>2022-06-18T07:08:32Z</time>
      </trkpt>
      <trkpt lat="45.29391" lon="6.35348">
        <ele>520.1</ele>
        <time>2022-06-18T07:08:33Z</time>
      </trkpt>
      <trkpt lat="45.29392" lon="6.35358">
        <ele>520.3</ele>
        <time>2022-06-18T07:08:34Z</time>
      </trkpt>
      <trkpt lat="45.29394" lon="6.35368">
        <ele>520.5</ele>
        <time>2022-06-18T07:08:35Z</time>
      </trkpt>
      <trkpt lat="45.29396" lon="6.35377">
        <ele>520.7</ele>
        <time>2022-06-18T07:08:36Z</time>
      </trkpt>
      <trkpt lat="45.29398" lon="6.35386">
        <ele>520.9</ele>
        <time>2022-06-18T07:08:37Z</time>
      </trkpt>
      <trkpt lat="45.29399" lon="6.35395">
        <ele>521.1</ele>
        <time>2022-06-18T07:08:38Z</time>
      </trkpt>
      <trkpt lat="45.29401" lon="6.35403">
        <ele>521.3</ele>
        <time>2022-06-18T07:08:39Z</time>
      </trkpt>
      <trkpt lat="45.29403" lon="6.35412">
        <ele>521.4</ele>
        <time>2022-06-18T07:08:40Z</time>
      </trkpt>
      <trkpt lat="45.29405" lon="6.3542">
        <ele>521.6</ele>
        <time>2022-06-18T07:08:41Z</time>
      </trkpt>
      <trkpt lat="45.29406" lon="6.35429">
        <ele>521.8</ele>
        <time>2022-06-18T07:08:42Z</time>
      </trkpt>
      <trkpt lat="45.29407" lon="6.35439">
        <ele>522.1</ele>
        <time>2022-06-18T07:08:43Z</time>
      </trkpt>
      <trkpt lat="45.29408" lon="6.35448">
        <ele>522.4</ele>
        <time>2022-06-18T07:08:44Z</time>
      </trkpt>
      <trkpt lat="45.29408" lon="6.35457">
        <ele>522.6</ele>
        <time>2022-06-18T07:08:45Z</time>
      </trkpt>
      <trkpt lat="45.29409" lon="6.35467">
        <ele>522.9</ele>
        <time>2022-06-18T07:08:46Z</time>
      </trkpt>
      <trkpt lat="45.29409" lon="6.35476">
        <ele>523</ele>
        <time>2022-06-18T07:08:47Z</time>
      </trkpt>
      <trkpt lat="45.2941" lon="6.35485">
        <ele>523.3</ele>
        <time>2022-06-18T07:08:48Z</time>
      </trkpt>
      <trkpt lat="45.29413" lon="6.35493">
        <ele>523.6</ele>
        <time>2022-06-18T07:08:49Z</time>
      </trkpt>
      <trkpt lat="45.29416" lon="6.35501">
        <ele>523.8</ele>
        <time>2022-06-18T07:08:50Z</time>
      </trkpt>
      <trkpt lat="45.29419" lon="6.35509">
        <ele>523.9</ele>
        <time>2022-06-18T07:08:51Z</time>
      </trkpt>
      <trkpt lat="45.29421" lon="6.35517">
        <ele>524.1</ele>
        <time>2022-06-18T07:08:52Z</time>
      </trkpt>
      <trkpt lat="45.29423" lon="6.35526">
        <ele>524.3</ele>
        <time>2022-06-18T07:08:53Z</time>
      </trkpt>
      <trkpt lat="45.29424" lon="6.35533">
        <ele>524.5</ele>
        <time>2022-06-18T07:08:54Z</time>
      </trkpt>
      <trkpt lat="45.29425" lon="6.35541">
        <ele>524.6</ele>
        <time>2022-06-18T07:08:55Z</time>
      </trkpt>
      <trkpt lat="45.29428" lon="6.35546">
        <ele>524.7</ele>
        <time>2022-06-18T07:08:56Z</time>
      </trkpt>
      <trkpt lat="45.29432" lon="6.3555">
        <ele>524.7</ele>
        <time>2022-06-18T07:08:57Z</time>
      </trkpt>
      <trkpt lat="45.29438" lon="6.3555">
        <ele>524.6</ele>
        <time>2022-06-18T07:08:58Z</time>
      </trkpt>
      <trkpt lat="45.29444" lon="6.35549">
        <ele>524.6</ele>
        <time>2022-06-18T07:08:59Z</time>
      </trkpt>
      <trkpt lat="45.29451" lon="6.35547">
        <ele>524.5</ele>
        <time>2022-06-18T07:09:00Z</time>
      </trkpt>
      <trkpt lat="45.29458" lon="6.35545">
        <ele>524.4</ele>
        <time>2022-06-18T07:09:01Z</time>
      </trkpt>
      <trkpt lat="45.29465" lon="6.35544">
        <ele>524.3</ele>
        <time>2022-06-18T07:09:02Z</time>
      </trkpt>
      <trkpt lat="45.29472" lon="6.35542">
        <ele>524.3</ele>
        <time>2022-06-18T07:09:03Z</time>
      </trkpt>
      <trkpt lat="45.29477" lon="6.35541">
        <ele>524.2</ele>
        <time>2022-06-18T07:09:04Z</time>
      </trkpt>
      <trkpt lat="45.29481" lon="6.3554">
        <ele>524.2</ele>
        <time>2022-06-18T07:09:05Z</time>
      </trkpt>
      <trkpt lat="45.29485" lon="6.3554">
        <ele>524.1</ele>
        <time>2022-06-18T07:09:06Z</time>
      </trkpt>
      <trkpt lat="45.29487" lon="6.3554">
        <ele>524.1</ele>
        <time>2022-06-18T07:09:07Z</time>
      </trkpt>
      <trkpt lat="45.29489" lon="6.3554">
        <ele>524.2</ele>
        <time>2022-06-18T07:09:08Z</time>
      </trkpt>
      <trkpt lat="45.2949" lon="6.35539">
        <ele>524.2</ele>
        <time>2022-06-18T07:09:09Z</time>
      </trkpt>
      <trkpt lat="45.2949" lon="6.35537">
        <ele>524.2</ele>
        <time>2022-06-18T07:09:10Z</time>
      </trkpt>
      <trkpt lat="45.29488" lon="6.35535">
        <ele>524.2</ele>
        <time>2022-06-18T07:09:11Z</time>
      </trkpt>
      <trkpt lat="45.29486" lon="6.35534">
        <ele>524.2</ele>
        <time>2022-06-18T07:09:12Z</time>
      </trkpt>
      <trkpt lat="45.29481" lon="6.35533">
        <ele>524.2</ele>
        <time>2022-06-18T07:09:14Z</time>
      </trkpt>
      <trkpt lat="45.29472" lon="6.35538">
        <ele>524.3</ele>
        <time>2022-06-18T07:09:15Z</time>
      </trkpt>
      <trkpt lat="45.29467" lon="6.35539">
        <ele>524.3</ele>
        <time>2022-06-18T07:09:16Z</time>
      </trkpt>
      <trkpt lat="45.29462" lon="6.3554">
        <ele>524.4</ele>
        <time>2022-06-18T07:09:17Z</time>
      </trkpt>
      <trkpt lat="45.29457" lon="6.35541">
        <ele>524.4</ele>
        <time>2022-06-18T07:09:18Z</time>
      </trkpt>
      <trkpt lat="45.29452" lon="6.35541">
        <ele>524.4</ele>
        <time>2022-06-18T07:09:19Z</time>
      </trkpt>
      <trkpt lat="45.29447" lon="6.35542">
        <ele>524.5</ele>
        <time>2022-06-18T07:09:20Z</time>
      </trkpt>
      <trkpt lat="45.29442" lon="6.35543">
        <ele>524.5</ele>
        <time>2022-06-18T07:09:21Z</time>
      </trkpt>
      <trkpt lat="45.29437" lon="6.35544">
        <ele>524.5</ele>
        <time>2022-06-18T07:09:22Z</time>
      </trkpt>
      <trkpt lat="45.2943" lon="6.35539">
        <ele>524.6</ele>
        <time>2022-06-18T07:09:24Z</time>
      </trkpt>
      <trkpt lat="45.29427" lon="6.35538">
        <ele>524.6</ele>
        <time>2022-06-18T07:09:25Z</time>
      </trkpt>
      <trkpt lat="45.29427" lon="6.35537">
        <ele>524.6</ele>
        <time>2022-06-18T07:09:26Z</time>
      </trkpt>
      <trkpt lat="45.29427" lon="6.35538">
        <ele>524.6</ele>
        <time>2022-06-18T07:09:27Z</time>
      </trkpt>
      <trkpt lat="45.29427" lon="6.35539">
        <ele>524.6</ele>
        <time>2022-06-18T07:09:28Z</time>
      </trkpt>
      <trkpt lat="45.29427" lon="6.3554">
        <ele>524.6</ele>
        <time>2022-06-18T07:09:29Z</time>
      </trkpt>
      <trkpt lat="45.29427" lon="6.3554">
        <ele>524.6</ele>
        <time>2022-06-18T07:09:30Z</time>
      </trkpt>
      <trkpt lat="45.29428" lon="6.3554">
        <ele>524.6</ele>
        <time>2022-06-18T07:09:31Z</time>
      </trkpt>
      <trkpt lat="45.29428" lon="6.3554">
        <ele>524.6</ele>
        <time>2022-06-18T07:09:32Z</time>
      </trkpt>
      <trkpt lat="45.29429" lon="6.3554">
        <ele>524.6</ele>
        <time>2022-06-18T07:09:33Z</time>
      </trkpt>
      <trkpt lat="45.29429" lon="6.3554">
        <ele>524.6</ele>
        <time>2022-06-18T07:09:34Z</time>
      </trkpt>
      <trkpt lat="45.29427" lon="6.3554">
        <ele>524.7</ele>
        <time>2022-06-18T07:09:35Z</time>
      </trkpt>
      <trkpt lat="45.29426" lon="6.35541">
        <ele>524.7</ele>
        <time>2022-06-18T07:09:36Z</time>
      </trkpt>
      <trkpt lat="45.29425" lon="6.35547">
        <ele>524.7</ele>
        <time>2022-06-18T07:09:37Z</time>
      </trkpt>
      <trkpt lat="45.29426" lon="6.35552">
        <ele>524.7</ele>
        <time>2022-06-18T07:09:38Z</time>
      </trkpt>
      <trkpt lat="45.29427" lon="6.35558">
        <ele>524.8</ele>
        <time>2022-06-18T07:09:39Z</time>
      </trkpt>
      <trkpt lat="45.29431" lon="6.35571">
        <ele>525</ele>
        <time>2022-06-18T07:09:40Z</time>
      </trkpt>
      <trkpt lat="45.29433" lon="6.35579">
        <ele>525.1</ele>
        <time>2022-06-18T07:09:41Z</time>
      </trkpt>
      <trkpt lat="45.29434" lon="6.35587">
        <ele>525.2</ele>
        <time>2022-06-18T07:09:42Z</time>
      </trkpt>
      <trkpt lat="45.29436" lon="6.35594">
        <ele>525.3</ele>
        <time>2022-06-18T07:09:43Z</time>
      </trkpt>
      <trkpt lat="45.29437" lon="6.35602">
        <ele>525.4</ele>
        <time>2022-06-18T07:09:44Z</time>
      </trkpt>
      <trkpt lat="45.29439" lon="6.3561">
        <ele>525.6</ele>
        <time>2022-06-18T07:09:45Z</time>
      </trkpt>
      <trkpt lat="45.2944" lon="6.35618">
        <ele>525.6</ele>
        <time>2022-06-18T07:09:46Z</time>
      </trkpt>
      <trkpt lat="45.29441" lon="6.35626">
        <ele>525.7</ele>
        <time>2022-06-18T07:09:47Z</time>
      </trkpt>
      <trkpt lat="45.29442" lon="6.35635">
        <ele>525.8</ele>
        <time>2022-06-18T07:09:48Z</time>
      </trkpt>
      <trkpt lat="45.29444" lon="6.35643">
        <ele>525.9</ele>
        <time>2022-06-18T07:09:49Z</time>
      </trkpt>
      <trkpt lat="45.29445" lon="6.35652">
        <ele>526</ele>
        <time>2022-06-18T07:09:50Z</time>
      </trkpt>
      <trkpt lat="45.29447" lon="6.3566">
        <ele>526</ele>
        <time>2022-06-18T07:09:51Z</time>
      </trkpt>
      <trkpt lat="45.29449" lon="6.35669">
        <ele>526.1</ele>
        <time>2022-06-18T07:09:52Z</time>
      </trkpt>
      <trkpt lat="45.29451" lon="6.35678">
        <ele>526.1</ele>
        <time>2022-06-18T07:09:53Z</time>
      </trkpt>
      <trkpt lat="45.29454" lon="6.35686">
        <ele>526.2</ele>
        <time>2022-06-18T07:09:54Z</time>
      </trkpt>
      <trkpt lat="45.29457" lon="6.35694">
        <ele>526.2</ele>
        <time>2022-06-18T07:09:55Z</time>
      </trkpt>
      <trkpt lat="45.29461" lon="6.35702">
        <ele>526.1</ele>
        <time>2022-06-18T07:09:56Z</time>
      </trkpt>
      <trkpt lat="45.29466" lon="6.35708">
        <ele>526.1</ele>
        <time>2022-06-18T07:09:57Z</time>
      </trkpt>
      <trkpt lat="45.29472" lon="6.35715">
        <ele>526</ele>
        <time>2022-06-18T07:09:58Z</time>
      </trkpt>
      <trkpt lat="45.29479" lon="6.35719">
        <ele>526</ele>
        <time>2022-06-18T07:09:59Z</time>
      </trkpt>
      <trkpt lat="45.29486" lon="6.35723">
        <ele>525.9</ele>
        <time>2022-06-18T07:10:00Z</time>
      </trkpt>
      <trkpt lat="45.29494" lon="6.35726">
        <ele>525.8</ele>
        <time>2022-06-18T07:10:01Z</time>
      </trkpt>
      <trkpt lat="45.29502" lon="6.35727">
        <ele>525.8</ele>
        <time>2022-06-18T07:10:02Z</time>
      </trkpt>
      <trkpt lat="45.29511" lon="6.35727">
        <ele>525.8</ele>
        <time>2022-06-18T07:10:03Z</time>
      </trkpt>
      <trkpt lat="45.29519" lon="6.35727">
        <ele>525.9</ele>
        <time>2022-06-18T07:10:04Z</time>
      </trkpt>
      <trkpt lat="45.29527" lon="6.35726">
        <ele>525.9</ele>
        <time>2022-06-18T07:10:05Z</time>
      </trkpt>
      <trkpt lat="45.29535" lon="6.35725">
        <ele>526</ele>
        <time>2022-06-18T07:10:06Z</time>
      </trkpt>
      <trkpt lat="45.29543" lon="6.35723">
        <ele>525.9</ele>
        <time>2022-06-18T07:10:07Z</time>
      </trkpt>
      <trkpt lat="45.29551" lon="6.35721">
        <ele>525.9</ele>
        <time>2022-06-18T07:10:08Z</time>
      </trkpt>
      <trkpt lat="45.29558" lon="6.35719">
        <ele>525.9</ele>
        <time>2022-06-18T07:10:09Z</time>
      </trkpt>
      <trkpt lat="45.29565" lon="6.35715">
        <ele>525.9</ele>
        <time>2022-06-18T07:10:10Z</time>
      </trkpt>
      <trkpt lat="45.29571" lon="6.3571">
        <ele>526</ele>
        <time>2022-06-18T07:10:11Z</time>
      </trkpt>
      <trkpt lat="45.29577" lon="6.35705">
        <ele>526</ele>
        <time>2022-06-18T07:10:12Z</time>
      </trkpt>
      <trkpt lat="45.29583" lon="6.357">
        <ele>526.1</ele>
        <time>2022-06-18T07:10:13Z</time>
      </trkpt>
      <trkpt lat="45.29588" lon="6.35696">
        <ele>526.2</ele>
        <time>2022-06-18T07:10:14Z</time>
      </trkpt>
      <trkpt lat="45.29594" lon="6.35694">
        <ele>526.4</ele>
        <time>2022-06-18T07:10:15Z</time>
      </trkpt>
      <trkpt lat="45.296" lon="6.35692">
        <ele>526.5</ele>
        <time>2022-06-18T07:10:16Z</time>
      </trkpt>
      <trkpt lat="45.29605" lon="6.35688">
        <ele>526.7</ele>
        <time>2022-06-18T07:10:17Z</time>
      </trkpt>
      <trkpt lat="45.29609" lon="6.35682">
        <ele>526.8</ele>
        <time>2022-06-18T07:10:18Z</time>
      </trkpt>
      <trkpt lat="45.29612" lon="6.35674">
        <ele>526.8</ele>
        <time>2022-06-18T07:10:19Z</time>
      </trkpt>
      <trkpt lat="45.29613" lon="6.35664">
        <ele>526.5</ele>
        <time>2022-06-18T07:10:20Z</time>
      </trkpt>
      <trkpt lat="45.29615" lon="6.35653">
        <ele>526.1</ele>
        <time>2022-06-18T07:10:21Z</time>
      </trkpt>
      <trkpt lat="45.29618" lon="6.35642">
        <ele>525.7</ele>
        <time>2022-06-18T07:10:22Z</time>
      </trkpt>
      <trkpt lat="45.29622" lon="6.35632">
        <ele>525.3</ele>
        <time>2022-06-18T07:10:23Z</time>
      </trkpt>
      <trkpt lat="45.29628" lon="6.35623">
        <ele>524.9</ele>
        <time>2022-06-18T07:10:24Z</time>
      </trkpt>
      <trkpt lat="45.29635" lon="6.35617">
        <ele>524.7</ele>
        <time>2022-06-18T07:10:25Z</time>
      </trkpt>
      <trkpt lat="45.29643" lon="6.35612">
        <ele>524.4</ele>
        <time>2022-06-18T07:10:26Z</time>
      </trkpt>
      <trkpt lat="45.29652" lon="6.35608">
        <ele>524.2</ele>
        <time>2022-06-18T07:10:27Z</time>
      </trkpt>
      <trkpt lat="45.29661" lon="6.35606">
        <ele>524.1</ele>
        <time>2022-06-18T07:10:28Z</time>
      </trkpt>
      <trkpt lat="45.2967" lon="6.35605">
        <ele>524</ele>
        <time>2022-06-18T07:10:29Z</time>
      </trkpt>
      <trkpt lat="45.29679" lon="6.35606">
        <ele>524</ele>
        <time>2022-06-18T07:10:30Z</time>
      </trkpt>
      <trkpt lat="45.29687" lon="6.35607">
        <ele>524</ele>
        <time>2022-06-18T07:10:31Z</time>
      </trkpt>
      <trkpt lat="45.29696" lon="6.35608">
        <ele>524.1</ele>
        <time>2022-06-18T07:10:32Z</time>
      </trkpt>
      <trkpt lat="45.29704" lon="6.3561">
        <ele>524.3</ele>
        <time>2022-06-18T07:10:33Z</time>
      </trkpt>
      <trkpt lat="45.29713" lon="6.35612">
        <ele>524.6</ele>
        <time>2022-06-18T07:10:34Z</time>
      </trkpt>
      <trkpt lat="45.2972" lon="6.35614">
        <ele>524.9</ele>
        <time>2022-06-18T07:10:35Z</time>
      </trkpt>
      <trkpt lat="45.29728" lon="6.35616">
        <ele>525.1</ele>
        <time>2022-06-18T07:10:36Z</time>
      </trkpt>
      <trkpt lat="45.29735" lon="6.35618">
        <ele>525.4</ele>
        <time>2022-06-18T07:10:37Z</time>
      </trkpt>
      <trkpt lat="45.29742" lon="6.35619">
        <ele>525.6</ele>
        <time>2022-06-18T07:10:38Z</time>
      </trkpt>
      <trkpt lat="45.29749" lon="6.35619">
        <ele>525.9</ele>
        <time>2022-06-18T07:10:39Z</time>
      </trkpt>
      <trkpt lat="45.29756" lon="6.3562">
        <ele>526.1</ele>
        <time>2022-06-18T07:10:40Z</time>
      </trkpt>
      <trkpt lat="45.29762" lon="6.35621">
        <ele>526.3</ele>
        <time>2022-06-18T07:10:41Z</time>
      </trkpt>
      <trkpt lat="45.29769" lon="6.35622">
        <ele>526.5</ele>
        <time>2022-06-18T07:10:42Z</time>
      </trkpt>
      <trkpt lat="45.29775" lon="6.35623">
        <ele>526.7</ele>
        <time>2022-06-18T07:10:43Z</time>
      </trkpt>
      <trkpt lat="45.29781" lon="6.35624">
        <ele>526.8</ele>
        <time>2022-06-18T07:10:44Z</time>
      </trkpt>
      <trkpt lat="45.29787" lon="6.35624">
        <ele>527</ele>
        <time>2022-06-18T07:10:45Z</time>
      </trkpt>
      <trkpt lat="45.29793" lon="6.35624">
        <ele>527.1</ele>
        <time>2022-06-18T07:10:46Z</time>
      </trkpt>
      <trkpt lat="45.29799" lon="6.35625">
        <ele>527.3</ele>
        <time>2022-06-18T07:10:47Z</time>
      </trkpt>
      <trkpt lat="45.29805" lon="6.35625">
        <ele>527.4</ele>
        <time>2022-06-18T07:10:48Z</time>
      </trkpt>
      <trkpt lat="45.29811" lon="6.35626">
        <ele>527.6</ele>
        <time>2022-06-18T07:10:49Z</time>
      </trkpt>
      <trkpt lat="45.29817" lon="6.35628">
        <ele>527.7</ele>
        <time>2022-06-18T07:10:50Z</time>
      </trkpt>
      <trkpt lat="45.29823" lon="6.3563">
        <ele>527.9</ele>
        <time>2022-06-18T07:10:51Z</time>
      </trkpt>
      <trkpt lat="45.29829" lon="6.35631">
        <ele>528.1</ele>
        <time>2022-06-18T07:10:52Z</time>
      </trkpt>
      <trkpt lat="45.29835" lon="6.35633">
        <ele>528.3</ele>
        <time>2022-06-18T07:10:53Z</time>
      </trkpt>
      <trkpt lat="45.29841" lon="6.35635">
        <ele>528.5</ele>
        <time>2022-06-18T07:10:54Z</time>
      </trkpt>
      <trkpt lat="45.29847" lon="6.35636">
        <ele>528.6</ele>
        <time>2022-06-18T07:10:55Z</time>
      </trkpt>
      <trkpt lat="45.29853" lon="6.35638">
        <ele>528.7</ele>
        <time>2022-06-18T07:10:56Z</time>
      </trkpt>
      <trkpt lat="45.29859" lon="6.3564">
        <ele>528.8</ele>
        <time>2022-06-18T07:10:57Z</time>
      </trkpt>
      <trkpt lat="45.29865" lon="6.35643">
        <ele>528.8</ele>
        <time>2022-06-18T07:10:58Z</time>
      </trkpt>
      <trkpt lat="45.29872" lon="6.35645">
        <ele>528.8</ele>
        <time>2022-06-18T07:10:59Z</time>
      </trkpt>
      <trkpt lat="45.29877" lon="6.35648">
        <ele>528.7</ele>
        <time>2022-06-18T07:11:00Z</time>
      </trkpt>
      <trkpt lat="45.29883" lon="6.35651">
        <ele>528.7</ele>
        <time>2022-06-18T07:11:01Z</time>
      </trkpt>
      <trkpt lat="45.29889" lon="6.35654">
        <ele>528.5</ele>
        <time>2022-06-18T07:11:02Z</time>
      </trkpt>
      <trkpt lat="45.29896" lon="6.35657">
        <ele>528.3</ele>
        <time>2022-06-18T07:11:03Z</time>
      </trkpt>
      <trkpt lat="45.29903" lon="6.3566">
        <ele>528</ele>
        <time>2022-06-18T07:11:04Z</time>
      </trkpt>
      <trkpt lat="45.2991" lon="6.35664">
        <ele>527.7</ele>
        <time>2022-06-18T07:11:05Z</time>
      </trkpt>
      <trkpt lat="45.29918" lon="6.35666">
        <ele>527.4</ele>
        <time>2022-06-18T07:11:06Z</time>
      </trkpt>
      <trkpt lat="45.29927" lon="6.35666">
        <ele>526.7</ele>
        <time>2022-06-18T07:11:07Z</time>
      </trkpt>
      <trkpt lat="45.29936" lon="6.35665">
        <ele>526</ele>
        <time>2022-06-18T07:11:08Z</time>
      </trkpt>
      <trkpt lat="45.29945" lon="6.35662">
        <ele>525.2</ele>
        <time>2022-06-18T07:11:09Z</time>
      </trkpt>
      <trkpt lat="45.29954" lon="6.35659">
        <ele>524.5</ele>
        <time>2022-06-18T07:11:10Z</time>
      </trkpt>
      <trkpt lat="45.29963" lon="6.35653">
        <ele>523.9</ele>
        <time>2022-06-18T07:11:11Z</time>
      </trkpt>
      <trkpt lat="45.29971" lon="6.35646">
        <ele>523.8</ele>
        <time>2022-06-18T07:11:12Z</time>
      </trkpt>
      <trkpt lat="45.2998" lon="6.35637">
        <ele>522.9</ele>
        <time>2022-06-18T07:11:13Z</time>
      </trkpt>
      <trkpt lat="45.29988" lon="6.35629">
        <ele>522</ele>
        <time>2022-06-18T07:11:14Z</time>
      </trkpt>
      <trkpt lat="45.29998" lon="6.3562">
        <ele>521</ele>
        <time>2022-06-18T07:11:15Z</time>
      </trkpt>
      <trkpt lat="45.30007" lon="6.35611">
        <ele>519.9</ele>
        <time>2022-06-18T07:11:16Z</time>
      </trkpt>
      <trkpt lat="45.30016" lon="6.35602">
        <ele>518.9</ele>
        <time>2022-06-18T07:11:17Z</time>
      </trkpt>
      <trkpt lat="45.30025" lon="6.35593">
        <ele>517.9</ele>
        <time>2022-06-18T07:11:18Z</time>
      </trkpt>
      <trkpt lat="45.30035" lon="6.35584">
        <ele>516.9</ele>
        <time>2022-06-18T07:11:19Z</time>
      </trkpt>
      <trkpt lat="45.30044" lon="6.35575">
        <ele>515.9</ele>
        <time>2022-06-18T07:11:20Z</time>
      </trkpt>
      <trkpt lat="45.30054" lon="6.35566">
        <ele>514.9</ele>
        <time>2022-06-18T07:11:21Z</time>
      </trkpt>
      <trkpt lat="45.30064" lon="6.35557">
        <ele>514</ele>
        <time>2022-06-18T07:11:22Z</time>
      </trkpt>
      <trkpt lat="45.30073" lon="6.35548">
        <ele>513.4</ele>
        <time>2022-06-18T07:11:23Z</time>
      </trkpt>
      <trkpt lat="45.30083" lon="6.35538">
        <ele>512.7</ele>
        <time>2022-06-18T07:11:24Z</time>
      </trkpt>
      <trkpt lat="45.30093" lon="6.35529">
        <ele>512.1</ele>
        <time>2022-06-18T07:11:25Z</time>
      </trkpt>
      <trkpt lat="45.30102" lon="6.35518">
        <ele>511.5</ele>
        <time>2022-06-18T07:11:26Z</time>
      </trkpt>
      <trkpt lat="45.30111" lon="6.35507">
        <ele>510.9</ele>
        <time>2022-06-18T07:11:27Z</time>
      </trkpt>
      <trkpt lat="45.3012" lon="6.35495">
        <ele>510.4</ele>
        <time>2022-06-18T07:11:28Z</time>
      </trkpt>
      <trkpt lat="45.30129" lon="6.35483">
        <ele>509.9</ele>
        <time>2022-06-18T07:11:29Z</time>
      </trkpt>
      <trkpt lat="45.30137" lon="6.35471">
        <ele>509.5</ele>
        <time>2022-06-18T07:11:30Z</time>
      </trkpt>
      <trkpt lat="45.30145" lon="6.3546">
        <ele>509.3</ele>
        <time>2022-06-18T07:11:31Z</time>
      </trkpt>
      <trkpt lat="45.30153" lon="6.35447">
        <ele>509</ele>
        <time>2022-06-18T07:11:32Z</time>
      </trkpt>
      <trkpt lat="45.30161" lon="6.35435">
        <ele>508.8</ele>
        <time>2022-06-18T07:11:33Z</time>
      </trkpt>
      <trkpt lat="45.30168" lon="6.35423">
        <ele>508.6</ele>
        <time>2022-06-18T07:11:34Z</time>
      </trkpt>
      <trkpt lat="45.30176" lon="6.35411">
        <ele>508.4</ele>
        <time>2022-06-18T07:11:35Z</time>
      </trkpt>
      <trkpt lat="45.30183" lon="6.35399">
        <ele>508.3</ele>
        <time>2022-06-18T07:11:36Z</time>
      </trkpt>
      <trkpt lat="45.3019" lon="6.35386">
        <ele>508.1</ele>
        <time>2022-06-18T07:11:37Z</time>
      </trkpt>
      <trkpt lat="45.30196" lon="6.35374">
        <ele>508</ele>
        <time>2022-06-18T07:11:38Z</time>
      </trkpt>
      <trkpt lat="45.30201" lon="6.35362">
        <ele>507.9</ele>
        <time>2022-06-18T07:11:39Z</time>
      </trkpt>
      <trkpt lat="45.30207" lon="6.3535">
        <ele>507.8</ele>
        <time>2022-06-18T07:11:40Z</time>
      </trkpt>
      <trkpt lat="45.30214" lon="6.35338">
        <ele>507.8</ele>
        <time>2022-06-18T07:11:41Z</time>
      </trkpt>
      <trkpt lat="45.3022" lon="6.35327">
        <ele>507.6</ele>
        <time>2022-06-18T07:11:42Z</time>
      </trkpt>
      <trkpt lat="45.30228" lon="6.35317">
        <ele>507.4</ele>
        <time>2022-06-18T07:11:43Z</time>
      </trkpt>
      <trkpt lat="45.30235" lon="6.35306">
        <ele>507.3</ele>
        <time>2022-06-18T07:11:44Z</time>
      </trkpt>
      <trkpt lat="45.30243" lon="6.35297">
        <ele>507.1</ele>
        <time>2022-06-18T07:11:45Z</time>
      </trkpt>
      <trkpt lat="45.30252" lon="6.35288">
        <ele>506.9</ele>
        <time>2022-06-18T07:11:46Z</time>
      </trkpt>
      <trkpt lat="45.30261" lon="6.3528">
        <ele>506.7</ele>
        <time>2022-06-18T07:11:47Z</time>
      </trkpt>
      <trkpt lat="45.30271" lon="6.35274">
        <ele>506.5</ele>
        <time>2022-06-18T07:11:48Z</time>
      </trkpt>
      <trkpt lat="45.30281" lon="6.35269">
        <ele>506.4</ele>
        <time>2022-06-18T07:11:49Z</time>
      </trkpt>
      <trkpt lat="45.30291" lon="6.35264">
        <ele>506.3</ele>
        <time>2022-06-18T07:11:50Z</time>
      </trkpt>
      <trkpt lat="45.30301" lon="6.3526">
        <ele>506.1</ele>
        <time>2022-06-18T07:11:51Z</time>
      </trkpt>
      <trkpt lat="45.30311" lon="6.35256">
        <ele>506</ele>
        <time>2022-06-18T07:11:52Z</time>
      </trkpt>
      <trkpt lat="45.30321" lon="6.35254">
        <ele>505.9</ele>
        <time>2022-06-18T07:11:53Z</time>
      </trkpt>
      <trkpt lat="45.30332" lon="6.35252">
        <ele>505.8</ele>
        <time>2022-06-18T07:11:54Z</time>
      </trkpt>
      <trkpt lat="45.30342" lon="6.35249">
        <ele>505.7</ele>
        <time>2022-06-18T07:11:55Z</time>
      </trkpt>
      <trkpt lat="45.30352" lon="6.35245">
        <ele>505.6</ele>
        <time>2022-06-18T07:11:56Z</time>
      </trkpt>
      <trkpt lat="45.30361" lon="6.3524">
        <ele>505.6</ele>
        <time>2022-06-18T07:11:57Z</time>
      </trkpt>
      <trkpt lat="45.3037" lon="6.35235">
        <ele>505.5</ele>
        <time>2022-06-18T07:11:58Z</time>
      </trkpt>
      <trkpt lat="45.30379" lon="6.35229">
        <ele>505.4</ele>
        <time>2022-06-18T07:11:59Z</time>
      </trkpt>
      <trkpt lat="45.30388" lon="6.35223">
        <ele>505.4</ele>
        <time>2022-06-18T07:12:00Z</time>
      </trkpt>
      <trkpt lat="45.30396" lon="6.35216">
        <ele>505.3</ele>
        <time>2022-06-18T07:12:01Z</time>
      </trkpt>
      <trkpt lat="45.30405" lon="6.35209">
        <ele>505.2</ele>
        <time>2022-06-18T07:12:02Z</time>
      </trkpt>
      <trkpt lat="45.30413" lon="6.35201">
        <ele>505.1</ele>
        <time>2022-06-18T07:12:03Z</time>
      </trkpt>
      <trkpt lat="45.30421" lon="6.35194">
        <ele>505.1</ele>
        <time>2022-06-18T07:12:04Z</time>
      </trkpt>
      <trkpt lat="45.30429" lon="6.35186">
        <ele>505</ele>
        <time>2022-06-18T07:12:05Z</time>
      </trkpt>
      <trkpt lat="45.30437" lon="6.35178">
        <ele>504.9</ele>
        <time>2022-06-18T07:12:06Z</time>
      </trkpt>
      <trkpt lat="45.30444" lon="6.3517">
        <ele>504.8</ele>
        <time>2022-06-18T07:12:07Z</time>
      </trkpt>
      <trkpt lat="45.30452" lon="6.35162">
        <ele>504.8</ele>
        <time>2022-06-18T07:12:08Z</time>
      </trkpt>
      <trkpt lat="45.3046" lon="6.35154">
        <ele>504.7</ele>
        <time>2022-06-18T07:12:09Z</time>
      </trkpt>
      <trkpt lat="45.30468" lon="6.35145">
        <ele>504.6</ele>
        <time>2022-06-18T07:12:10Z</time>
      </trkpt>
      <trkpt lat="45.30477" lon="6.35137">
        <ele>504.4</ele>
        <time>2022-06-18T07:12:11Z</time>
      </trkpt>
      <trkpt lat="45.30485" lon="6.35129">
        <ele>504.3</ele>
        <time>2022-06-18T07:12:12Z</time>
      </trkpt>
      <trkpt lat="45.30493" lon="6.3512">
        <ele>504.2</ele>
        <time>2022-06-18T07:12:13Z</time>
      </trkpt>
      <trkpt lat="45.30501" lon="6.35112">
        <ele>504.1</ele>
        <time>2022-06-18T07:12:14Z</time>
      </trkpt>
      <trkpt lat="45.30509" lon="6.35103">
        <ele>504</ele>
        <time>2022-06-18T07:12:15Z</time>
      </trkpt>
      <trkpt lat="45.30517" lon="6.35095">
        <ele>503.9</ele>
        <time>2022-06-18T07:12:16Z</time>
      </trkpt>
      <trkpt lat="45.30524" lon="6.35085">
        <ele>503.8</ele>
        <time>2022-06-18T07:12:17Z</time>
      </trkpt>
      <trkpt lat="45.30532" lon="6.35075">
        <ele>503.7</ele>
        <time>2022-06-18T07:12:18Z</time>
      </trkpt>
      <trkpt lat="45.30539" lon="6.35065">
        <ele>503.5</ele>
        <time>2022-06-18T07:12:19Z</time>
      </trkpt>
      <trkpt lat="45.30547" lon="6.35056">
        <ele>503.3</ele>
        <time>2022-06-18T07:12:20Z</time>
      </trkpt>
      <trkpt lat="45.30556" lon="6.35049">
        <ele>503.1</ele>
        <time>2022-06-18T07:12:21Z</time>
      </trkpt>
      <trkpt lat="45.30564" lon="6.35041">
        <ele>502.9</ele>
        <time>2022-06-18T07:12:22Z</time>
      </trkpt>
      <trkpt lat="45.30573" lon="6.35032">
        <ele>502.8</ele>
        <time>2022-06-18T07:12:23Z</time>
      </trkpt>
      <trkpt lat="45.30581" lon="6.35024">
        <ele>502.6</ele>
        <time>2022-06-18T07:12:24Z</time>
      </trkpt>
      <trkpt lat="45.30589" lon="6.35015">
        <ele>502.5</ele>
        <time>2022-06-18T07:12:25Z</time>
      </trkpt>
      <trkpt lat="45.30597" lon="6.35005">
        <ele>502.4</ele>
        <time>2022-06-18T07:12:26Z</time>
      </trkpt>
      <trkpt lat="45.30605" lon="6.34997">
        <ele>502.4</ele>
        <time>2022-06-18T07:12:27Z</time>
      </trkpt>
      <trkpt lat="45.30612" lon="6.34988">
        <ele>502.3</ele>
        <time>2022-06-18T07:12:28Z</time>
      </trkpt>
      <trkpt lat="45.3062" lon="6.3498">
        <ele>502.3</ele>
        <time>2022-06-18T07:12:29Z</time>
      </trkpt>
      <trkpt lat="45.30628" lon="6.34971">
        <ele>502.3</ele>
        <time>2022-06-18T07:12:30Z</time>
      </trkpt>
      <trkpt lat="45.30635" lon="6.34963">
        <ele>502.2</ele>
        <time>2022-06-18T07:12:31Z</time>
      </trkpt>
      <trkpt lat="45.30643" lon="6.34954">
        <ele>502.2</ele>
        <time>2022-06-18T07:12:32Z</time>
      </trkpt>
      <trkpt lat="45.30651" lon="6.34945">
        <ele>502.1</ele>
        <time>2022-06-18T07:12:33Z</time>
      </trkpt>
      <trkpt lat="45.30658" lon="6.34937">
        <ele>502.1</ele>
        <time>2022-06-18T07:12:34Z</time>
      </trkpt>
      <trkpt lat="45.30666" lon="6.34929">
        <ele>502.1</ele>
        <time>2022-06-18T07:12:35Z</time>
      </trkpt>
      <trkpt lat="45.30674" lon="6.34921">
        <ele>502</ele>
        <time>2022-06-18T07:12:36Z</time>
      </trkpt>
      <trkpt lat="45.30681" lon="6.34913">
        <ele>502</ele>
        <time>2022-06-18T07:12:37Z</time>
      </trkpt>
      <trkpt lat="45.30689" lon="6.34905">
        <ele>502</ele>
        <time>2022-06-18T07:12:38Z</time>
      </trkpt>
      <trkpt lat="45.30696" lon="6.34897">
        <ele>502</ele>
        <time>2022-06-18T07:12:39Z</time>
      </trkpt>
      <trkpt lat="45.30704" lon="6.34888">
        <ele>502</ele>
        <time>2022-06-18T07:12:40Z</time>
      </trkpt>
      <trkpt lat="45.30711" lon="6.3488">
        <ele>502.1</ele>
        <time>2022-06-18T07:12:41Z</time>
      </trkpt>
      <trkpt lat="45.30718" lon="6.34871">
        <ele>502.2</ele>
        <time>2022-06-18T07:12:42Z</time>
      </trkpt>
      <trkpt lat="45.30725" lon="6.34862">
        <ele>502.3</ele>
        <time>2022-06-18T07:12:43Z</time>
      </trkpt>
      <trkpt lat="45.30732" lon="6.34853">
        <ele>502.4</ele>
        <time>2022-06-18T07:12:44Z</time>
      </trkpt>
      <trkpt lat="45.30738" lon="6.34844">
        <ele>502.6</ele>
        <time>2022-06-18T07:12:45Z</time>
      </trkpt>
      <trkpt lat="45.30745" lon="6.34835">
        <ele>502.9</ele>
        <time>2022-06-18T07:12:46Z</time>
      </trkpt>
      <trkpt lat="45.30751" lon="6.34826">
        <ele>503.2</ele>
        <time>2022-06-18T07:12:47Z</time>
      </trkpt>
      <trkpt lat="45.30757" lon="6.34817">
        <ele>503.6</ele>
        <time>2022-06-18T07:12:48Z</time>
      </trkpt>
      <trkpt lat="45.30764" lon="6.34809">
        <ele>503.9</ele>
        <time>2022-06-18T07:12:49Z</time>
      </trkpt>
      <trkpt lat="45.3077" lon="6.34801">
        <ele>504.3</ele>
        <time>2022-06-18T07:12:50Z</time>
      </trkpt>
      <trkpt lat="45.30777" lon="6.34793">
        <ele>504.7</ele>
        <time>2022-06-18T07:12:51Z</time>
      </trkpt>
      <trkpt lat="45.30783" lon="6.34785">
        <ele>505</ele>
        <time>2022-06-18T07:12:52Z</time>
      </trkpt>
      <trkpt lat="45.30789" lon="6.34776">
        <ele>505.2</ele>
        <time>2022-06-18T07:12:53Z</time>
      </trkpt>
      <trkpt lat="45.30795" lon="6.34768">
        <ele>505.4</ele>
        <time>2022-06-18T07:12:54Z</time>
      </trkpt>
      <trkpt lat="45.30801" lon="6.3476">
        <ele>505.5</ele>
        <time>2022-06-18T07:12:55Z</time>
      </trkpt>
      <trkpt lat="45.30808" lon="6.34752">
        <ele>505.6</ele>
        <time>2022-06-18T07:12:56Z</time>
      </trkpt>
      <trkpt lat="45.30814" lon="6.34744">
        <ele>505.6</ele>
        <time>2022-06-18T07:12:57Z</time>
      </trkpt>
      <trkpt lat="45.30821" lon="6.34737">
        <ele>505.6</ele>
        <time>2022-06-18T07:12:58Z</time>
      </trkpt>
      <trkpt lat="45.30828" lon="6.34729">
        <ele>505.5</ele>
        <time>2022-06-18T07:12:59Z</time>
      </trkpt>
      <trkpt lat="45.30835" lon="6.34721">
        <ele>505.3</ele>
        <time>2022-06-18T07:13:00Z</time>
      </trkpt>
      <trkpt lat="45.30843" lon="6.34713">
        <ele>505.2</ele>
        <time>2022-06-18T07:13:01Z</time>
      </trkpt>
      <trkpt lat="45.30851" lon="6.34703">
        <ele>505</ele>
        <time>2022-06-18T07:13:02Z</time>
      </trkpt>
      <trkpt lat="45.30859" lon="6.34693">
        <ele>504.9</ele>
        <time>2022-06-18T07:13:03Z</time>
      </trkpt>
      <trkpt lat="45.30866" lon="6.34683">
        <ele>504.8</ele>
        <time>2022-06-18T07:13:04Z</time>
      </trkpt>
      <trkpt lat="45.30873" lon="6.34672">
        <ele>504.7</ele>
        <time>2022-06-18T07:13:05Z</time>
      </trkpt>
      <trkpt lat="45.30878" lon="6.34661">
        <ele>504.6</ele>
        <time>2022-06-18T07:13:06Z</time>
      </trkpt>
      <trkpt lat="45.30884" lon="6.34651">
        <ele>504.4</ele>
        <time>2022-06-18T07:13:07Z</time>
      </trkpt>
      <trkpt lat="45.3089" lon="6.3464">
        <ele>504.3</ele>
        <time>2022-06-18T07:13:08Z</time>
      </trkpt>
      <trkpt lat="45.30895" lon="6.3463">
        <ele>504.1</ele>
        <time>2022-06-18T07:13:09Z</time>
      </trkpt>
      <trkpt lat="45.30901" lon="6.34619">
        <ele>504</ele>
        <time>2022-06-18T07:13:10Z</time>
      </trkpt>
      <trkpt lat="45.30906" lon="6.34608">
        <ele>503.8</ele>
        <time>2022-06-18T07:13:11Z</time>
      </trkpt>
      <trkpt lat="45.30911" lon="6.34597">
        <ele>503.6</ele>
        <time>2022-06-18T07:13:12Z</time>
      </trkpt>
      <trkpt lat="45.30916" lon="6.34586">
        <ele>503.5</ele>
        <time>2022-06-18T07:13:13Z</time>
      </trkpt>
      <trkpt lat="45.30922" lon="6.34576">
        <ele>503.4</ele>
        <time>2022-06-18T07:13:14Z</time>
      </trkpt>
      <trkpt lat="45.30927" lon="6.34565">
        <ele>503.3</ele>
        <time>2022-06-18T07:13:15Z</time>
      </trkpt>
      <trkpt lat="45.30932" lon="6.34554">
        <ele>503.3</ele>
        <time>2022-06-18T07:13:16Z</time>
      </trkpt>
      <trkpt lat="45.30937" lon="6.34543">
        <ele>503.3</ele>
        <time>2022-06-18T07:13:17Z</time>
      </trkpt>
      <trkpt lat="45.30942" lon="6.34532">
        <ele>503.3</ele>
        <time>2022-06-18T07:13:18Z</time>
      </trkpt>
      <trkpt lat="45.30947" lon="6.34521">
        <ele>503.4</ele>
        <time>2022-06-18T07:13:19Z</time>
      </trkpt>
      <trkpt lat="45.30952" lon="6.34511">
        <ele>503.5</ele>
        <time>2022-06-18T07:13:20Z</time>
      </trkpt>
      <trkpt lat="45.30957" lon="6.345">
        <ele>503.7</ele>
        <time>2022-06-18T07:13:21Z</time>
      </trkpt>
      <trkpt lat="45.30961" lon="6.3449">
        <ele>503.7</ele>
        <time>2022-06-18T07:13:22Z</time>
      </trkpt>
      <trkpt lat="45.30965" lon="6.34479">
        <ele>503.7</ele>
        <time>2022-06-18T07:13:23Z</time>
      </trkpt>
      <trkpt lat="45.30968" lon="6.34469">
        <ele>503.8</ele>
        <time>2022-06-18T07:13:24Z</time>
      </trkpt>
      <trkpt lat="45.30972" lon="6.3446">
        <ele>503.8</ele>
        <time>2022-06-18T07:13:25Z</time>
      </trkpt>
      <trkpt lat="45.30975" lon="6.34452">
        <ele>504</ele>
        <time>2022-06-18T07:13:26Z</time>
      </trkpt>
      <trkpt lat="45.30979" lon="6.34444">
        <ele>504.3</ele>
        <time>2022-06-18T07:13:27Z</time>
      </trkpt>
      <trkpt lat="45.30983" lon="6.34436">
        <ele>504.5</ele>
        <time>2022-06-18T07:13:28Z</time>
      </trkpt>
      <trkpt lat="45.30987" lon="6.34429">
        <ele>504.8</ele>
        <time>2022-06-18T07:13:29Z</time>
      </trkpt>
      <trkpt lat="45.30991" lon="6.34422">
        <ele>505.1</ele>
        <time>2022-06-18T07:13:30Z</time>
      </trkpt>
      <trkpt lat="45.30996" lon="6.34414">
        <ele>505.5</ele>
        <time>2022-06-18T07:13:31Z</time>
      </trkpt>
      <trkpt lat="45.31" lon="6.34407">
        <ele>505.8</ele>
        <time>2022-06-18T07:13:32Z</time>
      </trkpt>
      <trkpt lat="45.31004" lon="6.344">
        <ele>506.1</ele>
        <time>2022-06-18T07:13:33Z</time>
      </trkpt>
      <trkpt lat="45.31009" lon="6.34393">
        <ele>506.5</ele>
        <time>2022-06-18T07:13:34Z</time>
      </trkpt>
      <trkpt lat="45.31014" lon="6.34386">
        <ele>506.8</ele>
        <time>2022-06-18T07:13:35Z</time>
      </trkpt>
      <trkpt lat="45.31019" lon="6.34379">
        <ele>507</ele>
        <time>2022-06-18T07:13:36Z</time>
      </trkpt>
      <trkpt lat="45.31023" lon="6.34371">
        <ele>507.3</ele>
        <time>2022-06-18T07:13:37Z</time>
      </trkpt>
      <trkpt lat="45.31027" lon="6.34363">
        <ele>507.5</ele>
        <time>2022-06-18T07:13:38Z</time>
      </trkpt>
      <trkpt lat="45.31031" lon="6.34355">
        <ele>507.7</ele>
        <time>2022-06-18T07:13:39Z</time>
      </trkpt>
      <trkpt lat="45.31034" lon="6.34346">
        <ele>507.9</ele>
        <time>2022-06-18T07:13:40Z</time>
      </trkpt>
      <trkpt lat="45.31038" lon="6.34337">
        <ele>508</ele>
        <time>2022-06-18T07:13:41Z</time>
      </trkpt>
      <trkpt lat="45.31042" lon="6.34328">
        <ele>508.1</ele>
        <time>2022-06-18T07:13:42Z</time>
      </trkpt>
      <trkpt lat="45.31046" lon="6.34319">
        <ele>508.1</ele>
        <time>2022-06-18T07:13:43Z</time>
      </trkpt>
      <trkpt lat="45.3105" lon="6.34311">
        <ele>508</ele>
        <time>2022-06-18T07:13:44Z</time>
      </trkpt>
      <trkpt lat="45.31056" lon="6.34302">
        <ele>507.9</ele>
        <time>2022-06-18T07:13:45Z</time>
      </trkpt>
      <trkpt lat="45.31062" lon="6.34295">
        <ele>507.8</ele>
        <time>2022-06-18T07:13:46Z</time>
      </trkpt>
      <trkpt lat="45.31068" lon="6.34288">
        <ele>507.7</ele>
        <time>2022-06-18T07:13:47Z</time>
      </trkpt>
      <trkpt lat="45.31075" lon="6.34281">
        <ele>507.5</ele>
        <time>2022-06-18T07:13:48Z</time>
      </trkpt>
      <trkpt lat="45.31082" lon="6.34274">
        <ele>507.3</ele>
        <time>2022-06-18T07:13:49Z</time>
      </trkpt>
      <trkpt lat="45.31088" lon="6.34267">
        <ele>507.1</ele>
        <time>2022-06-18T07:13:50Z</time>
      </trkpt>
      <trkpt lat="45.31094" lon="6.3426">
        <ele>506.9</ele>
        <time>2022-06-18T07:13:51Z</time>
      </trkpt>
      <trkpt lat="45.311" lon="6.34253">
        <ele>506.7</ele>
        <time>2022-06-18T07:13:52Z</time>
      </trkpt>
      <trkpt lat="45.31106" lon="6.34245">
        <ele>506.5</ele>
        <time>2022-06-18T07:13:53Z</time>
      </trkpt>
      <trkpt lat="45.31112" lon="6.34238">
        <ele>506.3</ele>
        <time>2022-06-18T07:13:54Z</time>
      </trkpt>
      <trkpt lat="45.31118" lon="6.34231">
        <ele>506</ele>
        <time>2022-06-18T07:13:55Z</time>
      </trkpt>
      <trkpt lat="45.31125" lon="6.34223">
        <ele>505.8</ele>
        <time>2022-06-18T07:13:56Z</time>
      </trkpt>
      <trkpt lat="45.31131" lon="6.34214">
        <ele>505.5</ele>
        <time>2022-06-18T07:13:57Z</time>
      </trkpt>
      <trkpt lat="45.31137" lon="6.34205">
        <ele>505.2</ele>
        <time>2022-06-18T07:13:58Z</time>
      </trkpt>
      <trkpt lat="45.31142" lon="6.34196">
        <ele>505.1</ele>
        <time>2022-06-18T07:13:59Z</time>
      </trkpt>
      <trkpt lat="45.31147" lon="6.34186">
        <ele>504.9</ele>
        <time>2022-06-18T07:14:00Z</time>
      </trkpt>
      <trkpt lat="45.31152" lon="6.34175">
        <ele>504.8</ele>
        <time>2022-06-18T07:14:01Z</time>
      </trkpt>
      <trkpt lat="45.31157" lon="6.34164">
        <ele>504.6</ele>
        <time>2022-06-18T07:14:02Z</time>
      </trkpt>
      <trkpt lat="45.31162" lon="6.34154">
        <ele>504.5</ele>
        <time>2022-06-18T07:14:03Z</time>
      </trkpt>
      <trkpt lat="45.31167" lon="6.34144">
        <ele>504.4</ele>
        <time>2022-06-18T07:14:04Z</time>
      </trkpt>
      <trkpt lat="45.31173" lon="6.34135">
        <ele>504.3</ele>
        <time>2022-06-18T07:14:05Z</time>
      </trkpt>
      <trkpt lat="45.31177" lon="6.34125">
        <ele>504.3</ele>
        <time>2022-06-18T07:14:06Z</time>
      </trkpt>
      <trkpt lat="45.31181" lon="6.34114">
        <ele>504.3</ele>
        <time>2022-06-18T07:14:07Z</time>
      </trkpt>
      <trkpt lat="45.31184" lon="6.34103">
        <ele>504.2</ele>
        <time>2022-06-18T07:14:08Z</time>
      </trkpt>
      <trkpt lat="45.31189" lon="6.34095">
        <ele>504.2</ele>
        <time>2022-06-18T07:14:09Z</time>
      </trkpt>
      <trkpt lat="45.31194" lon="6.3409">
        <ele>503.9</ele>
        <time>2022-06-18T07:14:10Z</time>
      </trkpt>
      <trkpt lat="45.31201" lon="6.34084">
        <ele>503.6</ele>
        <time>2022-06-18T07:14:11Z</time>
      </trkpt>
      <trkpt lat="45.31208" lon="6.34079">
        <ele>503.3</ele>
        <time>2022-06-18T07:14:12Z</time>
      </trkpt>
      <trkpt lat="45.31217" lon="6.34075">
        <ele>503.1</ele>
        <time>2022-06-18T07:14:13Z</time>
      </trkpt>
      <trkpt lat="45.31225" lon="6.3407">
        <ele>502.8</ele>
        <time>2022-06-18T07:14:14Z</time>
      </trkpt>
      <trkpt lat="45.31233" lon="6.34067">
        <ele>502.5</ele>
        <time>2022-06-18T07:14:15Z</time>
      </trkpt>
      <trkpt lat="45.31241" lon="6.34063">
        <ele>502.3</ele>
        <time>2022-06-18T07:14:16Z</time>
      </trkpt>
      <trkpt lat="45.31249" lon="6.34059">
        <ele>502.1</ele>
        <time>2022-06-18T07:14:17Z</time>
      </trkpt>
      <trkpt lat="45.31257" lon="6.34054">
        <ele>501.9</ele>
        <time>2022-06-18T07:14:18Z</time>
      </trkpt>
      <trkpt lat="45.31266" lon="6.34049">
        <ele>501.6</ele>
        <time>2022-06-18T07:14:19Z</time>
      </trkpt>
      <trkpt lat="45.31274" lon="6.34044">
        <ele>501.4</ele>
        <time>2022-06-18T07:14:20Z</time>
      </trkpt>
      <trkpt lat="45.31282" lon="6.34039">
        <ele>501.2</ele>
        <time>2022-06-18T07:14:21Z</time>
      </trkpt>
      <trkpt lat="45.31289" lon="6.34033">
        <ele>501</ele>
        <time>2022-06-18T07:14:22Z</time>
      </trkpt>
      <trkpt lat="45.31295" lon="6.34026">
        <ele>500.8</ele>
        <time>2022-06-18T07:14:23Z</time>
      </trkpt>
      <trkpt lat="45.31301" lon="6.34019">
        <ele>500.2</ele>
        <time>2022-06-18T07:14:24Z</time>
      </trkpt>
      <trkpt lat="45.31307" lon="6.34012">
        <ele>499.5</ele>
        <time>2022-06-18T07:14:25Z</time>
      </trkpt>
      <trkpt lat="45.31313" lon="6.34005">
        <ele>498.8</ele>
        <time>2022-06-18T07:14:26Z</time>
      </trkpt>
      <trkpt lat="45.31318" lon="6.33997">
        <ele>498.1</ele>
        <time>2022-06-18T07:14:27Z</time>
      </trkpt>
      <trkpt lat="45.31322" lon="6.33988">
        <ele>497.4</ele>
        <time>2022-06-18T07:14:28Z</time>
      </trkpt>
      <trkpt lat="45.31325" lon="6.33978">
        <ele>496.7</ele>
        <time>2022-06-18T07:14:29Z</time>
      </trkpt>
      <trkpt lat="45.31326" lon="6.33967">
        <ele>495.9</ele>
        <time>2022-06-18T07:14:30Z</time>
      </trkpt>
      <trkpt lat="45.31325" lon="6.33954">
        <ele>495.2</ele>
        <time>2022-06-18T07:14:31Z</time>
      </trkpt>
      <trkpt lat="45.31323" lon="6.33942">
        <ele>494.5</ele>
        <time>2022-06-18T07:14:32Z</time>
      </trkpt>
      <trkpt lat="45.3132" lon="6.3393">
        <ele>493.9</ele>
        <time>2022-06-18T07:14:33Z</time>
      </trkpt>
      <trkpt lat="45.31314" lon="6.33917">
        <ele>493.4</ele>
        <time>2022-06-18T07:14:34Z</time>
      </trkpt>
      <trkpt lat="45.31306" lon="6.33906">
        <ele>493</ele>
        <time>2022-06-18T07:14:35Z</time>
      </trkpt>
      <trkpt lat="45.31298" lon="6.33896">
        <ele>492.9</ele>
        <time>2022-06-18T07:14:36Z</time>
      </trkpt>
      <trkpt lat="45.3129" lon="6.33887">
        <ele>492.9</ele>
        <time>2022-06-18T07:14:37Z</time>
      </trkpt>
      <trkpt lat="45.31282" lon="6.33877">
        <ele>492.8</ele>
        <time>2022-06-18T07:14:38Z</time>
      </trkpt>
      <trkpt lat="45.31275" lon="6.33868">
        <ele>492.6</ele>
        <time>2022-06-18T07:14:39Z</time>
      </trkpt>
      <trkpt lat="45.3127" lon="6.33859">
        <ele>492.4</ele>
        <time>2022-06-18T07:14:40Z</time>
      </trkpt>
      <trkpt lat="45.31271" lon="6.3385">
        <ele>492.3</ele>
        <time>2022-06-18T07:14:41Z</time>
      </trkpt>
      <trkpt lat="45.31276" lon="6.33842">
        <ele>492.1</ele>
        <time>2022-06-18T07:14:42Z</time>
      </trkpt>
      <trkpt lat="45.31282" lon="6.33834">
        <ele>492</ele>
        <time>2022-06-18T07:14:43Z</time>
      </trkpt>
      <trkpt lat="45.3129" lon="6.33827">
        <ele>491.9</ele>
        <time>2022-06-18T07:14:44Z</time>
      </trkpt>
      <trkpt lat="45.31297" lon="6.3382">
        <ele>491.8</ele>
        <time>2022-06-18T07:14:45Z</time>
      </trkpt>
      <trkpt lat="45.31306" lon="6.33813">
        <ele>491.8</ele>
        <time>2022-06-18T07:14:46Z</time>
      </trkpt>
      <trkpt lat="45.31315" lon="6.33806">
        <ele>491.9</ele>
        <time>2022-06-18T07:14:47Z</time>
      </trkpt>
      <trkpt lat="45.31322" lon="6.33798">
        <ele>492</ele>
        <time>2022-06-18T07:14:48Z</time>
      </trkpt>
      <trkpt lat="45.31329" lon="6.3379">
        <ele>492</ele>
        <time>2022-06-18T07:14:49Z</time>
      </trkpt>
      <trkpt lat="45.31334" lon="6.33782">
        <ele>492.1</ele>
        <time>2022-06-18T07:14:50Z</time>
      </trkpt>
      <trkpt lat="45.3134" lon="6.33773">
        <ele>492.1</ele>
        <time>2022-06-18T07:14:51Z</time>
      </trkpt>
      <trkpt lat="45.31344" lon="6.33764">
        <ele>492.1</ele>
        <time>2022-06-18T07:14:52Z</time>
      </trkpt>
      <trkpt lat="45.31348" lon="6.33755">
        <ele>492.1</ele>
        <time>2022-06-18T07:14:53Z</time>
      </trkpt>
      <trkpt lat="45.3135" lon="6.33744">
        <ele>492.1</ele>
        <time>2022-06-18T07:14:54Z</time>
      </trkpt>
      <trkpt lat="45.31353" lon="6.33734">
        <ele>492.1</ele>
        <time>2022-06-18T07:14:55Z</time>
      </trkpt>
      <trkpt lat="45.31355" lon="6.33724">
        <ele>492.1</ele>
        <time>2022-06-18T07:14:56Z</time>
      </trkpt>
      <trkpt lat="45.31357" lon="6.33713">
        <ele>492.1</ele>
        <time>2022-06-18T07:14:57Z</time>
      </trkpt>
      <trkpt lat="45.31359" lon="6.33702">
        <ele>492.1</ele>
        <time>2022-06-18T07:14:58Z</time>
      </trkpt>
      <trkpt lat="45.31361" lon="6.33692">
        <ele>492.1</ele>
        <time>2022-06-18T07:14:59Z</time>
      </trkpt>
      <trkpt lat="45.31363" lon="6.33682">
        <ele>492.1</ele>
        <time>2022-06-18T07:15:00Z</time>
      </trkpt>
      <trkpt lat="45.31366" lon="6.33672">
        <ele>492.1</ele>
        <time>2022-06-18T07:15:01Z</time>
      </trkpt>
      <trkpt lat="45.31368" lon="6.33662">
        <ele>492.2</ele>
        <time>2022-06-18T07:15:02Z</time>
      </trkpt>
      <trkpt lat="45.31371" lon="6.33653">
        <ele>492.2</ele>
        <time>2022-06-18T07:15:03Z</time>
      </trkpt>
      <trkpt lat="45.31374" lon="6.33645">
        <ele>492.2</ele>
        <time>2022-06-18T07:15:04Z</time>
      </trkpt>
      <trkpt lat="45.31379" lon="6.33637">
        <ele>492.3</ele>
        <time>2022-06-18T07:15:05Z</time>
      </trkpt>
      <trkpt lat="45.31385" lon="6.3363">
        <ele>492.3</ele>
        <time>2022-06-18T07:15:06Z</time>
      </trkpt>
      <trkpt lat="45.31391" lon="6.33625">
        <ele>492.4</ele>
        <time>2022-06-18T07:15:07Z</time>
      </trkpt>
      <trkpt lat="45.31397" lon="6.33619">
        <ele>492.6</ele>
        <time>2022-06-18T07:15:08Z</time>
      </trkpt>
      <trkpt lat="45.31403" lon="6.33615">
        <ele>492.7</ele>
        <time>2022-06-18T07:15:09Z</time>
      </trkpt>
      <trkpt lat="45.31408" lon="6.33611">
        <ele>492.8</ele>
        <time>2022-06-18T07:15:10Z</time>
      </trkpt>
      <trkpt lat="45.31412" lon="6.33606">
        <ele>492.8</ele>
        <time>2022-06-18T07:15:11Z</time>
      </trkpt>
      <trkpt lat="45.31413" lon="6.336">
        <ele>492.7</ele>
        <time>2022-06-18T07:15:12Z</time>
      </trkpt>
      <trkpt lat="45.31413" lon="6.33593">
        <ele>492.6</ele>
        <time>2022-06-18T07:15:13Z</time>
      </trkpt>
      <trkpt lat="45.3141" lon="6.33585">
        <ele>492.5</ele>
        <time>2022-06-18T07:15:14Z</time>
      </trkpt>
      <trkpt lat="45.31406" lon="6.33577">
        <ele>492.3</ele>
        <time>2022-06-18T07:15:15Z</time>
      </trkpt>
      <trkpt lat="45.31401" lon="6.3357">
        <ele>492.1</ele>
        <time>2022-06-18T07:15:16Z</time>
      </trkpt>
      <trkpt lat="45.31396" lon="6.33565">
        <ele>491.9</ele>
        <time>2022-06-18T07:15:17Z</time>
      </trkpt>
      <trkpt lat="45.3139" lon="6.3356">
        <ele>491.8</ele>
        <time>2022-06-18T07:15:18Z</time>
      </trkpt>
      <trkpt lat="45.31384" lon="6.33557">
        <ele>491.6</ele>
        <time>2022-06-18T07:15:19Z</time>
      </trkpt>
      <trkpt lat="45.31378" lon="6.33553">
        <ele>491.4</ele>
        <time>2022-06-18T07:15:20Z</time>
      </trkpt>
      <trkpt lat="45.31372" lon="6.33549">
        <ele>491.2</ele>
        <time>2022-06-18T07:15:21Z</time>
      </trkpt>
      <trkpt lat="45.31366" lon="6.33544">
        <ele>490.9</ele>
        <time>2022-06-18T07:15:22Z</time>
      </trkpt>
      <trkpt lat="45.31361" lon="6.33539">
        <ele>490.7</ele>
        <time>2022-06-18T07:15:23Z</time>
      </trkpt>
      <trkpt lat="45.31354" lon="6.33533">
        <ele>490.5</ele>
        <time>2022-06-18T07:15:24Z</time>
      </trkpt>
      <trkpt lat="45.31348" lon="6.33527">
        <ele>490.4</ele>
        <time>2022-06-18T07:15:25Z</time>
      </trkpt>
      <trkpt lat="45.31341" lon="6.33522">
        <ele>490.2</ele>
        <time>2022-06-18T07:15:26Z</time>
      </trkpt>
      <trkpt lat="45.31334" lon="6.33516">
        <ele>490</ele>
        <time>2022-06-18T07:15:27Z</time>
      </trkpt>
      <trkpt lat="45.31327" lon="6.33509">
        <ele>489.9</ele>
        <time>2022-06-18T07:15:28Z</time>
      </trkpt>
      <trkpt lat="45.31319" lon="6.33502">
        <ele>489.7</ele>
        <time>2022-06-18T07:15:29Z</time>
      </trkpt>
      <trkpt lat="45.3131" lon="6.33494">
        <ele>489.6</ele>
        <time>2022-06-18T07:15:30Z</time>
      </trkpt>
      <trkpt lat="45.31302" lon="6.33486">
        <ele>489.4</ele>
        <time>2022-06-18T07:15:31Z</time>
      </trkpt>
      <trkpt lat="45.31294" lon="6.33477">
        <ele>489.2</ele>
        <time>2022-06-18T07:15:32Z</time>
      </trkpt>
      <trkpt lat="45.31286" lon="6.33468">
        <ele>489</ele>
        <time>2022-06-18T07:15:33Z</time>
      </trkpt>
      <trkpt lat="45.31278" lon="6.33459">
        <ele>488.8</ele>
        <time>2022-06-18T07:15:34Z</time>
      </trkpt>
      <trkpt lat="45.31271" lon="6.33449">
        <ele>488.6</ele>
        <time>2022-06-18T07:15:35Z</time>
      </trkpt>
      <trkpt lat="45.31266" lon="6.33437">
        <ele>488.4</ele>
        <time>2022-06-18T07:15:36Z</time>
      </trkpt>
      <trkpt lat="45.31263" lon="6.33423">
        <ele>488.2</ele>
        <time>2022-06-18T07:15:37Z</time>
      </trkpt>
      <trkpt lat="45.31264" lon="6.33408">
        <ele>487.9</ele>
        <time>2022-06-18T07:15:38Z</time>
      </trkpt>
      <trkpt lat="45.31267" lon="6.33394">
        <ele>487.7</ele>
        <time>2022-06-18T07:15:39Z</time>
      </trkpt>
      <trkpt lat="45.31274" lon="6.3338">
        <ele>487.4</ele>
        <time>2022-06-18T07:15:40Z</time>
      </trkpt>
      <trkpt lat="45.31281" lon="6.33368">
        <ele>487.2</ele>
        <time>2022-06-18T07:15:41Z</time>
      </trkpt>
      <trkpt lat="45.3129" lon="6.33359">
        <ele>487</ele>
        <time>2022-06-18T07:15:42Z</time>
      </trkpt>
      <trkpt lat="45.31299" lon="6.33351">
        <ele>486.8</ele>
        <time>2022-06-18T07:15:43Z</time>
      </trkpt>
      <trkpt lat="45.31306" lon="6.33343">
        <ele>486.7</ele>
        <time>2022-06-18T07:15:44Z</time>
      </trkpt>
      <trkpt lat="45.31313" lon="6.33335">
        <ele>486.5</ele>
        <time>2022-06-18T07:15:45Z</time>
      </trkpt>
      <trkpt lat="45.3132" lon="6.33326">
        <ele>486.4</ele>
        <time>2022-06-18T07:15:46Z</time>
      </trkpt>
      <trkpt lat="45.31326" lon="6.33318">
        <ele>486.3</ele>
        <time>2022-06-18T07:15:47Z</time>
      </trkpt>
      <trkpt lat="45.31332" lon="6.33311">
        <ele>486.2</ele>
        <time>2022-06-18T07:15:48Z</time>
      </trkpt>
      <trkpt lat="45.31338" lon="6.33302">
        <ele>486.1</ele>
        <time>2022-06-18T07:15:49Z</time>
      </trkpt>
      <trkpt lat="45.31344" lon="6.33293">
        <ele>486</ele>
        <time>2022-06-18T07:15:50Z</time>
      </trkpt>
      <trkpt lat="45.3135" lon="6.33284">
        <ele>485.9</ele>
        <time>2022-06-18T07:15:51Z</time>
      </trkpt>
      <trkpt lat="45.31355" lon="6.33274">
        <ele>485.8</ele>
        <time>2022-06-18T07:15:52Z</time>
      </trkpt>
      <trkpt lat="45.3136" lon="6.33263">
        <ele>485.6</ele>
        <time>2022-06-18T07:15:53Z</time>
      </trkpt>
      <trkpt lat="45.31365" lon="6.33253">
        <ele>485.5</ele>
        <time>2022-06-18T07:15:54Z</time>
      </trkpt>
      <trkpt lat="45.3137" lon="6.33242">
        <ele>485.4</ele>
        <time>2022-06-18T07:15:55Z</time>
      </trkpt>
      <trkpt lat="45.31375" lon="6.33232">
        <ele>485.2</ele>
        <time>2022-06-18T07:15:56Z</time>
      </trkpt>
      <trkpt lat="45.31379" lon="6.33221">
        <ele>485.1</ele>
        <time>2022-06-18T07:15:57Z</time>
      </trkpt>
      <trkpt lat="45.31383" lon="6.3321">
        <ele>484.9</ele>
        <time>2022-06-18T07:15:58Z</time>
      </trkpt>
      <trkpt lat="45.31388" lon="6.33199">
        <ele>484.8</ele>
        <time>2022-06-18T07:15:59Z</time>
      </trkpt>
      <trkpt lat="45.31392" lon="6.33188">
        <ele>484.7</ele>
        <time>2022-06-18T07:16:00Z</time>
      </trkpt>
      <trkpt lat="45.31397" lon="6.33178">
        <ele>484.6</ele>
        <time>2022-06-18T07:16:01Z</time>
      </trkpt>
      <trkpt lat="45.31401" lon="6.33167">
        <ele>484.4</ele>
        <time>2022-06-18T07:16:02Z</time>
      </trkpt>
      <trkpt lat="45.31405" lon="6.33155">
        <ele>484.3</ele>
        <time>2022-06-18T07:16:03Z</time>
      </trkpt>
      <trkpt lat="45.31409" lon="6.33144">
        <ele>484.2</ele>
        <time>2022-06-18T07:16:04Z</time>
      </trkpt>
      <trkpt lat="45.31412" lon="6.33133">
        <ele>484.1</ele>
        <time>2022-06-18T07:16:05Z</time>
      </trkpt>
      <trkpt lat="45.31416" lon="6.33121">
        <ele>483.9</ele>
        <time>2022-06-18T07:16:06Z</time>
      </trkpt>
      <trkpt lat="45.31419" lon="6.3311">
        <ele>483.8</ele>
        <time>2022-06-18T07:16:07Z</time>
      </trkpt>
      <trkpt lat="45.31423" lon="6.33099">
        <ele>483.7</ele>
        <time>2022-06-18T07:16:08Z</time>
      </trkpt>
      <trkpt lat="45.31426" lon="6.33087">
        <ele>483.6</ele>
        <time>2022-06-18T07:16:09Z</time>
      </trkpt>
      <trkpt lat="45.31429" lon="6.33076">
        <ele>483.5</ele>
        <time>2022-06-18T07:16:10Z</time>
      </trkpt>
      <trkpt lat="45.31433" lon="6.33065">
        <ele>483.5</ele>
        <time>2022-06-18T07:16:11Z</time>
      </trkpt>
      <trkpt lat="45.31437" lon="6.33055">
        <ele>483.4</ele>
        <time>2022-06-18T07:16:12Z</time>
      </trkpt>
      <trkpt lat="45.31441" lon="6.33044">
        <ele>483.3</ele>
        <time>2022-06-18T07:16:13Z</time>
      </trkpt>
      <trkpt lat="45.31445" lon="6.33034">
        <ele>483.3</ele>
        <time>2022-06-18T07:16:14Z</time>
      </trkpt>
      <trkpt lat="45.3145" lon="6.33023">
        <ele>483.3</ele>
        <time>2022-06-18T07:16:15Z</time>
      </trkpt>
      <trkpt lat="45.31455" lon="6.33013">
        <ele>483.3</ele>
        <time>2022-06-18T07:16:16Z</time>
      </trkpt>
      <trkpt lat="45.3146" lon="6.33003">
        <ele>483.3</ele>
        <time>2022-06-18T07:16:17Z</time>
      </trkpt>
      <trkpt lat="45.31464" lon="6.32993">
        <ele>483.2</ele>
        <time>2022-06-18T07:16:18Z</time>
      </trkpt>
      <trkpt lat="45.31469" lon="6.32983">
        <ele>483.2</ele>
        <time>2022-06-18T07:16:19Z</time>
      </trkpt>
      <trkpt lat="45.31474" lon="6.32973">
        <ele>483.2</ele>
        <time>2022-06-18T07:16:20Z</time>
      </trkpt>
      <trkpt lat="45.31479" lon="6.32964">
        <ele>483.2</ele>
        <time>2022-06-18T07:16:21Z</time>
      </trkpt>
      <trkpt lat="45.31485" lon="6.32955">
        <ele>483.2</ele>
        <time>2022-06-18T07:16:22Z</time>
      </trkpt>
      <trkpt lat="45.3149" lon="6.32946">
        <ele>483.2</ele>
        <time>2022-06-18T07:16:23Z</time>
      </trkpt>
      <trkpt lat="45.31496" lon="6.32937">
        <ele>483.1</ele>
        <time>2022-06-18T07:16:24Z</time>
      </trkpt>
      <trkpt lat="45.31501" lon="6.32928">
        <ele>483.1</ele>
        <time>2022-06-18T07:16:25Z</time>
      </trkpt>
      <trkpt lat="45.31507" lon="6.32918">
        <ele>483.1</ele>
        <time>2022-06-18T07:16:26Z</time>
      </trkpt>
      <trkpt lat="45.31512" lon="6.32909">
        <ele>483.2</ele>
        <time>2022-06-18T07:16:27Z</time>
      </trkpt>
      <trkpt lat="45.31517" lon="6.329">
        <ele>483.2</ele>
        <time>2022-06-18T07:16:28Z</time>
      </trkpt>
      <trkpt lat="45.31522" lon="6.32891">
        <ele>483.3</ele>
        <time>2022-06-18T07:16:29Z</time>
      </trkpt>
      <trkpt lat="45.31528" lon="6.32883">
        <ele>483.4</ele>
        <time>2022-06-18T07:16:30Z</time>
      </trkpt>
      <trkpt lat="45.31533" lon="6.32874">
        <ele>483.6</ele>
        <time>2022-06-18T07:16:31Z</time>
      </trkpt>
      <trkpt lat="45.31538" lon="6.32866">
        <ele>483.8</ele>
        <time>2022-06-18T07:16:32Z</time>
      </trkpt>
      <trkpt lat="45.31543" lon="6.32858">
        <ele>484</ele>
        <time>2022-06-18T07:16:33Z</time>
      </trkpt>
      <trkpt lat="45.31546" lon="6.32849">
        <ele>484</ele>
        <time>2022-06-18T07:16:34Z</time>
      </trkpt>
      <trkpt lat="45.31549" lon="6.3284">
        <ele>484</ele>
        <time>2022-06-18T07:16:35Z</time>
      </trkpt>
      <trkpt lat="45.31551" lon="6.32831">
        <ele>484.1</ele>
        <time>2022-06-18T07:16:36Z</time>
      </trkpt>
      <trkpt lat="45.31553" lon="6.32822">
        <ele>484.2</ele>
        <time>2022-06-18T07:16:37Z</time>
      </trkpt>
      <trkpt lat="45.31554" lon="6.32814">
        <ele>484.3</ele>
        <time>2022-06-18T07:16:38Z</time>
      </trkpt>
      <trkpt lat="45.31554" lon="6.32804">
        <ele>484.4</ele>
        <time>2022-06-18T07:16:39Z</time>
      </trkpt>
      <trkpt lat="45.31554" lon="6.32794">
        <ele>484.4</ele>
        <time>2022-06-18T07:16:40Z</time>
      </trkpt>
      <trkpt lat="45.31553" lon="6.32784">
        <ele>484.4</ele>
        <time>2022-06-18T07:16:41Z</time>
      </trkpt>
      <trkpt lat="45.31551" lon="6.32775">
        <ele>484.4</ele>
        <time>2022-06-18T07:16:42Z</time>
      </trkpt>
      <trkpt lat="45.31549" lon="6.32765">
        <ele>484.5</ele>
        <time>2022-06-18T07:16:43Z</time>
      </trkpt>
      <trkpt lat="45.31547" lon="6.32757">
        <ele>484.5</ele>
        <time>2022-06-18T07:16:44Z</time>
      </trkpt>
      <trkpt lat="45.31544" lon="6.32748">
        <ele>484.5</ele>
        <time>2022-06-18T07:16:45Z</time>
      </trkpt>
      <trkpt lat="45.3154" lon="6.3274">
        <ele>484.5</ele>
        <time>2022-06-18T07:16:46Z</time>
      </trkpt>
      <trkpt lat="45.31537" lon="6.32732">
        <ele>484.4</ele>
        <time>2022-06-18T07:16:47Z</time>
      </trkpt>
      <trkpt lat="45.31533" lon="6.32723">
        <ele>484.4</ele>
        <time>2022-06-18T07:16:48Z</time>
      </trkpt>
      <trkpt lat="45.3153" lon="6.32715">
        <ele>484.4</ele>
        <time>2022-06-18T07:16:49Z</time>
      </trkpt>
      <trkpt lat="45.31526" lon="6.32706">
        <ele>484.4</ele>
        <time>2022-06-18T07:16:50Z</time>
      </trkpt>
      <trkpt lat="45.31522" lon="6.32698">
        <ele>484.3</ele>
        <time>2022-06-18T07:16:51Z</time>
      </trkpt>
      <trkpt lat="45.31519" lon="6.32689">
        <ele>484.3</ele>
        <time>2022-06-18T07:16:52Z</time>
      </trkpt>
      <trkpt lat="45.31516" lon="6.3268">
        <ele>484.2</ele>
        <time>2022-06-18T07:16:53Z</time>
      </trkpt>
      <trkpt lat="45.31513" lon="6.3267">
        <ele>484.2</ele>
        <time>2022-06-18T07:16:54Z</time>
      </trkpt>
      <trkpt lat="45.31511" lon="6.3266">
        <ele>484.1</ele>
        <time>2022-06-18T07:16:55Z</time>
      </trkpt>
      <trkpt lat="45.31509" lon="6.32649">
        <ele>484.1</ele>
        <time>2022-06-18T07:16:56Z</time>
      </trkpt>
      <trkpt lat="45.31508" lon="6.32639">
        <ele>484</ele>
        <time>2022-06-18T07:16:57Z</time>
      </trkpt>
      <trkpt lat="45.31507" lon="6.32628">
        <ele>483.9</ele>
        <time>2022-06-18T07:16:58Z</time>
      </trkpt>
      <trkpt lat="45.31507" lon="6.32616">
        <ele>483.8</ele>
        <time>2022-06-18T07:16:59Z</time>
      </trkpt>
      <trkpt lat="45.31508" lon="6.32605">
        <ele>483.7</ele>
        <time>2022-06-18T07:17:00Z</time>
      </trkpt>
      <trkpt lat="45.31509" lon="6.32594">
        <ele>483.5</ele>
        <time>2022-06-18T07:17:01Z</time>
      </trkpt>
      <trkpt lat="45.31511" lon="6.32583">
        <ele>483.4</ele>
        <time>2022-06-18T07:17:02Z</time>
      </trkpt>
      <trkpt lat="45.31513" lon="6.32572">
        <ele>483.3</ele>
        <time>2022-06-18T07:17:03Z</time>
      </trkpt>
      <trkpt lat="45.31517" lon="6.32561">
        <ele>483.1</ele>
        <time>2022-06-18T07:17:04Z</time>
      </trkpt>
      <trkpt lat="45.31521" lon="6.3255">
        <ele>483</ele>
        <time>2022-06-18T07:17:05Z</time>
      </trkpt>
      <trkpt lat="45.31525" lon="6.32539">
        <ele>482.9</ele>
        <time>2022-06-18T07:17:06Z</time>
      </trkpt>
      <trkpt lat="45.3153" lon="6.32529">
        <ele>482.8</ele>
        <time>2022-06-18T07:17:07Z</time>
      </trkpt>
      <trkpt lat="45.31536" lon="6.3252">
        <ele>482.8</ele>
        <time>2022-06-18T07:17:08Z</time>
      </trkpt>
      <trkpt lat="45.31542" lon="6.32512">
        <ele>482.7</ele>
        <time>2022-06-18T07:17:09Z</time>
      </trkpt>
      <trkpt lat="45.31548" lon="6.32504">
        <ele>482.7</ele>
        <time>2022-06-18T07:17:10Z</time>
      </trkpt>
      <trkpt lat="45.31555" lon="6.32497">
        <ele>482.7</ele>
        <time>2022-06-18T07:17:11Z</time>
      </trkpt>
      <trkpt lat="45.31562" lon="6.32491">
        <ele>482.8</ele>
        <time>2022-06-18T07:17:12Z</time>
      </trkpt>
      <trkpt lat="45.31568" lon="6.32485">
        <ele>482.9</ele>
        <time>2022-06-18T07:17:13Z</time>
      </trkpt>
      <trkpt lat="45.31575" lon="6.32479">
        <ele>483</ele>
        <time>2022-06-18T07:17:14Z</time>
      </trkpt>
      <trkpt lat="45.31581" lon="6.32473">
        <ele>483.2</ele>
        <time>2022-06-18T07:17:15Z</time>
      </trkpt>
      <trkpt lat="45.31587" lon="6.32467">
        <ele>483.3</ele>
        <time>2022-06-18T07:17:16Z</time>
      </trkpt>
      <trkpt lat="45.31593" lon="6.32462">
        <ele>483.4</ele>
        <time>2022-06-18T07:17:17Z</time>
      </trkpt>
      <trkpt lat="45.31598" lon="6.32457">
        <ele>483.5</ele>
        <time>2022-06-18T07:17:18Z</time>
      </trkpt>
      <trkpt lat="45.31604" lon="6.32452">
        <ele>483.6</ele>
        <time>2022-06-18T07:17:19Z</time>
      </trkpt>
      <trkpt lat="45.3161" lon="6.32448">
        <ele>483.7</ele>
        <time>2022-06-18T07:17:20Z</time>
      </trkpt>
      <trkpt lat="45.31616" lon="6.32443">
        <ele>483.8</ele>
        <time>2022-06-18T07:17:21Z</time>
      </trkpt>
      <trkpt lat="45.31622" lon="6.32439">
        <ele>483.9</ele>
        <time>2022-06-18T07:17:22Z</time>
      </trkpt>
      <trkpt lat="45.31629" lon="6.32436">
        <ele>483.9</ele>
        <time>2022-06-18T07:17:23Z</time>
      </trkpt>
      <trkpt lat="45.31635" lon="6.32433">
        <ele>484</ele>
        <time>2022-06-18T07:17:24Z</time>
      </trkpt>
      <trkpt lat="45.31642" lon="6.32431">
        <ele>484.1</ele>
        <time>2022-06-18T07:17:25Z</time>
      </trkpt>
      <trkpt lat="45.31648" lon="6.32429">
        <ele>484.2</ele>
        <time>2022-06-18T07:17:26Z</time>
      </trkpt>
      <trkpt lat="45.31655" lon="6.32426">
        <ele>484.3</ele>
        <time>2022-06-18T07:17:27Z</time>
      </trkpt>
      <trkpt lat="45.31661" lon="6.32424">
        <ele>484.5</ele>
        <time>2022-06-18T07:17:28Z</time>
      </trkpt>
      <trkpt lat="45.31668" lon="6.32422">
        <ele>484.6</ele>
        <time>2022-06-18T07:17:29Z</time>
      </trkpt>
      <trkpt lat="45.31674" lon="6.3242">
        <ele>484.8</ele>
        <time>2022-06-18T07:17:30Z</time>
      </trkpt>
      <trkpt lat="45.31681" lon="6.32418">
        <ele>484.9</ele>
        <time>2022-06-18T07:17:31Z</time>
      </trkpt>
      <trkpt lat="45.31688" lon="6.32416">
        <ele>485.1</ele>
        <time>2022-06-18T07:17:32Z</time>
      </trkpt>
      <trkpt lat="45.31695" lon="6.32413">
        <ele>485.4</ele>
        <time>2022-06-18T07:17:33Z</time>
      </trkpt>
      <trkpt lat="45.31701" lon="6.3241">
        <ele>485.6</ele>
        <time>2022-06-18T07:17:34Z</time>
      </trkpt>
      <trkpt lat="45.31707" lon="6.32407">
        <ele>485.9</ele>
        <time>2022-06-18T07:17:35Z</time>
      </trkpt>
      <trkpt lat="45.31712" lon="6.32403">
        <ele>486.1</ele>
        <time>2022-06-18T07:17:36Z</time>
      </trkpt>
      <trkpt lat="45.31718" lon="6.32398">
        <ele>486.4</ele>
        <time>2022-06-18T07:17:37Z</time>
      </trkpt>
      <trkpt lat="45.31724" lon="6.32394">
        <ele>486.6</ele>
        <time>2022-06-18T07:17:38Z</time>
      </trkpt>
      <trkpt lat="45.3173" lon="6.3239">
        <ele>486.9</ele>
        <time>2022-06-18T07:17:39Z</time>
      </trkpt>
      <trkpt lat="45.31736" lon="6.32386">
        <ele>487.1</ele>
        <time>2022-06-18T07:17:40Z</time>
      </trkpt>
      <trkpt lat="45.31741" lon="6.32382">
        <ele>487.5</ele>
        <time>2022-06-18T07:17:41Z</time>
      </trkpt>
      <trkpt lat="45.31747" lon="6.32378">
        <ele>487.8</ele>
        <time>2022-06-18T07:17:42Z</time>
      </trkpt>
      <trkpt lat="45.31752" lon="6.32374">
        <ele>488.2</ele>
        <time>2022-06-18T07:17:43Z</time>
      </trkpt>
      <trkpt lat="45.31757" lon="6.32369">
        <ele>488.6</ele>
        <time>2022-06-18T07:17:44Z</time>
      </trkpt>
      <trkpt lat="45.31763" lon="6.32365">
        <ele>489.1</ele>
        <time>2022-06-18T07:17:45Z</time>
      </trkpt>
      <trkpt lat="45.31767" lon="6.32361">
        <ele>489.6</ele>
        <time>2022-06-18T07:17:46Z</time>
      </trkpt>
      <trkpt lat="45.31772" lon="6.32357">
        <ele>490.1</ele>
        <time>2022-06-18T07:17:47Z</time>
      </trkpt>
      <trkpt lat="45.31776" lon="6.32353">
        <ele>490.5</ele>
        <time>2022-06-18T07:17:48Z</time>
      </trkpt>
      <trkpt lat="45.3178" lon="6.32349">
        <ele>491</ele>
        <time>2022-06-18T07:17:49Z</time>
      </trkpt>
      <trkpt lat="45.31783" lon="6.32345">
        <ele>491.4</ele>
        <time>2022-06-18T07:17:50Z</time>
      </trkpt>
      <trkpt lat="45.31787" lon="6.32341">
        <ele>491.8</ele>
        <time>2022-06-18T07:17:51Z</time>
      </trkpt>
      <trkpt lat="45.31791" lon="6.32337">
        <ele>492.3</ele>
        <time>2022-06-18T07:17:52Z</time>
      </trkpt>
      <trkpt lat="45.31794" lon="6.32335">
        <ele>492.6</ele>
        <time>2022-06-18T07:17:53Z</time>
      </trkpt>
      <trkpt lat="45.31797" lon="6.32331">
        <ele>493</ele>
        <time>2022-06-18T07:17:54Z</time>
      </trkpt>
      <trkpt lat="45.318" lon="6.32329">
        <ele>493.3</ele>
        <time>2022-06-18T07:17:55Z</time>
      </trkpt>
      <trkpt lat="45.31803" lon="6.32325">
        <ele>493.7</ele>
        <time>2022-06-18T07:17:56Z</time>
      </trkpt>
      <trkpt lat="45.31806" lon="6.32321">
        <ele>494.1</ele>
        <time>2022-06-18T07:17:57Z</time>
      </trkpt>
      <trkpt lat="45.3181" lon="6.32317">
        <ele>494.5</ele>
        <time>2022-06-18T07:17:58Z</time>
      </trkpt>
      <trkpt lat="45.31815" lon="6.32312">
        <ele>495.1</ele>
        <time>2022-06-18T07:17:59Z</time>
      </trkpt>
      <trkpt lat="45.31819" lon="6.3231">
        <ele>495.5</ele>
        <time>2022-06-18T07:18:01Z</time>
      </trkpt>
      <trkpt lat="45.31825" lon="6.323">
        <ele>496.5</ele>
        <time>2022-06-18T07:18:02Z</time>
      </trkpt>
      <trkpt lat="45.31829" lon="6.32295">
        <ele>497.1</ele>
        <time>2022-06-18T07:18:03Z</time>
      </trkpt>
      <trkpt lat="45.31833" lon="6.3229">
        <ele>497.6</ele>
        <time>2022-06-18T07:18:04Z</time>
      </trkpt>
      <trkpt lat="45.31837" lon="6.32285">
        <ele>498.1</ele>
        <time>2022-06-18T07:18:05Z</time>
      </trkpt>
      <trkpt lat="45.31841" lon="6.3228">
        <ele>498.6</ele>
        <time>2022-06-18T07:18:06Z</time>
      </trkpt>
      <trkpt lat="45.31844" lon="6.32275">
        <ele>499.1</ele>
        <time>2022-06-18T07:18:07Z</time>
      </trkpt>
      <trkpt lat="45.31848" lon="6.3227">
        <ele>499.5</ele>
        <time>2022-06-18T07:18:08Z</time>
      </trkpt>
      <trkpt lat="45.31851" lon="6.32265">
        <ele>500</ele>
        <time>2022-06-18T07:18:09Z</time>
      </trkpt>
      <trkpt lat="45.31854" lon="6.3226">
        <ele>500.4</ele>
        <time>2022-06-18T07:18:10Z</time>
      </trkpt>
      <trkpt lat="45.31858" lon="6.32255">
        <ele>500.9</ele>
        <time>2022-06-18T07:18:11Z</time>
      </trkpt>
      <trkpt lat="45.31862" lon="6.3225">
        <ele>501.4</ele>
        <time>2022-06-18T07:18:12Z</time>
      </trkpt>
      <trkpt lat="45.31866" lon="6.32245">
        <ele>501.8</ele>
        <time>2022-06-18T07:18:13Z</time>
      </trkpt>
      <trkpt lat="45.31869" lon="6.3224">
        <ele>502.2</ele>
        <time>2022-06-18T07:18:14Z</time>
      </trkpt>
      <trkpt lat="45.31872" lon="6.32236">
        <ele>502.6</ele>
        <time>2022-06-18T07:18:15Z</time>
      </trkpt>
      <trkpt lat="45.31874" lon="6.3223">
        <ele>503</ele>
        <time>2022-06-18T07:18:16Z</time>
      </trkpt>
      <trkpt lat="45.31876" lon="6.32225">
        <ele>503.3</ele>
        <time>2022-06-18T07:18:17Z</time>
      </trkpt>
      <trkpt lat="45.31879" lon="6.3222">
        <ele>503.6</ele>
        <time>2022-06-18T07:18:18Z</time>
      </trkpt>
      <trkpt lat="45.31882" lon="6.32215">
        <ele>503.9</ele>
        <time>2022-06-18T07:18:19Z</time>
      </trkpt>
      <trkpt lat="45.31884" lon="6.3221">
        <ele>504.2</ele>
        <time>2022-06-18T07:18:20Z</time>
      </trkpt>
      <trkpt lat="45.31886" lon="6.32204">
        <ele>504.5</ele>
        <time>2022-06-18T07:18:21Z</time>
      </trkpt>
      <trkpt lat="45.31888" lon="6.32198">
        <ele>504.8</ele>
        <time>2022-06-18T07:18:22Z</time>
      </trkpt>
      <trkpt lat="45.3189" lon="6.32192">
        <ele>505.1</ele>
        <time>2022-06-18T07:18:23Z</time>
      </trkpt>
      <trkpt lat="45.31892" lon="6.32186">
        <ele>505.4</ele>
        <time>2022-06-18T07:18:24Z</time>
      </trkpt>
      <trkpt lat="45.31895" lon="6.32179">
        <ele>505.6</ele>
        <time>2022-06-18T07:18:25Z</time>
      </trkpt>
      <trkpt lat="45.31898" lon="6.32173">
        <ele>505.9</ele>
        <time>2022-06-18T07:18:26Z</time>
      </trkpt>
      <trkpt lat="45.31901" lon="6.32167">
        <ele>506.1</ele>
        <time>2022-06-18T07:18:27Z</time>
      </trkpt>
      <trkpt lat="45.31905" lon="6.32161">
        <ele>506.3</ele>
        <time>2022-06-18T07:18:28Z</time>
      </trkpt>
      <trkpt lat="45.31908" lon="6.32155">
        <ele>506.5</ele>
        <time>2022-06-18T07:18:29Z</time>
      </trkpt>
      <trkpt lat="45.31911" lon="6.32148">
        <ele>506.7</ele>
        <time>2022-06-18T07:18:30Z</time>
      </trkpt>
      <trkpt lat="45.31914" lon="6.32141">
        <ele>506.8</ele>
        <time>2022-06-18T07:18:31Z</time>
      </trkpt>
      <trkpt lat="45.31917" lon="6.32134">
        <ele>506.9</ele>
        <time>2022-06-18T07:18:32Z</time>
      </trkpt>
      <trkpt lat="45.31921" lon="6.32127">
        <ele>507</ele>
        <time>2022-06-18T07:18:33Z</time>
      </trkpt>
      <trkpt lat="45.31924" lon="6.3212">
        <ele>507.1</ele>
        <time>2022-06-18T07:18:34Z</time>
      </trkpt>
      <trkpt lat="45.31927" lon="6.32113">
        <ele>507.2</ele>
        <time>2022-06-18T07:18:35Z</time>
      </trkpt>
      <trkpt lat="45.31931" lon="6.32106">
        <ele>507.3</ele>
        <time>2022-06-18T07:18:36Z</time>
      </trkpt>
      <trkpt lat="45.31935" lon="6.32099">
        <ele>507.4</ele>
        <time>2022-06-18T07:18:37Z</time>
      </trkpt>
      <trkpt lat="45.31939" lon="6.32092">
        <ele>507.4</ele>
        <time>2022-06-18T07:18:38Z</time>
      </trkpt>
      <trkpt lat="45.31943" lon="6.32085">
        <ele>507.5</ele>
        <time>2022-06-18T07:18:39Z</time>
      </trkpt>
      <trkpt lat="45.31947" lon="6.32079">
        <ele>507.6</ele>
        <time>2022-06-18T07:18:40Z</time>
      </trkpt>
      <trkpt lat="45.31951" lon="6.32072">
        <ele>507.6</ele>
        <time>2022-06-18T07:18:41Z</time>
      </trkpt>
      <trkpt lat="45.31955" lon="6.32065">
        <ele>507.7</ele>
        <time>2022-06-18T07:18:42Z</time>
      </trkpt>
      <trkpt lat="45.31959" lon="6.32058">
        <ele>507.7</ele>
        <time>2022-06-18T07:18:43Z</time>
      </trkpt>
      <trkpt lat="45.31962" lon="6.32051">
        <ele>507.8</ele>
        <time>2022-06-18T07:18:44Z</time>
      </trkpt>
      <trkpt lat="45.31966" lon="6.32043">
        <ele>507.9</ele>
        <time>2022-06-18T07:18:45Z</time>
      </trkpt>
      <trkpt lat="45.3197" lon="6.32035">
        <ele>508</ele>
        <time>2022-06-18T07:18:46Z</time>
      </trkpt>
      <trkpt lat="45.31975" lon="6.32027">
        <ele>508</ele>
        <time>2022-06-18T07:18:47Z</time>
      </trkpt>
      <trkpt lat="45.31979" lon="6.32019">
        <ele>508.1</ele>
        <time>2022-06-18T07:18:48Z</time>
      </trkpt>
      <trkpt lat="45.31983" lon="6.32011">
        <ele>508.2</ele>
        <time>2022-06-18T07:18:49Z</time>
      </trkpt>
      <trkpt lat="45.31987" lon="6.32003">
        <ele>508.3</ele>
        <time>2022-06-18T07:18:50Z</time>
      </trkpt>
      <trkpt lat="45.31992" lon="6.31995">
        <ele>508.4</ele>
        <time>2022-06-18T07:18:51Z</time>
      </trkpt>
      <trkpt lat="45.31997" lon="6.31988">
        <ele>508.4</ele>
        <time>2022-06-18T07:18:52Z</time>
      </trkpt>
      <trkpt lat="45.32002" lon="6.3198">
        <ele>508.5</ele>
        <time>2022-06-18T07:18:53Z</time>
      </trkpt>
      <trkpt lat="45.32007" lon="6.31973">
        <ele>508.5</ele>
        <time>2022-06-18T07:18:54Z</time>
      </trkpt>
      <trkpt lat="45.32012" lon="6.31966">
        <ele>508.6</ele>
        <time>2022-06-18T07:18:55Z</time>
      </trkpt>
      <trkpt lat="45.32017" lon="6.31958">
        <ele>508.6</ele>
        <time>2022-06-18T07:18:56Z</time>
      </trkpt>
      <trkpt lat="45.32023" lon="6.31952">
        <ele>508.6</ele>
        <time>2022-06-18T07:18:57Z</time>
      </trkpt>
      <trkpt lat="45.32029" lon="6.31945">
        <ele>508.5</ele>
        <time>2022-06-18T07:18:58Z</time>
      </trkpt>
      <trkpt lat="45.32035" lon="6.31939">
        <ele>508.4</ele>
        <time>2022-06-18T07:18:59Z</time>
      </trkpt>
      <trkpt lat="45.32041" lon="6.31933">
        <ele>508.3</ele>
        <time>2022-06-18T07:19:00Z</time>
      </trkpt>
      <trkpt lat="45.32047" lon="6.31926">
        <ele>508.1</ele>
        <time>2022-06-18T07:19:01Z</time>
      </trkpt>
      <trkpt lat="45.32053" lon="6.31919">
        <ele>507.9</ele>
        <time>2022-06-18T07:19:02Z</time>
      </trkpt>
      <trkpt lat="45.32059" lon="6.31912">
        <ele>507.6</ele>
        <time>2022-06-18T07:19:03Z</time>
      </trkpt>
      <trkpt lat="45.32065" lon="6.31906">
        <ele>507.2</ele>
        <time>2022-06-18T07:19:04Z</time>
      </trkpt>
      <trkpt lat="45.32072" lon="6.31899">
        <ele>506.8</ele>
        <time>2022-06-18T07:19:05Z</time>
      </trkpt>
      <trkpt lat="45.32079" lon="6.31893">
        <ele>506.4</ele>
        <time>2022-06-18T07:19:06Z</time>
      </trkpt>
      <trkpt lat="45.32086" lon="6.31887">
        <ele>505.8</ele>
        <time>2022-06-18T07:19:07Z</time>
      </trkpt>
      <trkpt lat="45.32094" lon="6.31881">
        <ele>505.3</ele>
        <time>2022-06-18T07:19:08Z</time>
      </trkpt>
      <trkpt lat="45.32101" lon="6.31875">
        <ele>504.6</ele>
        <time>2022-06-18T07:19:09Z</time>
      </trkpt>
      <trkpt lat="45.3211" lon="6.31869">
        <ele>503.9</ele>
        <time>2022-06-18T07:19:10Z</time>
      </trkpt>
      <trkpt lat="45.32118" lon="6.31864">
        <ele>503.1</ele>
        <time>2022-06-18T07:19:11Z</time>
      </trkpt>
      <trkpt lat="45.32127" lon="6.31858">
        <ele>502.3</ele>
        <time>2022-06-18T07:19:12Z</time>
      </trkpt>
      <trkpt lat="45.32136" lon="6.31853">
        <ele>501.4</ele>
        <time>2022-06-18T07:19:13Z</time>
      </trkpt>
      <trkpt lat="45.32146" lon="6.31847">
        <ele>500.4</ele>
        <time>2022-06-18T07:19:14Z</time>
      </trkpt>
      <trkpt lat="45.32157" lon="6.31843">
        <ele>499.4</ele>
        <time>2022-06-18T07:19:15Z</time>
      </trkpt>
      <trkpt lat="45.32168" lon="6.31838">
        <ele>498.3</ele>
        <time>2022-06-18T07:19:16Z</time>
      </trkpt>
      <trkpt lat="45.3218" lon="6.31833">
        <ele>497.2</ele>
        <time>2022-06-18T07:19:17Z</time>
      </trkpt>
      <trkpt lat="45.32191" lon="6.31828">
        <ele>496.1</ele>
        <time>2022-06-18T07:19:18Z</time>
      </trkpt>
      <trkpt lat="45.32203" lon="6.31824">
        <ele>495</ele>
        <time>2022-06-18T07:19:19Z</time>
      </trkpt>
      <trkpt lat="45.32215" lon="6.31821">
        <ele>494</ele>
        <time>2022-06-18T07:19:20Z</time>
      </trkpt>
      <trkpt lat="45.32226" lon="6.31819">
        <ele>493</ele>
        <time>2022-06-18T07:19:21Z</time>
      </trkpt>
      <trkpt lat="45.32239" lon="6.31817">
        <ele>492</ele>
        <time>2022-06-18T07:19:22Z</time>
      </trkpt>
      <trkpt lat="45.32252" lon="6.31816">
        <ele>490.9</ele>
        <time>2022-06-18T07:19:23Z</time>
      </trkpt>
      <trkpt lat="45.32266" lon="6.31816">
        <ele>489.7</ele>
        <time>2022-06-18T07:19:24Z</time>
      </trkpt>
      <trkpt lat="45.3228" lon="6.31816">
        <ele>488.5</ele>
        <time>2022-06-18T07:19:25Z</time>
      </trkpt>
      <trkpt lat="45.32294" lon="6.31816">
        <ele>487.3</ele>
        <time>2022-06-18T07:19:26Z</time>
      </trkpt>
      <trkpt lat="45.32308" lon="6.31816">
        <ele>486.1</ele>
        <time>2022-06-18T07:19:27Z</time>
      </trkpt>
      <trkpt lat="45.32323" lon="6.31815">
        <ele>484.8</ele>
        <time>2022-06-18T07:19:28Z</time>
      </trkpt>
      <trkpt lat="45.32337" lon="6.31813">
        <ele>483.5</ele>
        <time>2022-06-18T07:19:29Z</time>
      </trkpt>
      <trkpt lat="45.32352" lon="6.31812">
        <ele>482.2</ele>
        <time>2022-06-18T07:19:30Z</time>
      </trkpt>
      <trkpt lat="45.32367" lon="6.3181">
        <ele>480.9</ele>
        <time>2022-06-18T07:19:31Z</time>
      </trkpt>
      <trkpt lat="45.32383" lon="6.31807">
        <ele>479.4</ele>
        <time>2022-06-18T07:19:32Z</time>
      </trkpt>
      <trkpt lat="45.32398" lon="6.31804">
        <ele>477.9</ele>
        <time>2022-06-18T07:19:33Z</time>
      </trkpt>
      <trkpt lat="45.32413" lon="6.318">
        <ele>476.5</ele>
        <time>2022-06-18T07:19:34Z</time>
      </trkpt>
      <trkpt lat="45.32428" lon="6.31796">
        <ele>475.1</ele>
        <time>2022-06-18T07:19:35Z</time>
      </trkpt>
      <trkpt lat="45.32443" lon="6.31792">
        <ele>474</ele>
        <time>2022-06-18T07:19:36Z</time>
      </trkpt>
      <trkpt lat="45.32458" lon="6.31788">
        <ele>473.1</ele>
        <time>2022-06-18T07:19:37Z</time>
      </trkpt>
      <trkpt lat="45.32473" lon="6.31783">
        <ele>472.4</ele>
        <time>2022-06-18T07:19:38Z</time>
      </trkpt>
      <trkpt lat="45.32488" lon="6.31778">
        <ele>471.9</ele>
        <time>2022-06-18T07:19:39Z</time>
      </trkpt>
      <trkpt lat="45.32502" lon="6.31773">
        <ele>471.6</ele>
        <time>2022-06-18T07:19:40Z</time>
      </trkpt>
      <trkpt lat="45.32516" lon="6.31768">
        <ele>471.4</ele>
        <time>2022-06-18T07:19:41Z</time>
      </trkpt>
      <trkpt lat="45.32529" lon="6.31763">
        <ele>471.2</ele>
        <time>2022-06-18T07:19:42Z</time>
      </trkpt>
      <trkpt lat="45.32542" lon="6.31758">
        <ele>471</ele>
        <time>2022-06-18T07:19:43Z</time>
      </trkpt>
      <trkpt lat="45.32554" lon="6.31753">
        <ele>471</ele>
        <time>2022-06-18T07:19:44Z</time>
      </trkpt>
      <trkpt lat="45.32567" lon="6.31748">
        <ele>470.9</ele>
        <time>2022-06-18T07:19:45Z</time>
      </trkpt>
      <trkpt lat="45.32579" lon="6.31743">
        <ele>470.7</ele>
        <time>2022-06-18T07:19:46Z</time>
      </trkpt>
      <trkpt lat="45.3259" lon="6.31736">
        <ele>470.6</ele>
        <time>2022-06-18T07:19:47Z</time>
      </trkpt>
      <trkpt lat="45.32602" lon="6.31728">
        <ele>470.5</ele>
        <time>2022-06-18T07:19:48Z</time>
      </trkpt>
      <trkpt lat="45.32612" lon="6.31718">
        <ele>470.4</ele>
        <time>2022-06-18T07:19:49Z</time>
      </trkpt>
      <trkpt lat="45.32623" lon="6.31708">
        <ele>470.3</ele>
        <time>2022-06-18T07:19:50Z</time>
      </trkpt>
      <trkpt lat="45.32632" lon="6.31697">
        <ele>470.3</ele>
        <time>2022-06-18T07:19:51Z</time>
      </trkpt>
      <trkpt lat="45.3264" lon="6.31684">
        <ele>470.3</ele>
        <time>2022-06-18T07:19:52Z</time>
      </trkpt>
      <trkpt lat="45.32649" lon="6.31671">
        <ele>470.3</ele>
        <time>2022-06-18T07:19:53Z</time>
      </trkpt>
      <trkpt lat="45.32656" lon="6.31658">
        <ele>470.3</ele>
        <time>2022-06-18T07:19:54Z</time>
      </trkpt>
      <trkpt lat="45.32664" lon="6.31644">
        <ele>470.5</ele>
        <time>2022-06-18T07:19:55Z</time>
      </trkpt>
      <trkpt lat="45.32671" lon="6.31631">
        <ele>470.6</ele>
        <time>2022-06-18T07:19:56Z</time>
      </trkpt>
      <trkpt lat="45.32679" lon="6.31619">
        <ele>470.7</ele>
        <time>2022-06-18T07:19:57Z</time>
      </trkpt>
      <trkpt lat="45.32687" lon="6.31607">
        <ele>470.7</ele>
        <time>2022-06-18T07:19:58Z</time>
      </trkpt>
      <trkpt lat="45.32696" lon="6.31597">
        <ele>470.7</ele>
        <time>2022-06-18T07:19:59Z</time>
      </trkpt>
      <trkpt lat="45.32705" lon="6.31588">
        <ele>470.7</ele>
        <time>2022-06-18T07:20:00Z</time>
      </trkpt>
      <trkpt lat="45.32716" lon="6.31582">
        <ele>470.8</ele>
        <time>2022-06-18T07:20:01Z</time>
      </trkpt>
      <trkpt lat="45.32726" lon="6.31578">
        <ele>470.9</ele>
        <time>2022-06-18T07:20:02Z</time>
      </trkpt>
      <trkpt lat="45.32737" lon="6.31576">
        <ele>471</ele>
        <time>2022-06-18T07:20:03Z</time>
      </trkpt>
      <trkpt lat="45.32747" lon="6.31574">
        <ele>471</ele>
        <time>2022-06-18T07:20:04Z</time>
      </trkpt>
      <trkpt lat="45.32757" lon="6.3157">
        <ele>471</ele>
        <time>2022-06-18T07:20:05Z</time>
      </trkpt>
      <trkpt lat="45.32767" lon="6.31564">
        <ele>471.1</ele>
        <time>2022-06-18T07:20:06Z</time>
      </trkpt>
      <trkpt lat="45.32775" lon="6.31555">
        <ele>471.1</ele>
        <time>2022-06-18T07:20:07Z</time>
      </trkpt>
      <trkpt lat="45.32783" lon="6.31545">
        <ele>471.1</ele>
        <time>2022-06-18T07:20:08Z</time>
      </trkpt>
      <trkpt lat="45.3279" lon="6.31533">
        <ele>471.1</ele>
        <time>2022-06-18T07:20:09Z</time>
      </trkpt>
      <trkpt lat="45.32798" lon="6.31522">
        <ele>471</ele>
        <time>2022-06-18T07:20:10Z</time>
      </trkpt>
      <trkpt lat="45.32805" lon="6.31512">
        <ele>470.9</ele>
        <time>2022-06-18T07:20:11Z</time>
      </trkpt>
      <trkpt lat="45.32813" lon="6.31502">
        <ele>470.8</ele>
        <time>2022-06-18T07:20:12Z</time>
      </trkpt>
      <trkpt lat="45.32821" lon="6.31493">
        <ele>470.7</ele>
        <time>2022-06-18T07:20:13Z</time>
      </trkpt>
      <trkpt lat="45.3283" lon="6.31486">
        <ele>470.6</ele>
        <time>2022-06-18T07:20:14Z</time>
      </trkpt>
      <trkpt lat="45.32839" lon="6.3148">
        <ele>470.5</ele>
        <time>2022-06-18T07:20:15Z</time>
      </trkpt>
      <trkpt lat="45.32849" lon="6.31475">
        <ele>470.4</ele>
        <time>2022-06-18T07:20:16Z</time>
      </trkpt>
      <trkpt lat="45.32858" lon="6.31468">
        <ele>470.3</ele>
        <time>2022-06-18T07:20:17Z</time>
      </trkpt>
      <trkpt lat="45.32866" lon="6.3146">
        <ele>470.2</ele>
        <time>2022-06-18T07:20:18Z</time>
      </trkpt>
      <trkpt lat="45.32875" lon="6.31452">
        <ele>470.2</ele>
        <time>2022-06-18T07:20:19Z</time>
      </trkpt>
      <trkpt lat="45.32883" lon="6.31444">
        <ele>470.1</ele>
        <time>2022-06-18T07:20:20Z</time>
      </trkpt>
      <trkpt lat="45.32892" lon="6.31436">
        <ele>470</ele>
        <time>2022-06-18T07:20:21Z</time>
      </trkpt>
      <trkpt lat="45.32901" lon="6.31429">
        <ele>469.9</ele>
        <time>2022-06-18T07:20:22Z</time>
      </trkpt>
      <trkpt lat="45.32909" lon="6.31422">
        <ele>469.8</ele>
        <time>2022-06-18T07:20:23Z</time>
      </trkpt>
      <trkpt lat="45.32917" lon="6.31414">
        <ele>469.8</ele>
        <time>2022-06-18T07:20:24Z</time>
      </trkpt>
      <trkpt lat="45.32925" lon="6.31406">
        <ele>469.8</ele>
        <time>2022-06-18T07:20:25Z</time>
      </trkpt>
      <trkpt lat="45.32933" lon="6.31398">
        <ele>469.7</ele>
        <time>2022-06-18T07:20:26Z</time>
      </trkpt>
      <trkpt lat="45.32941" lon="6.3139">
        <ele>469.6</ele>
        <time>2022-06-18T07:20:27Z</time>
      </trkpt>
      <trkpt lat="45.32949" lon="6.31382">
        <ele>469.6</ele>
        <time>2022-06-18T07:20:28Z</time>
      </trkpt>
      <trkpt lat="45.32956" lon="6.31373">
        <ele>469.5</ele>
        <time>2022-06-18T07:20:29Z</time>
      </trkpt>
      <trkpt lat="45.32963" lon="6.31365">
        <ele>469.5</ele>
        <time>2022-06-18T07:20:30Z</time>
      </trkpt>
      <trkpt lat="45.32971" lon="6.31357">
        <ele>469.4</ele>
        <time>2022-06-18T07:20:31Z</time>
      </trkpt>
      <trkpt lat="45.32978" lon="6.3135">
        <ele>469.4</ele>
        <time>2022-06-18T07:20:32Z</time>
      </trkpt>
      <trkpt lat="45.32984" lon="6.31342">
        <ele>469.3</ele>
        <time>2022-06-18T07:20:33Z</time>
      </trkpt>
      <trkpt lat="45.32991" lon="6.31335">
        <ele>469.3</ele>
        <time>2022-06-18T07:20:34Z</time>
      </trkpt>
      <trkpt lat="45.32999" lon="6.31327">
        <ele>469.2</ele>
        <time>2022-06-18T07:20:35Z</time>
      </trkpt>
      <trkpt lat="45.33006" lon="6.3132">
        <ele>469.1</ele>
        <time>2022-06-18T07:20:36Z</time>
      </trkpt>
      <trkpt lat="45.33013" lon="6.31312">
        <ele>469</ele>
        <time>2022-06-18T07:20:37Z</time>
      </trkpt>
      <trkpt lat="45.3302" lon="6.31303">
        <ele>468.9</ele>
        <time>2022-06-18T07:20:38Z</time>
      </trkpt>
      <trkpt lat="45.33027" lon="6.31295">
        <ele>468.8</ele>
        <time>2022-06-18T07:20:39Z</time>
      </trkpt>
      <trkpt lat="45.33034" lon="6.31286">
        <ele>468.8</ele>
        <time>2022-06-18T07:20:40Z</time>
      </trkpt>
      <trkpt lat="45.33041" lon="6.31277">
        <ele>468.7</ele>
        <time>2022-06-18T07:20:41Z</time>
      </trkpt>
      <trkpt lat="45.33048" lon="6.31269">
        <ele>468.6</ele>
        <time>2022-06-18T07:20:42Z</time>
      </trkpt>
      <trkpt lat="45.33055" lon="6.3126">
        <ele>468.6</ele>
        <time>2022-06-18T07:20:43Z</time>
      </trkpt>
      <trkpt lat="45.33062" lon="6.31251">
        <ele>468.6</ele>
        <time>2022-06-18T07:20:44Z</time>
      </trkpt>
      <trkpt lat="45.33069" lon="6.31242">
        <ele>468.6</ele>
        <time>2022-06-18T07:20:45Z</time>
      </trkpt>
      <trkpt lat="45.33076" lon="6.31233">
        <ele>468.5</ele>
        <time>2022-06-18T07:20:46Z</time>
      </trkpt>
      <trkpt lat="45.33082" lon="6.31224">
        <ele>468.5</ele>
        <time>2022-06-18T07:20:47Z</time>
      </trkpt>
      <trkpt lat="45.33089" lon="6.31216">
        <ele>468.4</ele>
        <time>2022-06-18T07:20:48Z</time>
      </trkpt>
      <trkpt lat="45.33095" lon="6.31207">
        <ele>468.4</ele>
        <time>2022-06-18T07:20:49Z</time>
      </trkpt>
      <trkpt lat="45.33102" lon="6.31199">
        <ele>468.3</ele>
        <time>2022-06-18T07:20:50Z</time>
      </trkpt>
      <trkpt lat="45.33108" lon="6.31191">
        <ele>468.3</ele>
        <time>2022-06-18T07:20:51Z</time>
      </trkpt>
      <trkpt lat="45.33114" lon="6.31183">
        <ele>468.3</ele>
        <time>2022-06-18T07:20:52Z</time>
      </trkpt>
      <trkpt lat="45.3312" lon="6.31174">
        <ele>468.2</ele>
        <time>2022-06-18T07:20:53Z</time>
      </trkpt>
      <trkpt lat="45.33126" lon="6.31165">
        <ele>468.1</ele>
        <time>2022-06-18T07:20:54Z</time>
      </trkpt>
      <trkpt lat="45.33133" lon="6.31157">
        <ele>468</ele>
        <time>2022-06-18T07:20:55Z</time>
      </trkpt>
      <trkpt lat="45.3314" lon="6.31149">
        <ele>467.8</ele>
        <time>2022-06-18T07:20:56Z</time>
      </trkpt>
      <trkpt lat="45.33146" lon="6.31141">
        <ele>467.7</ele>
        <time>2022-06-18T07:20:57Z</time>
      </trkpt>
      <trkpt lat="45.33153" lon="6.31134">
        <ele>467.6</ele>
        <time>2022-06-18T07:20:58Z</time>
      </trkpt>
      <trkpt lat="45.3316" lon="6.31126">
        <ele>467.4</ele>
        <time>2022-06-18T07:20:59Z</time>
      </trkpt>
      <trkpt lat="45.33167" lon="6.31119">
        <ele>467.3</ele>
        <time>2022-06-18T07:21:00Z</time>
      </trkpt>
      <trkpt lat="45.33173" lon="6.31113">
        <ele>467.1</ele>
        <time>2022-06-18T07:21:01Z</time>
      </trkpt>
      <trkpt lat="45.33179" lon="6.31106">
        <ele>467</ele>
        <time>2022-06-18T07:21:02Z</time>
      </trkpt>
      <trkpt lat="45.33186" lon="6.31099">
        <ele>466.9</ele>
        <time>2022-06-18T07:21:03Z</time>
      </trkpt>
      <trkpt lat="45.33192" lon="6.31092">
        <ele>466.7</ele>
        <time>2022-06-18T07:21:04Z</time>
      </trkpt>
      <trkpt lat="45.33198" lon="6.31085">
        <ele>466.6</ele>
        <time>2022-06-18T07:21:05Z</time>
      </trkpt>
      <trkpt lat="45.33202" lon="6.31076">
        <ele>466.5</ele>
        <time>2022-06-18T07:21:06Z</time>
      </trkpt>
      <trkpt lat="45.33206" lon="6.31066">
        <ele>466.3</ele>
        <time>2022-06-18T07:21:07Z</time>
      </trkpt>
      <trkpt lat="45.33209" lon="6.31056">
        <ele>466.2</ele>
        <time>2022-06-18T07:21:08Z</time>
      </trkpt>
      <trkpt lat="45.33212" lon="6.31045">
        <ele>466.1</ele>
        <time>2022-06-18T07:21:09Z</time>
      </trkpt>
      <trkpt lat="45.33216" lon="6.31034">
        <ele>465.9</ele>
        <time>2022-06-18T07:21:10Z</time>
      </trkpt>
      <trkpt lat="45.3322" lon="6.31023">
        <ele>465.8</ele>
        <time>2022-06-18T07:21:11Z</time>
      </trkpt>
      <trkpt lat="45.33224" lon="6.31012">
        <ele>465.7</ele>
        <time>2022-06-18T07:21:12Z</time>
      </trkpt>
      <trkpt lat="45.33228" lon="6.31">
        <ele>465.6</ele>
        <time>2022-06-18T07:21:13Z</time>
      </trkpt>
      <trkpt lat="45.33232" lon="6.30989">
        <ele>465.5</ele>
        <time>2022-06-18T07:21:14Z</time>
      </trkpt>
      <trkpt lat="45.33237" lon="6.30978">
        <ele>465.5</ele>
        <time>2022-06-18T07:21:15Z</time>
      </trkpt>
      <trkpt lat="45.33242" lon="6.30967">
        <ele>465.4</ele>
        <time>2022-06-18T07:21:16Z</time>
      </trkpt>
      <trkpt lat="45.33247" lon="6.30956">
        <ele>465.3</ele>
        <time>2022-06-18T07:21:17Z</time>
      </trkpt>
      <trkpt lat="45.33253" lon="6.30946">
        <ele>465.2</ele>
        <time>2022-06-18T07:21:18Z</time>
      </trkpt>
      <trkpt lat="45.3326" lon="6.30936">
        <ele>465.1</ele>
        <time>2022-06-18T07:21:19Z</time>
      </trkpt>
      <trkpt lat="45.33266" lon="6.30926">
        <ele>465</ele>
        <time>2022-06-18T07:21:20Z</time>
      </trkpt>
      <trkpt lat="45.33274" lon="6.30917">
        <ele>465</ele>
        <time>2022-06-18T07:21:21Z</time>
      </trkpt>
      <trkpt lat="45.33281" lon="6.30908">
        <ele>465</ele>
        <time>2022-06-18T07:21:22Z</time>
      </trkpt>
      <trkpt lat="45.33288" lon="6.309">
        <ele>465.1</ele>
        <time>2022-06-18T07:21:23Z</time>
      </trkpt>
      <trkpt lat="45.33295" lon="6.30892">
        <ele>465.1</ele>
        <time>2022-06-18T07:21:24Z</time>
      </trkpt>
      <trkpt lat="45.33302" lon="6.30884">
        <ele>465.1</ele>
        <time>2022-06-18T07:21:25Z</time>
      </trkpt>
      <trkpt lat="45.33308" lon="6.30876">
        <ele>465.2</ele>
        <time>2022-06-18T07:21:26Z</time>
      </trkpt>
      <trkpt lat="45.33315" lon="6.30868">
        <ele>465.3</ele>
        <time>2022-06-18T07:21:27Z</time>
      </trkpt>
      <trkpt lat="45.33321" lon="6.3086">
        <ele>465.3</ele>
        <time>2022-06-18T07:21:28Z</time>
      </trkpt>
      <trkpt lat="45.33327" lon="6.30853">
        <ele>465.4</ele>
        <time>2022-06-18T07:21:29Z</time>
      </trkpt>
      <trkpt lat="45.33333" lon="6.30845">
        <ele>465.5</ele>
        <time>2022-06-18T07:21:30Z</time>
      </trkpt>
      <trkpt lat="45.3334" lon="6.30838">
        <ele>465.5</ele>
        <time>2022-06-18T07:21:31Z</time>
      </trkpt>
      <trkpt lat="45.33347" lon="6.30832">
        <ele>465.5</ele>
        <time>2022-06-18T07:21:32Z</time>
      </trkpt>
      <trkpt lat="45.33354" lon="6.30827">
        <ele>465.5</ele>
        <time>2022-06-18T07:21:33Z</time>
      </trkpt>
      <trkpt lat="45.33362" lon="6.3082">
        <ele>465.5</ele>
        <time>2022-06-18T07:21:34Z</time>
      </trkpt>
      <trkpt lat="45.33368" lon="6.30813">
        <ele>465.5</ele>
        <time>2022-06-18T07:21:35Z</time>
      </trkpt>
      <trkpt lat="45.33374" lon="6.30804">
        <ele>465.5</ele>
        <time>2022-06-18T07:21:36Z</time>
      </trkpt>
      <trkpt lat="45.3338" lon="6.30795">
        <ele>465.5</ele>
        <time>2022-06-18T07:21:37Z</time>
      </trkpt>
      <trkpt lat="45.33385" lon="6.30785">
        <ele>465.5</ele>
        <time>2022-06-18T07:21:38Z</time>
      </trkpt>
      <trkpt lat="45.33389" lon="6.30775">
        <ele>465.4</ele>
        <time>2022-06-18T07:21:39Z</time>
      </trkpt>
      <trkpt lat="45.33394" lon="6.30765">
        <ele>465.3</ele>
        <time>2022-06-18T07:21:40Z</time>
      </trkpt>
      <trkpt lat="45.33398" lon="6.30755">
        <ele>465.3</ele>
        <time>2022-06-18T07:21:41Z</time>
      </trkpt>
      <trkpt lat="45.33401" lon="6.30744">
        <ele>465.2</ele>
        <time>2022-06-18T07:21:42Z</time>
      </trkpt>
      <trkpt lat="45.33405" lon="6.30733">
        <ele>465.1</ele>
        <time>2022-06-18T07:21:43Z</time>
      </trkpt>
      <trkpt lat="45.33408" lon="6.30722">
        <ele>465</ele>
        <time>2022-06-18T07:21:44Z</time>
      </trkpt>
      <trkpt lat="45.33412" lon="6.30711">
        <ele>464.9</ele>
        <time>2022-06-18T07:21:45Z</time>
      </trkpt>
      <trkpt lat="45.33415" lon="6.30699">
        <ele>464.9</ele>
        <time>2022-06-18T07:21:46Z</time>
      </trkpt>
      <trkpt lat="45.33419" lon="6.30688">
        <ele>464.8</ele>
        <time>2022-06-18T07:21:47Z</time>
      </trkpt>
      <trkpt lat="45.33423" lon="6.30677">
        <ele>464.8</ele>
        <time>2022-06-18T07:21:48Z</time>
      </trkpt>
      <trkpt lat="45.33427" lon="6.30666">
        <ele>464.7</ele>
        <time>2022-06-18T07:21:49Z</time>
      </trkpt>
      <trkpt lat="45.33431" lon="6.30655">
        <ele>464.7</ele>
        <time>2022-06-18T07:21:50Z</time>
      </trkpt>
      <trkpt lat="45.33435" lon="6.30644">
        <ele>464.7</ele>
        <time>2022-06-18T07:21:51Z</time>
      </trkpt>
      <trkpt lat="45.3344" lon="6.30633">
        <ele>464.7</ele>
        <time>2022-06-18T07:21:52Z</time>
      </trkpt>
      <trkpt lat="45.33443" lon="6.30622">
        <ele>464.6</ele>
        <time>2022-06-18T07:21:53Z</time>
      </trkpt>
      <trkpt lat="45.33447" lon="6.30611">
        <ele>464.6</ele>
        <time>2022-06-18T07:21:54Z</time>
      </trkpt>
      <trkpt lat="45.33451" lon="6.306">
        <ele>464.6</ele>
        <time>2022-06-18T07:21:55Z</time>
      </trkpt>
      <trkpt lat="45.33456" lon="6.30589">
        <ele>464.6</ele>
        <time>2022-06-18T07:21:56Z</time>
      </trkpt>
      <trkpt lat="45.33461" lon="6.30578">
        <ele>464.5</ele>
        <time>2022-06-18T07:21:57Z</time>
      </trkpt>
      <trkpt lat="45.33467" lon="6.30568">
        <ele>464.5</ele>
        <time>2022-06-18T07:21:58Z</time>
      </trkpt>
      <trkpt lat="45.33473" lon="6.30559">
        <ele>464.5</ele>
        <time>2022-06-18T07:21:59Z</time>
      </trkpt>
      <trkpt lat="45.3348" lon="6.30552">
        <ele>464.4</ele>
        <time>2022-06-18T07:22:00Z</time>
      </trkpt>
      <trkpt lat="45.33488" lon="6.30545">
        <ele>464.4</ele>
        <time>2022-06-18T07:22:01Z</time>
      </trkpt>
      <trkpt lat="45.33496" lon="6.30539">
        <ele>464.3</ele>
        <time>2022-06-18T07:22:02Z</time>
      </trkpt>
      <trkpt lat="45.33503" lon="6.30532">
        <ele>464.3</ele>
        <time>2022-06-18T07:22:03Z</time>
      </trkpt>
      <trkpt lat="45.3351" lon="6.30526">
        <ele>464.3</ele>
        <time>2022-06-18T07:22:04Z</time>
      </trkpt>
      <trkpt lat="45.33517" lon="6.30519">
        <ele>464.3</ele>
        <time>2022-06-18T07:22:05Z</time>
      </trkpt>
      <trkpt lat="45.33525" lon="6.30512">
        <ele>464.3</ele>
        <time>2022-06-18T07:22:06Z</time>
      </trkpt>
      <trkpt lat="45.33532" lon="6.30505">
        <ele>464.3</ele>
        <time>2022-06-18T07:22:07Z</time>
      </trkpt>
      <trkpt lat="45.33539" lon="6.30497">
        <ele>464.3</ele>
        <time>2022-06-18T07:22:08Z</time>
      </trkpt>
      <trkpt lat="45.33546" lon="6.3049">
        <ele>464.3</ele>
        <time>2022-06-18T07:22:09Z</time>
      </trkpt>
      <trkpt lat="45.33552" lon="6.30482">
        <ele>464.3</ele>
        <time>2022-06-18T07:22:10Z</time>
      </trkpt>
      <trkpt lat="45.33558" lon="6.30474">
        <ele>464.3</ele>
        <time>2022-06-18T07:22:11Z</time>
      </trkpt>
      <trkpt lat="45.33564" lon="6.30466">
        <ele>464.3</ele>
        <time>2022-06-18T07:22:12Z</time>
      </trkpt>
      <trkpt lat="45.33569" lon="6.30457">
        <ele>464.4</ele>
        <time>2022-06-18T07:22:13Z</time>
      </trkpt>
      <trkpt lat="45.33574" lon="6.30448">
        <ele>464.4</ele>
        <time>2022-06-18T07:22:14Z</time>
      </trkpt>
      <trkpt lat="45.33578" lon="6.30442">
        <ele>464.4</ele>
        <time>2022-06-18T07:22:15Z</time>
      </trkpt>
      <trkpt lat="45.33581" lon="6.3044">
        <ele>464.4</ele>
        <time>2022-06-18T07:22:16Z</time>
      </trkpt>
      <trkpt lat="45.33582" lon="6.30439">
        <ele>464.4</ele>
        <time>2022-06-18T07:22:17Z</time>
      </trkpt>
      <trkpt lat="45.33579" lon="6.30439">
        <ele>464.4</ele>
        <time>2022-06-18T07:22:18Z</time>
      </trkpt>
      <trkpt lat="45.33578" lon="6.3044">
        <ele>464.4</ele>
        <time>2022-06-18T07:22:19Z</time>
      </trkpt>
      <trkpt lat="45.33576" lon="6.30441">
        <ele>464.5</ele>
        <time>2022-06-18T07:22:20Z</time>
      </trkpt>
      <trkpt lat="45.33574" lon="6.30446">
        <ele>464.5</ele>
        <time>2022-06-18T07:22:21Z</time>
      </trkpt>
      <trkpt lat="45.33571" lon="6.30454">
        <ele>464.5</ele>
        <time>2022-06-18T07:22:22Z</time>
      </trkpt>
      <trkpt lat="45.33573" lon="6.30459">
        <ele>464.5</ele>
        <time>2022-06-18T07:22:23Z</time>
      </trkpt>
      <trkpt lat="45.33573" lon="6.30461">
        <ele>464.5</ele>
        <time>2022-06-18T07:22:24Z</time>
      </trkpt>
      <trkpt lat="45.33571" lon="6.30465">
        <ele>464.5</ele>
        <time>2022-06-18T07:22:25Z</time>
      </trkpt>
      <trkpt lat="45.33569" lon="6.3047">
        <ele>464.5</ele>
        <time>2022-06-18T07:22:27Z</time>
      </trkpt>
      <trkpt lat="45.33569" lon="6.3047">
        <ele>464.5</ele>
        <time>2022-06-18T07:22:29Z</time>
      </trkpt>
      <trkpt lat="45.33569" lon="6.3047">
        <ele>464.5</ele>
        <time>2022-06-18T07:22:30Z</time>
      </trkpt>
      <trkpt lat="45.33571" lon="6.3047">
        <ele>464.5</ele>
        <time>2022-06-18T07:22:31Z</time>
      </trkpt>
      <trkpt lat="45.33572" lon="6.30469">
        <ele>464.5</ele>
        <time>2022-06-18T07:22:32Z</time>
      </trkpt>
      <trkpt lat="45.33572" lon="6.30468">
        <ele>464.5</ele>
        <time>2022-06-18T07:22:33Z</time>
      </trkpt>
      <trkpt lat="45.33572" lon="6.30468">
        <ele>464.6</ele>
        <time>2022-06-18T07:22:34Z</time>
      </trkpt>
      <trkpt lat="45.33572" lon="6.30468">
        <ele>464.6</ele>
        <time>2022-06-18T07:22:35Z</time>
      </trkpt>
      <trkpt lat="45.33572" lon="6.30467">
        <ele>464.6</ele>
        <time>2022-06-18T07:22:36Z</time>
      </trkpt>
      <trkpt lat="45.33572" lon="6.30467">
        <ele>464.6</ele>
        <time>2022-06-18T07:22:37Z</time>
      </trkpt>
      <trkpt lat="45.33572" lon="6.30467">
        <ele>464.6</ele>
        <time>2022-06-18T07:22:38Z</time>
      </trkpt>
      <trkpt lat="45.33571" lon="6.30467">
        <ele>464.6</ele>
        <time>2022-06-18T07:22:39Z</time>
      </trkpt>
      <trkpt lat="45.33571" lon="6.30466">
        <ele>464.6</ele>
        <time>2022-06-18T07:22:40Z</time>
      </trkpt>
      <trkpt lat="45.33571" lon="6.30466">
        <ele>464.6</ele>
        <time>2022-06-18T07:22:41Z</time>
      </trkpt>
      <trkpt lat="45.33571" lon="6.30466">
        <ele>464.6</ele>
        <time>2022-06-18T07:22:42Z</time>
      </trkpt>
      <trkpt lat="45.33571" lon="6.30466">
        <ele>464.6</ele>
        <time>2022-06-18T07:22:43Z</time>
      </trkpt>
      <trkpt lat="45.33571" lon="6.30466">
        <ele>464.6</ele>
        <time>2022-06-18T07:22:44Z</time>
      </trkpt>
      <trkpt lat="45.33571" lon="6.30466">
        <ele>464.6</ele>
        <time>2022-06-18T07:22:45Z</time>
      </trkpt>
      <trkpt lat="45.33571" lon="6.3046">
        <ele>464.6</ele>
        <time>2022-06-18T07:24:30Z</time>
      </trkpt>
      <trkpt lat="45.33571" lon="6.30458">
        <ele>464.6</ele>
        <time>2022-06-18T07:24:32Z</time>
      </trkpt>
      <trkpt lat="45.33571" lon="6.30457">
        <ele>464.6</ele>
        <time>2022-06-18T07:24:33Z</time>
      </trkpt>
      <trkpt lat="45.33571" lon="6.30457">
        <ele>464.6</ele>
        <time>2022-06-18T07:24:34Z</time>
      </trkpt>
      <trkpt lat="45.33571" lon="6.30457">
        <ele>464.6</ele>
        <time>2022-06-18T07:24:35Z</time>
      </trkpt>
      <trkpt lat="45.33571" lon="6.30457">
        <ele>464.6</ele>
        <time>2022-06-18T07:24:36Z</time>
      </trkpt>
      <trkpt lat="45.33571" lon="6.30457">
        <ele>464.6</ele>
        <time>2022-06-18T07:24:37Z</time>
      </trkpt>
      <trkpt lat="45.33571" lon="6.30457">
        <ele>464.6</ele>
        <time>2022-06-18T07:24:38Z</time>
      </trkpt>
      <trkpt lat="45.33571" lon="6.30456">
        <ele>464.6</ele>
        <time>2022-06-18T07:24:39Z</time>
      </trkpt>
      <trkpt lat="45.33571" lon="6.30456">
        <ele>464.6</ele>
        <time>2022-06-18T07:24:40Z</time>
      </trkpt>
      <trkpt lat="45.33571" lon="6.30456">
        <ele>464.6</ele>
        <time>2022-06-18T07:24:41Z</time>
      </trkpt>
      <trkpt lat="45.33572" lon="6.30454">
        <ele>464.6</ele>
        <time>2022-06-18T07:24:42Z</time>
      </trkpt>
      <trkpt lat="45.33572" lon="6.30452">
        <ele>464.6</ele>
        <time>2022-06-18T07:24:43Z</time>
      </trkpt>
      <trkpt lat="45.33573" lon="6.30451">
        <ele>464.6</ele>
        <time>2022-06-18T07:24:44Z</time>
      </trkpt>
      <trkpt lat="45.33574" lon="6.30449">
        <ele>464.6</ele>
        <time>2022-06-18T07:25:01Z</time>
      </trkpt>
      <trkpt lat="45.33575" lon="6.30447">
        <ele>464.6</ele>
        <time>2022-06-18T07:25:02Z</time>
      </trkpt>
      <trkpt lat="45.33576" lon="6.30445">
        <ele>464.7</ele>
        <time>2022-06-18T07:25:03Z</time>
      </trkpt>
      <trkpt lat="45.33578" lon="6.3044">
        <ele>464.7</ele>
        <time>2022-06-18T07:25:05Z</time>
      </trkpt>
      <trkpt lat="45.33582" lon="6.30435">
        <ele>464.7</ele>
        <time>2022-06-18T07:25:06Z</time>
      </trkpt>
      <trkpt lat="45.33585" lon="6.30432">
        <ele>464.7</ele>
        <time>2022-06-18T07:25:07Z</time>
      </trkpt>
      <trkpt lat="45.33588" lon="6.30429">
        <ele>464.8</ele>
        <time>2022-06-18T07:25:08Z</time>
      </trkpt>
      <trkpt lat="45.33592" lon="6.30425">
        <ele>464.8</ele>
        <time>2022-06-18T07:25:09Z</time>
      </trkpt>
      <trkpt lat="45.33595" lon="6.30423">
        <ele>464.8</ele>
        <time>2022-06-18T07:25:10Z</time>
      </trkpt>
      <trkpt lat="45.33599" lon="6.3042">
        <ele>464.8</ele>
        <time>2022-06-18T07:25:11Z</time>
      </trkpt>
      <trkpt lat="45.33603" lon="6.30416">
        <ele>464.9</ele>
        <time>2022-06-18T07:25:12Z</time>
      </trkpt>
      <trkpt lat="45.33606" lon="6.30413">
        <ele>464.9</ele>
        <time>2022-06-18T07:25:13Z</time>
      </trkpt>
      <trkpt lat="45.33612" lon="6.30409">
        <ele>465</ele>
        <time>2022-06-18T07:25:15Z</time>
      </trkpt>
      <trkpt lat="45.33617" lon="6.30405">
        <ele>465</ele>
        <time>2022-06-18T07:25:16Z</time>
      </trkpt>
      <trkpt lat="45.3362" lon="6.30403">
        <ele>465</ele>
        <time>2022-06-18T07:25:17Z</time>
      </trkpt>
      <trkpt lat="45.33623" lon="6.304">
        <ele>465.1</ele>
        <time>2022-06-18T07:25:18Z</time>
      </trkpt>
      <trkpt lat="45.33627" lon="6.30394">
        <ele>465.1</ele>
        <time>2022-06-18T07:25:20Z</time>
      </trkpt>
      <trkpt lat="45.33632" lon="6.30389">
        <ele>465.1</ele>
        <time>2022-06-18T07:25:21Z</time>
      </trkpt>
      <trkpt lat="45.33636" lon="6.30386">
        <ele>465.2</ele>
        <time>2022-06-18T07:25:22Z</time>
      </trkpt>
      <trkpt lat="45.3364" lon="6.30382">
        <ele>465.2</ele>
        <time>2022-06-18T07:25:23Z</time>
      </trkpt>
      <trkpt lat="45.33644" lon="6.30378">
        <ele>465.2</ele>
        <time>2022-06-18T07:25:24Z</time>
      </trkpt>
      <trkpt lat="45.33648" lon="6.30374">
        <ele>465.2</ele>
        <time>2022-06-18T07:25:25Z</time>
      </trkpt>
      <trkpt lat="45.33653" lon="6.30369">
        <ele>465.2</ele>
        <time>2022-06-18T07:25:26Z</time>
      </trkpt>
      <trkpt lat="45.33657" lon="6.30365">
        <ele>465.2</ele>
        <time>2022-06-18T07:25:27Z</time>
      </trkpt>
      <trkpt lat="45.33662" lon="6.3036">
        <ele>465.2</ele>
        <time>2022-06-18T07:25:28Z</time>
      </trkpt>
      <trkpt lat="45.33666" lon="6.30355">
        <ele>465.2</ele>
        <time>2022-06-18T07:25:29Z</time>
      </trkpt>
      <trkpt lat="45.3367" lon="6.3035">
        <ele>465.3</ele>
        <time>2022-06-18T07:25:30Z</time>
      </trkpt>
      <trkpt lat="45.33674" lon="6.30346">
        <ele>465.3</ele>
        <time>2022-06-18T07:25:31Z</time>
      </trkpt>
      <trkpt lat="45.33679" lon="6.30341">
        <ele>465.3</ele>
        <time>2022-06-18T07:25:32Z</time>
      </trkpt>
      <trkpt lat="45.33684" lon="6.30336">
        <ele>465.4</ele>
        <time>2022-06-18T07:25:33Z</time>
      </trkpt>
      <trkpt lat="45.33689" lon="6.30332">
        <ele>465.4</ele>
        <time>2022-06-18T07:25:34Z</time>
      </trkpt>
      <trkpt lat="45.33693" lon="6.30328">
        <ele>465.5</ele>
        <time>2022-06-18T07:25:35Z</time>
      </trkpt>
      <trkpt lat="45.33698" lon="6.30324">
        <ele>465.6</ele>
        <time>2022-06-18T07:25:36Z</time>
      </trkpt>
      <trkpt lat="45.33703" lon="6.3032">
        <ele>465.6</ele>
        <time>2022-06-18T07:25:37Z</time>
      </trkpt>
      <trkpt lat="45.33708" lon="6.30316">
        <ele>465.7</ele>
        <time>2022-06-18T07:25:38Z</time>
      </trkpt>
      <trkpt lat="45.33712" lon="6.30313">
        <ele>465.8</ele>
        <time>2022-06-18T07:25:39Z</time>
      </trkpt>
      <trkpt lat="45.33717" lon="6.30309">
        <ele>465.8</ele>
        <time>2022-06-18T07:25:40Z</time>
      </trkpt>
      <trkpt lat="45.33722" lon="6.30306">
        <ele>465.9</ele>
        <time>2022-06-18T07:25:41Z</time>
      </trkpt>
      <trkpt lat="45.33727" lon="6.30302">
        <ele>466</ele>
        <time>2022-06-18T07:25:42Z</time>
      </trkpt>
      <trkpt lat="45.33731" lon="6.30298">
        <ele>466.1</ele>
        <time>2022-06-18T07:25:43Z</time>
      </trkpt>
      <trkpt lat="45.33736" lon="6.30294">
        <ele>466.2</ele>
        <time>2022-06-18T07:25:44Z</time>
      </trkpt>
      <trkpt lat="45.33741" lon="6.3029">
        <ele>466.3</ele>
        <time>2022-06-18T07:25:45Z</time>
      </trkpt>
      <trkpt lat="45.33745" lon="6.30287">
        <ele>466.4</ele>
        <time>2022-06-18T07:25:46Z</time>
      </trkpt>
      <trkpt lat="45.3375" lon="6.30283">
        <ele>466.5</ele>
        <time>2022-06-18T07:25:47Z</time>
      </trkpt>
      <trkpt lat="45.33755" lon="6.30279">
        <ele>466.8</ele>
        <time>2022-06-18T07:25:48Z</time>
      </trkpt>
      <trkpt lat="45.3376" lon="6.30275">
        <ele>467.2</ele>
        <time>2022-06-18T07:25:49Z</time>
      </trkpt>
      <trkpt lat="45.33765" lon="6.30272">
        <ele>467.5</ele>
        <time>2022-06-18T07:25:50Z</time>
      </trkpt>
      <trkpt lat="45.3377" lon="6.30269">
        <ele>467.8</ele>
        <time>2022-06-18T07:25:51Z</time>
      </trkpt>
      <trkpt lat="45.33774" lon="6.30266">
        <ele>468.1</ele>
        <time>2022-06-18T07:25:52Z</time>
      </trkpt>
      <trkpt lat="45.33779" lon="6.30262">
        <ele>468.4</ele>
        <time>2022-06-18T07:25:53Z</time>
      </trkpt>
      <trkpt lat="45.33783" lon="6.30259">
        <ele>468.8</ele>
        <time>2022-06-18T07:25:54Z</time>
      </trkpt>
      <trkpt lat="45.33786" lon="6.30255">
        <ele>469.1</ele>
        <time>2022-06-18T07:25:55Z</time>
      </trkpt>
      <trkpt lat="45.3379" lon="6.30252">
        <ele>469.4</ele>
        <time>2022-06-18T07:25:56Z</time>
      </trkpt>
      <trkpt lat="45.33794" lon="6.30249">
        <ele>469.7</ele>
        <time>2022-06-18T07:25:57Z</time>
      </trkpt>
      <trkpt lat="45.33798" lon="6.30245">
        <ele>470</ele>
        <time>2022-06-18T07:25:58Z</time>
      </trkpt>
      <trkpt lat="45.33799" lon="6.30244">
        <ele>470.1</ele>
        <time>2022-06-18T07:25:59Z</time>
      </trkpt>
      <trkpt lat="45.33803" lon="6.3024">
        <ele>470.5</ele>
        <time>2022-06-18T07:26:00Z</time>
      </trkpt>
      <trkpt lat="45.33806" lon="6.30236">
        <ele>470.8</ele>
        <time>2022-06-18T07:26:01Z</time>
      </trkpt>
      <trkpt lat="45.3381" lon="6.30232">
        <ele>471.2</ele>
        <time>2022-06-18T07:26:02Z</time>
      </trkpt>
      <trkpt lat="45.33812" lon="6.3023">
        <ele>471.3</ele>
        <time>2022-06-18T07:26:03Z</time>
      </trkpt>
      <trkpt lat="45.33815" lon="6.30227">
        <ele>471.6</ele>
        <time>2022-06-18T07:26:04Z</time>
      </trkpt>
      <trkpt lat="45.33817" lon="6.30223">
        <ele>471.9</ele>
        <time>2022-06-18T07:26:05Z</time>
      </trkpt>
      <trkpt lat="45.33822" lon="6.30218">
        <ele>472.3</ele>
        <time>2022-06-18T07:26:07Z</time>
      </trkpt>
      <trkpt lat="45.33827" lon="6.30212">
        <ele>472.8</ele>
        <time>2022-06-18T07:26:08Z</time>
      </trkpt>
      <trkpt lat="45.33831" lon="6.30208">
        <ele>473.2</ele>
        <time>2022-06-18T07:26:10Z</time>
      </trkpt>
      <trkpt lat="45.33835" lon="6.30201">
        <ele>473.7</ele>
        <time>2022-06-18T07:26:11Z</time>
      </trkpt>
      <trkpt lat="45.3384" lon="6.30197">
        <ele>474.1</ele>
        <time>2022-06-18T07:26:12Z</time>
      </trkpt>
      <trkpt lat="45.33843" lon="6.30193">
        <ele>474.4</ele>
        <time>2022-06-18T07:26:13Z</time>
      </trkpt>
      <trkpt lat="45.33846" lon="6.30191">
        <ele>474.7</ele>
        <time>2022-06-18T07:26:14Z</time>
      </trkpt>
      <trkpt lat="45.3385" lon="6.30188">
        <ele>475</ele>
        <time>2022-06-18T07:26:15Z</time>
      </trkpt>
      <trkpt lat="45.33855" lon="6.30184">
        <ele>475.5</ele>
        <time>2022-06-18T07:26:17Z</time>
      </trkpt>
      <trkpt lat="45.3386" lon="6.30181">
        <ele>475.7</ele>
        <time>2022-06-18T07:26:18Z</time>
      </trkpt>
      <trkpt lat="45.33863" lon="6.30178">
        <ele>475.8</ele>
        <time>2022-06-18T07:26:19Z</time>
      </trkpt>
      <trkpt lat="45.33866" lon="6.30175">
        <ele>475.9</ele>
        <time>2022-06-18T07:26:20Z</time>
      </trkpt>
      <trkpt lat="45.3387" lon="6.30172">
        <ele>476</ele>
        <time>2022-06-18T07:26:21Z</time>
      </trkpt>
      <trkpt lat="45.33873" lon="6.30169">
        <ele>476.3</ele>
        <time>2022-06-18T07:26:22Z</time>
      </trkpt>
      <trkpt lat="45.33877" lon="6.30164">
        <ele>477</ele>
        <time>2022-06-18T07:26:24Z</time>
      </trkpt>
      <trkpt lat="45.3388" lon="6.30158">
        <ele>477.6</ele>
        <time>2022-06-18T07:26:25Z</time>
      </trkpt>
      <trkpt lat="45.33882" lon="6.30152">
        <ele>478.2</ele>
        <time>2022-06-18T07:26:26Z</time>
      </trkpt>
      <trkpt lat="45.33884" lon="6.30146">
        <ele>478.7</ele>
        <time>2022-06-18T07:26:27Z</time>
      </trkpt>
      <trkpt lat="45.33887" lon="6.30142">
        <ele>479.1</ele>
        <time>2022-06-18T07:26:28Z</time>
      </trkpt>
      <trkpt lat="45.33889" lon="6.30137">
        <ele>479.2</ele>
        <time>2022-06-18T07:26:29Z</time>
      </trkpt>
      <trkpt lat="45.33891" lon="6.30132">
        <ele>479.4</ele>
        <time>2022-06-18T07:26:30Z</time>
      </trkpt>
      <trkpt lat="45.33895" lon="6.30126">
        <ele>479.5</ele>
        <time>2022-06-18T07:26:32Z</time>
      </trkpt>
      <trkpt lat="45.33898" lon="6.3012">
        <ele>479.7</ele>
        <time>2022-06-18T07:26:33Z</time>
      </trkpt>
      <trkpt lat="45.339" lon="6.30114">
        <ele>479.8</ele>
        <time>2022-06-18T07:26:34Z</time>
      </trkpt>
      <trkpt lat="45.33904" lon="6.30108">
        <ele>480</ele>
        <time>2022-06-18T07:26:35Z</time>
      </trkpt>
      <trkpt lat="45.33908" lon="6.30101">
        <ele>480.2</ele>
        <time>2022-06-18T07:26:36Z</time>
      </trkpt>
      <trkpt lat="45.33911" lon="6.30096">
        <ele>480.3</ele>
        <time>2022-06-18T07:26:37Z</time>
      </trkpt>
      <trkpt lat="45.33915" lon="6.30092">
        <ele>480.5</ele>
        <time>2022-06-18T07:26:38Z</time>
      </trkpt>
      <trkpt lat="45.33918" lon="6.30088">
        <ele>480.6</ele>
        <time>2022-06-18T07:26:39Z</time>
      </trkpt>
      <trkpt lat="45.33922" lon="6.30085">
        <ele>480.7</ele>
        <time>2022-06-18T07:26:40Z</time>
      </trkpt>
      <trkpt lat="45.33926" lon="6.30082">
        <ele>480.8</ele>
        <time>2022-06-18T07:26:41Z</time>
      </trkpt>
      <trkpt lat="45.3393" lon="6.30078">
        <ele>480.9</ele>
        <time>2022-06-18T07:26:42Z</time>
      </trkpt>
      <trkpt lat="45.33933" lon="6.30075">
        <ele>481</ele>
        <time>2022-06-18T07:26:43Z</time>
      </trkpt>
      <trkpt lat="45.33938" lon="6.30071">
        <ele>481.1</ele>
        <time>2022-06-18T07:26:44Z</time>
      </trkpt>
      <trkpt lat="45.33942" lon="6.30068">
        <ele>481.2</ele>
        <time>2022-06-18T07:26:45Z</time>
      </trkpt>
      <trkpt lat="45.33946" lon="6.30064">
        <ele>481.3</ele>
        <time>2022-06-18T07:26:46Z</time>
      </trkpt>
      <trkpt lat="45.3395" lon="6.3006">
        <ele>481.3</ele>
        <time>2022-06-18T07:26:47Z</time>
      </trkpt>
      <trkpt lat="45.33954" lon="6.30056">
        <ele>481.4</ele>
        <time>2022-06-18T07:26:48Z</time>
      </trkpt>
      <trkpt lat="45.33959" lon="6.30052">
        <ele>481.4</ele>
        <time>2022-06-18T07:26:49Z</time>
      </trkpt>
      <trkpt lat="45.33963" lon="6.30047">
        <ele>481.5</ele>
        <time>2022-06-18T07:26:50Z</time>
      </trkpt>
      <trkpt lat="45.33968" lon="6.30042">
        <ele>481.5</ele>
        <time>2022-06-18T07:26:51Z</time>
      </trkpt>
      <trkpt lat="45.33972" lon="6.30037">
        <ele>481.5</ele>
        <time>2022-06-18T07:26:52Z</time>
      </trkpt>
      <trkpt lat="45.33977" lon="6.30033">
        <ele>481.6</ele>
        <time>2022-06-18T07:26:53Z</time>
      </trkpt>
      <trkpt lat="45.33982" lon="6.30028">
        <ele>481.6</ele>
        <time>2022-06-18T07:26:54Z</time>
      </trkpt>
      <trkpt lat="45.33987" lon="6.30023">
        <ele>481.7</ele>
        <time>2022-06-18T07:26:55Z</time>
      </trkpt>
      <trkpt lat="45.33992" lon="6.30019">
        <ele>481.7</ele>
        <time>2022-06-18T07:26:56Z</time>
      </trkpt>
      <trkpt lat="45.33996" lon="6.30015">
        <ele>481.7</ele>
        <time>2022-06-18T07:26:57Z</time>
      </trkpt>
      <trkpt lat="45.34001" lon="6.30011">
        <ele>481.7</ele>
        <time>2022-06-18T07:26:58Z</time>
      </trkpt>
      <trkpt lat="45.34005" lon="6.30007">
        <ele>481.7</ele>
        <time>2022-06-18T07:26:59Z</time>
      </trkpt>
      <trkpt lat="45.34009" lon="6.30001">
        <ele>481.7</ele>
        <time>2022-06-18T07:27:00Z</time>
      </trkpt>
      <trkpt lat="45.34012" lon="6.29995">
        <ele>481.7</ele>
        <time>2022-06-18T07:27:01Z</time>
      </trkpt>
      <trkpt lat="45.34016" lon="6.29988">
        <ele>481.8</ele>
        <time>2022-06-18T07:27:02Z</time>
      </trkpt>
      <trkpt lat="45.34018" lon="6.2998">
        <ele>481.8</ele>
        <time>2022-06-18T07:27:03Z</time>
      </trkpt>
      <trkpt lat="45.34021" lon="6.29972">
        <ele>481.8</ele>
        <time>2022-06-18T07:27:04Z</time>
      </trkpt>
      <trkpt lat="45.34023" lon="6.29963">
        <ele>481.9</ele>
        <time>2022-06-18T07:27:05Z</time>
      </trkpt>
      <trkpt lat="45.34024" lon="6.29955">
        <ele>482</ele>
        <time>2022-06-18T07:27:06Z</time>
      </trkpt>
      <trkpt lat="45.34026" lon="6.29945">
        <ele>482.1</ele>
        <time>2022-06-18T07:27:07Z</time>
      </trkpt>
      <trkpt lat="45.34028" lon="6.29937">
        <ele>482.2</ele>
        <time>2022-06-18T07:27:08Z</time>
      </trkpt>
      <trkpt lat="45.3403" lon="6.29928">
        <ele>482.3</ele>
        <time>2022-06-18T07:27:09Z</time>
      </trkpt>
      <trkpt lat="45.34032" lon="6.29919">
        <ele>482.4</ele>
        <time>2022-06-18T07:27:10Z</time>
      </trkpt>
      <trkpt lat="45.34034" lon="6.29911">
        <ele>482.5</ele>
        <time>2022-06-18T07:27:11Z</time>
      </trkpt>
      <trkpt lat="45.34037" lon="6.29904">
        <ele>482.6</ele>
        <time>2022-06-18T07:27:12Z</time>
      </trkpt>
      <trkpt lat="45.3404" lon="6.29896">
        <ele>482.7</ele>
        <time>2022-06-18T07:27:13Z</time>
      </trkpt>
      <trkpt lat="45.34043" lon="6.29888">
        <ele>482.8</ele>
        <time>2022-06-18T07:27:14Z</time>
      </trkpt>
      <trkpt lat="45.34046" lon="6.2988">
        <ele>482.9</ele>
        <time>2022-06-18T07:27:15Z</time>
      </trkpt>
      <trkpt lat="45.3405" lon="6.29872">
        <ele>482.9</ele>
        <time>2022-06-18T07:27:16Z</time>
      </trkpt>
      <trkpt lat="45.34054" lon="6.29863">
        <ele>483</ele>
        <time>2022-06-18T07:27:17Z</time>
      </trkpt>
      <trkpt lat="45.34058" lon="6.29855">
        <ele>483.1</ele>
        <time>2022-06-18T07:27:18Z</time>
      </trkpt>
      <trkpt lat="45.34061" lon="6.29846">
        <ele>483.2</ele>
        <time>2022-06-18T07:27:19Z</time>
      </trkpt>
      <trkpt lat="45.34065" lon="6.29837">
        <ele>483.4</ele>
        <time>2022-06-18T07:27:20Z</time>
      </trkpt>
      <trkpt lat="45.34068" lon="6.29829">
        <ele>483.5</ele>
        <time>2022-06-18T07:27:21Z</time>
      </trkpt>
      <trkpt lat="45.34071" lon="6.29821">
        <ele>483.7</ele>
        <time>2022-06-18T07:27:22Z</time>
      </trkpt>
      <trkpt lat="45.34074" lon="6.29813">
        <ele>483.9</ele>
        <time>2022-06-18T07:27:23Z</time>
      </trkpt>
      <trkpt lat="45.34077" lon="6.29805">
        <ele>484.1</ele>
        <time>2022-06-18T07:27:24Z</time>
      </trkpt>
      <trkpt lat="45.3408" lon="6.29796">
        <ele>484.2</ele>
        <time>2022-06-18T07:27:25Z</time>
      </trkpt>
      <trkpt lat="45.34082" lon="6.29788">
        <ele>484.4</ele>
        <time>2022-06-18T07:27:26Z</time>
      </trkpt>
      <trkpt lat="45.34084" lon="6.2978">
        <ele>484.5</ele>
        <time>2022-06-18T07:27:27Z</time>
      </trkpt>
      <trkpt lat="45.34086" lon="6.29772">
        <ele>484.5</ele>
        <time>2022-06-18T07:27:28Z</time>
      </trkpt>
      <trkpt lat="45.34088" lon="6.29763">
        <ele>484.6</ele>
        <time>2022-06-18T07:27:29Z</time>
      </trkpt>
      <trkpt lat="45.3409" lon="6.29755">
        <ele>484.6</ele>
        <time>2022-06-18T07:27:30Z</time>
      </trkpt>
      <trkpt lat="45.34092" lon="6.29747">
        <ele>484.7</ele>
        <time>2022-06-18T07:27:31Z</time>
      </trkpt>
      <trkpt lat="45.34093" lon="6.29737">
        <ele>484.7</ele>
        <time>2022-06-18T07:27:32Z</time>
      </trkpt>
      <trkpt lat="45.34094" lon="6.29728">
        <ele>484.8</ele>
        <time>2022-06-18T07:27:33Z</time>
      </trkpt>
      <trkpt lat="45.34094" lon="6.29719">
        <ele>484.8</ele>
        <time>2022-06-18T07:27:34Z</time>
      </trkpt>
      <trkpt lat="45.34095" lon="6.29709">
        <ele>484.9</ele>
        <time>2022-06-18T07:27:35Z</time>
      </trkpt>
      <trkpt lat="45.34096" lon="6.297">
        <ele>485.1</ele>
        <time>2022-06-18T07:27:36Z</time>
      </trkpt>
      <trkpt lat="45.34097" lon="6.2969">
        <ele>485.2</ele>
        <time>2022-06-18T07:27:37Z</time>
      </trkpt>
      <trkpt lat="45.34098" lon="6.29681">
        <ele>485.3</ele>
        <time>2022-06-18T07:27:38Z</time>
      </trkpt>
      <trkpt lat="45.34099" lon="6.29671">
        <ele>485.4</ele>
        <time>2022-06-18T07:27:39Z</time>
      </trkpt>
      <trkpt lat="45.34101" lon="6.29662">
        <ele>485.5</ele>
        <time>2022-06-18T07:27:40Z</time>
      </trkpt>
      <trkpt lat="45.34102" lon="6.29652">
        <ele>485.6</ele>
        <time>2022-06-18T07:27:41Z</time>
      </trkpt>
      <trkpt lat="45.34104" lon="6.29643">
        <ele>485.8</ele>
        <time>2022-06-18T07:27:42Z</time>
      </trkpt>
      <trkpt lat="45.34105" lon="6.29633">
        <ele>486</ele>
        <time>2022-06-18T07:27:43Z</time>
      </trkpt>
      <trkpt lat="45.34107" lon="6.29624">
        <ele>486.1</ele>
        <time>2022-06-18T07:27:44Z</time>
      </trkpt>
      <trkpt lat="45.34109" lon="6.29614">
        <ele>486.3</ele>
        <time>2022-06-18T07:27:45Z</time>
      </trkpt>
      <trkpt lat="45.3411" lon="6.29605">
        <ele>486.5</ele>
        <time>2022-06-18T07:27:46Z</time>
      </trkpt>
      <trkpt lat="45.34112" lon="6.29596">
        <ele>486.7</ele>
        <time>2022-06-18T07:27:47Z</time>
      </trkpt>
      <trkpt lat="45.34113" lon="6.29587">
        <ele>486.9</ele>
        <time>2022-06-18T07:27:48Z</time>
      </trkpt>
      <trkpt lat="45.34115" lon="6.29578">
        <ele>487</ele>
        <time>2022-06-18T07:27:49Z</time>
      </trkpt>
      <trkpt lat="45.34117" lon="6.29568">
        <ele>487.2</ele>
        <time>2022-06-18T07:27:50Z</time>
      </trkpt>
      <trkpt lat="45.34119" lon="6.2956">
        <ele>487.4</ele>
        <time>2022-06-18T07:27:51Z</time>
      </trkpt>
      <trkpt lat="45.3412" lon="6.29551">
        <ele>487.5</ele>
        <time>2022-06-18T07:27:52Z</time>
      </trkpt>
      <trkpt lat="45.34122" lon="6.29542">
        <ele>487.5</ele>
        <time>2022-06-18T07:27:53Z</time>
      </trkpt>
      <trkpt lat="45.34124" lon="6.29534">
        <ele>487.6</ele>
        <time>2022-06-18T07:27:54Z</time>
      </trkpt>
      <trkpt lat="45.34126" lon="6.29525">
        <ele>487.6</ele>
        <time>2022-06-18T07:27:55Z</time>
      </trkpt>
      <trkpt lat="45.34128" lon="6.29517">
        <ele>487.6</ele>
        <time>2022-06-18T07:27:56Z</time>
      </trkpt>
      <trkpt lat="45.3413" lon="6.29508">
        <ele>487.6</ele>
        <time>2022-06-18T07:27:57Z</time>
      </trkpt>
      <trkpt lat="45.34133" lon="6.29499">
        <ele>487.6</ele>
        <time>2022-06-18T07:27:58Z</time>
      </trkpt>
      <trkpt lat="45.34135" lon="6.2949">
        <ele>487.6</ele>
        <time>2022-06-18T07:27:59Z</time>
      </trkpt>
      <trkpt lat="45.34138" lon="6.2948">
        <ele>487.5</ele>
        <time>2022-06-18T07:28:00Z</time>
      </trkpt>
      <trkpt lat="45.3414" lon="6.29471">
        <ele>487.5</ele>
        <time>2022-06-18T07:28:01Z</time>
      </trkpt>
      <trkpt lat="45.34143" lon="6.29462">
        <ele>487.4</ele>
        <time>2022-06-18T07:28:02Z</time>
      </trkpt>
      <trkpt lat="45.34146" lon="6.29452">
        <ele>487.4</ele>
        <time>2022-06-18T07:28:03Z</time>
      </trkpt>
      <trkpt lat="45.34148" lon="6.29443">
        <ele>487.4</ele>
        <time>2022-06-18T07:28:04Z</time>
      </trkpt>
      <trkpt lat="45.3415" lon="6.29434">
        <ele>487.3</ele>
        <time>2022-06-18T07:28:05Z</time>
      </trkpt>
      <trkpt lat="45.34153" lon="6.29426">
        <ele>487.3</ele>
        <time>2022-06-18T07:28:06Z</time>
      </trkpt>
      <trkpt lat="45.34155" lon="6.29417">
        <ele>487.3</ele>
        <time>2022-06-18T07:28:07Z</time>
      </trkpt>
      <trkpt lat="45.34158" lon="6.29408">
        <ele>487.3</ele>
        <time>2022-06-18T07:28:08Z</time>
      </trkpt>
      <trkpt lat="45.3416" lon="6.29399">
        <ele>487.3</ele>
        <time>2022-06-18T07:28:09Z</time>
      </trkpt>
      <trkpt lat="45.34162" lon="6.29389">
        <ele>487.3</ele>
        <time>2022-06-18T07:28:10Z</time>
      </trkpt>
      <trkpt lat="45.34165" lon="6.29379">
        <ele>487.2</ele>
        <time>2022-06-18T07:28:11Z</time>
      </trkpt>
      <trkpt lat="45.34167" lon="6.29369">
        <ele>487.2</ele>
        <time>2022-06-18T07:28:12Z</time>
      </trkpt>
      <trkpt lat="45.34169" lon="6.29358">
        <ele>487.2</ele>
        <time>2022-06-18T07:28:13Z</time>
      </trkpt>
      <trkpt lat="45.34171" lon="6.29348">
        <ele>487.2</ele>
        <time>2022-06-18T07:28:14Z</time>
      </trkpt>
      <trkpt lat="45.34173" lon="6.29338">
        <ele>487.2</ele>
        <time>2022-06-18T07:28:15Z</time>
      </trkpt>
      <trkpt lat="45.34176" lon="6.29327">
        <ele>487.2</ele>
        <time>2022-06-18T07:28:16Z</time>
      </trkpt>
      <trkpt lat="45.34178" lon="6.29317">
        <ele>487.2</ele>
        <time>2022-06-18T07:28:17Z</time>
      </trkpt>
      <trkpt lat="45.3418" lon="6.29308">
        <ele>487.2</ele>
        <time>2022-06-18T07:28:18Z</time>
      </trkpt>
      <trkpt lat="45.34183" lon="6.29298">
        <ele>487.2</ele>
        <time>2022-06-18T07:28:19Z</time>
      </trkpt>
      <trkpt lat="45.34185" lon="6.29287">
        <ele>487.2</ele>
        <time>2022-06-18T07:28:20Z</time>
      </trkpt>
      <trkpt lat="45.34187" lon="6.29277">
        <ele>487.2</ele>
        <time>2022-06-18T07:28:21Z</time>
      </trkpt>
      <trkpt lat="45.34189" lon="6.29267">
        <ele>487.2</ele>
        <time>2022-06-18T07:28:22Z</time>
      </trkpt>
      <trkpt lat="45.34191" lon="6.29257">
        <ele>487.2</ele>
        <time>2022-06-18T07:28:23Z</time>
      </trkpt>
      <trkpt lat="45.34193" lon="6.29247">
        <ele>487.1</ele>
        <time>2022-06-18T07:28:24Z</time>
      </trkpt>
      <trkpt lat="45.34195" lon="6.29237">
        <ele>487.1</ele>
        <time>2022-06-18T07:28:25Z</time>
      </trkpt>
      <trkpt lat="45.34198" lon="6.29227">
        <ele>487</ele>
        <time>2022-06-18T07:28:26Z</time>
      </trkpt>
      <trkpt lat="45.34201" lon="6.29216">
        <ele>487</ele>
        <time>2022-06-18T07:28:27Z</time>
      </trkpt>
      <trkpt lat="45.34203" lon="6.29206">
        <ele>486.9</ele>
        <time>2022-06-18T07:28:28Z</time>
      </trkpt>
      <trkpt lat="45.34206" lon="6.29197">
        <ele>486.9</ele>
        <time>2022-06-18T07:28:29Z</time>
      </trkpt>
      <trkpt lat="45.34209" lon="6.29187">
        <ele>486.9</ele>
        <time>2022-06-18T07:28:30Z</time>
      </trkpt>
      <trkpt lat="45.34212" lon="6.29177">
        <ele>486.9</ele>
        <time>2022-06-18T07:28:31Z</time>
      </trkpt>
      <trkpt lat="45.34214" lon="6.29167">
        <ele>486.8</ele>
        <time>2022-06-18T07:28:32Z</time>
      </trkpt>
      <trkpt lat="45.34217" lon="6.29158">
        <ele>486.8</ele>
        <time>2022-06-18T07:28:33Z</time>
      </trkpt>
      <trkpt lat="45.3422" lon="6.2915">
        <ele>486.8</ele>
        <time>2022-06-18T07:28:34Z</time>
      </trkpt>
      <trkpt lat="45.34224" lon="6.29143">
        <ele>486.8</ele>
        <time>2022-06-18T07:28:35Z</time>
      </trkpt>
      <trkpt lat="45.34227" lon="6.29136">
        <ele>486.8</ele>
        <time>2022-06-18T07:28:36Z</time>
      </trkpt>
      <trkpt lat="45.34229" lon="6.2913">
        <ele>486.8</ele>
        <time>2022-06-18T07:28:37Z</time>
      </trkpt>
      <trkpt lat="45.34227" lon="6.29124">
        <ele>486.9</ele>
        <time>2022-06-18T07:28:38Z</time>
      </trkpt>
      <trkpt lat="45.34225" lon="6.29121">
        <ele>486.9</ele>
        <time>2022-06-18T07:28:39Z</time>
      </trkpt>
      <trkpt lat="45.34219" lon="6.29117">
        <ele>486.9</ele>
        <time>2022-06-18T07:28:40Z</time>
      </trkpt>
      <trkpt lat="45.34213" lon="6.29114">
        <ele>486.9</ele>
        <time>2022-06-18T07:28:41Z</time>
      </trkpt>
      <trkpt lat="45.34206" lon="6.29111">
        <ele>487</ele>
        <time>2022-06-18T07:28:42Z</time>
      </trkpt>
      <trkpt lat="45.34201" lon="6.29109">
        <ele>487.1</ele>
        <time>2022-06-18T07:28:43Z</time>
      </trkpt>
      <trkpt lat="45.34195" lon="6.29106">
        <ele>487.2</ele>
        <time>2022-06-18T07:28:44Z</time>
      </trkpt>
      <trkpt lat="45.34191" lon="6.29103">
        <ele>487.2</ele>
        <time>2022-06-18T07:28:45Z</time>
      </trkpt>
      <trkpt lat="45.34186" lon="6.291">
        <ele>487.1</ele>
        <time>2022-06-18T07:28:46Z</time>
      </trkpt>
      <trkpt lat="45.34182" lon="6.29096">
        <ele>487.1</ele>
        <time>2022-06-18T07:28:47Z</time>
      </trkpt>
      <trkpt lat="45.34178" lon="6.29092">
        <ele>487</ele>
        <time>2022-06-18T07:28:48Z</time>
      </trkpt>
      <trkpt lat="45.34174" lon="6.29087">
        <ele>486.9</ele>
        <time>2022-06-18T07:28:49Z</time>
      </trkpt>
      <trkpt lat="45.3417" lon="6.29083">
        <ele>486.8</ele>
        <time>2022-06-18T07:28:50Z</time>
      </trkpt>
      <trkpt lat="45.34166" lon="6.29078">
        <ele>487.2</ele>
        <time>2022-06-18T07:28:51Z</time>
      </trkpt>
      <trkpt lat="45.34162" lon="6.29075">
        <ele>487.6</ele>
        <time>2022-06-18T07:28:52Z</time>
      </trkpt>
      <trkpt lat="45.34158" lon="6.29071">
        <ele>488.1</ele>
        <time>2022-06-18T07:28:53Z</time>
      </trkpt>
      <trkpt lat="45.34153" lon="6.29069">
        <ele>488.5</ele>
        <time>2022-06-18T07:28:54Z</time>
      </trkpt>
      <trkpt lat="45.34149" lon="6.29066">
        <ele>488.9</ele>
        <time>2022-06-18T07:28:55Z</time>
      </trkpt>
      <trkpt lat="45.34145" lon="6.29063">
        <ele>489.3</ele>
        <time>2022-06-18T07:28:56Z</time>
      </trkpt>
      <trkpt lat="45.3414" lon="6.29061">
        <ele>489.8</ele>
        <time>2022-06-18T07:28:57Z</time>
      </trkpt>
      <trkpt lat="45.34136" lon="6.29058">
        <ele>490.2</ele>
        <time>2022-06-18T07:28:58Z</time>
      </trkpt>
      <trkpt lat="45.34132" lon="6.29054">
        <ele>490.6</ele>
        <time>2022-06-18T07:28:59Z</time>
      </trkpt>
      <trkpt lat="45.34128" lon="6.29051">
        <ele>491.1</ele>
        <time>2022-06-18T07:29:00Z</time>
      </trkpt>
      <trkpt lat="45.34124" lon="6.29047">
        <ele>491.5</ele>
        <time>2022-06-18T07:29:01Z</time>
      </trkpt>
      <trkpt lat="45.3412" lon="6.29044">
        <ele>492</ele>
        <time>2022-06-18T07:29:02Z</time>
      </trkpt>
      <trkpt lat="45.34115" lon="6.29041">
        <ele>492.4</ele>
        <time>2022-06-18T07:29:03Z</time>
      </trkpt>
      <trkpt lat="45.34111" lon="6.29038">
        <ele>492.9</ele>
        <time>2022-06-18T07:29:04Z</time>
      </trkpt>
      <trkpt lat="45.34106" lon="6.29035">
        <ele>493.3</ele>
        <time>2022-06-18T07:29:05Z</time>
      </trkpt>
      <trkpt lat="45.34102" lon="6.29033">
        <ele>493.7</ele>
        <time>2022-06-18T07:29:06Z</time>
      </trkpt>
      <trkpt lat="45.34097" lon="6.29029">
        <ele>493.9</ele>
        <time>2022-06-18T07:29:07Z</time>
      </trkpt>
      <trkpt lat="45.34093" lon="6.29025">
        <ele>494.2</ele>
        <time>2022-06-18T07:29:08Z</time>
      </trkpt>
      <trkpt lat="45.34088" lon="6.29022">
        <ele>494.4</ele>
        <time>2022-06-18T07:29:09Z</time>
      </trkpt>
      <trkpt lat="45.34083" lon="6.29019">
        <ele>494.7</ele>
        <time>2022-06-18T07:29:10Z</time>
      </trkpt>
      <trkpt lat="45.34079" lon="6.29017">
        <ele>494.9</ele>
        <time>2022-06-18T07:29:11Z</time>
      </trkpt>
      <trkpt lat="45.34074" lon="6.29014">
        <ele>495.2</ele>
        <time>2022-06-18T07:29:12Z</time>
      </trkpt>
      <trkpt lat="45.34069" lon="6.29011">
        <ele>495.4</ele>
        <time>2022-06-18T07:29:13Z</time>
      </trkpt>
      <trkpt lat="45.34064" lon="6.2901">
        <ele>495.7</ele>
        <time>2022-06-18T07:29:14Z</time>
      </trkpt>
      <trkpt lat="45.34058" lon="6.29008">
        <ele>495.9</ele>
        <time>2022-06-18T07:29:15Z</time>
      </trkpt>
      <trkpt lat="45.34053" lon="6.29006">
        <ele>496.1</ele>
        <time>2022-06-18T07:29:16Z</time>
      </trkpt>
      <trkpt lat="45.34048" lon="6.29004">
        <ele>496.3</ele>
        <time>2022-06-18T07:29:17Z</time>
      </trkpt>
      <trkpt lat="45.34043" lon="6.29003">
        <ele>496.6</ele>
        <time>2022-06-18T07:29:18Z</time>
      </trkpt>
      <trkpt lat="45.34038" lon="6.29001">
        <ele>496.8</ele>
        <time>2022-06-18T07:29:19Z</time>
      </trkpt>
      <trkpt lat="45.34033" lon="6.28999">
        <ele>497.1</ele>
        <time>2022-06-18T07:29:20Z</time>
      </trkpt>
      <trkpt lat="45.34028" lon="6.28997">
        <ele>497.3</ele>
        <time>2022-06-18T07:29:21Z</time>
      </trkpt>
      <trkpt lat="45.34023" lon="6.28996">
        <ele>497.6</ele>
        <time>2022-06-18T07:29:22Z</time>
      </trkpt>
      <trkpt lat="45.34018" lon="6.28994">
        <ele>497.9</ele>
        <time>2022-06-18T07:29:23Z</time>
      </trkpt>
      <trkpt lat="45.34013" lon="6.28991">
        <ele>498.2</ele>
        <time>2022-06-18T07:29:24Z</time>
      </trkpt>
      <trkpt lat="45.34008" lon="6.28988">
        <ele>498.4</ele>
        <time>2022-06-18T07:29:25Z</time>
      </trkpt>
      <trkpt lat="45.34004" lon="6.28985">
        <ele>498.7</ele>
        <time>2022-06-18T07:29:26Z</time>
      </trkpt>
      <trkpt lat="45.33999" lon="6.28983">
        <ele>499</ele>
        <time>2022-06-18T07:29:27Z</time>
      </trkpt>
      <trkpt lat="45.33994" lon="6.28981">
        <ele>499.3</ele>
        <time>2022-06-18T07:29:28Z</time>
      </trkpt>
      <trkpt lat="45.3399" lon="6.28979">
        <ele>499.5</ele>
        <time>2022-06-18T07:29:29Z</time>
      </trkpt>
      <trkpt lat="45.33985" lon="6.28977">
        <ele>499.8</ele>
        <time>2022-06-18T07:29:30Z</time>
      </trkpt>
      <trkpt lat="45.3398" lon="6.28975">
        <ele>500.1</ele>
        <time>2022-06-18T07:29:31Z</time>
      </trkpt>
      <trkpt lat="45.33975" lon="6.28973">
        <ele>500.4</ele>
        <time>2022-06-18T07:29:32Z</time>
      </trkpt>
      <trkpt lat="45.3397" lon="6.28971">
        <ele>500.7</ele>
        <time>2022-06-18T07:29:33Z</time>
      </trkpt>
      <trkpt lat="45.33966" lon="6.28969">
        <ele>501</ele>
        <time>2022-06-18T07:29:34Z</time>
      </trkpt>
      <trkpt lat="45.33962" lon="6.28968">
        <ele>501.2</ele>
        <time>2022-06-18T07:29:35Z</time>
      </trkpt>
      <trkpt lat="45.33957" lon="6.28965">
        <ele>501.6</ele>
        <time>2022-06-18T07:29:36Z</time>
      </trkpt>
      <trkpt lat="45.33954" lon="6.28964">
        <ele>501.8</ele>
        <time>2022-06-18T07:29:37Z</time>
      </trkpt>
      <trkpt lat="45.33949" lon="6.28963">
        <ele>502.1</ele>
        <time>2022-06-18T07:29:38Z</time>
      </trkpt>
      <trkpt lat="45.33945" lon="6.28961">
        <ele>502.4</ele>
        <time>2022-06-18T07:29:39Z</time>
      </trkpt>
      <trkpt lat="45.33941" lon="6.2896">
        <ele>502.7</ele>
        <time>2022-06-18T07:29:40Z</time>
      </trkpt>
      <trkpt lat="45.33938" lon="6.28959">
        <ele>502.9</ele>
        <time>2022-06-18T07:29:41Z</time>
      </trkpt>
      <trkpt lat="45.33934" lon="6.28958">
        <ele>503.1</ele>
        <time>2022-06-18T07:29:42Z</time>
      </trkpt>
      <trkpt lat="45.3393" lon="6.28955">
        <ele>503.4</ele>
        <time>2022-06-18T07:29:43Z</time>
      </trkpt>
      <trkpt lat="45.33925" lon="6.28954">
        <ele>503.8</ele>
        <time>2022-06-18T07:29:45Z</time>
      </trkpt>
      <trkpt lat="45.3392" lon="6.28952">
        <ele>504.1</ele>
        <time>2022-06-18T07:29:46Z</time>
      </trkpt>
      <trkpt lat="45.33915" lon="6.28951">
        <ele>504.4</ele>
        <time>2022-06-18T07:29:47Z</time>
      </trkpt>
      <trkpt lat="45.33909" lon="6.28948">
        <ele>504.9</ele>
        <time>2022-06-18T07:29:48Z</time>
      </trkpt>
      <trkpt lat="45.33902" lon="6.28944">
        <ele>505.4</ele>
        <time>2022-06-18T07:29:50Z</time>
      </trkpt>
      <trkpt lat="45.33897" lon="6.28942">
        <ele>505.8</ele>
        <time>2022-06-18T07:29:51Z</time>
      </trkpt>
      <trkpt lat="45.33893" lon="6.28941">
        <ele>506.1</ele>
        <time>2022-06-18T07:29:52Z</time>
      </trkpt>
      <trkpt lat="45.33889" lon="6.28939">
        <ele>506.2</ele>
        <time>2022-06-18T07:29:53Z</time>
      </trkpt>
      <trkpt lat="45.33884" lon="6.28938">
        <ele>506.3</ele>
        <time>2022-06-18T07:29:54Z</time>
      </trkpt>
      <trkpt lat="45.33879" lon="6.28937">
        <ele>506.5</ele>
        <time>2022-06-18T07:29:56Z</time>
      </trkpt>
      <trkpt lat="45.33872" lon="6.28934">
        <ele>506.7</ele>
        <time>2022-06-18T07:29:57Z</time>
      </trkpt>
      <trkpt lat="45.33869" lon="6.28934">
        <ele>506.8</ele>
        <time>2022-06-18T07:29:58Z</time>
      </trkpt>
      <trkpt lat="45.33863" lon="6.28932">
        <ele>507</ele>
        <time>2022-06-18T07:30:00Z</time>
      </trkpt>
      <trkpt lat="45.33859" lon="6.2893">
        <ele>507.1</ele>
        <time>2022-06-18T07:30:01Z</time>
      </trkpt>
      <trkpt lat="45.33855" lon="6.28929">
        <ele>507.2</ele>
        <time>2022-06-18T07:30:02Z</time>
      </trkpt>
      <trkpt lat="45.3385" lon="6.28928">
        <ele>507.3</ele>
        <time>2022-06-18T07:30:03Z</time>
      </trkpt>
      <trkpt lat="45.33847" lon="6.28926">
        <ele>507.5</ele>
        <time>2022-06-18T07:30:04Z</time>
      </trkpt>
      <trkpt lat="45.33842" lon="6.28924">
        <ele>507.6</ele>
        <time>2022-06-18T07:30:06Z</time>
      </trkpt>
      <trkpt lat="45.33836" lon="6.28922">
        <ele>507.8</ele>
        <time>2022-06-18T07:30:07Z</time>
      </trkpt>
      <trkpt lat="45.33831" lon="6.2892">
        <ele>508</ele>
        <time>2022-06-18T07:30:09Z</time>
      </trkpt>
      <trkpt lat="45.33825" lon="6.28918">
        <ele>508.2</ele>
        <time>2022-06-18T07:30:10Z</time>
      </trkpt>
      <trkpt lat="45.3382" lon="6.28917">
        <ele>508.4</ele>
        <time>2022-06-18T07:30:11Z</time>
      </trkpt>
      <trkpt lat="45.33814" lon="6.28914">
        <ele>508.6</ele>
        <time>2022-06-18T07:30:13Z</time>
      </trkpt>
      <trkpt lat="45.3381" lon="6.28913">
        <ele>508.8</ele>
        <time>2022-06-18T07:30:14Z</time>
      </trkpt>
      <trkpt lat="45.33805" lon="6.28912">
        <ele>508.9</ele>
        <time>2022-06-18T07:30:15Z</time>
      </trkpt>
      <trkpt lat="45.33799" lon="6.2891">
        <ele>509.2</ele>
        <time>2022-06-18T07:30:17Z</time>
      </trkpt>
      <trkpt lat="45.33795" lon="6.28909">
        <ele>509.3</ele>
        <time>2022-06-18T07:30:18Z</time>
      </trkpt>
      <trkpt lat="45.3379" lon="6.28908">
        <ele>509.5</ele>
        <time>2022-06-18T07:30:19Z</time>
      </trkpt>
      <trkpt lat="45.33786" lon="6.28907">
        <ele>509.6</ele>
        <time>2022-06-18T07:30:20Z</time>
      </trkpt>
      <trkpt lat="45.33782" lon="6.28905">
        <ele>509.8</ele>
        <time>2022-06-18T07:30:21Z</time>
      </trkpt>
      <trkpt lat="45.33777" lon="6.28904">
        <ele>510</ele>
        <time>2022-06-18T07:30:22Z</time>
      </trkpt>
      <trkpt lat="45.33771" lon="6.28902">
        <ele>510.2</ele>
        <time>2022-06-18T07:30:24Z</time>
      </trkpt>
      <trkpt lat="45.33765" lon="6.289">
        <ele>510.4</ele>
        <time>2022-06-18T07:30:25Z</time>
      </trkpt>
      <trkpt lat="45.3376" lon="6.28898">
        <ele>510.6</ele>
        <time>2022-06-18T07:30:27Z</time>
      </trkpt>
      <trkpt lat="45.33756" lon="6.28896">
        <ele>510.7</ele>
        <time>2022-06-18T07:30:28Z</time>
      </trkpt>
      <trkpt lat="45.33751" lon="6.28894">
        <ele>510.9</ele>
        <time>2022-06-18T07:30:29Z</time>
      </trkpt>
      <trkpt lat="45.33746" lon="6.28891">
        <ele>511.1</ele>
        <time>2022-06-18T07:30:30Z</time>
      </trkpt>
      <trkpt lat="45.33743" lon="6.2889">
        <ele>511.3</ele>
        <time>2022-06-18T07:30:31Z</time>
      </trkpt>
      <trkpt lat="45.33738" lon="6.28888">
        <ele>511.5</ele>
        <time>2022-06-18T07:30:32Z</time>
      </trkpt>
      <trkpt lat="45.33734" lon="6.28887">
        <ele>511.6</ele>
        <time>2022-06-18T07:30:33Z</time>
      </trkpt>
      <trkpt lat="45.3373" lon="6.28886">
        <ele>511.8</ele>
        <time>2022-06-18T07:30:34Z</time>
      </trkpt>
      <trkpt lat="45.33727" lon="6.28885">
        <ele>511.9</ele>
        <time>2022-06-18T07:30:35Z</time>
      </trkpt>
      <trkpt lat="45.33723" lon="6.28883">
        <ele>512.1</ele>
        <time>2022-06-18T07:30:36Z</time>
      </trkpt>
      <trkpt lat="45.33719" lon="6.28881">
        <ele>512.3</ele>
        <time>2022-06-18T07:30:37Z</time>
      </trkpt>
      <trkpt lat="45.33713" lon="6.28878">
        <ele>512.5</ele>
        <time>2022-06-18T07:30:39Z</time>
      </trkpt>
      <trkpt lat="45.33708" lon="6.28877">
        <ele>512.7</ele>
        <time>2022-06-18T07:30:40Z</time>
      </trkpt>
      <trkpt lat="45.33704" lon="6.28876">
        <ele>512.9</ele>
        <time>2022-06-18T07:30:41Z</time>
      </trkpt>
      <trkpt lat="45.337" lon="6.28875">
        <ele>513.1</ele>
        <time>2022-06-18T07:30:42Z</time>
      </trkpt>
      <trkpt lat="45.33697" lon="6.28874">
        <ele>513.3</ele>
        <time>2022-06-18T07:30:43Z</time>
      </trkpt>
      <trkpt lat="45.33694" lon="6.28873">
        <ele>513.4</ele>
        <time>2022-06-18T07:30:44Z</time>
      </trkpt>
      <trkpt lat="45.3369" lon="6.28872">
        <ele>513.6</ele>
        <time>2022-06-18T07:30:45Z</time>
      </trkpt>
      <trkpt lat="45.33687" lon="6.28871">
        <ele>513.8</ele>
        <time>2022-06-18T07:30:46Z</time>
      </trkpt>
      <trkpt lat="45.33682" lon="6.2887">
        <ele>514.1</ele>
        <time>2022-06-18T07:30:47Z</time>
      </trkpt>
      <trkpt lat="45.33679" lon="6.28869">
        <ele>514.3</ele>
        <time>2022-06-18T07:30:48Z</time>
      </trkpt>
      <trkpt lat="45.33675" lon="6.28866">
        <ele>514.6</ele>
        <time>2022-06-18T07:30:50Z</time>
      </trkpt>
      <trkpt lat="45.33671" lon="6.28864">
        <ele>514.8</ele>
        <time>2022-06-18T07:30:51Z</time>
      </trkpt>
      <trkpt lat="45.33666" lon="6.28863">
        <ele>515.2</ele>
        <time>2022-06-18T07:30:52Z</time>
      </trkpt>
      <trkpt lat="45.33662" lon="6.28861">
        <ele>515.4</ele>
        <time>2022-06-18T07:30:53Z</time>
      </trkpt>
      <trkpt lat="45.33658" lon="6.28859">
        <ele>515.7</ele>
        <time>2022-06-18T07:30:54Z</time>
      </trkpt>
      <trkpt lat="45.33654" lon="6.28857">
        <ele>516</ele>
        <time>2022-06-18T07:30:55Z</time>
      </trkpt>
      <trkpt lat="45.33651" lon="6.28856">
        <ele>516.2</ele>
        <time>2022-06-18T07:30:56Z</time>
      </trkpt>
      <trkpt lat="45.33648" lon="6.28855">
        <ele>516.3</ele>
        <time>2022-06-18T07:30:57Z</time>
      </trkpt>
      <trkpt lat="45.33645" lon="6.28855">
        <ele>516.5</ele>
        <time>2022-06-18T07:30:58Z</time>
      </trkpt>
      <trkpt lat="45.33643" lon="6.28854">
        <ele>516.7</ele>
        <time>2022-06-18T07:30:59Z</time>
      </trkpt>
      <trkpt lat="45.33639" lon="6.28853">
        <ele>516.9</ele>
        <time>2022-06-18T07:31:00Z</time>
      </trkpt>
      <trkpt lat="45.33638" lon="6.28853">
        <ele>516.9</ele>
        <time>2022-06-18T07:31:01Z</time>
      </trkpt>
      <trkpt lat="45.33635" lon="6.28852">
        <ele>517.1</ele>
        <time>2022-06-18T07:31:02Z</time>
      </trkpt>
      <trkpt lat="45.33632" lon="6.28851">
        <ele>517.2</ele>
        <time>2022-06-18T07:31:03Z</time>
      </trkpt>
      <trkpt lat="45.33628" lon="6.2885">
        <ele>517.3</ele>
        <time>2022-06-18T07:31:04Z</time>
      </trkpt>
      <trkpt lat="45.33624" lon="6.28849">
        <ele>517.4</ele>
        <time>2022-06-18T07:31:05Z</time>
      </trkpt>
      <trkpt lat="45.33621" lon="6.28848">
        <ele>517.6</ele>
        <time>2022-06-18T07:31:06Z</time>
      </trkpt>
      <trkpt lat="45.33618" lon="6.28847">
        <ele>517.7</ele>
        <time>2022-06-18T07:31:07Z</time>
      </trkpt>
      <trkpt lat="45.33613" lon="6.28845">
        <ele>517.9</ele>
        <time>2022-06-18T07:31:09Z</time>
      </trkpt>
      <trkpt lat="45.33608" lon="6.28843">
        <ele>518.1</ele>
        <time>2022-06-18T07:31:10Z</time>
      </trkpt>
      <trkpt lat="45.33603" lon="6.2884">
        <ele>518.3</ele>
        <time>2022-06-18T07:31:11Z</time>
      </trkpt>
      <trkpt lat="45.33599" lon="6.28839">
        <ele>518.5</ele>
        <time>2022-06-18T07:31:13Z</time>
      </trkpt>
      <trkpt lat="45.33595" lon="6.28837">
        <ele>518.7</ele>
        <time>2022-06-18T07:31:14Z</time>
      </trkpt>
      <trkpt lat="45.3359" lon="6.28836">
        <ele>518.9</ele>
        <time>2022-06-18T07:31:15Z</time>
      </trkpt>
      <trkpt lat="45.33588" lon="6.28835">
        <ele>519</ele>
        <time>2022-06-18T07:31:16Z</time>
      </trkpt>
      <trkpt lat="45.33585" lon="6.28834">
        <ele>519.1</ele>
        <time>2022-06-18T07:31:18Z</time>
      </trkpt>
      <trkpt lat="45.33581" lon="6.28833">
        <ele>519.2</ele>
        <time>2022-06-18T07:31:19Z</time>
      </trkpt>
      <trkpt lat="45.33578" lon="6.28833">
        <ele>519.4</ele>
        <time>2022-06-18T07:31:20Z</time>
      </trkpt>
      <trkpt lat="45.33575" lon="6.28832">
        <ele>519.5</ele>
        <time>2022-06-18T07:31:21Z</time>
      </trkpt>
      <trkpt lat="45.3357" lon="6.2883">
        <ele>519.7</ele>
        <time>2022-06-18T07:31:23Z</time>
      </trkpt>
      <trkpt lat="45.33568" lon="6.2883">
        <ele>519.8</ele>
        <time>2022-06-18T07:31:24Z</time>
      </trkpt>
      <trkpt lat="45.33567" lon="6.28829">
        <ele>519.8</ele>
        <time>2022-06-18T07:31:25Z</time>
      </trkpt>
      <trkpt lat="45.33561" lon="6.28827">
        <ele>520.1</ele>
        <time>2022-06-18T07:31:27Z</time>
      </trkpt>
      <trkpt lat="45.33556" lon="6.28824">
        <ele>520.3</ele>
        <time>2022-06-18T07:31:28Z</time>
      </trkpt>
      <trkpt lat="45.33551" lon="6.28823">
        <ele>520.5</ele>
        <time>2022-06-18T07:31:29Z</time>
      </trkpt>
      <trkpt lat="45.33545" lon="6.28822">
        <ele>520.7</ele>
        <time>2022-06-18T07:31:30Z</time>
      </trkpt>
      <trkpt lat="45.33541" lon="6.28821">
        <ele>520.9</ele>
        <time>2022-06-18T07:31:31Z</time>
      </trkpt>
      <trkpt lat="45.33537" lon="6.2882">
        <ele>521.1</ele>
        <time>2022-06-18T07:31:32Z</time>
      </trkpt>
      <trkpt lat="45.3353" lon="6.28817">
        <ele>521.3</ele>
        <time>2022-06-18T07:31:34Z</time>
      </trkpt>
      <trkpt lat="45.33526" lon="6.28816">
        <ele>521.4</ele>
        <time>2022-06-18T07:31:35Z</time>
      </trkpt>
      <trkpt lat="45.33523" lon="6.28814">
        <ele>521.6</ele>
        <time>2022-06-18T07:31:36Z</time>
      </trkpt>
      <trkpt lat="45.33518" lon="6.28813">
        <ele>521.8</ele>
        <time>2022-06-18T07:31:38Z</time>
      </trkpt>
      <trkpt lat="45.33515" lon="6.28811">
        <ele>521.9</ele>
        <time>2022-06-18T07:31:39Z</time>
      </trkpt>
      <trkpt lat="45.33511" lon="6.2881">
        <ele>522</ele>
        <time>2022-06-18T07:31:40Z</time>
      </trkpt>
      <trkpt lat="45.33506" lon="6.28809">
        <ele>522.2</ele>
        <time>2022-06-18T07:31:41Z</time>
      </trkpt>
      <trkpt lat="45.33502" lon="6.28807">
        <ele>522.4</ele>
        <time>2022-06-18T07:31:42Z</time>
      </trkpt>
      <trkpt lat="45.33499" lon="6.28806">
        <ele>522.5</ele>
        <time>2022-06-18T07:31:43Z</time>
      </trkpt>
      <trkpt lat="45.33496" lon="6.28805">
        <ele>522.7</ele>
        <time>2022-06-18T07:31:44Z</time>
      </trkpt>
      <trkpt lat="45.33493" lon="6.28804">
        <ele>522.8</ele>
        <time>2022-06-18T07:31:45Z</time>
      </trkpt>
      <trkpt lat="45.33487" lon="6.28802">
        <ele>523.1</ele>
        <time>2022-06-18T07:31:47Z</time>
      </trkpt>
      <trkpt lat="45.33483" lon="6.28801">
        <ele>523.3</ele>
        <time>2022-06-18T07:31:48Z</time>
      </trkpt>
      <trkpt lat="45.33479" lon="6.28799">
        <ele>523.4</ele>
        <time>2022-06-18T07:31:49Z</time>
      </trkpt>
      <trkpt lat="45.33475" lon="6.28798">
        <ele>523.6</ele>
        <time>2022-06-18T07:31:51Z</time>
      </trkpt>
      <trkpt lat="45.3347" lon="6.28796">
        <ele>523.9</ele>
        <time>2022-06-18T07:31:52Z</time>
      </trkpt>
      <trkpt lat="45.33467" lon="6.28795">
        <ele>524</ele>
        <time>2022-06-18T07:31:53Z</time>
      </trkpt>
      <trkpt lat="45.33464" lon="6.28794">
        <ele>524.2</ele>
        <time>2022-06-18T07:31:54Z</time>
      </trkpt>
      <trkpt lat="45.33459" lon="6.28793">
        <ele>524.4</ele>
        <time>2022-06-18T07:31:56Z</time>
      </trkpt>
      <trkpt lat="45.33456" lon="6.28791">
        <ele>524.6</ele>
        <time>2022-06-18T07:31:57Z</time>
      </trkpt>
      <trkpt lat="45.33452" lon="6.2879">
        <ele>524.9</ele>
        <time>2022-06-18T07:31:58Z</time>
      </trkpt>
      <trkpt lat="45.33448" lon="6.28789">
        <ele>525.3</ele>
        <time>2022-06-18T07:31:59Z</time>
      </trkpt>
      <trkpt lat="45.33444" lon="6.28788">
        <ele>525.7</ele>
        <time>2022-06-18T07:32:00Z</time>
      </trkpt>
      <trkpt lat="45.33442" lon="6.28788">
        <ele>525.9</ele>
        <time>2022-06-18T07:32:01Z</time>
      </trkpt>
      <trkpt lat="45.33436" lon="6.28787">
        <ele>526.5</ele>
        <time>2022-06-18T07:32:03Z</time>
      </trkpt>
      <trkpt lat="45.3343" lon="6.28787">
        <ele>527</ele>
        <time>2022-06-18T07:32:04Z</time>
      </trkpt>
      <trkpt lat="45.33426" lon="6.28788">
        <ele>527.5</ele>
        <time>2022-06-18T07:32:05Z</time>
      </trkpt>
      <trkpt lat="45.33421" lon="6.2879">
        <ele>527.9</ele>
        <time>2022-06-18T07:32:07Z</time>
      </trkpt>
      <trkpt lat="45.33418" lon="6.2879">
        <ele>528.3</ele>
        <time>2022-06-18T07:32:08Z</time>
      </trkpt>
      <trkpt lat="45.33414" lon="6.28791">
        <ele>528.7</ele>
        <time>2022-06-18T07:32:09Z</time>
      </trkpt>
      <trkpt lat="45.3341" lon="6.28792">
        <ele>529.1</ele>
        <time>2022-06-18T07:32:10Z</time>
      </trkpt>
      <trkpt lat="45.33405" lon="6.28792">
        <ele>529.6</ele>
        <time>2022-06-18T07:32:12Z</time>
      </trkpt>
      <trkpt lat="45.33401" lon="6.28793">
        <ele>530.1</ele>
        <time>2022-06-18T07:32:13Z</time>
      </trkpt>
      <trkpt lat="45.33396" lon="6.28793">
        <ele>530.7</ele>
        <time>2022-06-18T07:32:14Z</time>
      </trkpt>
      <trkpt lat="45.33392" lon="6.28794">
        <ele>531.1</ele>
        <time>2022-06-18T07:32:15Z</time>
      </trkpt>
      <trkpt lat="45.33388" lon="6.28794">
        <ele>531.6</ele>
        <time>2022-06-18T07:32:17Z</time>
      </trkpt>
      <trkpt lat="45.33384" lon="6.28795">
        <ele>531.9</ele>
        <time>2022-06-18T07:32:18Z</time>
      </trkpt>
      <trkpt lat="45.33381" lon="6.28795">
        <ele>532.3</ele>
        <time>2022-06-18T07:32:19Z</time>
      </trkpt>
      <trkpt lat="45.33377" lon="6.28795">
        <ele>532.8</ele>
        <time>2022-06-18T07:32:20Z</time>
      </trkpt>
      <trkpt lat="45.33373" lon="6.28794">
        <ele>533.2</ele>
        <time>2022-06-18T07:32:21Z</time>
      </trkpt>
      <trkpt lat="45.33371" lon="6.28792">
        <ele>533.5</ele>
        <time>2022-06-18T07:32:22Z</time>
      </trkpt>
      <trkpt lat="45.33368" lon="6.2879">
        <ele>533.8</ele>
        <time>2022-06-18T07:32:23Z</time>
      </trkpt>
      <trkpt lat="45.33365" lon="6.28787">
        <ele>534.2</ele>
        <time>2022-06-18T07:32:24Z</time>
      </trkpt>
      <trkpt lat="45.33362" lon="6.28783">
        <ele>534.2</ele>
        <time>2022-06-18T07:32:25Z</time>
      </trkpt>
      <trkpt lat="45.33359" lon="6.28781">
        <ele>533.6</ele>
        <time>2022-06-18T07:32:26Z</time>
      </trkpt>
      <trkpt lat="45.33357" lon="6.28777">
        <ele>533</ele>
        <time>2022-06-18T07:32:27Z</time>
      </trkpt>
      <trkpt lat="45.33354" lon="6.28772">
        <ele>532.1</ele>
        <time>2022-06-18T07:32:28Z</time>
      </trkpt>
      <trkpt lat="45.33353" lon="6.28767">
        <ele>531.9</ele>
        <time>2022-06-18T07:32:29Z</time>
      </trkpt>
      <trkpt lat="45.33351" lon="6.28761">
        <ele>532.7</ele>
        <time>2022-06-18T07:32:30Z</time>
      </trkpt>
      <trkpt lat="45.3335" lon="6.28756">
        <ele>533.4</ele>
        <time>2022-06-18T07:32:31Z</time>
      </trkpt>
      <trkpt lat="45.33349" lon="6.2875">
        <ele>534</ele>
        <time>2022-06-18T07:32:32Z</time>
      </trkpt>
      <trkpt lat="45.33348" lon="6.28744">
        <ele>534.9</ele>
        <time>2022-06-18T07:32:34Z</time>
      </trkpt>
      <trkpt lat="45.33347" lon="6.28739">
        <ele>535.5</ele>
        <time>2022-06-18T07:32:35Z</time>
      </trkpt>
      <trkpt lat="45.33346" lon="6.28733">
        <ele>536.4</ele>
        <time>2022-06-18T07:32:36Z</time>
      </trkpt>
      <trkpt lat="45.33345" lon="6.28728">
        <ele>537.1</ele>
        <time>2022-06-18T07:32:37Z</time>
      </trkpt>
      <trkpt lat="45.33344" lon="6.28722">
        <ele>537.8</ele>
        <time>2022-06-18T07:32:38Z</time>
      </trkpt>
      <trkpt lat="45.33344" lon="6.28717">
        <ele>538.6</ele>
        <time>2022-06-18T07:32:39Z</time>
      </trkpt>
      <trkpt lat="45.33343" lon="6.28712">
        <ele>539.3</ele>
        <time>2022-06-18T07:32:40Z</time>
      </trkpt>
      <trkpt lat="45.33342" lon="6.28707">
        <ele>540.1</ele>
        <time>2022-06-18T07:32:41Z</time>
      </trkpt>
      <trkpt lat="45.33341" lon="6.28703">
        <ele>540.8</ele>
        <time>2022-06-18T07:32:42Z</time>
      </trkpt>
      <trkpt lat="45.3334" lon="6.28696">
        <ele>541.7</ele>
        <time>2022-06-18T07:32:44Z</time>
      </trkpt>
      <trkpt lat="45.33339" lon="6.28689">
        <ele>542.2</ele>
        <time>2022-06-18T07:32:45Z</time>
      </trkpt>
      <trkpt lat="45.33339" lon="6.28685">
        <ele>542.1</ele>
        <time>2022-06-18T07:32:46Z</time>
      </trkpt>
      <trkpt lat="45.33339" lon="6.28676">
        <ele>542.2</ele>
        <time>2022-06-18T07:32:48Z</time>
      </trkpt>
      <trkpt lat="45.33339" lon="6.28669">
        <ele>542.6</ele>
        <time>2022-06-18T07:32:49Z</time>
      </trkpt>
      <trkpt lat="45.3334" lon="6.28664">
        <ele>542.9</ele>
        <time>2022-06-18T07:32:51Z</time>
      </trkpt>
      <trkpt lat="45.33341" lon="6.28659">
        <ele>543.2</ele>
        <time>2022-06-18T07:32:52Z</time>
      </trkpt>
      <trkpt lat="45.33343" lon="6.28654">
        <ele>543.5</ele>
        <time>2022-06-18T07:32:53Z</time>
      </trkpt>
      <trkpt lat="45.33344" lon="6.28649">
        <ele>543.8</ele>
        <time>2022-06-18T07:32:54Z</time>
      </trkpt>
      <trkpt lat="45.33347" lon="6.28641">
        <ele>544.2</ele>
        <time>2022-06-18T07:32:56Z</time>
      </trkpt>
      <trkpt lat="45.3335" lon="6.28636">
        <ele>544.5</ele>
        <time>2022-06-18T07:32:57Z</time>
      </trkpt>
      <trkpt lat="45.33353" lon="6.28632">
        <ele>544.8</ele>
        <time>2022-06-18T07:32:58Z</time>
      </trkpt>
      <trkpt lat="45.33355" lon="6.28626">
        <ele>545.2</ele>
        <time>2022-06-18T07:33:00Z</time>
      </trkpt>
      <trkpt lat="45.33358" lon="6.28621">
        <ele>545.6</ele>
        <time>2022-06-18T07:33:01Z</time>
      </trkpt>
      <trkpt lat="45.33361" lon="6.28614">
        <ele>546</ele>
        <time>2022-06-18T07:33:02Z</time>
      </trkpt>
      <trkpt lat="45.33365" lon="6.28608">
        <ele>546.5</ele>
        <time>2022-06-18T07:33:04Z</time>
      </trkpt>
      <trkpt lat="45.33367" lon="6.28604">
        <ele>546.7</ele>
        <time>2022-06-18T07:33:05Z</time>
      </trkpt>
      <trkpt lat="45.33368" lon="6.286">
        <ele>547</ele>
        <time>2022-06-18T07:33:06Z</time>
      </trkpt>
      <trkpt lat="45.33369" lon="6.28594">
        <ele>547.4</ele>
        <time>2022-06-18T07:33:07Z</time>
      </trkpt>
      <trkpt lat="45.33369" lon="6.2859">
        <ele>547.6</ele>
        <time>2022-06-18T07:33:08Z</time>
      </trkpt>
      <trkpt lat="45.33368" lon="6.28585">
        <ele>547.9</ele>
        <time>2022-06-18T07:33:09Z</time>
      </trkpt>
      <trkpt lat="45.33366" lon="6.28581">
        <ele>548.2</ele>
        <time>2022-06-18T07:33:10Z</time>
      </trkpt>
      <trkpt lat="45.33362" lon="6.28578">
        <ele>548.5</ele>
        <time>2022-06-18T07:33:11Z</time>
      </trkpt>
      <trkpt lat="45.33356" lon="6.28575">
        <ele>548.8</ele>
        <time>2022-06-18T07:33:13Z</time>
      </trkpt>
      <trkpt lat="45.33352" lon="6.28574">
        <ele>549.1</ele>
        <time>2022-06-18T07:33:14Z</time>
      </trkpt>
      <trkpt lat="45.33348" lon="6.28575">
        <ele>549.2</ele>
        <time>2022-06-18T07:33:15Z</time>
      </trkpt>
      <trkpt lat="45.33341" lon="6.28576">
        <ele>549.5</ele>
        <time>2022-06-18T07:33:17Z</time>
      </trkpt>
      <trkpt lat="45.33336" lon="6.28576">
        <ele>549.7</ele>
        <time>2022-06-18T07:33:18Z</time>
      </trkpt>
      <trkpt lat="45.33331" lon="6.28578">
        <ele>549.9</ele>
        <time>2022-06-18T07:33:20Z</time>
      </trkpt>
      <trkpt lat="45.33327" lon="6.28579">
        <ele>550.1</ele>
        <time>2022-06-18T07:33:21Z</time>
      </trkpt>
      <trkpt lat="45.33322" lon="6.2858">
        <ele>550.4</ele>
        <time>2022-06-18T07:33:22Z</time>
      </trkpt>
      <trkpt lat="45.33315" lon="6.28581">
        <ele>550.7</ele>
        <time>2022-06-18T07:33:24Z</time>
      </trkpt>
      <trkpt lat="45.33311" lon="6.28581">
        <ele>550.8</ele>
        <time>2022-06-18T07:33:25Z</time>
      </trkpt>
      <trkpt lat="45.33306" lon="6.28583">
        <ele>551</ele>
        <time>2022-06-18T07:33:26Z</time>
      </trkpt>
      <trkpt lat="45.33303" lon="6.28584">
        <ele>551.2</ele>
        <time>2022-06-18T07:33:27Z</time>
      </trkpt>
      <trkpt lat="45.333" lon="6.28584">
        <ele>551.3</ele>
        <time>2022-06-18T07:33:28Z</time>
      </trkpt>
      <trkpt lat="45.33294" lon="6.28584">
        <ele>551.6</ele>
        <time>2022-06-18T07:33:30Z</time>
      </trkpt>
      <trkpt lat="45.33289" lon="6.28585">
        <ele>551.9</ele>
        <time>2022-06-18T07:33:31Z</time>
      </trkpt>
      <trkpt lat="45.33285" lon="6.28585">
        <ele>552.2</ele>
        <time>2022-06-18T07:33:32Z</time>
      </trkpt>
      <trkpt lat="45.33279" lon="6.28585">
        <ele>552.5</ele>
        <time>2022-06-18T07:33:34Z</time>
      </trkpt>
      <trkpt lat="45.33274" lon="6.28585">
        <ele>552.8</ele>
        <time>2022-06-18T07:33:35Z</time>
      </trkpt>
      <trkpt lat="45.33269" lon="6.28584">
        <ele>553.2</ele>
        <time>2022-06-18T07:33:36Z</time>
      </trkpt>
      <trkpt lat="45.33265" lon="6.28582">
        <ele>553.4</ele>
        <time>2022-06-18T07:33:37Z</time>
      </trkpt>
      <trkpt lat="45.33261" lon="6.2858">
        <ele>553.7</ele>
        <time>2022-06-18T07:33:38Z</time>
      </trkpt>
      <trkpt lat="45.33258" lon="6.28577">
        <ele>554</ele>
        <time>2022-06-18T07:33:39Z</time>
      </trkpt>
      <trkpt lat="45.33254" lon="6.28574">
        <ele>554.4</ele>
        <time>2022-06-18T07:33:41Z</time>
      </trkpt>
      <trkpt lat="45.3325" lon="6.28572">
        <ele>554.6</ele>
        <time>2022-06-18T07:33:42Z</time>
      </trkpt>
      <trkpt lat="45.33247" lon="6.2857">
        <ele>554.9</ele>
        <time>2022-06-18T07:33:43Z</time>
      </trkpt>
      <trkpt lat="45.33243" lon="6.28569">
        <ele>555.3</ele>
        <time>2022-06-18T07:33:44Z</time>
      </trkpt>
      <trkpt lat="45.33241" lon="6.28568">
        <ele>555.5</ele>
        <time>2022-06-18T07:33:45Z</time>
      </trkpt>
      <trkpt lat="45.33238" lon="6.28566">
        <ele>555.8</ele>
        <time>2022-06-18T07:33:46Z</time>
      </trkpt>
      <trkpt lat="45.33234" lon="6.28563">
        <ele>556.2</ele>
        <time>2022-06-18T07:33:47Z</time>
      </trkpt>
      <trkpt lat="45.33231" lon="6.28561">
        <ele>556.5</ele>
        <time>2022-06-18T07:33:48Z</time>
      </trkpt>
      <trkpt lat="45.33227" lon="6.28559">
        <ele>556.8</ele>
        <time>2022-06-18T07:33:49Z</time>
      </trkpt>
      <trkpt lat="45.33225" lon="6.28557">
        <ele>557</ele>
        <time>2022-06-18T07:33:50Z</time>
      </trkpt>
      <trkpt lat="45.33222" lon="6.28556">
        <ele>557.3</ele>
        <time>2022-06-18T07:33:51Z</time>
      </trkpt>
      <trkpt lat="45.33219" lon="6.28554">
        <ele>557.6</ele>
        <time>2022-06-18T07:33:52Z</time>
      </trkpt>
      <trkpt lat="45.33216" lon="6.28553">
        <ele>557.9</ele>
        <time>2022-06-18T07:33:53Z</time>
      </trkpt>
      <trkpt lat="45.33213" lon="6.28551">
        <ele>558.2</ele>
        <time>2022-06-18T07:33:54Z</time>
      </trkpt>
      <trkpt lat="45.33209" lon="6.2855">
        <ele>558.6</ele>
        <time>2022-06-18T07:33:55Z</time>
      </trkpt>
      <trkpt lat="45.33206" lon="6.28548">
        <ele>559</ele>
        <time>2022-06-18T07:33:56Z</time>
      </trkpt>
      <trkpt lat="45.33202" lon="6.28545">
        <ele>559.3</ele>
        <time>2022-06-18T07:33:57Z</time>
      </trkpt>
      <trkpt lat="45.33199" lon="6.28544">
        <ele>559.6</ele>
        <time>2022-06-18T07:33:58Z</time>
      </trkpt>
      <trkpt lat="45.33197" lon="6.28542">
        <ele>559.9</ele>
        <time>2022-06-18T07:33:59Z</time>
      </trkpt>
      <trkpt lat="45.33193" lon="6.28542">
        <ele>560.2</ele>
        <time>2022-06-18T07:34:01Z</time>
      </trkpt>
      <trkpt lat="45.3319" lon="6.2854">
        <ele>560.5</ele>
        <time>2022-06-18T07:34:02Z</time>
      </trkpt>
      <trkpt lat="45.33187" lon="6.28538">
        <ele>560.8</ele>
        <time>2022-06-18T07:34:03Z</time>
      </trkpt>
      <trkpt lat="45.33184" lon="6.28536">
        <ele>561.1</ele>
        <time>2022-06-18T07:34:04Z</time>
      </trkpt>
      <trkpt lat="45.33181" lon="6.28534">
        <ele>561.4</ele>
        <time>2022-06-18T07:34:05Z</time>
      </trkpt>
      <trkpt lat="45.33178" lon="6.28533">
        <ele>561.6</ele>
        <time>2022-06-18T07:34:06Z</time>
      </trkpt>
      <trkpt lat="45.33175" lon="6.28531">
        <ele>562</ele>
        <time>2022-06-18T07:34:08Z</time>
      </trkpt>
      <trkpt lat="45.33171" lon="6.2853">
        <ele>562.2</ele>
        <time>2022-06-18T07:34:09Z</time>
      </trkpt>
      <trkpt lat="45.33168" lon="6.28528">
        <ele>562.6</ele>
        <time>2022-06-18T07:34:10Z</time>
      </trkpt>
      <trkpt lat="45.33164" lon="6.28526">
        <ele>562.8</ele>
        <time>2022-06-18T07:34:11Z</time>
      </trkpt>
      <trkpt lat="45.33161" lon="6.28525">
        <ele>563.1</ele>
        <time>2022-06-18T07:34:12Z</time>
      </trkpt>
      <trkpt lat="45.33157" lon="6.28523">
        <ele>563.4</ele>
        <time>2022-06-18T07:34:13Z</time>
      </trkpt>
      <trkpt lat="45.33153" lon="6.28521">
        <ele>563.6</ele>
        <time>2022-06-18T07:34:14Z</time>
      </trkpt>
      <trkpt lat="45.3315" lon="6.28519">
        <ele>563.9</ele>
        <time>2022-06-18T07:34:15Z</time>
      </trkpt>
      <trkpt lat="45.33146" lon="6.28517">
        <ele>564.2</ele>
        <time>2022-06-18T07:34:17Z</time>
      </trkpt>
      <trkpt lat="45.33141" lon="6.28514">
        <ele>564.5</ele>
        <time>2022-06-18T07:34:18Z</time>
      </trkpt>
      <trkpt lat="45.33135" lon="6.28511">
        <ele>564.9</ele>
        <time>2022-06-18T07:34:20Z</time>
      </trkpt>
      <trkpt lat="45.33131" lon="6.28509">
        <ele>565.2</ele>
        <time>2022-06-18T07:34:21Z</time>
      </trkpt>
      <trkpt lat="45.33128" lon="6.28508">
        <ele>565.4</ele>
        <time>2022-06-18T07:34:22Z</time>
      </trkpt>
      <trkpt lat="45.33125" lon="6.28506">
        <ele>565.5</ele>
        <time>2022-06-18T07:34:23Z</time>
      </trkpt>
      <trkpt lat="45.33122" lon="6.28504">
        <ele>565.7</ele>
        <time>2022-06-18T07:34:24Z</time>
      </trkpt>
      <trkpt lat="45.33119" lon="6.28502">
        <ele>565.9</ele>
        <time>2022-06-18T07:34:25Z</time>
      </trkpt>
      <trkpt lat="45.33117" lon="6.285">
        <ele>566.1</ele>
        <time>2022-06-18T07:34:26Z</time>
      </trkpt>
      <trkpt lat="45.33114" lon="6.28498">
        <ele>566.3</ele>
        <time>2022-06-18T07:34:27Z</time>
      </trkpt>
      <trkpt lat="45.3311" lon="6.28496">
        <ele>566.5</ele>
        <time>2022-06-18T07:34:28Z</time>
      </trkpt>
      <trkpt lat="45.33107" lon="6.28493">
        <ele>566.7</ele>
        <time>2022-06-18T07:34:29Z</time>
      </trkpt>
      <trkpt lat="45.33105" lon="6.2849">
        <ele>567</ele>
        <time>2022-06-18T07:34:30Z</time>
      </trkpt>
      <trkpt lat="45.33103" lon="6.28487">
        <ele>567.1</ele>
        <time>2022-06-18T07:34:31Z</time>
      </trkpt>
      <trkpt lat="45.33099" lon="6.28482">
        <ele>567.4</ele>
        <time>2022-06-18T07:34:33Z</time>
      </trkpt>
      <trkpt lat="45.33095" lon="6.28477">
        <ele>567.8</ele>
        <time>2022-06-18T07:34:34Z</time>
      </trkpt>
      <trkpt lat="45.33093" lon="6.28473">
        <ele>568</ele>
        <time>2022-06-18T07:34:35Z</time>
      </trkpt>
      <trkpt lat="45.3309" lon="6.28469">
        <ele>568.2</ele>
        <time>2022-06-18T07:34:36Z</time>
      </trkpt>
      <trkpt lat="45.33087" lon="6.28464">
        <ele>568.5</ele>
        <time>2022-06-18T07:34:38Z</time>
      </trkpt>
      <trkpt lat="45.33085" lon="6.28459">
        <ele>568.8</ele>
        <time>2022-06-18T07:34:39Z</time>
      </trkpt>
      <trkpt lat="45.33083" lon="6.28453">
        <ele>569.1</ele>
        <time>2022-06-18T07:34:40Z</time>
      </trkpt>
      <trkpt lat="45.33081" lon="6.28448">
        <ele>569.4</ele>
        <time>2022-06-18T07:34:42Z</time>
      </trkpt>
      <trkpt lat="45.33079" lon="6.28443">
        <ele>569.8</ele>
        <time>2022-06-18T07:34:43Z</time>
      </trkpt>
      <trkpt lat="45.33077" lon="6.28437">
        <ele>570.2</ele>
        <time>2022-06-18T07:34:44Z</time>
      </trkpt>
      <trkpt lat="45.33073" lon="6.28428">
        <ele>571</ele>
        <time>2022-06-18T07:34:46Z</time>
      </trkpt>
      <trkpt lat="45.33071" lon="6.28424">
        <ele>571.3</ele>
        <time>2022-06-18T07:34:47Z</time>
      </trkpt>
      <trkpt lat="45.3307" lon="6.28419">
        <ele>571.7</ele>
        <time>2022-06-18T07:34:48Z</time>
      </trkpt>
      <trkpt lat="45.33069" lon="6.28415">
        <ele>572.1</ele>
        <time>2022-06-18T07:34:49Z</time>
      </trkpt>
      <trkpt lat="45.33067" lon="6.28411">
        <ele>572.4</ele>
        <time>2022-06-18T07:34:50Z</time>
      </trkpt>
      <trkpt lat="45.33064" lon="6.28406">
        <ele>572.8</ele>
        <time>2022-06-18T07:34:51Z</time>
      </trkpt>
      <trkpt lat="45.33062" lon="6.28402">
        <ele>573.2</ele>
        <time>2022-06-18T07:34:52Z</time>
      </trkpt>
      <trkpt lat="45.33059" lon="6.28398">
        <ele>573.7</ele>
        <time>2022-06-18T07:34:54Z</time>
      </trkpt>
      <trkpt lat="45.33055" lon="6.28393">
        <ele>574.3</ele>
        <time>2022-06-18T07:34:55Z</time>
      </trkpt>
      <trkpt lat="45.3305" lon="6.28389">
        <ele>574.9</ele>
        <time>2022-06-18T07:34:56Z</time>
      </trkpt>
      <trkpt lat="45.33048" lon="6.28387">
        <ele>575.2</ele>
        <time>2022-06-18T07:34:57Z</time>
      </trkpt>
      <trkpt lat="45.33045" lon="6.28384">
        <ele>575.6</ele>
        <time>2022-06-18T07:34:58Z</time>
      </trkpt>
      <trkpt lat="45.33042" lon="6.28381">
        <ele>576</ele>
        <time>2022-06-18T07:34:59Z</time>
      </trkpt>
      <trkpt lat="45.3304" lon="6.28377">
        <ele>576.4</ele>
        <time>2022-06-18T07:35:00Z</time>
      </trkpt>
      <trkpt lat="45.33037" lon="6.28374">
        <ele>576.8</ele>
        <time>2022-06-18T07:35:02Z</time>
      </trkpt>
      <trkpt lat="45.33034" lon="6.2837">
        <ele>577.4</ele>
        <time>2022-06-18T07:35:03Z</time>
      </trkpt>
      <trkpt lat="45.33031" lon="6.28366">
        <ele>577.8</ele>
        <time>2022-06-18T07:35:04Z</time>
      </trkpt>
      <trkpt lat="45.33028" lon="6.28362">
        <ele>578.3</ele>
        <time>2022-06-18T07:35:06Z</time>
      </trkpt>
      <trkpt lat="45.33025" lon="6.28357">
        <ele>578.8</ele>
        <time>2022-06-18T07:35:07Z</time>
      </trkpt>
      <trkpt lat="45.33024" lon="6.28354">
        <ele>579</ele>
        <time>2022-06-18T07:35:08Z</time>
      </trkpt>
      <trkpt lat="45.33022" lon="6.28352">
        <ele>579.4</ele>
        <time>2022-06-18T07:35:09Z</time>
      </trkpt>
      <trkpt lat="45.3302" lon="6.28348">
        <ele>579.7</ele>
        <time>2022-06-18T07:35:10Z</time>
      </trkpt>
      <trkpt lat="45.33018" lon="6.28344">
        <ele>580.1</ele>
        <time>2022-06-18T07:35:11Z</time>
      </trkpt>
      <trkpt lat="45.33017" lon="6.28339">
        <ele>580.5</ele>
        <time>2022-06-18T07:35:12Z</time>
      </trkpt>
      <trkpt lat="45.33015" lon="6.28335">
        <ele>580.9</ele>
        <time>2022-06-18T07:35:13Z</time>
      </trkpt>
      <trkpt lat="45.33013" lon="6.28331">
        <ele>581.3</ele>
        <time>2022-06-18T07:35:15Z</time>
      </trkpt>
      <trkpt lat="45.33011" lon="6.28326">
        <ele>581.8</ele>
        <time>2022-06-18T07:35:16Z</time>
      </trkpt>
      <trkpt lat="45.3301" lon="6.28322">
        <ele>582.2</ele>
        <time>2022-06-18T07:35:17Z</time>
      </trkpt>
      <trkpt lat="45.33008" lon="6.28317">
        <ele>582.6</ele>
        <time>2022-06-18T07:35:18Z</time>
      </trkpt>
      <trkpt lat="45.33005" lon="6.2831">
        <ele>583.3</ele>
        <time>2022-06-18T07:35:20Z</time>
      </trkpt>
      <trkpt lat="45.33004" lon="6.28306">
        <ele>583.6</ele>
        <time>2022-06-18T07:35:21Z</time>
      </trkpt>
      <trkpt lat="45.33003" lon="6.28302">
        <ele>584</ele>
        <time>2022-06-18T07:35:22Z</time>
      </trkpt>
      <trkpt lat="45.33001" lon="6.28297">
        <ele>584.4</ele>
        <time>2022-06-18T07:35:23Z</time>
      </trkpt>
      <trkpt lat="45.33" lon="6.28293">
        <ele>584.8</ele>
        <time>2022-06-18T07:35:24Z</time>
      </trkpt>
      <trkpt lat="45.32999" lon="6.28289">
        <ele>585.1</ele>
        <time>2022-06-18T07:35:25Z</time>
      </trkpt>
      <trkpt lat="45.32998" lon="6.28285">
        <ele>585.5</ele>
        <time>2022-06-18T07:35:26Z</time>
      </trkpt>
      <trkpt lat="45.32994" lon="6.28278">
        <ele>586.2</ele>
        <time>2022-06-18T07:35:28Z</time>
      </trkpt>
      <trkpt lat="45.32992" lon="6.28274">
        <ele>586.7</ele>
        <time>2022-06-18T07:35:29Z</time>
      </trkpt>
      <trkpt lat="45.32989" lon="6.28269">
        <ele>587</ele>
        <time>2022-06-18T07:35:30Z</time>
      </trkpt>
      <trkpt lat="45.32988" lon="6.28265">
        <ele>587.4</ele>
        <time>2022-06-18T07:35:31Z</time>
      </trkpt>
      <trkpt lat="45.32986" lon="6.28261">
        <ele>587.8</ele>
        <time>2022-06-18T07:35:32Z</time>
      </trkpt>
      <trkpt lat="45.32982" lon="6.28254">
        <ele>588.4</ele>
        <time>2022-06-18T07:35:34Z</time>
      </trkpt>
      <trkpt lat="45.3298" lon="6.2825">
        <ele>588.9</ele>
        <time>2022-06-18T07:35:35Z</time>
      </trkpt>
      <trkpt lat="45.32977" lon="6.28247">
        <ele>589.3</ele>
        <time>2022-06-18T07:35:36Z</time>
      </trkpt>
      <trkpt lat="45.32973" lon="6.28243">
        <ele>589.8</ele>
        <time>2022-06-18T07:35:37Z</time>
      </trkpt>
      <trkpt lat="45.3297" lon="6.2824">
        <ele>590.2</ele>
        <time>2022-06-18T07:35:38Z</time>
      </trkpt>
      <trkpt lat="45.32968" lon="6.28237">
        <ele>590.6</ele>
        <time>2022-06-18T07:35:39Z</time>
      </trkpt>
      <trkpt lat="45.32962" lon="6.2823">
        <ele>591.4</ele>
        <time>2022-06-18T07:35:42Z</time>
      </trkpt>
      <trkpt lat="45.32959" lon="6.28227">
        <ele>591.7</ele>
        <time>2022-06-18T07:35:43Z</time>
      </trkpt>
      <trkpt lat="45.32957" lon="6.28222">
        <ele>592.2</ele>
        <time>2022-06-18T07:35:44Z</time>
      </trkpt>
      <trkpt lat="45.32954" lon="6.28218">
        <ele>592.6</ele>
        <time>2022-06-18T07:35:45Z</time>
      </trkpt>
      <trkpt lat="45.32952" lon="6.28214">
        <ele>593</ele>
        <time>2022-06-18T07:35:46Z</time>
      </trkpt>
      <trkpt lat="45.32949" lon="6.28211">
        <ele>593.4</ele>
        <time>2022-06-18T07:35:47Z</time>
      </trkpt>
      <trkpt lat="45.32947" lon="6.28206">
        <ele>593.8</ele>
        <time>2022-06-18T07:35:48Z</time>
      </trkpt>
      <trkpt lat="45.32945" lon="6.28202">
        <ele>594.3</ele>
        <time>2022-06-18T07:35:50Z</time>
      </trkpt>
      <trkpt lat="45.32941" lon="6.28196">
        <ele>594.8</ele>
        <time>2022-06-18T07:35:51Z</time>
      </trkpt>
      <trkpt lat="45.32939" lon="6.28193">
        <ele>594.7</ele>
        <time>2022-06-18T07:35:52Z</time>
      </trkpt>
      <trkpt lat="45.32935" lon="6.28188">
        <ele>594.5</ele>
        <time>2022-06-18T07:35:53Z</time>
      </trkpt>
      <trkpt lat="45.32933" lon="6.28184">
        <ele>594.3</ele>
        <time>2022-06-18T07:35:54Z</time>
      </trkpt>
      <trkpt lat="45.3293" lon="6.28179">
        <ele>594.1</ele>
        <time>2022-06-18T07:35:55Z</time>
      </trkpt>
      <trkpt lat="45.32927" lon="6.28176">
        <ele>593.9</ele>
        <time>2022-06-18T07:35:56Z</time>
      </trkpt>
      <trkpt lat="45.32924" lon="6.28172">
        <ele>593.6</ele>
        <time>2022-06-18T07:35:58Z</time>
      </trkpt>
      <trkpt lat="45.32921" lon="6.28168">
        <ele>593.5</ele>
        <time>2022-06-18T07:35:59Z</time>
      </trkpt>
      <trkpt lat="45.32919" lon="6.28165">
        <ele>593.3</ele>
        <time>2022-06-18T07:36:00Z</time>
      </trkpt>
      <trkpt lat="45.32915" lon="6.2816">
        <ele>593.7</ele>
        <time>2022-06-18T07:36:01Z</time>
      </trkpt>
      <trkpt lat="45.32913" lon="6.28156">
        <ele>594.1</ele>
        <time>2022-06-18T07:36:02Z</time>
      </trkpt>
      <trkpt lat="45.32911" lon="6.28153">
        <ele>594.4</ele>
        <time>2022-06-18T07:36:03Z</time>
      </trkpt>
      <trkpt lat="45.32908" lon="6.28149">
        <ele>594.8</ele>
        <time>2022-06-18T07:36:04Z</time>
      </trkpt>
      <trkpt lat="45.32906" lon="6.28145">
        <ele>595.3</ele>
        <time>2022-06-18T07:36:05Z</time>
      </trkpt>
      <trkpt lat="45.32903" lon="6.28142">
        <ele>595.7</ele>
        <time>2022-06-18T07:36:06Z</time>
      </trkpt>
      <trkpt lat="45.329" lon="6.28139">
        <ele>596</ele>
        <time>2022-06-18T07:36:07Z</time>
      </trkpt>
      <trkpt lat="45.32896" lon="6.28135">
        <ele>596.6</ele>
        <time>2022-06-18T07:36:08Z</time>
      </trkpt>
      <trkpt lat="45.32892" lon="6.28132">
        <ele>597.1</ele>
        <time>2022-06-18T07:36:10Z</time>
      </trkpt>
      <trkpt lat="45.32888" lon="6.28129">
        <ele>597.6</ele>
        <time>2022-06-18T07:36:11Z</time>
      </trkpt>
      <trkpt lat="45.32884" lon="6.28127">
        <ele>598.1</ele>
        <time>2022-06-18T07:36:12Z</time>
      </trkpt>
      <trkpt lat="45.32882" lon="6.28125">
        <ele>598.4</ele>
        <time>2022-06-18T07:36:13Z</time>
      </trkpt>
      <trkpt lat="45.32879" lon="6.28121">
        <ele>598.8</ele>
        <time>2022-06-18T07:36:15Z</time>
      </trkpt>
      <trkpt lat="45.32875" lon="6.28117">
        <ele>599.3</ele>
        <time>2022-06-18T07:36:16Z</time>
      </trkpt>
      <trkpt lat="45.32871" lon="6.28113">
        <ele>599.8</ele>
        <time>2022-06-18T07:36:17Z</time>
      </trkpt>
      <trkpt lat="45.32868" lon="6.28106">
        <ele>600.5</ele>
        <time>2022-06-18T07:36:19Z</time>
      </trkpt>
      <trkpt lat="45.32866" lon="6.28101">
        <ele>600.9</ele>
        <time>2022-06-18T07:36:20Z</time>
      </trkpt>
      <trkpt lat="45.32864" lon="6.28096">
        <ele>601.3</ele>
        <time>2022-06-18T07:36:21Z</time>
      </trkpt>
      <trkpt lat="45.32862" lon="6.28091">
        <ele>601.7</ele>
        <time>2022-06-18T07:36:22Z</time>
      </trkpt>
      <trkpt lat="45.3286" lon="6.28087">
        <ele>602.1</ele>
        <time>2022-06-18T07:36:23Z</time>
      </trkpt>
      <trkpt lat="45.32858" lon="6.28083">
        <ele>602.5</ele>
        <time>2022-06-18T07:36:24Z</time>
      </trkpt>
      <trkpt lat="45.32856" lon="6.28079">
        <ele>602.8</ele>
        <time>2022-06-18T07:36:25Z</time>
      </trkpt>
      <trkpt lat="45.32854" lon="6.28077">
        <ele>603.2</ele>
        <time>2022-06-18T07:36:26Z</time>
      </trkpt>
      <trkpt lat="45.32848" lon="6.28071">
        <ele>603.9</ele>
        <time>2022-06-18T07:36:28Z</time>
      </trkpt>
      <trkpt lat="45.32846" lon="6.28067">
        <ele>604.3</ele>
        <time>2022-06-18T07:36:29Z</time>
      </trkpt>
      <trkpt lat="45.32841" lon="6.28061">
        <ele>605</ele>
        <time>2022-06-18T07:36:31Z</time>
      </trkpt>
      <trkpt lat="45.32838" lon="6.28059">
        <ele>605.4</ele>
        <time>2022-06-18T07:36:32Z</time>
      </trkpt>
      <trkpt lat="45.32834" lon="6.28058">
        <ele>605.8</ele>
        <time>2022-06-18T07:36:33Z</time>
      </trkpt>
      <trkpt lat="45.3283" lon="6.28055">
        <ele>606.3</ele>
        <time>2022-06-18T07:36:35Z</time>
      </trkpt>
      <trkpt lat="45.32827" lon="6.28053">
        <ele>606.7</ele>
        <time>2022-06-18T07:36:36Z</time>
      </trkpt>
      <trkpt lat="45.32823" lon="6.28051">
        <ele>607.1</ele>
        <time>2022-06-18T07:36:37Z</time>
      </trkpt>
      <trkpt lat="45.32821" lon="6.28049">
        <ele>607.4</ele>
        <time>2022-06-18T07:36:38Z</time>
      </trkpt>
      <trkpt lat="45.32816" lon="6.28045">
        <ele>607.9</ele>
        <time>2022-06-18T07:36:40Z</time>
      </trkpt>
      <trkpt lat="45.32812" lon="6.28041">
        <ele>608.4</ele>
        <time>2022-06-18T07:36:41Z</time>
      </trkpt>
      <trkpt lat="45.32809" lon="6.28038">
        <ele>608.9</ele>
        <time>2022-06-18T07:36:42Z</time>
      </trkpt>
      <trkpt lat="45.32804" lon="6.28033">
        <ele>609.5</ele>
        <time>2022-06-18T07:36:44Z</time>
      </trkpt>
      <trkpt lat="45.32801" lon="6.28029">
        <ele>610</ele>
        <time>2022-06-18T07:36:45Z</time>
      </trkpt>
      <trkpt lat="45.32798" lon="6.28025">
        <ele>610.4</ele>
        <time>2022-06-18T07:36:46Z</time>
      </trkpt>
      <trkpt lat="45.32795" lon="6.28022">
        <ele>610.8</ele>
        <time>2022-06-18T07:36:47Z</time>
      </trkpt>
      <trkpt lat="45.32791" lon="6.28017">
        <ele>611.4</ele>
        <time>2022-06-18T07:36:49Z</time>
      </trkpt>
      <trkpt lat="45.32787" lon="6.28012">
        <ele>612</ele>
        <time>2022-06-18T07:36:50Z</time>
      </trkpt>
      <trkpt lat="45.32784" lon="6.28008">
        <ele>612.5</ele>
        <time>2022-06-18T07:36:52Z</time>
      </trkpt>
      <trkpt lat="45.32781" lon="6.28005">
        <ele>612.8</ele>
        <time>2022-06-18T07:36:53Z</time>
      </trkpt>
      <trkpt lat="45.32778" lon="6.28001">
        <ele>613.3</ele>
        <time>2022-06-18T07:36:54Z</time>
      </trkpt>
      <trkpt lat="45.32775" lon="6.27999">
        <ele>613.7</ele>
        <time>2022-06-18T07:36:55Z</time>
      </trkpt>
      <trkpt lat="45.32772" lon="6.27996">
        <ele>614.1</ele>
        <time>2022-06-18T07:36:56Z</time>
      </trkpt>
      <trkpt lat="45.32768" lon="6.27993">
        <ele>614.6</ele>
        <time>2022-06-18T07:36:57Z</time>
      </trkpt>
      <trkpt lat="45.32765" lon="6.2799">
        <ele>615</ele>
        <time>2022-06-18T07:36:58Z</time>
      </trkpt>
      <trkpt lat="45.32762" lon="6.27988">
        <ele>615.3</ele>
        <time>2022-06-18T07:36:59Z</time>
      </trkpt>
      <trkpt lat="45.3276" lon="6.27985">
        <ele>615.7</ele>
        <time>2022-06-18T07:37:00Z</time>
      </trkpt>
      <trkpt lat="45.32757" lon="6.27983">
        <ele>616.1</ele>
        <time>2022-06-18T07:37:01Z</time>
      </trkpt>
      <trkpt lat="45.32754" lon="6.27981">
        <ele>616.4</ele>
        <time>2022-06-18T07:37:02Z</time>
      </trkpt>
      <trkpt lat="45.3275" lon="6.27979">
        <ele>616.9</ele>
        <time>2022-06-18T07:37:04Z</time>
      </trkpt>
      <trkpt lat="45.32747" lon="6.27976">
        <ele>617.3</ele>
        <time>2022-06-18T07:37:05Z</time>
      </trkpt>
      <trkpt lat="45.32743" lon="6.27972">
        <ele>617.8</ele>
        <time>2022-06-18T07:37:06Z</time>
      </trkpt>
      <trkpt lat="45.32739" lon="6.27969">
        <ele>618.3</ele>
        <time>2022-06-18T07:37:08Z</time>
      </trkpt>
      <trkpt lat="45.32735" lon="6.27966">
        <ele>618.7</ele>
        <time>2022-06-18T07:37:09Z</time>
      </trkpt>
      <trkpt lat="45.3273" lon="6.27962">
        <ele>619.3</ele>
        <time>2022-06-18T07:37:10Z</time>
      </trkpt>
      <trkpt lat="45.32726" lon="6.27959">
        <ele>620.2</ele>
        <time>2022-06-18T07:37:12Z</time>
      </trkpt>
      <trkpt lat="45.32723" lon="6.27956">
        <ele>620.9</ele>
        <time>2022-06-18T07:37:13Z</time>
      </trkpt>
      <trkpt lat="45.32719" lon="6.27952">
        <ele>621.9</ele>
        <time>2022-06-18T07:37:14Z</time>
      </trkpt>
      <trkpt lat="45.32716" lon="6.27949">
        <ele>622.7</ele>
        <time>2022-06-18T07:37:15Z</time>
      </trkpt>
      <trkpt lat="45.32713" lon="6.27947">
        <ele>623.3</ele>
        <time>2022-06-18T07:37:16Z</time>
      </trkpt>
      <trkpt lat="45.3271" lon="6.27944">
        <ele>623.9</ele>
        <time>2022-06-18T07:37:17Z</time>
      </trkpt>
      <trkpt lat="45.32707" lon="6.27941">
        <ele>624.6</ele>
        <time>2022-06-18T07:37:18Z</time>
      </trkpt>
      <trkpt lat="45.32703" lon="6.27938">
        <ele>625.5</ele>
        <time>2022-06-18T07:37:20Z</time>
      </trkpt>
      <trkpt lat="45.327" lon="6.27933">
        <ele>626.4</ele>
        <time>2022-06-18T07:37:21Z</time>
      </trkpt>
      <trkpt lat="45.32697" lon="6.27929">
        <ele>627.1</ele>
        <time>2022-06-18T07:37:22Z</time>
      </trkpt>
      <trkpt lat="45.32694" lon="6.27924">
        <ele>627.5</ele>
        <time>2022-06-18T07:37:23Z</time>
      </trkpt>
      <trkpt lat="45.32692" lon="6.27921">
        <ele>627.8</ele>
        <time>2022-06-18T07:37:24Z</time>
      </trkpt>
      <trkpt lat="45.32689" lon="6.27917">
        <ele>628.2</ele>
        <time>2022-06-18T07:37:25Z</time>
      </trkpt>
      <trkpt lat="45.32687" lon="6.27913">
        <ele>628.5</ele>
        <time>2022-06-18T07:37:26Z</time>
      </trkpt>
      <trkpt lat="45.32683" lon="6.27908">
        <ele>629</ele>
        <time>2022-06-18T07:37:28Z</time>
      </trkpt>
      <trkpt lat="45.3268" lon="6.27904">
        <ele>629.4</ele>
        <time>2022-06-18T07:37:29Z</time>
      </trkpt>
      <trkpt lat="45.32677" lon="6.279">
        <ele>629.8</ele>
        <time>2022-06-18T07:37:30Z</time>
      </trkpt>
      <trkpt lat="45.32673" lon="6.27897">
        <ele>630.2</ele>
        <time>2022-06-18T07:37:31Z</time>
      </trkpt>
      <trkpt lat="45.3267" lon="6.27894">
        <ele>630.5</ele>
        <time>2022-06-18T07:37:32Z</time>
      </trkpt>
      <trkpt lat="45.32667" lon="6.27892">
        <ele>630.8</ele>
        <time>2022-06-18T07:37:33Z</time>
      </trkpt>
      <trkpt lat="45.32664" lon="6.27889">
        <ele>631.2</ele>
        <time>2022-06-18T07:37:34Z</time>
      </trkpt>
      <trkpt lat="45.3266" lon="6.27886">
        <ele>631.6</ele>
        <time>2022-06-18T07:37:35Z</time>
      </trkpt>
      <trkpt lat="45.32656" lon="6.27883">
        <ele>632</ele>
        <time>2022-06-18T07:37:37Z</time>
      </trkpt>
      <trkpt lat="45.32652" lon="6.27881">
        <ele>632.4</ele>
        <time>2022-06-18T07:37:38Z</time>
      </trkpt>
      <trkpt lat="45.32648" lon="6.27879">
        <ele>632.8</ele>
        <time>2022-06-18T07:37:39Z</time>
      </trkpt>
      <trkpt lat="45.32644" lon="6.27878">
        <ele>633.2</ele>
        <time>2022-06-18T07:37:40Z</time>
      </trkpt>
      <trkpt lat="45.32641" lon="6.27877">
        <ele>633.5</ele>
        <time>2022-06-18T07:37:41Z</time>
      </trkpt>
      <trkpt lat="45.32638" lon="6.27877">
        <ele>633.8</ele>
        <time>2022-06-18T07:37:42Z</time>
      </trkpt>
      <trkpt lat="45.32635" lon="6.27876">
        <ele>634.1</ele>
        <time>2022-06-18T07:37:43Z</time>
      </trkpt>
      <trkpt lat="45.32632" lon="6.27875">
        <ele>634.4</ele>
        <time>2022-06-18T07:37:44Z</time>
      </trkpt>
      <trkpt lat="45.32629" lon="6.27875">
        <ele>634.7</ele>
        <time>2022-06-18T07:37:45Z</time>
      </trkpt>
      <trkpt lat="45.32626" lon="6.27875">
        <ele>635.1</ele>
        <time>2022-06-18T07:37:46Z</time>
      </trkpt>
      <trkpt lat="45.32624" lon="6.27875">
        <ele>635.2</ele>
        <time>2022-06-18T07:37:47Z</time>
      </trkpt>
      <trkpt lat="45.32621" lon="6.27875">
        <ele>635.6</ele>
        <time>2022-06-18T07:37:48Z</time>
      </trkpt>
      <trkpt lat="45.32617" lon="6.27875">
        <ele>636</ele>
        <time>2022-06-18T07:37:50Z</time>
      </trkpt>
      <trkpt lat="45.32612" lon="6.27874">
        <ele>636.7</ele>
        <time>2022-06-18T07:37:51Z</time>
      </trkpt>
      <trkpt lat="45.32609" lon="6.27874">
        <ele>637.1</ele>
        <time>2022-06-18T07:37:52Z</time>
      </trkpt>
      <trkpt lat="45.32605" lon="6.27873">
        <ele>637.6</ele>
        <time>2022-06-18T07:37:53Z</time>
      </trkpt>
      <trkpt lat="45.32602" lon="6.27873">
        <ele>638.1</ele>
        <time>2022-06-18T07:37:54Z</time>
      </trkpt>
      <trkpt lat="45.32597" lon="6.27873">
        <ele>638.7</ele>
        <time>2022-06-18T07:37:56Z</time>
      </trkpt>
      <trkpt lat="45.32593" lon="6.27874">
        <ele>639.3</ele>
        <time>2022-06-18T07:37:57Z</time>
      </trkpt>
      <trkpt lat="45.3259" lon="6.27875">
        <ele>639.8</ele>
        <time>2022-06-18T07:37:58Z</time>
      </trkpt>
      <trkpt lat="45.32586" lon="6.27877">
        <ele>640.3</ele>
        <time>2022-06-18T07:37:59Z</time>
      </trkpt>
      <trkpt lat="45.32582" lon="6.27878">
        <ele>640.8</ele>
        <time>2022-06-18T07:38:00Z</time>
      </trkpt>
      <trkpt lat="45.32578" lon="6.27879">
        <ele>641.3</ele>
        <time>2022-06-18T07:38:02Z</time>
      </trkpt>
      <trkpt lat="45.32575" lon="6.2788">
        <ele>641.6</ele>
        <time>2022-06-18T07:38:03Z</time>
      </trkpt>
      <trkpt lat="45.32571" lon="6.27881">
        <ele>641.9</ele>
        <time>2022-06-18T07:38:04Z</time>
      </trkpt>
      <trkpt lat="45.32567" lon="6.27881">
        <ele>642.2</ele>
        <time>2022-06-18T07:38:05Z</time>
      </trkpt>
      <trkpt lat="45.32562" lon="6.27878">
        <ele>642.5</ele>
        <time>2022-06-18T07:38:07Z</time>
      </trkpt>
      <trkpt lat="45.32559" lon="6.27874">
        <ele>642.7</ele>
        <time>2022-06-18T07:38:08Z</time>
      </trkpt>
      <trkpt lat="45.32556" lon="6.2787">
        <ele>642.8</ele>
        <time>2022-06-18T07:38:09Z</time>
      </trkpt>
      <trkpt lat="45.32554" lon="6.27866">
        <ele>642.9</ele>
        <time>2022-06-18T07:38:10Z</time>
      </trkpt>
      <trkpt lat="45.32553" lon="6.27861">
        <ele>643</ele>
        <time>2022-06-18T07:38:11Z</time>
      </trkpt>
      <trkpt lat="45.32552" lon="6.27855">
        <ele>643.1</ele>
        <time>2022-06-18T07:38:12Z</time>
      </trkpt>
      <trkpt lat="45.3255" lon="6.27849">
        <ele>643.2</ele>
        <time>2022-06-18T07:38:13Z</time>
      </trkpt>
      <trkpt lat="45.32549" lon="6.27844">
        <ele>643.3</ele>
        <time>2022-06-18T07:38:14Z</time>
      </trkpt>
      <trkpt lat="45.32548" lon="6.27838">
        <ele>643.4</ele>
        <time>2022-06-18T07:38:15Z</time>
      </trkpt>
      <trkpt lat="45.32547" lon="6.27832">
        <ele>643.5</ele>
        <time>2022-06-18T07:38:16Z</time>
      </trkpt>
      <trkpt lat="45.32546" lon="6.27826">
        <ele>643.7</ele>
        <time>2022-06-18T07:38:18Z</time>
      </trkpt>
      <trkpt lat="45.32546" lon="6.27821">
        <ele>643.9</ele>
        <time>2022-06-18T07:38:19Z</time>
      </trkpt>
      <trkpt lat="45.32546" lon="6.27816">
        <ele>644.1</ele>
        <time>2022-06-18T07:38:20Z</time>
      </trkpt>
      <trkpt lat="45.32547" lon="6.2781">
        <ele>644.3</ele>
        <time>2022-06-18T07:38:21Z</time>
      </trkpt>
      <trkpt lat="45.32547" lon="6.27805">
        <ele>644.5</ele>
        <time>2022-06-18T07:38:22Z</time>
      </trkpt>
      <trkpt lat="45.32548" lon="6.27801">
        <ele>644.6</ele>
        <time>2022-06-18T07:38:23Z</time>
      </trkpt>
      <trkpt lat="45.3255" lon="6.27797">
        <ele>644.8</ele>
        <time>2022-06-18T07:38:24Z</time>
      </trkpt>
      <trkpt lat="45.32552" lon="6.27792">
        <ele>645</ele>
        <time>2022-06-18T07:38:25Z</time>
      </trkpt>
      <trkpt lat="45.32554" lon="6.27787">
        <ele>645.3</ele>
        <time>2022-06-18T07:38:27Z</time>
      </trkpt>
      <trkpt lat="45.32556" lon="6.27782">
        <ele>645.5</ele>
        <time>2022-06-18T07:38:28Z</time>
      </trkpt>
      <trkpt lat="45.32557" lon="6.27777">
        <ele>645.7</ele>
        <time>2022-06-18T07:38:29Z</time>
      </trkpt>
      <trkpt lat="45.32558" lon="6.27772">
        <ele>645.8</ele>
        <time>2022-06-18T07:38:30Z</time>
      </trkpt>
      <trkpt lat="45.32558" lon="6.27766">
        <ele>646</ele>
        <time>2022-06-18T07:38:31Z</time>
      </trkpt>
      <trkpt lat="45.32558" lon="6.2776">
        <ele>646.2</ele>
        <time>2022-06-18T07:38:33Z</time>
      </trkpt>
      <trkpt lat="45.32557" lon="6.27755">
        <ele>646.4</ele>
        <time>2022-06-18T07:38:34Z</time>
      </trkpt>
      <trkpt lat="45.32557" lon="6.27749">
        <ele>646.6</ele>
        <time>2022-06-18T07:38:35Z</time>
      </trkpt>
      <trkpt lat="45.32556" lon="6.27742">
        <ele>646.8</ele>
        <time>2022-06-18T07:38:37Z</time>
      </trkpt>
      <trkpt lat="45.32556" lon="6.27735">
        <ele>647</ele>
        <time>2022-06-18T07:38:38Z</time>
      </trkpt>
      <trkpt lat="45.32555" lon="6.27727">
        <ele>647.2</ele>
        <time>2022-06-18T07:38:40Z</time>
      </trkpt>
      <trkpt lat="45.32554" lon="6.27722">
        <ele>647.4</ele>
        <time>2022-06-18T07:38:41Z</time>
      </trkpt>
      <trkpt lat="45.32554" lon="6.27718">
        <ele>647.5</ele>
        <time>2022-06-18T07:38:42Z</time>
      </trkpt>
      <trkpt lat="45.32553" lon="6.27712">
        <ele>647.6</ele>
        <time>2022-06-18T07:38:44Z</time>
      </trkpt>
      <trkpt lat="45.32552" lon="6.27707">
        <ele>647.8</ele>
        <time>2022-06-18T07:38:45Z</time>
      </trkpt>
      <trkpt lat="45.32551" lon="6.277">
        <ele>648</ele>
        <time>2022-06-18T07:38:46Z</time>
      </trkpt>
      <trkpt lat="45.32551" lon="6.27696">
        <ele>648.2</ele>
        <time>2022-06-18T07:38:47Z</time>
      </trkpt>
      <trkpt lat="45.32551" lon="6.27692">
        <ele>648.4</ele>
        <time>2022-06-18T07:38:48Z</time>
      </trkpt>
      <trkpt lat="45.3255" lon="6.27686">
        <ele>648.6</ele>
        <time>2022-06-18T07:38:49Z</time>
      </trkpt>
      <trkpt lat="45.32548" lon="6.27679">
        <ele>648.9</ele>
        <time>2022-06-18T07:38:50Z</time>
      </trkpt>
      <trkpt lat="45.32547" lon="6.27674">
        <ele>649.2</ele>
        <time>2022-06-18T07:38:51Z</time>
      </trkpt>
      <trkpt lat="45.32545" lon="6.27667">
        <ele>649.5</ele>
        <time>2022-06-18T07:38:53Z</time>
      </trkpt>
      <trkpt lat="45.32543" lon="6.2766">
        <ele>649.9</ele>
        <time>2022-06-18T07:38:54Z</time>
      </trkpt>
      <trkpt lat="45.32542" lon="6.27654">
        <ele>650.3</ele>
        <time>2022-06-18T07:38:56Z</time>
      </trkpt>
      <trkpt lat="45.3254" lon="6.27649">
        <ele>650.6</ele>
        <time>2022-06-18T07:38:57Z</time>
      </trkpt>
      <trkpt lat="45.32538" lon="6.27646">
        <ele>650.8</ele>
        <time>2022-06-18T07:38:58Z</time>
      </trkpt>
      <trkpt lat="45.32536" lon="6.27644">
        <ele>651</ele>
        <time>2022-06-18T07:38:59Z</time>
      </trkpt>
      <trkpt lat="45.32534" lon="6.27638">
        <ele>651.4</ele>
        <time>2022-06-18T07:39:01Z</time>
      </trkpt>
      <trkpt lat="45.32532" lon="6.27634">
        <ele>651.7</ele>
        <time>2022-06-18T07:39:02Z</time>
      </trkpt>
      <trkpt lat="45.32531" lon="6.27628">
        <ele>652.1</ele>
        <time>2022-06-18T07:39:03Z</time>
      </trkpt>
      <trkpt lat="45.3253" lon="6.27624">
        <ele>652.4</ele>
        <time>2022-06-18T07:39:04Z</time>
      </trkpt>
      <trkpt lat="45.32528" lon="6.27619">
        <ele>652.7</ele>
        <time>2022-06-18T07:39:05Z</time>
      </trkpt>
      <trkpt lat="45.32526" lon="6.27616">
        <ele>653</ele>
        <time>2022-06-18T07:39:06Z</time>
      </trkpt>
      <trkpt lat="45.32524" lon="6.27613">
        <ele>653.3</ele>
        <time>2022-06-18T07:39:07Z</time>
      </trkpt>
      <trkpt lat="45.32522" lon="6.27609">
        <ele>653.6</ele>
        <time>2022-06-18T07:39:08Z</time>
      </trkpt>
      <trkpt lat="45.3252" lon="6.27605">
        <ele>653.9</ele>
        <time>2022-06-18T07:39:09Z</time>
      </trkpt>
      <trkpt lat="45.32518" lon="6.27601">
        <ele>654.1</ele>
        <time>2022-06-18T07:39:10Z</time>
      </trkpt>
      <trkpt lat="45.32516" lon="6.27597">
        <ele>654.5</ele>
        <time>2022-06-18T07:39:11Z</time>
      </trkpt>
      <trkpt lat="45.32513" lon="6.27592">
        <ele>654.8</ele>
        <time>2022-06-18T07:39:12Z</time>
      </trkpt>
      <trkpt lat="45.32511" lon="6.27588">
        <ele>655.2</ele>
        <time>2022-06-18T07:39:14Z</time>
      </trkpt>
      <trkpt lat="45.32508" lon="6.27585">
        <ele>655.5</ele>
        <time>2022-06-18T07:39:15Z</time>
      </trkpt>
      <trkpt lat="45.32505" lon="6.27583">
        <ele>655.7</ele>
        <time>2022-06-18T07:39:16Z</time>
      </trkpt>
      <trkpt lat="45.32502" lon="6.27579">
        <ele>656</ele>
        <time>2022-06-18T07:39:17Z</time>
      </trkpt>
      <trkpt lat="45.32501" lon="6.27578">
        <ele>656.2</ele>
        <time>2022-06-18T07:39:18Z</time>
      </trkpt>
      <trkpt lat="45.32498" lon="6.27575">
        <ele>656.5</ele>
        <time>2022-06-18T07:39:19Z</time>
      </trkpt>
      <trkpt lat="45.32495" lon="6.27572">
        <ele>656.7</ele>
        <time>2022-06-18T07:39:21Z</time>
      </trkpt>
      <trkpt lat="45.32491" lon="6.27568">
        <ele>657</ele>
        <time>2022-06-18T07:39:22Z</time>
      </trkpt>
      <trkpt lat="45.32487" lon="6.27564">
        <ele>657.4</ele>
        <time>2022-06-18T07:39:23Z</time>
      </trkpt>
      <trkpt lat="45.32484" lon="6.27561">
        <ele>657.7</ele>
        <time>2022-06-18T07:39:25Z</time>
      </trkpt>
      <trkpt lat="45.32481" lon="6.27558">
        <ele>657.9</ele>
        <time>2022-06-18T07:39:26Z</time>
      </trkpt>
      <trkpt lat="45.32478" lon="6.27555">
        <ele>658.2</ele>
        <time>2022-06-18T07:39:27Z</time>
      </trkpt>
      <trkpt lat="45.32475" lon="6.27552">
        <ele>658.5</ele>
        <time>2022-06-18T07:39:28Z</time>
      </trkpt>
      <trkpt lat="45.32472" lon="6.2755">
        <ele>658.7</ele>
        <time>2022-06-18T07:39:30Z</time>
      </trkpt>
      <trkpt lat="45.32468" lon="6.27547">
        <ele>659</ele>
        <time>2022-06-18T07:39:31Z</time>
      </trkpt>
      <trkpt lat="45.32465" lon="6.27544">
        <ele>659.2</ele>
        <time>2022-06-18T07:39:32Z</time>
      </trkpt>
      <trkpt lat="45.32462" lon="6.27542">
        <ele>659.5</ele>
        <time>2022-06-18T07:39:33Z</time>
      </trkpt>
      <trkpt lat="45.32459" lon="6.2754">
        <ele>659.7</ele>
        <time>2022-06-18T07:39:34Z</time>
      </trkpt>
      <trkpt lat="45.32457" lon="6.27537">
        <ele>660</ele>
        <time>2022-06-18T07:39:35Z</time>
      </trkpt>
      <trkpt lat="45.32456" lon="6.27535">
        <ele>660.1</ele>
        <time>2022-06-18T07:39:36Z</time>
      </trkpt>
      <trkpt lat="45.32454" lon="6.27533">
        <ele>660.2</ele>
        <time>2022-06-18T07:39:37Z</time>
      </trkpt>
      <trkpt lat="45.32452" lon="6.27529">
        <ele>660.6</ele>
        <time>2022-06-18T07:39:39Z</time>
      </trkpt>
      <trkpt lat="45.3245" lon="6.27527">
        <ele>660.7</ele>
        <time>2022-06-18T07:39:40Z</time>
      </trkpt>
      <trkpt lat="45.32447" lon="6.27522">
        <ele>661.1</ele>
        <time>2022-06-18T07:39:42Z</time>
      </trkpt>
      <trkpt lat="45.32445" lon="6.27519">
        <ele>661.3</ele>
        <time>2022-06-18T07:39:43Z</time>
      </trkpt>
      <trkpt lat="45.32443" lon="6.27516">
        <ele>661.6</ele>
        <time>2022-06-18T07:39:44Z</time>
      </trkpt>
      <trkpt lat="45.32442" lon="6.27514">
        <ele>661.7</ele>
        <time>2022-06-18T07:39:45Z</time>
      </trkpt>
      <trkpt lat="45.32437" lon="6.27508">
        <ele>662.3</ele>
        <time>2022-06-18T07:39:47Z</time>
      </trkpt>
      <trkpt lat="45.3243" lon="6.27503">
        <ele>662.9</ele>
        <time>2022-06-18T07:39:48Z</time>
      </trkpt>
      <trkpt lat="45.32425" lon="6.27499">
        <ele>663.5</ele>
        <time>2022-06-18T07:39:50Z</time>
      </trkpt>
      <trkpt lat="45.3242" lon="6.27494">
        <ele>664</ele>
        <time>2022-06-18T07:39:51Z</time>
      </trkpt>
      <trkpt lat="45.32417" lon="6.27491">
        <ele>664.3</ele>
        <time>2022-06-18T07:39:52Z</time>
      </trkpt>
      <trkpt lat="45.32414" lon="6.27489">
        <ele>664.6</ele>
        <time>2022-06-18T07:39:53Z</time>
      </trkpt>
      <trkpt lat="45.32412" lon="6.27487">
        <ele>664.9</ele>
        <time>2022-06-18T07:39:54Z</time>
      </trkpt>
      <trkpt lat="45.32409" lon="6.27482">
        <ele>665.3</ele>
        <time>2022-06-18T07:39:56Z</time>
      </trkpt>
      <trkpt lat="45.32406" lon="6.27477">
        <ele>665.7</ele>
        <time>2022-06-18T07:39:57Z</time>
      </trkpt>
      <trkpt lat="45.32403" lon="6.27472">
        <ele>666.2</ele>
        <time>2022-06-18T07:39:59Z</time>
      </trkpt>
      <trkpt lat="45.324" lon="6.27466">
        <ele>666.6</ele>
        <time>2022-06-18T07:40:00Z</time>
      </trkpt>
      <trkpt lat="45.32398" lon="6.27461">
        <ele>667</ele>
        <time>2022-06-18T07:40:01Z</time>
      </trkpt>
      <trkpt lat="45.32396" lon="6.27456">
        <ele>667.4</ele>
        <time>2022-06-18T07:40:03Z</time>
      </trkpt>
      <trkpt lat="45.32393" lon="6.27451">
        <ele>667.8</ele>
        <time>2022-06-18T07:40:04Z</time>
      </trkpt>
      <trkpt lat="45.32391" lon="6.27446">
        <ele>668.2</ele>
        <time>2022-06-18T07:40:05Z</time>
      </trkpt>
      <trkpt lat="45.32388" lon="6.27442">
        <ele>668.6</ele>
        <time>2022-06-18T07:40:06Z</time>
      </trkpt>
      <trkpt lat="45.32385" lon="6.27437">
        <ele>669</ele>
        <time>2022-06-18T07:40:08Z</time>
      </trkpt>
      <trkpt lat="45.32381" lon="6.27433">
        <ele>669.5</ele>
        <time>2022-06-18T07:40:09Z</time>
      </trkpt>
      <trkpt lat="45.32378" lon="6.27428">
        <ele>669.9</ele>
        <time>2022-06-18T07:40:11Z</time>
      </trkpt>
      <trkpt lat="45.32374" lon="6.27422">
        <ele>670.3</ele>
        <time>2022-06-18T07:40:12Z</time>
      </trkpt>
      <trkpt lat="45.32372" lon="6.27419">
        <ele>670.6</ele>
        <time>2022-06-18T07:40:13Z</time>
      </trkpt>
      <trkpt lat="45.32369" lon="6.27415">
        <ele>671</ele>
        <time>2022-06-18T07:40:15Z</time>
      </trkpt>
      <trkpt lat="45.32366" lon="6.2741">
        <ele>671.4</ele>
        <time>2022-06-18T07:40:16Z</time>
      </trkpt>
      <trkpt lat="45.32363" lon="6.27408">
        <ele>671.6</ele>
        <time>2022-06-18T07:40:17Z</time>
      </trkpt>
      <trkpt lat="45.32361" lon="6.27406">
        <ele>671.9</ele>
        <time>2022-06-18T07:40:18Z</time>
      </trkpt>
      <trkpt lat="45.32356" lon="6.27403">
        <ele>672.3</ele>
        <time>2022-06-18T07:40:20Z</time>
      </trkpt>
      <trkpt lat="45.32352" lon="6.27402">
        <ele>672.6</ele>
        <time>2022-06-18T07:40:21Z</time>
      </trkpt>
      <trkpt lat="45.32348" lon="6.274">
        <ele>672.9</ele>
        <time>2022-06-18T07:40:22Z</time>
      </trkpt>
      <trkpt lat="45.32344" lon="6.27399">
        <ele>673.2</ele>
        <time>2022-06-18T07:40:23Z</time>
      </trkpt>
      <trkpt lat="45.32341" lon="6.27398">
        <ele>673.5</ele>
        <time>2022-06-18T07:40:24Z</time>
      </trkpt>
      <trkpt lat="45.32337" lon="6.27398">
        <ele>673.8</ele>
        <time>2022-06-18T07:40:25Z</time>
      </trkpt>
      <trkpt lat="45.32334" lon="6.27399">
        <ele>674</ele>
        <time>2022-06-18T07:40:26Z</time>
      </trkpt>
      <trkpt lat="45.32329" lon="6.27399">
        <ele>674.4</ele>
        <time>2022-06-18T07:40:28Z</time>
      </trkpt>
      <trkpt lat="45.32325" lon="6.27399">
        <ele>674.8</ele>
        <time>2022-06-18T07:40:29Z</time>
      </trkpt>
      <trkpt lat="45.32322" lon="6.27398">
        <ele>675.1</ele>
        <time>2022-06-18T07:40:30Z</time>
      </trkpt>
      <trkpt lat="45.32318" lon="6.27398">
        <ele>675.4</ele>
        <time>2022-06-18T07:40:31Z</time>
      </trkpt>
      <trkpt lat="45.32314" lon="6.27398">
        <ele>675.7</ele>
        <time>2022-06-18T07:40:32Z</time>
      </trkpt>
      <trkpt lat="45.3231" lon="6.27398">
        <ele>676</ele>
        <time>2022-06-18T07:40:33Z</time>
      </trkpt>
      <trkpt lat="45.32306" lon="6.27397">
        <ele>676.4</ele>
        <time>2022-06-18T07:40:35Z</time>
      </trkpt>
      <trkpt lat="45.32302" lon="6.27398">
        <ele>676.7</ele>
        <time>2022-06-18T07:40:36Z</time>
      </trkpt>
      <trkpt lat="45.32297" lon="6.27397">
        <ele>677.1</ele>
        <time>2022-06-18T07:40:37Z</time>
      </trkpt>
      <trkpt lat="45.32292" lon="6.27396">
        <ele>677.5</ele>
        <time>2022-06-18T07:40:39Z</time>
      </trkpt>
      <trkpt lat="45.32287" lon="6.27395">
        <ele>677.8</ele>
        <time>2022-06-18T07:40:40Z</time>
      </trkpt>
      <trkpt lat="45.32282" lon="6.27392">
        <ele>678.1</ele>
        <time>2022-06-18T07:40:42Z</time>
      </trkpt>
      <trkpt lat="45.32277" lon="6.27388">
        <ele>678.4</ele>
        <time>2022-06-18T07:40:43Z</time>
      </trkpt>
      <trkpt lat="45.32273" lon="6.27383">
        <ele>678.6</ele>
        <time>2022-06-18T07:40:45Z</time>
      </trkpt>
      <trkpt lat="45.3227" lon="6.27378">
        <ele>678.8</ele>
        <time>2022-06-18T07:40:46Z</time>
      </trkpt>
      <trkpt lat="45.32266" lon="6.27373">
        <ele>679</ele>
        <time>2022-06-18T07:40:47Z</time>
      </trkpt>
      <trkpt lat="45.32263" lon="6.27369">
        <ele>679.2</ele>
        <time>2022-06-18T07:40:48Z</time>
      </trkpt>
      <trkpt lat="45.32261" lon="6.27366">
        <ele>679.4</ele>
        <time>2022-06-18T07:40:49Z</time>
      </trkpt>
      <trkpt lat="45.32257" lon="6.27364">
        <ele>679.6</ele>
        <time>2022-06-18T07:40:50Z</time>
      </trkpt>
      <trkpt lat="45.32254" lon="6.27361">
        <ele>679.8</ele>
        <time>2022-06-18T07:40:51Z</time>
      </trkpt>
      <trkpt lat="45.3225" lon="6.27358">
        <ele>680</ele>
        <time>2022-06-18T07:40:52Z</time>
      </trkpt>
      <trkpt lat="45.32246" lon="6.27355">
        <ele>680.1</ele>
        <time>2022-06-18T07:40:53Z</time>
      </trkpt>
      <trkpt lat="45.32243" lon="6.27353">
        <ele>680.1</ele>
        <time>2022-06-18T07:40:54Z</time>
      </trkpt>
      <trkpt lat="45.32239" lon="6.27349">
        <ele>680.2</ele>
        <time>2022-06-18T07:40:56Z</time>
      </trkpt>
      <trkpt lat="45.32234" lon="6.27344">
        <ele>680.3</ele>
        <time>2022-06-18T07:40:57Z</time>
      </trkpt>
      <trkpt lat="45.32231" lon="6.27341">
        <ele>680.4</ele>
        <time>2022-06-18T07:40:58Z</time>
      </trkpt>
      <trkpt lat="45.32227" lon="6.27337">
        <ele>680.4</ele>
        <time>2022-06-18T07:41:00Z</time>
      </trkpt>
      <trkpt lat="45.32223" lon="6.27333">
        <ele>678.6</ele>
        <time>2022-06-18T07:41:01Z</time>
      </trkpt>
      <trkpt lat="45.3222" lon="6.27329">
        <ele>678.3</ele>
        <time>2022-06-18T07:41:03Z</time>
      </trkpt>
      <trkpt lat="45.32216" lon="6.27326">
        <ele>678.6</ele>
        <time>2022-06-18T07:41:04Z</time>
      </trkpt>
      <trkpt lat="45.32213" lon="6.27324">
        <ele>678.9</ele>
        <time>2022-06-18T07:41:05Z</time>
      </trkpt>
      <trkpt lat="45.32209" lon="6.2732">
        <ele>679.3</ele>
        <time>2022-06-18T07:41:06Z</time>
      </trkpt>
      <trkpt lat="45.32207" lon="6.27318">
        <ele>679.6</ele>
        <time>2022-06-18T07:41:07Z</time>
      </trkpt>
      <trkpt lat="45.32204" lon="6.27314">
        <ele>679.9</ele>
        <time>2022-06-18T07:41:08Z</time>
      </trkpt>
      <trkpt lat="45.32202" lon="6.2731">
        <ele>680.2</ele>
        <time>2022-06-18T07:41:09Z</time>
      </trkpt>
      <trkpt lat="45.32199" lon="6.27302">
        <ele>680.8</ele>
        <time>2022-06-18T07:41:11Z</time>
      </trkpt>
      <trkpt lat="45.32198" lon="6.27296">
        <ele>681.1</ele>
        <time>2022-06-18T07:41:13Z</time>
      </trkpt>
      <trkpt lat="45.32195" lon="6.27283">
        <ele>681.8</ele>
        <time>2022-06-18T07:41:15Z</time>
      </trkpt>
      <trkpt lat="45.32195" lon="6.27278">
        <ele>682.1</ele>
        <time>2022-06-18T07:41:16Z</time>
      </trkpt>
      <trkpt lat="45.32194" lon="6.27274">
        <ele>682.4</ele>
        <time>2022-06-18T07:41:17Z</time>
      </trkpt>
      <trkpt lat="45.32193" lon="6.27269">
        <ele>682.6</ele>
        <time>2022-06-18T07:41:18Z</time>
      </trkpt>
      <trkpt lat="45.32191" lon="6.27262">
        <ele>683</ele>
        <time>2022-06-18T07:41:19Z</time>
      </trkpt>
      <trkpt lat="45.3219" lon="6.27257">
        <ele>683.4</ele>
        <time>2022-06-18T07:41:20Z</time>
      </trkpt>
      <trkpt lat="45.32188" lon="6.27253">
        <ele>683.6</ele>
        <time>2022-06-18T07:41:21Z</time>
      </trkpt>
      <trkpt lat="45.32186" lon="6.27246">
        <ele>684.1</ele>
        <time>2022-06-18T07:41:22Z</time>
      </trkpt>
      <trkpt lat="45.32185" lon="6.27242">
        <ele>684.4</ele>
        <time>2022-06-18T07:41:23Z</time>
      </trkpt>
      <trkpt lat="45.32182" lon="6.27237">
        <ele>684.8</ele>
        <time>2022-06-18T07:41:24Z</time>
      </trkpt>
      <trkpt lat="45.32181" lon="6.27233">
        <ele>685.1</ele>
        <time>2022-06-18T07:41:25Z</time>
      </trkpt>
      <trkpt lat="45.32179" lon="6.27229">
        <ele>685.4</ele>
        <time>2022-06-18T07:41:26Z</time>
      </trkpt>
      <trkpt lat="45.32177" lon="6.27224">
        <ele>685.7</ele>
        <time>2022-06-18T07:41:28Z</time>
      </trkpt>
      <trkpt lat="45.32175" lon="6.27217">
        <ele>686.1</ele>
        <time>2022-06-18T07:41:29Z</time>
      </trkpt>
      <trkpt lat="45.32173" lon="6.27214">
        <ele>686.4</ele>
        <time>2022-06-18T07:41:30Z</time>
      </trkpt>
      <trkpt lat="45.3217" lon="6.27209">
        <ele>686.8</ele>
        <time>2022-06-18T07:41:32Z</time>
      </trkpt>
      <trkpt lat="45.32168" lon="6.27204">
        <ele>687.1</ele>
        <time>2022-06-18T07:41:33Z</time>
      </trkpt>
      <trkpt lat="45.32165" lon="6.272">
        <ele>687.5</ele>
        <time>2022-06-18T07:41:35Z</time>
      </trkpt>
      <trkpt lat="45.32163" lon="6.27197">
        <ele>687.7</ele>
        <time>2022-06-18T07:41:36Z</time>
      </trkpt>
      <trkpt lat="45.3216" lon="6.27193">
        <ele>688.1</ele>
        <time>2022-06-18T07:41:37Z</time>
      </trkpt>
      <trkpt lat="45.32157" lon="6.2719">
        <ele>688.4</ele>
        <time>2022-06-18T07:41:38Z</time>
      </trkpt>
      <trkpt lat="45.32154" lon="6.27188">
        <ele>688.8</ele>
        <time>2022-06-18T07:41:40Z</time>
      </trkpt>
      <trkpt lat="45.3215" lon="6.27186">
        <ele>689.2</ele>
        <time>2022-06-18T07:41:41Z</time>
      </trkpt>
      <trkpt lat="45.32145" lon="6.27185">
        <ele>689.7</ele>
        <time>2022-06-18T07:41:42Z</time>
      </trkpt>
      <trkpt lat="45.32142" lon="6.27184">
        <ele>690</ele>
        <time>2022-06-18T07:41:43Z</time>
      </trkpt>
      <trkpt lat="45.32136" lon="6.27185">
        <ele>690.6</ele>
        <time>2022-06-18T07:41:45Z</time>
      </trkpt>
      <trkpt lat="45.32133" lon="6.27185">
        <ele>690.9</ele>
        <time>2022-06-18T07:41:46Z</time>
      </trkpt>
      <trkpt lat="45.3213" lon="6.27184">
        <ele>691.2</ele>
        <time>2022-06-18T07:41:47Z</time>
      </trkpt>
      <trkpt lat="45.32128" lon="6.27183">
        <ele>691.4</ele>
        <time>2022-06-18T07:41:48Z</time>
      </trkpt>
      <trkpt lat="45.32126" lon="6.27182">
        <ele>691.6</ele>
        <time>2022-06-18T07:41:50Z</time>
      </trkpt>
      <trkpt lat="45.32122" lon="6.2718">
        <ele>692</ele>
        <time>2022-06-18T07:41:51Z</time>
      </trkpt>
      <trkpt lat="45.3212" lon="6.27179">
        <ele>692.2</ele>
        <time>2022-06-18T07:41:52Z</time>
      </trkpt>
      <trkpt lat="45.32117" lon="6.27178">
        <ele>692.5</ele>
        <time>2022-06-18T07:41:54Z</time>
      </trkpt>
      <trkpt lat="45.32114" lon="6.27177">
        <ele>692.8</ele>
        <time>2022-06-18T07:41:55Z</time>
      </trkpt>
      <trkpt lat="45.32109" lon="6.27175">
        <ele>693.3</ele>
        <time>2022-06-18T07:41:56Z</time>
      </trkpt>
      <trkpt lat="45.32104" lon="6.27171">
        <ele>693.9</ele>
        <time>2022-06-18T07:41:58Z</time>
      </trkpt>
      <trkpt lat="45.321" lon="6.27168">
        <ele>694.3</ele>
        <time>2022-06-18T07:41:59Z</time>
      </trkpt>
      <trkpt lat="45.32096" lon="6.27165">
        <ele>694.8</ele>
        <time>2022-06-18T07:42:00Z</time>
      </trkpt>
      <trkpt lat="45.32092" lon="6.27161">
        <ele>695.4</ele>
        <time>2022-06-18T07:42:02Z</time>
      </trkpt>
      <trkpt lat="45.32087" lon="6.27157">
        <ele>696</ele>
        <time>2022-06-18T07:42:03Z</time>
      </trkpt>
      <trkpt lat="45.32083" lon="6.27155">
        <ele>696.4</ele>
        <time>2022-06-18T07:42:04Z</time>
      </trkpt>
      <trkpt lat="45.32077" lon="6.27153">
        <ele>697.1</ele>
        <time>2022-06-18T07:42:06Z</time>
      </trkpt>
      <trkpt lat="45.32074" lon="6.27152">
        <ele>697.4</ele>
        <time>2022-06-18T07:42:07Z</time>
      </trkpt>
      <trkpt lat="45.32071" lon="6.27151">
        <ele>697.7</ele>
        <time>2022-06-18T07:42:08Z</time>
      </trkpt>
      <trkpt lat="45.32067" lon="6.27149">
        <ele>698.1</ele>
        <time>2022-06-18T07:42:10Z</time>
      </trkpt>
      <trkpt lat="45.32063" lon="6.27148">
        <ele>698.5</ele>
        <time>2022-06-18T07:42:11Z</time>
      </trkpt>
      <trkpt lat="45.32059" lon="6.27147">
        <ele>699</ele>
        <time>2022-06-18T07:42:12Z</time>
      </trkpt>
      <trkpt lat="45.32054" lon="6.27146">
        <ele>699.4</ele>
        <time>2022-06-18T07:42:14Z</time>
      </trkpt>
      <trkpt lat="45.32049" lon="6.27144">
        <ele>700</ele>
        <time>2022-06-18T07:42:15Z</time>
      </trkpt>
      <trkpt lat="45.32045" lon="6.27143">
        <ele>700.4</ele>
        <time>2022-06-18T07:42:16Z</time>
      </trkpt>
      <trkpt lat="45.32043" lon="6.27142">
        <ele>700.7</ele>
        <time>2022-06-18T07:42:17Z</time>
      </trkpt>
      <trkpt lat="45.32038" lon="6.27141">
        <ele>701.1</ele>
        <time>2022-06-18T07:42:19Z</time>
      </trkpt>
      <trkpt lat="45.32034" lon="6.27139">
        <ele>701.5</ele>
        <time>2022-06-18T07:42:20Z</time>
      </trkpt>
      <trkpt lat="45.32029" lon="6.27138">
        <ele>701.9</ele>
        <time>2022-06-18T07:42:22Z</time>
      </trkpt>
      <trkpt lat="45.32024" lon="6.27135">
        <ele>702.4</ele>
        <time>2022-06-18T07:42:23Z</time>
      </trkpt>
      <trkpt lat="45.32021" lon="6.27133">
        <ele>702.8</ele>
        <time>2022-06-18T07:42:24Z</time>
      </trkpt>
      <trkpt lat="45.32017" lon="6.2713">
        <ele>703.1</ele>
        <time>2022-06-18T07:42:26Z</time>
      </trkpt>
      <trkpt lat="45.32014" lon="6.27129">
        <ele>703.5</ele>
        <time>2022-06-18T07:42:27Z</time>
      </trkpt>
      <trkpt lat="45.3201" lon="6.27127">
        <ele>703.8</ele>
        <time>2022-06-18T07:42:28Z</time>
      </trkpt>
      <trkpt lat="45.32006" lon="6.27124">
        <ele>704.2</ele>
        <time>2022-06-18T07:42:29Z</time>
      </trkpt>
      <trkpt lat="45.32002" lon="6.2712">
        <ele>704.6</ele>
        <time>2022-06-18T07:42:31Z</time>
      </trkpt>
      <trkpt lat="45.31999" lon="6.27118">
        <ele>704.9</ele>
        <time>2022-06-18T07:42:32Z</time>
      </trkpt>
      <trkpt lat="45.31996" lon="6.27115">
        <ele>705.3</ele>
        <time>2022-06-18T07:42:33Z</time>
      </trkpt>
      <trkpt lat="45.31992" lon="6.2711">
        <ele>705.7</ele>
        <time>2022-06-18T07:42:35Z</time>
      </trkpt>
      <trkpt lat="45.31987" lon="6.27106">
        <ele>706.3</ele>
        <time>2022-06-18T07:42:36Z</time>
      </trkpt>
      <trkpt lat="45.31983" lon="6.27102">
        <ele>706.7</ele>
        <time>2022-06-18T07:42:38Z</time>
      </trkpt>
      <trkpt lat="45.31979" lon="6.27098">
        <ele>707.2</ele>
        <time>2022-06-18T07:42:39Z</time>
      </trkpt>
      <trkpt lat="45.31975" lon="6.27094">
        <ele>707.7</ele>
        <time>2022-06-18T07:42:40Z</time>
      </trkpt>
      <trkpt lat="45.31972" lon="6.27092">
        <ele>708</ele>
        <time>2022-06-18T07:42:41Z</time>
      </trkpt>
      <trkpt lat="45.31969" lon="6.27089">
        <ele>708.4</ele>
        <time>2022-06-18T07:42:42Z</time>
      </trkpt>
      <trkpt lat="45.31966" lon="6.27086">
        <ele>708.8</ele>
        <time>2022-06-18T07:42:43Z</time>
      </trkpt>
      <trkpt lat="45.31962" lon="6.27083">
        <ele>709.3</ele>
        <time>2022-06-18T07:42:44Z</time>
      </trkpt>
      <trkpt lat="45.31958" lon="6.2708">
        <ele>709.7</ele>
        <time>2022-06-18T07:42:46Z</time>
      </trkpt>
      <trkpt lat="45.31956" lon="6.27078">
        <ele>710</ele>
        <time>2022-06-18T07:42:47Z</time>
      </trkpt>
      <trkpt lat="45.31953" lon="6.27075">
        <ele>710.3</ele>
        <time>2022-06-18T07:42:48Z</time>
      </trkpt>
      <trkpt lat="45.31949" lon="6.27072">
        <ele>710.7</ele>
        <time>2022-06-18T07:42:49Z</time>
      </trkpt>
      <trkpt lat="45.31946" lon="6.27069">
        <ele>711.1</ele>
        <time>2022-06-18T07:42:50Z</time>
      </trkpt>
      <trkpt lat="45.31943" lon="6.27067">
        <ele>711.4</ele>
        <time>2022-06-18T07:42:51Z</time>
      </trkpt>
      <trkpt lat="45.3194" lon="6.27064">
        <ele>711.7</ele>
        <time>2022-06-18T07:42:52Z</time>
      </trkpt>
      <trkpt lat="45.31937" lon="6.27062">
        <ele>712</ele>
        <time>2022-06-18T07:42:53Z</time>
      </trkpt>
      <trkpt lat="45.31934" lon="6.27058">
        <ele>712.3</ele>
        <time>2022-06-18T07:42:54Z</time>
      </trkpt>
      <trkpt lat="45.31931" lon="6.27051">
        <ele>712.8</ele>
        <time>2022-06-18T07:42:56Z</time>
      </trkpt>
      <trkpt lat="45.31928" lon="6.27046">
        <ele>713.1</ele>
        <time>2022-06-18T07:42:57Z</time>
      </trkpt>
      <trkpt lat="45.31925" lon="6.27039">
        <ele>713.6</ele>
        <time>2022-06-18T07:42:58Z</time>
      </trkpt>
      <trkpt lat="45.31922" lon="6.27031">
        <ele>714</ele>
        <time>2022-06-18T07:43:00Z</time>
      </trkpt>
      <trkpt lat="45.3192" lon="6.27026">
        <ele>714.3</ele>
        <time>2022-06-18T07:43:01Z</time>
      </trkpt>
      <trkpt lat="45.31918" lon="6.2702">
        <ele>714.7</ele>
        <time>2022-06-18T07:43:02Z</time>
      </trkpt>
      <trkpt lat="45.31915" lon="6.27016">
        <ele>715</ele>
        <time>2022-06-18T07:43:03Z</time>
      </trkpt>
      <trkpt lat="45.31913" lon="6.27011">
        <ele>715.4</ele>
        <time>2022-06-18T07:43:04Z</time>
      </trkpt>
      <trkpt lat="45.31911" lon="6.27007">
        <ele>715.7</ele>
        <time>2022-06-18T07:43:05Z</time>
      </trkpt>
      <trkpt lat="45.31908" lon="6.27002">
        <ele>716.1</ele>
        <time>2022-06-18T07:43:07Z</time>
      </trkpt>
      <trkpt lat="45.31904" lon="6.26997">
        <ele>716.6</ele>
        <time>2022-06-18T07:43:08Z</time>
      </trkpt>
      <trkpt lat="45.319" lon="6.26993">
        <ele>717</ele>
        <time>2022-06-18T07:43:09Z</time>
      </trkpt>
      <trkpt lat="45.31897" lon="6.26989">
        <ele>717.4</ele>
        <time>2022-06-18T07:43:10Z</time>
      </trkpt>
      <trkpt lat="45.31894" lon="6.26985">
        <ele>717.8</ele>
        <time>2022-06-18T07:43:11Z</time>
      </trkpt>
      <trkpt lat="45.31891" lon="6.26982">
        <ele>718.2</ele>
        <time>2022-06-18T07:43:12Z</time>
      </trkpt>
      <trkpt lat="45.31888" lon="6.26979">
        <ele>718.5</ele>
        <time>2022-06-18T07:43:13Z</time>
      </trkpt>
      <trkpt lat="45.31886" lon="6.26977">
        <ele>718.7</ele>
        <time>2022-06-18T07:43:14Z</time>
      </trkpt>
      <trkpt lat="45.31882" lon="6.26973">
        <ele>719.2</ele>
        <time>2022-06-18T07:43:16Z</time>
      </trkpt>
      <trkpt lat="45.31878" lon="6.2697">
        <ele>719.6</ele>
        <time>2022-06-18T07:43:17Z</time>
      </trkpt>
      <trkpt lat="45.31876" lon="6.26969">
        <ele>719.8</ele>
        <time>2022-06-18T07:43:18Z</time>
      </trkpt>
      <trkpt lat="45.31873" lon="6.26967">
        <ele>720.1</ele>
        <time>2022-06-18T07:43:19Z</time>
      </trkpt>
      <trkpt lat="45.31869" lon="6.26965">
        <ele>720.5</ele>
        <time>2022-06-18T07:43:21Z</time>
      </trkpt>
      <trkpt lat="45.31866" lon="6.26964">
        <ele>720.8</ele>
        <time>2022-06-18T07:43:22Z</time>
      </trkpt>
      <trkpt lat="45.31862" lon="6.26961">
        <ele>721.1</ele>
        <time>2022-06-18T07:43:23Z</time>
      </trkpt>
      <trkpt lat="45.31859" lon="6.26958">
        <ele>721.5</ele>
        <time>2022-06-18T07:43:24Z</time>
      </trkpt>
      <trkpt lat="45.31855" lon="6.26956">
        <ele>721.9</ele>
        <time>2022-06-18T07:43:26Z</time>
      </trkpt>
      <trkpt lat="45.31851" lon="6.26954">
        <ele>722.3</ele>
        <time>2022-06-18T07:43:27Z</time>
      </trkpt>
      <trkpt lat="45.31848" lon="6.26952">
        <ele>722.6</ele>
        <time>2022-06-18T07:43:28Z</time>
      </trkpt>
      <trkpt lat="45.31845" lon="6.2695">
        <ele>723</ele>
        <time>2022-06-18T07:43:29Z</time>
      </trkpt>
      <trkpt lat="45.31842" lon="6.26948">
        <ele>723.3</ele>
        <time>2022-06-18T07:43:30Z</time>
      </trkpt>
      <trkpt lat="45.31837" lon="6.26948">
        <ele>723.8</ele>
        <time>2022-06-18T07:43:31Z</time>
      </trkpt>
      <trkpt lat="45.31834" lon="6.26947">
        <ele>724.1</ele>
        <time>2022-06-18T07:43:32Z</time>
      </trkpt>
      <trkpt lat="45.3183" lon="6.26945">
        <ele>724.6</ele>
        <time>2022-06-18T07:43:34Z</time>
      </trkpt>
      <trkpt lat="45.31825" lon="6.26943">
        <ele>725.1</ele>
        <time>2022-06-18T07:43:35Z</time>
      </trkpt>
      <trkpt lat="45.31821" lon="6.26942">
        <ele>725.6</ele>
        <time>2022-06-18T07:43:36Z</time>
      </trkpt>
      <trkpt lat="45.31816" lon="6.26941">
        <ele>726.1</ele>
        <time>2022-06-18T07:43:38Z</time>
      </trkpt>
      <trkpt lat="45.31811" lon="6.26939">
        <ele>726.6</ele>
        <time>2022-06-18T07:43:39Z</time>
      </trkpt>
      <trkpt lat="45.31807" lon="6.26938">
        <ele>727</ele>
        <time>2022-06-18T07:43:40Z</time>
      </trkpt>
      <trkpt lat="45.31804" lon="6.26935">
        <ele>727.3</ele>
        <time>2022-06-18T07:43:41Z</time>
      </trkpt>
      <trkpt lat="45.318" lon="6.26932">
        <ele>727.6</ele>
        <time>2022-06-18T07:43:42Z</time>
      </trkpt>
      <trkpt lat="45.31798" lon="6.26929">
        <ele>727.9</ele>
        <time>2022-06-18T07:43:43Z</time>
      </trkpt>
      <trkpt lat="45.31795" lon="6.26925">
        <ele>728.1</ele>
        <time>2022-06-18T07:43:44Z</time>
      </trkpt>
      <trkpt lat="45.31793" lon="6.26918">
        <ele>728.4</ele>
        <time>2022-06-18T07:43:46Z</time>
      </trkpt>
      <trkpt lat="45.31791" lon="6.2691">
        <ele>728.6</ele>
        <time>2022-06-18T07:43:47Z</time>
      </trkpt>
      <trkpt lat="45.31789" lon="6.26903">
        <ele>728.8</ele>
        <time>2022-06-18T07:43:48Z</time>
      </trkpt>
      <trkpt lat="45.31787" lon="6.26896">
        <ele>728.9</ele>
        <time>2022-06-18T07:43:50Z</time>
      </trkpt>
      <trkpt lat="45.31785" lon="6.26891">
        <ele>728.9</ele>
        <time>2022-06-18T07:43:51Z</time>
      </trkpt>
      <trkpt lat="45.31782" lon="6.26887">
        <ele>729</ele>
        <time>2022-06-18T07:43:52Z</time>
      </trkpt>
      <trkpt lat="45.31778" lon="6.26882">
        <ele>729</ele>
        <time>2022-06-18T07:43:53Z</time>
      </trkpt>
      <trkpt lat="45.31773" lon="6.26876">
        <ele>729</ele>
        <time>2022-06-18T07:43:55Z</time>
      </trkpt>
      <trkpt lat="45.31769" lon="6.26872">
        <ele>729</ele>
        <time>2022-06-18T07:43:56Z</time>
      </trkpt>
      <trkpt lat="45.31765" lon="6.26867">
        <ele>729</ele>
        <time>2022-06-18T07:43:57Z</time>
      </trkpt>
      <trkpt lat="45.31761" lon="6.26861">
        <ele>729.1</ele>
        <time>2022-06-18T07:43:59Z</time>
      </trkpt>
      <trkpt lat="45.31757" lon="6.26855">
        <ele>729.1</ele>
        <time>2022-06-18T07:44:00Z</time>
      </trkpt>
      <trkpt lat="45.31754" lon="6.2685">
        <ele>729.2</ele>
        <time>2022-06-18T07:44:01Z</time>
      </trkpt>
      <trkpt lat="45.31751" lon="6.26845">
        <ele>729.3</ele>
        <time>2022-06-18T07:44:02Z</time>
      </trkpt>
      <trkpt lat="45.31748" lon="6.2684">
        <ele>729.5</ele>
        <time>2022-06-18T07:44:03Z</time>
      </trkpt>
      <trkpt lat="45.31745" lon="6.26835">
        <ele>729.6</ele>
        <time>2022-06-18T07:44:04Z</time>
      </trkpt>
      <trkpt lat="45.31742" lon="6.2683">
        <ele>729.8</ele>
        <time>2022-06-18T07:44:05Z</time>
      </trkpt>
      <trkpt lat="45.31739" lon="6.26826">
        <ele>730</ele>
        <time>2022-06-18T07:44:06Z</time>
      </trkpt>
      <trkpt lat="45.31736" lon="6.26822">
        <ele>730.2</ele>
        <time>2022-06-18T07:44:07Z</time>
      </trkpt>
      <trkpt lat="45.31732" lon="6.26814">
        <ele>730.6</ele>
        <time>2022-06-18T07:44:09Z</time>
      </trkpt>
      <trkpt lat="45.31728" lon="6.26809">
        <ele>730.9</ele>
        <time>2022-06-18T07:44:10Z</time>
      </trkpt>
      <trkpt lat="45.31725" lon="6.26805">
        <ele>731.2</ele>
        <time>2022-06-18T07:44:11Z</time>
      </trkpt>
      <trkpt lat="45.31722" lon="6.268">
        <ele>731.5</ele>
        <time>2022-06-18T07:44:12Z</time>
      </trkpt>
      <trkpt lat="45.31718" lon="6.26796">
        <ele>731.8</ele>
        <time>2022-06-18T07:44:13Z</time>
      </trkpt>
      <trkpt lat="45.31716" lon="6.26792">
        <ele>732.1</ele>
        <time>2022-06-18T07:44:14Z</time>
      </trkpt>
      <trkpt lat="45.31713" lon="6.26789">
        <ele>732.5</ele>
        <time>2022-06-18T07:44:15Z</time>
      </trkpt>
      <trkpt lat="45.3171" lon="6.26784">
        <ele>732.9</ele>
        <time>2022-06-18T07:44:16Z</time>
      </trkpt>
      <trkpt lat="45.31707" lon="6.26779">
        <ele>733.3</ele>
        <time>2022-06-18T07:44:17Z</time>
      </trkpt>
      <trkpt lat="45.31704" lon="6.26776">
        <ele>733.6</ele>
        <time>2022-06-18T07:44:18Z</time>
      </trkpt>
      <trkpt lat="45.317" lon="6.2677">
        <ele>734.2</ele>
        <time>2022-06-18T07:44:20Z</time>
      </trkpt>
      <trkpt lat="45.31695" lon="6.26766">
        <ele>734.8</ele>
        <time>2022-06-18T07:44:21Z</time>
      </trkpt>
      <trkpt lat="45.31691" lon="6.26763">
        <ele>735.3</ele>
        <time>2022-06-18T07:44:23Z</time>
      </trkpt>
      <trkpt lat="45.31686" lon="6.26759">
        <ele>735.9</ele>
        <time>2022-06-18T07:44:24Z</time>
      </trkpt>
      <trkpt lat="45.31682" lon="6.26756">
        <ele>736.4</ele>
        <time>2022-06-18T07:44:25Z</time>
      </trkpt>
      <trkpt lat="45.31679" lon="6.26752">
        <ele>736.8</ele>
        <time>2022-06-18T07:44:26Z</time>
      </trkpt>
      <trkpt lat="45.31676" lon="6.26749">
        <ele>737.3</ele>
        <time>2022-06-18T07:44:27Z</time>
      </trkpt>
      <trkpt lat="45.31673" lon="6.26746">
        <ele>737.7</ele>
        <time>2022-06-18T07:44:28Z</time>
      </trkpt>
      <trkpt lat="45.3167" lon="6.26744">
        <ele>738.1</ele>
        <time>2022-06-18T07:44:29Z</time>
      </trkpt>
      <trkpt lat="45.31667" lon="6.26742">
        <ele>738.4</ele>
        <time>2022-06-18T07:44:30Z</time>
      </trkpt>
      <trkpt lat="45.31663" lon="6.2674">
        <ele>738.9</ele>
        <time>2022-06-18T07:44:32Z</time>
      </trkpt>
      <trkpt lat="45.31659" lon="6.26738">
        <ele>739.3</ele>
        <time>2022-06-18T07:44:33Z</time>
      </trkpt>
      <trkpt lat="45.31656" lon="6.26736">
        <ele>739.8</ele>
        <time>2022-06-18T07:44:34Z</time>
      </trkpt>
      <trkpt lat="45.31652" lon="6.26734">
        <ele>740.2</ele>
        <time>2022-06-18T07:44:35Z</time>
      </trkpt>
      <trkpt lat="45.31649" lon="6.26733">
        <ele>740.6</ele>
        <time>2022-06-18T07:44:36Z</time>
      </trkpt>
      <trkpt lat="45.31645" lon="6.26731">
        <ele>741</ele>
        <time>2022-06-18T07:44:37Z</time>
      </trkpt>
      <trkpt lat="45.31643" lon="6.26729">
        <ele>741.4</ele>
        <time>2022-06-18T07:44:38Z</time>
      </trkpt>
      <trkpt lat="45.31639" lon="6.26726">
        <ele>741.9</ele>
        <time>2022-06-18T07:44:40Z</time>
      </trkpt>
      <trkpt lat="45.31635" lon="6.26722">
        <ele>742.4</ele>
        <time>2022-06-18T07:44:41Z</time>
      </trkpt>
      <trkpt lat="45.31632" lon="6.2672">
        <ele>742.9</ele>
        <time>2022-06-18T07:44:42Z</time>
      </trkpt>
      <trkpt lat="45.31629" lon="6.26718">
        <ele>743.3</ele>
        <time>2022-06-18T07:44:43Z</time>
      </trkpt>
      <trkpt lat="45.31625" lon="6.26716">
        <ele>743.8</ele>
        <time>2022-06-18T07:44:44Z</time>
      </trkpt>
      <trkpt lat="45.31622" lon="6.26714">
        <ele>744.2</ele>
        <time>2022-06-18T07:44:45Z</time>
      </trkpt>
      <trkpt lat="45.31619" lon="6.26711">
        <ele>744.6</ele>
        <time>2022-06-18T07:44:47Z</time>
      </trkpt>
      <trkpt lat="45.31617" lon="6.26709">
        <ele>745</ele>
        <time>2022-06-18T07:44:48Z</time>
      </trkpt>
      <trkpt lat="45.31614" lon="6.26707">
        <ele>745.3</ele>
        <time>2022-06-18T07:44:49Z</time>
      </trkpt>
      <trkpt lat="45.31612" lon="6.26706">
        <ele>745.7</ele>
        <time>2022-06-18T07:44:50Z</time>
      </trkpt>
      <trkpt lat="45.31608" lon="6.26703">
        <ele>746.2</ele>
        <time>2022-06-18T07:44:51Z</time>
      </trkpt>
      <trkpt lat="45.31607" lon="6.26702">
        <ele>746.4</ele>
        <time>2022-06-18T07:44:52Z</time>
      </trkpt>
      <trkpt lat="45.31603" lon="6.267">
        <ele>746.8</ele>
        <time>2022-06-18T07:44:53Z</time>
      </trkpt>
      <trkpt lat="45.31602" lon="6.267">
        <ele>747</ele>
        <time>2022-06-18T07:44:54Z</time>
      </trkpt>
      <trkpt lat="45.316" lon="6.26698">
        <ele>747.3</ele>
        <time>2022-06-18T07:44:55Z</time>
      </trkpt>
      <trkpt lat="45.31597" lon="6.26697">
        <ele>747.8</ele>
        <time>2022-06-18T07:44:57Z</time>
      </trkpt>
      <trkpt lat="45.31594" lon="6.26695">
        <ele>748.1</ele>
        <time>2022-06-18T07:44:58Z</time>
      </trkpt>
      <trkpt lat="45.31592" lon="6.26693">
        <ele>748.5</ele>
        <time>2022-06-18T07:44:59Z</time>
      </trkpt>
      <trkpt lat="45.31589" lon="6.26691">
        <ele>748.9</ele>
        <time>2022-06-18T07:45:00Z</time>
      </trkpt>
      <trkpt lat="45.31586" lon="6.26689">
        <ele>749.4</ele>
        <time>2022-06-18T07:45:01Z</time>
      </trkpt>
      <trkpt lat="45.31582" lon="6.26688">
        <ele>749.9</ele>
        <time>2022-06-18T07:45:03Z</time>
      </trkpt>
      <trkpt lat="45.31578" lon="6.26685">
        <ele>750.6</ele>
        <time>2022-06-18T07:45:04Z</time>
      </trkpt>
      <trkpt lat="45.31576" lon="6.26683">
        <ele>751</ele>
        <time>2022-06-18T07:45:05Z</time>
      </trkpt>
      <trkpt lat="45.31573" lon="6.26682">
        <ele>751.4</ele>
        <time>2022-06-18T07:45:07Z</time>
      </trkpt>
      <trkpt lat="45.31571" lon="6.2668">
        <ele>751.8</ele>
        <time>2022-06-18T07:45:08Z</time>
      </trkpt>
      <trkpt lat="45.31568" lon="6.26679">
        <ele>752.2</ele>
        <time>2022-06-18T07:45:09Z</time>
      </trkpt>
      <trkpt lat="45.31565" lon="6.26677">
        <ele>752.7</ele>
        <time>2022-06-18T07:45:11Z</time>
      </trkpt>
      <trkpt lat="45.31564" lon="6.26676">
        <ele>752.8</ele>
        <time>2022-06-18T07:45:12Z</time>
      </trkpt>
      <trkpt lat="45.3156" lon="6.26674">
        <ele>753.3</ele>
        <time>2022-06-18T07:45:14Z</time>
      </trkpt>
      <trkpt lat="45.31559" lon="6.26674">
        <ele>753.6</ele>
        <time>2022-06-18T07:45:15Z</time>
      </trkpt>
      <trkpt lat="45.31556" lon="6.26672">
        <ele>753.9</ele>
        <time>2022-06-18T07:45:16Z</time>
      </trkpt>
      <trkpt lat="45.31552" lon="6.26668">
        <ele>754.6</ele>
        <time>2022-06-18T07:45:17Z</time>
      </trkpt>
      <trkpt lat="45.31549" lon="6.26665">
        <ele>755</ele>
        <time>2022-06-18T07:45:19Z</time>
      </trkpt>
      <trkpt lat="45.31543" lon="6.26659">
        <ele>756</ele>
        <time>2022-06-18T07:45:20Z</time>
      </trkpt>
      <trkpt lat="45.31539" lon="6.26655">
        <ele>756.6</ele>
        <time>2022-06-18T07:45:21Z</time>
      </trkpt>
      <trkpt lat="45.31535" lon="6.2665">
        <ele>757.1</ele>
        <time>2022-06-18T07:45:23Z</time>
      </trkpt>
      <trkpt lat="45.31532" lon="6.26646">
        <ele>757.7</ele>
        <time>2022-06-18T07:45:24Z</time>
      </trkpt>
      <trkpt lat="45.31529" lon="6.2664">
        <ele>758.2</ele>
        <time>2022-06-18T07:45:26Z</time>
      </trkpt>
      <trkpt lat="45.31526" lon="6.26635">
        <ele>758.7</ele>
        <time>2022-06-18T07:45:27Z</time>
      </trkpt>
      <trkpt lat="45.31524" lon="6.26631">
        <ele>759</ele>
        <time>2022-06-18T07:45:28Z</time>
      </trkpt>
      <trkpt lat="45.31522" lon="6.26627">
        <ele>759.3</ele>
        <time>2022-06-18T07:45:30Z</time>
      </trkpt>
      <trkpt lat="45.3152" lon="6.26624">
        <ele>759.7</ele>
        <time>2022-06-18T07:45:31Z</time>
      </trkpt>
      <trkpt lat="45.31518" lon="6.2662">
        <ele>760</ele>
        <time>2022-06-18T07:45:32Z</time>
      </trkpt>
      <trkpt lat="45.31516" lon="6.26616">
        <ele>760.3</ele>
        <time>2022-06-18T07:45:33Z</time>
      </trkpt>
      <trkpt lat="45.31513" lon="6.26612">
        <ele>760.8</ele>
        <time>2022-06-18T07:45:35Z</time>
      </trkpt>
      <trkpt lat="45.31511" lon="6.26609">
        <ele>761.1</ele>
        <time>2022-06-18T07:45:36Z</time>
      </trkpt>
      <trkpt lat="45.3151" lon="6.26607">
        <ele>761.3</ele>
        <time>2022-06-18T07:45:37Z</time>
      </trkpt>
      <trkpt lat="45.31508" lon="6.26604">
        <ele>761.6</ele>
        <time>2022-06-18T07:45:38Z</time>
      </trkpt>
      <trkpt lat="45.31506" lon="6.266">
        <ele>762</ele>
        <time>2022-06-18T07:45:39Z</time>
      </trkpt>
      <trkpt lat="45.31503" lon="6.26596">
        <ele>762.5</ele>
        <time>2022-06-18T07:45:40Z</time>
      </trkpt>
      <trkpt lat="45.315" lon="6.26593">
        <ele>763</ele>
        <time>2022-06-18T07:45:41Z</time>
      </trkpt>
      <trkpt lat="45.31499" lon="6.26592">
        <ele>763.1</ele>
        <time>2022-06-18T07:45:42Z</time>
      </trkpt>
      <trkpt lat="45.31496" lon="6.2659">
        <ele>763.5</ele>
        <time>2022-06-18T07:45:43Z</time>
      </trkpt>
      <trkpt lat="45.31493" lon="6.26588">
        <ele>764</ele>
        <time>2022-06-18T07:45:45Z</time>
      </trkpt>
      <trkpt lat="45.3149" lon="6.26585">
        <ele>764.4</ele>
        <time>2022-06-18T07:45:46Z</time>
      </trkpt>
      <trkpt lat="45.31487" lon="6.26583">
        <ele>764.9</ele>
        <time>2022-06-18T07:45:47Z</time>
      </trkpt>
      <trkpt lat="45.31483" lon="6.26581">
        <ele>765.4</ele>
        <time>2022-06-18T07:45:48Z</time>
      </trkpt>
      <trkpt lat="45.31482" lon="6.2658">
        <ele>765.6</ele>
        <time>2022-06-18T07:45:49Z</time>
      </trkpt>
      <trkpt lat="45.31478" lon="6.26578">
        <ele>766.1</ele>
        <time>2022-06-18T07:45:50Z</time>
      </trkpt>
      <trkpt lat="45.31477" lon="6.26578">
        <ele>766.3</ele>
        <time>2022-06-18T07:45:51Z</time>
      </trkpt>
      <trkpt lat="45.31474" lon="6.26576">
        <ele>766.7</ele>
        <time>2022-06-18T07:45:52Z</time>
      </trkpt>
      <trkpt lat="45.31471" lon="6.26575">
        <ele>767.1</ele>
        <time>2022-06-18T07:45:53Z</time>
      </trkpt>
      <trkpt lat="45.31469" lon="6.26574">
        <ele>767.3</ele>
        <time>2022-06-18T07:45:54Z</time>
      </trkpt>
      <trkpt lat="45.31464" lon="6.26571">
        <ele>767.9</ele>
        <time>2022-06-18T07:45:56Z</time>
      </trkpt>
      <trkpt lat="45.31462" lon="6.26569">
        <ele>768.2</ele>
        <time>2022-06-18T07:45:57Z</time>
      </trkpt>
      <trkpt lat="45.31459" lon="6.26568">
        <ele>768.6</ele>
        <time>2022-06-18T07:45:58Z</time>
      </trkpt>
      <trkpt lat="45.31455" lon="6.26565">
        <ele>769</ele>
        <time>2022-06-18T07:45:59Z</time>
      </trkpt>
      <trkpt lat="45.31451" lon="6.26561">
        <ele>769.6</ele>
        <time>2022-06-18T07:46:01Z</time>
      </trkpt>
      <trkpt lat="45.31446" lon="6.26556">
        <ele>770.2</ele>
        <time>2022-06-18T07:46:02Z</time>
      </trkpt>
      <trkpt lat="45.31443" lon="6.26552">
        <ele>770.6</ele>
        <time>2022-06-18T07:46:03Z</time>
      </trkpt>
      <trkpt lat="45.31438" lon="6.26546">
        <ele>771.2</ele>
        <time>2022-06-18T07:46:05Z</time>
      </trkpt>
      <trkpt lat="45.31436" lon="6.26544">
        <ele>771.5</ele>
        <time>2022-06-18T07:46:06Z</time>
      </trkpt>
      <trkpt lat="45.31432" lon="6.2654">
        <ele>771.9</ele>
        <time>2022-06-18T07:46:07Z</time>
      </trkpt>
      <trkpt lat="45.3143" lon="6.26538">
        <ele>772.1</ele>
        <time>2022-06-18T07:46:08Z</time>
      </trkpt>
      <trkpt lat="45.31427" lon="6.26536">
        <ele>772.4</ele>
        <time>2022-06-18T07:46:09Z</time>
      </trkpt>
      <trkpt lat="45.31422" lon="6.26533">
        <ele>772.9</ele>
        <time>2022-06-18T07:46:11Z</time>
      </trkpt>
      <trkpt lat="45.31419" lon="6.2653">
        <ele>773.2</ele>
        <time>2022-06-18T07:46:12Z</time>
      </trkpt>
      <trkpt lat="45.31416" lon="6.26528">
        <ele>773.5</ele>
        <time>2022-06-18T07:46:13Z</time>
      </trkpt>
      <trkpt lat="45.31415" lon="6.26528">
        <ele>773.6</ele>
        <time>2022-06-18T07:46:14Z</time>
      </trkpt>
      <trkpt lat="45.31411" lon="6.26526">
        <ele>774</ele>
        <time>2022-06-18T07:46:15Z</time>
      </trkpt>
      <trkpt lat="45.31408" lon="6.26524">
        <ele>774.5</ele>
        <time>2022-06-18T07:46:16Z</time>
      </trkpt>
      <trkpt lat="45.31407" lon="6.26523">
        <ele>774.6</ele>
        <time>2022-06-18T07:46:17Z</time>
      </trkpt>
      <trkpt lat="45.31403" lon="6.26521">
        <ele>775</ele>
        <time>2022-06-18T07:46:18Z</time>
      </trkpt>
      <trkpt lat="45.31401" lon="6.2652">
        <ele>775.3</ele>
        <time>2022-06-18T07:46:19Z</time>
      </trkpt>
      <trkpt lat="45.31397" lon="6.26519">
        <ele>775.7</ele>
        <time>2022-06-18T07:46:21Z</time>
      </trkpt>
      <trkpt lat="45.31392" lon="6.2652">
        <ele>776.4</ele>
        <time>2022-06-18T07:46:22Z</time>
      </trkpt>
      <trkpt lat="45.31388" lon="6.26519">
        <ele>776.8</ele>
        <time>2022-06-18T07:46:23Z</time>
      </trkpt>
      <trkpt lat="45.31383" lon="6.26516">
        <ele>777.5</ele>
        <time>2022-06-18T07:46:25Z</time>
      </trkpt>
      <trkpt lat="45.3138" lon="6.26515">
        <ele>777.9</ele>
        <time>2022-06-18T07:46:26Z</time>
      </trkpt>
      <trkpt lat="45.31377" lon="6.26514">
        <ele>778.3</ele>
        <time>2022-06-18T07:46:27Z</time>
      </trkpt>
      <trkpt lat="45.31373" lon="6.26514">
        <ele>778.8</ele>
        <time>2022-06-18T07:46:28Z</time>
      </trkpt>
      <trkpt lat="45.31368" lon="6.26513">
        <ele>779.4</ele>
        <time>2022-06-18T07:46:30Z</time>
      </trkpt>
      <trkpt lat="45.31365" lon="6.26514">
        <ele>779.9</ele>
        <time>2022-06-18T07:46:31Z</time>
      </trkpt>
      <trkpt lat="45.31361" lon="6.26514">
        <ele>780.5</ele>
        <time>2022-06-18T07:46:32Z</time>
      </trkpt>
      <trkpt lat="45.31355" lon="6.26515">
        <ele>781.3</ele>
        <time>2022-06-18T07:46:34Z</time>
      </trkpt>
      <trkpt lat="45.31351" lon="6.26516">
        <ele>781.9</ele>
        <time>2022-06-18T07:46:35Z</time>
      </trkpt>
      <trkpt lat="45.31347" lon="6.26518">
        <ele>782.4</ele>
        <time>2022-06-18T07:46:36Z</time>
      </trkpt>
      <trkpt lat="45.31343" lon="6.26518">
        <ele>783</ele>
        <time>2022-06-18T07:46:37Z</time>
      </trkpt>
      <trkpt lat="45.31336" lon="6.26517">
        <ele>783.9</ele>
        <time>2022-06-18T07:46:39Z</time>
      </trkpt>
      <trkpt lat="45.31331" lon="6.26517">
        <ele>784.5</ele>
        <time>2022-06-18T07:46:41Z</time>
      </trkpt>
      <trkpt lat="45.31328" lon="6.26516">
        <ele>785</ele>
        <time>2022-06-18T07:46:42Z</time>
      </trkpt>
      <trkpt lat="45.31324" lon="6.26516">
        <ele>785.4</ele>
        <time>2022-06-18T07:46:43Z</time>
      </trkpt>
      <trkpt lat="45.31321" lon="6.26517">
        <ele>785.8</ele>
        <time>2022-06-18T07:46:44Z</time>
      </trkpt>
      <trkpt lat="45.31318" lon="6.26517">
        <ele>786.1</ele>
        <time>2022-06-18T07:46:45Z</time>
      </trkpt>
      <trkpt lat="45.31313" lon="6.26517">
        <ele>786.6</ele>
        <time>2022-06-18T07:46:46Z</time>
      </trkpt>
      <trkpt lat="45.31312" lon="6.26517">
        <ele>786.8</ele>
        <time>2022-06-18T07:46:47Z</time>
      </trkpt>
      <trkpt lat="45.31307" lon="6.26516">
        <ele>787.5</ele>
        <time>2022-06-18T07:46:49Z</time>
      </trkpt>
      <trkpt lat="45.31304" lon="6.26515">
        <ele>788</ele>
        <time>2022-06-18T07:46:50Z</time>
      </trkpt>
      <trkpt lat="45.313" lon="6.26513">
        <ele>788.7</ele>
        <time>2022-06-18T07:46:51Z</time>
      </trkpt>
      <trkpt lat="45.31297" lon="6.2651">
        <ele>789.5</ele>
        <time>2022-06-18T07:46:52Z</time>
      </trkpt>
      <trkpt lat="45.31294" lon="6.26508">
        <ele>790.1</ele>
        <time>2022-06-18T07:46:53Z</time>
      </trkpt>
      <trkpt lat="45.31291" lon="6.26505">
        <ele>790.7</ele>
        <time>2022-06-18T07:46:54Z</time>
      </trkpt>
      <trkpt lat="45.31288" lon="6.26499">
        <ele>791.8</ele>
        <time>2022-06-18T07:46:56Z</time>
      </trkpt>
      <trkpt lat="45.31289" lon="6.26493">
        <ele>792.8</ele>
        <time>2022-06-18T07:46:57Z</time>
      </trkpt>
      <trkpt lat="45.31292" lon="6.2649">
        <ele>793.2</ele>
        <time>2022-06-18T07:46:58Z</time>
      </trkpt>
      <trkpt lat="45.31298" lon="6.26491">
        <ele>793.3</ele>
        <time>2022-06-18T07:46:59Z</time>
      </trkpt>
      <trkpt lat="45.31301" lon="6.26495">
        <ele>793.4</ele>
        <time>2022-06-18T07:47:00Z</time>
      </trkpt>
      <trkpt lat="45.31306" lon="6.26502">
        <ele>793.5</ele>
        <time>2022-06-18T07:47:02Z</time>
      </trkpt>
      <trkpt lat="45.31311" lon="6.26506">
        <ele>793.5</ele>
        <time>2022-06-18T07:47:03Z</time>
      </trkpt>
      <trkpt lat="45.31315" lon="6.26509">
        <ele>793.5</ele>
        <time>2022-06-18T07:47:04Z</time>
      </trkpt>
      <trkpt lat="45.31318" lon="6.2651">
        <ele>793.5</ele>
        <time>2022-06-18T07:47:05Z</time>
      </trkpt>
      <trkpt lat="45.31322" lon="6.2651">
        <ele>793.5</ele>
        <time>2022-06-18T07:47:06Z</time>
      </trkpt>
      <trkpt lat="45.31325" lon="6.26509">
        <ele>793.4</ele>
        <time>2022-06-18T07:47:07Z</time>
      </trkpt>
      <trkpt lat="45.31329" lon="6.26507">
        <ele>793.4</ele>
        <time>2022-06-18T07:47:08Z</time>
      </trkpt>
      <trkpt lat="45.31332" lon="6.26505">
        <ele>793.4</ele>
        <time>2022-06-18T07:47:10Z</time>
      </trkpt>
      <trkpt lat="45.31337" lon="6.26501">
        <ele>793.4</ele>
        <time>2022-06-18T07:47:11Z</time>
      </trkpt>
      <trkpt lat="45.3134" lon="6.26498">
        <ele>793.4</ele>
        <time>2022-06-18T07:47:12Z</time>
      </trkpt>
      <trkpt lat="45.31344" lon="6.26496">
        <ele>793.5</ele>
        <time>2022-06-18T07:47:13Z</time>
      </trkpt>
      <trkpt lat="45.31348" lon="6.26494">
        <ele>793.6</ele>
        <time>2022-06-18T07:47:15Z</time>
      </trkpt>
      <trkpt lat="45.31351" lon="6.26492">
        <ele>793.7</ele>
        <time>2022-06-18T07:47:16Z</time>
      </trkpt>
      <trkpt lat="45.31355" lon="6.26491">
        <ele>793.8</ele>
        <time>2022-06-18T07:47:17Z</time>
      </trkpt>
      <trkpt lat="45.31359" lon="6.2649">
        <ele>793.9</ele>
        <time>2022-06-18T07:47:18Z</time>
      </trkpt>
      <trkpt lat="45.31362" lon="6.26489">
        <ele>794.1</ele>
        <time>2022-06-18T07:47:19Z</time>
      </trkpt>
      <trkpt lat="45.31367" lon="6.26488">
        <ele>794.4</ele>
        <time>2022-06-18T07:47:20Z</time>
      </trkpt>
      <trkpt lat="45.3137" lon="6.26487">
        <ele>794.6</ele>
        <time>2022-06-18T07:47:21Z</time>
      </trkpt>
      <trkpt lat="45.31374" lon="6.26486">
        <ele>794.9</ele>
        <time>2022-06-18T07:47:22Z</time>
      </trkpt>
      <trkpt lat="45.31379" lon="6.26484">
        <ele>795.2</ele>
        <time>2022-06-18T07:47:23Z</time>
      </trkpt>
      <trkpt lat="45.31384" lon="6.26483">
        <ele>795.7</ele>
        <time>2022-06-18T07:47:25Z</time>
      </trkpt>
      <trkpt lat="45.31389" lon="6.26482">
        <ele>796</ele>
        <time>2022-06-18T07:47:26Z</time>
      </trkpt>
      <trkpt lat="45.31392" lon="6.26481">
        <ele>796.3</ele>
        <time>2022-06-18T07:47:27Z</time>
      </trkpt>
      <trkpt lat="45.31397" lon="6.26481">
        <ele>796.7</ele>
        <time>2022-06-18T07:47:28Z</time>
      </trkpt>
      <trkpt lat="45.31399" lon="6.26481">
        <ele>796.9</ele>
        <time>2022-06-18T07:47:29Z</time>
      </trkpt>
      <trkpt lat="45.31405" lon="6.26481">
        <ele>797.5</ele>
        <time>2022-06-18T07:47:30Z</time>
      </trkpt>
      <trkpt lat="45.31409" lon="6.26481">
        <ele>797.9</ele>
        <time>2022-06-18T07:47:31Z</time>
      </trkpt>
      <trkpt lat="45.31414" lon="6.26481">
        <ele>798.4</ele>
        <time>2022-06-18T07:47:32Z</time>
      </trkpt>
      <trkpt lat="45.31418" lon="6.2648">
        <ele>798.9</ele>
        <time>2022-06-18T07:47:33Z</time>
      </trkpt>
      <trkpt lat="45.31422" lon="6.2648">
        <ele>799.3</ele>
        <time>2022-06-18T07:47:34Z</time>
      </trkpt>
      <trkpt lat="45.31426" lon="6.26479">
        <ele>799.7</ele>
        <time>2022-06-18T07:47:35Z</time>
      </trkpt>
      <trkpt lat="45.31431" lon="6.26479">
        <ele>800.3</ele>
        <time>2022-06-18T07:47:37Z</time>
      </trkpt>
      <trkpt lat="45.31438" lon="6.2648">
        <ele>801.1</ele>
        <time>2022-06-18T07:47:38Z</time>
      </trkpt>
      <trkpt lat="45.31443" lon="6.26482">
        <ele>801.7</ele>
        <time>2022-06-18T07:47:39Z</time>
      </trkpt>
      <trkpt lat="45.31449" lon="6.26485">
        <ele>802.3</ele>
        <time>2022-06-18T07:47:41Z</time>
      </trkpt>
      <trkpt lat="45.31453" lon="6.26487">
        <ele>802.8</ele>
        <time>2022-06-18T07:47:42Z</time>
      </trkpt>
      <trkpt lat="45.31459" lon="6.26488">
        <ele>803.5</ele>
        <time>2022-06-18T07:47:43Z</time>
      </trkpt>
      <trkpt lat="45.31466" lon="6.26488">
        <ele>804.3</ele>
        <time>2022-06-18T07:47:45Z</time>
      </trkpt>
      <trkpt lat="45.3147" lon="6.26488">
        <ele>804.7</ele>
        <time>2022-06-18T07:47:46Z</time>
      </trkpt>
      <trkpt lat="45.31474" lon="6.26488">
        <ele>805.1</ele>
        <time>2022-06-18T07:47:48Z</time>
      </trkpt>
      <trkpt lat="45.31477" lon="6.26488">
        <ele>805.4</ele>
        <time>2022-06-18T07:47:49Z</time>
      </trkpt>
      <trkpt lat="45.31481" lon="6.26489">
        <ele>805.8</ele>
        <time>2022-06-18T07:47:50Z</time>
      </trkpt>
      <trkpt lat="45.31485" lon="6.26491">
        <ele>806.2</ele>
        <time>2022-06-18T07:47:51Z</time>
      </trkpt>
      <trkpt lat="45.31491" lon="6.26495">
        <ele>806.9</ele>
        <time>2022-06-18T07:47:53Z</time>
      </trkpt>
      <trkpt lat="45.31496" lon="6.26499">
        <ele>807.5</ele>
        <time>2022-06-18T07:47:54Z</time>
      </trkpt>
      <trkpt lat="45.31502" lon="6.26502">
        <ele>808.2</ele>
        <time>2022-06-18T07:47:55Z</time>
      </trkpt>
      <trkpt lat="45.31507" lon="6.26504">
        <ele>808.7</ele>
        <time>2022-06-18T07:47:56Z</time>
      </trkpt>
      <trkpt lat="45.31511" lon="6.26506">
        <ele>809.2</ele>
        <time>2022-06-18T07:47:57Z</time>
      </trkpt>
      <trkpt lat="45.31514" lon="6.26507">
        <ele>809.6</ele>
        <time>2022-06-18T07:47:58Z</time>
      </trkpt>
      <trkpt lat="45.31519" lon="6.26508">
        <ele>810.1</ele>
        <time>2022-06-18T07:48:00Z</time>
      </trkpt>
      <trkpt lat="45.31522" lon="6.26509">
        <ele>810.5</ele>
        <time>2022-06-18T07:48:01Z</time>
      </trkpt>
      <trkpt lat="45.31526" lon="6.2651">
        <ele>810.9</ele>
        <time>2022-06-18T07:48:02Z</time>
      </trkpt>
      <trkpt lat="45.31529" lon="6.26511">
        <ele>811.3</ele>
        <time>2022-06-18T07:48:03Z</time>
      </trkpt>
      <trkpt lat="45.31532" lon="6.26513">
        <ele>811.7</ele>
        <time>2022-06-18T07:48:04Z</time>
      </trkpt>
      <trkpt lat="45.31535" lon="6.26514">
        <ele>812</ele>
        <time>2022-06-18T07:48:05Z</time>
      </trkpt>
      <trkpt lat="45.31538" lon="6.26516">
        <ele>812.5</ele>
        <time>2022-06-18T07:48:07Z</time>
      </trkpt>
      <trkpt lat="45.31541" lon="6.26517">
        <ele>812.9</ele>
        <time>2022-06-18T07:48:08Z</time>
      </trkpt>
      <trkpt lat="45.31546" lon="6.26517">
        <ele>813.4</ele>
        <time>2022-06-18T07:48:09Z</time>
      </trkpt>
      <trkpt lat="45.3155" lon="6.26517">
        <ele>814</ele>
        <time>2022-06-18T07:48:11Z</time>
      </trkpt>
      <trkpt lat="45.31555" lon="6.26518">
        <ele>814.6</ele>
        <time>2022-06-18T07:48:12Z</time>
      </trkpt>
      <trkpt lat="45.31558" lon="6.26518">
        <ele>815.1</ele>
        <time>2022-06-18T07:48:13Z</time>
      </trkpt>
      <trkpt lat="45.31563" lon="6.26518">
        <ele>815.7</ele>
        <time>2022-06-18T07:48:15Z</time>
      </trkpt>
      <trkpt lat="45.31567" lon="6.2652">
        <ele>816.3</ele>
        <time>2022-06-18T07:48:16Z</time>
      </trkpt>
      <trkpt lat="45.31569" lon="6.2652">
        <ele>816.6</ele>
        <time>2022-06-18T07:48:17Z</time>
      </trkpt>
      <trkpt lat="45.31573" lon="6.26523">
        <ele>817.3</ele>
        <time>2022-06-18T07:48:18Z</time>
      </trkpt>
      <trkpt lat="45.31574" lon="6.26524">
        <ele>817.5</ele>
        <time>2022-06-18T07:48:19Z</time>
      </trkpt>
      <trkpt lat="45.31578" lon="6.26527">
        <ele>818.3</ele>
        <time>2022-06-18T07:48:21Z</time>
      </trkpt>
      <trkpt lat="45.31581" lon="6.2653">
        <ele>819</ele>
        <time>2022-06-18T07:48:22Z</time>
      </trkpt>
      <trkpt lat="45.31584" lon="6.26534">
        <ele>819.7</ele>
        <time>2022-06-18T07:48:23Z</time>
      </trkpt>
      <trkpt lat="45.31586" lon="6.26538">
        <ele>820.3</ele>
        <time>2022-06-18T07:48:24Z</time>
      </trkpt>
      <trkpt lat="45.31589" lon="6.26541">
        <ele>820.9</ele>
        <time>2022-06-18T07:48:25Z</time>
      </trkpt>
      <trkpt lat="45.31591" lon="6.26543">
        <ele>821.4</ele>
        <time>2022-06-18T07:48:26Z</time>
      </trkpt>
      <trkpt lat="45.31595" lon="6.26542">
        <ele>822</ele>
        <time>2022-06-18T07:48:27Z</time>
      </trkpt>
      <trkpt lat="45.31597" lon="6.26542">
        <ele>822.2</ele>
        <time>2022-06-18T07:48:28Z</time>
      </trkpt>
      <trkpt lat="45.31599" lon="6.26538">
        <ele>822.7</ele>
        <time>2022-06-18T07:48:29Z</time>
      </trkpt>
      <trkpt lat="45.31602" lon="6.26528">
        <ele>823.5</ele>
        <time>2022-06-18T07:48:31Z</time>
      </trkpt>
      <trkpt lat="45.31601" lon="6.26522">
        <ele>823.8</ele>
        <time>2022-06-18T07:48:32Z</time>
      </trkpt>
      <trkpt lat="45.316" lon="6.26517">
        <ele>824</ele>
        <time>2022-06-18T07:48:33Z</time>
      </trkpt>
      <trkpt lat="45.31596" lon="6.26513">
        <ele>824.2</ele>
        <time>2022-06-18T07:48:34Z</time>
      </trkpt>
      <trkpt lat="45.31591" lon="6.26511">
        <ele>824.3</ele>
        <time>2022-06-18T07:48:35Z</time>
      </trkpt>
      <trkpt lat="45.31586" lon="6.2651">
        <ele>824.4</ele>
        <time>2022-06-18T07:48:36Z</time>
      </trkpt>
      <trkpt lat="45.31583" lon="6.2651">
        <ele>824.4</ele>
        <time>2022-06-18T07:48:37Z</time>
      </trkpt>
      <trkpt lat="45.31577" lon="6.2651">
        <ele>824.5</ele>
        <time>2022-06-18T07:48:39Z</time>
      </trkpt>
      <trkpt lat="45.31572" lon="6.26509">
        <ele>824.7</ele>
        <time>2022-06-18T07:48:40Z</time>
      </trkpt>
      <trkpt lat="45.31567" lon="6.26508">
        <ele>824.9</ele>
        <time>2022-06-18T07:48:41Z</time>
      </trkpt>
      <trkpt lat="45.31564" lon="6.26507">
        <ele>825</ele>
        <time>2022-06-18T07:48:42Z</time>
      </trkpt>
      <trkpt lat="45.31559" lon="6.26505">
        <ele>825.3</ele>
        <time>2022-06-18T07:48:44Z</time>
      </trkpt>
      <trkpt lat="45.31556" lon="6.26503">
        <ele>825.5</ele>
        <time>2022-06-18T07:48:45Z</time>
      </trkpt>
      <trkpt lat="45.31552" lon="6.265">
        <ele>825.7</ele>
        <time>2022-06-18T07:48:47Z</time>
      </trkpt>
      <trkpt lat="45.31548" lon="6.26499">
        <ele>826</ele>
        <time>2022-06-18T07:48:48Z</time>
      </trkpt>
      <trkpt lat="45.31544" lon="6.26497">
        <ele>826.3</ele>
        <time>2022-06-18T07:48:50Z</time>
      </trkpt>
      <trkpt lat="45.31541" lon="6.26495">
        <ele>826.5</ele>
        <time>2022-06-18T07:48:51Z</time>
      </trkpt>
      <trkpt lat="45.31538" lon="6.26491">
        <ele>826.7</ele>
        <time>2022-06-18T07:48:52Z</time>
      </trkpt>
      <trkpt lat="45.31535" lon="6.26488">
        <ele>827.1</ele>
        <time>2022-06-18T07:48:53Z</time>
      </trkpt>
      <trkpt lat="45.31534" lon="6.26486">
        <ele>827.2</ele>
        <time>2022-06-18T07:48:54Z</time>
      </trkpt>
      <trkpt lat="45.31531" lon="6.26483">
        <ele>827.5</ele>
        <time>2022-06-18T07:48:55Z</time>
      </trkpt>
      <trkpt lat="45.31529" lon="6.26479">
        <ele>827.9</ele>
        <time>2022-06-18T07:48:56Z</time>
      </trkpt>
      <trkpt lat="45.31526" lon="6.26475">
        <ele>828.2</ele>
        <time>2022-06-18T07:48:58Z</time>
      </trkpt>
      <trkpt lat="45.31523" lon="6.26471">
        <ele>828.7</ele>
        <time>2022-06-18T07:48:59Z</time>
      </trkpt>
      <trkpt lat="45.3152" lon="6.26468">
        <ele>829</ele>
        <time>2022-06-18T07:49:00Z</time>
      </trkpt>
      <trkpt lat="45.31517" lon="6.26464">
        <ele>829.5</ele>
        <time>2022-06-18T07:49:01Z</time>
      </trkpt>
      <trkpt lat="45.31514" lon="6.26461">
        <ele>829.8</ele>
        <time>2022-06-18T07:49:02Z</time>
      </trkpt>
      <trkpt lat="45.31512" lon="6.26459">
        <ele>830.1</ele>
        <time>2022-06-18T07:49:03Z</time>
      </trkpt>
      <trkpt lat="45.31509" lon="6.26454">
        <ele>830.6</ele>
        <time>2022-06-18T07:49:05Z</time>
      </trkpt>
      <trkpt lat="45.31508" lon="6.26449">
        <ele>831</ele>
        <time>2022-06-18T07:49:06Z</time>
      </trkpt>
      <trkpt lat="45.31508" lon="6.26448">
        <ele>831.1</ele>
        <time>2022-06-18T07:49:07Z</time>
      </trkpt>
      <trkpt lat="45.31504" lon="6.26445">
        <ele>831.4</ele>
        <time>2022-06-18T07:49:09Z</time>
      </trkpt>
      <trkpt lat="45.31503" lon="6.26443">
        <ele>831.6</ele>
        <time>2022-06-18T07:49:10Z</time>
      </trkpt>
      <trkpt lat="45.315" lon="6.26442">
        <ele>831.9</ele>
        <time>2022-06-18T07:49:11Z</time>
      </trkpt>
      <trkpt lat="45.31498" lon="6.26441">
        <ele>832.1</ele>
        <time>2022-06-18T07:49:12Z</time>
      </trkpt>
      <trkpt lat="45.31492" lon="6.26442">
        <ele>832.5</ele>
        <time>2022-06-18T07:49:14Z</time>
      </trkpt>
      <trkpt lat="45.31488" lon="6.26441">
        <ele>832.8</ele>
        <time>2022-06-18T07:49:15Z</time>
      </trkpt>
      <trkpt lat="45.31483" lon="6.2644">
        <ele>833.1</ele>
        <time>2022-06-18T07:49:17Z</time>
      </trkpt>
      <trkpt lat="45.31478" lon="6.2644">
        <ele>833.5</ele>
        <time>2022-06-18T07:49:18Z</time>
      </trkpt>
      <trkpt lat="45.31474" lon="6.2644">
        <ele>833.7</ele>
        <time>2022-06-18T07:49:19Z</time>
      </trkpt>
      <trkpt lat="45.31471" lon="6.26441">
        <ele>833.9</ele>
        <time>2022-06-18T07:49:20Z</time>
      </trkpt>
      <trkpt lat="45.31466" lon="6.2644">
        <ele>834.2</ele>
        <time>2022-06-18T07:49:22Z</time>
      </trkpt>
      <trkpt lat="45.31463" lon="6.26439">
        <ele>834.4</ele>
        <time>2022-06-18T07:49:23Z</time>
      </trkpt>
      <trkpt lat="45.3146" lon="6.26438">
        <ele>834.6</ele>
        <time>2022-06-18T07:49:24Z</time>
      </trkpt>
      <trkpt lat="45.31457" lon="6.26438">
        <ele>834.9</ele>
        <time>2022-06-18T07:49:25Z</time>
      </trkpt>
      <trkpt lat="45.31456" lon="6.26438">
        <ele>834.9</ele>
        <time>2022-06-18T07:49:26Z</time>
      </trkpt>
      <trkpt lat="45.31452" lon="6.26436">
        <ele>835.2</ele>
        <time>2022-06-18T07:49:28Z</time>
      </trkpt>
      <trkpt lat="45.31448" lon="6.26434">
        <ele>835.6</ele>
        <time>2022-06-18T07:49:29Z</time>
      </trkpt>
      <trkpt lat="45.31445" lon="6.26432">
        <ele>835.9</ele>
        <time>2022-06-18T07:49:30Z</time>
      </trkpt>
      <trkpt lat="45.31441" lon="6.2643">
        <ele>836.2</ele>
        <time>2022-06-18T07:49:31Z</time>
      </trkpt>
      <trkpt lat="45.31438" lon="6.26429">
        <ele>836.5</ele>
        <time>2022-06-18T07:49:32Z</time>
      </trkpt>
      <trkpt lat="45.31436" lon="6.26429">
        <ele>836.7</ele>
        <time>2022-06-18T07:49:33Z</time>
      </trkpt>
      <trkpt lat="45.31432" lon="6.26428">
        <ele>837</ele>
        <time>2022-06-18T07:49:34Z</time>
      </trkpt>
      <trkpt lat="45.3143" lon="6.26427">
        <ele>837.2</ele>
        <time>2022-06-18T07:49:35Z</time>
      </trkpt>
      <trkpt lat="45.31428" lon="6.26427">
        <ele>837.5</ele>
        <time>2022-06-18T07:49:36Z</time>
      </trkpt>
      <trkpt lat="45.31424" lon="6.26426">
        <ele>837.8</ele>
        <time>2022-06-18T07:49:38Z</time>
      </trkpt>
      <trkpt lat="45.3142" lon="6.26426">
        <ele>838.2</ele>
        <time>2022-06-18T07:49:39Z</time>
      </trkpt>
      <trkpt lat="45.31416" lon="6.26426">
        <ele>838.7</ele>
        <time>2022-06-18T07:49:40Z</time>
      </trkpt>
      <trkpt lat="45.31413" lon="6.26426">
        <ele>839</ele>
        <time>2022-06-18T07:49:41Z</time>
      </trkpt>
      <trkpt lat="45.3141" lon="6.26425">
        <ele>839.3</ele>
        <time>2022-06-18T07:49:42Z</time>
      </trkpt>
      <trkpt lat="45.31406" lon="6.26426">
        <ele>839.7</ele>
        <time>2022-06-18T07:49:44Z</time>
      </trkpt>
      <trkpt lat="45.31402" lon="6.26426">
        <ele>840.1</ele>
        <time>2022-06-18T07:49:45Z</time>
      </trkpt>
      <trkpt lat="45.31398" lon="6.26427">
        <ele>840.5</ele>
        <time>2022-06-18T07:49:46Z</time>
      </trkpt>
      <trkpt lat="45.31395" lon="6.26428">
        <ele>840.8</ele>
        <time>2022-06-18T07:49:47Z</time>
      </trkpt>
      <trkpt lat="45.31392" lon="6.26429">
        <ele>841.2</ele>
        <time>2022-06-18T07:49:48Z</time>
      </trkpt>
      <trkpt lat="45.31389" lon="6.26429">
        <ele>841.5</ele>
        <time>2022-06-18T07:49:49Z</time>
      </trkpt>
      <trkpt lat="45.31384" lon="6.2643">
        <ele>842</ele>
        <time>2022-06-18T07:49:51Z</time>
      </trkpt>
      <trkpt lat="45.31381" lon="6.2643">
        <ele>842.3</ele>
        <time>2022-06-18T07:49:52Z</time>
      </trkpt>
      <trkpt lat="45.31377" lon="6.26429">
        <ele>842.8</ele>
        <time>2022-06-18T07:49:53Z</time>
      </trkpt>
      <trkpt lat="45.31372" lon="6.26428">
        <ele>843.3</ele>
        <time>2022-06-18T07:49:54Z</time>
      </trkpt>
      <trkpt lat="45.31368" lon="6.26427">
        <ele>843.8</ele>
        <time>2022-06-18T07:49:56Z</time>
      </trkpt>
      <trkpt lat="45.31363" lon="6.26427">
        <ele>844.4</ele>
        <time>2022-06-18T07:49:57Z</time>
      </trkpt>
      <trkpt lat="45.31359" lon="6.26426">
        <ele>844.9</ele>
        <time>2022-06-18T07:49:58Z</time>
      </trkpt>
      <trkpt lat="45.31351" lon="6.26424">
        <ele>845.8</ele>
        <time>2022-06-18T07:50:01Z</time>
      </trkpt>
      <trkpt lat="45.31348" lon="6.26423">
        <ele>846.3</ele>
        <time>2022-06-18T07:50:02Z</time>
      </trkpt>
      <trkpt lat="45.31344" lon="6.26422">
        <ele>846.8</ele>
        <time>2022-06-18T07:50:03Z</time>
      </trkpt>
      <trkpt lat="45.3134" lon="6.26422">
        <ele>847.3</ele>
        <time>2022-06-18T07:50:04Z</time>
      </trkpt>
      <trkpt lat="45.31336" lon="6.26421">
        <ele>847.7</ele>
        <time>2022-06-18T07:50:05Z</time>
      </trkpt>
      <trkpt lat="45.31333" lon="6.26421">
        <ele>848.1</ele>
        <time>2022-06-18T07:50:06Z</time>
      </trkpt>
      <trkpt lat="45.3133" lon="6.2642">
        <ele>848.4</ele>
        <time>2022-06-18T07:50:07Z</time>
      </trkpt>
      <trkpt lat="45.31326" lon="6.2642">
        <ele>848.9</ele>
        <time>2022-06-18T07:50:08Z</time>
      </trkpt>
      <trkpt lat="45.31322" lon="6.26418">
        <ele>849.4</ele>
        <time>2022-06-18T07:50:10Z</time>
      </trkpt>
      <trkpt lat="45.31317" lon="6.26414">
        <ele>850</ele>
        <time>2022-06-18T07:50:11Z</time>
      </trkpt>
      <trkpt lat="45.31314" lon="6.2641">
        <ele>850.4</ele>
        <time>2022-06-18T07:50:12Z</time>
      </trkpt>
      <trkpt lat="45.31312" lon="6.26406">
        <ele>850.8</ele>
        <time>2022-06-18T07:50:13Z</time>
      </trkpt>
      <trkpt lat="45.3131" lon="6.26402">
        <ele>851.1</ele>
        <time>2022-06-18T07:50:15Z</time>
      </trkpt>
      <trkpt lat="45.31309" lon="6.26398">
        <ele>851.4</ele>
        <time>2022-06-18T07:50:16Z</time>
      </trkpt>
      <trkpt lat="45.31307" lon="6.26393">
        <ele>851.8</ele>
        <time>2022-06-18T07:50:17Z</time>
      </trkpt>
      <trkpt lat="45.31307" lon="6.26389">
        <ele>852.1</ele>
        <time>2022-06-18T07:50:18Z</time>
      </trkpt>
      <trkpt lat="45.31306" lon="6.26384">
        <ele>852.4</ele>
        <time>2022-06-18T07:50:19Z</time>
      </trkpt>
      <trkpt lat="45.31305" lon="6.26379">
        <ele>852.7</ele>
        <time>2022-06-18T07:50:20Z</time>
      </trkpt>
      <trkpt lat="45.31304" lon="6.26374">
        <ele>853.1</ele>
        <time>2022-06-18T07:50:21Z</time>
      </trkpt>
      <trkpt lat="45.31303" lon="6.26371">
        <ele>853.3</ele>
        <time>2022-06-18T07:50:22Z</time>
      </trkpt>
      <trkpt lat="45.31302" lon="6.26362">
        <ele>854</ele>
        <time>2022-06-18T07:50:24Z</time>
      </trkpt>
      <trkpt lat="45.31301" lon="6.26356">
        <ele>854.4</ele>
        <time>2022-06-18T07:50:25Z</time>
      </trkpt>
      <trkpt lat="45.31301" lon="6.26349">
        <ele>854.8</ele>
        <time>2022-06-18T07:50:27Z</time>
      </trkpt>
      <trkpt lat="45.313" lon="6.26343">
        <ele>855.3</ele>
        <time>2022-06-18T07:50:28Z</time>
      </trkpt>
      <trkpt lat="45.313" lon="6.2634">
        <ele>855.5</ele>
        <time>2022-06-18T07:50:29Z</time>
      </trkpt>
      <trkpt lat="45.31303" lon="6.26335">
        <ele>855.8</ele>
        <time>2022-06-18T07:50:31Z</time>
      </trkpt>
      <trkpt lat="45.31306" lon="6.26332">
        <ele>856.1</ele>
        <time>2022-06-18T07:50:32Z</time>
      </trkpt>
      <trkpt lat="45.31311" lon="6.26328">
        <ele>856.4</ele>
        <time>2022-06-18T07:50:33Z</time>
      </trkpt>
      <trkpt lat="45.31315" lon="6.26326">
        <ele>856.6</ele>
        <time>2022-06-18T07:50:34Z</time>
      </trkpt>
      <trkpt lat="45.31318" lon="6.26324">
        <ele>856.8</ele>
        <time>2022-06-18T07:50:36Z</time>
      </trkpt>
      <trkpt lat="45.31323" lon="6.2632">
        <ele>856.9</ele>
        <time>2022-06-18T07:50:37Z</time>
      </trkpt>
      <trkpt lat="45.31325" lon="6.26316">
        <ele>857</ele>
        <time>2022-06-18T07:50:38Z</time>
      </trkpt>
      <trkpt lat="45.31326" lon="6.2631">
        <ele>857.1</ele>
        <time>2022-06-18T07:50:39Z</time>
      </trkpt>
      <trkpt lat="45.31327" lon="6.26303">
        <ele>857.3</ele>
        <time>2022-06-18T07:50:41Z</time>
      </trkpt>
      <trkpt lat="45.31327" lon="6.26293">
        <ele>857.5</ele>
        <time>2022-06-18T07:50:42Z</time>
      </trkpt>
      <trkpt lat="45.31327" lon="6.26285">
        <ele>857.7</ele>
        <time>2022-06-18T07:50:44Z</time>
      </trkpt>
      <trkpt lat="45.31327" lon="6.26276">
        <ele>858</ele>
        <time>2022-06-18T07:50:45Z</time>
      </trkpt>
      <trkpt lat="45.31326" lon="6.26269">
        <ele>858.4</ele>
        <time>2022-06-18T07:50:46Z</time>
      </trkpt>
      <trkpt lat="45.31326" lon="6.26263">
        <ele>858.6</ele>
        <time>2022-06-18T07:50:47Z</time>
      </trkpt>
      <trkpt lat="45.31326" lon="6.26256">
        <ele>859</ele>
        <time>2022-06-18T07:50:49Z</time>
      </trkpt>
      <trkpt lat="45.31327" lon="6.26246">
        <ele>859.6</ele>
        <time>2022-06-18T07:50:50Z</time>
      </trkpt>
      <trkpt lat="45.31328" lon="6.2624">
        <ele>860</ele>
        <time>2022-06-18T07:50:51Z</time>
      </trkpt>
      <trkpt lat="45.31328" lon="6.26231">
        <ele>860.5</ele>
        <time>2022-06-18T07:50:53Z</time>
      </trkpt>
      <trkpt lat="45.31328" lon="6.26223">
        <ele>861</ele>
        <time>2022-06-18T07:50:54Z</time>
      </trkpt>
      <trkpt lat="45.31325" lon="6.26216">
        <ele>861.6</ele>
        <time>2022-06-18T07:50:55Z</time>
      </trkpt>
      <trkpt lat="45.31322" lon="6.2621">
        <ele>862.2</ele>
        <time>2022-06-18T07:50:57Z</time>
      </trkpt>
      <trkpt lat="45.31318" lon="6.26206">
        <ele>862.1</ele>
        <time>2022-06-18T07:50:58Z</time>
      </trkpt>
      <trkpt lat="45.31311" lon="6.26204">
        <ele>862.1</ele>
        <time>2022-06-18T07:50:59Z</time>
      </trkpt>
      <trkpt lat="45.31306" lon="6.26201">
        <ele>862.1</ele>
        <time>2022-06-18T07:51:01Z</time>
      </trkpt>
      <trkpt lat="45.31297" lon="6.26206">
        <ele>862.1</ele>
        <time>2022-06-18T07:51:02Z</time>
      </trkpt>
      <trkpt lat="45.31292" lon="6.26208">
        <ele>862.1</ele>
        <time>2022-06-18T07:51:03Z</time>
      </trkpt>
      <trkpt lat="45.31289" lon="6.26212">
        <ele>862.1</ele>
        <time>2022-06-18T07:51:04Z</time>
      </trkpt>
      <trkpt lat="45.31286" lon="6.26216">
        <ele>862.1</ele>
        <time>2022-06-18T07:51:05Z</time>
      </trkpt>
      <trkpt lat="45.31284" lon="6.26222">
        <ele>862.2</ele>
        <time>2022-06-18T07:51:06Z</time>
      </trkpt>
      <trkpt lat="45.31284" lon="6.26225">
        <ele>862.2</ele>
        <time>2022-06-18T07:51:07Z</time>
      </trkpt>
      <trkpt lat="45.31282" lon="6.26232">
        <ele>862.4</ele>
        <time>2022-06-18T07:51:08Z</time>
      </trkpt>
      <trkpt lat="45.31281" lon="6.26241">
        <ele>862.5</ele>
        <time>2022-06-18T07:51:10Z</time>
      </trkpt>
      <trkpt lat="45.3128" lon="6.26248">
        <ele>862.6</ele>
        <time>2022-06-18T07:51:11Z</time>
      </trkpt>
      <trkpt lat="45.31278" lon="6.26255">
        <ele>862.6</ele>
        <time>2022-06-18T07:51:12Z</time>
      </trkpt>
      <trkpt lat="45.31274" lon="6.26259">
        <ele>862.6</ele>
        <time>2022-06-18T07:51:13Z</time>
      </trkpt>
      <trkpt lat="45.31269" lon="6.2626">
        <ele>862.6</ele>
        <time>2022-06-18T07:51:14Z</time>
      </trkpt>
      <trkpt lat="45.31263" lon="6.26259">
        <ele>862.6</ele>
        <time>2022-06-18T07:51:15Z</time>
      </trkpt>
      <trkpt lat="45.31257" lon="6.26259">
        <ele>862.5</ele>
        <time>2022-06-18T07:51:17Z</time>
      </trkpt>
      <trkpt lat="45.31253" lon="6.26258">
        <ele>862.4</ele>
        <time>2022-06-18T07:51:18Z</time>
      </trkpt>
      <trkpt lat="45.31246" lon="6.26258">
        <ele>862.4</ele>
        <time>2022-06-18T07:51:20Z</time>
      </trkpt>
      <trkpt lat="45.31241" lon="6.26258">
        <ele>862.4</ele>
        <time>2022-06-18T07:51:21Z</time>
      </trkpt>
      <trkpt lat="45.31236" lon="6.26256">
        <ele>862.4</ele>
        <time>2022-06-18T07:51:22Z</time>
      </trkpt>
      <trkpt lat="45.31232" lon="6.26254">
        <ele>862.5</ele>
        <time>2022-06-18T07:51:23Z</time>
      </trkpt>
      <trkpt lat="45.31229" lon="6.26252">
        <ele>862.5</ele>
        <time>2022-06-18T07:51:24Z</time>
      </trkpt>
      <trkpt lat="45.31225" lon="6.2625">
        <ele>862.6</ele>
        <time>2022-06-18T07:51:25Z</time>
      </trkpt>
      <trkpt lat="45.31222" lon="6.26248">
        <ele>862.7</ele>
        <time>2022-06-18T07:51:26Z</time>
      </trkpt>
      <trkpt lat="45.31216" lon="6.26246">
        <ele>862.9</ele>
        <time>2022-06-18T07:51:27Z</time>
      </trkpt>
      <trkpt lat="45.31213" lon="6.26245">
        <ele>863.1</ele>
        <time>2022-06-18T07:51:28Z</time>
      </trkpt>
      <trkpt lat="45.31209" lon="6.26245">
        <ele>863.3</ele>
        <time>2022-06-18T07:51:29Z</time>
      </trkpt>
      <trkpt lat="45.31202" lon="6.26243">
        <ele>863.7</ele>
        <time>2022-06-18T07:51:31Z</time>
      </trkpt>
      <trkpt lat="45.31197" lon="6.26242">
        <ele>863.9</ele>
        <time>2022-06-18T07:51:32Z</time>
      </trkpt>
      <trkpt lat="45.31192" lon="6.26241">
        <ele>864.3</ele>
        <time>2022-06-18T07:51:33Z</time>
      </trkpt>
      <trkpt lat="45.31187" lon="6.2624">
        <ele>864.7</ele>
        <time>2022-06-18T07:51:34Z</time>
      </trkpt>
      <trkpt lat="45.31183" lon="6.26239">
        <ele>864.9</ele>
        <time>2022-06-18T07:51:35Z</time>
      </trkpt>
      <trkpt lat="45.31177" lon="6.26239">
        <ele>865.4</ele>
        <time>2022-06-18T07:51:37Z</time>
      </trkpt>
      <trkpt lat="45.31173" lon="6.26239">
        <ele>865.7</ele>
        <time>2022-06-18T07:51:38Z</time>
      </trkpt>
      <trkpt lat="45.31169" lon="6.26239">
        <ele>866.1</ele>
        <time>2022-06-18T07:51:39Z</time>
      </trkpt>
      <trkpt lat="45.31165" lon="6.26238">
        <ele>866.3</ele>
        <time>2022-06-18T07:51:40Z</time>
      </trkpt>
      <trkpt lat="45.31161" lon="6.26237">
        <ele>866.6</ele>
        <time>2022-06-18T07:51:41Z</time>
      </trkpt>
      <trkpt lat="45.31158" lon="6.26237">
        <ele>866.9</ele>
        <time>2022-06-18T07:51:42Z</time>
      </trkpt>
      <trkpt lat="45.31153" lon="6.26237">
        <ele>867.3</ele>
        <time>2022-06-18T07:51:44Z</time>
      </trkpt>
      <trkpt lat="45.31147" lon="6.26237">
        <ele>867.7</ele>
        <time>2022-06-18T07:51:45Z</time>
      </trkpt>
      <trkpt lat="45.31144" lon="6.26235">
        <ele>867.9</ele>
        <time>2022-06-18T07:51:46Z</time>
      </trkpt>
      <trkpt lat="45.31141" lon="6.26233">
        <ele>868.1</ele>
        <time>2022-06-18T07:51:47Z</time>
      </trkpt>
      <trkpt lat="45.31137" lon="6.26231">
        <ele>868.4</ele>
        <time>2022-06-18T07:51:49Z</time>
      </trkpt>
      <trkpt lat="45.31134" lon="6.26228">
        <ele>868.6</ele>
        <time>2022-06-18T07:51:50Z</time>
      </trkpt>
      <trkpt lat="45.31131" lon="6.26224">
        <ele>868.8</ele>
        <time>2022-06-18T07:51:51Z</time>
      </trkpt>
      <trkpt lat="45.31128" lon="6.2622">
        <ele>869</ele>
        <time>2022-06-18T07:51:52Z</time>
      </trkpt>
      <trkpt lat="45.31126" lon="6.26216">
        <ele>869.2</ele>
        <time>2022-06-18T07:51:53Z</time>
      </trkpt>
      <trkpt lat="45.31124" lon="6.26213">
        <ele>869.3</ele>
        <time>2022-06-18T07:51:54Z</time>
      </trkpt>
      <trkpt lat="45.31121" lon="6.2621">
        <ele>869.5</ele>
        <time>2022-06-18T07:51:56Z</time>
      </trkpt>
      <trkpt lat="45.31117" lon="6.26207">
        <ele>869.7</ele>
        <time>2022-06-18T07:51:57Z</time>
      </trkpt>
      <trkpt lat="45.31115" lon="6.26204">
        <ele>869.9</ele>
        <time>2022-06-18T07:51:58Z</time>
      </trkpt>
      <trkpt lat="45.31111" lon="6.26201">
        <ele>870.2</ele>
        <time>2022-06-18T07:51:59Z</time>
      </trkpt>
      <trkpt lat="45.31106" lon="6.26196">
        <ele>870.7</ele>
        <time>2022-06-18T07:52:01Z</time>
      </trkpt>
      <trkpt lat="45.31104" lon="6.26193">
        <ele>870.9</ele>
        <time>2022-06-18T07:52:02Z</time>
      </trkpt>
      <trkpt lat="45.311" lon="6.26189">
        <ele>871.3</ele>
        <time>2022-06-18T07:52:04Z</time>
      </trkpt>
      <trkpt lat="45.31096" lon="6.26185">
        <ele>871.8</ele>
        <time>2022-06-18T07:52:05Z</time>
      </trkpt>
      <trkpt lat="45.31092" lon="6.26181">
        <ele>872.2</ele>
        <time>2022-06-18T07:52:07Z</time>
      </trkpt>
      <trkpt lat="45.3109" lon="6.26179">
        <ele>872.6</ele>
        <time>2022-06-18T07:52:08Z</time>
      </trkpt>
      <trkpt lat="45.31087" lon="6.26178">
        <ele>872.9</ele>
        <time>2022-06-18T07:52:09Z</time>
      </trkpt>
      <trkpt lat="45.31083" lon="6.26176">
        <ele>873.3</ele>
        <time>2022-06-18T07:52:10Z</time>
      </trkpt>
      <trkpt lat="45.3108" lon="6.26174">
        <ele>873.7</ele>
        <time>2022-06-18T07:52:11Z</time>
      </trkpt>
      <trkpt lat="45.31076" lon="6.26171">
        <ele>874.2</ele>
        <time>2022-06-18T07:52:13Z</time>
      </trkpt>
      <trkpt lat="45.31073" lon="6.2617">
        <ele>874.5</ele>
        <time>2022-06-18T07:52:14Z</time>
      </trkpt>
      <trkpt lat="45.31069" lon="6.26168">
        <ele>875</ele>
        <time>2022-06-18T07:52:15Z</time>
      </trkpt>
      <trkpt lat="45.31066" lon="6.26166">
        <ele>875.3</ele>
        <time>2022-06-18T07:52:16Z</time>
      </trkpt>
      <trkpt lat="45.31062" lon="6.26161">
        <ele>875.9</ele>
        <time>2022-06-18T07:52:18Z</time>
      </trkpt>
      <trkpt lat="45.3106" lon="6.26156">
        <ele>876.2</ele>
        <time>2022-06-18T07:52:19Z</time>
      </trkpt>
      <trkpt lat="45.31058" lon="6.26152">
        <ele>876.5</ele>
        <time>2022-06-18T07:52:20Z</time>
      </trkpt>
      <trkpt lat="45.31057" lon="6.26146">
        <ele>876.8</ele>
        <time>2022-06-18T07:52:21Z</time>
      </trkpt>
      <trkpt lat="45.31056" lon="6.26141">
        <ele>877</ele>
        <time>2022-06-18T07:52:22Z</time>
      </trkpt>
      <trkpt lat="45.31056" lon="6.26136">
        <ele>877.2</ele>
        <time>2022-06-18T07:52:23Z</time>
      </trkpt>
      <trkpt lat="45.31057" lon="6.26131">
        <ele>877.3</ele>
        <time>2022-06-18T07:52:25Z</time>
      </trkpt>
      <trkpt lat="45.31057" lon="6.26127">
        <ele>877.4</ele>
        <time>2022-06-18T07:52:26Z</time>
      </trkpt>
      <trkpt lat="45.31058" lon="6.26122">
        <ele>877.6</ele>
        <time>2022-06-18T07:52:27Z</time>
      </trkpt>
      <trkpt lat="45.31059" lon="6.26118">
        <ele>877.7</ele>
        <time>2022-06-18T07:52:28Z</time>
      </trkpt>
      <trkpt lat="45.31061" lon="6.26114">
        <ele>877.8</ele>
        <time>2022-06-18T07:52:29Z</time>
      </trkpt>
      <trkpt lat="45.31063" lon="6.26109">
        <ele>877.9</ele>
        <time>2022-06-18T07:52:30Z</time>
      </trkpt>
      <trkpt lat="45.31063" lon="6.26104">
        <ele>878</ele>
        <time>2022-06-18T07:52:31Z</time>
      </trkpt>
      <trkpt lat="45.31063" lon="6.26097">
        <ele>878.1</ele>
        <time>2022-06-18T07:52:33Z</time>
      </trkpt>
      <trkpt lat="45.31064" lon="6.26094">
        <ele>878.2</ele>
        <time>2022-06-18T07:52:34Z</time>
      </trkpt>
      <trkpt lat="45.31064" lon="6.26092">
        <ele>878.2</ele>
        <time>2022-06-18T07:52:35Z</time>
      </trkpt>
      <trkpt lat="45.31065" lon="6.26087">
        <ele>878.4</ele>
        <time>2022-06-18T07:52:36Z</time>
      </trkpt>
      <trkpt lat="45.31065" lon="6.26082">
        <ele>878.5</ele>
        <time>2022-06-18T07:52:37Z</time>
      </trkpt>
      <trkpt lat="45.31065" lon="6.26077">
        <ele>878.7</ele>
        <time>2022-06-18T07:52:38Z</time>
      </trkpt>
      <trkpt lat="45.31065" lon="6.26072">
        <ele>878.8</ele>
        <time>2022-06-18T07:52:39Z</time>
      </trkpt>
      <trkpt lat="45.31064" lon="6.26066">
        <ele>879.1</ele>
        <time>2022-06-18T07:52:41Z</time>
      </trkpt>
      <trkpt lat="45.31063" lon="6.2606">
        <ele>879.3</ele>
        <time>2022-06-18T07:52:42Z</time>
      </trkpt>
      <trkpt lat="45.31062" lon="6.26055">
        <ele>879.5</ele>
        <time>2022-06-18T07:52:43Z</time>
      </trkpt>
      <trkpt lat="45.31061" lon="6.26049">
        <ele>879.7</ele>
        <time>2022-06-18T07:52:44Z</time>
      </trkpt>
      <trkpt lat="45.31061" lon="6.26045">
        <ele>879.9</ele>
        <time>2022-06-18T07:52:45Z</time>
      </trkpt>
      <trkpt lat="45.31063" lon="6.26037">
        <ele>880.2</ele>
        <time>2022-06-18T07:52:47Z</time>
      </trkpt>
      <trkpt lat="45.31065" lon="6.2603">
        <ele>880.5</ele>
        <time>2022-06-18T07:52:48Z</time>
      </trkpt>
      <trkpt lat="45.31067" lon="6.26026">
        <ele>880.7</ele>
        <time>2022-06-18T07:52:49Z</time>
      </trkpt>
      <trkpt lat="45.31069" lon="6.26021">
        <ele>880.9</ele>
        <time>2022-06-18T07:52:51Z</time>
      </trkpt>
      <trkpt lat="45.3107" lon="6.26018">
        <ele>881</ele>
        <time>2022-06-18T07:52:52Z</time>
      </trkpt>
      <trkpt lat="45.31072" lon="6.26014">
        <ele>881.1</ele>
        <time>2022-06-18T07:52:53Z</time>
      </trkpt>
      <trkpt lat="45.31073" lon="6.2601">
        <ele>881.2</ele>
        <time>2022-06-18T07:52:54Z</time>
      </trkpt>
      <trkpt lat="45.31075" lon="6.26006">
        <ele>881.3</ele>
        <time>2022-06-18T07:52:56Z</time>
      </trkpt>
      <trkpt lat="45.31076" lon="6.26002">
        <ele>881.4</ele>
        <time>2022-06-18T07:52:57Z</time>
      </trkpt>
      <trkpt lat="45.31078" lon="6.25997">
        <ele>881.5</ele>
        <time>2022-06-18T07:52:58Z</time>
      </trkpt>
      <trkpt lat="45.3108" lon="6.2599">
        <ele>881.6</ele>
        <time>2022-06-18T07:53:00Z</time>
      </trkpt>
      <trkpt lat="45.3108" lon="6.25988">
        <ele>881.7</ele>
        <time>2022-06-18T07:53:01Z</time>
      </trkpt>
      <trkpt lat="45.3108" lon="6.25986">
        <ele>881.7</ele>
        <time>2022-06-18T07:53:02Z</time>
      </trkpt>
      <trkpt lat="45.31081" lon="6.25979">
        <ele>881.8</ele>
        <time>2022-06-18T07:53:04Z</time>
      </trkpt>
      <trkpt lat="45.31082" lon="6.25974">
        <ele>881.9</ele>
        <time>2022-06-18T07:53:05Z</time>
      </trkpt>
      <trkpt lat="45.31082" lon="6.2597">
        <ele>881.9</ele>
        <time>2022-06-18T07:53:06Z</time>
      </trkpt>
      <trkpt lat="45.31083" lon="6.25965">
        <ele>882</ele>
        <time>2022-06-18T07:53:07Z</time>
      </trkpt>
      <trkpt lat="45.31085" lon="6.25955">
        <ele>882.1</ele>
        <time>2022-06-18T07:53:09Z</time>
      </trkpt>
      <trkpt lat="45.31086" lon="6.25949">
        <ele>882.2</ele>
        <time>2022-06-18T07:53:10Z</time>
      </trkpt>
      <trkpt lat="45.31088" lon="6.25943">
        <ele>882.3</ele>
        <time>2022-06-18T07:53:11Z</time>
      </trkpt>
      <trkpt lat="45.31088" lon="6.25939">
        <ele>882.4</ele>
        <time>2022-06-18T07:53:12Z</time>
      </trkpt>
      <trkpt lat="45.31089" lon="6.25934">
        <ele>882.5</ele>
        <time>2022-06-18T07:53:13Z</time>
      </trkpt>
      <trkpt lat="45.31089" lon="6.25928">
        <ele>882.6</ele>
        <time>2022-06-18T07:53:14Z</time>
      </trkpt>
      <trkpt lat="45.31089" lon="6.25917">
        <ele>882.8</ele>
        <time>2022-06-18T07:53:16Z</time>
      </trkpt>
      <trkpt lat="45.31089" lon="6.2591">
        <ele>883</ele>
        <time>2022-06-18T07:53:17Z</time>
      </trkpt>
      <trkpt lat="45.31089" lon="6.25903">
        <ele>883.2</ele>
        <time>2022-06-18T07:53:18Z</time>
      </trkpt>
      <trkpt lat="45.31089" lon="6.25893">
        <ele>883.5</ele>
        <time>2022-06-18T07:53:20Z</time>
      </trkpt>
      <trkpt lat="45.31088" lon="6.25889">
        <ele>883.6</ele>
        <time>2022-06-18T07:53:21Z</time>
      </trkpt>
      <trkpt lat="45.31088" lon="6.25886">
        <ele>883.6</ele>
        <time>2022-06-18T07:53:22Z</time>
      </trkpt>
      <trkpt lat="45.31087" lon="6.25881">
        <ele>883.8</ele>
        <time>2022-06-18T07:53:24Z</time>
      </trkpt>
      <trkpt lat="45.31087" lon="6.25875">
        <ele>883.9</ele>
        <time>2022-06-18T07:53:25Z</time>
      </trkpt>
      <trkpt lat="45.31085" lon="6.2587">
        <ele>884.1</ele>
        <time>2022-06-18T07:53:26Z</time>
      </trkpt>
      <trkpt lat="45.31085" lon="6.25863">
        <ele>884.2</ele>
        <time>2022-06-18T07:53:28Z</time>
      </trkpt>
      <trkpt lat="45.31084" lon="6.25857">
        <ele>884.4</ele>
        <time>2022-06-18T07:53:29Z</time>
      </trkpt>
      <trkpt lat="45.31084" lon="6.25852">
        <ele>884.6</ele>
        <time>2022-06-18T07:53:30Z</time>
      </trkpt>
      <trkpt lat="45.31083" lon="6.25848">
        <ele>884.7</ele>
        <time>2022-06-18T07:53:31Z</time>
      </trkpt>
      <trkpt lat="45.31083" lon="6.2584">
        <ele>884.9</ele>
        <time>2022-06-18T07:53:33Z</time>
      </trkpt>
      <trkpt lat="45.31084" lon="6.25833">
        <ele>885.2</ele>
        <time>2022-06-18T07:53:34Z</time>
      </trkpt>
      <trkpt lat="45.31084" lon="6.25828">
        <ele>885.8</ele>
        <time>2022-06-18T07:53:35Z</time>
      </trkpt>
      <trkpt lat="45.31084" lon="6.25823">
        <ele>886.3</ele>
        <time>2022-06-18T07:53:36Z</time>
      </trkpt>
      <trkpt lat="45.31085" lon="6.25816">
        <ele>887</ele>
        <time>2022-06-18T07:53:38Z</time>
      </trkpt>
      <trkpt lat="45.31086" lon="6.2581">
        <ele>887.6</ele>
        <time>2022-06-18T07:53:39Z</time>
      </trkpt>
      <trkpt lat="45.31086" lon="6.25806">
        <ele>888.1</ele>
        <time>2022-06-18T07:53:40Z</time>
      </trkpt>
      <trkpt lat="45.31087" lon="6.25798">
        <ele>889</ele>
        <time>2022-06-18T07:53:42Z</time>
      </trkpt>
      <trkpt lat="45.31086" lon="6.25789">
        <ele>889.9</ele>
        <time>2022-06-18T07:53:43Z</time>
      </trkpt>
      <trkpt lat="45.31087" lon="6.25782">
        <ele>890.6</ele>
        <time>2022-06-18T07:53:44Z</time>
      </trkpt>
      <trkpt lat="45.31088" lon="6.25775">
        <ele>891.4</ele>
        <time>2022-06-18T07:53:46Z</time>
      </trkpt>
      <trkpt lat="45.31089" lon="6.25765">
        <ele>892.5</ele>
        <time>2022-06-18T07:53:47Z</time>
      </trkpt>
      <trkpt lat="45.31091" lon="6.25755">
        <ele>893.6</ele>
        <time>2022-06-18T07:53:48Z</time>
      </trkpt>
      <trkpt lat="45.31092" lon="6.25749">
        <ele>894.3</ele>
        <time>2022-06-18T07:53:49Z</time>
      </trkpt>
      <trkpt lat="45.31095" lon="6.25745">
        <ele>895</ele>
        <time>2022-06-18T07:53:51Z</time>
      </trkpt>
      <trkpt lat="45.31096" lon="6.25737">
        <ele>895.8</ele>
        <time>2022-06-18T07:53:52Z</time>
      </trkpt>
      <trkpt lat="45.31096" lon="6.25729">
        <ele>896.6</ele>
        <time>2022-06-18T07:53:53Z</time>
      </trkpt>
      <trkpt lat="45.31096" lon="6.25722">
        <ele>897.3</ele>
        <time>2022-06-18T07:53:54Z</time>
      </trkpt>
      <trkpt lat="45.31095" lon="6.25717">
        <ele>897.8</ele>
        <time>2022-06-18T07:53:55Z</time>
      </trkpt>
      <trkpt lat="45.31093" lon="6.25712">
        <ele>898.3</ele>
        <time>2022-06-18T07:53:56Z</time>
      </trkpt>
      <trkpt lat="45.31089" lon="6.25708">
        <ele>899</ele>
        <time>2022-06-18T07:53:57Z</time>
      </trkpt>
      <trkpt lat="45.31085" lon="6.25704">
        <ele>899.6</ele>
        <time>2022-06-18T07:53:58Z</time>
      </trkpt>
      <trkpt lat="45.3108" lon="6.25702">
        <ele>900.3</ele>
        <time>2022-06-18T07:53:59Z</time>
      </trkpt>
      <trkpt lat="45.31075" lon="6.257">
        <ele>900.9</ele>
        <time>2022-06-18T07:54:00Z</time>
      </trkpt>
      <trkpt lat="45.3107" lon="6.25698">
        <ele>901.6</ele>
        <time>2022-06-18T07:54:01Z</time>
      </trkpt>
      <trkpt lat="45.31065" lon="6.25696">
        <ele>902.2</ele>
        <time>2022-06-18T07:54:02Z</time>
      </trkpt>
      <trkpt lat="45.3106" lon="6.25695">
        <ele>902.5</ele>
        <time>2022-06-18T07:54:03Z</time>
      </trkpt>
      <trkpt lat="45.31056" lon="6.25694">
        <ele>902.7</ele>
        <time>2022-06-18T07:54:04Z</time>
      </trkpt>
      <trkpt lat="45.31051" lon="6.25693">
        <ele>902.8</ele>
        <time>2022-06-18T07:54:05Z</time>
      </trkpt>
      <trkpt lat="45.31046" lon="6.25696">
        <ele>903</ele>
        <time>2022-06-18T07:54:07Z</time>
      </trkpt>
      <trkpt lat="45.3104" lon="6.25693">
        <ele>903.2</ele>
        <time>2022-06-18T07:54:08Z</time>
      </trkpt>
      <trkpt lat="45.31036" lon="6.25689">
        <ele>903.3</ele>
        <time>2022-06-18T07:54:09Z</time>
      </trkpt>
      <trkpt lat="45.31031" lon="6.25684">
        <ele>903.6</ele>
        <time>2022-06-18T07:54:11Z</time>
      </trkpt>
      <trkpt lat="45.31028" lon="6.25682">
        <ele>903.7</ele>
        <time>2022-06-18T07:54:12Z</time>
      </trkpt>
      <trkpt lat="45.31024" lon="6.2568">
        <ele>903.9</ele>
        <time>2022-06-18T07:54:13Z</time>
      </trkpt>
      <trkpt lat="45.3102" lon="6.25679">
        <ele>904.1</ele>
        <time>2022-06-18T07:54:14Z</time>
      </trkpt>
      <trkpt lat="45.31017" lon="6.25678">
        <ele>904.3</ele>
        <time>2022-06-18T07:54:15Z</time>
      </trkpt>
      <trkpt lat="45.31014" lon="6.25676">
        <ele>904.5</ele>
        <time>2022-06-18T07:54:16Z</time>
      </trkpt>
      <trkpt lat="45.3101" lon="6.25674">
        <ele>904.8</ele>
        <time>2022-06-18T07:54:18Z</time>
      </trkpt>
      <trkpt lat="45.31006" lon="6.25673">
        <ele>905</ele>
        <time>2022-06-18T07:54:19Z</time>
      </trkpt>
      <trkpt lat="45.31001" lon="6.25671">
        <ele>905.4</ele>
        <time>2022-06-18T07:54:20Z</time>
      </trkpt>
      <trkpt lat="45.30997" lon="6.25669">
        <ele>905.8</ele>
        <time>2022-06-18T07:54:22Z</time>
      </trkpt>
      <trkpt lat="45.30993" lon="6.25666">
        <ele>906.1</ele>
        <time>2022-06-18T07:54:23Z</time>
      </trkpt>
      <trkpt lat="45.3099" lon="6.25664">
        <ele>906.4</ele>
        <time>2022-06-18T07:54:24Z</time>
      </trkpt>
      <trkpt lat="45.30987" lon="6.25662">
        <ele>906.7</ele>
        <time>2022-06-18T07:54:25Z</time>
      </trkpt>
      <trkpt lat="45.30984" lon="6.2566">
        <ele>907</ele>
        <time>2022-06-18T07:54:27Z</time>
      </trkpt>
      <trkpt lat="45.30979" lon="6.25659">
        <ele>907.4</ele>
        <time>2022-06-18T07:54:28Z</time>
      </trkpt>
      <trkpt lat="45.30976" lon="6.25659">
        <ele>907.6</ele>
        <time>2022-06-18T07:54:29Z</time>
      </trkpt>
      <trkpt lat="45.30971" lon="6.2566">
        <ele>908.1</ele>
        <time>2022-06-18T07:54:30Z</time>
      </trkpt>
      <trkpt lat="45.30967" lon="6.25663">
        <ele>908.4</ele>
        <time>2022-06-18T07:54:31Z</time>
      </trkpt>
      <trkpt lat="45.30962" lon="6.25665">
        <ele>908.9</ele>
        <time>2022-06-18T07:54:33Z</time>
      </trkpt>
      <trkpt lat="45.30959" lon="6.25667">
        <ele>909.2</ele>
        <time>2022-06-18T07:54:34Z</time>
      </trkpt>
      <trkpt lat="45.30956" lon="6.25668">
        <ele>909.5</ele>
        <time>2022-06-18T07:54:35Z</time>
      </trkpt>
      <trkpt lat="45.30952" lon="6.25668">
        <ele>909.9</ele>
        <time>2022-06-18T07:54:36Z</time>
      </trkpt>
      <trkpt lat="45.30948" lon="6.25668">
        <ele>910.2</ele>
        <time>2022-06-18T07:54:37Z</time>
      </trkpt>
      <trkpt lat="45.30945" lon="6.25667">
        <ele>910.5</ele>
        <time>2022-06-18T07:54:38Z</time>
      </trkpt>
      <trkpt lat="45.30942" lon="6.25666">
        <ele>910.9</ele>
        <time>2022-06-18T07:54:39Z</time>
      </trkpt>
      <trkpt lat="45.30939" lon="6.25665">
        <ele>911.2</ele>
        <time>2022-06-18T07:54:40Z</time>
      </trkpt>
      <trkpt lat="45.30935" lon="6.25665">
        <ele>911.5</ele>
        <time>2022-06-18T07:54:41Z</time>
      </trkpt>
      <trkpt lat="45.30932" lon="6.25665">
        <ele>911.8</ele>
        <time>2022-06-18T07:54:42Z</time>
      </trkpt>
      <trkpt lat="45.30929" lon="6.25666">
        <ele>912.1</ele>
        <time>2022-06-18T07:54:43Z</time>
      </trkpt>
      <trkpt lat="45.30925" lon="6.25666">
        <ele>912.4</ele>
        <time>2022-06-18T07:54:44Z</time>
      </trkpt>
      <trkpt lat="45.30922" lon="6.25667">
        <ele>912.7</ele>
        <time>2022-06-18T07:54:45Z</time>
      </trkpt>
      <trkpt lat="45.30919" lon="6.25667">
        <ele>913.1</ele>
        <time>2022-06-18T07:54:46Z</time>
      </trkpt>
      <trkpt lat="45.30915" lon="6.25667">
        <ele>913.5</ele>
        <time>2022-06-18T07:54:47Z</time>
      </trkpt>
      <trkpt lat="45.30911" lon="6.25666">
        <ele>913.8</ele>
        <time>2022-06-18T07:54:48Z</time>
      </trkpt>
      <trkpt lat="45.30908" lon="6.25663">
        <ele>914.2</ele>
        <time>2022-06-18T07:54:49Z</time>
      </trkpt>
      <trkpt lat="45.30903" lon="6.25661">
        <ele>914.7</ele>
        <time>2022-06-18T07:54:51Z</time>
      </trkpt>
      <trkpt lat="45.309" lon="6.25661">
        <ele>915</ele>
        <time>2022-06-18T07:54:52Z</time>
      </trkpt>
      <trkpt lat="45.30896" lon="6.2566">
        <ele>915.4</ele>
        <time>2022-06-18T07:54:53Z</time>
      </trkpt>
      <trkpt lat="45.30893" lon="6.25659">
        <ele>915.7</ele>
        <time>2022-06-18T07:54:54Z</time>
      </trkpt>
      <trkpt lat="45.3089" lon="6.25659">
        <ele>916.1</ele>
        <time>2022-06-18T07:54:55Z</time>
      </trkpt>
      <trkpt lat="45.30887" lon="6.25658">
        <ele>916.4</ele>
        <time>2022-06-18T07:54:56Z</time>
      </trkpt>
      <trkpt lat="45.30885" lon="6.25658">
        <ele>916.6</ele>
        <time>2022-06-18T07:54:57Z</time>
      </trkpt>
      <trkpt lat="45.30881" lon="6.25656">
        <ele>917</ele>
        <time>2022-06-18T07:54:59Z</time>
      </trkpt>
      <trkpt lat="45.30878" lon="6.25655">
        <ele>917.4</ele>
        <time>2022-06-18T07:55:00Z</time>
      </trkpt>
      <trkpt lat="45.30874" lon="6.25654">
        <ele>917.7</ele>
        <time>2022-06-18T07:55:01Z</time>
      </trkpt>
      <trkpt lat="45.30871" lon="6.25653">
        <ele>918</ele>
        <time>2022-06-18T07:55:02Z</time>
      </trkpt>
      <trkpt lat="45.30868" lon="6.25653">
        <ele>918.3</ele>
        <time>2022-06-18T07:55:03Z</time>
      </trkpt>
      <trkpt lat="45.30865" lon="6.25652">
        <ele>918.6</ele>
        <time>2022-06-18T07:55:04Z</time>
      </trkpt>
      <trkpt lat="45.3086" lon="6.25651">
        <ele>919</ele>
        <time>2022-06-18T07:55:06Z</time>
      </trkpt>
      <trkpt lat="45.30856" lon="6.25648">
        <ele>919.5</ele>
        <time>2022-06-18T07:55:07Z</time>
      </trkpt>
      <trkpt lat="45.30853" lon="6.25646">
        <ele>919.7</ele>
        <time>2022-06-18T07:55:08Z</time>
      </trkpt>
      <trkpt lat="45.3085" lon="6.25643">
        <ele>920</ele>
        <time>2022-06-18T07:55:09Z</time>
      </trkpt>
      <trkpt lat="45.30849" lon="6.25642">
        <ele>920.1</ele>
        <time>2022-06-18T07:55:10Z</time>
      </trkpt>
      <trkpt lat="45.30847" lon="6.25638">
        <ele>920.4</ele>
        <time>2022-06-18T07:55:11Z</time>
      </trkpt>
      <trkpt lat="45.30846" lon="6.25636">
        <ele>920.5</ele>
        <time>2022-06-18T07:55:12Z</time>
      </trkpt>
      <trkpt lat="45.30844" lon="6.25633">
        <ele>920.7</ele>
        <time>2022-06-18T07:55:13Z</time>
      </trkpt>
      <trkpt lat="45.30843" lon="6.25628">
        <ele>920.9</ele>
        <time>2022-06-18T07:55:14Z</time>
      </trkpt>
      <trkpt lat="45.30841" lon="6.25624">
        <ele>921.1</ele>
        <time>2022-06-18T07:55:15Z</time>
      </trkpt>
      <trkpt lat="45.30839" lon="6.2562">
        <ele>921.4</ele>
        <time>2022-06-18T07:55:16Z</time>
      </trkpt>
      <trkpt lat="45.30838" lon="6.25618">
        <ele>921.5</ele>
        <time>2022-06-18T07:55:17Z</time>
      </trkpt>
      <trkpt lat="45.30837" lon="6.25617">
        <ele>921.6</ele>
        <time>2022-06-18T07:55:18Z</time>
      </trkpt>
      <trkpt lat="45.30836" lon="6.25614">
        <ele>921.7</ele>
        <time>2022-06-18T07:55:19Z</time>
      </trkpt>
      <trkpt lat="45.30834" lon="6.2561">
        <ele>921.9</ele>
        <time>2022-06-18T07:55:20Z</time>
      </trkpt>
      <trkpt lat="45.30833" lon="6.25609">
        <ele>922</ele>
        <time>2022-06-18T07:55:21Z</time>
      </trkpt>
      <trkpt lat="45.30831" lon="6.25604">
        <ele>922.3</ele>
        <time>2022-06-18T07:55:22Z</time>
      </trkpt>
      <trkpt lat="45.30828" lon="6.25596">
        <ele>922.8</ele>
        <time>2022-06-18T07:55:24Z</time>
      </trkpt>
      <trkpt lat="45.30826" lon="6.25586">
        <ele>923.3</ele>
        <time>2022-06-18T07:55:25Z</time>
      </trkpt>
      <trkpt lat="45.30823" lon="6.2558">
        <ele>923.7</ele>
        <time>2022-06-18T07:55:26Z</time>
      </trkpt>
      <trkpt lat="45.30821" lon="6.25569">
        <ele>924.4</ele>
        <time>2022-06-18T07:55:28Z</time>
      </trkpt>
      <trkpt lat="45.30819" lon="6.25562">
        <ele>924.9</ele>
        <time>2022-06-18T07:55:29Z</time>
      </trkpt>
      <trkpt lat="45.30817" lon="6.25556">
        <ele>925.3</ele>
        <time>2022-06-18T07:55:30Z</time>
      </trkpt>
      <trkpt lat="45.30813" lon="6.25552">
        <ele>925.7</ele>
        <time>2022-06-18T07:55:31Z</time>
      </trkpt>
      <trkpt lat="45.3081" lon="6.25549">
        <ele>926</ele>
        <time>2022-06-18T07:55:33Z</time>
      </trkpt>
      <trkpt lat="45.30805" lon="6.25549">
        <ele>926.3</ele>
        <time>2022-06-18T07:55:34Z</time>
      </trkpt>
      <trkpt lat="45.30797" lon="6.25548">
        <ele>926.9</ele>
        <time>2022-06-18T07:55:35Z</time>
      </trkpt>
      <trkpt lat="45.30792" lon="6.25549">
        <ele>927.2</ele>
        <time>2022-06-18T07:55:36Z</time>
      </trkpt>
      <trkpt lat="45.30788" lon="6.25549">
        <ele>927.4</ele>
        <time>2022-06-18T07:55:37Z</time>
      </trkpt>
      <trkpt lat="45.30782" lon="6.2555">
        <ele>927.9</ele>
        <time>2022-06-18T07:55:39Z</time>
      </trkpt>
      <trkpt lat="45.30776" lon="6.2555">
        <ele>928.2</ele>
        <time>2022-06-18T07:55:40Z</time>
      </trkpt>
      <trkpt lat="45.30771" lon="6.25547">
        <ele>928.6</ele>
        <time>2022-06-18T07:55:42Z</time>
      </trkpt>
      <trkpt lat="45.30766" lon="6.25544">
        <ele>928.9</ele>
        <time>2022-06-18T07:55:43Z</time>
      </trkpt>
      <trkpt lat="45.30763" lon="6.25536">
        <ele>929.2</ele>
        <time>2022-06-18T07:55:44Z</time>
      </trkpt>
      <trkpt lat="45.3076" lon="6.25528">
        <ele>929.4</ele>
        <time>2022-06-18T07:55:46Z</time>
      </trkpt>
      <trkpt lat="45.30758" lon="6.25522">
        <ele>929.5</ele>
        <time>2022-06-18T07:55:47Z</time>
      </trkpt>
      <trkpt lat="45.30756" lon="6.25517">
        <ele>929.6</ele>
        <time>2022-06-18T07:55:48Z</time>
      </trkpt>
      <trkpt lat="45.30755" lon="6.25512">
        <ele>929.6</ele>
        <time>2022-06-18T07:55:50Z</time>
      </trkpt>
      <trkpt lat="45.30753" lon="6.25505">
        <ele>929.7</ele>
        <time>2022-06-18T07:55:51Z</time>
      </trkpt>
      <trkpt lat="45.30751" lon="6.25499">
        <ele>929.8</ele>
        <time>2022-06-18T07:55:52Z</time>
      </trkpt>
      <trkpt lat="45.30749" lon="6.25495">
        <ele>929.9</ele>
        <time>2022-06-18T07:55:53Z</time>
      </trkpt>
      <trkpt lat="45.30748" lon="6.25491">
        <ele>930</ele>
        <time>2022-06-18T07:55:54Z</time>
      </trkpt>
      <trkpt lat="45.30744" lon="6.25483">
        <ele>930.2</ele>
        <time>2022-06-18T07:55:56Z</time>
      </trkpt>
      <trkpt lat="45.30741" lon="6.25477">
        <ele>930.4</ele>
        <time>2022-06-18T07:55:58Z</time>
      </trkpt>
      <trkpt lat="45.30738" lon="6.25474">
        <ele>930.6</ele>
        <time>2022-06-18T07:55:59Z</time>
      </trkpt>
      <trkpt lat="45.30735" lon="6.2547">
        <ele>930.8</ele>
        <time>2022-06-18T07:56:00Z</time>
      </trkpt>
      <trkpt lat="45.30733" lon="6.25466">
        <ele>931</ele>
        <time>2022-06-18T07:56:01Z</time>
      </trkpt>
      <trkpt lat="45.30731" lon="6.25462">
        <ele>931.2</ele>
        <time>2022-06-18T07:56:02Z</time>
      </trkpt>
      <trkpt lat="45.30728" lon="6.25458">
        <ele>931.5</ele>
        <time>2022-06-18T07:56:03Z</time>
      </trkpt>
      <trkpt lat="45.30723" lon="6.25452">
        <ele>932.1</ele>
        <time>2022-06-18T07:56:05Z</time>
      </trkpt>
      <trkpt lat="45.3072" lon="6.25449">
        <ele>932.4</ele>
        <time>2022-06-18T07:56:06Z</time>
      </trkpt>
      <trkpt lat="45.30716" lon="6.25445">
        <ele>933</ele>
        <time>2022-06-18T07:56:08Z</time>
      </trkpt>
      <trkpt lat="45.30713" lon="6.25443">
        <ele>933.4</ele>
        <time>2022-06-18T07:56:09Z</time>
      </trkpt>
      <trkpt lat="45.3071" lon="6.25442">
        <ele>933.8</ele>
        <time>2022-06-18T07:56:10Z</time>
      </trkpt>
      <trkpt lat="45.30707" lon="6.2544">
        <ele>934.2</ele>
        <time>2022-06-18T07:56:11Z</time>
      </trkpt>
      <trkpt lat="45.30704" lon="6.25438">
        <ele>934.7</ele>
        <time>2022-06-18T07:56:12Z</time>
      </trkpt>
      <trkpt lat="45.30701" lon="6.25437">
        <ele>935.2</ele>
        <time>2022-06-18T07:56:13Z</time>
      </trkpt>
      <trkpt lat="45.30697" lon="6.25435">
        <ele>935.7</ele>
        <time>2022-06-18T07:56:15Z</time>
      </trkpt>
      <trkpt lat="45.30694" lon="6.25433">
        <ele>936.2</ele>
        <time>2022-06-18T07:56:16Z</time>
      </trkpt>
      <trkpt lat="45.30691" lon="6.2543">
        <ele>936.8</ele>
        <time>2022-06-18T07:56:17Z</time>
      </trkpt>
      <trkpt lat="45.30687" lon="6.25427">
        <ele>937.4</ele>
        <time>2022-06-18T07:56:18Z</time>
      </trkpt>
      <trkpt lat="45.30684" lon="6.25425">
        <ele>937.9</ele>
        <time>2022-06-18T07:56:19Z</time>
      </trkpt>
      <trkpt lat="45.30682" lon="6.25424">
        <ele>938.3</ele>
        <time>2022-06-18T07:56:20Z</time>
      </trkpt>
      <trkpt lat="45.30679" lon="6.25423">
        <ele>938.6</ele>
        <time>2022-06-18T07:56:21Z</time>
      </trkpt>
      <trkpt lat="45.30676" lon="6.25422">
        <ele>939</ele>
        <time>2022-06-18T07:56:22Z</time>
      </trkpt>
      <trkpt lat="45.30672" lon="6.25422">
        <ele>939.3</ele>
        <time>2022-06-18T07:56:23Z</time>
      </trkpt>
      <trkpt lat="45.30668" lon="6.25423">
        <ele>939.6</ele>
        <time>2022-06-18T07:56:25Z</time>
      </trkpt>
      <trkpt lat="45.30665" lon="6.25425">
        <ele>939.9</ele>
        <time>2022-06-18T07:56:26Z</time>
      </trkpt>
      <trkpt lat="45.30661" lon="6.25428">
        <ele>940.1</ele>
        <time>2022-06-18T07:56:27Z</time>
      </trkpt>
      <trkpt lat="45.30658" lon="6.25433">
        <ele>940.4</ele>
        <time>2022-06-18T07:56:29Z</time>
      </trkpt>
      <trkpt lat="45.30656" lon="6.25438">
        <ele>940.5</ele>
        <time>2022-06-18T07:56:30Z</time>
      </trkpt>
      <trkpt lat="45.30655" lon="6.25443">
        <ele>940.7</ele>
        <time>2022-06-18T07:56:31Z</time>
      </trkpt>
      <trkpt lat="45.30654" lon="6.25448">
        <ele>940.8</ele>
        <time>2022-06-18T07:56:32Z</time>
      </trkpt>
      <trkpt lat="45.30653" lon="6.25452">
        <ele>941</ele>
        <time>2022-06-18T07:56:33Z</time>
      </trkpt>
      <trkpt lat="45.30652" lon="6.25456">
        <ele>941.1</ele>
        <time>2022-06-18T07:56:34Z</time>
      </trkpt>
      <trkpt lat="45.30651" lon="6.2546">
        <ele>941.3</ele>
        <time>2022-06-18T07:56:35Z</time>
      </trkpt>
      <trkpt lat="45.30649" lon="6.25468">
        <ele>941.7</ele>
        <time>2022-06-18T07:56:37Z</time>
      </trkpt>
      <trkpt lat="45.30648" lon="6.25472">
        <ele>941.8</ele>
        <time>2022-06-18T07:56:38Z</time>
      </trkpt>
      <trkpt lat="45.30647" lon="6.25476">
        <ele>942.1</ele>
        <time>2022-06-18T07:56:39Z</time>
      </trkpt>
      <trkpt lat="45.30646" lon="6.25481">
        <ele>942.3</ele>
        <time>2022-06-18T07:56:40Z</time>
      </trkpt>
      <trkpt lat="45.30645" lon="6.25488">
        <ele>942.8</ele>
        <time>2022-06-18T07:56:42Z</time>
      </trkpt>
      <trkpt lat="45.30645" lon="6.2549">
        <ele>942.9</ele>
        <time>2022-06-18T07:56:43Z</time>
      </trkpt>
      <trkpt lat="45.30644" lon="6.25493">
        <ele>943.1</ele>
        <time>2022-06-18T07:56:44Z</time>
      </trkpt>
      <trkpt lat="45.30642" lon="6.25497">
        <ele>943.4</ele>
        <time>2022-06-18T07:56:46Z</time>
      </trkpt>
      <trkpt lat="45.3064" lon="6.25501">
        <ele>943.7</ele>
        <time>2022-06-18T07:56:47Z</time>
      </trkpt>
      <trkpt lat="45.3064" lon="6.25503">
        <ele>943.8</ele>
        <time>2022-06-18T07:56:48Z</time>
      </trkpt>
      <trkpt lat="45.30638" lon="6.25507">
        <ele>943.8</ele>
        <time>2022-06-18T07:56:49Z</time>
      </trkpt>
      <trkpt lat="45.30637" lon="6.25508">
        <ele>943.8</ele>
        <time>2022-06-18T07:56:50Z</time>
      </trkpt>
      <trkpt lat="45.30634" lon="6.2551">
        <ele>943.8</ele>
        <time>2022-06-18T07:56:51Z</time>
      </trkpt>
      <trkpt lat="45.30632" lon="6.25512">
        <ele>943.9</ele>
        <time>2022-06-18T07:56:52Z</time>
      </trkpt>
      <trkpt lat="45.30625" lon="6.25514">
        <ele>944.2</ele>
        <time>2022-06-18T07:56:54Z</time>
      </trkpt>
      <trkpt lat="45.30621" lon="6.25514">
        <ele>944.3</ele>
        <time>2022-06-18T07:56:55Z</time>
      </trkpt>
      <trkpt lat="45.30619" lon="6.25514">
        <ele>944.4</ele>
        <time>2022-06-18T07:56:56Z</time>
      </trkpt>
      <trkpt lat="45.30616" lon="6.25512">
        <ele>944.5</ele>
        <time>2022-06-18T07:56:58Z</time>
      </trkpt>
      <trkpt lat="45.30612" lon="6.2551">
        <ele>944.7</ele>
        <time>2022-06-18T07:56:59Z</time>
      </trkpt>
      <trkpt lat="45.30607" lon="6.25506">
        <ele>944.9</ele>
        <time>2022-06-18T07:57:01Z</time>
      </trkpt>
      <trkpt lat="45.30603" lon="6.25503">
        <ele>945</ele>
        <time>2022-06-18T07:57:02Z</time>
      </trkpt>
      <trkpt lat="45.30597" lon="6.25501">
        <ele>945.2</ele>
        <time>2022-06-18T07:57:03Z</time>
      </trkpt>
      <trkpt lat="45.30593" lon="6.25499">
        <ele>945.3</ele>
        <time>2022-06-18T07:57:04Z</time>
      </trkpt>
      <trkpt lat="45.30589" lon="6.25497">
        <ele>945.5</ele>
        <time>2022-06-18T07:57:05Z</time>
      </trkpt>
      <trkpt lat="45.30585" lon="6.25493">
        <ele>945.6</ele>
        <time>2022-06-18T07:57:06Z</time>
      </trkpt>
      <trkpt lat="45.30581" lon="6.2549">
        <ele>945.7</ele>
        <time>2022-06-18T07:57:08Z</time>
      </trkpt>
      <trkpt lat="45.30577" lon="6.25488">
        <ele>945.9</ele>
        <time>2022-06-18T07:57:09Z</time>
      </trkpt>
      <trkpt lat="45.30573" lon="6.25484">
        <ele>946.1</ele>
        <time>2022-06-18T07:57:10Z</time>
      </trkpt>
      <trkpt lat="45.30569" lon="6.25482">
        <ele>946.2</ele>
        <time>2022-06-18T07:57:11Z</time>
      </trkpt>
      <trkpt lat="45.30565" lon="6.2548">
        <ele>946.4</ele>
        <time>2022-06-18T07:57:13Z</time>
      </trkpt>
      <trkpt lat="45.30563" lon="6.25476">
        <ele>946.6</ele>
        <time>2022-06-18T07:57:14Z</time>
      </trkpt>
      <trkpt lat="45.3056" lon="6.25473">
        <ele>946.8</ele>
        <time>2022-06-18T07:57:15Z</time>
      </trkpt>
      <trkpt lat="45.30559" lon="6.2547">
        <ele>947</ele>
        <time>2022-06-18T07:57:16Z</time>
      </trkpt>
      <trkpt lat="45.30557" lon="6.25467">
        <ele>947.2</ele>
        <time>2022-06-18T07:57:17Z</time>
      </trkpt>
      <trkpt lat="45.30554" lon="6.25462">
        <ele>947.5</ele>
        <time>2022-06-18T07:57:18Z</time>
      </trkpt>
      <trkpt lat="45.30551" lon="6.25458">
        <ele>947.8</ele>
        <time>2022-06-18T07:57:19Z</time>
      </trkpt>
      <trkpt lat="45.30548" lon="6.25453">
        <ele>948.1</ele>
        <time>2022-06-18T07:57:21Z</time>
      </trkpt>
      <trkpt lat="45.30546" lon="6.2545">
        <ele>948.4</ele>
        <time>2022-06-18T07:57:22Z</time>
      </trkpt>
      <trkpt lat="45.30543" lon="6.25446">
        <ele>948.6</ele>
        <time>2022-06-18T07:57:23Z</time>
      </trkpt>
      <trkpt lat="45.3054" lon="6.25444">
        <ele>948.9</ele>
        <time>2022-06-18T07:57:24Z</time>
      </trkpt>
      <trkpt lat="45.30537" lon="6.25441">
        <ele>949.2</ele>
        <time>2022-06-18T07:57:25Z</time>
      </trkpt>
      <trkpt lat="45.30534" lon="6.25438">
        <ele>949.4</ele>
        <time>2022-06-18T07:57:26Z</time>
      </trkpt>
      <trkpt lat="45.30532" lon="6.25435">
        <ele>949.7</ele>
        <time>2022-06-18T07:57:27Z</time>
      </trkpt>
      <trkpt lat="45.3053" lon="6.25432">
        <ele>949.9</ele>
        <time>2022-06-18T07:57:28Z</time>
      </trkpt>
      <trkpt lat="45.30527" lon="6.25428">
        <ele>950.3</ele>
        <time>2022-06-18T07:57:29Z</time>
      </trkpt>
      <trkpt lat="45.30524" lon="6.25426">
        <ele>950.5</ele>
        <time>2022-06-18T07:57:30Z</time>
      </trkpt>
      <trkpt lat="45.30522" lon="6.25423">
        <ele>950.8</ele>
        <time>2022-06-18T07:57:31Z</time>
      </trkpt>
      <trkpt lat="45.30519" lon="6.2542">
        <ele>951.1</ele>
        <time>2022-06-18T07:57:33Z</time>
      </trkpt>
      <trkpt lat="45.30516" lon="6.25416">
        <ele>951.5</ele>
        <time>2022-06-18T07:57:34Z</time>
      </trkpt>
      <trkpt lat="45.30513" lon="6.25412">
        <ele>951.8</ele>
        <time>2022-06-18T07:57:35Z</time>
      </trkpt>
      <trkpt lat="45.30512" lon="6.25411">
        <ele>951.9</ele>
        <time>2022-06-18T07:57:36Z</time>
      </trkpt>
      <trkpt lat="45.30509" lon="6.2541">
        <ele>952.2</ele>
        <time>2022-06-18T07:57:37Z</time>
      </trkpt>
      <trkpt lat="45.30506" lon="6.25409">
        <ele>952.5</ele>
        <time>2022-06-18T07:57:38Z</time>
      </trkpt>
      <trkpt lat="45.30504" lon="6.25408">
        <ele>952.7</ele>
        <time>2022-06-18T07:57:39Z</time>
      </trkpt>
      <trkpt lat="45.305" lon="6.25407">
        <ele>953.1</ele>
        <time>2022-06-18T07:57:41Z</time>
      </trkpt>
      <trkpt lat="45.30497" lon="6.25405">
        <ele>953.4</ele>
        <time>2022-06-18T07:57:42Z</time>
      </trkpt>
      <trkpt lat="45.30494" lon="6.25402">
        <ele>953.8</ele>
        <time>2022-06-18T07:57:43Z</time>
      </trkpt>
      <trkpt lat="45.30492" lon="6.25399">
        <ele>954.1</ele>
        <time>2022-06-18T07:57:44Z</time>
      </trkpt>
      <trkpt lat="45.3049" lon="6.25394">
        <ele>954.5</ele>
        <time>2022-06-18T07:57:45Z</time>
      </trkpt>
      <trkpt lat="45.30489" lon="6.2539">
        <ele>954.8</ele>
        <time>2022-06-18T07:57:46Z</time>
      </trkpt>
      <trkpt lat="45.30487" lon="6.25384">
        <ele>955.2</ele>
        <time>2022-06-18T07:57:48Z</time>
      </trkpt>
      <trkpt lat="45.30485" lon="6.25379">
        <ele>955.6</ele>
        <time>2022-06-18T07:57:49Z</time>
      </trkpt>
      <trkpt lat="45.30483" lon="6.25375">
        <ele>955.9</ele>
        <time>2022-06-18T07:57:50Z</time>
      </trkpt>
      <trkpt lat="45.30481" lon="6.2537">
        <ele>956.3</ele>
        <time>2022-06-18T07:57:52Z</time>
      </trkpt>
      <trkpt lat="45.30479" lon="6.25367">
        <ele>956.6</ele>
        <time>2022-06-18T07:57:53Z</time>
      </trkpt>
      <trkpt lat="45.30476" lon="6.25363">
        <ele>956.9</ele>
        <time>2022-06-18T07:57:54Z</time>
      </trkpt>
      <trkpt lat="45.30475" lon="6.25362">
        <ele>957</ele>
        <time>2022-06-18T07:57:55Z</time>
      </trkpt>
      <trkpt lat="45.30472" lon="6.25359">
        <ele>957.5</ele>
        <time>2022-06-18T07:57:56Z</time>
      </trkpt>
      <trkpt lat="45.3047" lon="6.25356">
        <ele>957.8</ele>
        <time>2022-06-18T07:57:58Z</time>
      </trkpt>
      <trkpt lat="45.30469" lon="6.25355">
        <ele>957.9</ele>
        <time>2022-06-18T07:57:59Z</time>
      </trkpt>
      <trkpt lat="45.30466" lon="6.25352">
        <ele>958.3</ele>
        <time>2022-06-18T07:58:00Z</time>
      </trkpt>
      <trkpt lat="45.30463" lon="6.25351">
        <ele>958.6</ele>
        <time>2022-06-18T07:58:02Z</time>
      </trkpt>
      <trkpt lat="45.30461" lon="6.2535">
        <ele>958.8</ele>
        <time>2022-06-18T07:58:03Z</time>
      </trkpt>
      <trkpt lat="45.30457" lon="6.25348">
        <ele>959.2</ele>
        <time>2022-06-18T07:58:05Z</time>
      </trkpt>
      <trkpt lat="45.30451" lon="6.25343">
        <ele>960</ele>
        <time>2022-06-18T07:58:06Z</time>
      </trkpt>
      <trkpt lat="45.30446" lon="6.25337">
        <ele>960.9</ele>
        <time>2022-06-18T07:58:07Z</time>
      </trkpt>
      <trkpt lat="45.30443" lon="6.25332">
        <ele>961.4</ele>
        <time>2022-06-18T07:58:08Z</time>
      </trkpt>
      <trkpt lat="45.3044" lon="6.25327">
        <ele>961.8</ele>
        <time>2022-06-18T07:58:09Z</time>
      </trkpt>
      <trkpt lat="45.30439" lon="6.25322">
        <ele>962.3</ele>
        <time>2022-06-18T07:58:10Z</time>
      </trkpt>
      <trkpt lat="45.30438" lon="6.25316">
        <ele>962.7</ele>
        <time>2022-06-18T07:58:12Z</time>
      </trkpt>
      <trkpt lat="45.30437" lon="6.25309">
        <ele>963.2</ele>
        <time>2022-06-18T07:58:13Z</time>
      </trkpt>
      <trkpt lat="45.30435" lon="6.25305">
        <ele>963.5</ele>
        <time>2022-06-18T07:58:14Z</time>
      </trkpt>
      <trkpt lat="45.30433" lon="6.25302">
        <ele>963.7</ele>
        <time>2022-06-18T07:58:15Z</time>
      </trkpt>
      <trkpt lat="45.30429" lon="6.25299">
        <ele>964</ele>
        <time>2022-06-18T07:58:17Z</time>
      </trkpt>
      <trkpt lat="45.30425" lon="6.25296">
        <ele>964.3</ele>
        <time>2022-06-18T07:58:18Z</time>
      </trkpt>
      <trkpt lat="45.3042" lon="6.25294">
        <ele>964.6</ele>
        <time>2022-06-18T07:58:19Z</time>
      </trkpt>
      <trkpt lat="45.30418" lon="6.25292">
        <ele>964.8</ele>
        <time>2022-06-18T07:58:20Z</time>
      </trkpt>
      <trkpt lat="45.30415" lon="6.25291">
        <ele>965</ele>
        <time>2022-06-18T07:58:21Z</time>
      </trkpt>
      <trkpt lat="45.30412" lon="6.25289">
        <ele>965.2</ele>
        <time>2022-06-18T07:58:22Z</time>
      </trkpt>
      <trkpt lat="45.3041" lon="6.25288">
        <ele>965.3</ele>
        <time>2022-06-18T07:58:23Z</time>
      </trkpt>
      <trkpt lat="45.30407" lon="6.25286">
        <ele>965.5</ele>
        <time>2022-06-18T07:58:24Z</time>
      </trkpt>
      <trkpt lat="45.30404" lon="6.25285">
        <ele>965.7</ele>
        <time>2022-06-18T07:58:25Z</time>
      </trkpt>
      <trkpt lat="45.30401" lon="6.25284">
        <ele>966</ele>
        <time>2022-06-18T07:58:26Z</time>
      </trkpt>
      <trkpt lat="45.30397" lon="6.25282">
        <ele>966.2</ele>
        <time>2022-06-18T07:58:27Z</time>
      </trkpt>
      <trkpt lat="45.30393" lon="6.25281">
        <ele>966.6</ele>
        <time>2022-06-18T07:58:29Z</time>
      </trkpt>
      <trkpt lat="45.3039" lon="6.2528">
        <ele>967</ele>
        <time>2022-06-18T07:58:30Z</time>
      </trkpt>
      <trkpt lat="45.30385" lon="6.2528">
        <ele>967.4</ele>
        <time>2022-06-18T07:58:31Z</time>
      </trkpt>
      <trkpt lat="45.3038" lon="6.2528">
        <ele>968</ele>
        <time>2022-06-18T07:58:33Z</time>
      </trkpt>
      <trkpt lat="45.30376" lon="6.2528">
        <ele>968.5</ele>
        <time>2022-06-18T07:58:34Z</time>
      </trkpt>
      <trkpt lat="45.30372" lon="6.25281">
        <ele>969</ele>
        <time>2022-06-18T07:58:35Z</time>
      </trkpt>
      <trkpt lat="45.30368" lon="6.25281">
        <ele>969.4</ele>
        <time>2022-06-18T07:58:36Z</time>
      </trkpt>
      <trkpt lat="45.30364" lon="6.2528">
        <ele>969.9</ele>
        <time>2022-06-18T07:58:38Z</time>
      </trkpt>
      <trkpt lat="45.3036" lon="6.25278">
        <ele>970.5</ele>
        <time>2022-06-18T07:58:39Z</time>
      </trkpt>
      <trkpt lat="45.30357" lon="6.25274">
        <ele>970.9</ele>
        <time>2022-06-18T07:58:40Z</time>
      </trkpt>
      <trkpt lat="45.30355" lon="6.2527">
        <ele>971.3</ele>
        <time>2022-06-18T07:58:41Z</time>
      </trkpt>
      <trkpt lat="45.30354" lon="6.25262">
        <ele>971.7</ele>
        <time>2022-06-18T07:58:43Z</time>
      </trkpt>
      <trkpt lat="45.30354" lon="6.25257">
        <ele>972</ele>
        <time>2022-06-18T07:58:44Z</time>
      </trkpt>
      <trkpt lat="45.30355" lon="6.25252">
        <ele>972.1</ele>
        <time>2022-06-18T07:58:45Z</time>
      </trkpt>
      <trkpt lat="45.30356" lon="6.25248">
        <ele>972.2</ele>
        <time>2022-06-18T07:58:46Z</time>
      </trkpt>
      <trkpt lat="45.30357" lon="6.25243">
        <ele>972.4</ele>
        <time>2022-06-18T07:58:47Z</time>
      </trkpt>
      <trkpt lat="45.30358" lon="6.25239">
        <ele>972.5</ele>
        <time>2022-06-18T07:58:48Z</time>
      </trkpt>
      <trkpt lat="45.30358" lon="6.25234">
        <ele>972.6</ele>
        <time>2022-06-18T07:58:49Z</time>
      </trkpt>
      <trkpt lat="45.30358" lon="6.2523">
        <ele>972.6</ele>
        <time>2022-06-18T07:58:50Z</time>
      </trkpt>
      <trkpt lat="45.30358" lon="6.25225">
        <ele>972.7</ele>
        <time>2022-06-18T07:58:51Z</time>
      </trkpt>
      <trkpt lat="45.30357" lon="6.25221">
        <ele>972.8</ele>
        <time>2022-06-18T07:58:52Z</time>
      </trkpt>
      <trkpt lat="45.30357" lon="6.25216">
        <ele>972.9</ele>
        <time>2022-06-18T07:58:53Z</time>
      </trkpt>
      <trkpt lat="45.30357" lon="6.25213">
        <ele>972.9</ele>
        <time>2022-06-18T07:58:54Z</time>
      </trkpt>
      <trkpt lat="45.30356" lon="6.25205">
        <ele>973.1</ele>
        <time>2022-06-18T07:58:56Z</time>
      </trkpt>
      <trkpt lat="45.30354" lon="6.25199">
        <ele>973.3</ele>
        <time>2022-06-18T07:58:57Z</time>
      </trkpt>
      <trkpt lat="45.30352" lon="6.25194">
        <ele>973.5</ele>
        <time>2022-06-18T07:58:59Z</time>
      </trkpt>
      <trkpt lat="45.30351" lon="6.25189">
        <ele>973.7</ele>
        <time>2022-06-18T07:59:00Z</time>
      </trkpt>
      <trkpt lat="45.3035" lon="6.25183">
        <ele>974</ele>
        <time>2022-06-18T07:59:01Z</time>
      </trkpt>
      <trkpt lat="45.30348" lon="6.25178">
        <ele>974.4</ele>
        <time>2022-06-18T07:59:02Z</time>
      </trkpt>
      <trkpt lat="45.30347" lon="6.25173">
        <ele>974.7</ele>
        <time>2022-06-18T07:59:03Z</time>
      </trkpt>
      <trkpt lat="45.30346" lon="6.25169">
        <ele>975</ele>
        <time>2022-06-18T07:59:04Z</time>
      </trkpt>
      <trkpt lat="45.30344" lon="6.25164">
        <ele>975.3</ele>
        <time>2022-06-18T07:59:05Z</time>
      </trkpt>
      <trkpt lat="45.30343" lon="6.2516">
        <ele>975.6</ele>
        <time>2022-06-18T07:59:06Z</time>
      </trkpt>
      <trkpt lat="45.30342" lon="6.25155">
        <ele>976</ele>
        <time>2022-06-18T07:59:08Z</time>
      </trkpt>
      <trkpt lat="45.30339" lon="6.25148">
        <ele>976.5</ele>
        <time>2022-06-18T07:59:09Z</time>
      </trkpt>
      <trkpt lat="45.30335" lon="6.25144">
        <ele>977</ele>
        <time>2022-06-18T07:59:11Z</time>
      </trkpt>
      <trkpt lat="45.3033" lon="6.25142">
        <ele>977.4</ele>
        <time>2022-06-18T07:59:12Z</time>
      </trkpt>
      <trkpt lat="45.30323" lon="6.25142">
        <ele>977.8</ele>
        <time>2022-06-18T07:59:13Z</time>
      </trkpt>
      <trkpt lat="45.30319" lon="6.25143">
        <ele>978</ele>
        <time>2022-06-18T07:59:14Z</time>
      </trkpt>
      <trkpt lat="45.30313" lon="6.25148">
        <ele>978.4</ele>
        <time>2022-06-18T07:59:15Z</time>
      </trkpt>
      <trkpt lat="45.30309" lon="6.25151">
        <ele>978.6</ele>
        <time>2022-06-18T07:59:16Z</time>
      </trkpt>
      <trkpt lat="45.30307" lon="6.25157">
        <ele>978.8</ele>
        <time>2022-06-18T07:59:18Z</time>
      </trkpt>
      <trkpt lat="45.30301" lon="6.25161">
        <ele>979.1</ele>
        <time>2022-06-18T07:59:19Z</time>
      </trkpt>
      <trkpt lat="45.30297" lon="6.25164">
        <ele>979.4</ele>
        <time>2022-06-18T07:59:20Z</time>
      </trkpt>
      <trkpt lat="45.30294" lon="6.25166">
        <ele>979.6</ele>
        <time>2022-06-18T07:59:21Z</time>
      </trkpt>
      <trkpt lat="45.30291" lon="6.25168">
        <ele>979.8</ele>
        <time>2022-06-18T07:59:22Z</time>
      </trkpt>
      <trkpt lat="45.30289" lon="6.25171">
        <ele>980.1</ele>
        <time>2022-06-18T07:59:23Z</time>
      </trkpt>
      <trkpt lat="45.30286" lon="6.25173">
        <ele>980.4</ele>
        <time>2022-06-18T07:59:24Z</time>
      </trkpt>
      <trkpt lat="45.30282" lon="6.25176">
        <ele>980.8</ele>
        <time>2022-06-18T07:59:25Z</time>
      </trkpt>
      <trkpt lat="45.30279" lon="6.25179">
        <ele>981.1</ele>
        <time>2022-06-18T07:59:27Z</time>
      </trkpt>
      <trkpt lat="45.30276" lon="6.25182">
        <ele>981.6</ele>
        <time>2022-06-18T07:59:28Z</time>
      </trkpt>
      <trkpt lat="45.30272" lon="6.25185">
        <ele>982.1</ele>
        <time>2022-06-18T07:59:29Z</time>
      </trkpt>
      <trkpt lat="45.30268" lon="6.25189">
        <ele>982.6</ele>
        <time>2022-06-18T07:59:31Z</time>
      </trkpt>
      <trkpt lat="45.30265" lon="6.25192">
        <ele>983</ele>
        <time>2022-06-18T07:59:32Z</time>
      </trkpt>
      <trkpt lat="45.30261" lon="6.25193">
        <ele>983.4</ele>
        <time>2022-06-18T07:59:33Z</time>
      </trkpt>
      <trkpt lat="45.30257" lon="6.25191">
        <ele>983.8</ele>
        <time>2022-06-18T07:59:35Z</time>
      </trkpt>
      <trkpt lat="45.30253" lon="6.25188">
        <ele>984.2</ele>
        <time>2022-06-18T07:59:36Z</time>
      </trkpt>
      <trkpt lat="45.3025" lon="6.25182">
        <ele>984.4</ele>
        <time>2022-06-18T07:59:37Z</time>
      </trkpt>
      <trkpt lat="45.30248" lon="6.25176">
        <ele>984.6</ele>
        <time>2022-06-18T07:59:39Z</time>
      </trkpt>
      <trkpt lat="45.30246" lon="6.25171">
        <ele>984.7</ele>
        <time>2022-06-18T07:59:40Z</time>
      </trkpt>
      <trkpt lat="45.30244" lon="6.25166">
        <ele>984.8</ele>
        <time>2022-06-18T07:59:41Z</time>
      </trkpt>
      <trkpt lat="45.30241" lon="6.25161">
        <ele>984.8</ele>
        <time>2022-06-18T07:59:42Z</time>
      </trkpt>
      <trkpt lat="45.3024" lon="6.25157">
        <ele>984.9</ele>
        <time>2022-06-18T07:59:43Z</time>
      </trkpt>
      <trkpt lat="45.30238" lon="6.25152">
        <ele>984.9</ele>
        <time>2022-06-18T07:59:44Z</time>
      </trkpt>
      <trkpt lat="45.30236" lon="6.25149">
        <ele>984.9</ele>
        <time>2022-06-18T07:59:45Z</time>
      </trkpt>
      <trkpt lat="45.30234" lon="6.25145">
        <ele>985</ele>
        <time>2022-06-18T07:59:46Z</time>
      </trkpt>
      <trkpt lat="45.30232" lon="6.2514">
        <ele>985</ele>
        <time>2022-06-18T07:59:47Z</time>
      </trkpt>
      <trkpt lat="45.30231" lon="6.25136">
        <ele>985.1</ele>
        <time>2022-06-18T07:59:48Z</time>
      </trkpt>
      <trkpt lat="45.30229" lon="6.25131">
        <ele>985.2</ele>
        <time>2022-06-18T07:59:49Z</time>
      </trkpt>
      <trkpt lat="45.30228" lon="6.25127">
        <ele>985.3</ele>
        <time>2022-06-18T07:59:50Z</time>
      </trkpt>
      <trkpt lat="45.30227" lon="6.25122">
        <ele>985.3</ele>
        <time>2022-06-18T07:59:51Z</time>
      </trkpt>
      <trkpt lat="45.30226" lon="6.25117">
        <ele>985.5</ele>
        <time>2022-06-18T07:59:52Z</time>
      </trkpt>
      <trkpt lat="45.30226" lon="6.25112">
        <ele>985.6</ele>
        <time>2022-06-18T07:59:53Z</time>
      </trkpt>
      <trkpt lat="45.30226" lon="6.25107">
        <ele>985.7</ele>
        <time>2022-06-18T07:59:54Z</time>
      </trkpt>
      <trkpt lat="45.30225" lon="6.25103">
        <ele>985.9</ele>
        <time>2022-06-18T07:59:55Z</time>
      </trkpt>
      <trkpt lat="45.30225" lon="6.25095">
        <ele>986.1</ele>
        <time>2022-06-18T07:59:57Z</time>
      </trkpt>
      <trkpt lat="45.30224" lon="6.25089">
        <ele>986.4</ele>
        <time>2022-06-18T07:59:58Z</time>
      </trkpt>
      <trkpt lat="45.30223" lon="6.25082">
        <ele>986.6</ele>
        <time>2022-06-18T07:59:59Z</time>
      </trkpt>
      <trkpt lat="45.30221" lon="6.25076">
        <ele>986.9</ele>
        <time>2022-06-18T08:00:01Z</time>
      </trkpt>
      <trkpt lat="45.30219" lon="6.25071">
        <ele>987.2</ele>
        <time>2022-06-18T08:00:02Z</time>
      </trkpt>
      <trkpt lat="45.30217" lon="6.25067">
        <ele>987.4</ele>
        <time>2022-06-18T08:00:03Z</time>
      </trkpt>
      <trkpt lat="45.30215" lon="6.25062">
        <ele>987.7</ele>
        <time>2022-06-18T08:00:04Z</time>
      </trkpt>
      <trkpt lat="45.30213" lon="6.25057">
        <ele>987.9</ele>
        <time>2022-06-18T08:00:05Z</time>
      </trkpt>
      <trkpt lat="45.3021" lon="6.25053">
        <ele>988.2</ele>
        <time>2022-06-18T08:00:06Z</time>
      </trkpt>
      <trkpt lat="45.30207" lon="6.25048">
        <ele>988.5</ele>
        <time>2022-06-18T08:00:08Z</time>
      </trkpt>
      <trkpt lat="45.30205" lon="6.25044">
        <ele>988.8</ele>
        <time>2022-06-18T08:00:09Z</time>
      </trkpt>
      <trkpt lat="45.30201" lon="6.25038">
        <ele>989.2</ele>
        <time>2022-06-18T08:00:10Z</time>
      </trkpt>
      <trkpt lat="45.30199" lon="6.25034">
        <ele>989.4</ele>
        <time>2022-06-18T08:00:11Z</time>
      </trkpt>
      <trkpt lat="45.30197" lon="6.2503">
        <ele>989.7</ele>
        <time>2022-06-18T08:00:12Z</time>
      </trkpt>
      <trkpt lat="45.30195" lon="6.25026">
        <ele>990</ele>
        <time>2022-06-18T08:00:13Z</time>
      </trkpt>
      <trkpt lat="45.30193" lon="6.25021">
        <ele>990.3</ele>
        <time>2022-06-18T08:00:14Z</time>
      </trkpt>
      <trkpt lat="45.30191" lon="6.25016">
        <ele>990.6</ele>
        <time>2022-06-18T08:00:15Z</time>
      </trkpt>
      <trkpt lat="45.3019" lon="6.25011">
        <ele>990.9</ele>
        <time>2022-06-18T08:00:16Z</time>
      </trkpt>
      <trkpt lat="45.30189" lon="6.25003">
        <ele>991.4</ele>
        <time>2022-06-18T08:00:18Z</time>
      </trkpt>
      <trkpt lat="45.30186" lon="6.24994">
        <ele>992</ele>
        <time>2022-06-18T08:00:20Z</time>
      </trkpt>
      <trkpt lat="45.30184" lon="6.24984">
        <ele>992.6</ele>
        <time>2022-06-18T08:00:21Z</time>
      </trkpt>
      <trkpt lat="45.30184" lon="6.24978">
        <ele>993</ele>
        <time>2022-06-18T08:00:22Z</time>
      </trkpt>
      <trkpt lat="45.30183" lon="6.2497">
        <ele>993.5</ele>
        <time>2022-06-18T08:00:23Z</time>
      </trkpt>
      <trkpt lat="45.30184" lon="6.24963">
        <ele>994</ele>
        <time>2022-06-18T08:00:25Z</time>
      </trkpt>
      <trkpt lat="45.30186" lon="6.24956">
        <ele>994.5</ele>
        <time>2022-06-18T08:00:26Z</time>
      </trkpt>
      <trkpt lat="45.30188" lon="6.2495">
        <ele>994.9</ele>
        <time>2022-06-18T08:00:27Z</time>
      </trkpt>
      <trkpt lat="45.3019" lon="6.24946">
        <ele>995.3</ele>
        <time>2022-06-18T08:00:28Z</time>
      </trkpt>
      <trkpt lat="45.30191" lon="6.24942">
        <ele>995.6</ele>
        <time>2022-06-18T08:00:29Z</time>
      </trkpt>
      <trkpt lat="45.30193" lon="6.24938">
        <ele>995.9</ele>
        <time>2022-06-18T08:00:30Z</time>
      </trkpt>
      <trkpt lat="45.30195" lon="6.24933">
        <ele>996.3</ele>
        <time>2022-06-18T08:00:31Z</time>
      </trkpt>
      <trkpt lat="45.30196" lon="6.24927">
        <ele>996.7</ele>
        <time>2022-06-18T08:00:33Z</time>
      </trkpt>
      <trkpt lat="45.30195" lon="6.24921">
        <ele>997.2</ele>
        <time>2022-06-18T08:00:34Z</time>
      </trkpt>
      <trkpt lat="45.30194" lon="6.24914">
        <ele>997.6</ele>
        <time>2022-06-18T08:00:36Z</time>
      </trkpt>
      <trkpt lat="45.30193" lon="6.24907">
        <ele>998.1</ele>
        <time>2022-06-18T08:00:37Z</time>
      </trkpt>
      <trkpt lat="45.30192" lon="6.24902">
        <ele>998.4</ele>
        <time>2022-06-18T08:00:38Z</time>
      </trkpt>
      <trkpt lat="45.30191" lon="6.24898">
        <ele>998.7</ele>
        <time>2022-06-18T08:00:39Z</time>
      </trkpt>
      <trkpt lat="45.30187" lon="6.24892">
        <ele>999.1</ele>
        <time>2022-06-18T08:00:41Z</time>
      </trkpt>
      <trkpt lat="45.30183" lon="6.24889">
        <ele>999.4</ele>
        <time>2022-06-18T08:00:42Z</time>
      </trkpt>
      <trkpt lat="45.30178" lon="6.24887">
        <ele>999.7</ele>
        <time>2022-06-18T08:00:44Z</time>
      </trkpt>
      <trkpt lat="45.30173" lon="6.24885">
        <ele>1000</ele>
        <time>2022-06-18T08:00:45Z</time>
      </trkpt>
      <trkpt lat="45.30169" lon="6.24881">
        <ele>1000.3</ele>
        <time>2022-06-18T08:00:46Z</time>
      </trkpt>
      <trkpt lat="45.30165" lon="6.24879">
        <ele>1000.5</ele>
        <time>2022-06-18T08:00:48Z</time>
      </trkpt>
      <trkpt lat="45.30161" lon="6.24877">
        <ele>1000.7</ele>
        <time>2022-06-18T08:00:49Z</time>
      </trkpt>
      <trkpt lat="45.30156" lon="6.24874">
        <ele>1001</ele>
        <time>2022-06-18T08:00:50Z</time>
      </trkpt>
      <trkpt lat="45.30152" lon="6.2487">
        <ele>1001.4</ele>
        <time>2022-06-18T08:00:52Z</time>
      </trkpt>
      <trkpt lat="45.30148" lon="6.24863">
        <ele>1001.8</ele>
        <time>2022-06-18T08:00:53Z</time>
      </trkpt>
      <trkpt lat="45.30146" lon="6.24857">
        <ele>1002.2</ele>
        <time>2022-06-18T08:00:54Z</time>
      </trkpt>
      <trkpt lat="45.30144" lon="6.24852">
        <ele>1002.5</ele>
        <time>2022-06-18T08:00:55Z</time>
      </trkpt>
      <trkpt lat="45.30143" lon="6.24844">
        <ele>1003</ele>
        <time>2022-06-18T08:00:57Z</time>
      </trkpt>
      <trkpt lat="45.30142" lon="6.24836">
        <ele>1003.5</ele>
        <time>2022-06-18T08:00:58Z</time>
      </trkpt>
      <trkpt lat="45.30142" lon="6.24827">
        <ele>1004</ele>
        <time>2022-06-18T08:01:00Z</time>
      </trkpt>
      <trkpt lat="45.30144" lon="6.24821">
        <ele>1004.4</ele>
        <time>2022-06-18T08:01:01Z</time>
      </trkpt>
      <trkpt lat="45.30147" lon="6.24814">
        <ele>1004.8</ele>
        <time>2022-06-18T08:01:02Z</time>
      </trkpt>
      <trkpt lat="45.30151" lon="6.24809">
        <ele>1005.2</ele>
        <time>2022-06-18T08:01:04Z</time>
      </trkpt>
      <trkpt lat="45.30153" lon="6.24805">
        <ele>1005.5</ele>
        <time>2022-06-18T08:01:05Z</time>
      </trkpt>
      <trkpt lat="45.30156" lon="6.24799">
        <ele>1005.9</ele>
        <time>2022-06-18T08:01:06Z</time>
      </trkpt>
      <trkpt lat="45.30157" lon="6.24792">
        <ele>1006.3</ele>
        <time>2022-06-18T08:01:07Z</time>
      </trkpt>
      <trkpt lat="45.30158" lon="6.24786">
        <ele>1006.6</ele>
        <time>2022-06-18T08:01:09Z</time>
      </trkpt>
      <trkpt lat="45.30157" lon="6.24779">
        <ele>1007</ele>
        <time>2022-06-18T08:01:10Z</time>
      </trkpt>
      <trkpt lat="45.30156" lon="6.24774">
        <ele>1007.3</ele>
        <time>2022-06-18T08:01:11Z</time>
      </trkpt>
      <trkpt lat="45.30155" lon="6.24769">
        <ele>1007.6</ele>
        <time>2022-06-18T08:01:12Z</time>
      </trkpt>
      <trkpt lat="45.30152" lon="6.24762">
        <ele>1008.1</ele>
        <time>2022-06-18T08:01:14Z</time>
      </trkpt>
      <trkpt lat="45.30149" lon="6.24756">
        <ele>1008.7</ele>
        <time>2022-06-18T08:01:15Z</time>
      </trkpt>
      <trkpt lat="45.30145" lon="6.24753">
        <ele>1009.2</ele>
        <time>2022-06-18T08:01:17Z</time>
      </trkpt>
      <trkpt lat="45.30142" lon="6.2475">
        <ele>1009.7</ele>
        <time>2022-06-18T08:01:18Z</time>
      </trkpt>
      <trkpt lat="45.30138" lon="6.24748">
        <ele>1010.2</ele>
        <time>2022-06-18T08:01:19Z</time>
      </trkpt>
      <trkpt lat="45.30134" lon="6.24746">
        <ele>1010.7</ele>
        <time>2022-06-18T08:01:20Z</time>
      </trkpt>
      <trkpt lat="45.30127" lon="6.24744">
        <ele>1011.6</ele>
        <time>2022-06-18T08:01:22Z</time>
      </trkpt>
      <trkpt lat="45.30125" lon="6.24743">
        <ele>1011.9</ele>
        <time>2022-06-18T08:01:23Z</time>
      </trkpt>
      <trkpt lat="45.30121" lon="6.24742">
        <ele>1012.5</ele>
        <time>2022-06-18T08:01:25Z</time>
      </trkpt>
      <trkpt lat="45.30116" lon="6.2474">
        <ele>1013.1</ele>
        <time>2022-06-18T08:01:26Z</time>
      </trkpt>
      <trkpt lat="45.30112" lon="6.24738">
        <ele>1013.7</ele>
        <time>2022-06-18T08:01:27Z</time>
      </trkpt>
      <trkpt lat="45.30108" lon="6.24736">
        <ele>1014.3</ele>
        <time>2022-06-18T08:01:29Z</time>
      </trkpt>
      <trkpt lat="45.30104" lon="6.24732">
        <ele>1014.9</ele>
        <time>2022-06-18T08:01:30Z</time>
      </trkpt>
      <trkpt lat="45.30101" lon="6.24727">
        <ele>1015</ele>
        <time>2022-06-18T08:01:31Z</time>
      </trkpt>
      <trkpt lat="45.301" lon="6.24724">
        <ele>1014.9</ele>
        <time>2022-06-18T08:01:32Z</time>
      </trkpt>
      <trkpt lat="45.30098" lon="6.2472">
        <ele>1014.9</ele>
        <time>2022-06-18T08:01:33Z</time>
      </trkpt>
      <trkpt lat="45.30097" lon="6.24715">
        <ele>1014.9</ele>
        <time>2022-06-18T08:01:34Z</time>
      </trkpt>
      <trkpt lat="45.30095" lon="6.2471">
        <ele>1015</ele>
        <time>2022-06-18T08:01:35Z</time>
      </trkpt>
      <trkpt lat="45.30094" lon="6.24703">
        <ele>1015.1</ele>
        <time>2022-06-18T08:01:37Z</time>
      </trkpt>
      <trkpt lat="45.30093" lon="6.24696">
        <ele>1015.2</ele>
        <time>2022-06-18T08:01:38Z</time>
      </trkpt>
      <trkpt lat="45.30092" lon="6.2469">
        <ele>1015.3</ele>
        <time>2022-06-18T08:01:39Z</time>
      </trkpt>
      <trkpt lat="45.30091" lon="6.24685">
        <ele>1015.4</ele>
        <time>2022-06-18T08:01:40Z</time>
      </trkpt>
      <trkpt lat="45.30089" lon="6.24678">
        <ele>1015.5</ele>
        <time>2022-06-18T08:01:42Z</time>
      </trkpt>
      <trkpt lat="45.30087" lon="6.24669">
        <ele>1015.7</ele>
        <time>2022-06-18T08:01:43Z</time>
      </trkpt>
      <trkpt lat="45.30086" lon="6.24665">
        <ele>1015.8</ele>
        <time>2022-06-18T08:01:44Z</time>
      </trkpt>
      <trkpt lat="45.30085" lon="6.24657">
        <ele>1016.1</ele>
        <time>2022-06-18T08:01:46Z</time>
      </trkpt>
      <trkpt lat="45.30083" lon="6.24651">
        <ele>1016.3</ele>
        <time>2022-06-18T08:01:47Z</time>
      </trkpt>
      <trkpt lat="45.3008" lon="6.24644">
        <ele>1016.5</ele>
        <time>2022-06-18T08:01:49Z</time>
      </trkpt>
      <trkpt lat="45.30079" lon="6.2464">
        <ele>1016.7</ele>
        <time>2022-06-18T08:01:50Z</time>
      </trkpt>
      <trkpt lat="45.30076" lon="6.24635">
        <ele>1016.9</ele>
        <time>2022-06-18T08:01:51Z</time>
      </trkpt>
      <trkpt lat="45.30074" lon="6.2463">
        <ele>1017.1</ele>
        <time>2022-06-18T08:01:52Z</time>
      </trkpt>
      <trkpt lat="45.30071" lon="6.24625">
        <ele>1017.3</ele>
        <time>2022-06-18T08:01:53Z</time>
      </trkpt>
      <trkpt lat="45.30067" lon="6.24618">
        <ele>1017.7</ele>
        <time>2022-06-18T08:01:55Z</time>
      </trkpt>
      <trkpt lat="45.30065" lon="6.24613">
        <ele>1017.9</ele>
        <time>2022-06-18T08:01:56Z</time>
      </trkpt>
      <trkpt lat="45.30063" lon="6.2461">
        <ele>1018.1</ele>
        <time>2022-06-18T08:01:57Z</time>
      </trkpt>
      <trkpt lat="45.3006" lon="6.24606">
        <ele>1018.4</ele>
        <time>2022-06-18T08:01:58Z</time>
      </trkpt>
      <trkpt lat="45.30058" lon="6.24602">
        <ele>1018.6</ele>
        <time>2022-06-18T08:01:59Z</time>
      </trkpt>
      <trkpt lat="45.30056" lon="6.24599">
        <ele>1018.9</ele>
        <time>2022-06-18T08:02:00Z</time>
      </trkpt>
      <trkpt lat="45.30053" lon="6.24597">
        <ele>1019.1</ele>
        <time>2022-06-18T08:02:01Z</time>
      </trkpt>
      <trkpt lat="45.30049" lon="6.24594">
        <ele>1019.4</ele>
        <time>2022-06-18T08:02:02Z</time>
      </trkpt>
      <trkpt lat="45.30046" lon="6.24592">
        <ele>1019.6</ele>
        <time>2022-06-18T08:02:03Z</time>
      </trkpt>
      <trkpt lat="45.30044" lon="6.2459">
        <ele>1019.9</ele>
        <time>2022-06-18T08:02:04Z</time>
      </trkpt>
      <trkpt lat="45.30041" lon="6.24588">
        <ele>1020.2</ele>
        <time>2022-06-18T08:02:06Z</time>
      </trkpt>
      <trkpt lat="45.30038" lon="6.24585">
        <ele>1020.4</ele>
        <time>2022-06-18T08:02:07Z</time>
      </trkpt>
      <trkpt lat="45.30035" lon="6.24583">
        <ele>1020.7</ele>
        <time>2022-06-18T08:02:08Z</time>
      </trkpt>
      <trkpt lat="45.30032" lon="6.24582">
        <ele>1021</ele>
        <time>2022-06-18T08:02:09Z</time>
      </trkpt>
      <trkpt lat="45.30028" lon="6.24579">
        <ele>1021.4</ele>
        <time>2022-06-18T08:02:10Z</time>
      </trkpt>
      <trkpt lat="45.30025" lon="6.24577">
        <ele>1021.7</ele>
        <time>2022-06-18T08:02:11Z</time>
      </trkpt>
      <trkpt lat="45.30022" lon="6.24575">
        <ele>1022</ele>
        <time>2022-06-18T08:02:12Z</time>
      </trkpt>
      <trkpt lat="45.30019" lon="6.24572">
        <ele>1022.4</ele>
        <time>2022-06-18T08:02:13Z</time>
      </trkpt>
      <trkpt lat="45.30016" lon="6.24569">
        <ele>1022.7</ele>
        <time>2022-06-18T08:02:14Z</time>
      </trkpt>
      <trkpt lat="45.30012" lon="6.24566">
        <ele>1023.1</ele>
        <time>2022-06-18T08:02:15Z</time>
      </trkpt>
      <trkpt lat="45.3001" lon="6.24564">
        <ele>1023.4</ele>
        <time>2022-06-18T08:02:16Z</time>
      </trkpt>
      <trkpt lat="45.30006" lon="6.24558">
        <ele>1023.8</ele>
        <time>2022-06-18T08:02:18Z</time>
      </trkpt>
      <trkpt lat="45.30004" lon="6.24554">
        <ele>1024.1</ele>
        <time>2022-06-18T08:02:19Z</time>
      </trkpt>
      <trkpt lat="45.30003" lon="6.24549">
        <ele>1024.3</ele>
        <time>2022-06-18T08:02:20Z</time>
      </trkpt>
      <trkpt lat="45.30002" lon="6.24542">
        <ele>1024.7</ele>
        <time>2022-06-18T08:02:21Z</time>
      </trkpt>
      <trkpt lat="45.30002" lon="6.24538">
        <ele>1024.8</ele>
        <time>2022-06-18T08:02:22Z</time>
      </trkpt>
      <trkpt lat="45.30003" lon="6.24531">
        <ele>1025.1</ele>
        <time>2022-06-18T08:02:24Z</time>
      </trkpt>
      <trkpt lat="45.30003" lon="6.24525">
        <ele>1025.3</ele>
        <time>2022-06-18T08:02:25Z</time>
      </trkpt>
      <trkpt lat="45.30002" lon="6.24519">
        <ele>1025.5</ele>
        <time>2022-06-18T08:02:26Z</time>
      </trkpt>
      <trkpt lat="45.30002" lon="6.24517">
        <ele>1025.6</ele>
        <time>2022-06-18T08:02:27Z</time>
      </trkpt>
      <trkpt lat="45.30001" lon="6.24513">
        <ele>1025.7</ele>
        <time>2022-06-18T08:02:28Z</time>
      </trkpt>
      <trkpt lat="45.30001" lon="6.24507">
        <ele>1025.9</ele>
        <time>2022-06-18T08:02:30Z</time>
      </trkpt>
      <trkpt lat="45.30001" lon="6.24503">
        <ele>1026</ele>
        <time>2022-06-18T08:02:31Z</time>
      </trkpt>
      <trkpt lat="45.30001" lon="6.24497">
        <ele>1026.2</ele>
        <time>2022-06-18T08:02:32Z</time>
      </trkpt>
      <trkpt lat="45.30001" lon="6.24493">
        <ele>1026.3</ele>
        <time>2022-06-18T08:02:33Z</time>
      </trkpt>
      <trkpt lat="45.3" lon="6.24488">
        <ele>1026.6</ele>
        <time>2022-06-18T08:02:34Z</time>
      </trkpt>
      <trkpt lat="45.3" lon="6.24484">
        <ele>1026.8</ele>
        <time>2022-06-18T08:02:35Z</time>
      </trkpt>
      <trkpt lat="45.29999" lon="6.24479">
        <ele>1027.1</ele>
        <time>2022-06-18T08:02:36Z</time>
      </trkpt>
      <trkpt lat="45.29999" lon="6.24474">
        <ele>1027.4</ele>
        <time>2022-06-18T08:02:37Z</time>
      </trkpt>
      <trkpt lat="45.29999" lon="6.24472">
        <ele>1027.5</ele>
        <time>2022-06-18T08:02:38Z</time>
      </trkpt>
      <trkpt lat="45.29998" lon="6.24464">
        <ele>1028</ele>
        <time>2022-06-18T08:02:40Z</time>
      </trkpt>
      <trkpt lat="45.29998" lon="6.2446">
        <ele>1028.3</ele>
        <time>2022-06-18T08:02:42Z</time>
      </trkpt>
      <trkpt lat="45.29997" lon="6.24454">
        <ele>1028.6</ele>
        <time>2022-06-18T08:02:43Z</time>
      </trkpt>
      <trkpt lat="45.29996" lon="6.2445">
        <ele>1029</ele>
        <time>2022-06-18T08:02:44Z</time>
      </trkpt>
      <trkpt lat="45.29996" lon="6.24445">
        <ele>1029.3</ele>
        <time>2022-06-18T08:02:45Z</time>
      </trkpt>
      <trkpt lat="45.29995" lon="6.24443">
        <ele>1029.4</ele>
        <time>2022-06-18T08:02:46Z</time>
      </trkpt>
      <trkpt lat="45.29995" lon="6.24438">
        <ele>1029.9</ele>
        <time>2022-06-18T08:02:47Z</time>
      </trkpt>
      <trkpt lat="45.29995" lon="6.24436">
        <ele>1030</ele>
        <time>2022-06-18T08:02:48Z</time>
      </trkpt>
      <trkpt lat="45.29995" lon="6.2443">
        <ele>1030.4</ele>
        <time>2022-06-18T08:02:50Z</time>
      </trkpt>
      <trkpt lat="45.29995" lon="6.24428">
        <ele>1030.6</ele>
        <time>2022-06-18T08:02:51Z</time>
      </trkpt>
      <trkpt lat="45.29994" lon="6.24424">
        <ele>1030.9</ele>
        <time>2022-06-18T08:02:52Z</time>
      </trkpt>
      <trkpt lat="45.29994" lon="6.24421">
        <ele>1031.1</ele>
        <time>2022-06-18T08:02:53Z</time>
      </trkpt>
      <trkpt lat="45.29993" lon="6.24412">
        <ele>1031.9</ele>
        <time>2022-06-18T08:02:55Z</time>
      </trkpt>
      <trkpt lat="45.29991" lon="6.24403">
        <ele>1032.6</ele>
        <time>2022-06-18T08:02:56Z</time>
      </trkpt>
      <trkpt lat="45.29991" lon="6.24396">
        <ele>1033.3</ele>
        <time>2022-06-18T08:02:57Z</time>
      </trkpt>
      <trkpt lat="45.29991" lon="6.24391">
        <ele>1033.7</ele>
        <time>2022-06-18T08:02:58Z</time>
      </trkpt>
      <trkpt lat="45.2999" lon="6.24386">
        <ele>1034.2</ele>
        <time>2022-06-18T08:02:59Z</time>
      </trkpt>
      <trkpt lat="45.2999" lon="6.24382">
        <ele>1034.5</ele>
        <time>2022-06-18T08:03:00Z</time>
      </trkpt>
      <trkpt lat="45.2999" lon="6.24374">
        <ele>1035.3</ele>
        <time>2022-06-18T08:03:02Z</time>
      </trkpt>
      <trkpt lat="45.29991" lon="6.24368">
        <ele>1035.9</ele>
        <time>2022-06-18T08:03:03Z</time>
      </trkpt>
      <trkpt lat="45.29991" lon="6.24363">
        <ele>1036.4</ele>
        <time>2022-06-18T08:03:04Z</time>
      </trkpt>
      <trkpt lat="45.29991" lon="6.24358">
        <ele>1036.9</ele>
        <time>2022-06-18T08:03:05Z</time>
      </trkpt>
      <trkpt lat="45.2999" lon="6.24354">
        <ele>1037.4</ele>
        <time>2022-06-18T08:03:06Z</time>
      </trkpt>
      <trkpt lat="45.29989" lon="6.24349">
        <ele>1037.9</ele>
        <time>2022-06-18T08:03:07Z</time>
      </trkpt>
      <trkpt lat="45.29987" lon="6.24345">
        <ele>1038.4</ele>
        <time>2022-06-18T08:03:08Z</time>
      </trkpt>
      <trkpt lat="45.29986" lon="6.24341">
        <ele>1038.8</ele>
        <time>2022-06-18T08:03:09Z</time>
      </trkpt>
      <trkpt lat="45.29986" lon="6.24337">
        <ele>1039.3</ele>
        <time>2022-06-18T08:03:10Z</time>
      </trkpt>
      <trkpt lat="45.29985" lon="6.24332">
        <ele>1039.9</ele>
        <time>2022-06-18T08:03:11Z</time>
      </trkpt>
      <trkpt lat="45.29985" lon="6.24325">
        <ele>1040.7</ele>
        <time>2022-06-18T08:03:13Z</time>
      </trkpt>
      <trkpt lat="45.29985" lon="6.2432">
        <ele>1041.2</ele>
        <time>2022-06-18T08:03:14Z</time>
      </trkpt>
      <trkpt lat="45.29984" lon="6.24314">
        <ele>1041.9</ele>
        <time>2022-06-18T08:03:15Z</time>
      </trkpt>
      <trkpt lat="45.29983" lon="6.2431">
        <ele>1042.4</ele>
        <time>2022-06-18T08:03:16Z</time>
      </trkpt>
      <trkpt lat="45.29982" lon="6.24305">
        <ele>1042.9</ele>
        <time>2022-06-18T08:03:17Z</time>
      </trkpt>
      <trkpt lat="45.29979" lon="6.24301">
        <ele>1043.5</ele>
        <time>2022-06-18T08:03:19Z</time>
      </trkpt>
      <trkpt lat="45.29976" lon="6.24297">
        <ele>1044</ele>
        <time>2022-06-18T08:03:20Z</time>
      </trkpt>
      <trkpt lat="45.29973" lon="6.24295">
        <ele>1044.5</ele>
        <time>2022-06-18T08:03:21Z</time>
      </trkpt>
      <trkpt lat="45.2997" lon="6.24294">
        <ele>1045</ele>
        <time>2022-06-18T08:03:22Z</time>
      </trkpt>
      <trkpt lat="45.29965" lon="6.24294">
        <ele>1045.5</ele>
        <time>2022-06-18T08:03:23Z</time>
      </trkpt>
      <trkpt lat="45.29961" lon="6.24294">
        <ele>1046</ele>
        <time>2022-06-18T08:03:24Z</time>
      </trkpt>
      <trkpt lat="45.29957" lon="6.24292">
        <ele>1046.6</ele>
        <time>2022-06-18T08:03:26Z</time>
      </trkpt>
      <trkpt lat="45.29952" lon="6.24292">
        <ele>1047.1</ele>
        <time>2022-06-18T08:03:27Z</time>
      </trkpt>
      <trkpt lat="45.29948" lon="6.24289">
        <ele>1047.7</ele>
        <time>2022-06-18T08:03:29Z</time>
      </trkpt>
      <trkpt lat="45.29944" lon="6.24286">
        <ele>1048.2</ele>
        <time>2022-06-18T08:03:30Z</time>
      </trkpt>
      <trkpt lat="45.29942" lon="6.24285">
        <ele>1048.4</ele>
        <time>2022-06-18T08:03:31Z</time>
      </trkpt>
      <trkpt lat="45.2994" lon="6.24281">
        <ele>1048.8</ele>
        <time>2022-06-18T08:03:32Z</time>
      </trkpt>
      <trkpt lat="45.29939" lon="6.2428">
        <ele>1049</ele>
        <time>2022-06-18T08:03:33Z</time>
      </trkpt>
      <trkpt lat="45.29937" lon="6.24276">
        <ele>1049.4</ele>
        <time>2022-06-18T08:03:34Z</time>
      </trkpt>
      <trkpt lat="45.29937" lon="6.24274">
        <ele>1049.6</ele>
        <time>2022-06-18T08:03:35Z</time>
      </trkpt>
      <trkpt lat="45.29935" lon="6.2427">
        <ele>1049.9</ele>
        <time>2022-06-18T08:03:36Z</time>
      </trkpt>
      <trkpt lat="45.29931" lon="6.24265">
        <ele>1050.5</ele>
        <time>2022-06-18T08:03:38Z</time>
      </trkpt>
      <trkpt lat="45.29928" lon="6.24262">
        <ele>1051</ele>
        <time>2022-06-18T08:03:39Z</time>
      </trkpt>
      <trkpt lat="45.29926" lon="6.24261">
        <ele>1051.3</ele>
        <time>2022-06-18T08:03:40Z</time>
      </trkpt>
      <trkpt lat="45.29921" lon="6.2426">
        <ele>1051.8</ele>
        <time>2022-06-18T08:03:42Z</time>
      </trkpt>
      <trkpt lat="45.29918" lon="6.24262">
        <ele>1052.1</ele>
        <time>2022-06-18T08:03:43Z</time>
      </trkpt>
      <trkpt lat="45.29915" lon="6.24266">
        <ele>1052.5</ele>
        <time>2022-06-18T08:03:45Z</time>
      </trkpt>
      <trkpt lat="45.29911" lon="6.24271">
        <ele>1052.9</ele>
        <time>2022-06-18T08:03:46Z</time>
      </trkpt>
      <trkpt lat="45.29909" lon="6.24276">
        <ele>1053.3</ele>
        <time>2022-06-18T08:03:47Z</time>
      </trkpt>
      <trkpt lat="45.29907" lon="6.24279">
        <ele>1053.6</ele>
        <time>2022-06-18T08:03:48Z</time>
      </trkpt>
      <trkpt lat="45.29906" lon="6.24283">
        <ele>1053.9</ele>
        <time>2022-06-18T08:03:49Z</time>
      </trkpt>
      <trkpt lat="45.29904" lon="6.24286">
        <ele>1054.2</ele>
        <time>2022-06-18T08:03:50Z</time>
      </trkpt>
      <trkpt lat="45.29902" lon="6.2429">
        <ele>1054.5</ele>
        <time>2022-06-18T08:03:52Z</time>
      </trkpt>
      <trkpt lat="45.299" lon="6.24294">
        <ele>1054.9</ele>
        <time>2022-06-18T08:03:53Z</time>
      </trkpt>
      <trkpt lat="45.29896" lon="6.24297">
        <ele>1055.3</ele>
        <time>2022-06-18T08:03:54Z</time>
      </trkpt>
      <trkpt lat="45.29894" lon="6.24298">
        <ele>1055.5</ele>
        <time>2022-06-18T08:03:55Z</time>
      </trkpt>
      <trkpt lat="45.29891" lon="6.24297">
        <ele>1055.9</ele>
        <time>2022-06-18T08:03:56Z</time>
      </trkpt>
      <trkpt lat="45.29889" lon="6.24297">
        <ele>1056</ele>
        <time>2022-06-18T08:03:57Z</time>
      </trkpt>
      <trkpt lat="45.29886" lon="6.24294">
        <ele>1056.4</ele>
        <time>2022-06-18T08:03:58Z</time>
      </trkpt>
      <trkpt lat="45.29883" lon="6.2429">
        <ele>1056.9</ele>
        <time>2022-06-18T08:03:59Z</time>
      </trkpt>
      <trkpt lat="45.29879" lon="6.24287">
        <ele>1057.4</ele>
        <time>2022-06-18T08:04:01Z</time>
      </trkpt>
      <trkpt lat="45.29875" lon="6.24285">
        <ele>1057.9</ele>
        <time>2022-06-18T08:04:02Z</time>
      </trkpt>
      <trkpt lat="45.29872" lon="6.24284">
        <ele>1058.3</ele>
        <time>2022-06-18T08:04:03Z</time>
      </trkpt>
      <trkpt lat="45.29871" lon="6.24283">
        <ele>1058.4</ele>
        <time>2022-06-18T08:04:04Z</time>
      </trkpt>
      <trkpt lat="45.29868" lon="6.24281">
        <ele>1058.8</ele>
        <time>2022-06-18T08:04:06Z</time>
      </trkpt>
      <trkpt lat="45.29866" lon="6.24279">
        <ele>1059.1</ele>
        <time>2022-06-18T08:04:07Z</time>
      </trkpt>
      <trkpt lat="45.29865" lon="6.24277">
        <ele>1059.4</ele>
        <time>2022-06-18T08:04:09Z</time>
      </trkpt>
      <trkpt lat="45.29863" lon="6.24273">
        <ele>1059.7</ele>
        <time>2022-06-18T08:04:10Z</time>
      </trkpt>
      <trkpt lat="45.29862" lon="6.24272">
        <ele>1059.8</ele>
        <time>2022-06-18T08:04:11Z</time>
      </trkpt>
      <trkpt lat="45.2986" lon="6.24266">
        <ele>1060.3</ele>
        <time>2022-06-18T08:04:12Z</time>
      </trkpt>
      <trkpt lat="45.29859" lon="6.24256">
        <ele>1060.7</ele>
        <time>2022-06-18T08:04:14Z</time>
      </trkpt>
      <trkpt lat="45.29859" lon="6.2425">
        <ele>1061</ele>
        <time>2022-06-18T08:04:15Z</time>
      </trkpt>
      <trkpt lat="45.2986" lon="6.24243">
        <ele>1061.2</ele>
        <time>2022-06-18T08:04:16Z</time>
      </trkpt>
      <trkpt lat="45.29863" lon="6.24237">
        <ele>1061.4</ele>
        <time>2022-06-18T08:04:18Z</time>
      </trkpt>
      <trkpt lat="45.29865" lon="6.24233">
        <ele>1061.6</ele>
        <time>2022-06-18T08:04:19Z</time>
      </trkpt>
      <trkpt lat="45.29868" lon="6.24229">
        <ele>1061.8</ele>
        <time>2022-06-18T08:04:20Z</time>
      </trkpt>
      <trkpt lat="45.29871" lon="6.24224">
        <ele>1062</ele>
        <time>2022-06-18T08:04:21Z</time>
      </trkpt>
      <trkpt lat="45.29872" lon="6.24223">
        <ele>1062.1</ele>
        <time>2022-06-18T08:04:22Z</time>
      </trkpt>
      <trkpt lat="45.29874" lon="6.24219">
        <ele>1062.3</ele>
        <time>2022-06-18T08:04:23Z</time>
      </trkpt>
      <trkpt lat="45.29876" lon="6.24216">
        <ele>1062.5</ele>
        <time>2022-06-18T08:04:24Z</time>
      </trkpt>
      <trkpt lat="45.2988" lon="6.24212">
        <ele>1062.8</ele>
        <time>2022-06-18T08:04:26Z</time>
      </trkpt>
      <trkpt lat="45.29883" lon="6.24208">
        <ele>1063.2</ele>
        <time>2022-06-18T08:04:27Z</time>
      </trkpt>
      <trkpt lat="45.29885" lon="6.24204">
        <ele>1063.4</ele>
        <time>2022-06-18T08:04:28Z</time>
      </trkpt>
      <trkpt lat="45.29886" lon="6.24201">
        <ele>1063.6</ele>
        <time>2022-06-18T08:04:29Z</time>
      </trkpt>
      <trkpt lat="45.29888" lon="6.24194">
        <ele>1064</ele>
        <time>2022-06-18T08:04:31Z</time>
      </trkpt>
      <trkpt lat="45.29889" lon="6.24188">
        <ele>1064.4</ele>
        <time>2022-06-18T08:04:32Z</time>
      </trkpt>
      <trkpt lat="45.2989" lon="6.24183">
        <ele>1064.8</ele>
        <time>2022-06-18T08:04:33Z</time>
      </trkpt>
      <trkpt lat="45.2989" lon="6.24176">
        <ele>1065.1</ele>
        <time>2022-06-18T08:04:34Z</time>
      </trkpt>
      <trkpt lat="45.2989" lon="6.24171">
        <ele>1065.5</ele>
        <time>2022-06-18T08:04:35Z</time>
      </trkpt>
      <trkpt lat="45.2989" lon="6.24166">
        <ele>1065.8</ele>
        <time>2022-06-18T08:04:36Z</time>
      </trkpt>
      <trkpt lat="45.29889" lon="6.24158">
        <ele>1066.3</ele>
        <time>2022-06-18T08:04:38Z</time>
      </trkpt>
      <trkpt lat="45.29887" lon="6.24152">
        <ele>1066.7</ele>
        <time>2022-06-18T08:04:39Z</time>
      </trkpt>
      <trkpt lat="45.29885" lon="6.24148">
        <ele>1067</ele>
        <time>2022-06-18T08:04:40Z</time>
      </trkpt>
      <trkpt lat="45.29884" lon="6.24144">
        <ele>1067.2</ele>
        <time>2022-06-18T08:04:41Z</time>
      </trkpt>
      <trkpt lat="45.29883" lon="6.24139">
        <ele>1067.5</ele>
        <time>2022-06-18T08:04:42Z</time>
      </trkpt>
      <trkpt lat="45.29882" lon="6.24134">
        <ele>1067.8</ele>
        <time>2022-06-18T08:04:43Z</time>
      </trkpt>
      <trkpt lat="45.29882" lon="6.2413">
        <ele>1068.1</ele>
        <time>2022-06-18T08:04:44Z</time>
      </trkpt>
      <trkpt lat="45.29882" lon="6.24125">
        <ele>1068.4</ele>
        <time>2022-06-18T08:04:46Z</time>
      </trkpt>
      <trkpt lat="45.29881" lon="6.24121">
        <ele>1068.7</ele>
        <time>2022-06-18T08:04:47Z</time>
      </trkpt>
      <trkpt lat="45.2988" lon="6.24116">
        <ele>1069</ele>
        <time>2022-06-18T08:04:48Z</time>
      </trkpt>
      <trkpt lat="45.29879" lon="6.2411">
        <ele>1069.5</ele>
        <time>2022-06-18T08:04:49Z</time>
      </trkpt>
      <trkpt lat="45.29878" lon="6.24106">
        <ele>1069.8</ele>
        <time>2022-06-18T08:04:50Z</time>
      </trkpt>
      <trkpt lat="45.29878" lon="6.24101">
        <ele>1070.2</ele>
        <time>2022-06-18T08:04:51Z</time>
      </trkpt>
      <trkpt lat="45.29877" lon="6.24096">
        <ele>1070.6</ele>
        <time>2022-06-18T08:04:52Z</time>
      </trkpt>
      <trkpt lat="45.29877" lon="6.24091">
        <ele>1071</ele>
        <time>2022-06-18T08:04:53Z</time>
      </trkpt>
      <trkpt lat="45.29877" lon="6.24085">
        <ele>1071.5</ele>
        <time>2022-06-18T08:04:55Z</time>
      </trkpt>
      <trkpt lat="45.29876" lon="6.2408">
        <ele>1071.9</ele>
        <time>2022-06-18T08:04:56Z</time>
      </trkpt>
      <trkpt lat="45.29875" lon="6.24076">
        <ele>1072.3</ele>
        <time>2022-06-18T08:04:57Z</time>
      </trkpt>
      <trkpt lat="45.29873" lon="6.24071">
        <ele>1072.7</ele>
        <time>2022-06-18T08:04:58Z</time>
      </trkpt>
      <trkpt lat="45.29872" lon="6.24066">
        <ele>1073.2</ele>
        <time>2022-06-18T08:04:59Z</time>
      </trkpt>
      <trkpt lat="45.2987" lon="6.24062">
        <ele>1073.5</ele>
        <time>2022-06-18T08:05:00Z</time>
      </trkpt>
      <trkpt lat="45.29868" lon="6.24059">
        <ele>1073.8</ele>
        <time>2022-06-18T08:05:01Z</time>
      </trkpt>
      <trkpt lat="45.29865" lon="6.24056">
        <ele>1074.2</ele>
        <time>2022-06-18T08:05:03Z</time>
      </trkpt>
      <trkpt lat="45.29861" lon="6.24053">
        <ele>1074.6</ele>
        <time>2022-06-18T08:05:04Z</time>
      </trkpt>
      <trkpt lat="45.29858" lon="6.24052">
        <ele>1074.8</ele>
        <time>2022-06-18T08:05:05Z</time>
      </trkpt>
      <trkpt lat="45.29854" lon="6.24053">
        <ele>1075.1</ele>
        <time>2022-06-18T08:05:06Z</time>
      </trkpt>
      <trkpt lat="45.2985" lon="6.24055">
        <ele>1075.5</ele>
        <time>2022-06-18T08:05:08Z</time>
      </trkpt>
      <trkpt lat="45.29847" lon="6.24058">
        <ele>1075.7</ele>
        <time>2022-06-18T08:05:09Z</time>
      </trkpt>
      <trkpt lat="45.29844" lon="6.24061">
        <ele>1076</ele>
        <time>2022-06-18T08:05:10Z</time>
      </trkpt>
      <trkpt lat="45.29842" lon="6.24064">
        <ele>1076.2</ele>
        <time>2022-06-18T08:05:11Z</time>
      </trkpt>
      <trkpt lat="45.29839" lon="6.24067">
        <ele>1076.4</ele>
        <time>2022-06-18T08:05:12Z</time>
      </trkpt>
      <trkpt lat="45.29837" lon="6.24069">
        <ele>1076.7</ele>
        <time>2022-06-18T08:05:13Z</time>
      </trkpt>
      <trkpt lat="45.29835" lon="6.24072">
        <ele>1076.9</ele>
        <time>2022-06-18T08:05:14Z</time>
      </trkpt>
      <trkpt lat="45.29832" lon="6.24074">
        <ele>1077.2</ele>
        <time>2022-06-18T08:05:15Z</time>
      </trkpt>
      <trkpt lat="45.29828" lon="6.24078">
        <ele>1077.6</ele>
        <time>2022-06-18T08:05:17Z</time>
      </trkpt>
      <trkpt lat="45.29824" lon="6.24081">
        <ele>1078</ele>
        <time>2022-06-18T08:05:18Z</time>
      </trkpt>
      <trkpt lat="45.29819" lon="6.24084">
        <ele>1078.4</ele>
        <time>2022-06-18T08:05:20Z</time>
      </trkpt>
      <trkpt lat="45.29818" lon="6.24084">
        <ele>1078.5</ele>
        <time>2022-06-18T08:05:21Z</time>
      </trkpt>
      <trkpt lat="45.29816" lon="6.24085">
        <ele>1078.7</ele>
        <time>2022-06-18T08:05:22Z</time>
      </trkpt>
      <trkpt lat="45.29813" lon="6.24084">
        <ele>1078.9</ele>
        <time>2022-06-18T08:05:23Z</time>
      </trkpt>
      <trkpt lat="45.2981" lon="6.24081">
        <ele>1079.1</ele>
        <time>2022-06-18T08:05:24Z</time>
      </trkpt>
      <trkpt lat="45.29809" lon="6.2408">
        <ele>1079.2</ele>
        <time>2022-06-18T08:05:25Z</time>
      </trkpt>
      <trkpt lat="45.29805" lon="6.24077">
        <ele>1079.4</ele>
        <time>2022-06-18T08:05:26Z</time>
      </trkpt>
      <trkpt lat="45.298" lon="6.24074">
        <ele>1079.6</ele>
        <time>2022-06-18T08:05:27Z</time>
      </trkpt>
      <trkpt lat="45.29798" lon="6.24071">
        <ele>1079.7</ele>
        <time>2022-06-18T08:05:28Z</time>
      </trkpt>
      <trkpt lat="45.29794" lon="6.24067">
        <ele>1079.8</ele>
        <time>2022-06-18T08:05:29Z</time>
      </trkpt>
      <trkpt lat="45.2979" lon="6.2406">
        <ele>1080</ele>
        <time>2022-06-18T08:05:30Z</time>
      </trkpt>
      <trkpt lat="45.29784" lon="6.24051">
        <ele>1080.2</ele>
        <time>2022-06-18T08:05:32Z</time>
      </trkpt>
      <trkpt lat="45.2978" lon="6.24044">
        <ele>1080.5</ele>
        <time>2022-06-18T08:05:33Z</time>
      </trkpt>
      <trkpt lat="45.29777" lon="6.2404">
        <ele>1080.7</ele>
        <time>2022-06-18T08:05:34Z</time>
      </trkpt>
      <trkpt lat="45.29774" lon="6.24036">
        <ele>1080.9</ele>
        <time>2022-06-18T08:05:35Z</time>
      </trkpt>
      <trkpt lat="45.2977" lon="6.2403">
        <ele>1081.2</ele>
        <time>2022-06-18T08:05:37Z</time>
      </trkpt>
      <trkpt lat="45.29768" lon="6.24026">
        <ele>1081.5</ele>
        <time>2022-06-18T08:05:38Z</time>
      </trkpt>
      <trkpt lat="45.29765" lon="6.24021">
        <ele>1081.9</ele>
        <time>2022-06-18T08:05:39Z</time>
      </trkpt>
      <trkpt lat="45.29762" lon="6.24016">
        <ele>1082.2</ele>
        <time>2022-06-18T08:05:40Z</time>
      </trkpt>
      <trkpt lat="45.2976" lon="6.24011">
        <ele>1082.5</ele>
        <time>2022-06-18T08:05:41Z</time>
      </trkpt>
      <trkpt lat="45.29756" lon="6.24003">
        <ele>1083.2</ele>
        <time>2022-06-18T08:05:43Z</time>
      </trkpt>
      <trkpt lat="45.29754" lon="6.23997">
        <ele>1083.6</ele>
        <time>2022-06-18T08:05:44Z</time>
      </trkpt>
      <trkpt lat="45.29752" lon="6.2399">
        <ele>1084.1</ele>
        <time>2022-06-18T08:05:46Z</time>
      </trkpt>
      <trkpt lat="45.29751" lon="6.23983">
        <ele>1084.6</ele>
        <time>2022-06-18T08:05:47Z</time>
      </trkpt>
      <trkpt lat="45.2975" lon="6.23976">
        <ele>1085.1</ele>
        <time>2022-06-18T08:05:48Z</time>
      </trkpt>
      <trkpt lat="45.29752" lon="6.23969">
        <ele>1085.6</ele>
        <time>2022-06-18T08:05:49Z</time>
      </trkpt>
      <trkpt lat="45.29754" lon="6.23962">
        <ele>1086.1</ele>
        <time>2022-06-18T08:05:51Z</time>
      </trkpt>
      <trkpt lat="45.29756" lon="6.23955">
        <ele>1086.6</ele>
        <time>2022-06-18T08:05:52Z</time>
      </trkpt>
      <trkpt lat="45.29757" lon="6.23948">
        <ele>1087.1</ele>
        <time>2022-06-18T08:05:54Z</time>
      </trkpt>
      <trkpt lat="45.29757" lon="6.23941">
        <ele>1087.6</ele>
        <time>2022-06-18T08:05:55Z</time>
      </trkpt>
      <trkpt lat="45.29757" lon="6.23935">
        <ele>1088</ele>
        <time>2022-06-18T08:05:56Z</time>
      </trkpt>
      <trkpt lat="45.29755" lon="6.23928">
        <ele>1088.5</ele>
        <time>2022-06-18T08:05:58Z</time>
      </trkpt>
      <trkpt lat="45.29754" lon="6.23924">
        <ele>1088.9</ele>
        <time>2022-06-18T08:05:59Z</time>
      </trkpt>
      <trkpt lat="45.2975" lon="6.23917">
        <ele>1089.5</ele>
        <time>2022-06-18T08:06:00Z</time>
      </trkpt>
      <trkpt lat="45.29747" lon="6.23914">
        <ele>1089.8</ele>
        <time>2022-06-18T08:06:01Z</time>
      </trkpt>
      <trkpt lat="45.29741" lon="6.23911">
        <ele>1090.4</ele>
        <time>2022-06-18T08:06:02Z</time>
      </trkpt>
      <trkpt lat="45.29738" lon="6.23908">
        <ele>1090.8</ele>
        <time>2022-06-18T08:06:03Z</time>
      </trkpt>
      <trkpt lat="45.29734" lon="6.23904">
        <ele>1091.3</ele>
        <time>2022-06-18T08:06:04Z</time>
      </trkpt>
      <trkpt lat="45.29732" lon="6.23899">
        <ele>1091.6</ele>
        <time>2022-06-18T08:06:06Z</time>
      </trkpt>
      <trkpt lat="45.29729" lon="6.23892">
        <ele>1092.1</ele>
        <time>2022-06-18T08:06:07Z</time>
      </trkpt>
      <trkpt lat="45.29731" lon="6.23883">
        <ele>1092.6</ele>
        <time>2022-06-18T08:06:09Z</time>
      </trkpt>
      <trkpt lat="45.29733" lon="6.23877">
        <ele>1093</ele>
        <time>2022-06-18T08:06:10Z</time>
      </trkpt>
      <trkpt lat="45.29735" lon="6.2387">
        <ele>1093.4</ele>
        <time>2022-06-18T08:06:11Z</time>
      </trkpt>
      <trkpt lat="45.29737" lon="6.23863">
        <ele>1093.8</ele>
        <time>2022-06-18T08:06:13Z</time>
      </trkpt>
      <trkpt lat="45.29739" lon="6.23857">
        <ele>1094.1</ele>
        <time>2022-06-18T08:06:14Z</time>
      </trkpt>
      <trkpt lat="45.2974" lon="6.23851">
        <ele>1094.5</ele>
        <time>2022-06-18T08:06:15Z</time>
      </trkpt>
      <trkpt lat="45.29741" lon="6.23844">
        <ele>1095</ele>
        <time>2022-06-18T08:06:16Z</time>
      </trkpt>
      <trkpt lat="45.29741" lon="6.23839">
        <ele>1095.3</ele>
        <time>2022-06-18T08:06:17Z</time>
      </trkpt>
      <trkpt lat="45.29741" lon="6.23834">
        <ele>1095.6</ele>
        <time>2022-06-18T08:06:18Z</time>
      </trkpt>
      <trkpt lat="45.2974" lon="6.23828">
        <ele>1095.6</ele>
        <time>2022-06-18T08:06:19Z</time>
      </trkpt>
      <trkpt lat="45.29737" lon="6.23824">
        <ele>1095.6</ele>
        <time>2022-06-18T08:06:20Z</time>
      </trkpt>
      <trkpt lat="45.29734" lon="6.23821">
        <ele>1095.6</ele>
        <time>2022-06-18T08:06:21Z</time>
      </trkpt>
      <trkpt lat="45.2973" lon="6.23817">
        <ele>1096</ele>
        <time>2022-06-18T08:06:22Z</time>
      </trkpt>
      <trkpt lat="45.29722" lon="6.23813">
        <ele>1096.6</ele>
        <time>2022-06-18T08:06:24Z</time>
      </trkpt>
      <trkpt lat="45.29717" lon="6.2381">
        <ele>1097</ele>
        <time>2022-06-18T08:06:25Z</time>
      </trkpt>
      <trkpt lat="45.29713" lon="6.23806">
        <ele>1097.4</ele>
        <time>2022-06-18T08:06:26Z</time>
      </trkpt>
      <trkpt lat="45.2971" lon="6.23802">
        <ele>1097.7</ele>
        <time>2022-06-18T08:06:27Z</time>
      </trkpt>
      <trkpt lat="45.29709" lon="6.23794">
        <ele>1098.2</ele>
        <time>2022-06-18T08:06:29Z</time>
      </trkpt>
      <trkpt lat="45.29709" lon="6.23785">
        <ele>1098.7</ele>
        <time>2022-06-18T08:06:30Z</time>
      </trkpt>
      <trkpt lat="45.2971" lon="6.23777">
        <ele>1099.2</ele>
        <time>2022-06-18T08:06:32Z</time>
      </trkpt>
      <trkpt lat="45.29712" lon="6.2377">
        <ele>1099.7</ele>
        <time>2022-06-18T08:06:33Z</time>
      </trkpt>
      <trkpt lat="45.29714" lon="6.23762">
        <ele>1100.2</ele>
        <time>2022-06-18T08:06:34Z</time>
      </trkpt>
      <trkpt lat="45.29716" lon="6.23753">
        <ele>1100.8</ele>
        <time>2022-06-18T08:06:36Z</time>
      </trkpt>
      <trkpt lat="45.29717" lon="6.23746">
        <ele>1101.2</ele>
        <time>2022-06-18T08:06:37Z</time>
      </trkpt>
      <trkpt lat="45.29718" lon="6.2374">
        <ele>1101.6</ele>
        <time>2022-06-18T08:06:38Z</time>
      </trkpt>
      <trkpt lat="45.29719" lon="6.23734">
        <ele>1102</ele>
        <time>2022-06-18T08:06:39Z</time>
      </trkpt>
      <trkpt lat="45.29719" lon="6.23727">
        <ele>1102.3</ele>
        <time>2022-06-18T08:06:40Z</time>
      </trkpt>
      <trkpt lat="45.2972" lon="6.23722">
        <ele>1102.6</ele>
        <time>2022-06-18T08:06:41Z</time>
      </trkpt>
      <trkpt lat="45.29721" lon="6.23714">
        <ele>1103.1</ele>
        <time>2022-06-18T08:06:43Z</time>
      </trkpt>
      <trkpt lat="45.29721" lon="6.23707">
        <ele>1103.5</ele>
        <time>2022-06-18T08:06:44Z</time>
      </trkpt>
      <trkpt lat="45.29722" lon="6.237">
        <ele>1103.9</ele>
        <time>2022-06-18T08:06:45Z</time>
      </trkpt>
      <trkpt lat="45.29722" lon="6.23694">
        <ele>1104.2</ele>
        <time>2022-06-18T08:06:46Z</time>
      </trkpt>
      <trkpt lat="45.29722" lon="6.23688">
        <ele>1104.5</ele>
        <time>2022-06-18T08:06:47Z</time>
      </trkpt>
      <trkpt lat="45.29723" lon="6.23682">
        <ele>1104.7</ele>
        <time>2022-06-18T08:06:48Z</time>
      </trkpt>
      <trkpt lat="45.29723" lon="6.23675">
        <ele>1104.7</ele>
        <time>2022-06-18T08:06:50Z</time>
      </trkpt>
      <trkpt lat="45.29723" lon="6.2367">
        <ele>1104.7</ele>
        <time>2022-06-18T08:06:51Z</time>
      </trkpt>
      <trkpt lat="45.29723" lon="6.23662">
        <ele>1104.6</ele>
        <time>2022-06-18T08:06:52Z</time>
      </trkpt>
      <trkpt lat="45.29722" lon="6.23657">
        <ele>1104.6</ele>
        <time>2022-06-18T08:06:53Z</time>
      </trkpt>
      <trkpt lat="45.29722" lon="6.23652">
        <ele>1104.6</ele>
        <time>2022-06-18T08:06:54Z</time>
      </trkpt>
      <trkpt lat="45.29721" lon="6.23647">
        <ele>1104.5</ele>
        <time>2022-06-18T08:06:55Z</time>
      </trkpt>
      <trkpt lat="45.2972" lon="6.23642">
        <ele>1104.4</ele>
        <time>2022-06-18T08:06:56Z</time>
      </trkpt>
      <trkpt lat="45.29718" lon="6.23636">
        <ele>1104.4</ele>
        <time>2022-06-18T08:06:57Z</time>
      </trkpt>
      <trkpt lat="45.29716" lon="6.2363">
        <ele>1104.3</ele>
        <time>2022-06-18T08:06:58Z</time>
      </trkpt>
      <trkpt lat="45.29714" lon="6.23624">
        <ele>1104.2</ele>
        <time>2022-06-18T08:06:59Z</time>
      </trkpt>
      <trkpt lat="45.29712" lon="6.23618">
        <ele>1104.2</ele>
        <time>2022-06-18T08:07:00Z</time>
      </trkpt>
      <trkpt lat="45.29709" lon="6.23613">
        <ele>1104.1</ele>
        <time>2022-06-18T08:07:01Z</time>
      </trkpt>
      <trkpt lat="45.29707" lon="6.23609">
        <ele>1104.1</ele>
        <time>2022-06-18T08:07:02Z</time>
      </trkpt>
      <trkpt lat="45.29705" lon="6.23605">
        <ele>1104</ele>
        <time>2022-06-18T08:07:03Z</time>
      </trkpt>
      <trkpt lat="45.29704" lon="6.23601">
        <ele>1104</ele>
        <time>2022-06-18T08:07:04Z</time>
      </trkpt>
      <trkpt lat="45.29705" lon="6.23599">
        <ele>1104</ele>
        <time>2022-06-18T08:07:05Z</time>
      </trkpt>
      <trkpt lat="45.29705" lon="6.23598">
        <ele>1104</ele>
        <time>2022-06-18T08:07:06Z</time>
      </trkpt>
      <trkpt lat="45.29705" lon="6.23597">
        <ele>1103.9</ele>
        <time>2022-06-18T08:07:07Z</time>
      </trkpt>
      <trkpt lat="45.29704" lon="6.23596">
        <ele>1103.9</ele>
        <time>2022-06-18T08:07:08Z</time>
      </trkpt>
      <trkpt lat="45.29703" lon="6.23591">
        <ele>1103.9</ele>
        <time>2022-06-18T08:07:09Z</time>
      </trkpt>
      <trkpt lat="45.29702" lon="6.2359">
        <ele>1103.9</ele>
        <time>2022-06-18T08:07:10Z</time>
      </trkpt>
      <trkpt lat="45.29701" lon="6.23586">
        <ele>1103.8</ele>
        <time>2022-06-18T08:07:11Z</time>
      </trkpt>
      <trkpt lat="45.29697" lon="6.23582">
        <ele>1103.8</ele>
        <time>2022-06-18T08:07:12Z</time>
      </trkpt>
      <trkpt lat="45.29694" lon="6.23579">
        <ele>1103.7</ele>
        <time>2022-06-18T08:07:13Z</time>
      </trkpt>
      <trkpt lat="45.29687" lon="6.23572">
        <ele>1103.6</ele>
        <time>2022-06-18T08:07:15Z</time>
      </trkpt>
      <trkpt lat="45.29685" lon="6.23569">
        <ele>1103.5</ele>
        <time>2022-06-18T08:07:16Z</time>
      </trkpt>
      <trkpt lat="45.29685" lon="6.23568">
        <ele>1103.5</ele>
        <time>2022-06-18T08:07:17Z</time>
      </trkpt>
      <trkpt lat="45.29685" lon="6.23568">
        <ele>1103.5</ele>
        <time>2022-06-18T08:07:18Z</time>
      </trkpt>
      <trkpt lat="45.29685" lon="6.23567">
        <ele>1103.5</ele>
        <time>2022-06-18T08:07:19Z</time>
      </trkpt>
      <trkpt lat="45.29685" lon="6.23567">
        <ele>1103.5</ele>
        <time>2022-06-18T08:07:20Z</time>
      </trkpt>
      <trkpt lat="45.29686" lon="6.23567">
        <ele>1103.5</ele>
        <time>2022-06-18T08:07:21Z</time>
      </trkpt>
      <trkpt lat="45.29687" lon="6.23569">
        <ele>1103.5</ele>
        <time>2022-06-18T08:07:22Z</time>
      </trkpt>
      <trkpt lat="45.29688" lon="6.23572">
        <ele>1103.4</ele>
        <time>2022-06-18T08:07:24Z</time>
      </trkpt>
      <trkpt lat="45.29688" lon="6.23573">
        <ele>1103.4</ele>
        <time>2022-06-18T08:07:25Z</time>
      </trkpt>
      <trkpt lat="45.29689" lon="6.23572">
        <ele>1103.4</ele>
        <time>2022-06-18T08:07:27Z</time>
      </trkpt>
      <trkpt lat="45.29691" lon="6.23571">
        <ele>1103.4</ele>
        <time>2022-06-18T08:07:28Z</time>
      </trkpt>
      <trkpt lat="45.29693" lon="6.23571">
        <ele>1103.3</ele>
        <time>2022-06-18T08:07:29Z</time>
      </trkpt>
      <trkpt lat="45.29696" lon="6.23574">
        <ele>1103.3</ele>
        <time>2022-06-18T08:07:31Z</time>
      </trkpt>
      <trkpt lat="45.29697" lon="6.23581">
        <ele>1103.2</ele>
        <time>2022-06-18T08:07:32Z</time>
      </trkpt>
      <trkpt lat="45.29699" lon="6.23587">
        <ele>1103.1</ele>
        <time>2022-06-18T08:07:33Z</time>
      </trkpt>
      <trkpt lat="45.29701" lon="6.2359">
        <ele>1103.1</ele>
        <time>2022-06-18T08:07:34Z</time>
      </trkpt>
      <trkpt lat="45.29704" lon="6.23589">
        <ele>1103</ele>
        <time>2022-06-18T08:07:35Z</time>
      </trkpt>
      <trkpt lat="45.29706" lon="6.23584">
        <ele>1103</ele>
        <time>2022-06-18T08:07:36Z</time>
      </trkpt>
      <trkpt lat="45.29707" lon="6.23578">
        <ele>1102.9</ele>
        <time>2022-06-18T08:07:37Z</time>
      </trkpt>
      <trkpt lat="45.29706" lon="6.23573">
        <ele>1102.9</ele>
        <time>2022-06-18T08:07:38Z</time>
      </trkpt>
      <trkpt lat="45.29705" lon="6.23567">
        <ele>1102.8</ele>
        <time>2022-06-18T08:07:39Z</time>
      </trkpt>
      <trkpt lat="45.29705" lon="6.23562">
        <ele>1102.8</ele>
        <time>2022-06-18T08:07:40Z</time>
      </trkpt>
      <trkpt lat="45.29704" lon="6.23559">
        <ele>1102.7</ele>
        <time>2022-06-18T08:07:41Z</time>
      </trkpt>
      <trkpt lat="45.29703" lon="6.23558">
        <ele>1102.7</ele>
        <time>2022-06-18T08:07:42Z</time>
      </trkpt>
      <trkpt lat="45.29702" lon="6.23557">
        <ele>1102.7</ele>
        <time>2022-06-18T08:07:43Z</time>
      </trkpt>
      <trkpt lat="45.29702" lon="6.23556">
        <ele>1102.7</ele>
        <time>2022-06-18T08:07:44Z</time>
      </trkpt>
      <trkpt lat="45.297" lon="6.23558">
        <ele>1102.7</ele>
        <time>2022-06-18T08:07:46Z</time>
      </trkpt>
      <trkpt lat="45.297" lon="6.23559">
        <ele>1102.7</ele>
        <time>2022-06-18T08:07:47Z</time>
      </trkpt>
      <trkpt lat="45.297" lon="6.2356">
        <ele>1102.7</ele>
        <time>2022-06-18T08:07:48Z</time>
      </trkpt>
      <trkpt lat="45.297" lon="6.23561">
        <ele>1102.7</ele>
        <time>2022-06-18T08:07:49Z</time>
      </trkpt>
      <trkpt lat="45.297" lon="6.23561">
        <ele>1102.7</ele>
        <time>2022-06-18T08:07:50Z</time>
      </trkpt>
      <trkpt lat="45.297" lon="6.23562">
        <ele>1102.7</ele>
        <time>2022-06-18T08:07:52Z</time>
      </trkpt>
      <trkpt lat="45.29701" lon="6.23562">
        <ele>1102.6</ele>
        <time>2022-06-18T08:07:53Z</time>
      </trkpt>
      <trkpt lat="45.29701" lon="6.23563">
        <ele>1102.6</ele>
        <time>2022-06-18T08:07:54Z</time>
      </trkpt>
      <trkpt lat="45.29701" lon="6.23563">
        <ele>1102.6</ele>
        <time>2022-06-18T08:07:55Z</time>
      </trkpt>
      <trkpt lat="45.29701" lon="6.23564">
        <ele>1102.6</ele>
        <time>2022-06-18T08:07:56Z</time>
      </trkpt>
      <trkpt lat="45.29702" lon="6.23564">
        <ele>1102.6</ele>
        <time>2022-06-18T08:07:57Z</time>
      </trkpt>
      <trkpt lat="45.29702" lon="6.23564">
        <ele>1102.6</ele>
        <time>2022-06-18T08:07:58Z</time>
      </trkpt>
      <trkpt lat="45.29702" lon="6.23565">
        <ele>1102.6</ele>
        <time>2022-06-18T08:07:59Z</time>
      </trkpt>
      <trkpt lat="45.29702" lon="6.23565">
        <ele>1102.6</ele>
        <time>2022-06-18T08:08:00Z</time>
      </trkpt>
      <trkpt lat="45.29702" lon="6.23566">
        <ele>1102.6</ele>
        <time>2022-06-18T08:08:01Z</time>
      </trkpt>
      <trkpt lat="45.29703" lon="6.23566">
        <ele>1102.6</ele>
        <time>2022-06-18T08:08:02Z</time>
      </trkpt>
      <trkpt lat="45.29703" lon="6.23567">
        <ele>1102.6</ele>
        <time>2022-06-18T08:08:03Z</time>
      </trkpt>
      <trkpt lat="45.29703" lon="6.23567">
        <ele>1102.6</ele>
        <time>2022-06-18T08:08:39Z</time>
      </trkpt>
      <trkpt lat="45.29703" lon="6.23568">
        <ele>1102.6</ele>
        <time>2022-06-18T08:08:40Z</time>
      </trkpt>
      <trkpt lat="45.29704" lon="6.23568">
        <ele>1102.6</ele>
        <time>2022-06-18T08:08:41Z</time>
      </trkpt>
      <trkpt lat="45.29704" lon="6.23569">
        <ele>1102.6</ele>
        <time>2022-06-18T08:08:42Z</time>
      </trkpt>
      <trkpt lat="45.29704" lon="6.23569">
        <ele>1102.6</ele>
        <time>2022-06-18T08:08:43Z</time>
      </trkpt>
      <trkpt lat="45.29704" lon="6.2357">
        <ele>1102.6</ele>
        <time>2022-06-18T08:08:45Z</time>
      </trkpt>
      <trkpt lat="45.29704" lon="6.2357">
        <ele>1102.6</ele>
        <time>2022-06-18T08:08:46Z</time>
      </trkpt>
      <trkpt lat="45.29705" lon="6.23571">
        <ele>1102.6</ele>
        <time>2022-06-18T08:08:47Z</time>
      </trkpt>
      <trkpt lat="45.29705" lon="6.23571">
        <ele>1102.6</ele>
        <time>2022-06-18T08:08:48Z</time>
      </trkpt>
      <trkpt lat="45.29705" lon="6.23572">
        <ele>1102.6</ele>
        <time>2022-06-18T08:08:49Z</time>
      </trkpt>
      <trkpt lat="45.29705" lon="6.23572">
        <ele>1102.6</ele>
        <time>2022-06-18T08:08:50Z</time>
      </trkpt>
      <trkpt lat="45.29706" lon="6.23572">
        <ele>1102.5</ele>
        <time>2022-06-18T08:10:34Z</time>
      </trkpt>
      <trkpt lat="45.29706" lon="6.23573">
        <ele>1102.5</ele>
        <time>2022-06-18T08:10:36Z</time>
      </trkpt>
      <trkpt lat="45.29706" lon="6.23573">
        <ele>1102.5</ele>
        <time>2022-06-18T08:10:37Z</time>
      </trkpt>
      <trkpt lat="45.29706" lon="6.23579">
        <ele>1102.5</ele>
        <time>2022-06-18T08:10:38Z</time>
      </trkpt>
      <trkpt lat="45.29705" lon="6.23585">
        <ele>1102.4</ele>
        <time>2022-06-18T08:10:39Z</time>
      </trkpt>
      <trkpt lat="45.29703" lon="6.23588">
        <ele>1102.4</ele>
        <time>2022-06-18T08:10:40Z</time>
      </trkpt>
      <trkpt lat="45.29702" lon="6.23587">
        <ele>1102.4</ele>
        <time>2022-06-18T08:10:41Z</time>
      </trkpt>
      <trkpt lat="45.29701" lon="6.23584">
        <ele>1102.4</ele>
        <time>2022-06-18T08:10:42Z</time>
      </trkpt>
      <trkpt lat="45.297" lon="6.23581">
        <ele>1102.3</ele>
        <time>2022-06-18T08:10:43Z</time>
      </trkpt>
      <trkpt lat="45.29699" lon="6.23574">
        <ele>1102.3</ele>
        <time>2022-06-18T08:10:45Z</time>
      </trkpt>
      <trkpt lat="45.29693" lon="6.23557">
        <ele>1102.2</ele>
        <time>2022-06-18T08:10:46Z</time>
      </trkpt>
      <trkpt lat="45.29691" lon="6.23549">
        <ele>1102.2</ele>
        <time>2022-06-18T08:10:47Z</time>
      </trkpt>
      <trkpt lat="45.29689" lon="6.23542">
        <ele>1102.1</ele>
        <time>2022-06-18T08:10:48Z</time>
      </trkpt>
      <trkpt lat="45.29687" lon="6.23534">
        <ele>1102.1</ele>
        <time>2022-06-18T08:10:49Z</time>
      </trkpt>
      <trkpt lat="45.29686" lon="6.23526">
        <ele>1102.1</ele>
        <time>2022-06-18T08:10:50Z</time>
      </trkpt>
      <trkpt lat="45.29684" lon="6.23518">
        <ele>1102.1</ele>
        <time>2022-06-18T08:10:51Z</time>
      </trkpt>
      <trkpt lat="45.29683" lon="6.2351">
        <ele>1102.1</ele>
        <time>2022-06-18T08:10:52Z</time>
      </trkpt>
      <trkpt lat="45.29682" lon="6.23501">
        <ele>1102.1</ele>
        <time>2022-06-18T08:10:53Z</time>
      </trkpt>
      <trkpt lat="45.29681" lon="6.23493">
        <ele>1102.1</ele>
        <time>2022-06-18T08:10:54Z</time>
      </trkpt>
      <trkpt lat="45.29679" lon="6.23485">
        <ele>1102.1</ele>
        <time>2022-06-18T08:10:55Z</time>
      </trkpt>
      <trkpt lat="45.29677" lon="6.23477">
        <ele>1102.2</ele>
        <time>2022-06-18T08:10:56Z</time>
      </trkpt>
      <trkpt lat="45.29676" lon="6.23469">
        <ele>1102.2</ele>
        <time>2022-06-18T08:10:57Z</time>
      </trkpt>
      <trkpt lat="45.29675" lon="6.23461">
        <ele>1102.1</ele>
        <time>2022-06-18T08:10:58Z</time>
      </trkpt>
      <trkpt lat="45.29673" lon="6.23453">
        <ele>1102.1</ele>
        <time>2022-06-18T08:10:59Z</time>
      </trkpt>
      <trkpt lat="45.2967" lon="6.23445">
        <ele>1102.1</ele>
        <time>2022-06-18T08:11:00Z</time>
      </trkpt>
      <trkpt lat="45.29668" lon="6.23437">
        <ele>1102.1</ele>
        <time>2022-06-18T08:11:01Z</time>
      </trkpt>
      <trkpt lat="45.29666" lon="6.2343">
        <ele>1102.1</ele>
        <time>2022-06-18T08:11:02Z</time>
      </trkpt>
      <trkpt lat="45.29665" lon="6.23422">
        <ele>1102.1</ele>
        <time>2022-06-18T08:11:03Z</time>
      </trkpt>
      <trkpt lat="45.29664" lon="6.23414">
        <ele>1102.1</ele>
        <time>2022-06-18T08:11:04Z</time>
      </trkpt>
      <trkpt lat="45.29664" lon="6.23406">
        <ele>1102.1</ele>
        <time>2022-06-18T08:11:05Z</time>
      </trkpt>
      <trkpt lat="45.29664" lon="6.23399">
        <ele>1102.1</ele>
        <time>2022-06-18T08:11:06Z</time>
      </trkpt>
      <trkpt lat="45.29664" lon="6.23391">
        <ele>1102.2</ele>
        <time>2022-06-18T08:11:07Z</time>
      </trkpt>
      <trkpt lat="45.29665" lon="6.23383">
        <ele>1102.2</ele>
        <time>2022-06-18T08:11:08Z</time>
      </trkpt>
      <trkpt lat="45.29665" lon="6.23374">
        <ele>1102.2</ele>
        <time>2022-06-18T08:11:09Z</time>
      </trkpt>
      <trkpt lat="45.29665" lon="6.23366">
        <ele>1102.2</ele>
        <time>2022-06-18T08:11:10Z</time>
      </trkpt>
      <trkpt lat="45.29665" lon="6.23358">
        <ele>1102.3</ele>
        <time>2022-06-18T08:11:11Z</time>
      </trkpt>
      <trkpt lat="45.29665" lon="6.23349">
        <ele>1102.3</ele>
        <time>2022-06-18T08:11:12Z</time>
      </trkpt>
      <trkpt lat="45.29666" lon="6.2334">
        <ele>1102.3</ele>
        <time>2022-06-18T08:11:13Z</time>
      </trkpt>
      <trkpt lat="45.29667" lon="6.23332">
        <ele>1102.3</ele>
        <time>2022-06-18T08:11:14Z</time>
      </trkpt>
      <trkpt lat="45.29667" lon="6.23323">
        <ele>1102.3</ele>
        <time>2022-06-18T08:11:15Z</time>
      </trkpt>
      <trkpt lat="45.29668" lon="6.23314">
        <ele>1102.3</ele>
        <time>2022-06-18T08:11:16Z</time>
      </trkpt>
      <trkpt lat="45.29668" lon="6.23306">
        <ele>1102.2</ele>
        <time>2022-06-18T08:11:17Z</time>
      </trkpt>
      <trkpt lat="45.29668" lon="6.23297">
        <ele>1102.2</ele>
        <time>2022-06-18T08:11:18Z</time>
      </trkpt>
      <trkpt lat="45.29669" lon="6.23289">
        <ele>1102.2</ele>
        <time>2022-06-18T08:11:19Z</time>
      </trkpt>
      <trkpt lat="45.29669" lon="6.2328">
        <ele>1102.2</ele>
        <time>2022-06-18T08:11:20Z</time>
      </trkpt>
      <trkpt lat="45.2967" lon="6.23272">
        <ele>1102.1</ele>
        <time>2022-06-18T08:11:21Z</time>
      </trkpt>
      <trkpt lat="45.2967" lon="6.23263">
        <ele>1102.1</ele>
        <time>2022-06-18T08:11:22Z</time>
      </trkpt>
      <trkpt lat="45.29671" lon="6.23254">
        <ele>1102</ele>
        <time>2022-06-18T08:11:23Z</time>
      </trkpt>
      <trkpt lat="45.29671" lon="6.23245">
        <ele>1101.9</ele>
        <time>2022-06-18T08:11:24Z</time>
      </trkpt>
      <trkpt lat="45.29671" lon="6.23236">
        <ele>1101.9</ele>
        <time>2022-06-18T08:11:25Z</time>
      </trkpt>
      <trkpt lat="45.2967" lon="6.23227">
        <ele>1101.8</ele>
        <time>2022-06-18T08:11:26Z</time>
      </trkpt>
      <trkpt lat="45.2967" lon="6.23219">
        <ele>1101.7</ele>
        <time>2022-06-18T08:11:27Z</time>
      </trkpt>
      <trkpt lat="45.29669" lon="6.2321">
        <ele>1101.7</ele>
        <time>2022-06-18T08:11:28Z</time>
      </trkpt>
      <trkpt lat="45.29668" lon="6.23201">
        <ele>1101.6</ele>
        <time>2022-06-18T08:11:29Z</time>
      </trkpt>
      <trkpt lat="45.29666" lon="6.23192">
        <ele>1101.6</ele>
        <time>2022-06-18T08:11:30Z</time>
      </trkpt>
      <trkpt lat="45.29664" lon="6.23183">
        <ele>1101.6</ele>
        <time>2022-06-18T08:11:31Z</time>
      </trkpt>
      <trkpt lat="45.29662" lon="6.23174">
        <ele>1101.6</ele>
        <time>2022-06-18T08:11:32Z</time>
      </trkpt>
      <trkpt lat="45.2966" lon="6.23165">
        <ele>1101.6</ele>
        <time>2022-06-18T08:11:33Z</time>
      </trkpt>
      <trkpt lat="45.29658" lon="6.23155">
        <ele>1101.6</ele>
        <time>2022-06-18T08:11:34Z</time>
      </trkpt>
      <trkpt lat="45.29656" lon="6.23145">
        <ele>1101.5</ele>
        <time>2022-06-18T08:11:35Z</time>
      </trkpt>
      <trkpt lat="45.29654" lon="6.23135">
        <ele>1101.5</ele>
        <time>2022-06-18T08:11:36Z</time>
      </trkpt>
      <trkpt lat="45.29652" lon="6.23125">
        <ele>1101.5</ele>
        <time>2022-06-18T08:11:37Z</time>
      </trkpt>
      <trkpt lat="45.2965" lon="6.23116">
        <ele>1101.5</ele>
        <time>2022-06-18T08:11:38Z</time>
      </trkpt>
      <trkpt lat="45.29648" lon="6.23106">
        <ele>1101.5</ele>
        <time>2022-06-18T08:11:39Z</time>
      </trkpt>
      <trkpt lat="45.29646" lon="6.23097">
        <ele>1101.5</ele>
        <time>2022-06-18T08:11:40Z</time>
      </trkpt>
      <trkpt lat="45.29644" lon="6.23088">
        <ele>1101.5</ele>
        <time>2022-06-18T08:11:41Z</time>
      </trkpt>
      <trkpt lat="45.29641" lon="6.23078">
        <ele>1101.5</ele>
        <time>2022-06-18T08:11:42Z</time>
      </trkpt>
      <trkpt lat="45.29638" lon="6.23069">
        <ele>1101.5</ele>
        <time>2022-06-18T08:11:43Z</time>
      </trkpt>
      <trkpt lat="45.29635" lon="6.2306">
        <ele>1101.5</ele>
        <time>2022-06-18T08:11:44Z</time>
      </trkpt>
      <trkpt lat="45.29631" lon="6.23052">
        <ele>1101.5</ele>
        <time>2022-06-18T08:11:45Z</time>
      </trkpt>
      <trkpt lat="45.29628" lon="6.23043">
        <ele>1101.5</ele>
        <time>2022-06-18T08:11:46Z</time>
      </trkpt>
      <trkpt lat="45.29624" lon="6.23034">
        <ele>1101.5</ele>
        <time>2022-06-18T08:11:47Z</time>
      </trkpt>
      <trkpt lat="45.2962" lon="6.23025">
        <ele>1101.5</ele>
        <time>2022-06-18T08:11:48Z</time>
      </trkpt>
      <trkpt lat="45.29616" lon="6.23016">
        <ele>1101.5</ele>
        <time>2022-06-18T08:11:49Z</time>
      </trkpt>
      <trkpt lat="45.29612" lon="6.23008">
        <ele>1101.5</ele>
        <time>2022-06-18T08:11:50Z</time>
      </trkpt>
      <trkpt lat="45.29609" lon="6.23">
        <ele>1101.5</ele>
        <time>2022-06-18T08:11:51Z</time>
      </trkpt>
      <trkpt lat="45.29605" lon="6.22991">
        <ele>1101.5</ele>
        <time>2022-06-18T08:11:52Z</time>
      </trkpt>
      <trkpt lat="45.29602" lon="6.22983">
        <ele>1101.5</ele>
        <time>2022-06-18T08:11:53Z</time>
      </trkpt>
      <trkpt lat="45.29599" lon="6.22975">
        <ele>1101.6</ele>
        <time>2022-06-18T08:11:54Z</time>
      </trkpt>
      <trkpt lat="45.29595" lon="6.22966">
        <ele>1101.6</ele>
        <time>2022-06-18T08:11:55Z</time>
      </trkpt>
      <trkpt lat="45.29592" lon="6.22958">
        <ele>1101.6</ele>
        <time>2022-06-18T08:11:56Z</time>
      </trkpt>
      <trkpt lat="45.29588" lon="6.22949">
        <ele>1101.7</ele>
        <time>2022-06-18T08:11:57Z</time>
      </trkpt>
      <trkpt lat="45.29585" lon="6.22941">
        <ele>1101.6</ele>
        <time>2022-06-18T08:11:58Z</time>
      </trkpt>
      <trkpt lat="45.29581" lon="6.22933">
        <ele>1101.4</ele>
        <time>2022-06-18T08:11:59Z</time>
      </trkpt>
      <trkpt lat="45.29577" lon="6.22925">
        <ele>1101.2</ele>
        <time>2022-06-18T08:12:00Z</time>
      </trkpt>
      <trkpt lat="45.29573" lon="6.22917">
        <ele>1101</ele>
        <time>2022-06-18T08:12:01Z</time>
      </trkpt>
      <trkpt lat="45.29569" lon="6.22909">
        <ele>1100.8</ele>
        <time>2022-06-18T08:12:02Z</time>
      </trkpt>
      <trkpt lat="45.29566" lon="6.22901">
        <ele>1100.7</ele>
        <time>2022-06-18T08:12:03Z</time>
      </trkpt>
      <trkpt lat="45.29562" lon="6.22894">
        <ele>1100.5</ele>
        <time>2022-06-18T08:12:04Z</time>
      </trkpt>
      <trkpt lat="45.29559" lon="6.22886">
        <ele>1100.4</ele>
        <time>2022-06-18T08:12:05Z</time>
      </trkpt>
      <trkpt lat="45.29556" lon="6.22878">
        <ele>1100.2</ele>
        <time>2022-06-18T08:12:06Z</time>
      </trkpt>
      <trkpt lat="45.29552" lon="6.22871">
        <ele>1100</ele>
        <time>2022-06-18T08:12:07Z</time>
      </trkpt>
      <trkpt lat="45.29548" lon="6.22865">
        <ele>1099.9</ele>
        <time>2022-06-18T08:12:08Z</time>
      </trkpt>
      <trkpt lat="45.29543" lon="6.2286">
        <ele>1099.7</ele>
        <time>2022-06-18T08:12:09Z</time>
      </trkpt>
      <trkpt lat="45.29538" lon="6.22855">
        <ele>1099.5</ele>
        <time>2022-06-18T08:12:10Z</time>
      </trkpt>
      <trkpt lat="45.29532" lon="6.2285">
        <ele>1099.4</ele>
        <time>2022-06-18T08:12:11Z</time>
      </trkpt>
      <trkpt lat="45.29526" lon="6.22846">
        <ele>1099.2</ele>
        <time>2022-06-18T08:12:12Z</time>
      </trkpt>
      <trkpt lat="45.2952" lon="6.22841">
        <ele>1099.1</ele>
        <time>2022-06-18T08:12:13Z</time>
      </trkpt>
      <trkpt lat="45.29514" lon="6.22836">
        <ele>1098.9</ele>
        <time>2022-06-18T08:12:14Z</time>
      </trkpt>
      <trkpt lat="45.2951" lon="6.2283">
        <ele>1098.7</ele>
        <time>2022-06-18T08:12:15Z</time>
      </trkpt>
      <trkpt lat="45.29505" lon="6.22824">
        <ele>1098.6</ele>
        <time>2022-06-18T08:12:16Z</time>
      </trkpt>
      <trkpt lat="45.29501" lon="6.22818">
        <ele>1098.5</ele>
        <time>2022-06-18T08:12:17Z</time>
      </trkpt>
      <trkpt lat="45.29496" lon="6.22813">
        <ele>1098.3</ele>
        <time>2022-06-18T08:12:18Z</time>
      </trkpt>
      <trkpt lat="45.29491" lon="6.22807">
        <ele>1098.5</ele>
        <time>2022-06-18T08:12:19Z</time>
      </trkpt>
      <trkpt lat="45.29487" lon="6.22801">
        <ele>1098.6</ele>
        <time>2022-06-18T08:12:20Z</time>
      </trkpt>
      <trkpt lat="45.29482" lon="6.22795">
        <ele>1098.8</ele>
        <time>2022-06-18T08:12:21Z</time>
      </trkpt>
      <trkpt lat="45.29477" lon="6.22788">
        <ele>1099.1</ele>
        <time>2022-06-18T08:12:22Z</time>
      </trkpt>
      <trkpt lat="45.29473" lon="6.22782">
        <ele>1099.3</ele>
        <time>2022-06-18T08:12:23Z</time>
      </trkpt>
      <trkpt lat="45.29469" lon="6.22776">
        <ele>1099.5</ele>
        <time>2022-06-18T08:12:24Z</time>
      </trkpt>
      <trkpt lat="45.29465" lon="6.22769">
        <ele>1099.7</ele>
        <time>2022-06-18T08:12:25Z</time>
      </trkpt>
      <trkpt lat="45.29462" lon="6.22762">
        <ele>1099.9</ele>
        <time>2022-06-18T08:12:26Z</time>
      </trkpt>
      <trkpt lat="45.29459" lon="6.22755">
        <ele>1100.1</ele>
        <time>2022-06-18T08:12:27Z</time>
      </trkpt>
      <trkpt lat="45.29456" lon="6.22748">
        <ele>1100.3</ele>
        <time>2022-06-18T08:12:28Z</time>
      </trkpt>
      <trkpt lat="45.29453" lon="6.22742">
        <ele>1100.5</ele>
        <time>2022-06-18T08:12:29Z</time>
      </trkpt>
      <trkpt lat="45.2945" lon="6.22735">
        <ele>1100.7</ele>
        <time>2022-06-18T08:12:30Z</time>
      </trkpt>
      <trkpt lat="45.29446" lon="6.22729">
        <ele>1100.9</ele>
        <time>2022-06-18T08:12:31Z</time>
      </trkpt>
      <trkpt lat="45.29443" lon="6.22722">
        <ele>1101.1</ele>
        <time>2022-06-18T08:12:32Z</time>
      </trkpt>
      <trkpt lat="45.29439" lon="6.22716">
        <ele>1101.3</ele>
        <time>2022-06-18T08:12:33Z</time>
      </trkpt>
      <trkpt lat="45.29436" lon="6.2271">
        <ele>1102.1</ele>
        <time>2022-06-18T08:12:34Z</time>
      </trkpt>
      <trkpt lat="45.29432" lon="6.22704">
        <ele>1103.3</ele>
        <time>2022-06-18T08:12:35Z</time>
      </trkpt>
      <trkpt lat="45.29429" lon="6.22697">
        <ele>1104.6</ele>
        <time>2022-06-18T08:12:36Z</time>
      </trkpt>
      <trkpt lat="45.29426" lon="6.2269">
        <ele>1105.6</ele>
        <time>2022-06-18T08:12:37Z</time>
      </trkpt>
      <trkpt lat="45.29422" lon="6.22684">
        <ele>1105.6</ele>
        <time>2022-06-18T08:12:38Z</time>
      </trkpt>
      <trkpt lat="45.29418" lon="6.22677">
        <ele>1105.6</ele>
        <time>2022-06-18T08:12:39Z</time>
      </trkpt>
      <trkpt lat="45.29415" lon="6.2267">
        <ele>1105.7</ele>
        <time>2022-06-18T08:12:40Z</time>
      </trkpt>
      <trkpt lat="45.29412" lon="6.22663">
        <ele>1105.7</ele>
        <time>2022-06-18T08:12:41Z</time>
      </trkpt>
      <trkpt lat="45.29408" lon="6.22657">
        <ele>1105.8</ele>
        <time>2022-06-18T08:12:42Z</time>
      </trkpt>
      <trkpt lat="45.29405" lon="6.2265">
        <ele>1106</ele>
        <time>2022-06-18T08:12:43Z</time>
      </trkpt>
      <trkpt lat="45.29402" lon="6.22644">
        <ele>1106.1</ele>
        <time>2022-06-18T08:12:44Z</time>
      </trkpt>
      <trkpt lat="45.29398" lon="6.22637">
        <ele>1106.3</ele>
        <time>2022-06-18T08:12:45Z</time>
      </trkpt>
      <trkpt lat="45.29394" lon="6.2263">
        <ele>1106.5</ele>
        <time>2022-06-18T08:12:46Z</time>
      </trkpt>
      <trkpt lat="45.29391" lon="6.22623">
        <ele>1106.6</ele>
        <time>2022-06-18T08:12:47Z</time>
      </trkpt>
      <trkpt lat="45.29388" lon="6.22617">
        <ele>1106.8</ele>
        <time>2022-06-18T08:12:48Z</time>
      </trkpt>
      <trkpt lat="45.29385" lon="6.2261">
        <ele>1106.9</ele>
        <time>2022-06-18T08:12:49Z</time>
      </trkpt>
      <trkpt lat="45.29381" lon="6.22604">
        <ele>1107.1</ele>
        <time>2022-06-18T08:12:50Z</time>
      </trkpt>
      <trkpt lat="45.29378" lon="6.22597">
        <ele>1107.3</ele>
        <time>2022-06-18T08:12:51Z</time>
      </trkpt>
      <trkpt lat="45.29374" lon="6.22591">
        <ele>1107.5</ele>
        <time>2022-06-18T08:12:52Z</time>
      </trkpt>
      <trkpt lat="45.29371" lon="6.22584">
        <ele>1107.7</ele>
        <time>2022-06-18T08:12:53Z</time>
      </trkpt>
      <trkpt lat="45.29367" lon="6.22578">
        <ele>1107.9</ele>
        <time>2022-06-18T08:12:54Z</time>
      </trkpt>
      <trkpt lat="45.29363" lon="6.22571">
        <ele>1108.1</ele>
        <time>2022-06-18T08:12:55Z</time>
      </trkpt>
      <trkpt lat="45.2936" lon="6.22565">
        <ele>1108.3</ele>
        <time>2022-06-18T08:12:56Z</time>
      </trkpt>
      <trkpt lat="45.29356" lon="6.22558">
        <ele>1108.5</ele>
        <time>2022-06-18T08:12:57Z</time>
      </trkpt>
      <trkpt lat="45.29353" lon="6.22551">
        <ele>1108.7</ele>
        <time>2022-06-18T08:12:58Z</time>
      </trkpt>
      <trkpt lat="45.2935" lon="6.22544">
        <ele>1108.9</ele>
        <time>2022-06-18T08:12:59Z</time>
      </trkpt>
      <trkpt lat="45.29347" lon="6.22538">
        <ele>1109.1</ele>
        <time>2022-06-18T08:13:00Z</time>
      </trkpt>
      <trkpt lat="45.29344" lon="6.22531">
        <ele>1109.3</ele>
        <time>2022-06-18T08:13:01Z</time>
      </trkpt>
      <trkpt lat="45.29341" lon="6.22523">
        <ele>1109.6</ele>
        <time>2022-06-18T08:13:02Z</time>
      </trkpt>
      <trkpt lat="45.29339" lon="6.22515">
        <ele>1109.8</ele>
        <time>2022-06-18T08:13:03Z</time>
      </trkpt>
      <trkpt lat="45.29337" lon="6.22507">
        <ele>1110</ele>
        <time>2022-06-18T08:13:04Z</time>
      </trkpt>
      <trkpt lat="45.29335" lon="6.22498">
        <ele>1110.3</ele>
        <time>2022-06-18T08:13:05Z</time>
      </trkpt>
      <trkpt lat="45.29334" lon="6.2249">
        <ele>1110.5</ele>
        <time>2022-06-18T08:13:06Z</time>
      </trkpt>
      <trkpt lat="45.29333" lon="6.22481">
        <ele>1110.7</ele>
        <time>2022-06-18T08:13:07Z</time>
      </trkpt>
      <trkpt lat="45.29331" lon="6.22473">
        <ele>1110.9</ele>
        <time>2022-06-18T08:13:08Z</time>
      </trkpt>
      <trkpt lat="45.29331" lon="6.22464">
        <ele>1111.1</ele>
        <time>2022-06-18T08:13:09Z</time>
      </trkpt>
      <trkpt lat="45.29331" lon="6.22456">
        <ele>1111.4</ele>
        <time>2022-06-18T08:13:10Z</time>
      </trkpt>
      <trkpt lat="45.29331" lon="6.22448">
        <ele>1111.6</ele>
        <time>2022-06-18T08:13:11Z</time>
      </trkpt>
      <trkpt lat="45.29331" lon="6.2244">
        <ele>1111.8</ele>
        <time>2022-06-18T08:13:12Z</time>
      </trkpt>
      <trkpt lat="45.2933" lon="6.22432">
        <ele>1112</ele>
        <time>2022-06-18T08:13:13Z</time>
      </trkpt>
      <trkpt lat="45.2933" lon="6.22425">
        <ele>1112.3</ele>
        <time>2022-06-18T08:13:14Z</time>
      </trkpt>
      <trkpt lat="45.29329" lon="6.22417">
        <ele>1112.4</ele>
        <time>2022-06-18T08:13:15Z</time>
      </trkpt>
      <trkpt lat="45.29328" lon="6.2241">
        <ele>1112.6</ele>
        <time>2022-06-18T08:13:16Z</time>
      </trkpt>
      <trkpt lat="45.29327" lon="6.22403">
        <ele>1112.8</ele>
        <time>2022-06-18T08:13:17Z</time>
      </trkpt>
      <trkpt lat="45.29325" lon="6.22396">
        <ele>1112.9</ele>
        <time>2022-06-18T08:13:18Z</time>
      </trkpt>
      <trkpt lat="45.29323" lon="6.22388">
        <ele>1113.1</ele>
        <time>2022-06-18T08:13:19Z</time>
      </trkpt>
      <trkpt lat="45.2932" lon="6.22381">
        <ele>1113.2</ele>
        <time>2022-06-18T08:13:20Z</time>
      </trkpt>
      <trkpt lat="45.29317" lon="6.22373">
        <ele>1113.3</ele>
        <time>2022-06-18T08:13:21Z</time>
      </trkpt>
      <trkpt lat="45.29313" lon="6.22366">
        <ele>1113.4</ele>
        <time>2022-06-18T08:13:22Z</time>
      </trkpt>
      <trkpt lat="45.2931" lon="6.22358">
        <ele>1113.6</ele>
        <time>2022-06-18T08:13:23Z</time>
      </trkpt>
      <trkpt lat="45.29306" lon="6.2235">
        <ele>1113.7</ele>
        <time>2022-06-18T08:13:24Z</time>
      </trkpt>
      <trkpt lat="45.29303" lon="6.22341">
        <ele>1113.9</ele>
        <time>2022-06-18T08:13:25Z</time>
      </trkpt>
      <trkpt lat="45.293" lon="6.22333">
        <ele>1114.1</ele>
        <time>2022-06-18T08:13:26Z</time>
      </trkpt>
      <trkpt lat="45.29297" lon="6.22325">
        <ele>1114.4</ele>
        <time>2022-06-18T08:13:27Z</time>
      </trkpt>
      <trkpt lat="45.29294" lon="6.22317">
        <ele>1114.6</ele>
        <time>2022-06-18T08:13:28Z</time>
      </trkpt>
      <trkpt lat="45.29291" lon="6.22309">
        <ele>1114.8</ele>
        <time>2022-06-18T08:13:29Z</time>
      </trkpt>
      <trkpt lat="45.29288" lon="6.223">
        <ele>1115</ele>
        <time>2022-06-18T08:13:30Z</time>
      </trkpt>
      <trkpt lat="45.29285" lon="6.22292">
        <ele>1115.2</ele>
        <time>2022-06-18T08:13:31Z</time>
      </trkpt>
      <trkpt lat="45.29282" lon="6.22284">
        <ele>1115.4</ele>
        <time>2022-06-18T08:13:32Z</time>
      </trkpt>
      <trkpt lat="45.2928" lon="6.22276">
        <ele>1115.6</ele>
        <time>2022-06-18T08:13:33Z</time>
      </trkpt>
      <trkpt lat="45.29277" lon="6.22267">
        <ele>1115.8</ele>
        <time>2022-06-18T08:13:34Z</time>
      </trkpt>
      <trkpt lat="45.29274" lon="6.22259">
        <ele>1115.9</ele>
        <time>2022-06-18T08:13:35Z</time>
      </trkpt>
      <trkpt lat="45.29271" lon="6.22251">
        <ele>1116.1</ele>
        <time>2022-06-18T08:13:36Z</time>
      </trkpt>
      <trkpt lat="45.29268" lon="6.22242">
        <ele>1116.3</ele>
        <time>2022-06-18T08:13:37Z</time>
      </trkpt>
      <trkpt lat="45.29265" lon="6.22234">
        <ele>1116.5</ele>
        <time>2022-06-18T08:13:38Z</time>
      </trkpt>
      <trkpt lat="45.29262" lon="6.22225">
        <ele>1116.8</ele>
        <time>2022-06-18T08:13:39Z</time>
      </trkpt>
      <trkpt lat="45.29259" lon="6.22217">
        <ele>1117</ele>
        <time>2022-06-18T08:13:40Z</time>
      </trkpt>
      <trkpt lat="45.29255" lon="6.22209">
        <ele>1117.2</ele>
        <time>2022-06-18T08:13:41Z</time>
      </trkpt>
      <trkpt lat="45.29251" lon="6.22202">
        <ele>1117.5</ele>
        <time>2022-06-18T08:13:42Z</time>
      </trkpt>
      <trkpt lat="45.29247" lon="6.22195">
        <ele>1117.7</ele>
        <time>2022-06-18T08:13:43Z</time>
      </trkpt>
      <trkpt lat="45.29242" lon="6.22188">
        <ele>1118</ele>
        <time>2022-06-18T08:13:44Z</time>
      </trkpt>
      <trkpt lat="45.29238" lon="6.22181">
        <ele>1118.2</ele>
        <time>2022-06-18T08:13:45Z</time>
      </trkpt>
      <trkpt lat="45.29234" lon="6.22174">
        <ele>1118.4</ele>
        <time>2022-06-18T08:13:46Z</time>
      </trkpt>
      <trkpt lat="45.29229" lon="6.22167">
        <ele>1118.6</ele>
        <time>2022-06-18T08:13:47Z</time>
      </trkpt>
      <trkpt lat="45.29225" lon="6.2216">
        <ele>1118.8</ele>
        <time>2022-06-18T08:13:48Z</time>
      </trkpt>
      <trkpt lat="45.2922" lon="6.22153">
        <ele>1119</ele>
        <time>2022-06-18T08:13:49Z</time>
      </trkpt>
      <trkpt lat="45.29215" lon="6.22147">
        <ele>1119.2</ele>
        <time>2022-06-18T08:13:50Z</time>
      </trkpt>
      <trkpt lat="45.2921" lon="6.22139">
        <ele>1119.4</ele>
        <time>2022-06-18T08:13:51Z</time>
      </trkpt>
      <trkpt lat="45.29207" lon="6.22131">
        <ele>1119.6</ele>
        <time>2022-06-18T08:13:52Z</time>
      </trkpt>
      <trkpt lat="45.29204" lon="6.22122">
        <ele>1119.9</ele>
        <time>2022-06-18T08:13:53Z</time>
      </trkpt>
      <trkpt lat="45.29202" lon="6.22113">
        <ele>1120.2</ele>
        <time>2022-06-18T08:13:54Z</time>
      </trkpt>
      <trkpt lat="45.29199" lon="6.22104">
        <ele>1120.4</ele>
        <time>2022-06-18T08:13:55Z</time>
      </trkpt>
      <trkpt lat="45.29196" lon="6.22096">
        <ele>1120.7</ele>
        <time>2022-06-18T08:13:56Z</time>
      </trkpt>
      <trkpt lat="45.29193" lon="6.22088">
        <ele>1121</ele>
        <time>2022-06-18T08:13:57Z</time>
      </trkpt>
      <trkpt lat="45.29189" lon="6.2208">
        <ele>1121.3</ele>
        <time>2022-06-18T08:13:58Z</time>
      </trkpt>
      <trkpt lat="45.29185" lon="6.22074">
        <ele>1121.6</ele>
        <time>2022-06-18T08:13:59Z</time>
      </trkpt>
      <trkpt lat="45.2918" lon="6.22068">
        <ele>1121.4</ele>
        <time>2022-06-18T08:14:00Z</time>
      </trkpt>
      <trkpt lat="45.29175" lon="6.22064">
        <ele>1121.1</ele>
        <time>2022-06-18T08:14:01Z</time>
      </trkpt>
      <trkpt lat="45.29171" lon="6.2206">
        <ele>1120.8</ele>
        <time>2022-06-18T08:14:02Z</time>
      </trkpt>
      <trkpt lat="45.29165" lon="6.22055">
        <ele>1120.4</ele>
        <time>2022-06-18T08:14:03Z</time>
      </trkpt>
      <trkpt lat="45.2916" lon="6.22051">
        <ele>1120.1</ele>
        <time>2022-06-18T08:14:04Z</time>
      </trkpt>
      <trkpt lat="45.29154" lon="6.22045">
        <ele>1119.7</ele>
        <time>2022-06-18T08:14:05Z</time>
      </trkpt>
      <trkpt lat="45.2915" lon="6.22039">
        <ele>1119.4</ele>
        <time>2022-06-18T08:14:06Z</time>
      </trkpt>
      <trkpt lat="45.29145" lon="6.22031">
        <ele>1119</ele>
        <time>2022-06-18T08:14:07Z</time>
      </trkpt>
      <trkpt lat="45.29141" lon="6.22024">
        <ele>1118.7</ele>
        <time>2022-06-18T08:14:08Z</time>
      </trkpt>
      <trkpt lat="45.29137" lon="6.22016">
        <ele>1118.3</ele>
        <time>2022-06-18T08:14:09Z</time>
      </trkpt>
      <trkpt lat="45.29134" lon="6.22008">
        <ele>1117.9</ele>
        <time>2022-06-18T08:14:10Z</time>
      </trkpt>
      <trkpt lat="45.2913" lon="6.22001">
        <ele>1117.5</ele>
        <time>2022-06-18T08:14:11Z</time>
      </trkpt>
      <trkpt lat="45.29125" lon="6.21994">
        <ele>1117.1</ele>
        <time>2022-06-18T08:14:12Z</time>
      </trkpt>
      <trkpt lat="45.2912" lon="6.21989">
        <ele>1116.8</ele>
        <time>2022-06-18T08:14:13Z</time>
      </trkpt>
      <trkpt lat="45.29114" lon="6.21986">
        <ele>1116.6</ele>
        <time>2022-06-18T08:14:14Z</time>
      </trkpt>
      <trkpt lat="45.29107" lon="6.21986">
        <ele>1116.3</ele>
        <time>2022-06-18T08:14:15Z</time>
      </trkpt>
      <trkpt lat="45.291" lon="6.21988">
        <ele>1116</ele>
        <time>2022-06-18T08:14:16Z</time>
      </trkpt>
      <trkpt lat="45.29093" lon="6.21993">
        <ele>1115.7</ele>
        <time>2022-06-18T08:14:17Z</time>
      </trkpt>
      <trkpt lat="45.29087" lon="6.21999">
        <ele>1115.4</ele>
        <time>2022-06-18T08:14:18Z</time>
      </trkpt>
      <trkpt lat="45.29082" lon="6.22006">
        <ele>1115.2</ele>
        <time>2022-06-18T08:14:19Z</time>
      </trkpt>
      <trkpt lat="45.29078" lon="6.22013">
        <ele>1115.3</ele>
        <time>2022-06-18T08:14:20Z</time>
      </trkpt>
      <trkpt lat="45.29074" lon="6.22021">
        <ele>1115.4</ele>
        <time>2022-06-18T08:14:21Z</time>
      </trkpt>
      <trkpt lat="45.29069" lon="6.22028">
        <ele>1115.6</ele>
        <time>2022-06-18T08:14:22Z</time>
      </trkpt>
      <trkpt lat="45.29065" lon="6.22035">
        <ele>1115.6</ele>
        <time>2022-06-18T08:14:23Z</time>
      </trkpt>
      <trkpt lat="45.29061" lon="6.22041">
        <ele>1115.6</ele>
        <time>2022-06-18T08:14:24Z</time>
      </trkpt>
      <trkpt lat="45.29057" lon="6.22047">
        <ele>1115.6</ele>
        <time>2022-06-18T08:14:25Z</time>
      </trkpt>
      <trkpt lat="45.29054" lon="6.22052">
        <ele>1115.3</ele>
        <time>2022-06-18T08:14:26Z</time>
      </trkpt>
      <trkpt lat="45.2905" lon="6.22057">
        <ele>1115.1</ele>
        <time>2022-06-18T08:14:27Z</time>
      </trkpt>
      <trkpt lat="45.29047" lon="6.22061">
        <ele>1114.9</ele>
        <time>2022-06-18T08:14:28Z</time>
      </trkpt>
      <trkpt lat="45.29044" lon="6.22065">
        <ele>1114.8</ele>
        <time>2022-06-18T08:14:29Z</time>
      </trkpt>
      <trkpt lat="45.29042" lon="6.22068">
        <ele>1114.7</ele>
        <time>2022-06-18T08:14:30Z</time>
      </trkpt>
      <trkpt lat="45.29039" lon="6.22072">
        <ele>1114.6</ele>
        <time>2022-06-18T08:14:31Z</time>
      </trkpt>
      <trkpt lat="45.29036" lon="6.22076">
        <ele>1114.4</ele>
        <time>2022-06-18T08:14:32Z</time>
      </trkpt>
      <trkpt lat="45.29033" lon="6.2208">
        <ele>1114.3</ele>
        <time>2022-06-18T08:14:33Z</time>
      </trkpt>
      <trkpt lat="45.2903" lon="6.22084">
        <ele>1114.2</ele>
        <time>2022-06-18T08:14:34Z</time>
      </trkpt>
      <trkpt lat="45.29027" lon="6.22088">
        <ele>1114.2</ele>
        <time>2022-06-18T08:14:35Z</time>
      </trkpt>
      <trkpt lat="45.29026" lon="6.2209">
        <ele>1114.1</ele>
        <time>2022-06-18T08:14:36Z</time>
      </trkpt>
      <trkpt lat="45.29023" lon="6.22094">
        <ele>1114</ele>
        <time>2022-06-18T08:14:37Z</time>
      </trkpt>
      <trkpt lat="45.29018" lon="6.22097">
        <ele>1114.2</ele>
        <time>2022-06-18T08:14:39Z</time>
      </trkpt>
      <trkpt lat="45.29015" lon="6.22099">
        <ele>1114.4</ele>
        <time>2022-06-18T08:14:40Z</time>
      </trkpt>
      <trkpt lat="45.29012" lon="6.22101">
        <ele>1114.6</ele>
        <time>2022-06-18T08:14:41Z</time>
      </trkpt>
      <trkpt lat="45.29008" lon="6.22103">
        <ele>1114.9</ele>
        <time>2022-06-18T08:14:42Z</time>
      </trkpt>
      <trkpt lat="45.29007" lon="6.22103">
        <ele>1115</ele>
        <time>2022-06-18T08:14:43Z</time>
      </trkpt>
      <trkpt lat="45.29003" lon="6.22105">
        <ele>1115.2</ele>
        <time>2022-06-18T08:14:44Z</time>
      </trkpt>
      <trkpt lat="45.29" lon="6.22106">
        <ele>1115.4</ele>
        <time>2022-06-18T08:14:45Z</time>
      </trkpt>
      <trkpt lat="45.28997" lon="6.22107">
        <ele>1115.6</ele>
        <time>2022-06-18T08:14:46Z</time>
      </trkpt>
      <trkpt lat="45.28993" lon="6.22108">
        <ele>1115.8</ele>
        <time>2022-06-18T08:14:47Z</time>
      </trkpt>
      <trkpt lat="45.28991" lon="6.22109">
        <ele>1115.9</ele>
        <time>2022-06-18T08:14:48Z</time>
      </trkpt>
      <trkpt lat="45.28987" lon="6.22109">
        <ele>1116.2</ele>
        <time>2022-06-18T08:14:49Z</time>
      </trkpt>
      <trkpt lat="45.28984" lon="6.22109">
        <ele>1116.3</ele>
        <time>2022-06-18T08:14:50Z</time>
      </trkpt>
      <trkpt lat="45.2898" lon="6.22109">
        <ele>1116.5</ele>
        <time>2022-06-18T08:14:51Z</time>
      </trkpt>
      <trkpt lat="45.28977" lon="6.22109">
        <ele>1116.7</ele>
        <time>2022-06-18T08:14:52Z</time>
      </trkpt>
      <trkpt lat="45.28974" lon="6.22108">
        <ele>1116.8</ele>
        <time>2022-06-18T08:14:53Z</time>
      </trkpt>
      <trkpt lat="45.28971" lon="6.22106">
        <ele>1116.9</ele>
        <time>2022-06-18T08:14:54Z</time>
      </trkpt>
      <trkpt lat="45.28968" lon="6.22103">
        <ele>1117.1</ele>
        <time>2022-06-18T08:14:55Z</time>
      </trkpt>
      <trkpt lat="45.28967" lon="6.22103">
        <ele>1117.1</ele>
        <time>2022-06-18T08:14:56Z</time>
      </trkpt>
      <trkpt lat="45.28963" lon="6.22101">
        <ele>1117.2</ele>
        <time>2022-06-18T08:14:57Z</time>
      </trkpt>
      <trkpt lat="45.28962" lon="6.221">
        <ele>1117.3</ele>
        <time>2022-06-18T08:14:58Z</time>
      </trkpt>
      <trkpt lat="45.28959" lon="6.22099">
        <ele>1117.4</ele>
        <time>2022-06-18T08:14:59Z</time>
      </trkpt>
      <trkpt lat="45.28955" lon="6.22098">
        <ele>1117.5</ele>
        <time>2022-06-18T08:15:00Z</time>
      </trkpt>
      <trkpt lat="45.28953" lon="6.22097">
        <ele>1117.6</ele>
        <time>2022-06-18T08:15:01Z</time>
      </trkpt>
      <trkpt lat="45.28949" lon="6.22097">
        <ele>1117.7</ele>
        <time>2022-06-18T08:15:02Z</time>
      </trkpt>
      <trkpt lat="45.28947" lon="6.22096">
        <ele>1117.7</ele>
        <time>2022-06-18T08:15:03Z</time>
      </trkpt>
      <trkpt lat="45.28944" lon="6.22095">
        <ele>1117.8</ele>
        <time>2022-06-18T08:15:04Z</time>
      </trkpt>
      <trkpt lat="45.28941" lon="6.22093">
        <ele>1117.9</ele>
        <time>2022-06-18T08:15:06Z</time>
      </trkpt>
      <trkpt lat="45.2894" lon="6.22093">
        <ele>1117.9</ele>
        <time>2022-06-18T08:15:07Z</time>
      </trkpt>
      <trkpt lat="45.2894" lon="6.22093">
        <ele>1117.9</ele>
        <time>2022-06-18T08:15:08Z</time>
      </trkpt>
      <trkpt lat="45.2894" lon="6.22092">
        <ele>1117.9</ele>
        <time>2022-06-18T08:15:09Z</time>
      </trkpt>
      <trkpt lat="45.28937" lon="6.22092">
        <ele>1118</ele>
        <time>2022-06-18T08:15:11Z</time>
      </trkpt>
      <trkpt lat="45.28932" lon="6.2209">
        <ele>1118.1</ele>
        <time>2022-06-18T08:15:12Z</time>
      </trkpt>
      <trkpt lat="45.28925" lon="6.22089">
        <ele>1118.8</ele>
        <time>2022-06-18T08:15:14Z</time>
      </trkpt>
      <trkpt lat="45.2892" lon="6.22087">
        <ele>1119.4</ele>
        <time>2022-06-18T08:15:15Z</time>
      </trkpt>
      <trkpt lat="45.28915" lon="6.22086">
        <ele>1119.9</ele>
        <time>2022-06-18T08:15:16Z</time>
      </trkpt>
      <trkpt lat="45.28909" lon="6.22082">
        <ele>1120.7</ele>
        <time>2022-06-18T08:15:17Z</time>
      </trkpt>
      <trkpt lat="45.28904" lon="6.22078">
        <ele>1121.4</ele>
        <time>2022-06-18T08:15:19Z</time>
      </trkpt>
      <trkpt lat="45.28899" lon="6.22072">
        <ele>1122.1</ele>
        <time>2022-06-18T08:15:20Z</time>
      </trkpt>
      <trkpt lat="45.28895" lon="6.22065">
        <ele>1122.8</ele>
        <time>2022-06-18T08:15:21Z</time>
      </trkpt>
      <trkpt lat="45.28891" lon="6.2206">
        <ele>1123.5</ele>
        <time>2022-06-18T08:15:22Z</time>
      </trkpt>
      <trkpt lat="45.28888" lon="6.22054">
        <ele>1124.1</ele>
        <time>2022-06-18T08:15:24Z</time>
      </trkpt>
      <trkpt lat="45.28885" lon="6.22047">
        <ele>1124.8</ele>
        <time>2022-06-18T08:15:25Z</time>
      </trkpt>
      <trkpt lat="45.28882" lon="6.22045">
        <ele>1125.3</ele>
        <time>2022-06-18T08:15:26Z</time>
      </trkpt>
      <trkpt lat="45.28879" lon="6.22041">
        <ele>1125.8</ele>
        <time>2022-06-18T08:15:27Z</time>
      </trkpt>
      <trkpt lat="45.28875" lon="6.22036">
        <ele>1126.5</ele>
        <time>2022-06-18T08:15:29Z</time>
      </trkpt>
      <trkpt lat="45.28873" lon="6.22032">
        <ele>1127</ele>
        <time>2022-06-18T08:15:30Z</time>
      </trkpt>
      <trkpt lat="45.28871" lon="6.22027">
        <ele>1127.6</ele>
        <time>2022-06-18T08:15:31Z</time>
      </trkpt>
      <trkpt lat="45.2887" lon="6.22025">
        <ele>1127.8</ele>
        <time>2022-06-18T08:15:32Z</time>
      </trkpt>
      <trkpt lat="45.28869" lon="6.22022">
        <ele>1128.2</ele>
        <time>2022-06-18T08:15:33Z</time>
      </trkpt>
      <trkpt lat="45.28867" lon="6.22018">
        <ele>1128.6</ele>
        <time>2022-06-18T08:15:34Z</time>
      </trkpt>
      <trkpt lat="45.28865" lon="6.22013">
        <ele>1129.2</ele>
        <time>2022-06-18T08:15:36Z</time>
      </trkpt>
      <trkpt lat="45.28863" lon="6.22006">
        <ele>1129.9</ele>
        <time>2022-06-18T08:15:37Z</time>
      </trkpt>
      <trkpt lat="45.28862" lon="6.22002">
        <ele>1130.3</ele>
        <time>2022-06-18T08:15:38Z</time>
      </trkpt>
      <trkpt lat="45.28861" lon="6.21999">
        <ele>1130.7</ele>
        <time>2022-06-18T08:15:39Z</time>
      </trkpt>
      <trkpt lat="45.28859" lon="6.21994">
        <ele>1131.2</ele>
        <time>2022-06-18T08:15:40Z</time>
      </trkpt>
      <trkpt lat="45.28857" lon="6.21989">
        <ele>1131.7</ele>
        <time>2022-06-18T08:15:41Z</time>
      </trkpt>
      <trkpt lat="45.28857" lon="6.21985">
        <ele>1132</ele>
        <time>2022-06-18T08:15:42Z</time>
      </trkpt>
      <trkpt lat="45.28856" lon="6.2198">
        <ele>1132.5</ele>
        <time>2022-06-18T08:15:43Z</time>
      </trkpt>
      <trkpt lat="45.28854" lon="6.21973">
        <ele>1133.2</ele>
        <time>2022-06-18T08:15:45Z</time>
      </trkpt>
      <trkpt lat="45.28852" lon="6.21969">
        <ele>1133.6</ele>
        <time>2022-06-18T08:15:46Z</time>
      </trkpt>
      <trkpt lat="45.28851" lon="6.21965">
        <ele>1133.9</ele>
        <time>2022-06-18T08:15:47Z</time>
      </trkpt>
      <trkpt lat="45.2885" lon="6.21962">
        <ele>1134.3</ele>
        <time>2022-06-18T08:15:48Z</time>
      </trkpt>
      <trkpt lat="45.28848" lon="6.21956">
        <ele>1134.4</ele>
        <time>2022-06-18T08:15:50Z</time>
      </trkpt>
      <trkpt lat="45.28846" lon="6.21951">
        <ele>1134.6</ele>
        <time>2022-06-18T08:15:51Z</time>
      </trkpt>
      <trkpt lat="45.28844" lon="6.21945">
        <ele>1134.8</ele>
        <time>2022-06-18T08:15:52Z</time>
      </trkpt>
      <trkpt lat="45.28842" lon="6.21941">
        <ele>1134.8</ele>
        <time>2022-06-18T08:15:53Z</time>
      </trkpt>
      <trkpt lat="45.28839" lon="6.21935">
        <ele>1134.9</ele>
        <time>2022-06-18T08:15:55Z</time>
      </trkpt>
      <trkpt lat="45.28838" lon="6.21931">
        <ele>1135</ele>
        <time>2022-06-18T08:15:56Z</time>
      </trkpt>
      <trkpt lat="45.28835" lon="6.21925">
        <ele>1135</ele>
        <time>2022-06-18T08:15:57Z</time>
      </trkpt>
      <trkpt lat="45.28831" lon="6.2192">
        <ele>1135</ele>
        <time>2022-06-18T08:15:59Z</time>
      </trkpt>
      <trkpt lat="45.28829" lon="6.21916">
        <ele>1135</ele>
        <time>2022-06-18T08:16:00Z</time>
      </trkpt>
      <trkpt lat="45.28827" lon="6.21912">
        <ele>1134.9</ele>
        <time>2022-06-18T08:16:01Z</time>
      </trkpt>
      <trkpt lat="45.2882" lon="6.21903">
        <ele>1134.8</ele>
        <time>2022-06-18T08:16:02Z</time>
      </trkpt>
      <trkpt lat="45.28816" lon="6.21897">
        <ele>1134.7</ele>
        <time>2022-06-18T08:16:03Z</time>
      </trkpt>
      <trkpt lat="45.28812" lon="6.21891">
        <ele>1134.7</ele>
        <time>2022-06-18T08:16:04Z</time>
      </trkpt>
      <trkpt lat="45.28809" lon="6.21885">
        <ele>1134.6</ele>
        <time>2022-06-18T08:16:05Z</time>
      </trkpt>
      <trkpt lat="45.28805" lon="6.21878">
        <ele>1134.5</ele>
        <time>2022-06-18T08:16:06Z</time>
      </trkpt>
      <trkpt lat="45.28801" lon="6.21872">
        <ele>1134.5</ele>
        <time>2022-06-18T08:16:07Z</time>
      </trkpt>
      <trkpt lat="45.28797" lon="6.21866">
        <ele>1134.5</ele>
        <time>2022-06-18T08:16:08Z</time>
      </trkpt>
      <trkpt lat="45.28793" lon="6.2186">
        <ele>1134.4</ele>
        <time>2022-06-18T08:16:09Z</time>
      </trkpt>
      <trkpt lat="45.28789" lon="6.21853">
        <ele>1134.4</ele>
        <time>2022-06-18T08:16:10Z</time>
      </trkpt>
      <trkpt lat="45.28785" lon="6.21846">
        <ele>1134.5</ele>
        <time>2022-06-18T08:16:11Z</time>
      </trkpt>
      <trkpt lat="45.28781" lon="6.21839">
        <ele>1134.5</ele>
        <time>2022-06-18T08:16:12Z</time>
      </trkpt>
      <trkpt lat="45.28777" lon="6.21832">
        <ele>1134.5</ele>
        <time>2022-06-18T08:16:13Z</time>
      </trkpt>
      <trkpt lat="45.28774" lon="6.21825">
        <ele>1134.6</ele>
        <time>2022-06-18T08:16:14Z</time>
      </trkpt>
      <trkpt lat="45.2877" lon="6.21818">
        <ele>1134.7</ele>
        <time>2022-06-18T08:16:15Z</time>
      </trkpt>
      <trkpt lat="45.28766" lon="6.21811">
        <ele>1134.8</ele>
        <time>2022-06-18T08:16:16Z</time>
      </trkpt>
      <trkpt lat="45.28763" lon="6.21803">
        <ele>1134.9</ele>
        <time>2022-06-18T08:16:17Z</time>
      </trkpt>
      <trkpt lat="45.2876" lon="6.21796">
        <ele>1135.1</ele>
        <time>2022-06-18T08:16:18Z</time>
      </trkpt>
      <trkpt lat="45.28757" lon="6.21788">
        <ele>1135.2</ele>
        <time>2022-06-18T08:16:19Z</time>
      </trkpt>
      <trkpt lat="45.28756" lon="6.21779">
        <ele>1135.4</ele>
        <time>2022-06-18T08:16:20Z</time>
      </trkpt>
      <trkpt lat="45.28756" lon="6.21769">
        <ele>1135.7</ele>
        <time>2022-06-18T08:16:21Z</time>
      </trkpt>
      <trkpt lat="45.28756" lon="6.21759">
        <ele>1135.9</ele>
        <time>2022-06-18T08:16:22Z</time>
      </trkpt>
      <trkpt lat="45.28757" lon="6.21749">
        <ele>1136.2</ele>
        <time>2022-06-18T08:16:23Z</time>
      </trkpt>
      <trkpt lat="45.28757" lon="6.2174">
        <ele>1136.4</ele>
        <time>2022-06-18T08:16:24Z</time>
      </trkpt>
      <trkpt lat="45.28757" lon="6.21731">
        <ele>1136.7</ele>
        <time>2022-06-18T08:16:25Z</time>
      </trkpt>
      <trkpt lat="45.28756" lon="6.21723">
        <ele>1136.9</ele>
        <time>2022-06-18T08:16:26Z</time>
      </trkpt>
      <trkpt lat="45.28753" lon="6.21716">
        <ele>1137.1</ele>
        <time>2022-06-18T08:16:27Z</time>
      </trkpt>
      <trkpt lat="45.28749" lon="6.2171">
        <ele>1137.4</ele>
        <time>2022-06-18T08:16:28Z</time>
      </trkpt>
      <trkpt lat="45.28744" lon="6.21704">
        <ele>1137.7</ele>
        <time>2022-06-18T08:16:29Z</time>
      </trkpt>
      <trkpt lat="45.28739" lon="6.21699">
        <ele>1138</ele>
        <time>2022-06-18T08:16:30Z</time>
      </trkpt>
      <trkpt lat="45.28735" lon="6.21694">
        <ele>1138.4</ele>
        <time>2022-06-18T08:16:31Z</time>
      </trkpt>
      <trkpt lat="45.28731" lon="6.21689">
        <ele>1138.8</ele>
        <time>2022-06-18T08:16:32Z</time>
      </trkpt>
      <trkpt lat="45.28728" lon="6.21684">
        <ele>1139.2</ele>
        <time>2022-06-18T08:16:33Z</time>
      </trkpt>
      <trkpt lat="45.28725" lon="6.21679">
        <ele>1139.6</ele>
        <time>2022-06-18T08:16:34Z</time>
      </trkpt>
      <trkpt lat="45.28722" lon="6.21675">
        <ele>1140</ele>
        <time>2022-06-18T08:16:35Z</time>
      </trkpt>
      <trkpt lat="45.2872" lon="6.21671">
        <ele>1140.3</ele>
        <time>2022-06-18T08:16:36Z</time>
      </trkpt>
      <trkpt lat="45.28717" lon="6.21667">
        <ele>1140.8</ele>
        <time>2022-06-18T08:16:37Z</time>
      </trkpt>
      <trkpt lat="45.28715" lon="6.21663">
        <ele>1141.1</ele>
        <time>2022-06-18T08:16:38Z</time>
      </trkpt>
      <trkpt lat="45.28712" lon="6.21659">
        <ele>1141.5</ele>
        <time>2022-06-18T08:16:39Z</time>
      </trkpt>
      <trkpt lat="45.28709" lon="6.21656">
        <ele>1141.8</ele>
        <time>2022-06-18T08:16:40Z</time>
      </trkpt>
      <trkpt lat="45.28706" lon="6.21652">
        <ele>1142.3</ele>
        <time>2022-06-18T08:16:41Z</time>
      </trkpt>
      <trkpt lat="45.28704" lon="6.21648">
        <ele>1142.6</ele>
        <time>2022-06-18T08:16:43Z</time>
      </trkpt>
      <trkpt lat="45.287" lon="6.21645">
        <ele>1143</ele>
        <time>2022-06-18T08:16:44Z</time>
      </trkpt>
      <trkpt lat="45.28696" lon="6.21643">
        <ele>1143.5</ele>
        <time>2022-06-18T08:16:45Z</time>
      </trkpt>
      <trkpt lat="45.28692" lon="6.21642">
        <ele>1143.7</ele>
        <time>2022-06-18T08:16:46Z</time>
      </trkpt>
      <trkpt lat="45.28689" lon="6.21642">
        <ele>1144</ele>
        <time>2022-06-18T08:16:47Z</time>
      </trkpt>
      <trkpt lat="45.28685" lon="6.21642">
        <ele>1144.3</ele>
        <time>2022-06-18T08:16:48Z</time>
      </trkpt>
      <trkpt lat="45.2868" lon="6.21643">
        <ele>1144.7</ele>
        <time>2022-06-18T08:16:50Z</time>
      </trkpt>
      <trkpt lat="45.28675" lon="6.21645">
        <ele>1145.1</ele>
        <time>2022-06-18T08:16:51Z</time>
      </trkpt>
      <trkpt lat="45.28672" lon="6.21645">
        <ele>1145.4</ele>
        <time>2022-06-18T08:16:52Z</time>
      </trkpt>
      <trkpt lat="45.28668" lon="6.21648">
        <ele>1145.7</ele>
        <time>2022-06-18T08:16:54Z</time>
      </trkpt>
      <trkpt lat="45.28664" lon="6.21649">
        <ele>1146</ele>
        <time>2022-06-18T08:16:55Z</time>
      </trkpt>
      <trkpt lat="45.28661" lon="6.2165">
        <ele>1146.3</ele>
        <time>2022-06-18T08:16:56Z</time>
      </trkpt>
      <trkpt lat="45.28657" lon="6.21651">
        <ele>1146.6</ele>
        <time>2022-06-18T08:16:57Z</time>
      </trkpt>
      <trkpt lat="45.28654" lon="6.21652">
        <ele>1146.8</ele>
        <time>2022-06-18T08:16:58Z</time>
      </trkpt>
      <trkpt lat="45.28652" lon="6.21653">
        <ele>1147.1</ele>
        <time>2022-06-18T08:16:59Z</time>
      </trkpt>
      <trkpt lat="45.28649" lon="6.21654">
        <ele>1147.3</ele>
        <time>2022-06-18T08:17:00Z</time>
      </trkpt>
      <trkpt lat="45.28646" lon="6.21652">
        <ele>1147.6</ele>
        <time>2022-06-18T08:17:02Z</time>
      </trkpt>
      <trkpt lat="45.28643" lon="6.2165">
        <ele>1147.9</ele>
        <time>2022-06-18T08:17:03Z</time>
      </trkpt>
      <trkpt lat="45.2864" lon="6.21648">
        <ele>1148.2</ele>
        <time>2022-06-18T08:17:04Z</time>
      </trkpt>
      <trkpt lat="45.28636" lon="6.21647">
        <ele>1148.5</ele>
        <time>2022-06-18T08:17:05Z</time>
      </trkpt>
      <trkpt lat="45.28633" lon="6.21645">
        <ele>1148.7</ele>
        <time>2022-06-18T08:17:06Z</time>
      </trkpt>
      <trkpt lat="45.28629" lon="6.21643">
        <ele>1149.1</ele>
        <time>2022-06-18T08:17:07Z</time>
      </trkpt>
      <trkpt lat="45.28628" lon="6.21642">
        <ele>1149.2</ele>
        <time>2022-06-18T08:17:08Z</time>
      </trkpt>
      <trkpt lat="45.28625" lon="6.21641">
        <ele>1149.5</ele>
        <time>2022-06-18T08:17:09Z</time>
      </trkpt>
      <trkpt lat="45.28621" lon="6.21641">
        <ele>1149.7</ele>
        <time>2022-06-18T08:17:10Z</time>
      </trkpt>
      <trkpt lat="45.28618" lon="6.21638">
        <ele>1150</ele>
        <time>2022-06-18T08:17:11Z</time>
      </trkpt>
      <trkpt lat="45.28617" lon="6.21638">
        <ele>1150.1</ele>
        <time>2022-06-18T08:17:12Z</time>
      </trkpt>
      <trkpt lat="45.28615" lon="6.21635">
        <ele>1150.3</ele>
        <time>2022-06-18T08:17:13Z</time>
      </trkpt>
      <trkpt lat="45.28615" lon="6.21635">
        <ele>1150.3</ele>
        <time>2022-06-18T08:17:14Z</time>
      </trkpt>
      <trkpt lat="45.28613" lon="6.21634">
        <ele>1150.4</ele>
        <time>2022-06-18T08:17:16Z</time>
      </trkpt>
      <trkpt lat="45.28612" lon="6.21633">
        <ele>1150.5</ele>
        <time>2022-06-18T08:17:17Z</time>
      </trkpt>
      <trkpt lat="45.28609" lon="6.2163">
        <ele>1150.8</ele>
        <time>2022-06-18T08:17:18Z</time>
      </trkpt>
      <trkpt lat="45.28608" lon="6.21629">
        <ele>1150.9</ele>
        <time>2022-06-18T08:17:19Z</time>
      </trkpt>
      <trkpt lat="45.28604" lon="6.21626">
        <ele>1151.2</ele>
        <time>2022-06-18T08:17:21Z</time>
      </trkpt>
      <trkpt lat="45.28601" lon="6.21624">
        <ele>1151.5</ele>
        <time>2022-06-18T08:17:22Z</time>
      </trkpt>
      <trkpt lat="45.286" lon="6.21623">
        <ele>1151.6</ele>
        <time>2022-06-18T08:17:23Z</time>
      </trkpt>
      <trkpt lat="45.28597" lon="6.21621">
        <ele>1151.8</ele>
        <time>2022-06-18T08:17:24Z</time>
      </trkpt>
      <trkpt lat="45.28596" lon="6.2162">
        <ele>1151.9</ele>
        <time>2022-06-18T08:17:25Z</time>
      </trkpt>
      <trkpt lat="45.28594" lon="6.21618">
        <ele>1152.1</ele>
        <time>2022-06-18T08:17:26Z</time>
      </trkpt>
      <trkpt lat="45.28593" lon="6.21618">
        <ele>1152.2</ele>
        <time>2022-06-18T08:17:27Z</time>
      </trkpt>
      <trkpt lat="45.2859" lon="6.21616">
        <ele>1152.4</ele>
        <time>2022-06-18T08:17:28Z</time>
      </trkpt>
      <trkpt lat="45.28586" lon="6.21614">
        <ele>1152.6</ele>
        <time>2022-06-18T08:17:29Z</time>
      </trkpt>
      <trkpt lat="45.28582" lon="6.21611">
        <ele>1153</ele>
        <time>2022-06-18T08:17:31Z</time>
      </trkpt>
      <trkpt lat="45.28578" lon="6.21609">
        <ele>1153.3</ele>
        <time>2022-06-18T08:17:32Z</time>
      </trkpt>
      <trkpt lat="45.28576" lon="6.21606">
        <ele>1153.5</ele>
        <time>2022-06-18T08:17:33Z</time>
      </trkpt>
      <trkpt lat="45.28573" lon="6.21604">
        <ele>1153.8</ele>
        <time>2022-06-18T08:17:34Z</time>
      </trkpt>
      <trkpt lat="45.28571" lon="6.21603">
        <ele>1153.9</ele>
        <time>2022-06-18T08:17:35Z</time>
      </trkpt>
      <trkpt lat="45.28569" lon="6.21601">
        <ele>1154.1</ele>
        <time>2022-06-18T08:17:36Z</time>
      </trkpt>
      <trkpt lat="45.28566" lon="6.21599">
        <ele>1154.3</ele>
        <time>2022-06-18T08:17:37Z</time>
      </trkpt>
      <trkpt lat="45.28564" lon="6.21597">
        <ele>1154.5</ele>
        <time>2022-06-18T08:17:38Z</time>
      </trkpt>
      <trkpt lat="45.2856" lon="6.21595">
        <ele>1154.8</ele>
        <time>2022-06-18T08:17:40Z</time>
      </trkpt>
      <trkpt lat="45.28557" lon="6.21593">
        <ele>1155</ele>
        <time>2022-06-18T08:17:41Z</time>
      </trkpt>
      <trkpt lat="45.28554" lon="6.2159">
        <ele>1155.4</ele>
        <time>2022-06-18T08:17:42Z</time>
      </trkpt>
      <trkpt lat="45.28551" lon="6.21588">
        <ele>1155.7</ele>
        <time>2022-06-18T08:17:43Z</time>
      </trkpt>
      <trkpt lat="45.28548" lon="6.21585">
        <ele>1156</ele>
        <time>2022-06-18T08:17:44Z</time>
      </trkpt>
      <trkpt lat="45.28547" lon="6.21584">
        <ele>1156.1</ele>
        <time>2022-06-18T08:17:45Z</time>
      </trkpt>
      <trkpt lat="45.28543" lon="6.21582">
        <ele>1156.5</ele>
        <time>2022-06-18T08:17:46Z</time>
      </trkpt>
      <trkpt lat="45.28542" lon="6.21582">
        <ele>1156.6</ele>
        <time>2022-06-18T08:17:47Z</time>
      </trkpt>
      <trkpt lat="45.28538" lon="6.2158">
        <ele>1157</ele>
        <time>2022-06-18T08:17:48Z</time>
      </trkpt>
      <trkpt lat="45.28537" lon="6.21579">
        <ele>1157.1</ele>
        <time>2022-06-18T08:17:49Z</time>
      </trkpt>
      <trkpt lat="45.28533" lon="6.21577">
        <ele>1157.6</ele>
        <time>2022-06-18T08:17:50Z</time>
      </trkpt>
      <trkpt lat="45.28531" lon="6.21577">
        <ele>1157.7</ele>
        <time>2022-06-18T08:17:51Z</time>
      </trkpt>
      <trkpt lat="45.28529" lon="6.21574">
        <ele>1158.1</ele>
        <time>2022-06-18T08:17:52Z</time>
      </trkpt>
      <trkpt lat="45.28526" lon="6.21572">
        <ele>1158.4</ele>
        <time>2022-06-18T08:17:53Z</time>
      </trkpt>
      <trkpt lat="45.28521" lon="6.21569">
        <ele>1158.9</ele>
        <time>2022-06-18T08:17:55Z</time>
      </trkpt>
      <trkpt lat="45.28518" lon="6.21567">
        <ele>1159.3</ele>
        <time>2022-06-18T08:17:56Z</time>
      </trkpt>
      <trkpt lat="45.28515" lon="6.21565">
        <ele>1159.8</ele>
        <time>2022-06-18T08:17:57Z</time>
      </trkpt>
      <trkpt lat="45.28513" lon="6.21564">
        <ele>1160</ele>
        <time>2022-06-18T08:17:58Z</time>
      </trkpt>
      <trkpt lat="45.28511" lon="6.21563">
        <ele>1160.3</ele>
        <time>2022-06-18T08:17:59Z</time>
      </trkpt>
      <trkpt lat="45.28507" lon="6.2156">
        <ele>1160.7</ele>
        <time>2022-06-18T08:18:00Z</time>
      </trkpt>
      <trkpt lat="45.28506" lon="6.21559">
        <ele>1160.8</ele>
        <time>2022-06-18T08:18:01Z</time>
      </trkpt>
      <trkpt lat="45.28504" lon="6.21558">
        <ele>1161.2</ele>
        <time>2022-06-18T08:18:02Z</time>
      </trkpt>
      <trkpt lat="45.28501" lon="6.21556">
        <ele>1161.5</ele>
        <time>2022-06-18T08:18:03Z</time>
      </trkpt>
      <trkpt lat="45.28498" lon="6.21553">
        <ele>1161.9</ele>
        <time>2022-06-18T08:18:04Z</time>
      </trkpt>
      <trkpt lat="45.28495" lon="6.21551">
        <ele>1162.3</ele>
        <time>2022-06-18T08:18:06Z</time>
      </trkpt>
      <trkpt lat="45.28492" lon="6.2155">
        <ele>1162.6</ele>
        <time>2022-06-18T08:18:07Z</time>
      </trkpt>
      <trkpt lat="45.28489" lon="6.21548">
        <ele>1163</ele>
        <time>2022-06-18T08:18:08Z</time>
      </trkpt>
      <trkpt lat="45.28487" lon="6.21547">
        <ele>1163.3</ele>
        <time>2022-06-18T08:18:09Z</time>
      </trkpt>
      <trkpt lat="45.28482" lon="6.21546">
        <ele>1164</ele>
        <time>2022-06-18T08:18:11Z</time>
      </trkpt>
      <trkpt lat="45.28479" lon="6.21544">
        <ele>1164.3</ele>
        <time>2022-06-18T08:18:12Z</time>
      </trkpt>
      <trkpt lat="45.28475" lon="6.21542">
        <ele>1164.8</ele>
        <time>2022-06-18T08:18:13Z</time>
      </trkpt>
      <trkpt lat="45.28474" lon="6.21541">
        <ele>1165</ele>
        <time>2022-06-18T08:18:14Z</time>
      </trkpt>
      <trkpt lat="45.28471" lon="6.2154">
        <ele>1165.4</ele>
        <time>2022-06-18T08:18:15Z</time>
      </trkpt>
      <trkpt lat="45.28469" lon="6.21538">
        <ele>1165.7</ele>
        <time>2022-06-18T08:18:16Z</time>
      </trkpt>
      <trkpt lat="45.28466" lon="6.21537">
        <ele>1166.2</ele>
        <time>2022-06-18T08:18:18Z</time>
      </trkpt>
      <trkpt lat="45.28463" lon="6.21535">
        <ele>1166.6</ele>
        <time>2022-06-18T08:18:19Z</time>
      </trkpt>
      <trkpt lat="45.28459" lon="6.21532">
        <ele>1167.1</ele>
        <time>2022-06-18T08:18:20Z</time>
      </trkpt>
      <trkpt lat="45.28456" lon="6.21531">
        <ele>1167.5</ele>
        <time>2022-06-18T08:18:21Z</time>
      </trkpt>
      <trkpt lat="45.28453" lon="6.21529">
        <ele>1167.9</ele>
        <time>2022-06-18T08:18:22Z</time>
      </trkpt>
      <trkpt lat="45.28452" lon="6.21529">
        <ele>1168.1</ele>
        <time>2022-06-18T08:18:23Z</time>
      </trkpt>
      <trkpt lat="45.28449" lon="6.21527">
        <ele>1168.5</ele>
        <time>2022-06-18T08:18:24Z</time>
      </trkpt>
      <trkpt lat="45.28446" lon="6.21526">
        <ele>1168.8</ele>
        <time>2022-06-18T08:18:25Z</time>
      </trkpt>
      <trkpt lat="45.28443" lon="6.21524">
        <ele>1169.2</ele>
        <time>2022-06-18T08:18:26Z</time>
      </trkpt>
      <trkpt lat="45.2844" lon="6.21522">
        <ele>1169.7</ele>
        <time>2022-06-18T08:18:28Z</time>
      </trkpt>
      <trkpt lat="45.28436" lon="6.2152">
        <ele>1170.2</ele>
        <time>2022-06-18T08:18:29Z</time>
      </trkpt>
      <trkpt lat="45.28434" lon="6.21518">
        <ele>1170.5</ele>
        <time>2022-06-18T08:18:30Z</time>
      </trkpt>
      <trkpt lat="45.28431" lon="6.21516">
        <ele>1170.9</ele>
        <time>2022-06-18T08:18:32Z</time>
      </trkpt>
      <trkpt lat="45.28428" lon="6.21513">
        <ele>1171.3</ele>
        <time>2022-06-18T08:18:33Z</time>
      </trkpt>
      <trkpt lat="45.28428" lon="6.21513">
        <ele>1171.4</ele>
        <time>2022-06-18T08:18:34Z</time>
      </trkpt>
      <trkpt lat="45.28426" lon="6.21512">
        <ele>1171.7</ele>
        <time>2022-06-18T08:18:35Z</time>
      </trkpt>
      <trkpt lat="45.28425" lon="6.21511">
        <ele>1171.9</ele>
        <time>2022-06-18T08:18:36Z</time>
      </trkpt>
      <trkpt lat="45.28421" lon="6.21509">
        <ele>1172.4</ele>
        <time>2022-06-18T08:18:37Z</time>
      </trkpt>
      <trkpt lat="45.28419" lon="6.21508">
        <ele>1172.6</ele>
        <time>2022-06-18T08:18:38Z</time>
      </trkpt>
      <trkpt lat="45.28417" lon="6.21507">
        <ele>1173</ele>
        <time>2022-06-18T08:18:39Z</time>
      </trkpt>
      <trkpt lat="45.28414" lon="6.21506">
        <ele>1173.4</ele>
        <time>2022-06-18T08:18:40Z</time>
      </trkpt>
      <trkpt lat="45.28411" lon="6.21504">
        <ele>1173.8</ele>
        <time>2022-06-18T08:18:41Z</time>
      </trkpt>
      <trkpt lat="45.28408" lon="6.21501">
        <ele>1174.3</ele>
        <time>2022-06-18T08:18:43Z</time>
      </trkpt>
      <trkpt lat="45.28405" lon="6.215">
        <ele>1174.7</ele>
        <time>2022-06-18T08:18:44Z</time>
      </trkpt>
      <trkpt lat="45.28402" lon="6.21498">
        <ele>1175.1</ele>
        <time>2022-06-18T08:18:45Z</time>
      </trkpt>
      <trkpt lat="45.284" lon="6.21494">
        <ele>1175.7</ele>
        <time>2022-06-18T08:18:46Z</time>
      </trkpt>
      <trkpt lat="45.28397" lon="6.21491">
        <ele>1176.2</ele>
        <time>2022-06-18T08:18:47Z</time>
      </trkpt>
      <trkpt lat="45.28394" lon="6.21487">
        <ele>1176.7</ele>
        <time>2022-06-18T08:18:48Z</time>
      </trkpt>
      <trkpt lat="45.28391" lon="6.21484">
        <ele>1177.3</ele>
        <time>2022-06-18T08:18:49Z</time>
      </trkpt>
      <trkpt lat="45.2839" lon="6.21483">
        <ele>1177.5</ele>
        <time>2022-06-18T08:18:50Z</time>
      </trkpt>
      <trkpt lat="45.28387" lon="6.21479">
        <ele>1178</ele>
        <time>2022-06-18T08:18:51Z</time>
      </trkpt>
      <trkpt lat="45.28384" lon="6.21476">
        <ele>1178.5</ele>
        <time>2022-06-18T08:18:52Z</time>
      </trkpt>
      <trkpt lat="45.2838" lon="6.21469">
        <ele>1179.4</ele>
        <time>2022-06-18T08:18:54Z</time>
      </trkpt>
      <trkpt lat="45.28377" lon="6.21465">
        <ele>1180</ele>
        <time>2022-06-18T08:18:55Z</time>
      </trkpt>
      <trkpt lat="45.28375" lon="6.21461">
        <ele>1180.5</ele>
        <time>2022-06-18T08:18:56Z</time>
      </trkpt>
      <trkpt lat="45.28373" lon="6.21458">
        <ele>1180.9</ele>
        <time>2022-06-18T08:18:57Z</time>
      </trkpt>
      <trkpt lat="45.28371" lon="6.21456">
        <ele>1181.3</ele>
        <time>2022-06-18T08:18:58Z</time>
      </trkpt>
      <trkpt lat="45.28369" lon="6.21453">
        <ele>1181.7</ele>
        <time>2022-06-18T08:18:59Z</time>
      </trkpt>
      <trkpt lat="45.28367" lon="6.2145">
        <ele>1182.1</ele>
        <time>2022-06-18T08:19:00Z</time>
      </trkpt>
      <trkpt lat="45.28364" lon="6.21447">
        <ele>1182.5</ele>
        <time>2022-06-18T08:19:02Z</time>
      </trkpt>
      <trkpt lat="45.28361" lon="6.21445">
        <ele>1182.9</ele>
        <time>2022-06-18T08:19:03Z</time>
      </trkpt>
      <trkpt lat="45.28358" lon="6.21441">
        <ele>1183.5</ele>
        <time>2022-06-18T08:19:04Z</time>
      </trkpt>
      <trkpt lat="45.28355" lon="6.21438">
        <ele>1184</ele>
        <time>2022-06-18T08:19:05Z</time>
      </trkpt>
      <trkpt lat="45.28353" lon="6.21435">
        <ele>1184.5</ele>
        <time>2022-06-18T08:19:07Z</time>
      </trkpt>
      <trkpt lat="45.2835" lon="6.21431">
        <ele>1185</ele>
        <time>2022-06-18T08:19:08Z</time>
      </trkpt>
      <trkpt lat="45.28348" lon="6.21428">
        <ele>1185.4</ele>
        <time>2022-06-18T08:19:09Z</time>
      </trkpt>
      <trkpt lat="45.28345" lon="6.21425">
        <ele>1185.8</ele>
        <time>2022-06-18T08:19:10Z</time>
      </trkpt>
      <trkpt lat="45.28344" lon="6.21425">
        <ele>1186</ele>
        <time>2022-06-18T08:19:11Z</time>
      </trkpt>
      <trkpt lat="45.28341" lon="6.21422">
        <ele>1186.4</ele>
        <time>2022-06-18T08:19:12Z</time>
      </trkpt>
      <trkpt lat="45.28339" lon="6.2142">
        <ele>1186.8</ele>
        <time>2022-06-18T08:19:13Z</time>
      </trkpt>
      <trkpt lat="45.28336" lon="6.21419">
        <ele>1187.2</ele>
        <time>2022-06-18T08:19:14Z</time>
      </trkpt>
      <trkpt lat="45.28333" lon="6.21417">
        <ele>1187.7</ele>
        <time>2022-06-18T08:19:16Z</time>
      </trkpt>
      <trkpt lat="45.28329" lon="6.21415">
        <ele>1188.2</ele>
        <time>2022-06-18T08:19:17Z</time>
      </trkpt>
      <trkpt lat="45.28326" lon="6.21413">
        <ele>1188.6</ele>
        <time>2022-06-18T08:19:19Z</time>
      </trkpt>
      <trkpt lat="45.28323" lon="6.21412">
        <ele>1189</ele>
        <time>2022-06-18T08:19:20Z</time>
      </trkpt>
      <trkpt lat="45.2832" lon="6.2141">
        <ele>1189.3</ele>
        <time>2022-06-18T08:19:21Z</time>
      </trkpt>
      <trkpt lat="45.28315" lon="6.21409">
        <ele>1189.8</ele>
        <time>2022-06-18T08:19:23Z</time>
      </trkpt>
      <trkpt lat="45.28311" lon="6.21408">
        <ele>1190.3</ele>
        <time>2022-06-18T08:19:24Z</time>
      </trkpt>
      <trkpt lat="45.2831" lon="6.21408">
        <ele>1190.5</ele>
        <time>2022-06-18T08:19:25Z</time>
      </trkpt>
      <trkpt lat="45.28306" lon="6.21408">
        <ele>1190.8</ele>
        <time>2022-06-18T08:19:26Z</time>
      </trkpt>
      <trkpt lat="45.28302" lon="6.21407">
        <ele>1191.3</ele>
        <time>2022-06-18T08:19:28Z</time>
      </trkpt>
      <trkpt lat="45.28299" lon="6.21407">
        <ele>1191.6</ele>
        <time>2022-06-18T08:19:29Z</time>
      </trkpt>
      <trkpt lat="45.28296" lon="6.21407">
        <ele>1192</ele>
        <time>2022-06-18T08:19:30Z</time>
      </trkpt>
      <trkpt lat="45.28293" lon="6.21406">
        <ele>1192.3</ele>
        <time>2022-06-18T08:19:31Z</time>
      </trkpt>
      <trkpt lat="45.28289" lon="6.21405">
        <ele>1192.7</ele>
        <time>2022-06-18T08:19:32Z</time>
      </trkpt>
      <trkpt lat="45.28288" lon="6.21404">
        <ele>1192.8</ele>
        <time>2022-06-18T08:19:33Z</time>
      </trkpt>
      <trkpt lat="45.28285" lon="6.21403">
        <ele>1193.2</ele>
        <time>2022-06-18T08:19:34Z</time>
      </trkpt>
      <trkpt lat="45.28282" lon="6.21401">
        <ele>1193.5</ele>
        <time>2022-06-18T08:19:36Z</time>
      </trkpt>
      <trkpt lat="45.28279" lon="6.21399">
        <ele>1193.8</ele>
        <time>2022-06-18T08:19:37Z</time>
      </trkpt>
      <trkpt lat="45.28275" lon="6.21398">
        <ele>1194.2</ele>
        <time>2022-06-18T08:19:38Z</time>
      </trkpt>
      <trkpt lat="45.28273" lon="6.21396">
        <ele>1194.5</ele>
        <time>2022-06-18T08:19:39Z</time>
      </trkpt>
      <trkpt lat="45.2827" lon="6.21393">
        <ele>1194.8</ele>
        <time>2022-06-18T08:19:40Z</time>
      </trkpt>
      <trkpt lat="45.28266" lon="6.21391">
        <ele>1195.3</ele>
        <time>2022-06-18T08:19:41Z</time>
      </trkpt>
      <trkpt lat="45.28265" lon="6.2139">
        <ele>1195.5</ele>
        <time>2022-06-18T08:19:42Z</time>
      </trkpt>
      <trkpt lat="45.28262" lon="6.21388">
        <ele>1195.8</ele>
        <time>2022-06-18T08:19:43Z</time>
      </trkpt>
      <trkpt lat="45.28259" lon="6.21386">
        <ele>1196.1</ele>
        <time>2022-06-18T08:19:44Z</time>
      </trkpt>
      <trkpt lat="45.28256" lon="6.21383">
        <ele>1196.5</ele>
        <time>2022-06-18T08:19:45Z</time>
      </trkpt>
      <trkpt lat="45.28254" lon="6.21382">
        <ele>1196.7</ele>
        <time>2022-06-18T08:19:46Z</time>
      </trkpt>
      <trkpt lat="45.2825" lon="6.21379">
        <ele>1197.2</ele>
        <time>2022-06-18T08:19:48Z</time>
      </trkpt>
      <trkpt lat="45.28249" lon="6.21377">
        <ele>1197.4</ele>
        <time>2022-06-18T08:19:49Z</time>
      </trkpt>
      <trkpt lat="45.28247" lon="6.21375">
        <ele>1197.6</ele>
        <time>2022-06-18T08:19:50Z</time>
      </trkpt>
      <trkpt lat="45.28245" lon="6.21373">
        <ele>1198</ele>
        <time>2022-06-18T08:19:51Z</time>
      </trkpt>
      <trkpt lat="45.28241" lon="6.21369">
        <ele>1198.4</ele>
        <time>2022-06-18T08:19:52Z</time>
      </trkpt>
      <trkpt lat="45.2824" lon="6.21368">
        <ele>1198.5</ele>
        <time>2022-06-18T08:19:53Z</time>
      </trkpt>
      <trkpt lat="45.28238" lon="6.21366">
        <ele>1198.9</ele>
        <time>2022-06-18T08:19:55Z</time>
      </trkpt>
      <trkpt lat="45.28235" lon="6.21363">
        <ele>1199.2</ele>
        <time>2022-06-18T08:19:56Z</time>
      </trkpt>
      <trkpt lat="45.28233" lon="6.21361">
        <ele>1199.6</ele>
        <time>2022-06-18T08:19:57Z</time>
      </trkpt>
      <trkpt lat="45.2823" lon="6.21357">
        <ele>1200</ele>
        <time>2022-06-18T08:19:58Z</time>
      </trkpt>
      <trkpt lat="45.28227" lon="6.21354">
        <ele>1200.5</ele>
        <time>2022-06-18T08:19:59Z</time>
      </trkpt>
      <trkpt lat="45.28225" lon="6.21353">
        <ele>1200.6</ele>
        <time>2022-06-18T08:20:00Z</time>
      </trkpt>
      <trkpt lat="45.28222" lon="6.21349">
        <ele>1201.1</ele>
        <time>2022-06-18T08:20:01Z</time>
      </trkpt>
      <trkpt lat="45.28221" lon="6.21348">
        <ele>1201.3</ele>
        <time>2022-06-18T08:20:02Z</time>
      </trkpt>
      <trkpt lat="45.28218" lon="6.21344">
        <ele>1201.8</ele>
        <time>2022-06-18T08:20:04Z</time>
      </trkpt>
      <trkpt lat="45.28217" lon="6.21343">
        <ele>1201.9</ele>
        <time>2022-06-18T08:20:05Z</time>
      </trkpt>
      <trkpt lat="45.28214" lon="6.2134">
        <ele>1202.4</ele>
        <time>2022-06-18T08:20:06Z</time>
      </trkpt>
      <trkpt lat="45.28212" lon="6.21338">
        <ele>1202.8</ele>
        <time>2022-06-18T08:20:07Z</time>
      </trkpt>
      <trkpt lat="45.2821" lon="6.21336">
        <ele>1203.1</ele>
        <time>2022-06-18T08:20:08Z</time>
      </trkpt>
      <trkpt lat="45.28206" lon="6.21333">
        <ele>1203.7</ele>
        <time>2022-06-18T08:20:10Z</time>
      </trkpt>
      <trkpt lat="45.28203" lon="6.21332">
        <ele>1204.1</ele>
        <time>2022-06-18T08:20:11Z</time>
      </trkpt>
      <trkpt lat="45.282" lon="6.2133">
        <ele>1204.5</ele>
        <time>2022-06-18T08:20:13Z</time>
      </trkpt>
      <trkpt lat="45.28197" lon="6.21328">
        <ele>1205</ele>
        <time>2022-06-18T08:20:14Z</time>
      </trkpt>
      <trkpt lat="45.28193" lon="6.21325">
        <ele>1205.5</ele>
        <time>2022-06-18T08:20:15Z</time>
      </trkpt>
      <trkpt lat="45.2819" lon="6.21323">
        <ele>1205.9</ele>
        <time>2022-06-18T08:20:16Z</time>
      </trkpt>
      <trkpt lat="45.28186" lon="6.21321">
        <ele>1206.5</ele>
        <time>2022-06-18T08:20:18Z</time>
      </trkpt>
      <trkpt lat="45.28181" lon="6.2132">
        <ele>1207</ele>
        <time>2022-06-18T08:20:19Z</time>
      </trkpt>
      <trkpt lat="45.28179" lon="6.21319">
        <ele>1207.4</ele>
        <time>2022-06-18T08:20:20Z</time>
      </trkpt>
      <trkpt lat="45.28176" lon="6.21318">
        <ele>1207.7</ele>
        <time>2022-06-18T08:20:21Z</time>
      </trkpt>
      <trkpt lat="45.28171" lon="6.21317">
        <ele>1208.3</ele>
        <time>2022-06-18T08:20:23Z</time>
      </trkpt>
      <trkpt lat="45.28168" lon="6.21317">
        <ele>1208.6</ele>
        <time>2022-06-18T08:20:24Z</time>
      </trkpt>
      <trkpt lat="45.28164" lon="6.21317">
        <ele>1209.1</ele>
        <time>2022-06-18T08:20:25Z</time>
      </trkpt>
      <trkpt lat="45.28161" lon="6.21316">
        <ele>1209.5</ele>
        <time>2022-06-18T08:20:26Z</time>
      </trkpt>
      <trkpt lat="45.28158" lon="6.21316">
        <ele>1209.8</ele>
        <time>2022-06-18T08:20:27Z</time>
      </trkpt>
      <trkpt lat="45.28156" lon="6.21316">
        <ele>1210.1</ele>
        <time>2022-06-18T08:20:28Z</time>
      </trkpt>
      <trkpt lat="45.28151" lon="6.21317">
        <ele>1210.6</ele>
        <time>2022-06-18T08:20:30Z</time>
      </trkpt>
      <trkpt lat="45.28147" lon="6.21316">
        <ele>1211.1</ele>
        <time>2022-06-18T08:20:31Z</time>
      </trkpt>
      <trkpt lat="45.28143" lon="6.21316">
        <ele>1211.6</ele>
        <time>2022-06-18T08:20:33Z</time>
      </trkpt>
      <trkpt lat="45.28138" lon="6.21317">
        <ele>1212.1</ele>
        <time>2022-06-18T08:20:34Z</time>
      </trkpt>
      <trkpt lat="45.28135" lon="6.21317">
        <ele>1212.4</ele>
        <time>2022-06-18T08:20:35Z</time>
      </trkpt>
      <trkpt lat="45.28132" lon="6.21316">
        <ele>1212.8</ele>
        <time>2022-06-18T08:20:37Z</time>
      </trkpt>
      <trkpt lat="45.28129" lon="6.21315">
        <ele>1213.1</ele>
        <time>2022-06-18T08:20:38Z</time>
      </trkpt>
      <trkpt lat="45.28126" lon="6.21316">
        <ele>1213.4</ele>
        <time>2022-06-18T08:20:39Z</time>
      </trkpt>
      <trkpt lat="45.28122" lon="6.21316">
        <ele>1213.8</ele>
        <time>2022-06-18T08:20:40Z</time>
      </trkpt>
      <trkpt lat="45.2812" lon="6.21316">
        <ele>1213.9</ele>
        <time>2022-06-18T08:20:41Z</time>
      </trkpt>
      <trkpt lat="45.28118" lon="6.21315">
        <ele>1214.1</ele>
        <time>2022-06-18T08:20:42Z</time>
      </trkpt>
      <trkpt lat="45.28115" lon="6.21313">
        <ele>1214.3</ele>
        <time>2022-06-18T08:20:44Z</time>
      </trkpt>
      <trkpt lat="45.28113" lon="6.2131">
        <ele>1214.5</ele>
        <time>2022-06-18T08:20:45Z</time>
      </trkpt>
      <trkpt lat="45.2811" lon="6.21306">
        <ele>1214.7</ele>
        <time>2022-06-18T08:20:46Z</time>
      </trkpt>
      <trkpt lat="45.28107" lon="6.21301">
        <ele>1214.9</ele>
        <time>2022-06-18T08:20:48Z</time>
      </trkpt>
      <trkpt lat="45.28104" lon="6.21293">
        <ele>1215.2</ele>
        <time>2022-06-18T08:20:49Z</time>
      </trkpt>
      <trkpt lat="45.28102" lon="6.21289">
        <ele>1215.3</ele>
        <time>2022-06-18T08:20:50Z</time>
      </trkpt>
      <trkpt lat="45.281" lon="6.21282">
        <ele>1215.5</ele>
        <time>2022-06-18T08:20:52Z</time>
      </trkpt>
      <trkpt lat="45.28099" lon="6.21276">
        <ele>1215.6</ele>
        <time>2022-06-18T08:20:53Z</time>
      </trkpt>
      <trkpt lat="45.28098" lon="6.21271">
        <ele>1215.8</ele>
        <time>2022-06-18T08:20:54Z</time>
      </trkpt>
      <trkpt lat="45.28096" lon="6.21262">
        <ele>1215.9</ele>
        <time>2022-06-18T08:20:56Z</time>
      </trkpt>
      <trkpt lat="45.28094" lon="6.21253">
        <ele>1216.1</ele>
        <time>2022-06-18T08:20:57Z</time>
      </trkpt>
      <trkpt lat="45.28092" lon="6.21247">
        <ele>1216.2</ele>
        <time>2022-06-18T08:20:59Z</time>
      </trkpt>
      <trkpt lat="45.2809" lon="6.2124">
        <ele>1216.3</ele>
        <time>2022-06-18T08:21:00Z</time>
      </trkpt>
      <trkpt lat="45.2809" lon="6.21235">
        <ele>1216.4</ele>
        <time>2022-06-18T08:21:01Z</time>
      </trkpt>
      <trkpt lat="45.28089" lon="6.21231">
        <ele>1216.5</ele>
        <time>2022-06-18T08:21:02Z</time>
      </trkpt>
      <trkpt lat="45.28088" lon="6.21225">
        <ele>1216.5</ele>
        <time>2022-06-18T08:21:03Z</time>
      </trkpt>
      <trkpt lat="45.28087" lon="6.21221">
        <ele>1216.6</ele>
        <time>2022-06-18T08:21:04Z</time>
      </trkpt>
      <trkpt lat="45.28083" lon="6.21214">
        <ele>1216.7</ele>
        <time>2022-06-18T08:21:06Z</time>
      </trkpt>
      <trkpt lat="45.2808" lon="6.21208">
        <ele>1216.7</ele>
        <time>2022-06-18T08:21:07Z</time>
      </trkpt>
      <trkpt lat="45.28075" lon="6.21201">
        <ele>1216.8</ele>
        <time>2022-06-18T08:21:08Z</time>
      </trkpt>
      <trkpt lat="45.28072" lon="6.21196">
        <ele>1216.9</ele>
        <time>2022-06-18T08:21:09Z</time>
      </trkpt>
      <trkpt lat="45.28069" lon="6.21191">
        <ele>1217</ele>
        <time>2022-06-18T08:21:10Z</time>
      </trkpt>
      <trkpt lat="45.28066" lon="6.21186">
        <ele>1217</ele>
        <time>2022-06-18T08:21:11Z</time>
      </trkpt>
      <trkpt lat="45.28062" lon="6.21181">
        <ele>1217.1</ele>
        <time>2022-06-18T08:21:12Z</time>
      </trkpt>
      <trkpt lat="45.2806" lon="6.21177">
        <ele>1217.1</ele>
        <time>2022-06-18T08:21:13Z</time>
      </trkpt>
      <trkpt lat="45.28057" lon="6.21172">
        <ele>1217.1</ele>
        <time>2022-06-18T08:21:14Z</time>
      </trkpt>
      <trkpt lat="45.28053" lon="6.21168">
        <ele>1217.2</ele>
        <time>2022-06-18T08:21:15Z</time>
      </trkpt>
      <trkpt lat="45.2805" lon="6.21163">
        <ele>1217.1</ele>
        <time>2022-06-18T08:21:16Z</time>
      </trkpt>
      <trkpt lat="45.28047" lon="6.21158">
        <ele>1217</ele>
        <time>2022-06-18T08:21:17Z</time>
      </trkpt>
      <trkpt lat="45.28043" lon="6.21153">
        <ele>1216.9</ele>
        <time>2022-06-18T08:21:18Z</time>
      </trkpt>
      <trkpt lat="45.28039" lon="6.21149">
        <ele>1216.7</ele>
        <time>2022-06-18T08:21:19Z</time>
      </trkpt>
      <trkpt lat="45.28035" lon="6.21144">
        <ele>1216.6</ele>
        <time>2022-06-18T08:21:20Z</time>
      </trkpt>
      <trkpt lat="45.28031" lon="6.21139">
        <ele>1216.5</ele>
        <time>2022-06-18T08:21:21Z</time>
      </trkpt>
      <trkpt lat="45.28027" lon="6.21135">
        <ele>1216.4</ele>
        <time>2022-06-18T08:21:22Z</time>
      </trkpt>
      <trkpt lat="45.28024" lon="6.21131">
        <ele>1216.2</ele>
        <time>2022-06-18T08:21:23Z</time>
      </trkpt>
      <trkpt lat="45.2802" lon="6.21126">
        <ele>1216.1</ele>
        <time>2022-06-18T08:21:24Z</time>
      </trkpt>
      <trkpt lat="45.28016" lon="6.21121">
        <ele>1216</ele>
        <time>2022-06-18T08:21:25Z</time>
      </trkpt>
      <trkpt lat="45.28012" lon="6.21116">
        <ele>1215.9</ele>
        <time>2022-06-18T08:21:26Z</time>
      </trkpt>
      <trkpt lat="45.28008" lon="6.2111">
        <ele>1215.8</ele>
        <time>2022-06-18T08:21:27Z</time>
      </trkpt>
      <trkpt lat="45.28004" lon="6.21105">
        <ele>1215.7</ele>
        <time>2022-06-18T08:21:28Z</time>
      </trkpt>
      <trkpt lat="45.28001" lon="6.21099">
        <ele>1215.6</ele>
        <time>2022-06-18T08:21:29Z</time>
      </trkpt>
      <trkpt lat="45.27997" lon="6.21092">
        <ele>1216.7</ele>
        <time>2022-06-18T08:21:30Z</time>
      </trkpt>
      <trkpt lat="45.27994" lon="6.21086">
        <ele>1219</ele>
        <time>2022-06-18T08:21:31Z</time>
      </trkpt>
      <trkpt lat="45.2799" lon="6.21079">
        <ele>1221.3</ele>
        <time>2022-06-18T08:21:32Z</time>
      </trkpt>
      <trkpt lat="45.27987" lon="6.21073">
        <ele>1223.6</ele>
        <time>2022-06-18T08:21:33Z</time>
      </trkpt>
      <trkpt lat="45.27983" lon="6.21067">
        <ele>1225.9</ele>
        <time>2022-06-18T08:21:34Z</time>
      </trkpt>
      <trkpt lat="45.27979" lon="6.21061">
        <ele>1228.1</ele>
        <time>2022-06-18T08:21:35Z</time>
      </trkpt>
      <trkpt lat="45.27975" lon="6.21056">
        <ele>1227.1</ele>
        <time>2022-06-18T08:21:36Z</time>
      </trkpt>
      <trkpt lat="45.27971" lon="6.21051">
        <ele>1225.6</ele>
        <time>2022-06-18T08:21:37Z</time>
      </trkpt>
      <trkpt lat="45.27967" lon="6.21047">
        <ele>1226.1</ele>
        <time>2022-06-18T08:21:38Z</time>
      </trkpt>
      <trkpt lat="45.27963" lon="6.21043">
        <ele>1226.5</ele>
        <time>2022-06-18T08:21:39Z</time>
      </trkpt>
      <trkpt lat="45.2796" lon="6.21041">
        <ele>1226.9</ele>
        <time>2022-06-18T08:21:40Z</time>
      </trkpt>
      <trkpt lat="45.27957" lon="6.2104">
        <ele>1227.3</ele>
        <time>2022-06-18T08:21:41Z</time>
      </trkpt>
      <trkpt lat="45.27953" lon="6.21039">
        <ele>1227.6</ele>
        <time>2022-06-18T08:21:42Z</time>
      </trkpt>
      <trkpt lat="45.2795" lon="6.21038">
        <ele>1227.9</ele>
        <time>2022-06-18T08:21:43Z</time>
      </trkpt>
      <trkpt lat="45.27946" lon="6.21038">
        <ele>1228.3</ele>
        <time>2022-06-18T08:21:44Z</time>
      </trkpt>
      <trkpt lat="45.27945" lon="6.21038">
        <ele>1228.5</ele>
        <time>2022-06-18T08:21:45Z</time>
      </trkpt>
      <trkpt lat="45.27941" lon="6.21037">
        <ele>1228.9</ele>
        <time>2022-06-18T08:21:46Z</time>
      </trkpt>
      <trkpt lat="45.27942" lon="6.21036">
        <ele>1229</ele>
        <time>2022-06-18T08:21:47Z</time>
      </trkpt>
      <trkpt lat="45.27937" lon="6.21034">
        <ele>1229.5</ele>
        <time>2022-06-18T08:21:49Z</time>
      </trkpt>
      <trkpt lat="45.27933" lon="6.21032">
        <ele>1229.8</ele>
        <time>2022-06-18T08:21:50Z</time>
      </trkpt>
      <trkpt lat="45.27927" lon="6.2103">
        <ele>1230.2</ele>
        <time>2022-06-18T08:21:51Z</time>
      </trkpt>
      <trkpt lat="45.27925" lon="6.21029">
        <ele>1230.5</ele>
        <time>2022-06-18T08:21:52Z</time>
      </trkpt>
      <trkpt lat="45.27922" lon="6.21028">
        <ele>1230.7</ele>
        <time>2022-06-18T08:21:53Z</time>
      </trkpt>
      <trkpt lat="45.27919" lon="6.21026">
        <ele>1230.9</ele>
        <time>2022-06-18T08:21:54Z</time>
      </trkpt>
      <trkpt lat="45.27916" lon="6.21025">
        <ele>1231.2</ele>
        <time>2022-06-18T08:21:55Z</time>
      </trkpt>
      <trkpt lat="45.27912" lon="6.21023">
        <ele>1231.5</ele>
        <time>2022-06-18T08:21:57Z</time>
      </trkpt>
      <trkpt lat="45.27909" lon="6.21022">
        <ele>1231.7</ele>
        <time>2022-06-18T08:21:58Z</time>
      </trkpt>
      <trkpt lat="45.27906" lon="6.2102">
        <ele>1231.9</ele>
        <time>2022-06-18T08:21:59Z</time>
      </trkpt>
      <trkpt lat="45.27903" lon="6.21019">
        <ele>1232.2</ele>
        <time>2022-06-18T08:22:00Z</time>
      </trkpt>
      <trkpt lat="45.27899" lon="6.21017">
        <ele>1232.5</ele>
        <time>2022-06-18T08:22:01Z</time>
      </trkpt>
      <trkpt lat="45.27898" lon="6.21016">
        <ele>1232.6</ele>
        <time>2022-06-18T08:22:02Z</time>
      </trkpt>
      <trkpt lat="45.27895" lon="6.21014">
        <ele>1232.8</ele>
        <time>2022-06-18T08:22:03Z</time>
      </trkpt>
      <trkpt lat="45.27894" lon="6.21014">
        <ele>1232.9</ele>
        <time>2022-06-18T08:22:04Z</time>
      </trkpt>
      <trkpt lat="45.2789" lon="6.21011">
        <ele>1233.2</ele>
        <time>2022-06-18T08:22:05Z</time>
      </trkpt>
      <trkpt lat="45.27889" lon="6.2101">
        <ele>1233.3</ele>
        <time>2022-06-18T08:22:06Z</time>
      </trkpt>
      <trkpt lat="45.27886" lon="6.21009">
        <ele>1233.5</ele>
        <time>2022-06-18T08:22:07Z</time>
      </trkpt>
      <trkpt lat="45.27883" lon="6.21006">
        <ele>1233.8</ele>
        <time>2022-06-18T08:22:09Z</time>
      </trkpt>
      <trkpt lat="45.27881" lon="6.21003">
        <ele>1234.1</ele>
        <time>2022-06-18T08:22:10Z</time>
      </trkpt>
      <trkpt lat="45.27878" lon="6.21001">
        <ele>1234.3</ele>
        <time>2022-06-18T08:22:11Z</time>
      </trkpt>
      <trkpt lat="45.27875" lon="6.20999">
        <ele>1234.6</ele>
        <time>2022-06-18T08:22:12Z</time>
      </trkpt>
      <trkpt lat="45.27873" lon="6.20997">
        <ele>1234.8</ele>
        <time>2022-06-18T08:22:13Z</time>
      </trkpt>
      <trkpt lat="45.2787" lon="6.20994">
        <ele>1235.2</ele>
        <time>2022-06-18T08:22:14Z</time>
      </trkpt>
      <trkpt lat="45.27869" lon="6.20993">
        <ele>1235.3</ele>
        <time>2022-06-18T08:22:15Z</time>
      </trkpt>
      <trkpt lat="45.27866" lon="6.20991">
        <ele>1235.6</ele>
        <time>2022-06-18T08:22:16Z</time>
      </trkpt>
      <trkpt lat="45.27863" lon="6.2099">
        <ele>1235.9</ele>
        <time>2022-06-18T08:22:18Z</time>
      </trkpt>
      <trkpt lat="45.2786" lon="6.20987">
        <ele>1236.3</ele>
        <time>2022-06-18T08:22:19Z</time>
      </trkpt>
      <trkpt lat="45.27856" lon="6.20984">
        <ele>1236.6</ele>
        <time>2022-06-18T08:22:20Z</time>
      </trkpt>
      <trkpt lat="45.27853" lon="6.20982">
        <ele>1237</ele>
        <time>2022-06-18T08:22:22Z</time>
      </trkpt>
      <trkpt lat="45.2785" lon="6.20979">
        <ele>1237.4</ele>
        <time>2022-06-18T08:22:23Z</time>
      </trkpt>
      <trkpt lat="45.27848" lon="6.20978">
        <ele>1237.5</ele>
        <time>2022-06-18T08:22:24Z</time>
      </trkpt>
      <trkpt lat="45.27845" lon="6.20977">
        <ele>1237.9</ele>
        <time>2022-06-18T08:22:25Z</time>
      </trkpt>
      <trkpt lat="45.27844" lon="6.20976">
        <ele>1238</ele>
        <time>2022-06-18T08:22:26Z</time>
      </trkpt>
      <trkpt lat="45.27841" lon="6.20974">
        <ele>1238.4</ele>
        <time>2022-06-18T08:22:27Z</time>
      </trkpt>
      <trkpt lat="45.2784" lon="6.20973">
        <ele>1238.5</ele>
        <time>2022-06-18T08:22:28Z</time>
      </trkpt>
      <trkpt lat="45.27838" lon="6.2097">
        <ele>1238.8</ele>
        <time>2022-06-18T08:22:29Z</time>
      </trkpt>
      <trkpt lat="45.27837" lon="6.2097">
        <ele>1238.9</ele>
        <time>2022-06-18T08:22:30Z</time>
      </trkpt>
      <trkpt lat="45.27836" lon="6.20967">
        <ele>1239.2</ele>
        <time>2022-06-18T08:22:31Z</time>
      </trkpt>
      <trkpt lat="45.27833" lon="6.20964">
        <ele>1239.6</ele>
        <time>2022-06-18T08:22:33Z</time>
      </trkpt>
      <trkpt lat="45.2783" lon="6.20961">
        <ele>1240</ele>
        <time>2022-06-18T08:22:34Z</time>
      </trkpt>
      <trkpt lat="45.27828" lon="6.20958">
        <ele>1240.3</ele>
        <time>2022-06-18T08:22:35Z</time>
      </trkpt>
      <trkpt lat="45.27826" lon="6.20956">
        <ele>1240.6</ele>
        <time>2022-06-18T08:22:36Z</time>
      </trkpt>
      <trkpt lat="45.27823" lon="6.20953">
        <ele>1240.9</ele>
        <time>2022-06-18T08:22:37Z</time>
      </trkpt>
      <trkpt lat="45.2782" lon="6.20949">
        <ele>1241.3</ele>
        <time>2022-06-18T08:22:38Z</time>
      </trkpt>
      <trkpt lat="45.27817" lon="6.20946">
        <ele>1241.7</ele>
        <time>2022-06-18T08:22:39Z</time>
      </trkpt>
      <trkpt lat="45.27814" lon="6.20942">
        <ele>1242</ele>
        <time>2022-06-18T08:22:40Z</time>
      </trkpt>
      <trkpt lat="45.27811" lon="6.20937">
        <ele>1242.5</ele>
        <time>2022-06-18T08:22:42Z</time>
      </trkpt>
      <trkpt lat="45.27808" lon="6.20934">
        <ele>1242.8</ele>
        <time>2022-06-18T08:22:43Z</time>
      </trkpt>
      <trkpt lat="45.27805" lon="6.2093">
        <ele>1243.1</ele>
        <time>2022-06-18T08:22:44Z</time>
      </trkpt>
      <trkpt lat="45.27803" lon="6.20926">
        <ele>1243.4</ele>
        <time>2022-06-18T08:22:46Z</time>
      </trkpt>
      <trkpt lat="45.278" lon="6.20921">
        <ele>1243.8</ele>
        <time>2022-06-18T08:22:47Z</time>
      </trkpt>
      <trkpt lat="45.27798" lon="6.20917">
        <ele>1244</ele>
        <time>2022-06-18T08:22:48Z</time>
      </trkpt>
      <trkpt lat="45.27797" lon="6.20915">
        <ele>1244.2</ele>
        <time>2022-06-18T08:22:49Z</time>
      </trkpt>
      <trkpt lat="45.27793" lon="6.2091">
        <ele>1244.6</ele>
        <time>2022-06-18T08:22:51Z</time>
      </trkpt>
      <trkpt lat="45.2779" lon="6.20906">
        <ele>1244.9</ele>
        <time>2022-06-18T08:22:52Z</time>
      </trkpt>
      <trkpt lat="45.27788" lon="6.20902">
        <ele>1245.2</ele>
        <time>2022-06-18T08:22:54Z</time>
      </trkpt>
      <trkpt lat="45.27785" lon="6.20898">
        <ele>1245.6</ele>
        <time>2022-06-18T08:22:55Z</time>
      </trkpt>
      <trkpt lat="45.27783" lon="6.20896">
        <ele>1245.7</ele>
        <time>2022-06-18T08:22:56Z</time>
      </trkpt>
      <trkpt lat="45.2778" lon="6.20894">
        <ele>1246</ele>
        <time>2022-06-18T08:22:57Z</time>
      </trkpt>
      <trkpt lat="45.27779" lon="6.20893">
        <ele>1246.1</ele>
        <time>2022-06-18T08:22:58Z</time>
      </trkpt>
      <trkpt lat="45.27776" lon="6.20889">
        <ele>1246.5</ele>
        <time>2022-06-18T08:23:00Z</time>
      </trkpt>
      <trkpt lat="45.27773" lon="6.20887">
        <ele>1246.9</ele>
        <time>2022-06-18T08:23:01Z</time>
      </trkpt>
      <trkpt lat="45.27772" lon="6.20886">
        <ele>1247</ele>
        <time>2022-06-18T08:23:02Z</time>
      </trkpt>
      <trkpt lat="45.2777" lon="6.20883">
        <ele>1247.2</ele>
        <time>2022-06-18T08:23:03Z</time>
      </trkpt>
      <trkpt lat="45.27767" lon="6.20881">
        <ele>1247.5</ele>
        <time>2022-06-18T08:23:04Z</time>
      </trkpt>
      <trkpt lat="45.27764" lon="6.20878">
        <ele>1247.8</ele>
        <time>2022-06-18T08:23:05Z</time>
      </trkpt>
      <trkpt lat="45.27763" lon="6.20877">
        <ele>1247.9</ele>
        <time>2022-06-18T08:23:06Z</time>
      </trkpt>
      <trkpt lat="45.2776" lon="6.20874">
        <ele>1248.3</ele>
        <time>2022-06-18T08:23:07Z</time>
      </trkpt>
      <trkpt lat="45.27759" lon="6.20873">
        <ele>1248.5</ele>
        <time>2022-06-18T08:23:08Z</time>
      </trkpt>
      <trkpt lat="45.27757" lon="6.20871">
        <ele>1248.7</ele>
        <time>2022-06-18T08:23:09Z</time>
      </trkpt>
      <trkpt lat="45.27755" lon="6.20868">
        <ele>1249</ele>
        <time>2022-06-18T08:23:11Z</time>
      </trkpt>
      <trkpt lat="45.27752" lon="6.20865">
        <ele>1249.2</ele>
        <time>2022-06-18T08:23:12Z</time>
      </trkpt>
      <trkpt lat="45.2775" lon="6.20865">
        <ele>1249.4</ele>
        <time>2022-06-18T08:23:13Z</time>
      </trkpt>
      <trkpt lat="45.27746" lon="6.20863">
        <ele>1249.8</ele>
        <time>2022-06-18T08:23:15Z</time>
      </trkpt>
      <trkpt lat="45.27744" lon="6.2086">
        <ele>1250.1</ele>
        <time>2022-06-18T08:23:16Z</time>
      </trkpt>
      <trkpt lat="45.27741" lon="6.20857">
        <ele>1250.4</ele>
        <time>2022-06-18T08:23:17Z</time>
      </trkpt>
      <trkpt lat="45.2774" lon="6.20856">
        <ele>1250.6</ele>
        <time>2022-06-18T08:23:18Z</time>
      </trkpt>
      <trkpt lat="45.27737" lon="6.20852">
        <ele>1250.9</ele>
        <time>2022-06-18T08:23:19Z</time>
      </trkpt>
      <trkpt lat="45.27736" lon="6.20851">
        <ele>1251.1</ele>
        <time>2022-06-18T08:23:20Z</time>
      </trkpt>
      <trkpt lat="45.27733" lon="6.20847">
        <ele>1251.4</ele>
        <time>2022-06-18T08:23:22Z</time>
      </trkpt>
      <trkpt lat="45.2773" lon="6.20843">
        <ele>1251.9</ele>
        <time>2022-06-18T08:23:23Z</time>
      </trkpt>
      <trkpt lat="45.27727" lon="6.20841">
        <ele>1252.2</ele>
        <time>2022-06-18T08:23:24Z</time>
      </trkpt>
      <trkpt lat="45.27724" lon="6.20838">
        <ele>1252.6</ele>
        <time>2022-06-18T08:23:25Z</time>
      </trkpt>
      <trkpt lat="45.27723" lon="6.20837">
        <ele>1252.7</ele>
        <time>2022-06-18T08:23:26Z</time>
      </trkpt>
      <trkpt lat="45.2772" lon="6.20833">
        <ele>1253.1</ele>
        <time>2022-06-18T08:23:27Z</time>
      </trkpt>
      <trkpt lat="45.27719" lon="6.20832">
        <ele>1253.2</ele>
        <time>2022-06-18T08:23:28Z</time>
      </trkpt>
      <trkpt lat="45.27715" lon="6.20828">
        <ele>1253.7</ele>
        <time>2022-06-18T08:23:30Z</time>
      </trkpt>
      <trkpt lat="45.27711" lon="6.20826">
        <ele>1254.1</ele>
        <time>2022-06-18T08:23:31Z</time>
      </trkpt>
      <trkpt lat="45.2771" lon="6.20825">
        <ele>1254.3</ele>
        <time>2022-06-18T08:23:32Z</time>
      </trkpt>
      <trkpt lat="45.27708" lon="6.20822">
        <ele>1254.6</ele>
        <time>2022-06-18T08:23:33Z</time>
      </trkpt>
      <trkpt lat="45.27706" lon="6.20821">
        <ele>1254.8</ele>
        <time>2022-06-18T08:23:34Z</time>
      </trkpt>
      <trkpt lat="45.27704" lon="6.20818">
        <ele>1255.1</ele>
        <time>2022-06-18T08:23:35Z</time>
      </trkpt>
      <trkpt lat="45.27701" lon="6.20815">
        <ele>1255.5</ele>
        <time>2022-06-18T08:23:36Z</time>
      </trkpt>
      <trkpt lat="45.27698" lon="6.20813">
        <ele>1255.9</ele>
        <time>2022-06-18T08:23:37Z</time>
      </trkpt>
      <trkpt lat="45.27694" lon="6.2081">
        <ele>1256.4</ele>
        <time>2022-06-18T08:23:39Z</time>
      </trkpt>
      <trkpt lat="45.27691" lon="6.20806">
        <ele>1256.8</ele>
        <time>2022-06-18T08:23:40Z</time>
      </trkpt>
      <trkpt lat="45.2769" lon="6.20805">
        <ele>1256.9</ele>
        <time>2022-06-18T08:23:41Z</time>
      </trkpt>
      <trkpt lat="45.27687" lon="6.20803">
        <ele>1257.2</ele>
        <time>2022-06-18T08:23:42Z</time>
      </trkpt>
      <trkpt lat="45.27685" lon="6.20801">
        <ele>1257.6</ele>
        <time>2022-06-18T08:23:43Z</time>
      </trkpt>
      <trkpt lat="45.27682" lon="6.20798">
        <ele>1257.9</ele>
        <time>2022-06-18T08:23:44Z</time>
      </trkpt>
      <trkpt lat="45.27679" lon="6.20796">
        <ele>1258.2</ele>
        <time>2022-06-18T08:23:45Z</time>
      </trkpt>
      <trkpt lat="45.27677" lon="6.20793">
        <ele>1258.6</ele>
        <time>2022-06-18T08:23:46Z</time>
      </trkpt>
      <trkpt lat="45.27674" lon="6.2079">
        <ele>1259</ele>
        <time>2022-06-18T08:23:48Z</time>
      </trkpt>
      <trkpt lat="45.27672" lon="6.20787">
        <ele>1259.3</ele>
        <time>2022-06-18T08:23:49Z</time>
      </trkpt>
      <trkpt lat="45.27669" lon="6.20784">
        <ele>1259.7</ele>
        <time>2022-06-18T08:23:50Z</time>
      </trkpt>
      <trkpt lat="45.27668" lon="6.20781">
        <ele>1260</ele>
        <time>2022-06-18T08:23:51Z</time>
      </trkpt>
      <trkpt lat="45.27665" lon="6.20776">
        <ele>1260.5</ele>
        <time>2022-06-18T08:23:52Z</time>
      </trkpt>
      <trkpt lat="45.27664" lon="6.20775">
        <ele>1260.7</ele>
        <time>2022-06-18T08:23:53Z</time>
      </trkpt>
      <trkpt lat="45.27661" lon="6.20772">
        <ele>1261.1</ele>
        <time>2022-06-18T08:23:54Z</time>
      </trkpt>
      <trkpt lat="45.2766" lon="6.20771">
        <ele>1261.2</ele>
        <time>2022-06-18T08:23:55Z</time>
      </trkpt>
      <trkpt lat="45.27658" lon="6.20767">
        <ele>1261.6</ele>
        <time>2022-06-18T08:23:56Z</time>
      </trkpt>
      <trkpt lat="45.27655" lon="6.20764">
        <ele>1262</ele>
        <time>2022-06-18T08:23:57Z</time>
      </trkpt>
      <trkpt lat="45.27654" lon="6.20762">
        <ele>1262.2</ele>
        <time>2022-06-18T08:23:58Z</time>
      </trkpt>
      <trkpt lat="45.27652" lon="6.20758">
        <ele>1262.7</ele>
        <time>2022-06-18T08:24:00Z</time>
      </trkpt>
      <trkpt lat="45.27649" lon="6.20755">
        <ele>1263.2</ele>
        <time>2022-06-18T08:24:01Z</time>
      </trkpt>
      <trkpt lat="45.27646" lon="6.20752">
        <ele>1263.6</ele>
        <time>2022-06-18T08:24:02Z</time>
      </trkpt>
      <trkpt lat="45.27645" lon="6.20751">
        <ele>1263.7</ele>
        <time>2022-06-18T08:24:03Z</time>
      </trkpt>
      <trkpt lat="45.27643" lon="6.20748">
        <ele>1264.1</ele>
        <time>2022-06-18T08:24:04Z</time>
      </trkpt>
      <trkpt lat="45.27642" lon="6.20747">
        <ele>1264.3</ele>
        <time>2022-06-18T08:24:05Z</time>
      </trkpt>
      <trkpt lat="45.27639" lon="6.20745">
        <ele>1264.7</ele>
        <time>2022-06-18T08:24:06Z</time>
      </trkpt>
      <trkpt lat="45.27639" lon="6.20744">
        <ele>1264.9</ele>
        <time>2022-06-18T08:24:07Z</time>
      </trkpt>
      <trkpt lat="45.27635" lon="6.20742">
        <ele>1265.4</ele>
        <time>2022-06-18T08:24:08Z</time>
      </trkpt>
      <trkpt lat="45.27633" lon="6.20741">
        <ele>1265.7</ele>
        <time>2022-06-18T08:24:09Z</time>
      </trkpt>
      <trkpt lat="45.27631" lon="6.20739">
        <ele>1266.1</ele>
        <time>2022-06-18T08:24:10Z</time>
      </trkpt>
      <trkpt lat="45.27628" lon="6.20737">
        <ele>1266.5</ele>
        <time>2022-06-18T08:24:11Z</time>
      </trkpt>
      <trkpt lat="45.27626" lon="6.20735">
        <ele>1267</ele>
        <time>2022-06-18T08:24:12Z</time>
      </trkpt>
      <trkpt lat="45.27622" lon="6.20732">
        <ele>1267.6</ele>
        <time>2022-06-18T08:24:14Z</time>
      </trkpt>
      <trkpt lat="45.27619" lon="6.2073">
        <ele>1268</ele>
        <time>2022-06-18T08:24:15Z</time>
      </trkpt>
      <trkpt lat="45.27616" lon="6.20727">
        <ele>1268.5</ele>
        <time>2022-06-18T08:24:16Z</time>
      </trkpt>
      <trkpt lat="45.27615" lon="6.20725">
        <ele>1268.7</ele>
        <time>2022-06-18T08:24:17Z</time>
      </trkpt>
      <trkpt lat="45.27613" lon="6.20723">
        <ele>1269</ele>
        <time>2022-06-18T08:24:18Z</time>
      </trkpt>
      <trkpt lat="45.2761" lon="6.20719">
        <ele>1269.4</ele>
        <time>2022-06-18T08:24:20Z</time>
      </trkpt>
      <trkpt lat="45.27608" lon="6.20715">
        <ele>1269.6</ele>
        <time>2022-06-18T08:24:21Z</time>
      </trkpt>
      <trkpt lat="45.27606" lon="6.20711">
        <ele>1269.9</ele>
        <time>2022-06-18T08:24:22Z</time>
      </trkpt>
      <trkpt lat="45.27605" lon="6.20706">
        <ele>1270.1</ele>
        <time>2022-06-18T08:24:23Z</time>
      </trkpt>
      <trkpt lat="45.27603" lon="6.20701">
        <ele>1270.3</ele>
        <time>2022-06-18T08:24:24Z</time>
      </trkpt>
      <trkpt lat="45.27601" lon="6.20694">
        <ele>1270.5</ele>
        <time>2022-06-18T08:24:26Z</time>
      </trkpt>
      <trkpt lat="45.276" lon="6.20688">
        <ele>1270.7</ele>
        <time>2022-06-18T08:24:27Z</time>
      </trkpt>
      <trkpt lat="45.27597" lon="6.20681">
        <ele>1270.9</ele>
        <time>2022-06-18T08:24:29Z</time>
      </trkpt>
      <trkpt lat="45.27596" lon="6.20677">
        <ele>1271.1</ele>
        <time>2022-06-18T08:24:30Z</time>
      </trkpt>
      <trkpt lat="45.27595" lon="6.20673">
        <ele>1271.2</ele>
        <time>2022-06-18T08:24:31Z</time>
      </trkpt>
      <trkpt lat="45.27593" lon="6.20668">
        <ele>1271.4</ele>
        <time>2022-06-18T08:24:32Z</time>
      </trkpt>
      <trkpt lat="45.27593" lon="6.20667">
        <ele>1271.5</ele>
        <time>2022-06-18T08:24:33Z</time>
      </trkpt>
      <trkpt lat="45.27591" lon="6.20659">
        <ele>1271.8</ele>
        <time>2022-06-18T08:24:35Z</time>
      </trkpt>
      <trkpt lat="45.2759" lon="6.20655">
        <ele>1271.9</ele>
        <time>2022-06-18T08:24:36Z</time>
      </trkpt>
      <trkpt lat="45.27589" lon="6.20651">
        <ele>1272.1</ele>
        <time>2022-06-18T08:24:38Z</time>
      </trkpt>
      <trkpt lat="45.27588" lon="6.20647">
        <ele>1272.3</ele>
        <time>2022-06-18T08:24:39Z</time>
      </trkpt>
      <trkpt lat="45.27587" lon="6.20643">
        <ele>1272.5</ele>
        <time>2022-06-18T08:24:40Z</time>
      </trkpt>
      <trkpt lat="45.27587" lon="6.20637">
        <ele>1272.7</ele>
        <time>2022-06-18T08:24:41Z</time>
      </trkpt>
      <trkpt lat="45.27586" lon="6.20633">
        <ele>1272.9</ele>
        <time>2022-06-18T08:24:42Z</time>
      </trkpt>
      <trkpt lat="45.27586" lon="6.20629">
        <ele>1273.1</ele>
        <time>2022-06-18T08:24:43Z</time>
      </trkpt>
      <trkpt lat="45.27587" lon="6.20624">
        <ele>1273.4</ele>
        <time>2022-06-18T08:24:44Z</time>
      </trkpt>
      <trkpt lat="45.27587" lon="6.20619">
        <ele>1273.6</ele>
        <time>2022-06-18T08:24:45Z</time>
      </trkpt>
      <trkpt lat="45.27587" lon="6.20615">
        <ele>1273.8</ele>
        <time>2022-06-18T08:24:46Z</time>
      </trkpt>
      <trkpt lat="45.27588" lon="6.20609">
        <ele>1274.1</ele>
        <time>2022-06-18T08:24:48Z</time>
      </trkpt>
      <trkpt lat="45.27589" lon="6.20604">
        <ele>1274.3</ele>
        <time>2022-06-18T08:24:49Z</time>
      </trkpt>
      <trkpt lat="45.2759" lon="6.20596">
        <ele>1274.7</ele>
        <time>2022-06-18T08:24:51Z</time>
      </trkpt>
      <trkpt lat="45.2759" lon="6.20591">
        <ele>1275</ele>
        <time>2022-06-18T08:24:52Z</time>
      </trkpt>
      <trkpt lat="45.2759" lon="6.20586">
        <ele>1275.2</ele>
        <time>2022-06-18T08:24:53Z</time>
      </trkpt>
      <trkpt lat="45.27589" lon="6.2058">
        <ele>1275.5</ele>
        <time>2022-06-18T08:24:55Z</time>
      </trkpt>
      <trkpt lat="45.27588" lon="6.20576">
        <ele>1275.7</ele>
        <time>2022-06-18T08:24:56Z</time>
      </trkpt>
      <trkpt lat="45.27588" lon="6.20571">
        <ele>1276</ele>
        <time>2022-06-18T08:24:57Z</time>
      </trkpt>
      <trkpt lat="45.27586" lon="6.20565">
        <ele>1276.4</ele>
        <time>2022-06-18T08:24:59Z</time>
      </trkpt>
      <trkpt lat="45.27586" lon="6.2056">
        <ele>1276.6</ele>
        <time>2022-06-18T08:25:00Z</time>
      </trkpt>
      <trkpt lat="45.27586" lon="6.20557">
        <ele>1276.8</ele>
        <time>2022-06-18T08:25:01Z</time>
      </trkpt>
      <trkpt lat="45.27584" lon="6.20552">
        <ele>1277.1</ele>
        <time>2022-06-18T08:25:03Z</time>
      </trkpt>
      <trkpt lat="45.27583" lon="6.20549">
        <ele>1277.3</ele>
        <time>2022-06-18T08:25:04Z</time>
      </trkpt>
      <trkpt lat="45.2758" lon="6.20544">
        <ele>1277.6</ele>
        <time>2022-06-18T08:25:05Z</time>
      </trkpt>
      <trkpt lat="45.27577" lon="6.20541">
        <ele>1277.8</ele>
        <time>2022-06-18T08:25:06Z</time>
      </trkpt>
      <trkpt lat="45.27576" lon="6.20537">
        <ele>1278</ele>
        <time>2022-06-18T08:25:07Z</time>
      </trkpt>
      <trkpt lat="45.27573" lon="6.20533">
        <ele>1278.2</ele>
        <time>2022-06-18T08:25:08Z</time>
      </trkpt>
      <trkpt lat="45.27572" lon="6.2053">
        <ele>1278.4</ele>
        <time>2022-06-18T08:25:09Z</time>
      </trkpt>
      <trkpt lat="45.27569" lon="6.20524">
        <ele>1278.6</ele>
        <time>2022-06-18T08:25:11Z</time>
      </trkpt>
      <trkpt lat="45.27567" lon="6.20521">
        <ele>1278.8</ele>
        <time>2022-06-18T08:25:12Z</time>
      </trkpt>
      <trkpt lat="45.27565" lon="6.20518">
        <ele>1278.9</ele>
        <time>2022-06-18T08:25:13Z</time>
      </trkpt>
      <trkpt lat="45.27564" lon="6.20515">
        <ele>1279.1</ele>
        <time>2022-06-18T08:25:14Z</time>
      </trkpt>
      <trkpt lat="45.27563" lon="6.20514">
        <ele>1279.1</ele>
        <time>2022-06-18T08:25:15Z</time>
      </trkpt>
      <trkpt lat="45.27562" lon="6.20512">
        <ele>1279.2</ele>
        <time>2022-06-18T08:25:16Z</time>
      </trkpt>
      <trkpt lat="45.27561" lon="6.20511">
        <ele>1279.3</ele>
        <time>2022-06-18T08:25:17Z</time>
      </trkpt>
      <trkpt lat="45.27559" lon="6.20509">
        <ele>1279.4</ele>
        <time>2022-06-18T08:25:18Z</time>
      </trkpt>
      <trkpt lat="45.27556" lon="6.20505">
        <ele>1279.5</ele>
        <time>2022-06-18T08:25:19Z</time>
      </trkpt>
      <trkpt lat="45.27555" lon="6.20503">
        <ele>1279.6</ele>
        <time>2022-06-18T08:25:20Z</time>
      </trkpt>
      <trkpt lat="45.27552" lon="6.205">
        <ele>1279.8</ele>
        <time>2022-06-18T08:25:22Z</time>
      </trkpt>
      <trkpt lat="45.2755" lon="6.20495">
        <ele>1280</ele>
        <time>2022-06-18T08:25:23Z</time>
      </trkpt>
      <trkpt lat="45.27548" lon="6.2049">
        <ele>1280.1</ele>
        <time>2022-06-18T08:25:24Z</time>
      </trkpt>
      <trkpt lat="45.27546" lon="6.20484">
        <ele>1280.4</ele>
        <time>2022-06-18T08:25:26Z</time>
      </trkpt>
      <trkpt lat="45.27542" lon="6.20478">
        <ele>1280.7</ele>
        <time>2022-06-18T08:25:27Z</time>
      </trkpt>
      <trkpt lat="45.2754" lon="6.20474">
        <ele>1280.9</ele>
        <time>2022-06-18T08:25:28Z</time>
      </trkpt>
      <trkpt lat="45.27537" lon="6.20467">
        <ele>1281.2</ele>
        <time>2022-06-18T08:25:30Z</time>
      </trkpt>
      <trkpt lat="45.27536" lon="6.20464">
        <ele>1281.4</ele>
        <time>2022-06-18T08:25:31Z</time>
      </trkpt>
      <trkpt lat="45.27534" lon="6.2046">
        <ele>1281.7</ele>
        <time>2022-06-18T08:25:32Z</time>
      </trkpt>
      <trkpt lat="45.27533" lon="6.20456">
        <ele>1282</ele>
        <time>2022-06-18T08:25:33Z</time>
      </trkpt>
      <trkpt lat="45.27531" lon="6.20451">
        <ele>1282.4</ele>
        <time>2022-06-18T08:25:34Z</time>
      </trkpt>
      <trkpt lat="45.2753" lon="6.2045">
        <ele>1282.5</ele>
        <time>2022-06-18T08:25:35Z</time>
      </trkpt>
      <trkpt lat="45.27528" lon="6.20446">
        <ele>1282.8</ele>
        <time>2022-06-18T08:25:36Z</time>
      </trkpt>
      <trkpt lat="45.27528" lon="6.20444">
        <ele>1282.9</ele>
        <time>2022-06-18T08:25:37Z</time>
      </trkpt>
      <trkpt lat="45.27526" lon="6.2044">
        <ele>1283.3</ele>
        <time>2022-06-18T08:25:38Z</time>
      </trkpt>
      <trkpt lat="45.27525" lon="6.20436">
        <ele>1283.5</ele>
        <time>2022-06-18T08:25:39Z</time>
      </trkpt>
      <trkpt lat="45.27524" lon="6.20433">
        <ele>1283.8</ele>
        <time>2022-06-18T08:25:40Z</time>
      </trkpt>
      <trkpt lat="45.27521" lon="6.20429">
        <ele>1284.2</ele>
        <time>2022-06-18T08:25:41Z</time>
      </trkpt>
      <trkpt lat="45.2752" lon="6.20427">
        <ele>1284.3</ele>
        <time>2022-06-18T08:25:42Z</time>
      </trkpt>
      <trkpt lat="45.27519" lon="6.20423">
        <ele>1284.6</ele>
        <time>2022-06-18T08:25:43Z</time>
      </trkpt>
      <trkpt lat="45.27518" lon="6.20418">
        <ele>1284.9</ele>
        <time>2022-06-18T08:25:44Z</time>
      </trkpt>
      <trkpt lat="45.27516" lon="6.20415">
        <ele>1285.2</ele>
        <time>2022-06-18T08:25:45Z</time>
      </trkpt>
      <trkpt lat="45.27514" lon="6.20412">
        <ele>1285.6</ele>
        <time>2022-06-18T08:25:46Z</time>
      </trkpt>
      <trkpt lat="45.27512" lon="6.20408">
        <ele>1285.9</ele>
        <time>2022-06-18T08:25:47Z</time>
      </trkpt>
      <trkpt lat="45.2751" lon="6.20404">
        <ele>1286.3</ele>
        <time>2022-06-18T08:25:48Z</time>
      </trkpt>
      <trkpt lat="45.27507" lon="6.20401">
        <ele>1286.6</ele>
        <time>2022-06-18T08:25:49Z</time>
      </trkpt>
      <trkpt lat="45.27505" lon="6.20398">
        <ele>1286.9</ele>
        <time>2022-06-18T08:25:50Z</time>
      </trkpt>
      <trkpt lat="45.27503" lon="6.20395">
        <ele>1287.2</ele>
        <time>2022-06-18T08:25:51Z</time>
      </trkpt>
      <trkpt lat="45.27501" lon="6.20391">
        <ele>1287.6</ele>
        <time>2022-06-18T08:25:52Z</time>
      </trkpt>
      <trkpt lat="45.275" lon="6.20388">
        <ele>1287.9</ele>
        <time>2022-06-18T08:25:53Z</time>
      </trkpt>
      <trkpt lat="45.27497" lon="6.20383">
        <ele>1288.3</ele>
        <time>2022-06-18T08:25:54Z</time>
      </trkpt>
      <trkpt lat="45.27496" lon="6.20381">
        <ele>1288.5</ele>
        <time>2022-06-18T08:25:55Z</time>
      </trkpt>
      <trkpt lat="45.27495" lon="6.20378">
        <ele>1288.8</ele>
        <time>2022-06-18T08:25:56Z</time>
      </trkpt>
      <trkpt lat="45.27493" lon="6.20374">
        <ele>1289.1</ele>
        <time>2022-06-18T08:25:57Z</time>
      </trkpt>
      <trkpt lat="45.27491" lon="6.2037">
        <ele>1289.5</ele>
        <time>2022-06-18T08:25:58Z</time>
      </trkpt>
      <trkpt lat="45.2749" lon="6.20366">
        <ele>1289.8</ele>
        <time>2022-06-18T08:25:59Z</time>
      </trkpt>
      <trkpt lat="45.27488" lon="6.20362">
        <ele>1290.1</ele>
        <time>2022-06-18T08:26:00Z</time>
      </trkpt>
      <trkpt lat="45.27485" lon="6.20357">
        <ele>1290.7</ele>
        <time>2022-06-18T08:26:02Z</time>
      </trkpt>
      <trkpt lat="45.27483" lon="6.20354">
        <ele>1291</ele>
        <time>2022-06-18T08:26:03Z</time>
      </trkpt>
      <trkpt lat="45.2748" lon="6.20349">
        <ele>1291.6</ele>
        <time>2022-06-18T08:26:05Z</time>
      </trkpt>
      <trkpt lat="45.27479" lon="6.20347">
        <ele>1291.7</ele>
        <time>2022-06-18T08:26:06Z</time>
      </trkpt>
      <trkpt lat="45.27478" lon="6.20345">
        <ele>1291.9</ele>
        <time>2022-06-18T08:26:07Z</time>
      </trkpt>
      <trkpt lat="45.27476" lon="6.20341">
        <ele>1292.3</ele>
        <time>2022-06-18T08:26:08Z</time>
      </trkpt>
      <trkpt lat="45.27474" lon="6.20336">
        <ele>1292.7</ele>
        <time>2022-06-18T08:26:09Z</time>
      </trkpt>
      <trkpt lat="45.27473" lon="6.20334">
        <ele>1292.9</ele>
        <time>2022-06-18T08:26:10Z</time>
      </trkpt>
      <trkpt lat="45.27472" lon="6.20331">
        <ele>1293.2</ele>
        <time>2022-06-18T08:26:11Z</time>
      </trkpt>
      <trkpt lat="45.2747" lon="6.20327">
        <ele>1293.6</ele>
        <time>2022-06-18T08:26:13Z</time>
      </trkpt>
      <trkpt lat="45.27469" lon="6.20322">
        <ele>1294</ele>
        <time>2022-06-18T08:26:14Z</time>
      </trkpt>
      <trkpt lat="45.27467" lon="6.20319">
        <ele>1294.4</ele>
        <time>2022-06-18T08:26:15Z</time>
      </trkpt>
      <trkpt lat="45.27466" lon="6.20315">
        <ele>1294.8</ele>
        <time>2022-06-18T08:26:16Z</time>
      </trkpt>
      <trkpt lat="45.27464" lon="6.2031">
        <ele>1295.2</ele>
        <time>2022-06-18T08:26:18Z</time>
      </trkpt>
      <trkpt lat="45.27461" lon="6.20306">
        <ele>1295.7</ele>
        <time>2022-06-18T08:26:19Z</time>
      </trkpt>
      <trkpt lat="45.27459" lon="6.20301">
        <ele>1296.2</ele>
        <time>2022-06-18T08:26:21Z</time>
      </trkpt>
      <trkpt lat="45.27458" lon="6.20299">
        <ele>1296.4</ele>
        <time>2022-06-18T08:26:22Z</time>
      </trkpt>
      <trkpt lat="45.27457" lon="6.20296">
        <ele>1296.7</ele>
        <time>2022-06-18T08:26:23Z</time>
      </trkpt>
      <trkpt lat="45.27455" lon="6.20294">
        <ele>1297</ele>
        <time>2022-06-18T08:26:25Z</time>
      </trkpt>
      <trkpt lat="45.27453" lon="6.20291">
        <ele>1297.3</ele>
        <time>2022-06-18T08:26:26Z</time>
      </trkpt>
      <trkpt lat="45.27451" lon="6.20288">
        <ele>1297.7</ele>
        <time>2022-06-18T08:26:27Z</time>
      </trkpt>
      <trkpt lat="45.27448" lon="6.20286">
        <ele>1298.1</ele>
        <time>2022-06-18T08:26:28Z</time>
      </trkpt>
      <trkpt lat="45.27447" lon="6.20285">
        <ele>1298.3</ele>
        <time>2022-06-18T08:26:29Z</time>
      </trkpt>
      <trkpt lat="45.27444" lon="6.20283">
        <ele>1298.6</ele>
        <time>2022-06-18T08:26:30Z</time>
      </trkpt>
      <trkpt lat="45.27441" lon="6.20281">
        <ele>1299.1</ele>
        <time>2022-06-18T08:26:31Z</time>
      </trkpt>
      <trkpt lat="45.27437" lon="6.20277">
        <ele>1299.6</ele>
        <time>2022-06-18T08:26:33Z</time>
      </trkpt>
      <trkpt lat="45.27433" lon="6.20274">
        <ele>1300.2</ele>
        <time>2022-06-18T08:26:34Z</time>
      </trkpt>
      <trkpt lat="45.27428" lon="6.2027">
        <ele>1300.8</ele>
        <time>2022-06-18T08:26:35Z</time>
      </trkpt>
      <trkpt lat="45.27424" lon="6.20267">
        <ele>1301.2</ele>
        <time>2022-06-18T08:26:36Z</time>
      </trkpt>
      <trkpt lat="45.27418" lon="6.20261">
        <ele>1302</ele>
        <time>2022-06-18T08:26:38Z</time>
      </trkpt>
      <trkpt lat="45.27416" lon="6.20258">
        <ele>1302.4</ele>
        <time>2022-06-18T08:26:39Z</time>
      </trkpt>
      <trkpt lat="45.27413" lon="6.20254">
        <ele>1302.8</ele>
        <time>2022-06-18T08:26:40Z</time>
      </trkpt>
      <trkpt lat="45.27411" lon="6.20251">
        <ele>1303.1</ele>
        <time>2022-06-18T08:26:41Z</time>
      </trkpt>
      <trkpt lat="45.27408" lon="6.20248">
        <ele>1303.5</ele>
        <time>2022-06-18T08:26:43Z</time>
      </trkpt>
      <trkpt lat="45.27405" lon="6.20244">
        <ele>1303.8</ele>
        <time>2022-06-18T08:26:44Z</time>
      </trkpt>
      <trkpt lat="45.27403" lon="6.20241">
        <ele>1304</ele>
        <time>2022-06-18T08:26:45Z</time>
      </trkpt>
      <trkpt lat="45.27402" lon="6.20238">
        <ele>1304.3</ele>
        <time>2022-06-18T08:26:46Z</time>
      </trkpt>
      <trkpt lat="45.27398" lon="6.20234">
        <ele>1304.7</ele>
        <time>2022-06-18T08:26:47Z</time>
      </trkpt>
      <trkpt lat="45.27397" lon="6.20232">
        <ele>1304.9</ele>
        <time>2022-06-18T08:26:48Z</time>
      </trkpt>
      <trkpt lat="45.27394" lon="6.20228">
        <ele>1305.3</ele>
        <time>2022-06-18T08:26:50Z</time>
      </trkpt>
      <trkpt lat="45.27391" lon="6.20225">
        <ele>1305.7</ele>
        <time>2022-06-18T08:26:51Z</time>
      </trkpt>
      <trkpt lat="45.27388" lon="6.20222">
        <ele>1306.2</ele>
        <time>2022-06-18T08:26:53Z</time>
      </trkpt>
      <trkpt lat="45.27384" lon="6.20218">
        <ele>1306.6</ele>
        <time>2022-06-18T08:26:54Z</time>
      </trkpt>
      <trkpt lat="45.27382" lon="6.20215">
        <ele>1307</ele>
        <time>2022-06-18T08:26:55Z</time>
      </trkpt>
      <trkpt lat="45.2738" lon="6.20212">
        <ele>1307.3</ele>
        <time>2022-06-18T08:26:56Z</time>
      </trkpt>
      <trkpt lat="45.27378" lon="6.20208">
        <ele>1307.8</ele>
        <time>2022-06-18T08:26:58Z</time>
      </trkpt>
      <trkpt lat="45.27376" lon="6.20205">
        <ele>1308.1</ele>
        <time>2022-06-18T08:26:59Z</time>
      </trkpt>
      <trkpt lat="45.27373" lon="6.20202">
        <ele>1308.6</ele>
        <time>2022-06-18T08:27:00Z</time>
      </trkpt>
      <trkpt lat="45.2737" lon="6.20198">
        <ele>1309.1</ele>
        <time>2022-06-18T08:27:01Z</time>
      </trkpt>
      <trkpt lat="45.27366" lon="6.20194">
        <ele>1309.9</ele>
        <time>2022-06-18T08:27:03Z</time>
      </trkpt>
      <trkpt lat="45.27364" lon="6.20191">
        <ele>1310.3</ele>
        <time>2022-06-18T08:27:04Z</time>
      </trkpt>
      <trkpt lat="45.27362" lon="6.20187">
        <ele>1310.7</ele>
        <time>2022-06-18T08:27:05Z</time>
      </trkpt>
      <trkpt lat="45.27361" lon="6.20186">
        <ele>1310.9</ele>
        <time>2022-06-18T08:27:06Z</time>
      </trkpt>
      <trkpt lat="45.27358" lon="6.20182">
        <ele>1311.5</ele>
        <time>2022-06-18T08:27:07Z</time>
      </trkpt>
      <trkpt lat="45.27356" lon="6.2018">
        <ele>1311.8</ele>
        <time>2022-06-18T08:27:08Z</time>
      </trkpt>
      <trkpt lat="45.27353" lon="6.20176">
        <ele>1312.3</ele>
        <time>2022-06-18T08:27:10Z</time>
      </trkpt>
      <trkpt lat="45.27351" lon="6.20173">
        <ele>1312.7</ele>
        <time>2022-06-18T08:27:11Z</time>
      </trkpt>
      <trkpt lat="45.27347" lon="6.20171">
        <ele>1313.2</ele>
        <time>2022-06-18T08:27:12Z</time>
      </trkpt>
      <trkpt lat="45.27345" lon="6.20171">
        <ele>1313.4</ele>
        <time>2022-06-18T08:27:13Z</time>
      </trkpt>
      <trkpt lat="45.27345" lon="6.20172">
        <ele>1313.6</ele>
        <time>2022-06-18T08:27:14Z</time>
      </trkpt>
      <trkpt lat="45.27341" lon="6.20173">
        <ele>1314</ele>
        <time>2022-06-18T08:27:15Z</time>
      </trkpt>
      <trkpt lat="45.2734" lon="6.20174">
        <ele>1314.2</ele>
        <time>2022-06-18T08:27:16Z</time>
      </trkpt>
      <trkpt lat="45.27335" lon="6.20177">
        <ele>1314.8</ele>
        <time>2022-06-18T08:27:18Z</time>
      </trkpt>
      <trkpt lat="45.27332" lon="6.2018">
        <ele>1315.1</ele>
        <time>2022-06-18T08:27:19Z</time>
      </trkpt>
      <trkpt lat="45.2733" lon="6.20182">
        <ele>1315.4</ele>
        <time>2022-06-18T08:27:20Z</time>
      </trkpt>
      <trkpt lat="45.27327" lon="6.20185">
        <ele>1315.7</ele>
        <time>2022-06-18T08:27:22Z</time>
      </trkpt>
      <trkpt lat="45.27324" lon="6.20187">
        <ele>1316.1</ele>
        <time>2022-06-18T08:27:23Z</time>
      </trkpt>
      <trkpt lat="45.27321" lon="6.20189">
        <ele>1316.4</ele>
        <time>2022-06-18T08:27:24Z</time>
      </trkpt>
      <trkpt lat="45.27318" lon="6.20189">
        <ele>1316.6</ele>
        <time>2022-06-18T08:27:25Z</time>
      </trkpt>
      <trkpt lat="45.27314" lon="6.20188">
        <ele>1317</ele>
        <time>2022-06-18T08:27:27Z</time>
      </trkpt>
      <trkpt lat="45.2731" lon="6.20186">
        <ele>1317.3</ele>
        <time>2022-06-18T08:27:28Z</time>
      </trkpt>
      <trkpt lat="45.27306" lon="6.20184">
        <ele>1317.7</ele>
        <time>2022-06-18T08:27:30Z</time>
      </trkpt>
      <trkpt lat="45.27303" lon="6.20182">
        <ele>1318</ele>
        <time>2022-06-18T08:27:31Z</time>
      </trkpt>
      <trkpt lat="45.273" lon="6.20181">
        <ele>1318.3</ele>
        <time>2022-06-18T08:27:32Z</time>
      </trkpt>
      <trkpt lat="45.27297" lon="6.2018">
        <ele>1318.6</ele>
        <time>2022-06-18T08:27:33Z</time>
      </trkpt>
      <trkpt lat="45.27294" lon="6.20179">
        <ele>1318.8</ele>
        <time>2022-06-18T08:27:34Z</time>
      </trkpt>
      <trkpt lat="45.27291" lon="6.20177">
        <ele>1319.2</ele>
        <time>2022-06-18T08:27:35Z</time>
      </trkpt>
      <trkpt lat="45.27289" lon="6.20177">
        <ele>1319.3</ele>
        <time>2022-06-18T08:27:36Z</time>
      </trkpt>
      <trkpt lat="45.27286" lon="6.20175">
        <ele>1319.7</ele>
        <time>2022-06-18T08:27:37Z</time>
      </trkpt>
      <trkpt lat="45.27284" lon="6.20174">
        <ele>1319.8</ele>
        <time>2022-06-18T08:27:38Z</time>
      </trkpt>
      <trkpt lat="45.27282" lon="6.20172">
        <ele>1320.1</ele>
        <time>2022-06-18T08:27:39Z</time>
      </trkpt>
      <trkpt lat="45.27278" lon="6.2017">
        <ele>1320.5</ele>
        <time>2022-06-18T08:27:40Z</time>
      </trkpt>
      <trkpt lat="45.27277" lon="6.20169">
        <ele>1320.6</ele>
        <time>2022-06-18T08:27:41Z</time>
      </trkpt>
      <trkpt lat="45.27274" lon="6.20165">
        <ele>1320.9</ele>
        <time>2022-06-18T08:27:42Z</time>
      </trkpt>
      <trkpt lat="45.27272" lon="6.20161">
        <ele>1321.3</ele>
        <time>2022-06-18T08:27:43Z</time>
      </trkpt>
      <trkpt lat="45.2727" lon="6.20159">
        <ele>1321.5</ele>
        <time>2022-06-18T08:27:44Z</time>
      </trkpt>
      <trkpt lat="45.27269" lon="6.20156">
        <ele>1321.7</ele>
        <time>2022-06-18T08:27:46Z</time>
      </trkpt>
      <trkpt lat="45.27267" lon="6.20152">
        <ele>1322</ele>
        <time>2022-06-18T08:27:47Z</time>
      </trkpt>
      <trkpt lat="45.27266" lon="6.20149">
        <ele>1322.3</ele>
        <time>2022-06-18T08:27:48Z</time>
      </trkpt>
      <trkpt lat="45.27265" lon="6.20145">
        <ele>1322.5</ele>
        <time>2022-06-18T08:27:49Z</time>
      </trkpt>
      <trkpt lat="45.27263" lon="6.2014">
        <ele>1322.9</ele>
        <time>2022-06-18T08:27:51Z</time>
      </trkpt>
      <trkpt lat="45.27261" lon="6.20135">
        <ele>1323.2</ele>
        <time>2022-06-18T08:27:52Z</time>
      </trkpt>
      <trkpt lat="45.2726" lon="6.20132">
        <ele>1323.3</ele>
        <time>2022-06-18T08:27:53Z</time>
      </trkpt>
      <trkpt lat="45.27258" lon="6.20127">
        <ele>1323.7</ele>
        <time>2022-06-18T08:27:55Z</time>
      </trkpt>
      <trkpt lat="45.27256" lon="6.20122">
        <ele>1324</ele>
        <time>2022-06-18T08:27:56Z</time>
      </trkpt>
      <trkpt lat="45.27254" lon="6.20116">
        <ele>1324.3</ele>
        <time>2022-06-18T08:27:58Z</time>
      </trkpt>
      <trkpt lat="45.27253" lon="6.20113">
        <ele>1324.5</ele>
        <time>2022-06-18T08:27:59Z</time>
      </trkpt>
      <trkpt lat="45.27251" lon="6.20109">
        <ele>1324.8</ele>
        <time>2022-06-18T08:28:00Z</time>
      </trkpt>
      <trkpt lat="45.27249" lon="6.20104">
        <ele>1325.1</ele>
        <time>2022-06-18T08:28:02Z</time>
      </trkpt>
      <trkpt lat="45.27247" lon="6.201">
        <ele>1325.4</ele>
        <time>2022-06-18T08:28:03Z</time>
      </trkpt>
      <trkpt lat="45.27245" lon="6.20096">
        <ele>1325.7</ele>
        <time>2022-06-18T08:28:04Z</time>
      </trkpt>
      <trkpt lat="45.27244" lon="6.20095">
        <ele>1325.7</ele>
        <time>2022-06-18T08:28:05Z</time>
      </trkpt>
      <trkpt lat="45.27243" lon="6.20093">
        <ele>1326</ele>
        <time>2022-06-18T08:28:06Z</time>
      </trkpt>
      <trkpt lat="45.27242" lon="6.20091">
        <ele>1326.1</ele>
        <time>2022-06-18T08:28:08Z</time>
      </trkpt>
      <trkpt lat="45.27241" lon="6.20089">
        <ele>1326.2</ele>
        <time>2022-06-18T08:28:09Z</time>
      </trkpt>
      <trkpt lat="45.2724" lon="6.20088">
        <ele>1326.4</ele>
        <time>2022-06-18T08:28:10Z</time>
      </trkpt>
      <trkpt lat="45.27238" lon="6.20084">
        <ele>1326.7</ele>
        <time>2022-06-18T08:28:11Z</time>
      </trkpt>
      <trkpt lat="45.27237" lon="6.20083">
        <ele>1326.8</ele>
        <time>2022-06-18T08:28:12Z</time>
      </trkpt>
      <trkpt lat="45.27236" lon="6.2008">
        <ele>1327</ele>
        <time>2022-06-18T08:28:13Z</time>
      </trkpt>
      <trkpt lat="45.27234" lon="6.20078">
        <ele>1327.2</ele>
        <time>2022-06-18T08:28:14Z</time>
      </trkpt>
      <trkpt lat="45.27233" lon="6.20075">
        <ele>1327.5</ele>
        <time>2022-06-18T08:28:16Z</time>
      </trkpt>
      <trkpt lat="45.27231" lon="6.20071">
        <ele>1327.9</ele>
        <time>2022-06-18T08:28:17Z</time>
      </trkpt>
      <trkpt lat="45.27228" lon="6.20067">
        <ele>1328.4</ele>
        <time>2022-06-18T08:28:18Z</time>
      </trkpt>
      <trkpt lat="45.2722" lon="6.20056">
        <ele>1329.8</ele>
        <time>2022-06-18T08:28:21Z</time>
      </trkpt>
      <trkpt lat="45.27217" lon="6.20052">
        <ele>1330.3</ele>
        <time>2022-06-18T08:28:22Z</time>
      </trkpt>
      <trkpt lat="45.27213" lon="6.20048">
        <ele>1330.9</ele>
        <time>2022-06-18T08:28:24Z</time>
      </trkpt>
      <trkpt lat="45.27211" lon="6.20046">
        <ele>1331.3</ele>
        <time>2022-06-18T08:28:25Z</time>
      </trkpt>
      <trkpt lat="45.27208" lon="6.20043">
        <ele>1331.8</ele>
        <time>2022-06-18T08:28:26Z</time>
      </trkpt>
      <trkpt lat="45.27205" lon="6.20038">
        <ele>1332.5</ele>
        <time>2022-06-18T08:28:28Z</time>
      </trkpt>
      <trkpt lat="45.27202" lon="6.20036">
        <ele>1332.9</ele>
        <time>2022-06-18T08:28:29Z</time>
      </trkpt>
      <trkpt lat="45.272" lon="6.20034">
        <ele>1333.3</ele>
        <time>2022-06-18T08:28:30Z</time>
      </trkpt>
      <trkpt lat="45.27196" lon="6.20033">
        <ele>1333.9</ele>
        <time>2022-06-18T08:28:32Z</time>
      </trkpt>
      <trkpt lat="45.27192" lon="6.20033">
        <ele>1334.4</ele>
        <time>2022-06-18T08:28:33Z</time>
      </trkpt>
      <trkpt lat="45.27189" lon="6.20034">
        <ele>1334.8</ele>
        <time>2022-06-18T08:28:34Z</time>
      </trkpt>
      <trkpt lat="45.27186" lon="6.20034">
        <ele>1335.1</ele>
        <time>2022-06-18T08:28:35Z</time>
      </trkpt>
      <trkpt lat="45.27183" lon="6.20034">
        <ele>1335.5</ele>
        <time>2022-06-18T08:28:36Z</time>
      </trkpt>
      <trkpt lat="45.2718" lon="6.20035">
        <ele>1335.9</ele>
        <time>2022-06-18T08:28:37Z</time>
      </trkpt>
      <trkpt lat="45.27177" lon="6.20035">
        <ele>1336.2</ele>
        <time>2022-06-18T08:28:38Z</time>
      </trkpt>
      <trkpt lat="45.27172" lon="6.20036">
        <ele>1336.7</ele>
        <time>2022-06-18T08:28:40Z</time>
      </trkpt>
      <trkpt lat="45.27168" lon="6.20038">
        <ele>1337.1</ele>
        <time>2022-06-18T08:28:41Z</time>
      </trkpt>
      <trkpt lat="45.27166" lon="6.2004">
        <ele>1337.4</ele>
        <time>2022-06-18T08:28:42Z</time>
      </trkpt>
      <trkpt lat="45.27163" lon="6.20043">
        <ele>1337.7</ele>
        <time>2022-06-18T08:28:44Z</time>
      </trkpt>
      <trkpt lat="45.2716" lon="6.20045">
        <ele>1338</ele>
        <time>2022-06-18T08:28:45Z</time>
      </trkpt>
      <trkpt lat="45.27158" lon="6.20049">
        <ele>1338.3</ele>
        <time>2022-06-18T08:28:46Z</time>
      </trkpt>
      <trkpt lat="45.27155" lon="6.20053">
        <ele>1338.7</ele>
        <time>2022-06-18T08:28:47Z</time>
      </trkpt>
      <trkpt lat="45.27153" lon="6.20057">
        <ele>1339.1</ele>
        <time>2022-06-18T08:28:49Z</time>
      </trkpt>
      <trkpt lat="45.27151" lon="6.20061">
        <ele>1339.5</ele>
        <time>2022-06-18T08:28:50Z</time>
      </trkpt>
      <trkpt lat="45.27148" lon="6.20065">
        <ele>1339.9</ele>
        <time>2022-06-18T08:28:52Z</time>
      </trkpt>
      <trkpt lat="45.27145" lon="6.2007">
        <ele>1340.5</ele>
        <time>2022-06-18T08:28:53Z</time>
      </trkpt>
      <trkpt lat="45.27143" lon="6.20073">
        <ele>1340.9</ele>
        <time>2022-06-18T08:28:54Z</time>
      </trkpt>
      <trkpt lat="45.2714" lon="6.20077">
        <ele>1341.5</ele>
        <time>2022-06-18T08:28:56Z</time>
      </trkpt>
      <trkpt lat="45.27137" lon="6.2008">
        <ele>1342.1</ele>
        <time>2022-06-18T08:28:57Z</time>
      </trkpt>
      <trkpt lat="45.27135" lon="6.20082">
        <ele>1342.5</ele>
        <time>2022-06-18T08:28:58Z</time>
      </trkpt>
      <trkpt lat="45.27131" lon="6.20085">
        <ele>1343.2</ele>
        <time>2022-06-18T08:29:00Z</time>
      </trkpt>
      <trkpt lat="45.27128" lon="6.20086">
        <ele>1343.6</ele>
        <time>2022-06-18T08:29:01Z</time>
      </trkpt>
      <trkpt lat="45.27125" lon="6.20086">
        <ele>1344</ele>
        <time>2022-06-18T08:29:02Z</time>
      </trkpt>
      <trkpt lat="45.27122" lon="6.20084">
        <ele>1344.3</ele>
        <time>2022-06-18T08:29:03Z</time>
      </trkpt>
      <trkpt lat="45.2712" lon="6.20083">
        <ele>1344.6</ele>
        <time>2022-06-18T08:29:04Z</time>
      </trkpt>
      <trkpt lat="45.27117" lon="6.20079">
        <ele>1345</ele>
        <time>2022-06-18T08:29:06Z</time>
      </trkpt>
      <trkpt lat="45.27115" lon="6.20077">
        <ele>1345.2</ele>
        <time>2022-06-18T08:29:07Z</time>
      </trkpt>
      <trkpt lat="45.27112" lon="6.20075">
        <ele>1345.4</ele>
        <time>2022-06-18T08:29:08Z</time>
      </trkpt>
      <trkpt lat="45.27109" lon="6.20071">
        <ele>1345.6</ele>
        <time>2022-06-18T08:29:09Z</time>
      </trkpt>
      <trkpt lat="45.27106" lon="6.20068">
        <ele>1345.8</ele>
        <time>2022-06-18T08:29:10Z</time>
      </trkpt>
      <trkpt lat="45.27105" lon="6.20067">
        <ele>1345.9</ele>
        <time>2022-06-18T08:29:11Z</time>
      </trkpt>
      <trkpt lat="45.27103" lon="6.20064">
        <ele>1346.1</ele>
        <time>2022-06-18T08:29:12Z</time>
      </trkpt>
      <trkpt lat="45.27101" lon="6.20061">
        <ele>1346.2</ele>
        <time>2022-06-18T08:29:13Z</time>
      </trkpt>
      <trkpt lat="45.27098" lon="6.20057">
        <ele>1346.5</ele>
        <time>2022-06-18T08:29:15Z</time>
      </trkpt>
      <trkpt lat="45.27096" lon="6.20055">
        <ele>1346.6</ele>
        <time>2022-06-18T08:29:16Z</time>
      </trkpt>
      <trkpt lat="45.27093" lon="6.20051">
        <ele>1346.8</ele>
        <time>2022-06-18T08:29:17Z</time>
      </trkpt>
      <trkpt lat="45.27092" lon="6.2005">
        <ele>1346.9</ele>
        <time>2022-06-18T08:29:18Z</time>
      </trkpt>
      <trkpt lat="45.2709" lon="6.20047">
        <ele>1347.1</ele>
        <time>2022-06-18T08:29:19Z</time>
      </trkpt>
      <trkpt lat="45.27086" lon="6.20044">
        <ele>1347.3</ele>
        <time>2022-06-18T08:29:20Z</time>
      </trkpt>
      <trkpt lat="45.27085" lon="6.20043">
        <ele>1347.4</ele>
        <time>2022-06-18T08:29:21Z</time>
      </trkpt>
      <trkpt lat="45.27083" lon="6.20041">
        <ele>1347.6</ele>
        <time>2022-06-18T08:29:22Z</time>
      </trkpt>
      <trkpt lat="45.27079" lon="6.20038">
        <ele>1347.9</ele>
        <time>2022-06-18T08:29:23Z</time>
      </trkpt>
      <trkpt lat="45.27078" lon="6.20037">
        <ele>1348</ele>
        <time>2022-06-18T08:29:24Z</time>
      </trkpt>
      <trkpt lat="45.27075" lon="6.20034">
        <ele>1348.4</ele>
        <time>2022-06-18T08:29:25Z</time>
      </trkpt>
      <trkpt lat="45.27074" lon="6.20032">
        <ele>1348.5</ele>
        <time>2022-06-18T08:29:26Z</time>
      </trkpt>
      <trkpt lat="45.27071" lon="6.20029">
        <ele>1348.8</ele>
        <time>2022-06-18T08:29:27Z</time>
      </trkpt>
      <trkpt lat="45.2707" lon="6.20027">
        <ele>1349</ele>
        <time>2022-06-18T08:29:28Z</time>
      </trkpt>
      <trkpt lat="45.27068" lon="6.20025">
        <ele>1349.3</ele>
        <time>2022-06-18T08:29:30Z</time>
      </trkpt>
      <trkpt lat="45.27065" lon="6.20023">
        <ele>1349.6</ele>
        <time>2022-06-18T08:29:31Z</time>
      </trkpt>
      <trkpt lat="45.27062" lon="6.20021">
        <ele>1349.9</ele>
        <time>2022-06-18T08:29:32Z</time>
      </trkpt>
      <trkpt lat="45.27059" lon="6.20019">
        <ele>1350.2</ele>
        <time>2022-06-18T08:29:33Z</time>
      </trkpt>
      <trkpt lat="45.27056" lon="6.20017">
        <ele>1350.6</ele>
        <time>2022-06-18T08:29:34Z</time>
      </trkpt>
      <trkpt lat="45.27055" lon="6.20017">
        <ele>1350.7</ele>
        <time>2022-06-18T08:29:35Z</time>
      </trkpt>
      <trkpt lat="45.2705" lon="6.20014">
        <ele>1351.2</ele>
        <time>2022-06-18T08:29:37Z</time>
      </trkpt>
      <trkpt lat="45.27049" lon="6.20013">
        <ele>1351.3</ele>
        <time>2022-06-18T08:29:38Z</time>
      </trkpt>
      <trkpt lat="45.27047" lon="6.20013">
        <ele>1351.5</ele>
        <time>2022-06-18T08:29:39Z</time>
      </trkpt>
      <trkpt lat="45.27045" lon="6.20012">
        <ele>1351.8</ele>
        <time>2022-06-18T08:29:40Z</time>
      </trkpt>
      <trkpt lat="45.27042" lon="6.20011">
        <ele>1352.1</ele>
        <time>2022-06-18T08:29:41Z</time>
      </trkpt>
      <trkpt lat="45.2704" lon="6.20011">
        <ele>1352.3</ele>
        <time>2022-06-18T08:29:42Z</time>
      </trkpt>
      <trkpt lat="45.27036" lon="6.20011">
        <ele>1352.6</ele>
        <time>2022-06-18T08:29:44Z</time>
      </trkpt>
      <trkpt lat="45.27032" lon="6.2001">
        <ele>1353</ele>
        <time>2022-06-18T08:29:45Z</time>
      </trkpt>
      <trkpt lat="45.27029" lon="6.2001">
        <ele>1353.3</ele>
        <time>2022-06-18T08:29:46Z</time>
      </trkpt>
      <trkpt lat="45.27026" lon="6.20009">
        <ele>1353.6</ele>
        <time>2022-06-18T08:29:47Z</time>
      </trkpt>
      <trkpt lat="45.27023" lon="6.20009">
        <ele>1353.9</ele>
        <time>2022-06-18T08:29:48Z</time>
      </trkpt>
      <trkpt lat="45.27019" lon="6.20008">
        <ele>1354.3</ele>
        <time>2022-06-18T08:29:50Z</time>
      </trkpt>
      <trkpt lat="45.27015" lon="6.20007">
        <ele>1354.7</ele>
        <time>2022-06-18T08:29:51Z</time>
      </trkpt>
      <trkpt lat="45.27014" lon="6.20007">
        <ele>1354.8</ele>
        <time>2022-06-18T08:29:52Z</time>
      </trkpt>
      <trkpt lat="45.27011" lon="6.20006">
        <ele>1355.1</ele>
        <time>2022-06-18T08:29:53Z</time>
      </trkpt>
      <trkpt lat="45.2701" lon="6.20006">
        <ele>1355.2</ele>
        <time>2022-06-18T08:29:54Z</time>
      </trkpt>
      <trkpt lat="45.27006" lon="6.20006">
        <ele>1355.6</ele>
        <time>2022-06-18T08:29:55Z</time>
      </trkpt>
      <trkpt lat="45.27005" lon="6.20006">
        <ele>1355.8</ele>
        <time>2022-06-18T08:29:56Z</time>
      </trkpt>
      <trkpt lat="45.27001" lon="6.20004">
        <ele>1356.2</ele>
        <time>2022-06-18T08:29:57Z</time>
      </trkpt>
      <trkpt lat="45.26999" lon="6.20003">
        <ele>1356.4</ele>
        <time>2022-06-18T08:29:58Z</time>
      </trkpt>
      <trkpt lat="45.26997" lon="6.20002">
        <ele>1356.7</ele>
        <time>2022-06-18T08:29:59Z</time>
      </trkpt>
      <trkpt lat="45.26992" lon="6.20001">
        <ele>1357.3</ele>
        <time>2022-06-18T08:30:01Z</time>
      </trkpt>
      <trkpt lat="45.26989" lon="6.2">
        <ele>1357.7</ele>
        <time>2022-06-18T08:30:02Z</time>
      </trkpt>
      <trkpt lat="45.26986" lon="6.2">
        <ele>1358</ele>
        <time>2022-06-18T08:30:03Z</time>
      </trkpt>
      <trkpt lat="45.26982" lon="6.19999">
        <ele>1358.5</ele>
        <time>2022-06-18T08:30:04Z</time>
      </trkpt>
      <trkpt lat="45.26981" lon="6.19999">
        <ele>1358.7</ele>
        <time>2022-06-18T08:30:05Z</time>
      </trkpt>
      <trkpt lat="45.26977" lon="6.19999">
        <ele>1359.2</ele>
        <time>2022-06-18T08:30:07Z</time>
      </trkpt>
      <trkpt lat="45.26973" lon="6.19997">
        <ele>1359.9</ele>
        <time>2022-06-18T08:30:08Z</time>
      </trkpt>
      <trkpt lat="45.26971" lon="6.19997">
        <ele>1360.2</ele>
        <time>2022-06-18T08:30:09Z</time>
      </trkpt>
      <trkpt lat="45.26967" lon="6.19995">
        <ele>1360.7</ele>
        <time>2022-06-18T08:30:11Z</time>
      </trkpt>
      <trkpt lat="45.26964" lon="6.19993">
        <ele>1361.3</ele>
        <time>2022-06-18T08:30:12Z</time>
      </trkpt>
      <trkpt lat="45.2696" lon="6.19991">
        <ele>1361.9</ele>
        <time>2022-06-18T08:30:14Z</time>
      </trkpt>
      <trkpt lat="45.26958" lon="6.19986">
        <ele>1362.5</ele>
        <time>2022-06-18T08:30:15Z</time>
      </trkpt>
      <trkpt lat="45.26957" lon="6.19981">
        <ele>1363</ele>
        <time>2022-06-18T08:30:16Z</time>
      </trkpt>
      <trkpt lat="45.26958" lon="6.19974">
        <ele>1363.7</ele>
        <time>2022-06-18T08:30:18Z</time>
      </trkpt>
      <trkpt lat="45.26961" lon="6.19969">
        <ele>1364.3</ele>
        <time>2022-06-18T08:30:19Z</time>
      </trkpt>
      <trkpt lat="45.26962" lon="6.19966">
        <ele>1364.6</ele>
        <time>2022-06-18T08:30:20Z</time>
      </trkpt>
      <trkpt lat="45.26966" lon="6.19962">
        <ele>1365.1</ele>
        <time>2022-06-18T08:30:22Z</time>
      </trkpt>
      <trkpt lat="45.26968" lon="6.1996">
        <ele>1365.4</ele>
        <time>2022-06-18T08:30:23Z</time>
      </trkpt>
      <trkpt lat="45.2697" lon="6.19958">
        <ele>1365.7</ele>
        <time>2022-06-18T08:30:24Z</time>
      </trkpt>
      <trkpt lat="45.26973" lon="6.19954">
        <ele>1366.2</ele>
        <time>2022-06-18T08:30:26Z</time>
      </trkpt>
      <trkpt lat="45.26975" lon="6.19951">
        <ele>1366.5</ele>
        <time>2022-06-18T08:30:27Z</time>
      </trkpt>
      <trkpt lat="45.26977" lon="6.19946">
        <ele>1366.9</ele>
        <time>2022-06-18T08:30:28Z</time>
      </trkpt>
      <trkpt lat="45.26977" lon="6.19941">
        <ele>1367.3</ele>
        <time>2022-06-18T08:30:30Z</time>
      </trkpt>
      <trkpt lat="45.26977" lon="6.19936">
        <ele>1367.6</ele>
        <time>2022-06-18T08:30:31Z</time>
      </trkpt>
      <trkpt lat="45.26976" lon="6.1993">
        <ele>1368</ele>
        <time>2022-06-18T08:30:32Z</time>
      </trkpt>
      <trkpt lat="45.26974" lon="6.19924">
        <ele>1368.4</ele>
        <time>2022-06-18T08:30:34Z</time>
      </trkpt>
      <trkpt lat="45.26973" lon="6.1992">
        <ele>1368.7</ele>
        <time>2022-06-18T08:30:35Z</time>
      </trkpt>
      <trkpt lat="45.2697" lon="6.19916">
        <ele>1369.1</ele>
        <time>2022-06-18T08:30:36Z</time>
      </trkpt>
      <trkpt lat="45.26967" lon="6.19911">
        <ele>1369.4</ele>
        <time>2022-06-18T08:30:37Z</time>
      </trkpt>
      <trkpt lat="45.26965" lon="6.1991">
        <ele>1369.6</ele>
        <time>2022-06-18T08:30:38Z</time>
      </trkpt>
      <trkpt lat="45.26963" lon="6.19907">
        <ele>1369.8</ele>
        <time>2022-06-18T08:30:39Z</time>
      </trkpt>
      <trkpt lat="45.26961" lon="6.19904">
        <ele>1370.1</ele>
        <time>2022-06-18T08:30:40Z</time>
      </trkpt>
      <trkpt lat="45.26958" lon="6.19901">
        <ele>1370.4</ele>
        <time>2022-06-18T08:30:42Z</time>
      </trkpt>
      <trkpt lat="45.26957" lon="6.19898">
        <ele>1370.7</ele>
        <time>2022-06-18T08:30:43Z</time>
      </trkpt>
      <trkpt lat="45.26954" lon="6.19893">
        <ele>1371.1</ele>
        <time>2022-06-18T08:30:44Z</time>
      </trkpt>
      <trkpt lat="45.26953" lon="6.19889">
        <ele>1371.4</ele>
        <time>2022-06-18T08:30:45Z</time>
      </trkpt>
      <trkpt lat="45.26951" lon="6.19884">
        <ele>1371.8</ele>
        <time>2022-06-18T08:30:46Z</time>
      </trkpt>
      <trkpt lat="45.2695" lon="6.19882">
        <ele>1371.9</ele>
        <time>2022-06-18T08:30:47Z</time>
      </trkpt>
      <trkpt lat="45.26949" lon="6.19878">
        <ele>1372.1</ele>
        <time>2022-06-18T08:30:48Z</time>
      </trkpt>
      <trkpt lat="45.26949" lon="6.19873">
        <ele>1372.5</ele>
        <time>2022-06-18T08:30:50Z</time>
      </trkpt>
      <trkpt lat="45.26948" lon="6.19868">
        <ele>1372.8</ele>
        <time>2022-06-18T08:30:51Z</time>
      </trkpt>
      <trkpt lat="45.26948" lon="6.19863">
        <ele>1373.2</ele>
        <time>2022-06-18T08:30:52Z</time>
      </trkpt>
      <trkpt lat="45.26947" lon="6.19859">
        <ele>1373.5</ele>
        <time>2022-06-18T08:30:53Z</time>
      </trkpt>
      <trkpt lat="45.26947" lon="6.19857">
        <ele>1373.6</ele>
        <time>2022-06-18T08:30:54Z</time>
      </trkpt>
      <trkpt lat="45.26946" lon="6.19853">
        <ele>1373.9</ele>
        <time>2022-06-18T08:30:55Z</time>
      </trkpt>
      <trkpt lat="45.26945" lon="6.19851">
        <ele>1374.1</ele>
        <time>2022-06-18T08:30:56Z</time>
      </trkpt>
      <trkpt lat="45.26942" lon="6.19846">
        <ele>1374.5</ele>
        <time>2022-06-18T08:30:58Z</time>
      </trkpt>
      <trkpt lat="45.2694" lon="6.19842">
        <ele>1374.9</ele>
        <time>2022-06-18T08:30:59Z</time>
      </trkpt>
      <trkpt lat="45.26939" lon="6.19841">
        <ele>1375.1</ele>
        <time>2022-06-18T08:31:00Z</time>
      </trkpt>
      <trkpt lat="45.26936" lon="6.19837">
        <ele>1375.6</ele>
        <time>2022-06-18T08:31:01Z</time>
      </trkpt>
      <trkpt lat="45.26935" lon="6.19836">
        <ele>1375.7</ele>
        <time>2022-06-18T08:31:02Z</time>
      </trkpt>
      <trkpt lat="45.26932" lon="6.19833">
        <ele>1376.2</ele>
        <time>2022-06-18T08:31:04Z</time>
      </trkpt>
      <trkpt lat="45.26931" lon="6.19829">
        <ele>1376.6</ele>
        <time>2022-06-18T08:31:05Z</time>
      </trkpt>
      <trkpt lat="45.26929" lon="6.19826">
        <ele>1376.9</ele>
        <time>2022-06-18T08:31:06Z</time>
      </trkpt>
      <trkpt lat="45.26928" lon="6.19822">
        <ele>1377.3</ele>
        <time>2022-06-18T08:31:08Z</time>
      </trkpt>
      <trkpt lat="45.26927" lon="6.19817">
        <ele>1377.9</ele>
        <time>2022-06-18T08:31:09Z</time>
      </trkpt>
      <trkpt lat="45.26926" lon="6.19813">
        <ele>1378.3</ele>
        <time>2022-06-18T08:31:10Z</time>
      </trkpt>
      <trkpt lat="45.26926" lon="6.19809">
        <ele>1378.8</ele>
        <time>2022-06-18T08:31:11Z</time>
      </trkpt>
      <trkpt lat="45.26926" lon="6.19807">
        <ele>1378.9</ele>
        <time>2022-06-18T08:31:12Z</time>
      </trkpt>
      <trkpt lat="45.26925" lon="6.19803">
        <ele>1379.4</ele>
        <time>2022-06-18T08:31:13Z</time>
      </trkpt>
      <trkpt lat="45.26924" lon="6.19801">
        <ele>1379.6</ele>
        <time>2022-06-18T08:31:14Z</time>
      </trkpt>
      <trkpt lat="45.26923" lon="6.19797">
        <ele>1380.1</ele>
        <time>2022-06-18T08:31:16Z</time>
      </trkpt>
      <trkpt lat="45.26923" lon="6.19796">
        <ele>1380.2</ele>
        <time>2022-06-18T08:31:17Z</time>
      </trkpt>
      <trkpt lat="45.26922" lon="6.19794">
        <ele>1380.5</ele>
        <time>2022-06-18T08:31:18Z</time>
      </trkpt>
      <trkpt lat="45.26921" lon="6.19792">
        <ele>1380.7</ele>
        <time>2022-06-18T08:31:19Z</time>
      </trkpt>
      <trkpt lat="45.26918" lon="6.1979">
        <ele>1381.2</ele>
        <time>2022-06-18T08:31:20Z</time>
      </trkpt>
      <trkpt lat="45.26914" lon="6.19789">
        <ele>1381.7</ele>
        <time>2022-06-18T08:31:21Z</time>
      </trkpt>
      <trkpt lat="45.2691" lon="6.19788">
        <ele>1382.2</ele>
        <time>2022-06-18T08:31:22Z</time>
      </trkpt>
      <trkpt lat="45.26904" lon="6.19788">
        <ele>1382.9</ele>
        <time>2022-06-18T08:31:24Z</time>
      </trkpt>
      <trkpt lat="45.26901" lon="6.19788">
        <ele>1383.2</ele>
        <time>2022-06-18T08:31:25Z</time>
      </trkpt>
      <trkpt lat="45.26897" lon="6.19789">
        <ele>1383.6</ele>
        <time>2022-06-18T08:31:26Z</time>
      </trkpt>
      <trkpt lat="45.26894" lon="6.19788">
        <ele>1383.8</ele>
        <time>2022-06-18T08:31:27Z</time>
      </trkpt>
      <trkpt lat="45.2689" lon="6.19789">
        <ele>1384.1</ele>
        <time>2022-06-18T08:31:29Z</time>
      </trkpt>
      <trkpt lat="45.26887" lon="6.1979">
        <ele>1384.3</ele>
        <time>2022-06-18T08:31:30Z</time>
      </trkpt>
      <trkpt lat="45.26884" lon="6.19791">
        <ele>1384.6</ele>
        <time>2022-06-18T08:31:31Z</time>
      </trkpt>
      <trkpt lat="45.26883" lon="6.19791">
        <ele>1384.7</ele>
        <time>2022-06-18T08:31:32Z</time>
      </trkpt>
      <trkpt lat="45.2688" lon="6.19792">
        <ele>1384.9</ele>
        <time>2022-06-18T08:31:33Z</time>
      </trkpt>
      <trkpt lat="45.26876" lon="6.19793">
        <ele>1385.2</ele>
        <time>2022-06-18T08:31:35Z</time>
      </trkpt>
      <trkpt lat="45.26872" lon="6.19792">
        <ele>1385.5</ele>
        <time>2022-06-18T08:31:36Z</time>
      </trkpt>
      <trkpt lat="45.26871" lon="6.19792">
        <ele>1385.6</ele>
        <time>2022-06-18T08:31:37Z</time>
      </trkpt>
      <trkpt lat="45.26867" lon="6.19793">
        <ele>1385.8</ele>
        <time>2022-06-18T08:31:38Z</time>
      </trkpt>
      <trkpt lat="45.26865" lon="6.19793">
        <ele>1385.9</ele>
        <time>2022-06-18T08:31:39Z</time>
      </trkpt>
      <trkpt lat="45.26862" lon="6.19793">
        <ele>1386.1</ele>
        <time>2022-06-18T08:31:41Z</time>
      </trkpt>
      <trkpt lat="45.2686" lon="6.19793">
        <ele>1386.4</ele>
        <time>2022-06-18T08:31:42Z</time>
      </trkpt>
      <trkpt lat="45.26857" lon="6.19792">
        <ele>1386.6</ele>
        <time>2022-06-18T08:31:43Z</time>
      </trkpt>
      <trkpt lat="45.26852" lon="6.19793">
        <ele>1387</ele>
        <time>2022-06-18T08:31:44Z</time>
      </trkpt>
      <trkpt lat="45.26849" lon="6.19793">
        <ele>1387.3</ele>
        <time>2022-06-18T08:31:45Z</time>
      </trkpt>
      <trkpt lat="45.26846" lon="6.19794">
        <ele>1387.6</ele>
        <time>2022-06-18T08:31:46Z</time>
      </trkpt>
      <trkpt lat="45.26843" lon="6.19794">
        <ele>1387.9</ele>
        <time>2022-06-18T08:31:47Z</time>
      </trkpt>
      <trkpt lat="45.2684" lon="6.19794">
        <ele>1388.3</ele>
        <time>2022-06-18T08:31:49Z</time>
      </trkpt>
      <trkpt lat="45.26837" lon="6.19794">
        <ele>1388.6</ele>
        <time>2022-06-18T08:31:50Z</time>
      </trkpt>
      <trkpt lat="45.26833" lon="6.19795">
        <ele>1389.1</ele>
        <time>2022-06-18T08:31:51Z</time>
      </trkpt>
      <trkpt lat="45.2683" lon="6.19795">
        <ele>1389.6</ele>
        <time>2022-06-18T08:31:52Z</time>
      </trkpt>
      <trkpt lat="45.26828" lon="6.19796">
        <ele>1389.9</ele>
        <time>2022-06-18T08:31:53Z</time>
      </trkpt>
      <trkpt lat="45.26823" lon="6.19796">
        <ele>1390.6</ele>
        <time>2022-06-18T08:31:55Z</time>
      </trkpt>
      <trkpt lat="45.2682" lon="6.19797">
        <ele>1391.2</ele>
        <time>2022-06-18T08:31:56Z</time>
      </trkpt>
      <trkpt lat="45.26816" lon="6.19796">
        <ele>1391.7</ele>
        <time>2022-06-18T08:31:58Z</time>
      </trkpt>
      <trkpt lat="45.26813" lon="6.19795">
        <ele>1392.3</ele>
        <time>2022-06-18T08:31:59Z</time>
      </trkpt>
      <trkpt lat="45.26811" lon="6.19794">
        <ele>1392.5</ele>
        <time>2022-06-18T08:32:00Z</time>
      </trkpt>
      <trkpt lat="45.26808" lon="6.19792">
        <ele>1393.2</ele>
        <time>2022-06-18T08:32:01Z</time>
      </trkpt>
      <trkpt lat="45.26806" lon="6.19791">
        <ele>1393.4</ele>
        <time>2022-06-18T08:32:02Z</time>
      </trkpt>
      <trkpt lat="45.26804" lon="6.19788">
        <ele>1393.9</ele>
        <time>2022-06-18T08:32:03Z</time>
      </trkpt>
      <trkpt lat="45.26801" lon="6.19786">
        <ele>1394.4</ele>
        <time>2022-06-18T08:32:04Z</time>
      </trkpt>
      <trkpt lat="45.268" lon="6.19785">
        <ele>1394.6</ele>
        <time>2022-06-18T08:32:05Z</time>
      </trkpt>
      <trkpt lat="45.26798" lon="6.19782">
        <ele>1395.1</ele>
        <time>2022-06-18T08:32:06Z</time>
      </trkpt>
      <trkpt lat="45.26796" lon="6.19779">
        <ele>1395.5</ele>
        <time>2022-06-18T08:32:07Z</time>
      </trkpt>
      <trkpt lat="45.26794" lon="6.19774">
        <ele>1396</ele>
        <time>2022-06-18T08:32:08Z</time>
      </trkpt>
      <trkpt lat="45.26794" lon="6.19769">
        <ele>1396.6</ele>
        <time>2022-06-18T08:32:10Z</time>
      </trkpt>
      <trkpt lat="45.26794" lon="6.19765">
        <ele>1397</ele>
        <time>2022-06-18T08:32:11Z</time>
      </trkpt>
      <trkpt lat="45.26795" lon="6.19758">
        <ele>1397.6</ele>
        <time>2022-06-18T08:32:12Z</time>
      </trkpt>
      <trkpt lat="45.26795" lon="6.19753">
        <ele>1398.2</ele>
        <time>2022-06-18T08:32:14Z</time>
      </trkpt>
      <trkpt lat="45.26795" lon="6.19747">
        <ele>1398.7</ele>
        <time>2022-06-18T08:32:15Z</time>
      </trkpt>
      <trkpt lat="45.26795" lon="6.19742">
        <ele>1399.2</ele>
        <time>2022-06-18T08:32:16Z</time>
      </trkpt>
      <trkpt lat="45.26795" lon="6.19736">
        <ele>1399.7</ele>
        <time>2022-06-18T08:32:17Z</time>
      </trkpt>
      <trkpt lat="45.26795" lon="6.19734">
        <ele>1399.9</ele>
        <time>2022-06-18T08:32:18Z</time>
      </trkpt>
      <trkpt lat="45.26794" lon="6.1973">
        <ele>1400.3</ele>
        <time>2022-06-18T08:32:19Z</time>
      </trkpt>
      <trkpt lat="45.26793" lon="6.19727">
        <ele>1400.5</ele>
        <time>2022-06-18T08:32:20Z</time>
      </trkpt>
      <trkpt lat="45.26789" lon="6.19723">
        <ele>1400.9</ele>
        <time>2022-06-18T08:32:22Z</time>
      </trkpt>
      <trkpt lat="45.26786" lon="6.19721">
        <ele>1401.2</ele>
        <time>2022-06-18T08:32:23Z</time>
      </trkpt>
      <trkpt lat="45.26782" lon="6.19719">
        <ele>1401.5</ele>
        <time>2022-06-18T08:32:24Z</time>
      </trkpt>
      <trkpt lat="45.26779" lon="6.19718">
        <ele>1401.8</ele>
        <time>2022-06-18T08:32:25Z</time>
      </trkpt>
      <trkpt lat="45.26777" lon="6.19717">
        <ele>1402</ele>
        <time>2022-06-18T08:32:26Z</time>
      </trkpt>
      <trkpt lat="45.26774" lon="6.19716">
        <ele>1402.2</ele>
        <time>2022-06-18T08:32:27Z</time>
      </trkpt>
      <trkpt lat="45.2677" lon="6.19716">
        <ele>1402.5</ele>
        <time>2022-06-18T08:32:28Z</time>
      </trkpt>
      <trkpt lat="45.26769" lon="6.19716">
        <ele>1402.6</ele>
        <time>2022-06-18T08:32:29Z</time>
      </trkpt>
      <trkpt lat="45.26766" lon="6.19716">
        <ele>1402.8</ele>
        <time>2022-06-18T08:32:30Z</time>
      </trkpt>
      <trkpt lat="45.26763" lon="6.19717">
        <ele>1403</ele>
        <time>2022-06-18T08:32:31Z</time>
      </trkpt>
      <trkpt lat="45.26762" lon="6.19717">
        <ele>1403.1</ele>
        <time>2022-06-18T08:32:32Z</time>
      </trkpt>
      <trkpt lat="45.26758" lon="6.19718">
        <ele>1403.3</ele>
        <time>2022-06-18T08:32:33Z</time>
      </trkpt>
      <trkpt lat="45.26757" lon="6.19719">
        <ele>1403.4</ele>
        <time>2022-06-18T08:32:34Z</time>
      </trkpt>
      <trkpt lat="45.26753" lon="6.19719">
        <ele>1403.7</ele>
        <time>2022-06-18T08:32:35Z</time>
      </trkpt>
      <trkpt lat="45.26751" lon="6.19719">
        <ele>1403.8</ele>
        <time>2022-06-18T08:32:36Z</time>
      </trkpt>
      <trkpt lat="45.26746" lon="6.1972">
        <ele>1404.2</ele>
        <time>2022-06-18T08:32:38Z</time>
      </trkpt>
      <trkpt lat="45.26743" lon="6.19721">
        <ele>1404.4</ele>
        <time>2022-06-18T08:32:39Z</time>
      </trkpt>
      <trkpt lat="45.2674" lon="6.19721">
        <ele>1404.6</ele>
        <time>2022-06-18T08:32:40Z</time>
      </trkpt>
      <trkpt lat="45.26736" lon="6.1972">
        <ele>1405</ele>
        <time>2022-06-18T08:32:42Z</time>
      </trkpt>
      <trkpt lat="45.26734" lon="6.19719">
        <ele>1405.2</ele>
        <time>2022-06-18T08:32:43Z</time>
      </trkpt>
      <trkpt lat="45.26732" lon="6.19719">
        <ele>1405.3</ele>
        <time>2022-06-18T08:32:44Z</time>
      </trkpt>
      <trkpt lat="45.26729" lon="6.19719">
        <ele>1405.6</ele>
        <time>2022-06-18T08:32:45Z</time>
      </trkpt>
      <trkpt lat="45.26728" lon="6.19719">
        <ele>1405.8</ele>
        <time>2022-06-18T08:32:46Z</time>
      </trkpt>
      <trkpt lat="45.26726" lon="6.19718">
        <ele>1406</ele>
        <time>2022-06-18T08:32:47Z</time>
      </trkpt>
      <trkpt lat="45.26722" lon="6.19717">
        <ele>1406.3</ele>
        <time>2022-06-18T08:32:49Z</time>
      </trkpt>
      <trkpt lat="45.26718" lon="6.19715">
        <ele>1406.8</ele>
        <time>2022-06-18T08:32:50Z</time>
      </trkpt>
      <trkpt lat="45.26717" lon="6.19714">
        <ele>1407</ele>
        <time>2022-06-18T08:32:51Z</time>
      </trkpt>
      <trkpt lat="45.26714" lon="6.19713">
        <ele>1407.3</ele>
        <time>2022-06-18T08:32:52Z</time>
      </trkpt>
      <trkpt lat="45.26712" lon="6.19712">
        <ele>1407.6</ele>
        <time>2022-06-18T08:32:53Z</time>
      </trkpt>
      <trkpt lat="45.26708" lon="6.1971">
        <ele>1408</ele>
        <time>2022-06-18T08:32:55Z</time>
      </trkpt>
      <trkpt lat="45.26704" lon="6.19708">
        <ele>1408.5</ele>
        <time>2022-06-18T08:32:56Z</time>
      </trkpt>
      <trkpt lat="45.26703" lon="6.19707">
        <ele>1408.7</ele>
        <time>2022-06-18T08:32:57Z</time>
      </trkpt>
      <trkpt lat="45.26701" lon="6.19705">
        <ele>1409.1</ele>
        <time>2022-06-18T08:32:58Z</time>
      </trkpt>
      <trkpt lat="45.26699" lon="6.19703">
        <ele>1409.4</ele>
        <time>2022-06-18T08:32:59Z</time>
      </trkpt>
      <trkpt lat="45.26697" lon="6.19701">
        <ele>1409.8</ele>
        <time>2022-06-18T08:33:01Z</time>
      </trkpt>
      <trkpt lat="45.26694" lon="6.19698">
        <ele>1410.2</ele>
        <time>2022-06-18T08:33:02Z</time>
      </trkpt>
      <trkpt lat="45.26693" lon="6.19697">
        <ele>1410.3</ele>
        <time>2022-06-18T08:33:03Z</time>
      </trkpt>
      <trkpt lat="45.26692" lon="6.19695">
        <ele>1410.6</ele>
        <time>2022-06-18T08:33:04Z</time>
      </trkpt>
      <trkpt lat="45.26691" lon="6.19694">
        <ele>1410.8</ele>
        <time>2022-06-18T08:33:05Z</time>
      </trkpt>
      <trkpt lat="45.26689" lon="6.19689">
        <ele>1411.3</ele>
        <time>2022-06-18T08:33:06Z</time>
      </trkpt>
      <trkpt lat="45.26688" lon="6.19688">
        <ele>1411.5</ele>
        <time>2022-06-18T08:33:07Z</time>
      </trkpt>
      <trkpt lat="45.26687" lon="6.19685">
        <ele>1411.8</ele>
        <time>2022-06-18T08:33:08Z</time>
      </trkpt>
      <trkpt lat="45.26687" lon="6.19681">
        <ele>1412.2</ele>
        <time>2022-06-18T08:33:10Z</time>
      </trkpt>
      <trkpt lat="45.26688" lon="6.19677">
        <ele>1412.6</ele>
        <time>2022-06-18T08:33:11Z</time>
      </trkpt>
      <trkpt lat="45.26688" lon="6.19676">
        <ele>1412.8</ele>
        <time>2022-06-18T08:33:12Z</time>
      </trkpt>
      <trkpt lat="45.26689" lon="6.19675">
        <ele>1412.9</ele>
        <time>2022-06-18T08:33:13Z</time>
      </trkpt>
      <trkpt lat="45.26689" lon="6.1967">
        <ele>1413.4</ele>
        <time>2022-06-18T08:33:15Z</time>
      </trkpt>
      <trkpt lat="45.26688" lon="6.19664">
        <ele>1413.9</ele>
        <time>2022-06-18T08:33:16Z</time>
      </trkpt>
      <trkpt lat="45.26687" lon="6.1966">
        <ele>1414.3</ele>
        <time>2022-06-18T08:33:17Z</time>
      </trkpt>
      <trkpt lat="45.26685" lon="6.19654">
        <ele>1414.8</ele>
        <time>2022-06-18T08:33:19Z</time>
      </trkpt>
      <trkpt lat="45.26683" lon="6.19649">
        <ele>1415.2</ele>
        <time>2022-06-18T08:33:20Z</time>
      </trkpt>
      <trkpt lat="45.2668" lon="6.19645">
        <ele>1415.5</ele>
        <time>2022-06-18T08:33:21Z</time>
      </trkpt>
      <trkpt lat="45.26679" lon="6.19644">
        <ele>1415.6</ele>
        <time>2022-06-18T08:33:22Z</time>
      </trkpt>
      <trkpt lat="45.26675" lon="6.19642">
        <ele>1415.8</ele>
        <time>2022-06-18T08:33:24Z</time>
      </trkpt>
      <trkpt lat="45.26672" lon="6.19641">
        <ele>1415.9</ele>
        <time>2022-06-18T08:33:25Z</time>
      </trkpt>
      <trkpt lat="45.26668" lon="6.19639">
        <ele>1416.1</ele>
        <time>2022-06-18T08:33:26Z</time>
      </trkpt>
      <trkpt lat="45.26667" lon="6.19638">
        <ele>1416.2</ele>
        <time>2022-06-18T08:33:27Z</time>
      </trkpt>
      <trkpt lat="45.26664" lon="6.19638">
        <ele>1416.3</ele>
        <time>2022-06-18T08:33:28Z</time>
      </trkpt>
      <trkpt lat="45.26662" lon="6.19637">
        <ele>1416.3</ele>
        <time>2022-06-18T08:33:29Z</time>
      </trkpt>
      <trkpt lat="45.26659" lon="6.19636">
        <ele>1416.5</ele>
        <time>2022-06-18T08:33:31Z</time>
      </trkpt>
      <trkpt lat="45.26655" lon="6.19634">
        <ele>1416.6</ele>
        <time>2022-06-18T08:33:32Z</time>
      </trkpt>
      <trkpt lat="45.26653" lon="6.19633">
        <ele>1416.7</ele>
        <time>2022-06-18T08:33:33Z</time>
      </trkpt>
      <trkpt lat="45.26649" lon="6.19632">
        <ele>1416.8</ele>
        <time>2022-06-18T08:33:34Z</time>
      </trkpt>
      <trkpt lat="45.26648" lon="6.19632">
        <ele>1416.9</ele>
        <time>2022-06-18T08:33:35Z</time>
      </trkpt>
      <trkpt lat="45.26645" lon="6.19631">
        <ele>1417</ele>
        <time>2022-06-18T08:33:37Z</time>
      </trkpt>
      <trkpt lat="45.26642" lon="6.19629">
        <ele>1417.2</ele>
        <time>2022-06-18T08:33:38Z</time>
      </trkpt>
      <trkpt lat="45.26639" lon="6.19629">
        <ele>1417.3</ele>
        <time>2022-06-18T08:33:39Z</time>
      </trkpt>
      <trkpt lat="45.26635" lon="6.19628">
        <ele>1417.5</ele>
        <time>2022-06-18T08:33:40Z</time>
      </trkpt>
      <trkpt lat="45.26631" lon="6.19627">
        <ele>1417.6</ele>
        <time>2022-06-18T08:33:41Z</time>
      </trkpt>
      <trkpt lat="45.2663" lon="6.19626">
        <ele>1417.7</ele>
        <time>2022-06-18T08:33:42Z</time>
      </trkpt>
      <trkpt lat="45.26628" lon="6.19626">
        <ele>1417.8</ele>
        <time>2022-06-18T08:33:43Z</time>
      </trkpt>
      <trkpt lat="45.26625" lon="6.19625">
        <ele>1418</ele>
        <time>2022-06-18T08:33:45Z</time>
      </trkpt>
      <trkpt lat="45.26621" lon="6.19624">
        <ele>1418.2</ele>
        <time>2022-06-18T08:33:46Z</time>
      </trkpt>
      <trkpt lat="45.26617" lon="6.19622">
        <ele>1418.4</ele>
        <time>2022-06-18T08:33:48Z</time>
      </trkpt>
      <trkpt lat="45.26614" lon="6.19621">
        <ele>1418.6</ele>
        <time>2022-06-18T08:33:49Z</time>
      </trkpt>
      <trkpt lat="45.26611" lon="6.19621">
        <ele>1418.8</ele>
        <time>2022-06-18T08:33:50Z</time>
      </trkpt>
      <trkpt lat="45.26608" lon="6.1962">
        <ele>1419</ele>
        <time>2022-06-18T08:33:51Z</time>
      </trkpt>
      <trkpt lat="45.26604" lon="6.19618">
        <ele>1419.4</ele>
        <time>2022-06-18T08:33:53Z</time>
      </trkpt>
      <trkpt lat="45.26602" lon="6.19618">
        <ele>1419.5</ele>
        <time>2022-06-18T08:33:54Z</time>
      </trkpt>
      <trkpt lat="45.26601" lon="6.19617">
        <ele>1419.6</ele>
        <time>2022-06-18T08:33:55Z</time>
      </trkpt>
      <trkpt lat="45.26598" lon="6.19616">
        <ele>1419.8</ele>
        <time>2022-06-18T08:33:56Z</time>
      </trkpt>
      <trkpt lat="45.26594" lon="6.19615">
        <ele>1420.1</ele>
        <time>2022-06-18T08:33:57Z</time>
      </trkpt>
      <trkpt lat="45.26593" lon="6.19614">
        <ele>1420.2</ele>
        <time>2022-06-18T08:33:58Z</time>
      </trkpt>
      <trkpt lat="45.2659" lon="6.19613">
        <ele>1420.4</ele>
        <time>2022-06-18T08:33:59Z</time>
      </trkpt>
      <trkpt lat="45.26587" lon="6.19611">
        <ele>1420.6</ele>
        <time>2022-06-18T08:34:00Z</time>
      </trkpt>
      <trkpt lat="45.26584" lon="6.19609">
        <ele>1420.9</ele>
        <time>2022-06-18T08:34:02Z</time>
      </trkpt>
      <trkpt lat="45.26581" lon="6.19607">
        <ele>1421.1</ele>
        <time>2022-06-18T08:34:03Z</time>
      </trkpt>
      <trkpt lat="45.26578" lon="6.19605">
        <ele>1421.3</ele>
        <time>2022-06-18T08:34:04Z</time>
      </trkpt>
      <trkpt lat="45.26575" lon="6.19603">
        <ele>1421.5</ele>
        <time>2022-06-18T08:34:05Z</time>
      </trkpt>
      <trkpt lat="45.26573" lon="6.196">
        <ele>1421.8</ele>
        <time>2022-06-18T08:34:06Z</time>
      </trkpt>
      <trkpt lat="45.2657" lon="6.19599">
        <ele>1422</ele>
        <time>2022-06-18T08:34:07Z</time>
      </trkpt>
      <trkpt lat="45.26567" lon="6.19598">
        <ele>1422.2</ele>
        <time>2022-06-18T08:34:08Z</time>
      </trkpt>
      <trkpt lat="45.26563" lon="6.19597">
        <ele>1422.4</ele>
        <time>2022-06-18T08:34:09Z</time>
      </trkpt>
      <trkpt lat="45.26562" lon="6.19597">
        <ele>1422.5</ele>
        <time>2022-06-18T08:34:10Z</time>
      </trkpt>
      <trkpt lat="45.26559" lon="6.19599">
        <ele>1422.7</ele>
        <time>2022-06-18T08:34:11Z</time>
      </trkpt>
      <trkpt lat="45.26555" lon="6.19601">
        <ele>1422.9</ele>
        <time>2022-06-18T08:34:12Z</time>
      </trkpt>
      <trkpt lat="45.26553" lon="6.19602">
        <ele>1423</ele>
        <time>2022-06-18T08:34:13Z</time>
      </trkpt>
      <trkpt lat="45.26551" lon="6.19605">
        <ele>1423.2</ele>
        <time>2022-06-18T08:34:14Z</time>
      </trkpt>
      <trkpt lat="45.26549" lon="6.19609">
        <ele>1423</ele>
        <time>2022-06-18T08:34:15Z</time>
      </trkpt>
      <trkpt lat="45.26546" lon="6.19618">
        <ele>1422.5</ele>
        <time>2022-06-18T08:34:17Z</time>
      </trkpt>
      <trkpt lat="45.26544" lon="6.19623">
        <ele>1422.2</ele>
        <time>2022-06-18T08:34:18Z</time>
      </trkpt>
      <trkpt lat="45.26542" lon="6.19628">
        <ele>1421.9</ele>
        <time>2022-06-18T08:34:19Z</time>
      </trkpt>
      <trkpt lat="45.2654" lon="6.19633">
        <ele>1421.7</ele>
        <time>2022-06-18T08:34:21Z</time>
      </trkpt>
      <trkpt lat="45.26538" lon="6.19638">
        <ele>1421.4</ele>
        <time>2022-06-18T08:34:22Z</time>
      </trkpt>
      <trkpt lat="45.26536" lon="6.19643">
        <ele>1421.1</ele>
        <time>2022-06-18T08:34:23Z</time>
      </trkpt>
      <trkpt lat="45.26534" lon="6.19649">
        <ele>1420.9</ele>
        <time>2022-06-18T08:34:24Z</time>
      </trkpt>
      <trkpt lat="45.26532" lon="6.19652">
        <ele>1421</ele>
        <time>2022-06-18T08:34:25Z</time>
      </trkpt>
      <trkpt lat="45.2653" lon="6.19656">
        <ele>1421.2</ele>
        <time>2022-06-18T08:34:26Z</time>
      </trkpt>
      <trkpt lat="45.26528" lon="6.1966">
        <ele>1421.4</ele>
        <time>2022-06-18T08:34:27Z</time>
      </trkpt>
      <trkpt lat="45.26525" lon="6.19667">
        <ele>1421.7</ele>
        <time>2022-06-18T08:34:29Z</time>
      </trkpt>
      <trkpt lat="45.26523" lon="6.19674">
        <ele>1422</ele>
        <time>2022-06-18T08:34:30Z</time>
      </trkpt>
      <trkpt lat="45.26523" lon="6.19681">
        <ele>1422.4</ele>
        <time>2022-06-18T08:34:31Z</time>
      </trkpt>
      <trkpt lat="45.26524" lon="6.19688">
        <ele>1422.8</ele>
        <time>2022-06-18T08:34:32Z</time>
      </trkpt>
      <trkpt lat="45.26527" lon="6.19695">
        <ele>1423.3</ele>
        <time>2022-06-18T08:34:34Z</time>
      </trkpt>
      <trkpt lat="45.2653" lon="6.197">
        <ele>1423.7</ele>
        <time>2022-06-18T08:34:35Z</time>
      </trkpt>
      <trkpt lat="45.26534" lon="6.19705">
        <ele>1424.4</ele>
        <time>2022-06-18T08:34:36Z</time>
      </trkpt>
      <trkpt lat="45.26537" lon="6.19707">
        <ele>1424.9</ele>
        <time>2022-06-18T08:34:37Z</time>
      </trkpt>
      <trkpt lat="45.26541" lon="6.1971">
        <ele>1425.4</ele>
        <time>2022-06-18T08:34:38Z</time>
      </trkpt>
      <trkpt lat="45.26544" lon="6.19713">
        <ele>1426</ele>
        <time>2022-06-18T08:34:39Z</time>
      </trkpt>
      <trkpt lat="45.26546" lon="6.19716">
        <ele>1426.5</ele>
        <time>2022-06-18T08:34:40Z</time>
      </trkpt>
      <trkpt lat="45.26549" lon="6.1972">
        <ele>1427.2</ele>
        <time>2022-06-18T08:34:41Z</time>
      </trkpt>
      <trkpt lat="45.2655" lon="6.19722">
        <ele>1427.5</ele>
        <time>2022-06-18T08:34:42Z</time>
      </trkpt>
      <trkpt lat="45.26552" lon="6.19726">
        <ele>1428</ele>
        <time>2022-06-18T08:34:43Z</time>
      </trkpt>
      <trkpt lat="45.26552" lon="6.1973">
        <ele>1428.4</ele>
        <time>2022-06-18T08:34:44Z</time>
      </trkpt>
      <trkpt lat="45.2655" lon="6.19735">
        <ele>1428.9</ele>
        <time>2022-06-18T08:34:45Z</time>
      </trkpt>
      <trkpt lat="45.26544" lon="6.19738">
        <ele>1429.3</ele>
        <time>2022-06-18T08:34:47Z</time>
      </trkpt>
      <trkpt lat="45.2654" lon="6.19735">
        <ele>1429.6</ele>
        <time>2022-06-18T08:34:48Z</time>
      </trkpt>
      <trkpt lat="45.26537" lon="6.19731">
        <ele>1429.7</ele>
        <time>2022-06-18T08:34:49Z</time>
      </trkpt>
      <trkpt lat="45.26534" lon="6.19726">
        <ele>1429.8</ele>
        <time>2022-06-18T08:34:50Z</time>
      </trkpt>
      <trkpt lat="45.26532" lon="6.19721">
        <ele>1429.9</ele>
        <time>2022-06-18T08:34:51Z</time>
      </trkpt>
      <trkpt lat="45.2653" lon="6.19715">
        <ele>1429.9</ele>
        <time>2022-06-18T08:34:53Z</time>
      </trkpt>
      <trkpt lat="45.26528" lon="6.19712">
        <ele>1429.9</ele>
        <time>2022-06-18T08:34:54Z</time>
      </trkpt>
      <trkpt lat="45.26524" lon="6.19708">
        <ele>1429.9</ele>
        <time>2022-06-18T08:34:55Z</time>
      </trkpt>
      <trkpt lat="45.26521" lon="6.19707">
        <ele>1429.9</ele>
        <time>2022-06-18T08:34:56Z</time>
      </trkpt>
      <trkpt lat="45.26518" lon="6.19706">
        <ele>1429.9</ele>
        <time>2022-06-18T08:34:57Z</time>
      </trkpt>
      <trkpt lat="45.26514" lon="6.19705">
        <ele>1429.9</ele>
        <time>2022-06-18T08:34:58Z</time>
      </trkpt>
      <trkpt lat="45.26511" lon="6.19705">
        <ele>1429.9</ele>
        <time>2022-06-18T08:34:59Z</time>
      </trkpt>
      <trkpt lat="45.26508" lon="6.19703">
        <ele>1429.9</ele>
        <time>2022-06-18T08:35:00Z</time>
      </trkpt>
      <trkpt lat="45.26505" lon="6.19702">
        <ele>1429.9</ele>
        <time>2022-06-18T08:35:02Z</time>
      </trkpt>
      <trkpt lat="45.26501" lon="6.19701">
        <ele>1430</ele>
        <time>2022-06-18T08:35:03Z</time>
      </trkpt>
      <trkpt lat="45.26499" lon="6.197">
        <ele>1430</ele>
        <time>2022-06-18T08:35:04Z</time>
      </trkpt>
      <trkpt lat="45.26496" lon="6.19697">
        <ele>1430.1</ele>
        <time>2022-06-18T08:35:05Z</time>
      </trkpt>
      <trkpt lat="45.26495" lon="6.19696">
        <ele>1430.1</ele>
        <time>2022-06-18T08:35:06Z</time>
      </trkpt>
      <trkpt lat="45.26492" lon="6.19694">
        <ele>1430.2</ele>
        <time>2022-06-18T08:35:07Z</time>
      </trkpt>
      <trkpt lat="45.26491" lon="6.19693">
        <ele>1430.2</ele>
        <time>2022-06-18T08:35:08Z</time>
      </trkpt>
      <trkpt lat="45.26488" lon="6.19691">
        <ele>1430.3</ele>
        <time>2022-06-18T08:35:09Z</time>
      </trkpt>
      <trkpt lat="45.26485" lon="6.19689">
        <ele>1430.4</ele>
        <time>2022-06-18T08:35:11Z</time>
      </trkpt>
      <trkpt lat="45.26482" lon="6.19687">
        <ele>1430.5</ele>
        <time>2022-06-18T08:35:12Z</time>
      </trkpt>
      <trkpt lat="45.26481" lon="6.19687">
        <ele>1430.6</ele>
        <time>2022-06-18T08:35:13Z</time>
      </trkpt>
      <trkpt lat="45.26478" lon="6.19685">
        <ele>1430.7</ele>
        <time>2022-06-18T08:35:15Z</time>
      </trkpt>
      <trkpt lat="45.26476" lon="6.19683">
        <ele>1430.8</ele>
        <time>2022-06-18T08:35:16Z</time>
      </trkpt>
      <trkpt lat="45.26473" lon="6.19681">
        <ele>1431</ele>
        <time>2022-06-18T08:35:18Z</time>
      </trkpt>
      <trkpt lat="45.2647" lon="6.1968">
        <ele>1431.1</ele>
        <time>2022-06-18T08:35:19Z</time>
      </trkpt>
      <trkpt lat="45.26468" lon="6.19679">
        <ele>1431.3</ele>
        <time>2022-06-18T08:35:20Z</time>
      </trkpt>
      <trkpt lat="45.26465" lon="6.19677">
        <ele>1431.4</ele>
        <time>2022-06-18T08:35:21Z</time>
      </trkpt>
      <trkpt lat="45.26462" lon="6.19675">
        <ele>1431.6</ele>
        <time>2022-06-18T08:35:22Z</time>
      </trkpt>
      <trkpt lat="45.26461" lon="6.19674">
        <ele>1431.7</ele>
        <time>2022-06-18T08:35:23Z</time>
      </trkpt>
      <trkpt lat="45.26458" lon="6.19672">
        <ele>1431.9</ele>
        <time>2022-06-18T08:35:25Z</time>
      </trkpt>
      <trkpt lat="45.26457" lon="6.19672">
        <ele>1432</ele>
        <time>2022-06-18T08:35:26Z</time>
      </trkpt>
      <trkpt lat="45.26455" lon="6.1967">
        <ele>1432.1</ele>
        <time>2022-06-18T08:35:27Z</time>
      </trkpt>
      <trkpt lat="45.26454" lon="6.19669">
        <ele>1432.2</ele>
        <time>2022-06-18T08:35:28Z</time>
      </trkpt>
      <trkpt lat="45.26453" lon="6.19668">
        <ele>1432.3</ele>
        <time>2022-06-18T08:35:29Z</time>
      </trkpt>
      <trkpt lat="45.2645" lon="6.19666">
        <ele>1432.5</ele>
        <time>2022-06-18T08:35:31Z</time>
      </trkpt>
      <trkpt lat="45.26447" lon="6.19664">
        <ele>1432.8</ele>
        <time>2022-06-18T08:35:32Z</time>
      </trkpt>
      <trkpt lat="45.26447" lon="6.19663">
        <ele>1432.8</ele>
        <time>2022-06-18T08:35:33Z</time>
      </trkpt>
      <trkpt lat="45.26443" lon="6.1966">
        <ele>1433.2</ele>
        <time>2022-06-18T08:35:34Z</time>
      </trkpt>
      <trkpt lat="45.26439" lon="6.19658">
        <ele>1433.5</ele>
        <time>2022-06-18T08:35:35Z</time>
      </trkpt>
      <trkpt lat="45.26433" lon="6.19655">
        <ele>1434.1</ele>
        <time>2022-06-18T08:35:37Z</time>
      </trkpt>
      <trkpt lat="45.26429" lon="6.19653">
        <ele>1434.5</ele>
        <time>2022-06-18T08:35:38Z</time>
      </trkpt>
      <trkpt lat="45.26425" lon="6.19651">
        <ele>1434.9</ele>
        <time>2022-06-18T08:35:39Z</time>
      </trkpt>
      <trkpt lat="45.26422" lon="6.19649">
        <ele>1435.2</ele>
        <time>2022-06-18T08:35:40Z</time>
      </trkpt>
      <trkpt lat="45.26419" lon="6.19647">
        <ele>1435.6</ele>
        <time>2022-06-18T08:35:41Z</time>
      </trkpt>
      <trkpt lat="45.26416" lon="6.19645">
        <ele>1435.9</ele>
        <time>2022-06-18T08:35:42Z</time>
      </trkpt>
      <trkpt lat="45.26413" lon="6.19643">
        <ele>1436.2</ele>
        <time>2022-06-18T08:35:43Z</time>
      </trkpt>
      <trkpt lat="45.2641" lon="6.19641">
        <ele>1436.6</ele>
        <time>2022-06-18T08:35:44Z</time>
      </trkpt>
      <trkpt lat="45.26409" lon="6.1964">
        <ele>1436.7</ele>
        <time>2022-06-18T08:35:45Z</time>
      </trkpt>
      <trkpt lat="45.26407" lon="6.19638">
        <ele>1437</ele>
        <time>2022-06-18T08:35:46Z</time>
      </trkpt>
      <trkpt lat="45.26404" lon="6.19636">
        <ele>1437.3</ele>
        <time>2022-06-18T08:35:48Z</time>
      </trkpt>
      <trkpt lat="45.26402" lon="6.19634">
        <ele>1437.7</ele>
        <time>2022-06-18T08:35:49Z</time>
      </trkpt>
      <trkpt lat="45.26399" lon="6.19631">
        <ele>1438.1</ele>
        <time>2022-06-18T08:35:50Z</time>
      </trkpt>
      <trkpt lat="45.26396" lon="6.19629">
        <ele>1438.5</ele>
        <time>2022-06-18T08:35:51Z</time>
      </trkpt>
      <trkpt lat="45.26394" lon="6.19628">
        <ele>1438.6</ele>
        <time>2022-06-18T08:35:52Z</time>
      </trkpt>
      <trkpt lat="45.26392" lon="6.19627">
        <ele>1439</ele>
        <time>2022-06-18T08:35:53Z</time>
      </trkpt>
      <trkpt lat="45.26388" lon="6.19625">
        <ele>1439.4</ele>
        <time>2022-06-18T08:35:55Z</time>
      </trkpt>
      <trkpt lat="45.26386" lon="6.19623">
        <ele>1439.7</ele>
        <time>2022-06-18T08:35:56Z</time>
      </trkpt>
      <trkpt lat="45.26383" lon="6.1962">
        <ele>1440.1</ele>
        <time>2022-06-18T08:35:57Z</time>
      </trkpt>
      <trkpt lat="45.2638" lon="6.19618">
        <ele>1440.4</ele>
        <time>2022-06-18T08:35:58Z</time>
      </trkpt>
      <trkpt lat="45.26378" lon="6.19616">
        <ele>1440.8</ele>
        <time>2022-06-18T08:35:59Z</time>
      </trkpt>
      <trkpt lat="45.26375" lon="6.19614">
        <ele>1441.1</ele>
        <time>2022-06-18T08:36:00Z</time>
      </trkpt>
      <trkpt lat="45.26372" lon="6.19612">
        <ele>1441.5</ele>
        <time>2022-06-18T08:36:02Z</time>
      </trkpt>
      <trkpt lat="45.26369" lon="6.19611">
        <ele>1441.9</ele>
        <time>2022-06-18T08:36:03Z</time>
      </trkpt>
      <trkpt lat="45.26366" lon="6.19609">
        <ele>1442.2</ele>
        <time>2022-06-18T08:36:04Z</time>
      </trkpt>
      <trkpt lat="45.26362" lon="6.19605">
        <ele>1442.8</ele>
        <time>2022-06-18T08:36:06Z</time>
      </trkpt>
      <trkpt lat="45.26359" lon="6.19604">
        <ele>1443.2</ele>
        <time>2022-06-18T08:36:07Z</time>
      </trkpt>
      <trkpt lat="45.26356" lon="6.19603">
        <ele>1443.7</ele>
        <time>2022-06-18T08:36:08Z</time>
      </trkpt>
      <trkpt lat="45.26353" lon="6.19602">
        <ele>1444.1</ele>
        <time>2022-06-18T08:36:09Z</time>
      </trkpt>
      <trkpt lat="45.26349" lon="6.196">
        <ele>1444.7</ele>
        <time>2022-06-18T08:36:11Z</time>
      </trkpt>
      <trkpt lat="45.26345" lon="6.19598">
        <ele>1445.2</ele>
        <time>2022-06-18T08:36:12Z</time>
      </trkpt>
      <trkpt lat="45.26344" lon="6.19598">
        <ele>1445.4</ele>
        <time>2022-06-18T08:36:13Z</time>
      </trkpt>
      <trkpt lat="45.26339" lon="6.19596">
        <ele>1446.2</ele>
        <time>2022-06-18T08:36:15Z</time>
      </trkpt>
      <trkpt lat="45.26337" lon="6.19595">
        <ele>1446.6</ele>
        <time>2022-06-18T08:36:16Z</time>
      </trkpt>
      <trkpt lat="45.26333" lon="6.19595">
        <ele>1447.1</ele>
        <time>2022-06-18T08:36:18Z</time>
      </trkpt>
      <trkpt lat="45.2633" lon="6.19594">
        <ele>1447.6</ele>
        <time>2022-06-18T08:36:19Z</time>
      </trkpt>
      <trkpt lat="45.26327" lon="6.19594">
        <ele>1448.2</ele>
        <time>2022-06-18T08:36:20Z</time>
      </trkpt>
      <trkpt lat="45.26324" lon="6.19594">
        <ele>1448.9</ele>
        <time>2022-06-18T08:36:21Z</time>
      </trkpt>
      <trkpt lat="45.2632" lon="6.19593">
        <ele>1449.6</ele>
        <time>2022-06-18T08:36:23Z</time>
      </trkpt>
      <trkpt lat="45.26318" lon="6.19592">
        <ele>1449.9</ele>
        <time>2022-06-18T08:36:24Z</time>
      </trkpt>
      <trkpt lat="45.26315" lon="6.19591">
        <ele>1450.6</ele>
        <time>2022-06-18T08:36:25Z</time>
      </trkpt>
      <trkpt lat="45.26312" lon="6.19589">
        <ele>1451.2</ele>
        <time>2022-06-18T08:36:27Z</time>
      </trkpt>
      <trkpt lat="45.26311" lon="6.19589">
        <ele>1451.4</ele>
        <time>2022-06-18T08:36:28Z</time>
      </trkpt>
      <trkpt lat="45.26309" lon="6.19586">
        <ele>1452.1</ele>
        <time>2022-06-18T08:36:30Z</time>
      </trkpt>
      <trkpt lat="45.26308" lon="6.19585">
        <ele>1452.3</ele>
        <time>2022-06-18T08:36:31Z</time>
      </trkpt>
      <trkpt lat="45.26305" lon="6.1958">
        <ele>1453.3</ele>
        <time>2022-06-18T08:36:33Z</time>
      </trkpt>
      <trkpt lat="45.26301" lon="6.19574">
        <ele>1454.5</ele>
        <time>2022-06-18T08:36:34Z</time>
      </trkpt>
      <trkpt lat="45.26297" lon="6.19569">
        <ele>1455.3</ele>
        <time>2022-06-18T08:36:35Z</time>
      </trkpt>
      <trkpt lat="45.26294" lon="6.19568">
        <ele>1455.8</ele>
        <time>2022-06-18T08:36:37Z</time>
      </trkpt>
      <trkpt lat="45.26289" lon="6.19568">
        <ele>1456.3</ele>
        <time>2022-06-18T08:36:38Z</time>
      </trkpt>
      <trkpt lat="45.26286" lon="6.19571">
        <ele>1456.5</ele>
        <time>2022-06-18T08:36:39Z</time>
      </trkpt>
      <trkpt lat="45.26285" lon="6.19574">
        <ele>1456.7</ele>
        <time>2022-06-18T08:36:40Z</time>
      </trkpt>
      <trkpt lat="45.26284" lon="6.19579">
        <ele>1456.8</ele>
        <time>2022-06-18T08:36:41Z</time>
      </trkpt>
      <trkpt lat="45.26283" lon="6.19583">
        <ele>1456.9</ele>
        <time>2022-06-18T08:36:42Z</time>
      </trkpt>
      <trkpt lat="45.26282" lon="6.19588">
        <ele>1457</ele>
        <time>2022-06-18T08:36:43Z</time>
      </trkpt>
      <trkpt lat="45.2628" lon="6.19594">
        <ele>1457</ele>
        <time>2022-06-18T08:36:45Z</time>
      </trkpt>
      <trkpt lat="45.26278" lon="6.19598">
        <ele>1457</ele>
        <time>2022-06-18T08:36:46Z</time>
      </trkpt>
      <trkpt lat="45.26276" lon="6.19601">
        <ele>1457</ele>
        <time>2022-06-18T08:36:47Z</time>
      </trkpt>
      <trkpt lat="45.26274" lon="6.19604">
        <ele>1457.1</ele>
        <time>2022-06-18T08:36:49Z</time>
      </trkpt>
      <trkpt lat="45.26271" lon="6.19608">
        <ele>1457.1</ele>
        <time>2022-06-18T08:36:50Z</time>
      </trkpt>
      <trkpt lat="45.26268" lon="6.19611">
        <ele>1457.1</ele>
        <time>2022-06-18T08:36:51Z</time>
      </trkpt>
      <trkpt lat="45.26267" lon="6.19613">
        <ele>1457.2</ele>
        <time>2022-06-18T08:36:52Z</time>
      </trkpt>
      <trkpt lat="45.26264" lon="6.19616">
        <ele>1457.2</ele>
        <time>2022-06-18T08:36:54Z</time>
      </trkpt>
      <trkpt lat="45.26261" lon="6.19618">
        <ele>1457.4</ele>
        <time>2022-06-18T08:36:55Z</time>
      </trkpt>
      <trkpt lat="45.26258" lon="6.1962">
        <ele>1457.5</ele>
        <time>2022-06-18T08:36:56Z</time>
      </trkpt>
      <trkpt lat="45.26255" lon="6.19622">
        <ele>1457.6</ele>
        <time>2022-06-18T08:36:57Z</time>
      </trkpt>
      <trkpt lat="45.26254" lon="6.19622">
        <ele>1457.7</ele>
        <time>2022-06-18T08:36:58Z</time>
      </trkpt>
      <trkpt lat="45.26251" lon="6.19624">
        <ele>1457.9</ele>
        <time>2022-06-18T08:36:59Z</time>
      </trkpt>
      <trkpt lat="45.2625" lon="6.19625">
        <ele>1457.9</ele>
        <time>2022-06-18T08:37:00Z</time>
      </trkpt>
      <trkpt lat="45.26246" lon="6.19627">
        <ele>1458.2</ele>
        <time>2022-06-18T08:37:01Z</time>
      </trkpt>
      <trkpt lat="45.26245" lon="6.19627">
        <ele>1458.3</ele>
        <time>2022-06-18T08:37:02Z</time>
      </trkpt>
      <trkpt lat="45.26242" lon="6.19629">
        <ele>1458.6</ele>
        <time>2022-06-18T08:37:04Z</time>
      </trkpt>
      <trkpt lat="45.26239" lon="6.1963">
        <ele>1458.9</ele>
        <time>2022-06-18T08:37:05Z</time>
      </trkpt>
      <trkpt lat="45.26235" lon="6.1963">
        <ele>1459.4</ele>
        <time>2022-06-18T08:37:06Z</time>
      </trkpt>
      <trkpt lat="45.26233" lon="6.1963">
        <ele>1459.6</ele>
        <time>2022-06-18T08:37:07Z</time>
      </trkpt>
      <trkpt lat="45.2623" lon="6.19633">
        <ele>1460.1</ele>
        <time>2022-06-18T08:37:09Z</time>
      </trkpt>
      <trkpt lat="45.26226" lon="6.19637">
        <ele>1460.7</ele>
        <time>2022-06-18T08:37:10Z</time>
      </trkpt>
      <trkpt lat="45.26225" lon="6.19639">
        <ele>1460.9</ele>
        <time>2022-06-18T08:37:11Z</time>
      </trkpt>
      <trkpt lat="45.26223" lon="6.19642">
        <ele>1461.3</ele>
        <time>2022-06-18T08:37:12Z</time>
      </trkpt>
      <trkpt lat="45.26219" lon="6.19646">
        <ele>1461.9</ele>
        <time>2022-06-18T08:37:14Z</time>
      </trkpt>
      <trkpt lat="45.26217" lon="6.19648">
        <ele>1462.3</ele>
        <time>2022-06-18T08:37:15Z</time>
      </trkpt>
      <trkpt lat="45.26213" lon="6.19651">
        <ele>1462.9</ele>
        <time>2022-06-18T08:37:16Z</time>
      </trkpt>
      <trkpt lat="45.26212" lon="6.19652">
        <ele>1463.1</ele>
        <time>2022-06-18T08:37:17Z</time>
      </trkpt>
      <trkpt lat="45.26209" lon="6.19653">
        <ele>1463.4</ele>
        <time>2022-06-18T08:37:18Z</time>
      </trkpt>
      <trkpt lat="45.26206" lon="6.19654">
        <ele>1463.8</ele>
        <time>2022-06-18T08:37:19Z</time>
      </trkpt>
      <trkpt lat="45.26205" lon="6.19653">
        <ele>1463.9</ele>
        <time>2022-06-18T08:37:20Z</time>
      </trkpt>
      <trkpt lat="45.262" lon="6.19653">
        <ele>1464.4</ele>
        <time>2022-06-18T08:37:22Z</time>
      </trkpt>
      <trkpt lat="45.26198" lon="6.19652">
        <ele>1464.6</ele>
        <time>2022-06-18T08:37:23Z</time>
      </trkpt>
      <trkpt lat="45.26194" lon="6.19651">
        <ele>1464.9</ele>
        <time>2022-06-18T08:37:24Z</time>
      </trkpt>
      <trkpt lat="45.26192" lon="6.19649">
        <ele>1465.1</ele>
        <time>2022-06-18T08:37:25Z</time>
      </trkpt>
      <trkpt lat="45.26189" lon="6.19646">
        <ele>1465.3</ele>
        <time>2022-06-18T08:37:26Z</time>
      </trkpt>
      <trkpt lat="45.26186" lon="6.19644">
        <ele>1465.5</ele>
        <time>2022-06-18T08:37:27Z</time>
      </trkpt>
      <trkpt lat="45.26184" lon="6.1964">
        <ele>1465.6</ele>
        <time>2022-06-18T08:37:29Z</time>
      </trkpt>
      <trkpt lat="45.26182" lon="6.19636">
        <ele>1465.7</ele>
        <time>2022-06-18T08:37:30Z</time>
      </trkpt>
      <trkpt lat="45.26181" lon="6.19635">
        <ele>1465.7</ele>
        <time>2022-06-18T08:37:31Z</time>
      </trkpt>
      <trkpt lat="45.26181" lon="6.19631">
        <ele>1465.8</ele>
        <time>2022-06-18T08:37:32Z</time>
      </trkpt>
      <trkpt lat="45.2618" lon="6.19629">
        <ele>1465.8</ele>
        <time>2022-06-18T08:37:34Z</time>
      </trkpt>
      <trkpt lat="45.26179" lon="6.19625">
        <ele>1465.8</ele>
        <time>2022-06-18T08:37:35Z</time>
      </trkpt>
      <trkpt lat="45.26179" lon="6.19623">
        <ele>1465.9</ele>
        <time>2022-06-18T08:37:36Z</time>
      </trkpt>
      <trkpt lat="45.26178" lon="6.19619">
        <ele>1465.9</ele>
        <time>2022-06-18T08:37:38Z</time>
      </trkpt>
      <trkpt lat="45.26177" lon="6.19616">
        <ele>1465.9</ele>
        <time>2022-06-18T08:37:39Z</time>
      </trkpt>
      <trkpt lat="45.26176" lon="6.19613">
        <ele>1466</ele>
        <time>2022-06-18T08:37:41Z</time>
      </trkpt>
      <trkpt lat="45.26175" lon="6.19607">
        <ele>1466</ele>
        <time>2022-06-18T08:37:42Z</time>
      </trkpt>
      <trkpt lat="45.26174" lon="6.19605">
        <ele>1466.1</ele>
        <time>2022-06-18T08:37:43Z</time>
      </trkpt>
      <trkpt lat="45.26172" lon="6.19601">
        <ele>1466.1</ele>
        <time>2022-06-18T08:37:44Z</time>
      </trkpt>
      <trkpt lat="45.26172" lon="6.19599">
        <ele>1466.2</ele>
        <time>2022-06-18T08:37:45Z</time>
      </trkpt>
      <trkpt lat="45.26171" lon="6.19595">
        <ele>1466.3</ele>
        <time>2022-06-18T08:37:46Z</time>
      </trkpt>
      <trkpt lat="45.2617" lon="6.19593">
        <ele>1466.3</ele>
        <time>2022-06-18T08:37:47Z</time>
      </trkpt>
      <trkpt lat="45.2617" lon="6.19592">
        <ele>1466.4</ele>
        <time>2022-06-18T08:37:48Z</time>
      </trkpt>
      <trkpt lat="45.26169" lon="6.19591">
        <ele>1466.4</ele>
        <time>2022-06-18T08:37:50Z</time>
      </trkpt>
      <trkpt lat="45.26169" lon="6.19589">
        <ele>1466.5</ele>
        <time>2022-06-18T08:37:51Z</time>
      </trkpt>
      <trkpt lat="45.26163" lon="6.1958">
        <ele>1466.9</ele>
        <time>2022-06-18T08:37:52Z</time>
      </trkpt>
      <trkpt lat="45.26158" lon="6.1957">
        <ele>1467.6</ele>
        <time>2022-06-18T08:37:53Z</time>
      </trkpt>
      <trkpt lat="45.26154" lon="6.19564">
        <ele>1468.1</ele>
        <time>2022-06-18T08:37:54Z</time>
      </trkpt>
      <trkpt lat="45.26152" lon="6.19561">
        <ele>1468.4</ele>
        <time>2022-06-18T08:37:55Z</time>
      </trkpt>
      <trkpt lat="45.26149" lon="6.19556">
        <ele>1468.8</ele>
        <time>2022-06-18T08:37:56Z</time>
      </trkpt>
      <trkpt lat="45.26145" lon="6.1955">
        <ele>1469.4</ele>
        <time>2022-06-18T08:37:58Z</time>
      </trkpt>
      <trkpt lat="45.26142" lon="6.19544">
        <ele>1470</ele>
        <time>2022-06-18T08:37:59Z</time>
      </trkpt>
      <trkpt lat="45.26139" lon="6.19541">
        <ele>1470.4</ele>
        <time>2022-06-18T08:38:00Z</time>
      </trkpt>
      <trkpt lat="45.26136" lon="6.19537">
        <ele>1470.9</ele>
        <time>2022-06-18T08:38:02Z</time>
      </trkpt>
      <trkpt lat="45.26134" lon="6.19532">
        <ele>1471.3</ele>
        <time>2022-06-18T08:38:03Z</time>
      </trkpt>
      <trkpt lat="45.26131" lon="6.19527">
        <ele>1471.9</ele>
        <time>2022-06-18T08:38:04Z</time>
      </trkpt>
      <trkpt lat="45.26128" lon="6.19522">
        <ele>1472.5</ele>
        <time>2022-06-18T08:38:05Z</time>
      </trkpt>
      <trkpt lat="45.26126" lon="6.19519">
        <ele>1472.9</ele>
        <time>2022-06-18T08:38:07Z</time>
      </trkpt>
      <trkpt lat="45.26124" lon="6.19515">
        <ele>1473.4</ele>
        <time>2022-06-18T08:38:08Z</time>
      </trkpt>
      <trkpt lat="45.26124" lon="6.19511">
        <ele>1473.7</ele>
        <time>2022-06-18T08:38:09Z</time>
      </trkpt>
      <trkpt lat="45.26123" lon="6.19505">
        <ele>1474.4</ele>
        <time>2022-06-18T08:38:11Z</time>
      </trkpt>
      <trkpt lat="45.26122" lon="6.19501">
        <ele>1474.8</ele>
        <time>2022-06-18T08:38:12Z</time>
      </trkpt>
      <trkpt lat="45.26121" lon="6.19497">
        <ele>1475.3</ele>
        <time>2022-06-18T08:38:13Z</time>
      </trkpt>
      <trkpt lat="45.2612" lon="6.19491">
        <ele>1476</ele>
        <time>2022-06-18T08:38:14Z</time>
      </trkpt>
      <trkpt lat="45.26119" lon="6.19485">
        <ele>1476.7</ele>
        <time>2022-06-18T08:38:15Z</time>
      </trkpt>
      <trkpt lat="45.26119" lon="6.19483">
        <ele>1476.9</ele>
        <time>2022-06-18T08:38:16Z</time>
      </trkpt>
      <trkpt lat="45.26118" lon="6.1948">
        <ele>1477.4</ele>
        <time>2022-06-18T08:38:17Z</time>
      </trkpt>
      <trkpt lat="45.26118" lon="6.19475">
        <ele>1478</ele>
        <time>2022-06-18T08:38:19Z</time>
      </trkpt>
      <trkpt lat="45.26116" lon="6.19471">
        <ele>1478.7</ele>
        <time>2022-06-18T08:38:20Z</time>
      </trkpt>
      <trkpt lat="45.26114" lon="6.19468">
        <ele>1479.2</ele>
        <time>2022-06-18T08:38:21Z</time>
      </trkpt>
      <trkpt lat="45.26113" lon="6.19464">
        <ele>1479.8</ele>
        <time>2022-06-18T08:38:23Z</time>
      </trkpt>
      <trkpt lat="45.26111" lon="6.19459">
        <ele>1480.6</ele>
        <time>2022-06-18T08:38:24Z</time>
      </trkpt>
      <trkpt lat="45.26111" lon="6.19455">
        <ele>1481.2</ele>
        <time>2022-06-18T08:38:25Z</time>
      </trkpt>
      <trkpt lat="45.2611" lon="6.19451">
        <ele>1481.8</ele>
        <time>2022-06-18T08:38:26Z</time>
      </trkpt>
      <trkpt lat="45.2611" lon="6.19449">
        <ele>1482</ele>
        <time>2022-06-18T08:38:27Z</time>
      </trkpt>
      <trkpt lat="45.26109" lon="6.19444">
        <ele>1482.7</ele>
        <time>2022-06-18T08:38:28Z</time>
      </trkpt>
      <trkpt lat="45.26109" lon="6.19442">
        <ele>1483</ele>
        <time>2022-06-18T08:38:29Z</time>
      </trkpt>
      <trkpt lat="45.26106" lon="6.19436">
        <ele>1483.8</ele>
        <time>2022-06-18T08:38:31Z</time>
      </trkpt>
      <trkpt lat="45.26105" lon="6.19433">
        <ele>1484</ele>
        <time>2022-06-18T08:38:32Z</time>
      </trkpt>
      <trkpt lat="45.26103" lon="6.19431">
        <ele>1484.3</ele>
        <time>2022-06-18T08:38:33Z</time>
      </trkpt>
      <trkpt lat="45.26101" lon="6.19429">
        <ele>1484.5</ele>
        <time>2022-06-18T08:38:34Z</time>
      </trkpt>
      <trkpt lat="45.26097" lon="6.19429">
        <ele>1484.7</ele>
        <time>2022-06-18T08:38:35Z</time>
      </trkpt>
      <trkpt lat="45.26094" lon="6.1943">
        <ele>1484.9</ele>
        <time>2022-06-18T08:38:36Z</time>
      </trkpt>
      <trkpt lat="45.26091" lon="6.19432">
        <ele>1484.9</ele>
        <time>2022-06-18T08:38:37Z</time>
      </trkpt>
      <trkpt lat="45.26088" lon="6.19436">
        <ele>1484.9</ele>
        <time>2022-06-18T08:38:38Z</time>
      </trkpt>
      <trkpt lat="45.26084" lon="6.19441">
        <ele>1484.8</ele>
        <time>2022-06-18T08:38:40Z</time>
      </trkpt>
      <trkpt lat="45.26081" lon="6.19444">
        <ele>1484.7</ele>
        <time>2022-06-18T08:38:41Z</time>
      </trkpt>
      <trkpt lat="45.2608" lon="6.19445">
        <ele>1484.7</ele>
        <time>2022-06-18T08:38:42Z</time>
      </trkpt>
      <trkpt lat="45.26077" lon="6.19448">
        <ele>1484.6</ele>
        <time>2022-06-18T08:38:43Z</time>
      </trkpt>
      <trkpt lat="45.26073" lon="6.19452">
        <ele>1484.5</ele>
        <time>2022-06-18T08:38:45Z</time>
      </trkpt>
      <trkpt lat="45.26071" lon="6.19454">
        <ele>1484.5</ele>
        <time>2022-06-18T08:38:46Z</time>
      </trkpt>
      <trkpt lat="45.26069" lon="6.19455">
        <ele>1484.5</ele>
        <time>2022-06-18T08:38:47Z</time>
      </trkpt>
      <trkpt lat="45.26066" lon="6.19457">
        <ele>1484.5</ele>
        <time>2022-06-18T08:38:48Z</time>
      </trkpt>
      <trkpt lat="45.26065" lon="6.19458">
        <ele>1484.5</ele>
        <time>2022-06-18T08:38:49Z</time>
      </trkpt>
      <trkpt lat="45.26062" lon="6.1946">
        <ele>1484.5</ele>
        <time>2022-06-18T08:38:50Z</time>
      </trkpt>
      <trkpt lat="45.2606" lon="6.19462">
        <ele>1484.6</ele>
        <time>2022-06-18T08:38:51Z</time>
      </trkpt>
      <trkpt lat="45.26056" lon="6.19464">
        <ele>1484.7</ele>
        <time>2022-06-18T08:38:53Z</time>
      </trkpt>
      <trkpt lat="45.26053" lon="6.19466">
        <ele>1484.9</ele>
        <time>2022-06-18T08:38:54Z</time>
      </trkpt>
      <trkpt lat="45.2605" lon="6.19468">
        <ele>1485</ele>
        <time>2022-06-18T08:38:55Z</time>
      </trkpt>
      <trkpt lat="45.26048" lon="6.1947">
        <ele>1485.2</ele>
        <time>2022-06-18T08:38:56Z</time>
      </trkpt>
      <trkpt lat="45.26045" lon="6.19471">
        <ele>1485.3</ele>
        <time>2022-06-18T08:38:58Z</time>
      </trkpt>
      <trkpt lat="45.26043" lon="6.19473">
        <ele>1485.5</ele>
        <time>2022-06-18T08:38:59Z</time>
      </trkpt>
      <trkpt lat="45.26041" lon="6.19474">
        <ele>1485.6</ele>
        <time>2022-06-18T08:39:00Z</time>
      </trkpt>
      <trkpt lat="45.26039" lon="6.19477">
        <ele>1485.9</ele>
        <time>2022-06-18T08:39:01Z</time>
      </trkpt>
      <trkpt lat="45.26038" lon="6.19477">
        <ele>1485.9</ele>
        <time>2022-06-18T08:39:02Z</time>
      </trkpt>
      <trkpt lat="45.26037" lon="6.19478">
        <ele>1486.1</ele>
        <time>2022-06-18T08:39:03Z</time>
      </trkpt>
      <trkpt lat="45.26035" lon="6.1948">
        <ele>1486.3</ele>
        <time>2022-06-18T08:39:05Z</time>
      </trkpt>
      <trkpt lat="45.26033" lon="6.19481">
        <ele>1486.5</ele>
        <time>2022-06-18T08:39:06Z</time>
      </trkpt>
      <trkpt lat="45.26031" lon="6.19482">
        <ele>1486.6</ele>
        <time>2022-06-18T08:39:07Z</time>
      </trkpt>
      <trkpt lat="45.26028" lon="6.19485">
        <ele>1486.9</ele>
        <time>2022-06-18T08:39:08Z</time>
      </trkpt>
      <trkpt lat="45.26027" lon="6.19486">
        <ele>1487.1</ele>
        <time>2022-06-18T08:39:09Z</time>
      </trkpt>
      <trkpt lat="45.26023" lon="6.19488">
        <ele>1487.6</ele>
        <time>2022-06-18T08:39:11Z</time>
      </trkpt>
      <trkpt lat="45.26019" lon="6.19491">
        <ele>1488.1</ele>
        <time>2022-06-18T08:39:12Z</time>
      </trkpt>
      <trkpt lat="45.26015" lon="6.19494">
        <ele>1488.7</ele>
        <time>2022-06-18T08:39:13Z</time>
      </trkpt>
      <trkpt lat="45.26012" lon="6.19496">
        <ele>1489.1</ele>
        <time>2022-06-18T08:39:14Z</time>
      </trkpt>
      <trkpt lat="45.26009" lon="6.19498">
        <ele>1489.5</ele>
        <time>2022-06-18T08:39:15Z</time>
      </trkpt>
      <trkpt lat="45.26006" lon="6.195">
        <ele>1490</ele>
        <time>2022-06-18T08:39:16Z</time>
      </trkpt>
      <trkpt lat="45.26001" lon="6.19504">
        <ele>1490.9</ele>
        <time>2022-06-18T08:39:18Z</time>
      </trkpt>
      <trkpt lat="45.25998" lon="6.19507">
        <ele>1491.6</ele>
        <time>2022-06-18T08:39:19Z</time>
      </trkpt>
      <trkpt lat="45.25994" lon="6.19509">
        <ele>1492.2</ele>
        <time>2022-06-18T08:39:20Z</time>
      </trkpt>
      <trkpt lat="45.2599" lon="6.19511">
        <ele>1493</ele>
        <time>2022-06-18T08:39:21Z</time>
      </trkpt>
      <trkpt lat="45.25987" lon="6.19513">
        <ele>1493.7</ele>
        <time>2022-06-18T08:39:22Z</time>
      </trkpt>
      <trkpt lat="45.25985" lon="6.19516">
        <ele>1494.3</ele>
        <time>2022-06-18T08:39:23Z</time>
      </trkpt>
      <trkpt lat="45.25982" lon="6.19518">
        <ele>1494.9</ele>
        <time>2022-06-18T08:39:24Z</time>
      </trkpt>
      <trkpt lat="45.25979" lon="6.19522">
        <ele>1495.7</ele>
        <time>2022-06-18T08:39:25Z</time>
      </trkpt>
      <trkpt lat="45.25978" lon="6.19523">
        <ele>1496</ele>
        <time>2022-06-18T08:39:26Z</time>
      </trkpt>
      <trkpt lat="45.25975" lon="6.19525">
        <ele>1496.7</ele>
        <time>2022-06-18T08:39:27Z</time>
      </trkpt>
      <trkpt lat="45.25974" lon="6.19526">
        <ele>1496.9</ele>
        <time>2022-06-18T08:39:28Z</time>
      </trkpt>
      <trkpt lat="45.2597" lon="6.19529">
        <ele>1497.6</ele>
        <time>2022-06-18T08:39:30Z</time>
      </trkpt>
      <trkpt lat="45.25967" lon="6.1953">
        <ele>1498.1</ele>
        <time>2022-06-18T08:39:31Z</time>
      </trkpt>
      <trkpt lat="45.25964" lon="6.19531">
        <ele>1498.7</ele>
        <time>2022-06-18T08:39:32Z</time>
      </trkpt>
      <trkpt lat="45.25961" lon="6.1953">
        <ele>1499</ele>
        <time>2022-06-18T08:39:33Z</time>
      </trkpt>
      <trkpt lat="45.25957" lon="6.19527">
        <ele>1499.3</ele>
        <time>2022-06-18T08:39:34Z</time>
      </trkpt>
      <trkpt lat="45.25955" lon="6.19524">
        <ele>1499.6</ele>
        <time>2022-06-18T08:39:35Z</time>
      </trkpt>
      <trkpt lat="45.25954" lon="6.1952">
        <ele>1499.7</ele>
        <time>2022-06-18T08:39:36Z</time>
      </trkpt>
      <trkpt lat="45.25954" lon="6.19515">
        <ele>1499.8</ele>
        <time>2022-06-18T08:39:38Z</time>
      </trkpt>
      <trkpt lat="45.25954" lon="6.1951">
        <ele>1499.9</ele>
        <time>2022-06-18T08:39:39Z</time>
      </trkpt>
      <trkpt lat="45.25954" lon="6.19505">
        <ele>1499.9</ele>
        <time>2022-06-18T08:39:40Z</time>
      </trkpt>
      <trkpt lat="45.25954" lon="6.195">
        <ele>1499.9</ele>
        <time>2022-06-18T08:39:41Z</time>
      </trkpt>
      <trkpt lat="45.25954" lon="6.19499">
        <ele>1499.9</ele>
        <time>2022-06-18T08:39:42Z</time>
      </trkpt>
      <trkpt lat="45.25953" lon="6.19494">
        <ele>1499.9</ele>
        <time>2022-06-18T08:39:43Z</time>
      </trkpt>
      <trkpt lat="45.25953" lon="6.19492">
        <ele>1499.9</ele>
        <time>2022-06-18T08:39:44Z</time>
      </trkpt>
      <trkpt lat="45.25954" lon="6.19487">
        <ele>1499.8</ele>
        <time>2022-06-18T08:39:46Z</time>
      </trkpt>
      <trkpt lat="45.25953" lon="6.19483">
        <ele>1499.8</ele>
        <time>2022-06-18T08:39:47Z</time>
      </trkpt>
      <trkpt lat="45.25952" lon="6.19478">
        <ele>1499.8</ele>
        <time>2022-06-18T08:39:48Z</time>
      </trkpt>
      <trkpt lat="45.25952" lon="6.19474">
        <ele>1499.8</ele>
        <time>2022-06-18T08:39:49Z</time>
      </trkpt>
      <trkpt lat="45.25951" lon="6.19468">
        <ele>1499.8</ele>
        <time>2022-06-18T08:39:50Z</time>
      </trkpt>
      <trkpt lat="45.25951" lon="6.19466">
        <ele>1499.8</ele>
        <time>2022-06-18T08:39:51Z</time>
      </trkpt>
      <trkpt lat="45.2595" lon="6.19462">
        <ele>1499.8</ele>
        <time>2022-06-18T08:39:52Z</time>
      </trkpt>
      <trkpt lat="45.2595" lon="6.19458">
        <ele>1499.9</ele>
        <time>2022-06-18T08:39:53Z</time>
      </trkpt>
      <trkpt lat="45.25949" lon="6.19452">
        <ele>1500.2</ele>
        <time>2022-06-18T08:39:55Z</time>
      </trkpt>
      <trkpt lat="45.25948" lon="6.19446">
        <ele>1500.5</ele>
        <time>2022-06-18T08:39:56Z</time>
      </trkpt>
      <trkpt lat="45.25946" lon="6.19441">
        <ele>1500.7</ele>
        <time>2022-06-18T08:39:57Z</time>
      </trkpt>
      <trkpt lat="45.25945" lon="6.19437">
        <ele>1501</ele>
        <time>2022-06-18T08:39:58Z</time>
      </trkpt>
      <trkpt lat="45.25944" lon="6.19435">
        <ele>1501.1</ele>
        <time>2022-06-18T08:39:59Z</time>
      </trkpt>
      <trkpt lat="45.25942" lon="6.19431">
        <ele>1501.3</ele>
        <time>2022-06-18T08:40:00Z</time>
      </trkpt>
      <trkpt lat="45.25942" lon="6.19427">
        <ele>1501.5</ele>
        <time>2022-06-18T08:40:01Z</time>
      </trkpt>
      <trkpt lat="45.25941" lon="6.19422">
        <ele>1501.7</ele>
        <time>2022-06-18T08:40:03Z</time>
      </trkpt>
      <trkpt lat="45.25941" lon="6.19418">
        <ele>1501.9</ele>
        <time>2022-06-18T08:40:04Z</time>
      </trkpt>
      <trkpt lat="45.2594" lon="6.19413">
        <ele>1502.1</ele>
        <time>2022-06-18T08:40:05Z</time>
      </trkpt>
      <trkpt lat="45.2594" lon="6.19409">
        <ele>1502.3</ele>
        <time>2022-06-18T08:40:06Z</time>
      </trkpt>
      <trkpt lat="45.25939" lon="6.19403">
        <ele>1502.6</ele>
        <time>2022-06-18T08:40:07Z</time>
      </trkpt>
      <trkpt lat="45.25938" lon="6.19399">
        <ele>1502.8</ele>
        <time>2022-06-18T08:40:08Z</time>
      </trkpt>
      <trkpt lat="45.25938" lon="6.19395">
        <ele>1503</ele>
        <time>2022-06-18T08:40:09Z</time>
      </trkpt>
      <trkpt lat="45.25938" lon="6.19391">
        <ele>1503.2</ele>
        <time>2022-06-18T08:40:10Z</time>
      </trkpt>
      <trkpt lat="45.25937" lon="6.19386">
        <ele>1503.5</ele>
        <time>2022-06-18T08:40:12Z</time>
      </trkpt>
      <trkpt lat="45.25937" lon="6.1938">
        <ele>1503.7</ele>
        <time>2022-06-18T08:40:13Z</time>
      </trkpt>
      <trkpt lat="45.25936" lon="6.19377">
        <ele>1503.9</ele>
        <time>2022-06-18T08:40:14Z</time>
      </trkpt>
      <trkpt lat="45.25935" lon="6.19371">
        <ele>1504.2</ele>
        <time>2022-06-18T08:40:16Z</time>
      </trkpt>
      <trkpt lat="45.25934" lon="6.19367">
        <ele>1504.5</ele>
        <time>2022-06-18T08:40:17Z</time>
      </trkpt>
      <trkpt lat="45.25933" lon="6.19363">
        <ele>1504.7</ele>
        <time>2022-06-18T08:40:18Z</time>
      </trkpt>
      <trkpt lat="45.25932" lon="6.1936">
        <ele>1504.9</ele>
        <time>2022-06-18T08:40:19Z</time>
      </trkpt>
      <trkpt lat="45.2593" lon="6.19358">
        <ele>1505.1</ele>
        <time>2022-06-18T08:40:20Z</time>
      </trkpt>
      <trkpt lat="45.2593" lon="6.19357">
        <ele>1505.2</ele>
        <time>2022-06-18T08:40:21Z</time>
      </trkpt>
      <trkpt lat="45.25927" lon="6.19352">
        <ele>1505.6</ele>
        <time>2022-06-18T08:40:22Z</time>
      </trkpt>
      <trkpt lat="45.25926" lon="6.1935">
        <ele>1505.8</ele>
        <time>2022-06-18T08:40:23Z</time>
      </trkpt>
      <trkpt lat="45.25924" lon="6.19345">
        <ele>1506.1</ele>
        <time>2022-06-18T08:40:24Z</time>
      </trkpt>
      <trkpt lat="45.25923" lon="6.19343">
        <ele>1506.3</ele>
        <time>2022-06-18T08:40:25Z</time>
      </trkpt>
      <trkpt lat="45.2592" lon="6.19339">
        <ele>1506.7</ele>
        <time>2022-06-18T08:40:26Z</time>
      </trkpt>
      <trkpt lat="45.25918" lon="6.19334">
        <ele>1507</ele>
        <time>2022-06-18T08:40:27Z</time>
      </trkpt>
      <trkpt lat="45.25915" lon="6.19328">
        <ele>1507.5</ele>
        <time>2022-06-18T08:40:29Z</time>
      </trkpt>
      <trkpt lat="45.25913" lon="6.19324">
        <ele>1507.8</ele>
        <time>2022-06-18T08:40:30Z</time>
      </trkpt>
      <trkpt lat="45.25911" lon="6.19318">
        <ele>1508.2</ele>
        <time>2022-06-18T08:40:32Z</time>
      </trkpt>
      <trkpt lat="45.2591" lon="6.19312">
        <ele>1508.5</ele>
        <time>2022-06-18T08:40:33Z</time>
      </trkpt>
      <trkpt lat="45.2591" lon="6.19304">
        <ele>1508.2</ele>
        <time>2022-06-18T08:40:34Z</time>
      </trkpt>
      <trkpt lat="45.2591" lon="6.19296">
        <ele>1508</ele>
        <time>2022-06-18T08:40:36Z</time>
      </trkpt>
      <trkpt lat="45.2591" lon="6.1929">
        <ele>1507.8</ele>
        <time>2022-06-18T08:40:37Z</time>
      </trkpt>
      <trkpt lat="45.2591" lon="6.19281">
        <ele>1507.7</ele>
        <time>2022-06-18T08:40:38Z</time>
      </trkpt>
      <trkpt lat="45.25911" lon="6.19275">
        <ele>1507.9</ele>
        <time>2022-06-18T08:40:39Z</time>
      </trkpt>
      <trkpt lat="45.25911" lon="6.19269">
        <ele>1508.1</ele>
        <time>2022-06-18T08:40:40Z</time>
      </trkpt>
      <trkpt lat="45.25911" lon="6.19265">
        <ele>1508.2</ele>
        <time>2022-06-18T08:40:41Z</time>
      </trkpt>
      <trkpt lat="45.2591" lon="6.19259">
        <ele>1508.4</ele>
        <time>2022-06-18T08:40:42Z</time>
      </trkpt>
      <trkpt lat="45.25909" lon="6.19254">
        <ele>1508.6</ele>
        <time>2022-06-18T08:40:43Z</time>
      </trkpt>
      <trkpt lat="45.25905" lon="6.19246">
        <ele>1509</ele>
        <time>2022-06-18T08:40:45Z</time>
      </trkpt>
      <trkpt lat="45.25901" lon="6.19239">
        <ele>1509.4</ele>
        <time>2022-06-18T08:40:46Z</time>
      </trkpt>
      <trkpt lat="45.25897" lon="6.19233">
        <ele>1509.8</ele>
        <time>2022-06-18T08:40:48Z</time>
      </trkpt>
      <trkpt lat="45.25895" lon="6.19226">
        <ele>1510.3</ele>
        <time>2022-06-18T08:40:49Z</time>
      </trkpt>
      <trkpt lat="45.25892" lon="6.1922">
        <ele>1510.7</ele>
        <time>2022-06-18T08:40:50Z</time>
      </trkpt>
      <trkpt lat="45.25889" lon="6.19216">
        <ele>1511</ele>
        <time>2022-06-18T08:40:51Z</time>
      </trkpt>
      <trkpt lat="45.25887" lon="6.19212">
        <ele>1511.3</ele>
        <time>2022-06-18T08:40:52Z</time>
      </trkpt>
      <trkpt lat="45.25885" lon="6.19208">
        <ele>1511.6</ele>
        <time>2022-06-18T08:40:53Z</time>
      </trkpt>
      <trkpt lat="45.25883" lon="6.19203">
        <ele>1511.9</ele>
        <time>2022-06-18T08:40:55Z</time>
      </trkpt>
      <trkpt lat="45.2588" lon="6.19198">
        <ele>1512.3</ele>
        <time>2022-06-18T08:40:56Z</time>
      </trkpt>
      <trkpt lat="45.25877" lon="6.19194">
        <ele>1512.7</ele>
        <time>2022-06-18T08:40:57Z</time>
      </trkpt>
      <trkpt lat="45.25874" lon="6.19191">
        <ele>1513</ele>
        <time>2022-06-18T08:40:58Z</time>
      </trkpt>
      <trkpt lat="45.25872" lon="6.19188">
        <ele>1513.3</ele>
        <time>2022-06-18T08:40:59Z</time>
      </trkpt>
      <trkpt lat="45.25869" lon="6.19185">
        <ele>1513.6</ele>
        <time>2022-06-18T08:41:00Z</time>
      </trkpt>
      <trkpt lat="45.25867" lon="6.19182">
        <ele>1513.8</ele>
        <time>2022-06-18T08:41:01Z</time>
      </trkpt>
      <trkpt lat="45.25863" lon="6.19179">
        <ele>1514.2</ele>
        <time>2022-06-18T08:41:02Z</time>
      </trkpt>
      <trkpt lat="45.2586" lon="6.19176">
        <ele>1514.5</ele>
        <time>2022-06-18T08:41:04Z</time>
      </trkpt>
      <trkpt lat="45.25856" lon="6.19174">
        <ele>1514.8</ele>
        <time>2022-06-18T08:41:05Z</time>
      </trkpt>
      <trkpt lat="45.25852" lon="6.19172">
        <ele>1515.1</ele>
        <time>2022-06-18T08:41:06Z</time>
      </trkpt>
      <trkpt lat="45.25849" lon="6.1917">
        <ele>1515.4</ele>
        <time>2022-06-18T08:41:07Z</time>
      </trkpt>
      <trkpt lat="45.25845" lon="6.19167">
        <ele>1515.7</ele>
        <time>2022-06-18T08:41:08Z</time>
      </trkpt>
      <trkpt lat="45.25841" lon="6.19165">
        <ele>1516</ele>
        <time>2022-06-18T08:41:09Z</time>
      </trkpt>
      <trkpt lat="45.25837" lon="6.19162">
        <ele>1516.3</ele>
        <time>2022-06-18T08:41:11Z</time>
      </trkpt>
      <trkpt lat="45.25833" lon="6.19158">
        <ele>1516.6</ele>
        <time>2022-06-18T08:41:12Z</time>
      </trkpt>
      <trkpt lat="45.25831" lon="6.19154">
        <ele>1516.9</ele>
        <time>2022-06-18T08:41:13Z</time>
      </trkpt>
      <trkpt lat="45.25828" lon="6.19149">
        <ele>1517.2</ele>
        <time>2022-06-18T08:41:14Z</time>
      </trkpt>
      <trkpt lat="45.25825" lon="6.19144">
        <ele>1517.6</ele>
        <time>2022-06-18T08:41:16Z</time>
      </trkpt>
      <trkpt lat="45.25822" lon="6.1914">
        <ele>1517.8</ele>
        <time>2022-06-18T08:41:17Z</time>
      </trkpt>
      <trkpt lat="45.2582" lon="6.19136">
        <ele>1518.1</ele>
        <time>2022-06-18T08:41:18Z</time>
      </trkpt>
      <trkpt lat="45.25818" lon="6.19132">
        <ele>1518.3</ele>
        <time>2022-06-18T08:41:19Z</time>
      </trkpt>
      <trkpt lat="45.25815" lon="6.19128">
        <ele>1518.7</ele>
        <time>2022-06-18T08:41:20Z</time>
      </trkpt>
      <trkpt lat="45.25814" lon="6.19126">
        <ele>1518.8</ele>
        <time>2022-06-18T08:41:21Z</time>
      </trkpt>
      <trkpt lat="45.25811" lon="6.19123">
        <ele>1519.1</ele>
        <time>2022-06-18T08:41:22Z</time>
      </trkpt>
      <trkpt lat="45.25807" lon="6.19118">
        <ele>1519.5</ele>
        <time>2022-06-18T08:41:23Z</time>
      </trkpt>
      <trkpt lat="45.25805" lon="6.19115">
        <ele>1519.8</ele>
        <time>2022-06-18T08:41:24Z</time>
      </trkpt>
      <trkpt lat="45.25802" lon="6.19112">
        <ele>1520.1</ele>
        <time>2022-06-18T08:41:25Z</time>
      </trkpt>
      <trkpt lat="45.258" lon="6.19109">
        <ele>1520.5</ele>
        <time>2022-06-18T08:41:26Z</time>
      </trkpt>
      <trkpt lat="45.25798" lon="6.19105">
        <ele>1520.8</ele>
        <time>2022-06-18T08:41:27Z</time>
      </trkpt>
      <trkpt lat="45.25794" lon="6.19101">
        <ele>1521.3</ele>
        <time>2022-06-18T08:41:29Z</time>
      </trkpt>
      <trkpt lat="45.2579" lon="6.19096">
        <ele>1521.9</ele>
        <time>2022-06-18T08:41:30Z</time>
      </trkpt>
      <trkpt lat="45.25788" lon="6.19093">
        <ele>1522.1</ele>
        <time>2022-06-18T08:41:31Z</time>
      </trkpt>
      <trkpt lat="45.25786" lon="6.1909">
        <ele>1522.5</ele>
        <time>2022-06-18T08:41:32Z</time>
      </trkpt>
      <trkpt lat="45.25783" lon="6.19088">
        <ele>1522.8</ele>
        <time>2022-06-18T08:41:33Z</time>
      </trkpt>
      <trkpt lat="45.2578" lon="6.19085">
        <ele>1523.2</ele>
        <time>2022-06-18T08:41:34Z</time>
      </trkpt>
      <trkpt lat="45.25778" lon="6.19082">
        <ele>1523.5</ele>
        <time>2022-06-18T08:41:35Z</time>
      </trkpt>
      <trkpt lat="45.25774" lon="6.19079">
        <ele>1523.9</ele>
        <time>2022-06-18T08:41:37Z</time>
      </trkpt>
      <trkpt lat="45.25771" lon="6.19076">
        <ele>1524.3</ele>
        <time>2022-06-18T08:41:38Z</time>
      </trkpt>
      <trkpt lat="45.25768" lon="6.19074">
        <ele>1524.6</ele>
        <time>2022-06-18T08:41:39Z</time>
      </trkpt>
      <trkpt lat="45.25765" lon="6.19072">
        <ele>1524.9</ele>
        <time>2022-06-18T08:41:40Z</time>
      </trkpt>
      <trkpt lat="45.25761" lon="6.1907">
        <ele>1525.2</ele>
        <time>2022-06-18T08:41:41Z</time>
      </trkpt>
      <trkpt lat="45.25757" lon="6.19069">
        <ele>1525.6</ele>
        <time>2022-06-18T08:41:42Z</time>
      </trkpt>
      <trkpt lat="45.25753" lon="6.19067">
        <ele>1526</ele>
        <time>2022-06-18T08:41:44Z</time>
      </trkpt>
      <trkpt lat="45.25749" lon="6.19065">
        <ele>1526.3</ele>
        <time>2022-06-18T08:41:45Z</time>
      </trkpt>
      <trkpt lat="45.25745" lon="6.19062">
        <ele>1526.7</ele>
        <time>2022-06-18T08:41:46Z</time>
      </trkpt>
      <trkpt lat="45.25742" lon="6.19061">
        <ele>1526.9</ele>
        <time>2022-06-18T08:41:47Z</time>
      </trkpt>
      <trkpt lat="45.25738" lon="6.19059">
        <ele>1527.3</ele>
        <time>2022-06-18T08:41:48Z</time>
      </trkpt>
      <trkpt lat="45.25736" lon="6.19059">
        <ele>1527.4</ele>
        <time>2022-06-18T08:41:49Z</time>
      </trkpt>
      <trkpt lat="45.25733" lon="6.19058">
        <ele>1527.7</ele>
        <time>2022-06-18T08:41:50Z</time>
      </trkpt>
      <trkpt lat="45.25729" lon="6.19058">
        <ele>1528</ele>
        <time>2022-06-18T08:41:51Z</time>
      </trkpt>
      <trkpt lat="45.25728" lon="6.19058">
        <ele>1528</ele>
        <time>2022-06-18T08:41:52Z</time>
      </trkpt>
      <trkpt lat="45.25725" lon="6.19057">
        <ele>1528.3</ele>
        <time>2022-06-18T08:41:53Z</time>
      </trkpt>
      <trkpt lat="45.25724" lon="6.19057">
        <ele>1528.4</ele>
        <time>2022-06-18T08:41:54Z</time>
      </trkpt>
      <trkpt lat="45.25719" lon="6.19057">
        <ele>1528.8</ele>
        <time>2022-06-18T08:41:56Z</time>
      </trkpt>
      <trkpt lat="45.25715" lon="6.19057">
        <ele>1529.1</ele>
        <time>2022-06-18T08:41:57Z</time>
      </trkpt>
      <trkpt lat="45.25714" lon="6.19057">
        <ele>1529.1</ele>
        <time>2022-06-18T08:41:58Z</time>
      </trkpt>
      <trkpt lat="45.2571" lon="6.19056">
        <ele>1529.4</ele>
        <time>2022-06-18T08:42:00Z</time>
      </trkpt>
      <trkpt lat="45.25706" lon="6.19055">
        <ele>1529.7</ele>
        <time>2022-06-18T08:42:01Z</time>
      </trkpt>
      <trkpt lat="45.25704" lon="6.19055">
        <ele>1529.9</ele>
        <time>2022-06-18T08:42:02Z</time>
      </trkpt>
      <trkpt lat="45.25703" lon="6.19055">
        <ele>1529.9</ele>
        <time>2022-06-18T08:42:03Z</time>
      </trkpt>
      <trkpt lat="45.257" lon="6.19052">
        <ele>1530.3</ele>
        <time>2022-06-18T08:42:05Z</time>
      </trkpt>
      <trkpt lat="45.25696" lon="6.1905">
        <ele>1530.6</ele>
        <time>2022-06-18T08:42:06Z</time>
      </trkpt>
      <trkpt lat="45.25694" lon="6.1905">
        <ele>1530.7</ele>
        <time>2022-06-18T08:42:07Z</time>
      </trkpt>
      <trkpt lat="45.25689" lon="6.19048">
        <ele>1531.2</ele>
        <time>2022-06-18T08:42:08Z</time>
      </trkpt>
      <trkpt lat="45.25682" lon="6.19046">
        <ele>1531.8</ele>
        <time>2022-06-18T08:42:09Z</time>
      </trkpt>
      <trkpt lat="45.25677" lon="6.19045">
        <ele>1532.3</ele>
        <time>2022-06-18T08:42:10Z</time>
      </trkpt>
      <trkpt lat="45.25672" lon="6.19044">
        <ele>1532.7</ele>
        <time>2022-06-18T08:42:11Z</time>
      </trkpt>
      <trkpt lat="45.25667" lon="6.19042">
        <ele>1533.2</ele>
        <time>2022-06-18T08:42:13Z</time>
      </trkpt>
      <trkpt lat="45.25663" lon="6.19041">
        <ele>1533.7</ele>
        <time>2022-06-18T08:42:14Z</time>
      </trkpt>
      <trkpt lat="45.25659" lon="6.19041">
        <ele>1534.1</ele>
        <time>2022-06-18T08:42:15Z</time>
      </trkpt>
      <trkpt lat="45.25655" lon="6.1904">
        <ele>1534.6</ele>
        <time>2022-06-18T08:42:16Z</time>
      </trkpt>
      <trkpt lat="45.25651" lon="6.1904">
        <ele>1535</ele>
        <time>2022-06-18T08:42:17Z</time>
      </trkpt>
      <trkpt lat="45.25648" lon="6.19038">
        <ele>1535.4</ele>
        <time>2022-06-18T08:42:18Z</time>
      </trkpt>
      <trkpt lat="45.25644" lon="6.19038">
        <ele>1535.9</ele>
        <time>2022-06-18T08:42:19Z</time>
      </trkpt>
      <trkpt lat="45.2564" lon="6.19036">
        <ele>1536.3</ele>
        <time>2022-06-18T08:42:21Z</time>
      </trkpt>
      <trkpt lat="45.25637" lon="6.19035">
        <ele>1536.7</ele>
        <time>2022-06-18T08:42:22Z</time>
      </trkpt>
      <trkpt lat="45.25632" lon="6.19034">
        <ele>1537.2</ele>
        <time>2022-06-18T08:42:23Z</time>
      </trkpt>
      <trkpt lat="45.25629" lon="6.19033">
        <ele>1537.6</ele>
        <time>2022-06-18T08:42:24Z</time>
      </trkpt>
      <trkpt lat="45.25626" lon="6.19032">
        <ele>1538</ele>
        <time>2022-06-18T08:42:25Z</time>
      </trkpt>
      <trkpt lat="45.25623" lon="6.1903">
        <ele>1538.3</ele>
        <time>2022-06-18T08:42:26Z</time>
      </trkpt>
      <trkpt lat="45.2562" lon="6.19029">
        <ele>1538.7</ele>
        <time>2022-06-18T08:42:27Z</time>
      </trkpt>
      <trkpt lat="45.25617" lon="6.19028">
        <ele>1539</ele>
        <time>2022-06-18T08:42:28Z</time>
      </trkpt>
      <trkpt lat="45.25614" lon="6.19025">
        <ele>1539.4</ele>
        <time>2022-06-18T08:42:30Z</time>
      </trkpt>
      <trkpt lat="45.2561" lon="6.19021">
        <ele>1539.9</ele>
        <time>2022-06-18T08:42:31Z</time>
      </trkpt>
      <trkpt lat="45.25607" lon="6.19018">
        <ele>1540.3</ele>
        <time>2022-06-18T08:42:32Z</time>
      </trkpt>
      <trkpt lat="45.25606" lon="6.19017">
        <ele>1540.5</ele>
        <time>2022-06-18T08:42:33Z</time>
      </trkpt>
      <trkpt lat="45.25603" lon="6.19015">
        <ele>1540.9</ele>
        <time>2022-06-18T08:42:34Z</time>
      </trkpt>
      <trkpt lat="45.25599" lon="6.19012">
        <ele>1541.3</ele>
        <time>2022-06-18T08:42:35Z</time>
      </trkpt>
      <trkpt lat="45.25598" lon="6.1901">
        <ele>1541.5</ele>
        <time>2022-06-18T08:42:36Z</time>
      </trkpt>
      <trkpt lat="45.25596" lon="6.19008">
        <ele>1541.8</ele>
        <time>2022-06-18T08:42:37Z</time>
      </trkpt>
      <trkpt lat="45.25593" lon="6.19004">
        <ele>1542.1</ele>
        <time>2022-06-18T08:42:39Z</time>
      </trkpt>
      <trkpt lat="45.25591" lon="6.19">
        <ele>1542.5</ele>
        <time>2022-06-18T08:42:40Z</time>
      </trkpt>
      <trkpt lat="45.25587" lon="6.18996">
        <ele>1542.9</ele>
        <time>2022-06-18T08:42:41Z</time>
      </trkpt>
      <trkpt lat="45.25585" lon="6.18993">
        <ele>1543.2</ele>
        <time>2022-06-18T08:42:42Z</time>
      </trkpt>
      <trkpt lat="45.25582" lon="6.18991">
        <ele>1543.4</ele>
        <time>2022-06-18T08:42:44Z</time>
      </trkpt>
      <trkpt lat="45.25579" lon="6.18988">
        <ele>1543.7</ele>
        <time>2022-06-18T08:42:45Z</time>
      </trkpt>
      <trkpt lat="45.25575" lon="6.18984">
        <ele>1544.2</ele>
        <time>2022-06-18T08:42:47Z</time>
      </trkpt>
      <trkpt lat="45.25572" lon="6.18981">
        <ele>1544.5</ele>
        <time>2022-06-18T08:42:48Z</time>
      </trkpt>
      <trkpt lat="45.25569" lon="6.1898">
        <ele>1544.8</ele>
        <time>2022-06-18T08:42:49Z</time>
      </trkpt>
      <trkpt lat="45.25566" lon="6.18978">
        <ele>1545.1</ele>
        <time>2022-06-18T08:42:51Z</time>
      </trkpt>
      <trkpt lat="45.25565" lon="6.18977">
        <ele>1545.2</ele>
        <time>2022-06-18T08:42:52Z</time>
      </trkpt>
      <trkpt lat="45.25561" lon="6.18974">
        <ele>1545.6</ele>
        <time>2022-06-18T08:42:53Z</time>
      </trkpt>
      <trkpt lat="45.25559" lon="6.18973">
        <ele>1545.8</ele>
        <time>2022-06-18T08:42:54Z</time>
      </trkpt>
      <trkpt lat="45.25556" lon="6.1897">
        <ele>1546.1</ele>
        <time>2022-06-18T08:42:55Z</time>
      </trkpt>
      <trkpt lat="45.25554" lon="6.18967">
        <ele>1546.4</ele>
        <time>2022-06-18T08:42:56Z</time>
      </trkpt>
      <trkpt lat="45.25551" lon="6.18965">
        <ele>1546.8</ele>
        <time>2022-06-18T08:42:57Z</time>
      </trkpt>
      <trkpt lat="45.25548" lon="6.18962">
        <ele>1547.1</ele>
        <time>2022-06-18T08:42:58Z</time>
      </trkpt>
      <trkpt lat="45.25545" lon="6.18959">
        <ele>1547.5</ele>
        <time>2022-06-18T08:42:59Z</time>
      </trkpt>
      <trkpt lat="45.2554" lon="6.18955">
        <ele>1548.1</ele>
        <time>2022-06-18T08:43:01Z</time>
      </trkpt>
      <trkpt lat="45.25535" lon="6.1895">
        <ele>1548.6</ele>
        <time>2022-06-18T08:43:02Z</time>
      </trkpt>
      <trkpt lat="45.25533" lon="6.18948">
        <ele>1548.9</ele>
        <time>2022-06-18T08:43:03Z</time>
      </trkpt>
      <trkpt lat="45.2553" lon="6.18945">
        <ele>1549.2</ele>
        <time>2022-06-18T08:43:05Z</time>
      </trkpt>
      <trkpt lat="45.25528" lon="6.18941">
        <ele>1549.6</ele>
        <time>2022-06-18T08:43:06Z</time>
      </trkpt>
      <trkpt lat="45.25524" lon="6.18935">
        <ele>1550.1</ele>
        <time>2022-06-18T08:43:08Z</time>
      </trkpt>
      <trkpt lat="45.25521" lon="6.18932">
        <ele>1550.4</ele>
        <time>2022-06-18T08:43:09Z</time>
      </trkpt>
      <trkpt lat="45.25518" lon="6.18928">
        <ele>1550.8</ele>
        <time>2022-06-18T08:43:10Z</time>
      </trkpt>
      <trkpt lat="45.25514" lon="6.18923">
        <ele>1551.3</ele>
        <time>2022-06-18T08:43:12Z</time>
      </trkpt>
      <trkpt lat="45.2551" lon="6.18918">
        <ele>1551.8</ele>
        <time>2022-06-18T08:43:13Z</time>
      </trkpt>
      <trkpt lat="45.25507" lon="6.18914">
        <ele>1552.2</ele>
        <time>2022-06-18T08:43:14Z</time>
      </trkpt>
      <trkpt lat="45.25504" lon="6.18909">
        <ele>1552.7</ele>
        <time>2022-06-18T08:43:16Z</time>
      </trkpt>
      <trkpt lat="45.25501" lon="6.18906">
        <ele>1553.1</ele>
        <time>2022-06-18T08:43:17Z</time>
      </trkpt>
      <trkpt lat="45.25498" lon="6.189">
        <ele>1553.5</ele>
        <time>2022-06-18T08:43:18Z</time>
      </trkpt>
      <trkpt lat="45.25496" lon="6.18896">
        <ele>1553.3</ele>
        <time>2022-06-18T08:43:20Z</time>
      </trkpt>
      <trkpt lat="45.25493" lon="6.1889">
        <ele>1553.1</ele>
        <time>2022-06-18T08:43:21Z</time>
      </trkpt>
      <trkpt lat="45.2549" lon="6.18885">
        <ele>1552.9</ele>
        <time>2022-06-18T08:43:22Z</time>
      </trkpt>
      <trkpt lat="45.25488" lon="6.18882">
        <ele>1552.9</ele>
        <time>2022-06-18T08:43:23Z</time>
      </trkpt>
      <trkpt lat="45.25485" lon="6.18877">
        <ele>1553.2</ele>
        <time>2022-06-18T08:43:25Z</time>
      </trkpt>
      <trkpt lat="45.25483" lon="6.18872">
        <ele>1553.4</ele>
        <time>2022-06-18T08:43:26Z</time>
      </trkpt>
      <trkpt lat="45.25481" lon="6.18869">
        <ele>1553.6</ele>
        <time>2022-06-18T08:43:27Z</time>
      </trkpt>
      <trkpt lat="45.25479" lon="6.18866">
        <ele>1553.8</ele>
        <time>2022-06-18T08:43:28Z</time>
      </trkpt>
      <trkpt lat="45.25476" lon="6.18863">
        <ele>1554</ele>
        <time>2022-06-18T08:43:29Z</time>
      </trkpt>
      <trkpt lat="45.25473" lon="6.1886">
        <ele>1554.2</ele>
        <time>2022-06-18T08:43:30Z</time>
      </trkpt>
      <trkpt lat="45.25471" lon="6.18858">
        <ele>1554.4</ele>
        <time>2022-06-18T08:43:31Z</time>
      </trkpt>
      <trkpt lat="45.25467" lon="6.18854">
        <ele>1554.7</ele>
        <time>2022-06-18T08:43:33Z</time>
      </trkpt>
      <trkpt lat="45.25463" lon="6.1885">
        <ele>1555</ele>
        <time>2022-06-18T08:43:34Z</time>
      </trkpt>
      <trkpt lat="45.2546" lon="6.18847">
        <ele>1555.2</ele>
        <time>2022-06-18T08:43:35Z</time>
      </trkpt>
      <trkpt lat="45.25456" lon="6.18843">
        <ele>1555.6</ele>
        <time>2022-06-18T08:43:37Z</time>
      </trkpt>
      <trkpt lat="45.25452" lon="6.18839">
        <ele>1555.8</ele>
        <time>2022-06-18T08:43:38Z</time>
      </trkpt>
      <trkpt lat="45.25449" lon="6.18835">
        <ele>1556.1</ele>
        <time>2022-06-18T08:43:39Z</time>
      </trkpt>
      <trkpt lat="45.25445" lon="6.1883">
        <ele>1556.4</ele>
        <time>2022-06-18T08:43:41Z</time>
      </trkpt>
      <trkpt lat="45.25442" lon="6.18826">
        <ele>1556.6</ele>
        <time>2022-06-18T08:43:42Z</time>
      </trkpt>
      <trkpt lat="45.2544" lon="6.18824">
        <ele>1556.8</ele>
        <time>2022-06-18T08:43:43Z</time>
      </trkpt>
      <trkpt lat="45.25437" lon="6.1882">
        <ele>1557</ele>
        <time>2022-06-18T08:43:45Z</time>
      </trkpt>
      <trkpt lat="45.25434" lon="6.18816">
        <ele>1557.3</ele>
        <time>2022-06-18T08:43:46Z</time>
      </trkpt>
      <trkpt lat="45.25432" lon="6.18813">
        <ele>1557.5</ele>
        <time>2022-06-18T08:43:47Z</time>
      </trkpt>
      <trkpt lat="45.25428" lon="6.18809">
        <ele>1557.8</ele>
        <time>2022-06-18T08:43:49Z</time>
      </trkpt>
      <trkpt lat="45.25425" lon="6.18806">
        <ele>1558</ele>
        <time>2022-06-18T08:43:50Z</time>
      </trkpt>
      <trkpt lat="45.25422" lon="6.18803">
        <ele>1558.3</ele>
        <time>2022-06-18T08:43:51Z</time>
      </trkpt>
      <trkpt lat="45.2542" lon="6.188">
        <ele>1558.5</ele>
        <time>2022-06-18T08:43:52Z</time>
      </trkpt>
      <trkpt lat="45.25417" lon="6.18796">
        <ele>1558.7</ele>
        <time>2022-06-18T08:43:53Z</time>
      </trkpt>
      <trkpt lat="45.25415" lon="6.18792">
        <ele>1558.9</ele>
        <time>2022-06-18T08:43:54Z</time>
      </trkpt>
      <trkpt lat="45.25413" lon="6.18788">
        <ele>1559.2</ele>
        <time>2022-06-18T08:43:55Z</time>
      </trkpt>
      <trkpt lat="45.25411" lon="6.18784">
        <ele>1559.4</ele>
        <time>2022-06-18T08:43:57Z</time>
      </trkpt>
      <trkpt lat="45.25409" lon="6.18778">
        <ele>1559.7</ele>
        <time>2022-06-18T08:43:58Z</time>
      </trkpt>
      <trkpt lat="45.25407" lon="6.18774">
        <ele>1559.9</ele>
        <time>2022-06-18T08:43:59Z</time>
      </trkpt>
      <trkpt lat="45.25406" lon="6.1877">
        <ele>1560.1</ele>
        <time>2022-06-18T08:44:00Z</time>
      </trkpt>
      <trkpt lat="45.25404" lon="6.18763">
        <ele>1560.5</ele>
        <time>2022-06-18T08:44:02Z</time>
      </trkpt>
      <trkpt lat="45.25404" lon="6.18759">
        <ele>1560.7</ele>
        <time>2022-06-18T08:44:03Z</time>
      </trkpt>
      <trkpt lat="45.25403" lon="6.18753">
        <ele>1561</ele>
        <time>2022-06-18T08:44:04Z</time>
      </trkpt>
      <trkpt lat="45.25402" lon="6.18749">
        <ele>1561.2</ele>
        <time>2022-06-18T08:44:05Z</time>
      </trkpt>
      <trkpt lat="45.25401" lon="6.18744">
        <ele>1561.5</ele>
        <time>2022-06-18T08:44:06Z</time>
      </trkpt>
      <trkpt lat="45.254" lon="6.1874">
        <ele>1561.7</ele>
        <time>2022-06-18T08:44:07Z</time>
      </trkpt>
      <trkpt lat="45.25398" lon="6.18734">
        <ele>1562</ele>
        <time>2022-06-18T08:44:09Z</time>
      </trkpt>
      <trkpt lat="45.25396" lon="6.18726">
        <ele>1562.4</ele>
        <time>2022-06-18T08:44:10Z</time>
      </trkpt>
      <trkpt lat="45.25394" lon="6.18721">
        <ele>1562.7</ele>
        <time>2022-06-18T08:44:11Z</time>
      </trkpt>
      <trkpt lat="45.25393" lon="6.18718">
        <ele>1562.9</ele>
        <time>2022-06-18T08:44:12Z</time>
      </trkpt>
      <trkpt lat="45.25392" lon="6.18713">
        <ele>1563.1</ele>
        <time>2022-06-18T08:44:13Z</time>
      </trkpt>
      <trkpt lat="45.2539" lon="6.1871">
        <ele>1563.3</ele>
        <time>2022-06-18T08:44:14Z</time>
      </trkpt>
      <trkpt lat="45.25388" lon="6.18707">
        <ele>1563.5</ele>
        <time>2022-06-18T08:44:15Z</time>
      </trkpt>
      <trkpt lat="45.25384" lon="6.18705">
        <ele>1563.8</ele>
        <time>2022-06-18T08:44:17Z</time>
      </trkpt>
      <trkpt lat="45.2538" lon="6.18702">
        <ele>1564.1</ele>
        <time>2022-06-18T08:44:18Z</time>
      </trkpt>
      <trkpt lat="45.25376" lon="6.187">
        <ele>1564.3</ele>
        <time>2022-06-18T08:44:19Z</time>
      </trkpt>
      <trkpt lat="45.25373" lon="6.18699">
        <ele>1564.6</ele>
        <time>2022-06-18T08:44:20Z</time>
      </trkpt>
      <trkpt lat="45.25367" lon="6.18697">
        <ele>1564.9</ele>
        <time>2022-06-18T08:44:22Z</time>
      </trkpt>
      <trkpt lat="45.25363" lon="6.18694">
        <ele>1565.2</ele>
        <time>2022-06-18T08:44:23Z</time>
      </trkpt>
      <trkpt lat="45.2536" lon="6.18689">
        <ele>1565.4</ele>
        <time>2022-06-18T08:44:24Z</time>
      </trkpt>
      <trkpt lat="45.25358" lon="6.18685">
        <ele>1565.7</ele>
        <time>2022-06-18T08:44:25Z</time>
      </trkpt>
      <trkpt lat="45.25357" lon="6.18681">
        <ele>1565.9</ele>
        <time>2022-06-18T08:44:26Z</time>
      </trkpt>
      <trkpt lat="45.25356" lon="6.18677">
        <ele>1565.9</ele>
        <time>2022-06-18T08:44:27Z</time>
      </trkpt>
      <trkpt lat="45.25356" lon="6.18669">
        <ele>1565.3</ele>
        <time>2022-06-18T08:44:29Z</time>
      </trkpt>
      <trkpt lat="45.25355" lon="6.18663">
        <ele>1564.7</ele>
        <time>2022-06-18T08:44:30Z</time>
      </trkpt>
      <trkpt lat="45.25355" lon="6.18659">
        <ele>1564.4</ele>
        <time>2022-06-18T08:44:31Z</time>
      </trkpt>
      <trkpt lat="45.25355" lon="6.18655">
        <ele>1564</ele>
        <time>2022-06-18T08:44:33Z</time>
      </trkpt>
      <trkpt lat="45.25355" lon="6.18648">
        <ele>1564.1</ele>
        <time>2022-06-18T08:44:34Z</time>
      </trkpt>
      <trkpt lat="45.25356" lon="6.18642">
        <ele>1564.8</ele>
        <time>2022-06-18T08:44:35Z</time>
      </trkpt>
      <trkpt lat="45.25356" lon="6.1864">
        <ele>1565.1</ele>
        <time>2022-06-18T08:44:36Z</time>
      </trkpt>
      <trkpt lat="45.25355" lon="6.18637">
        <ele>1565.5</ele>
        <time>2022-06-18T08:44:37Z</time>
      </trkpt>
      <trkpt lat="45.25353" lon="6.18633">
        <ele>1566.1</ele>
        <time>2022-06-18T08:44:39Z</time>
      </trkpt>
      <trkpt lat="45.25352" lon="6.18629">
        <ele>1566.6</ele>
        <time>2022-06-18T08:44:40Z</time>
      </trkpt>
      <trkpt lat="45.25348" lon="6.18624">
        <ele>1567.6</ele>
        <time>2022-06-18T08:44:41Z</time>
      </trkpt>
      <trkpt lat="45.25342" lon="6.1862">
        <ele>1568.7</ele>
        <time>2022-06-18T08:44:42Z</time>
      </trkpt>
      <trkpt lat="45.25339" lon="6.18618">
        <ele>1569.3</ele>
        <time>2022-06-18T08:44:43Z</time>
      </trkpt>
      <trkpt lat="45.25335" lon="6.18617">
        <ele>1570</ele>
        <time>2022-06-18T08:44:44Z</time>
      </trkpt>
      <trkpt lat="45.25332" lon="6.18615">
        <ele>1570.5</ele>
        <time>2022-06-18T08:44:45Z</time>
      </trkpt>
      <trkpt lat="45.25328" lon="6.18612">
        <ele>1571.3</ele>
        <time>2022-06-18T08:44:46Z</time>
      </trkpt>
      <trkpt lat="45.25326" lon="6.18611">
        <ele>1571.7</ele>
        <time>2022-06-18T08:44:47Z</time>
      </trkpt>
      <trkpt lat="45.2532" lon="6.18607">
        <ele>1572.7</ele>
        <time>2022-06-18T08:44:48Z</time>
      </trkpt>
      <trkpt lat="45.25315" lon="6.18604">
        <ele>1573.6</ele>
        <time>2022-06-18T08:44:49Z</time>
      </trkpt>
      <trkpt lat="45.2531" lon="6.18599">
        <ele>1574.7</ele>
        <time>2022-06-18T08:44:51Z</time>
      </trkpt>
      <trkpt lat="45.25306" lon="6.18596">
        <ele>1575.4</ele>
        <time>2022-06-18T08:44:52Z</time>
      </trkpt>
      <trkpt lat="45.25301" lon="6.18592">
        <ele>1576.3</ele>
        <time>2022-06-18T08:44:53Z</time>
      </trkpt>
      <trkpt lat="45.25298" lon="6.18589">
        <ele>1577</ele>
        <time>2022-06-18T08:44:54Z</time>
      </trkpt>
      <trkpt lat="45.25295" lon="6.18586">
        <ele>1577.6</ele>
        <time>2022-06-18T08:44:55Z</time>
      </trkpt>
      <trkpt lat="45.25291" lon="6.18583">
        <ele>1578.3</ele>
        <time>2022-06-18T08:44:56Z</time>
      </trkpt>
      <trkpt lat="45.25288" lon="6.1858">
        <ele>1579</ele>
        <time>2022-06-18T08:44:57Z</time>
      </trkpt>
      <trkpt lat="45.25285" lon="6.18576">
        <ele>1579.7</ele>
        <time>2022-06-18T08:44:58Z</time>
      </trkpt>
      <trkpt lat="45.2528" lon="6.1857">
        <ele>1580.8</ele>
        <time>2022-06-18T08:44:59Z</time>
      </trkpt>
      <trkpt lat="45.25277" lon="6.18568">
        <ele>1581.3</ele>
        <time>2022-06-18T08:45:00Z</time>
      </trkpt>
      <trkpt lat="45.25274" lon="6.18566">
        <ele>1582.1</ele>
        <time>2022-06-18T08:45:02Z</time>
      </trkpt>
      <trkpt lat="45.2527" lon="6.18558">
        <ele>1583.4</ele>
        <time>2022-06-18T08:45:03Z</time>
      </trkpt>
      <trkpt lat="45.25267" lon="6.18553">
        <ele>1584.2</ele>
        <time>2022-06-18T08:45:04Z</time>
      </trkpt>
      <trkpt lat="45.25264" lon="6.18549">
        <ele>1585.1</ele>
        <time>2022-06-18T08:45:05Z</time>
      </trkpt>
      <trkpt lat="45.2526" lon="6.18545">
        <ele>1585.9</ele>
        <time>2022-06-18T08:45:06Z</time>
      </trkpt>
      <trkpt lat="45.25257" lon="6.18542">
        <ele>1586.6</ele>
        <time>2022-06-18T08:45:07Z</time>
      </trkpt>
      <trkpt lat="45.25254" lon="6.18538">
        <ele>1587.5</ele>
        <time>2022-06-18T08:45:08Z</time>
      </trkpt>
      <trkpt lat="45.25251" lon="6.18534">
        <ele>1588.2</ele>
        <time>2022-06-18T08:45:09Z</time>
      </trkpt>
      <trkpt lat="45.25249" lon="6.18529">
        <ele>1589</ele>
        <time>2022-06-18T08:45:10Z</time>
      </trkpt>
      <trkpt lat="45.25246" lon="6.18518">
        <ele>1589.9</ele>
        <time>2022-06-18T08:45:12Z</time>
      </trkpt>
      <trkpt lat="45.25245" lon="6.18511">
        <ele>1590</ele>
        <time>2022-06-18T08:45:13Z</time>
      </trkpt>
      <trkpt lat="45.25246" lon="6.18501">
        <ele>1590.2</ele>
        <time>2022-06-18T08:45:15Z</time>
      </trkpt>
      <trkpt lat="45.25246" lon="6.18494">
        <ele>1590.2</ele>
        <time>2022-06-18T08:45:16Z</time>
      </trkpt>
      <trkpt lat="45.25247" lon="6.18487">
        <ele>1590.2</ele>
        <time>2022-06-18T08:45:17Z</time>
      </trkpt>
      <trkpt lat="45.25247" lon="6.18479">
        <ele>1590.1</ele>
        <time>2022-06-18T08:45:19Z</time>
      </trkpt>
      <trkpt lat="45.25246" lon="6.18471">
        <ele>1590.1</ele>
        <time>2022-06-18T08:45:20Z</time>
      </trkpt>
      <trkpt lat="45.25245" lon="6.18464">
        <ele>1590.1</ele>
        <time>2022-06-18T08:45:21Z</time>
      </trkpt>
      <trkpt lat="45.25241" lon="6.1845">
        <ele>1590.1</ele>
        <time>2022-06-18T08:45:24Z</time>
      </trkpt>
      <trkpt lat="45.25239" lon="6.18444">
        <ele>1590.1</ele>
        <time>2022-06-18T08:45:25Z</time>
      </trkpt>
      <trkpt lat="45.25237" lon="6.18437">
        <ele>1590.1</ele>
        <time>2022-06-18T08:45:26Z</time>
      </trkpt>
      <trkpt lat="45.25236" lon="6.18431">
        <ele>1590.2</ele>
        <time>2022-06-18T08:45:27Z</time>
      </trkpt>
      <trkpt lat="45.25234" lon="6.18423">
        <ele>1590.2</ele>
        <time>2022-06-18T08:45:28Z</time>
      </trkpt>
      <trkpt lat="45.25232" lon="6.18416">
        <ele>1590.3</ele>
        <time>2022-06-18T08:45:29Z</time>
      </trkpt>
      <trkpt lat="45.25231" lon="6.18411">
        <ele>1590.3</ele>
        <time>2022-06-18T08:45:30Z</time>
      </trkpt>
      <trkpt lat="45.25229" lon="6.18406">
        <ele>1590.4</ele>
        <time>2022-06-18T08:45:31Z</time>
      </trkpt>
      <trkpt lat="45.25228" lon="6.18399">
        <ele>1590.4</ele>
        <time>2022-06-18T08:45:32Z</time>
      </trkpt>
      <trkpt lat="45.25228" lon="6.18391">
        <ele>1590.5</ele>
        <time>2022-06-18T08:45:33Z</time>
      </trkpt>
      <trkpt lat="45.25227" lon="6.18384">
        <ele>1590.6</ele>
        <time>2022-06-18T08:45:34Z</time>
      </trkpt>
      <trkpt lat="45.25227" lon="6.1838">
        <ele>1590.7</ele>
        <time>2022-06-18T08:45:35Z</time>
      </trkpt>
      <trkpt lat="45.25226" lon="6.18375">
        <ele>1590.8</ele>
        <time>2022-06-18T08:45:37Z</time>
      </trkpt>
      <trkpt lat="45.25225" lon="6.18365">
        <ele>1590.9</ele>
        <time>2022-06-18T08:45:38Z</time>
      </trkpt>
      <trkpt lat="45.25224" lon="6.18356">
        <ele>1591.1</ele>
        <time>2022-06-18T08:45:39Z</time>
      </trkpt>
      <trkpt lat="45.25224" lon="6.18349">
        <ele>1591.2</ele>
        <time>2022-06-18T08:45:40Z</time>
      </trkpt>
      <trkpt lat="45.25223" lon="6.18342">
        <ele>1591.4</ele>
        <time>2022-06-18T08:45:41Z</time>
      </trkpt>
      <trkpt lat="45.25222" lon="6.18336">
        <ele>1591.5</ele>
        <time>2022-06-18T08:45:42Z</time>
      </trkpt>
      <trkpt lat="45.25221" lon="6.18329">
        <ele>1591.6</ele>
        <time>2022-06-18T08:45:43Z</time>
      </trkpt>
      <trkpt lat="45.25218" lon="6.1832">
        <ele>1591.8</ele>
        <time>2022-06-18T08:45:45Z</time>
      </trkpt>
      <trkpt lat="45.25216" lon="6.18314">
        <ele>1591.9</ele>
        <time>2022-06-18T08:45:46Z</time>
      </trkpt>
      <trkpt lat="45.25213" lon="6.18307">
        <ele>1592</ele>
        <time>2022-06-18T08:45:47Z</time>
      </trkpt>
      <trkpt lat="45.25209" lon="6.18302">
        <ele>1592.1</ele>
        <time>2022-06-18T08:45:48Z</time>
      </trkpt>
      <trkpt lat="45.25206" lon="6.18299">
        <ele>1592.2</ele>
        <time>2022-06-18T08:45:49Z</time>
      </trkpt>
      <trkpt lat="45.25202" lon="6.18293">
        <ele>1592.4</ele>
        <time>2022-06-18T08:45:51Z</time>
      </trkpt>
      <trkpt lat="45.25198" lon="6.18282">
        <ele>1592.6</ele>
        <time>2022-06-18T08:45:52Z</time>
      </trkpt>
      <trkpt lat="45.25197" lon="6.18274">
        <ele>1592.8</ele>
        <time>2022-06-18T08:45:54Z</time>
      </trkpt>
      <trkpt lat="45.25193" lon="6.18266">
        <ele>1593</ele>
        <time>2022-06-18T08:45:55Z</time>
      </trkpt>
      <trkpt lat="45.25191" lon="6.1826">
        <ele>1593.2</ele>
        <time>2022-06-18T08:45:56Z</time>
      </trkpt>
      <trkpt lat="45.25189" lon="6.18255">
        <ele>1593.3</ele>
        <time>2022-06-18T08:45:57Z</time>
      </trkpt>
      <trkpt lat="45.25188" lon="6.18248">
        <ele>1593.5</ele>
        <time>2022-06-18T08:45:58Z</time>
      </trkpt>
      <trkpt lat="45.25186" lon="6.18241">
        <ele>1593.7</ele>
        <time>2022-06-18T08:46:00Z</time>
      </trkpt>
      <trkpt lat="45.25184" lon="6.18235">
        <ele>1593.9</ele>
        <time>2022-06-18T08:46:01Z</time>
      </trkpt>
      <trkpt lat="45.25183" lon="6.1823">
        <ele>1594</ele>
        <time>2022-06-18T08:46:02Z</time>
      </trkpt>
      <trkpt lat="45.25181" lon="6.18226">
        <ele>1594.1</ele>
        <time>2022-06-18T08:46:03Z</time>
      </trkpt>
      <trkpt lat="45.25178" lon="6.18223">
        <ele>1594.2</ele>
        <time>2022-06-18T08:46:04Z</time>
      </trkpt>
      <trkpt lat="45.25174" lon="6.1822">
        <ele>1594.3</ele>
        <time>2022-06-18T08:46:05Z</time>
      </trkpt>
      <trkpt lat="45.25168" lon="6.18217">
        <ele>1594.4</ele>
        <time>2022-06-18T08:46:07Z</time>
      </trkpt>
      <trkpt lat="45.25164" lon="6.18215">
        <ele>1594.5</ele>
        <time>2022-06-18T08:46:08Z</time>
      </trkpt>
      <trkpt lat="45.25158" lon="6.18213">
        <ele>1594.5</ele>
        <time>2022-06-18T08:46:09Z</time>
      </trkpt>
      <trkpt lat="45.25153" lon="6.1821">
        <ele>1594.5</ele>
        <time>2022-06-18T08:46:10Z</time>
      </trkpt>
      <trkpt lat="45.25148" lon="6.18207">
        <ele>1594.1</ele>
        <time>2022-06-18T08:46:11Z</time>
      </trkpt>
      <trkpt lat="45.25142" lon="6.18202">
        <ele>1593.5</ele>
        <time>2022-06-18T08:46:12Z</time>
      </trkpt>
      <trkpt lat="45.2514" lon="6.18199">
        <ele>1593.5</ele>
        <time>2022-06-18T08:46:13Z</time>
      </trkpt>
      <trkpt lat="45.25136" lon="6.18196">
        <ele>1593.8</ele>
        <time>2022-06-18T08:46:14Z</time>
      </trkpt>
      <trkpt lat="45.25132" lon="6.18192">
        <ele>1594.1</ele>
        <time>2022-06-18T08:46:15Z</time>
      </trkpt>
      <trkpt lat="45.25128" lon="6.18188">
        <ele>1594.3</ele>
        <time>2022-06-18T08:46:16Z</time>
      </trkpt>
      <trkpt lat="45.25122" lon="6.18183">
        <ele>1594.8</ele>
        <time>2022-06-18T08:46:18Z</time>
      </trkpt>
      <trkpt lat="45.25115" lon="6.18177">
        <ele>1595.3</ele>
        <time>2022-06-18T08:46:19Z</time>
      </trkpt>
      <trkpt lat="45.25111" lon="6.18174">
        <ele>1595.7</ele>
        <time>2022-06-18T08:46:20Z</time>
      </trkpt>
      <trkpt lat="45.25107" lon="6.18171">
        <ele>1596</ele>
        <time>2022-06-18T08:46:21Z</time>
      </trkpt>
      <trkpt lat="45.25102" lon="6.18169">
        <ele>1596.4</ele>
        <time>2022-06-18T08:46:22Z</time>
      </trkpt>
      <trkpt lat="45.25098" lon="6.18168">
        <ele>1596.8</ele>
        <time>2022-06-18T08:46:23Z</time>
      </trkpt>
      <trkpt lat="45.25093" lon="6.18167">
        <ele>1597.1</ele>
        <time>2022-06-18T08:46:24Z</time>
      </trkpt>
      <trkpt lat="45.2509" lon="6.18162">
        <ele>1597.5</ele>
        <time>2022-06-18T08:46:26Z</time>
      </trkpt>
      <trkpt lat="45.25081" lon="6.1816">
        <ele>1598.2</ele>
        <time>2022-06-18T08:46:27Z</time>
      </trkpt>
      <trkpt lat="45.25077" lon="6.18157">
        <ele>1598.6</ele>
        <time>2022-06-18T08:46:28Z</time>
      </trkpt>
      <trkpt lat="45.25074" lon="6.18151">
        <ele>1599.1</ele>
        <time>2022-06-18T08:46:30Z</time>
      </trkpt>
      <trkpt lat="45.25073" lon="6.18147">
        <ele>1599.3</ele>
        <time>2022-06-18T08:46:31Z</time>
      </trkpt>
      <trkpt lat="45.2507" lon="6.18139">
        <ele>1599.8</ele>
        <time>2022-06-18T08:46:32Z</time>
      </trkpt>
      <trkpt lat="45.25068" lon="6.18134">
        <ele>1600.1</ele>
        <time>2022-06-18T08:46:33Z</time>
      </trkpt>
      <trkpt lat="45.25066" lon="6.18129">
        <ele>1600.4</ele>
        <time>2022-06-18T08:46:34Z</time>
      </trkpt>
      <trkpt lat="45.25065" lon="6.18123">
        <ele>1600.8</ele>
        <time>2022-06-18T08:46:35Z</time>
      </trkpt>
      <trkpt lat="45.25064" lon="6.18118">
        <ele>1601</ele>
        <time>2022-06-18T08:46:36Z</time>
      </trkpt>
      <trkpt lat="45.25061" lon="6.18111">
        <ele>1601.5</ele>
        <time>2022-06-18T08:46:38Z</time>
      </trkpt>
      <trkpt lat="45.25058" lon="6.18105">
        <ele>1601.8</ele>
        <time>2022-06-18T08:46:39Z</time>
      </trkpt>
      <trkpt lat="45.25056" lon="6.18101">
        <ele>1602.1</ele>
        <time>2022-06-18T08:46:40Z</time>
      </trkpt>
      <trkpt lat="45.25053" lon="6.18097">
        <ele>1602.3</ele>
        <time>2022-06-18T08:46:42Z</time>
      </trkpt>
      <trkpt lat="45.2505" lon="6.18094">
        <ele>1602.6</ele>
        <time>2022-06-18T08:46:43Z</time>
      </trkpt>
      <trkpt lat="45.25047" lon="6.18091">
        <ele>1602.9</ele>
        <time>2022-06-18T08:46:44Z</time>
      </trkpt>
      <trkpt lat="45.25043" lon="6.18088">
        <ele>1603.2</ele>
        <time>2022-06-18T08:46:45Z</time>
      </trkpt>
      <trkpt lat="45.2504" lon="6.18085">
        <ele>1603.5</ele>
        <time>2022-06-18T08:46:46Z</time>
      </trkpt>
      <trkpt lat="45.25038" lon="6.18082">
        <ele>1603.8</ele>
        <time>2022-06-18T08:46:47Z</time>
      </trkpt>
      <trkpt lat="45.25036" lon="6.18078">
        <ele>1604</ele>
        <time>2022-06-18T08:46:48Z</time>
      </trkpt>
      <trkpt lat="45.25032" lon="6.18073">
        <ele>1604.4</ele>
        <time>2022-06-18T08:46:50Z</time>
      </trkpt>
      <trkpt lat="45.25029" lon="6.18069">
        <ele>1604.8</ele>
        <time>2022-06-18T08:46:51Z</time>
      </trkpt>
      <trkpt lat="45.25026" lon="6.18064">
        <ele>1605.2</ele>
        <time>2022-06-18T08:46:52Z</time>
      </trkpt>
      <trkpt lat="45.25022" lon="6.18059">
        <ele>1605.7</ele>
        <time>2022-06-18T08:46:54Z</time>
      </trkpt>
      <trkpt lat="45.25019" lon="6.18054">
        <ele>1606.1</ele>
        <time>2022-06-18T08:46:55Z</time>
      </trkpt>
      <trkpt lat="45.25017" lon="6.18051">
        <ele>1606.4</ele>
        <time>2022-06-18T08:46:56Z</time>
      </trkpt>
      <trkpt lat="45.25013" lon="6.18046">
        <ele>1606.8</ele>
        <time>2022-06-18T08:46:58Z</time>
      </trkpt>
      <trkpt lat="45.25009" lon="6.18041">
        <ele>1607.3</ele>
        <time>2022-06-18T08:46:59Z</time>
      </trkpt>
      <trkpt lat="45.25006" lon="6.18037">
        <ele>1607.6</ele>
        <time>2022-06-18T08:47:01Z</time>
      </trkpt>
      <trkpt lat="45.25003" lon="6.18033">
        <ele>1608</ele>
        <time>2022-06-18T08:47:02Z</time>
      </trkpt>
      <trkpt lat="45.25" lon="6.18029">
        <ele>1608.3</ele>
        <time>2022-06-18T08:47:03Z</time>
      </trkpt>
      <trkpt lat="45.24997" lon="6.18025">
        <ele>1608.7</ele>
        <time>2022-06-18T08:47:04Z</time>
      </trkpt>
      <trkpt lat="45.24995" lon="6.18022">
        <ele>1609</ele>
        <time>2022-06-18T08:47:05Z</time>
      </trkpt>
      <trkpt lat="45.24992" lon="6.18019">
        <ele>1609.3</ele>
        <time>2022-06-18T08:47:06Z</time>
      </trkpt>
      <trkpt lat="45.24988" lon="6.18015">
        <ele>1609.7</ele>
        <time>2022-06-18T08:47:08Z</time>
      </trkpt>
      <trkpt lat="45.24984" lon="6.18009">
        <ele>1610.1</ele>
        <time>2022-06-18T08:47:09Z</time>
      </trkpt>
      <trkpt lat="45.24982" lon="6.18005">
        <ele>1610.5</ele>
        <time>2022-06-18T08:47:11Z</time>
      </trkpt>
      <trkpt lat="45.24979" lon="6.18">
        <ele>1610.8</ele>
        <time>2022-06-18T08:47:12Z</time>
      </trkpt>
      <trkpt lat="45.24977" lon="6.17995">
        <ele>1611.2</ele>
        <time>2022-06-18T08:47:13Z</time>
      </trkpt>
      <trkpt lat="45.24976" lon="6.17991">
        <ele>1611.5</ele>
        <time>2022-06-18T08:47:15Z</time>
      </trkpt>
      <trkpt lat="45.24974" lon="6.17987">
        <ele>1611.8</ele>
        <time>2022-06-18T08:47:16Z</time>
      </trkpt>
      <trkpt lat="45.24972" lon="6.17983">
        <ele>1612.1</ele>
        <time>2022-06-18T08:47:17Z</time>
      </trkpt>
      <trkpt lat="45.24969" lon="6.17978">
        <ele>1612.4</ele>
        <time>2022-06-18T08:47:18Z</time>
      </trkpt>
      <trkpt lat="45.24967" lon="6.17974">
        <ele>1612.7</ele>
        <time>2022-06-18T08:47:19Z</time>
      </trkpt>
      <trkpt lat="45.24965" lon="6.1797">
        <ele>1613</ele>
        <time>2022-06-18T08:47:20Z</time>
      </trkpt>
      <trkpt lat="45.24963" lon="6.17964">
        <ele>1613.4</ele>
        <time>2022-06-18T08:47:21Z</time>
      </trkpt>
      <trkpt lat="45.2496" lon="6.17955">
        <ele>1614</ele>
        <time>2022-06-18T08:47:23Z</time>
      </trkpt>
      <trkpt lat="45.24958" lon="6.1795">
        <ele>1614.3</ele>
        <time>2022-06-18T08:47:25Z</time>
      </trkpt>
      <trkpt lat="45.24956" lon="6.17944">
        <ele>1614.7</ele>
        <time>2022-06-18T08:47:26Z</time>
      </trkpt>
      <trkpt lat="45.24955" lon="6.17939">
        <ele>1615</ele>
        <time>2022-06-18T08:47:27Z</time>
      </trkpt>
      <trkpt lat="45.24954" lon="6.17934">
        <ele>1615.3</ele>
        <time>2022-06-18T08:47:28Z</time>
      </trkpt>
      <trkpt lat="45.24953" lon="6.1793">
        <ele>1615.6</ele>
        <time>2022-06-18T08:47:29Z</time>
      </trkpt>
      <trkpt lat="45.24951" lon="6.17925">
        <ele>1615.8</ele>
        <time>2022-06-18T08:47:30Z</time>
      </trkpt>
      <trkpt lat="45.2495" lon="6.17922">
        <ele>1616.1</ele>
        <time>2022-06-18T08:47:31Z</time>
      </trkpt>
      <trkpt lat="45.24948" lon="6.17917">
        <ele>1616.3</ele>
        <time>2022-06-18T08:47:32Z</time>
      </trkpt>
      <trkpt lat="45.24947" lon="6.17912">
        <ele>1616.3</ele>
        <time>2022-06-18T08:47:33Z</time>
      </trkpt>
      <trkpt lat="45.24945" lon="6.17907">
        <ele>1616.3</ele>
        <time>2022-06-18T08:47:34Z</time>
      </trkpt>
      <trkpt lat="45.24943" lon="6.17901">
        <ele>1616.3</ele>
        <time>2022-06-18T08:47:36Z</time>
      </trkpt>
      <trkpt lat="45.24941" lon="6.17894">
        <ele>1616.2</ele>
        <time>2022-06-18T08:47:37Z</time>
      </trkpt>
      <trkpt lat="45.2494" lon="6.17889">
        <ele>1616</ele>
        <time>2022-06-18T08:47:38Z</time>
      </trkpt>
      <trkpt lat="45.24939" lon="6.17885">
        <ele>1615.9</ele>
        <time>2022-06-18T08:47:39Z</time>
      </trkpt>
      <trkpt lat="45.24937" lon="6.1788">
        <ele>1615.7</ele>
        <time>2022-06-18T08:47:41Z</time>
      </trkpt>
      <trkpt lat="45.24935" lon="6.17875">
        <ele>1615.5</ele>
        <time>2022-06-18T08:47:42Z</time>
      </trkpt>
      <trkpt lat="45.24933" lon="6.17871">
        <ele>1615.3</ele>
        <time>2022-06-18T08:47:43Z</time>
      </trkpt>
      <trkpt lat="45.24929" lon="6.17867">
        <ele>1615</ele>
        <time>2022-06-18T08:47:44Z</time>
      </trkpt>
      <trkpt lat="45.24924" lon="6.17863">
        <ele>1614.7</ele>
        <time>2022-06-18T08:47:45Z</time>
      </trkpt>
      <trkpt lat="45.24919" lon="6.17858">
        <ele>1614.4</ele>
        <time>2022-06-18T08:47:47Z</time>
      </trkpt>
      <trkpt lat="45.24915" lon="6.17855">
        <ele>1614.2</ele>
        <time>2022-06-18T08:47:48Z</time>
      </trkpt>
      <trkpt lat="45.2491" lon="6.17851">
        <ele>1614</ele>
        <time>2022-06-18T08:47:49Z</time>
      </trkpt>
      <trkpt lat="45.24907" lon="6.17849">
        <ele>1613.8</ele>
        <time>2022-06-18T08:47:50Z</time>
      </trkpt>
      <trkpt lat="45.24903" lon="6.17846">
        <ele>1613.7</ele>
        <time>2022-06-18T08:47:51Z</time>
      </trkpt>
      <trkpt lat="45.24899" lon="6.17843">
        <ele>1613.6</ele>
        <time>2022-06-18T08:47:52Z</time>
      </trkpt>
      <trkpt lat="45.24896" lon="6.1784">
        <ele>1613.6</ele>
        <time>2022-06-18T08:47:54Z</time>
      </trkpt>
      <trkpt lat="45.24892" lon="6.17837">
        <ele>1613.5</ele>
        <time>2022-06-18T08:47:55Z</time>
      </trkpt>
      <trkpt lat="45.24889" lon="6.17834">
        <ele>1613.5</ele>
        <time>2022-06-18T08:47:56Z</time>
      </trkpt>
      <trkpt lat="45.24885" lon="6.17832">
        <ele>1613.6</ele>
        <time>2022-06-18T08:47:57Z</time>
      </trkpt>
      <trkpt lat="45.24882" lon="6.17829">
        <ele>1613.6</ele>
        <time>2022-06-18T08:47:58Z</time>
      </trkpt>
      <trkpt lat="45.2488" lon="6.17827">
        <ele>1613.7</ele>
        <time>2022-06-18T08:47:59Z</time>
      </trkpt>
      <trkpt lat="45.24875" lon="6.17824">
        <ele>1613.8</ele>
        <time>2022-06-18T08:48:01Z</time>
      </trkpt>
      <trkpt lat="45.24872" lon="6.17822">
        <ele>1614</ele>
        <time>2022-06-18T08:48:02Z</time>
      </trkpt>
      <trkpt lat="45.24868" lon="6.1782">
        <ele>1614.1</ele>
        <time>2022-06-18T08:48:03Z</time>
      </trkpt>
      <trkpt lat="45.24865" lon="6.17818">
        <ele>1614.2</ele>
        <time>2022-06-18T08:48:04Z</time>
      </trkpt>
      <trkpt lat="45.24861" lon="6.17816">
        <ele>1614.4</ele>
        <time>2022-06-18T08:48:05Z</time>
      </trkpt>
      <trkpt lat="45.24858" lon="6.17814">
        <ele>1614.6</ele>
        <time>2022-06-18T08:48:06Z</time>
      </trkpt>
      <trkpt lat="45.24855" lon="6.17811">
        <ele>1614.8</ele>
        <time>2022-06-18T08:48:07Z</time>
      </trkpt>
      <trkpt lat="45.24852" lon="6.17809">
        <ele>1615</ele>
        <time>2022-06-18T08:48:08Z</time>
      </trkpt>
      <trkpt lat="45.2485" lon="6.17806">
        <ele>1615.1</ele>
        <time>2022-06-18T08:48:09Z</time>
      </trkpt>
      <trkpt lat="45.24847" lon="6.17804">
        <ele>1615.3</ele>
        <time>2022-06-18T08:48:10Z</time>
      </trkpt>
      <trkpt lat="45.24844" lon="6.17801">
        <ele>1615.5</ele>
        <time>2022-06-18T08:48:11Z</time>
      </trkpt>
      <trkpt lat="45.24841" lon="6.17798">
        <ele>1615.6</ele>
        <time>2022-06-18T08:48:12Z</time>
      </trkpt>
      <trkpt lat="45.24839" lon="6.17795">
        <ele>1615.8</ele>
        <time>2022-06-18T08:48:13Z</time>
      </trkpt>
      <trkpt lat="45.24836" lon="6.17792">
        <ele>1615.9</ele>
        <time>2022-06-18T08:48:14Z</time>
      </trkpt>
      <trkpt lat="45.24833" lon="6.17788">
        <ele>1616.1</ele>
        <time>2022-06-18T08:48:15Z</time>
      </trkpt>
      <trkpt lat="45.2483" lon="6.17782">
        <ele>1616.2</ele>
        <time>2022-06-18T08:48:17Z</time>
      </trkpt>
      <trkpt lat="45.24827" lon="6.17776">
        <ele>1616.4</ele>
        <time>2022-06-18T08:48:18Z</time>
      </trkpt>
      <trkpt lat="45.24826" lon="6.17772">
        <ele>1616.4</ele>
        <time>2022-06-18T08:48:19Z</time>
      </trkpt>
      <trkpt lat="45.24825" lon="6.17767">
        <ele>1616.5</ele>
        <time>2022-06-18T08:48:21Z</time>
      </trkpt>
      <trkpt lat="45.24823" lon="6.17762">
        <ele>1616.6</ele>
        <time>2022-06-18T08:48:22Z</time>
      </trkpt>
      <trkpt lat="45.24822" lon="6.17759">
        <ele>1616.6</ele>
        <time>2022-06-18T08:48:23Z</time>
      </trkpt>
      <trkpt lat="45.2482" lon="6.17755">
        <ele>1616.7</ele>
        <time>2022-06-18T08:48:24Z</time>
      </trkpt>
      <trkpt lat="45.24819" lon="6.17751">
        <ele>1616.7</ele>
        <time>2022-06-18T08:48:25Z</time>
      </trkpt>
      <trkpt lat="45.24817" lon="6.17747">
        <ele>1616.8</ele>
        <time>2022-06-18T08:48:26Z</time>
      </trkpt>
      <trkpt lat="45.24816" lon="6.17744">
        <ele>1616.9</ele>
        <time>2022-06-18T08:48:27Z</time>
      </trkpt>
      <trkpt lat="45.24814" lon="6.17741">
        <ele>1617</ele>
        <time>2022-06-18T08:48:28Z</time>
      </trkpt>
      <trkpt lat="45.24812" lon="6.17736">
        <ele>1617.1</ele>
        <time>2022-06-18T08:48:29Z</time>
      </trkpt>
      <trkpt lat="45.2481" lon="6.17732">
        <ele>1617.2</ele>
        <time>2022-06-18T08:48:31Z</time>
      </trkpt>
      <trkpt lat="45.24809" lon="6.17728">
        <ele>1617.4</ele>
        <time>2022-06-18T08:48:32Z</time>
      </trkpt>
      <trkpt lat="45.24808" lon="6.17724">
        <ele>1617.6</ele>
        <time>2022-06-18T08:48:33Z</time>
      </trkpt>
      <trkpt lat="45.24805" lon="6.17719">
        <ele>1617.8</ele>
        <time>2022-06-18T08:48:34Z</time>
      </trkpt>
      <trkpt lat="45.24804" lon="6.17717">
        <ele>1618</ele>
        <time>2022-06-18T08:48:35Z</time>
      </trkpt>
      <trkpt lat="45.24802" lon="6.17713">
        <ele>1618.2</ele>
        <time>2022-06-18T08:48:36Z</time>
      </trkpt>
      <trkpt lat="45.24801" lon="6.17711">
        <ele>1618.4</ele>
        <time>2022-06-18T08:48:37Z</time>
      </trkpt>
      <trkpt lat="45.24799" lon="6.17706">
        <ele>1618.7</ele>
        <time>2022-06-18T08:48:38Z</time>
      </trkpt>
      <trkpt lat="45.24798" lon="6.17705">
        <ele>1618.8</ele>
        <time>2022-06-18T08:48:39Z</time>
      </trkpt>
      <trkpt lat="45.24797" lon="6.17703">
        <ele>1619</ele>
        <time>2022-06-18T08:48:40Z</time>
      </trkpt>
      <trkpt lat="45.24796" lon="6.17701">
        <ele>1619.1</ele>
        <time>2022-06-18T08:48:41Z</time>
      </trkpt>
      <trkpt lat="45.24794" lon="6.17695">
        <ele>1619.6</ele>
        <time>2022-06-18T08:48:43Z</time>
      </trkpt>
      <trkpt lat="45.24793" lon="6.17693">
        <ele>1619.7</ele>
        <time>2022-06-18T08:48:44Z</time>
      </trkpt>
      <trkpt lat="45.24792" lon="6.17691">
        <ele>1619.9</ele>
        <time>2022-06-18T08:48:45Z</time>
      </trkpt>
      <trkpt lat="45.24791" lon="6.17688">
        <ele>1620.2</ele>
        <time>2022-06-18T08:48:47Z</time>
      </trkpt>
      <trkpt lat="45.2479" lon="6.17687">
        <ele>1620.3</ele>
        <time>2022-06-18T08:48:48Z</time>
      </trkpt>
      <trkpt lat="45.24789" lon="6.17684">
        <ele>1620.6</ele>
        <time>2022-06-18T08:48:49Z</time>
      </trkpt>
      <trkpt lat="45.24788" lon="6.17683">
        <ele>1620.7</ele>
        <time>2022-06-18T08:48:50Z</time>
      </trkpt>
      <trkpt lat="45.24786" lon="6.1768">
        <ele>1621</ele>
        <time>2022-06-18T08:48:51Z</time>
      </trkpt>
      <trkpt lat="45.24785" lon="6.17678">
        <ele>1621.2</ele>
        <time>2022-06-18T08:48:52Z</time>
      </trkpt>
      <trkpt lat="45.24783" lon="6.17675">
        <ele>1621.5</ele>
        <time>2022-06-18T08:48:53Z</time>
      </trkpt>
      <trkpt lat="45.24779" lon="6.17671">
        <ele>1622</ele>
        <time>2022-06-18T08:48:55Z</time>
      </trkpt>
      <trkpt lat="45.24776" lon="6.17667">
        <ele>1622.5</ele>
        <time>2022-06-18T08:48:56Z</time>
      </trkpt>
      <trkpt lat="45.24773" lon="6.17662">
        <ele>1623</ele>
        <time>2022-06-18T08:48:57Z</time>
      </trkpt>
      <trkpt lat="45.24769" lon="6.17658">
        <ele>1623.4</ele>
        <time>2022-06-18T08:48:59Z</time>
      </trkpt>
      <trkpt lat="45.24767" lon="6.17655">
        <ele>1623.7</ele>
        <time>2022-06-18T08:49:00Z</time>
      </trkpt>
      <trkpt lat="45.24765" lon="6.17652">
        <ele>1623.9</ele>
        <time>2022-06-18T08:49:01Z</time>
      </trkpt>
      <trkpt lat="45.24762" lon="6.17648">
        <ele>1624.3</ele>
        <time>2022-06-18T08:49:02Z</time>
      </trkpt>
      <trkpt lat="45.2476" lon="6.17645">
        <ele>1624.5</ele>
        <time>2022-06-18T08:49:03Z</time>
      </trkpt>
      <trkpt lat="45.24758" lon="6.17642">
        <ele>1624.8</ele>
        <time>2022-06-18T08:49:04Z</time>
      </trkpt>
      <trkpt lat="45.24756" lon="6.17638">
        <ele>1625</ele>
        <time>2022-06-18T08:49:05Z</time>
      </trkpt>
      <trkpt lat="45.24754" lon="6.17635">
        <ele>1625.3</ele>
        <time>2022-06-18T08:49:06Z</time>
      </trkpt>
      <trkpt lat="45.24751" lon="6.1763">
        <ele>1625.7</ele>
        <time>2022-06-18T08:49:07Z</time>
      </trkpt>
      <trkpt lat="45.24749" lon="6.17627">
        <ele>1625.9</ele>
        <time>2022-06-18T08:49:08Z</time>
      </trkpt>
      <trkpt lat="45.24746" lon="6.17624">
        <ele>1626.2</ele>
        <time>2022-06-18T08:49:09Z</time>
      </trkpt>
      <trkpt lat="45.24745" lon="6.17623">
        <ele>1626.3</ele>
        <time>2022-06-18T08:49:10Z</time>
      </trkpt>
      <trkpt lat="45.24743" lon="6.17621">
        <ele>1626.6</ele>
        <time>2022-06-18T08:49:11Z</time>
      </trkpt>
      <trkpt lat="45.24742" lon="6.1762">
        <ele>1626.8</ele>
        <time>2022-06-18T08:49:12Z</time>
      </trkpt>
      <trkpt lat="45.24739" lon="6.17616">
        <ele>1627.1</ele>
        <time>2022-06-18T08:49:13Z</time>
      </trkpt>
      <trkpt lat="45.24738" lon="6.17615">
        <ele>1627.3</ele>
        <time>2022-06-18T08:49:14Z</time>
      </trkpt>
      <trkpt lat="45.24736" lon="6.17612">
        <ele>1627.6</ele>
        <time>2022-06-18T08:49:15Z</time>
      </trkpt>
      <trkpt lat="45.24733" lon="6.17608">
        <ele>1628</ele>
        <time>2022-06-18T08:49:17Z</time>
      </trkpt>
      <trkpt lat="45.24731" lon="6.17604">
        <ele>1628.4</ele>
        <time>2022-06-18T08:49:18Z</time>
      </trkpt>
      <trkpt lat="45.24728" lon="6.176">
        <ele>1628.9</ele>
        <time>2022-06-18T08:49:19Z</time>
      </trkpt>
      <trkpt lat="45.24726" lon="6.17597">
        <ele>1629.3</ele>
        <time>2022-06-18T08:49:21Z</time>
      </trkpt>
      <trkpt lat="45.24724" lon="6.17593">
        <ele>1629.7</ele>
        <time>2022-06-18T08:49:22Z</time>
      </trkpt>
      <trkpt lat="45.24722" lon="6.1759">
        <ele>1630</ele>
        <time>2022-06-18T08:49:23Z</time>
      </trkpt>
      <trkpt lat="45.2472" lon="6.17587">
        <ele>1630.4</ele>
        <time>2022-06-18T08:49:24Z</time>
      </trkpt>
      <trkpt lat="45.24718" lon="6.17584">
        <ele>1630.7</ele>
        <time>2022-06-18T08:49:25Z</time>
      </trkpt>
      <trkpt lat="45.24714" lon="6.1758">
        <ele>1631.2</ele>
        <time>2022-06-18T08:49:27Z</time>
      </trkpt>
      <trkpt lat="45.24711" lon="6.17578">
        <ele>1631.6</ele>
        <time>2022-06-18T08:49:28Z</time>
      </trkpt>
      <trkpt lat="45.24709" lon="6.17576">
        <ele>1632</ele>
        <time>2022-06-18T08:49:29Z</time>
      </trkpt>
      <trkpt lat="45.24706" lon="6.17575">
        <ele>1632.2</ele>
        <time>2022-06-18T08:49:30Z</time>
      </trkpt>
      <trkpt lat="45.24703" lon="6.17574">
        <ele>1632.6</ele>
        <time>2022-06-18T08:49:31Z</time>
      </trkpt>
      <trkpt lat="45.24698" lon="6.17574">
        <ele>1633</ele>
        <time>2022-06-18T08:49:33Z</time>
      </trkpt>
      <trkpt lat="45.24696" lon="6.17573">
        <ele>1633.2</ele>
        <time>2022-06-18T08:49:34Z</time>
      </trkpt>
      <trkpt lat="45.24693" lon="6.17573">
        <ele>1633.4</ele>
        <time>2022-06-18T08:49:35Z</time>
      </trkpt>
      <trkpt lat="45.24689" lon="6.17573">
        <ele>1633.8</ele>
        <time>2022-06-18T08:49:36Z</time>
      </trkpt>
      <trkpt lat="45.24688" lon="6.17573">
        <ele>1633.8</ele>
        <time>2022-06-18T08:49:37Z</time>
      </trkpt>
      <trkpt lat="45.24685" lon="6.17572">
        <ele>1634.1</ele>
        <time>2022-06-18T08:49:38Z</time>
      </trkpt>
      <trkpt lat="45.24684" lon="6.17572">
        <ele>1634.2</ele>
        <time>2022-06-18T08:49:39Z</time>
      </trkpt>
      <trkpt lat="45.2468" lon="6.17572">
        <ele>1634.6</ele>
        <time>2022-06-18T08:49:41Z</time>
      </trkpt>
      <trkpt lat="45.24679" lon="6.17572">
        <ele>1634.7</ele>
        <time>2022-06-18T08:49:42Z</time>
      </trkpt>
      <trkpt lat="45.24675" lon="6.1757">
        <ele>1635.1</ele>
        <time>2022-06-18T08:49:43Z</time>
      </trkpt>
      <trkpt lat="45.24674" lon="6.17569">
        <ele>1635.2</ele>
        <time>2022-06-18T08:49:44Z</time>
      </trkpt>
      <trkpt lat="45.24671" lon="6.17568">
        <ele>1635.6</ele>
        <time>2022-06-18T08:49:45Z</time>
      </trkpt>
      <trkpt lat="45.24668" lon="6.17565">
        <ele>1636.1</ele>
        <time>2022-06-18T08:49:46Z</time>
      </trkpt>
      <trkpt lat="45.24667" lon="6.17564">
        <ele>1636.3</ele>
        <time>2022-06-18T08:49:47Z</time>
      </trkpt>
      <trkpt lat="45.24665" lon="6.17562">
        <ele>1636.6</ele>
        <time>2022-06-18T08:49:48Z</time>
      </trkpt>
      <trkpt lat="45.24662" lon="6.17561">
        <ele>1637</ele>
        <time>2022-06-18T08:49:50Z</time>
      </trkpt>
      <trkpt lat="45.2466" lon="6.17558">
        <ele>1637.5</ele>
        <time>2022-06-18T08:49:51Z</time>
      </trkpt>
      <trkpt lat="45.24657" lon="6.17555">
        <ele>1638.3</ele>
        <time>2022-06-18T08:49:52Z</time>
      </trkpt>
      <trkpt lat="45.24656" lon="6.17553">
        <ele>1638.6</ele>
        <time>2022-06-18T08:49:53Z</time>
      </trkpt>
      <trkpt lat="45.24653" lon="6.1755">
        <ele>1639.3</ele>
        <time>2022-06-18T08:49:54Z</time>
      </trkpt>
      <trkpt lat="45.24651" lon="6.17548">
        <ele>1639.6</ele>
        <time>2022-06-18T08:49:55Z</time>
      </trkpt>
      <trkpt lat="45.24649" lon="6.17546">
        <ele>1640.2</ele>
        <time>2022-06-18T08:49:56Z</time>
      </trkpt>
      <trkpt lat="45.24646" lon="6.17544">
        <ele>1640.9</ele>
        <time>2022-06-18T08:49:58Z</time>
      </trkpt>
      <trkpt lat="45.24643" lon="6.17544">
        <ele>1641.3</ele>
        <time>2022-06-18T08:49:59Z</time>
      </trkpt>
      <trkpt lat="45.24639" lon="6.17543">
        <ele>1641.9</ele>
        <time>2022-06-18T08:50:00Z</time>
      </trkpt>
      <trkpt lat="45.24637" lon="6.17544">
        <ele>1642.2</ele>
        <time>2022-06-18T08:50:01Z</time>
      </trkpt>
      <trkpt lat="45.24636" lon="6.17544">
        <ele>1642.3</ele>
        <time>2022-06-18T08:50:02Z</time>
      </trkpt>
      <trkpt lat="45.24633" lon="6.17547">
        <ele>1642.5</ele>
        <time>2022-06-18T08:50:03Z</time>
      </trkpt>
      <trkpt lat="45.24632" lon="6.17553">
        <ele>1642.6</ele>
        <time>2022-06-18T08:50:05Z</time>
      </trkpt>
      <trkpt lat="45.24633" lon="6.17556">
        <ele>1642.5</ele>
        <time>2022-06-18T08:50:06Z</time>
      </trkpt>
      <trkpt lat="45.24634" lon="6.17561">
        <ele>1642.3</ele>
        <time>2022-06-18T08:50:07Z</time>
      </trkpt>
      <trkpt lat="45.24636" lon="6.17566">
        <ele>1641.9</ele>
        <time>2022-06-18T08:50:09Z</time>
      </trkpt>
      <trkpt lat="45.24638" lon="6.17568">
        <ele>1641.6</ele>
        <time>2022-06-18T08:50:10Z</time>
      </trkpt>
      <trkpt lat="45.24639" lon="6.17569">
        <ele>1641.4</ele>
        <time>2022-06-18T08:50:11Z</time>
      </trkpt>
      <trkpt lat="45.24643" lon="6.17571">
        <ele>1641</ele>
        <time>2022-06-18T08:50:12Z</time>
      </trkpt>
      <trkpt lat="45.24645" lon="6.17575">
        <ele>1640.5</ele>
        <time>2022-06-18T08:50:13Z</time>
      </trkpt>
      <trkpt lat="45.24648" lon="6.17582">
        <ele>1639.7</ele>
        <time>2022-06-18T08:50:15Z</time>
      </trkpt>
      <trkpt lat="45.2465" lon="6.17588">
        <ele>1639.1</ele>
        <time>2022-06-18T08:50:16Z</time>
      </trkpt>
      <trkpt lat="45.24652" lon="6.17593">
        <ele>1638.7</ele>
        <time>2022-06-18T08:50:17Z</time>
      </trkpt>
      <trkpt lat="45.24654" lon="6.17597">
        <ele>1638.4</ele>
        <time>2022-06-18T08:50:18Z</time>
      </trkpt>
      <trkpt lat="45.24655" lon="6.17601">
        <ele>1638.2</ele>
        <time>2022-06-18T08:50:19Z</time>
      </trkpt>
      <trkpt lat="45.24656" lon="6.17604">
        <ele>1638</ele>
        <time>2022-06-18T08:50:20Z</time>
      </trkpt>
      <trkpt lat="45.24658" lon="6.1761">
        <ele>1637.8</ele>
        <time>2022-06-18T08:50:22Z</time>
      </trkpt>
      <trkpt lat="45.2466" lon="6.17613">
        <ele>1637.7</ele>
        <time>2022-06-18T08:50:23Z</time>
      </trkpt>
      <trkpt lat="45.24661" lon="6.17617">
        <ele>1637.6</ele>
        <time>2022-06-18T08:50:24Z</time>
      </trkpt>
      <trkpt lat="45.24662" lon="6.17621">
        <ele>1637.6</ele>
        <time>2022-06-18T08:50:25Z</time>
      </trkpt>
      <trkpt lat="45.24663" lon="6.17624">
        <ele>1637.7</ele>
        <time>2022-06-18T08:50:26Z</time>
      </trkpt>
      <trkpt lat="45.24665" lon="6.17629">
        <ele>1637.8</ele>
        <time>2022-06-18T08:50:27Z</time>
      </trkpt>
      <trkpt lat="45.24666" lon="6.17634">
        <ele>1638</ele>
        <time>2022-06-18T08:50:29Z</time>
      </trkpt>
      <trkpt lat="45.24667" lon="6.17639">
        <ele>1638.2</ele>
        <time>2022-06-18T08:50:30Z</time>
      </trkpt>
      <trkpt lat="45.24669" lon="6.17643">
        <ele>1638.5</ele>
        <time>2022-06-18T08:50:31Z</time>
      </trkpt>
      <trkpt lat="45.2467" lon="6.17649">
        <ele>1638.9</ele>
        <time>2022-06-18T08:50:32Z</time>
      </trkpt>
      <trkpt lat="45.24671" lon="6.17651">
        <ele>1639.1</ele>
        <time>2022-06-18T08:50:33Z</time>
      </trkpt>
      <trkpt lat="45.24672" lon="6.17655">
        <ele>1639.6</ele>
        <time>2022-06-18T08:50:35Z</time>
      </trkpt>
      <trkpt lat="45.24673" lon="6.1766">
        <ele>1640</ele>
        <time>2022-06-18T08:50:36Z</time>
      </trkpt>
      <trkpt lat="45.24673" lon="6.17664">
        <ele>1640.5</ele>
        <time>2022-06-18T08:50:37Z</time>
      </trkpt>
      <trkpt lat="45.24673" lon="6.17666">
        <ele>1640.7</ele>
        <time>2022-06-18T08:50:38Z</time>
      </trkpt>
      <trkpt lat="45.24674" lon="6.1767">
        <ele>1641.2</ele>
        <time>2022-06-18T08:50:39Z</time>
      </trkpt>
      <trkpt lat="45.24675" lon="6.17673">
        <ele>1641.6</ele>
        <time>2022-06-18T08:50:40Z</time>
      </trkpt>
      <trkpt lat="45.24676" lon="6.17677">
        <ele>1642.3</ele>
        <time>2022-06-18T08:50:42Z</time>
      </trkpt>
      <trkpt lat="45.24677" lon="6.17683">
        <ele>1643.2</ele>
        <time>2022-06-18T08:50:43Z</time>
      </trkpt>
      <trkpt lat="45.24679" lon="6.1769">
        <ele>1644.6</ele>
        <time>2022-06-18T08:50:45Z</time>
      </trkpt>
      <trkpt lat="45.2468" lon="6.17693">
        <ele>1645.1</ele>
        <time>2022-06-18T08:50:46Z</time>
      </trkpt>
      <trkpt lat="45.2468" lon="6.17696">
        <ele>1645.6</ele>
        <time>2022-06-18T08:50:47Z</time>
      </trkpt>
      <trkpt lat="45.24681" lon="6.17698">
        <ele>1646.1</ele>
        <time>2022-06-18T08:50:48Z</time>
      </trkpt>
      <trkpt lat="45.24684" lon="6.17703">
        <ele>1647.2</ele>
        <time>2022-06-18T08:50:50Z</time>
      </trkpt>
      <trkpt lat="45.24686" lon="6.17707">
        <ele>1648.3</ele>
        <time>2022-06-18T08:50:51Z</time>
      </trkpt>
      <trkpt lat="45.24688" lon="6.17712">
        <ele>1649.3</ele>
        <time>2022-06-18T08:50:52Z</time>
      </trkpt>
      <trkpt lat="45.24689" lon="6.17714">
        <ele>1649.7</ele>
        <time>2022-06-18T08:50:53Z</time>
      </trkpt>
      <trkpt lat="45.2469" lon="6.17719">
        <ele>1650.5</ele>
        <time>2022-06-18T08:50:54Z</time>
      </trkpt>
      <trkpt lat="45.24691" lon="6.17721">
        <ele>1650.8</ele>
        <time>2022-06-18T08:50:55Z</time>
      </trkpt>
      <trkpt lat="45.2469" lon="6.17727">
        <ele>1651.5</ele>
        <time>2022-06-18T08:50:57Z</time>
      </trkpt>
      <trkpt lat="45.24687" lon="6.17731">
        <ele>1651.9</ele>
        <time>2022-06-18T08:50:58Z</time>
      </trkpt>
      <trkpt lat="45.24682" lon="6.1773">
        <ele>1652.1</ele>
        <time>2022-06-18T08:51:00Z</time>
      </trkpt>
      <trkpt lat="45.24679" lon="6.17726">
        <ele>1652.1</ele>
        <time>2022-06-18T08:51:01Z</time>
      </trkpt>
      <trkpt lat="45.24677" lon="6.17722">
        <ele>1651.9</ele>
        <time>2022-06-18T08:51:02Z</time>
      </trkpt>
      <trkpt lat="45.24675" lon="6.17716">
        <ele>1651.6</ele>
        <time>2022-06-18T08:51:03Z</time>
      </trkpt>
      <trkpt lat="45.24674" lon="6.17712">
        <ele>1651.3</ele>
        <time>2022-06-18T08:51:04Z</time>
      </trkpt>
      <trkpt lat="45.24672" lon="6.17708">
        <ele>1650.9</ele>
        <time>2022-06-18T08:51:06Z</time>
      </trkpt>
      <trkpt lat="45.24669" lon="6.17705">
        <ele>1650.4</ele>
        <time>2022-06-18T08:51:07Z</time>
      </trkpt>
      <trkpt lat="45.24666" lon="6.17703">
        <ele>1649.9</ele>
        <time>2022-06-18T08:51:08Z</time>
      </trkpt>
      <trkpt lat="45.24665" lon="6.17702">
        <ele>1649.8</ele>
        <time>2022-06-18T08:51:09Z</time>
      </trkpt>
      <trkpt lat="45.24661" lon="6.17701">
        <ele>1649.2</ele>
        <time>2022-06-18T08:51:11Z</time>
      </trkpt>
      <trkpt lat="45.24657" lon="6.17699">
        <ele>1648.6</ele>
        <time>2022-06-18T08:51:12Z</time>
      </trkpt>
      <trkpt lat="45.24655" lon="6.17698">
        <ele>1648.4</ele>
        <time>2022-06-18T08:51:13Z</time>
      </trkpt>
      <trkpt lat="45.24652" lon="6.17696">
        <ele>1647.9</ele>
        <time>2022-06-18T08:51:14Z</time>
      </trkpt>
      <trkpt lat="45.24651" lon="6.17695">
        <ele>1647.7</ele>
        <time>2022-06-18T08:51:15Z</time>
      </trkpt>
      <trkpt lat="45.24648" lon="6.17694">
        <ele>1647.3</ele>
        <time>2022-06-18T08:51:16Z</time>
      </trkpt>
      <trkpt lat="45.24645" lon="6.17692">
        <ele>1646.9</ele>
        <time>2022-06-18T08:51:17Z</time>
      </trkpt>
      <trkpt lat="45.24644" lon="6.17691">
        <ele>1646.7</ele>
        <time>2022-06-18T08:51:18Z</time>
      </trkpt>
      <trkpt lat="45.24642" lon="6.17689">
        <ele>1646.3</ele>
        <time>2022-06-18T08:51:19Z</time>
      </trkpt>
      <trkpt lat="45.2464" lon="6.17687">
        <ele>1646</ele>
        <time>2022-06-18T08:51:20Z</time>
      </trkpt>
      <trkpt lat="45.24637" lon="6.17685">
        <ele>1645.6</ele>
        <time>2022-06-18T08:51:21Z</time>
      </trkpt>
      <trkpt lat="45.24632" lon="6.17682">
        <ele>1645.1</ele>
        <time>2022-06-18T08:51:23Z</time>
      </trkpt>
      <trkpt lat="45.24631" lon="6.17681">
        <ele>1644.9</ele>
        <time>2022-06-18T08:51:24Z</time>
      </trkpt>
      <trkpt lat="45.24629" lon="6.17681">
        <ele>1644.8</ele>
        <time>2022-06-18T08:51:25Z</time>
      </trkpt>
      <trkpt lat="45.24626" lon="6.17679">
        <ele>1644.5</ele>
        <time>2022-06-18T08:51:26Z</time>
      </trkpt>
      <trkpt lat="45.24623" lon="6.17676">
        <ele>1644.3</ele>
        <time>2022-06-18T08:51:27Z</time>
      </trkpt>
      <trkpt lat="45.24622" lon="6.17676">
        <ele>1644.2</ele>
        <time>2022-06-18T08:51:28Z</time>
      </trkpt>
      <trkpt lat="45.2462" lon="6.17674">
        <ele>1644.1</ele>
        <time>2022-06-18T08:51:29Z</time>
      </trkpt>
      <trkpt lat="45.24617" lon="6.17673">
        <ele>1643.9</ele>
        <time>2022-06-18T08:51:31Z</time>
      </trkpt>
      <trkpt lat="45.24615" lon="6.17671">
        <ele>1643.8</ele>
        <time>2022-06-18T08:51:32Z</time>
      </trkpt>
      <trkpt lat="45.24611" lon="6.17669">
        <ele>1643.8</ele>
        <time>2022-06-18T08:51:34Z</time>
      </trkpt>
      <trkpt lat="45.24608" lon="6.17666">
        <ele>1643.7</ele>
        <time>2022-06-18T08:51:35Z</time>
      </trkpt>
      <trkpt lat="45.24605" lon="6.17664">
        <ele>1643.8</ele>
        <time>2022-06-18T08:51:36Z</time>
      </trkpt>
      <trkpt lat="45.24604" lon="6.17663">
        <ele>1643.8</ele>
        <time>2022-06-18T08:51:37Z</time>
      </trkpt>
      <trkpt lat="45.24601" lon="6.17662">
        <ele>1643.9</ele>
        <time>2022-06-18T08:51:39Z</time>
      </trkpt>
      <trkpt lat="45.246" lon="6.1766">
        <ele>1643.9</ele>
        <time>2022-06-18T08:51:40Z</time>
      </trkpt>
      <trkpt lat="45.24598" lon="6.1766">
        <ele>1644</ele>
        <time>2022-06-18T08:51:41Z</time>
      </trkpt>
      <trkpt lat="45.24595" lon="6.17658">
        <ele>1644.1</ele>
        <time>2022-06-18T08:51:42Z</time>
      </trkpt>
      <trkpt lat="45.24594" lon="6.17657">
        <ele>1644.2</ele>
        <time>2022-06-18T08:51:43Z</time>
      </trkpt>
      <trkpt lat="45.24592" lon="6.17655">
        <ele>1644.3</ele>
        <time>2022-06-18T08:51:44Z</time>
      </trkpt>
      <trkpt lat="45.24591" lon="6.17654">
        <ele>1644.4</ele>
        <time>2022-06-18T08:51:45Z</time>
      </trkpt>
      <trkpt lat="45.24588" lon="6.17653">
        <ele>1644.6</ele>
        <time>2022-06-18T08:51:46Z</time>
      </trkpt>
      <trkpt lat="45.24587" lon="6.17652">
        <ele>1644.7</ele>
        <time>2022-06-18T08:51:47Z</time>
      </trkpt>
      <trkpt lat="45.24585" lon="6.17651">
        <ele>1644.9</ele>
        <time>2022-06-18T08:51:48Z</time>
      </trkpt>
      <trkpt lat="45.24582" lon="6.1765">
        <ele>1645.1</ele>
        <time>2022-06-18T08:51:50Z</time>
      </trkpt>
      <trkpt lat="45.2458" lon="6.17647">
        <ele>1645.4</ele>
        <time>2022-06-18T08:51:51Z</time>
      </trkpt>
      <trkpt lat="45.24577" lon="6.17644">
        <ele>1645.7</ele>
        <time>2022-06-18T08:51:52Z</time>
      </trkpt>
      <trkpt lat="45.24574" lon="6.17642">
        <ele>1646</ele>
        <time>2022-06-18T08:51:53Z</time>
      </trkpt>
      <trkpt lat="45.24571" lon="6.17639">
        <ele>1646.4</ele>
        <time>2022-06-18T08:51:54Z</time>
      </trkpt>
      <trkpt lat="45.24569" lon="6.17636">
        <ele>1646.8</ele>
        <time>2022-06-18T08:51:55Z</time>
      </trkpt>
      <trkpt lat="45.24566" lon="6.17632">
        <ele>1647.2</ele>
        <time>2022-06-18T08:51:56Z</time>
      </trkpt>
      <trkpt lat="45.24564" lon="6.17629">
        <ele>1647.6</ele>
        <time>2022-06-18T08:51:57Z</time>
      </trkpt>
      <trkpt lat="45.24563" lon="6.17627">
        <ele>1647.8</ele>
        <time>2022-06-18T08:51:58Z</time>
      </trkpt>
      <trkpt lat="45.24561" lon="6.17623">
        <ele>1648.3</ele>
        <time>2022-06-18T08:51:59Z</time>
      </trkpt>
      <trkpt lat="45.2456" lon="6.17622">
        <ele>1648.4</ele>
        <time>2022-06-18T08:52:00Z</time>
      </trkpt>
      <trkpt lat="45.24558" lon="6.17619">
        <ele>1648.8</ele>
        <time>2022-06-18T08:52:02Z</time>
      </trkpt>
      <trkpt lat="45.24554" lon="6.17616">
        <ele>1649.4</ele>
        <time>2022-06-18T08:52:03Z</time>
      </trkpt>
      <trkpt lat="45.24551" lon="6.17615">
        <ele>1649.8</ele>
        <time>2022-06-18T08:52:04Z</time>
      </trkpt>
      <trkpt lat="45.24547" lon="6.17614">
        <ele>1650.2</ele>
        <time>2022-06-18T08:52:05Z</time>
      </trkpt>
      <trkpt lat="45.24546" lon="6.17614">
        <ele>1650.4</ele>
        <time>2022-06-18T08:52:06Z</time>
      </trkpt>
      <trkpt lat="45.24543" lon="6.17614">
        <ele>1650.7</ele>
        <time>2022-06-18T08:52:08Z</time>
      </trkpt>
      <trkpt lat="45.2454" lon="6.17613">
        <ele>1651.1</ele>
        <time>2022-06-18T08:52:09Z</time>
      </trkpt>
      <trkpt lat="45.24536" lon="6.17612">
        <ele>1651.4</ele>
        <time>2022-06-18T08:52:10Z</time>
      </trkpt>
      <trkpt lat="45.24535" lon="6.17612">
        <ele>1651.5</ele>
        <time>2022-06-18T08:52:11Z</time>
      </trkpt>
      <trkpt lat="45.24532" lon="6.1761">
        <ele>1651.8</ele>
        <time>2022-06-18T08:52:13Z</time>
      </trkpt>
      <trkpt lat="45.24529" lon="6.17606">
        <ele>1652.1</ele>
        <time>2022-06-18T08:52:14Z</time>
      </trkpt>
      <trkpt lat="45.24527" lon="6.17602">
        <ele>1652.3</ele>
        <time>2022-06-18T08:52:15Z</time>
      </trkpt>
      <trkpt lat="45.24526" lon="6.17598">
        <ele>1652.5</ele>
        <time>2022-06-18T08:52:16Z</time>
      </trkpt>
      <trkpt lat="45.24525" lon="6.17596">
        <ele>1652.6</ele>
        <time>2022-06-18T08:52:17Z</time>
      </trkpt>
      <trkpt lat="45.24523" lon="6.17589">
        <ele>1652.8</ele>
        <time>2022-06-18T08:52:19Z</time>
      </trkpt>
      <trkpt lat="45.24523" lon="6.17587">
        <ele>1652.8</ele>
        <time>2022-06-18T08:52:20Z</time>
      </trkpt>
      <trkpt lat="45.24522" lon="6.17585">
        <ele>1652.8</ele>
        <time>2022-06-18T08:52:21Z</time>
      </trkpt>
      <trkpt lat="45.2452" lon="6.17583">
        <ele>1652.9</ele>
        <time>2022-06-18T08:52:22Z</time>
      </trkpt>
      <trkpt lat="45.24516" lon="6.17581">
        <ele>1653</ele>
        <time>2022-06-18T08:52:24Z</time>
      </trkpt>
      <trkpt lat="45.24514" lon="6.17579">
        <ele>1653.1</ele>
        <time>2022-06-18T08:52:25Z</time>
      </trkpt>
      <trkpt lat="45.2451" lon="6.17578">
        <ele>1653.1</ele>
        <time>2022-06-18T08:52:26Z</time>
      </trkpt>
      <trkpt lat="45.24507" lon="6.17576">
        <ele>1653.2</ele>
        <time>2022-06-18T08:52:27Z</time>
      </trkpt>
      <trkpt lat="45.24506" lon="6.17575">
        <ele>1653.2</ele>
        <time>2022-06-18T08:52:28Z</time>
      </trkpt>
      <trkpt lat="45.24503" lon="6.17575">
        <ele>1653.3</ele>
        <time>2022-06-18T08:52:29Z</time>
      </trkpt>
      <trkpt lat="45.24502" lon="6.17574">
        <ele>1653.3</ele>
        <time>2022-06-18T08:52:30Z</time>
      </trkpt>
      <trkpt lat="45.24498" lon="6.17573">
        <ele>1653.3</ele>
        <time>2022-06-18T08:52:32Z</time>
      </trkpt>
      <trkpt lat="45.24496" lon="6.17571">
        <ele>1653.4</ele>
        <time>2022-06-18T08:52:33Z</time>
      </trkpt>
      <trkpt lat="45.24492" lon="6.17568">
        <ele>1653.5</ele>
        <time>2022-06-18T08:52:34Z</time>
      </trkpt>
      <trkpt lat="45.2449" lon="6.17565">
        <ele>1653.5</ele>
        <time>2022-06-18T08:52:35Z</time>
      </trkpt>
      <trkpt lat="45.24487" lon="6.17562">
        <ele>1653.6</ele>
        <time>2022-06-18T08:52:36Z</time>
      </trkpt>
      <trkpt lat="45.24486" lon="6.17559">
        <ele>1653.6</ele>
        <time>2022-06-18T08:52:37Z</time>
      </trkpt>
      <trkpt lat="45.24484" lon="6.17551">
        <ele>1653.7</ele>
        <time>2022-06-18T08:52:39Z</time>
      </trkpt>
      <trkpt lat="45.24483" lon="6.17547">
        <ele>1653.8</ele>
        <time>2022-06-18T08:52:40Z</time>
      </trkpt>
      <trkpt lat="45.24482" lon="6.17543">
        <ele>1653.8</ele>
        <time>2022-06-18T08:52:41Z</time>
      </trkpt>
      <trkpt lat="45.24481" lon="6.17539">
        <ele>1653.9</ele>
        <time>2022-06-18T08:52:42Z</time>
      </trkpt>
      <trkpt lat="45.24479" lon="6.17534">
        <ele>1653.9</ele>
        <time>2022-06-18T08:52:43Z</time>
      </trkpt>
      <trkpt lat="45.24478" lon="6.17533">
        <ele>1653.9</ele>
        <time>2022-06-18T08:52:44Z</time>
      </trkpt>
      <trkpt lat="45.24477" lon="6.1753">
        <ele>1653.9</ele>
        <time>2022-06-18T08:52:45Z</time>
      </trkpt>
      <trkpt lat="45.24474" lon="6.17528">
        <ele>1654</ele>
        <time>2022-06-18T08:52:47Z</time>
      </trkpt>
      <trkpt lat="45.24472" lon="6.17525">
        <ele>1654</ele>
        <time>2022-06-18T08:52:48Z</time>
      </trkpt>
      <trkpt lat="45.2447" lon="6.17523">
        <ele>1654</ele>
        <time>2022-06-18T08:52:49Z</time>
      </trkpt>
      <trkpt lat="45.24468" lon="6.1752">
        <ele>1654</ele>
        <time>2022-06-18T08:52:51Z</time>
      </trkpt>
      <trkpt lat="45.24466" lon="6.17518">
        <ele>1654.1</ele>
        <time>2022-06-18T08:52:52Z</time>
      </trkpt>
      <trkpt lat="45.24463" lon="6.17515">
        <ele>1654.1</ele>
        <time>2022-06-18T08:52:53Z</time>
      </trkpt>
      <trkpt lat="45.2446" lon="6.17512">
        <ele>1654.2</ele>
        <time>2022-06-18T08:52:55Z</time>
      </trkpt>
      <trkpt lat="45.24457" lon="6.17509">
        <ele>1654.3</ele>
        <time>2022-06-18T08:52:56Z</time>
      </trkpt>
      <trkpt lat="45.24454" lon="6.17507">
        <ele>1654.3</ele>
        <time>2022-06-18T08:52:57Z</time>
      </trkpt>
      <trkpt lat="45.24452" lon="6.17505">
        <ele>1654.4</ele>
        <time>2022-06-18T08:52:58Z</time>
      </trkpt>
      <trkpt lat="45.24449" lon="6.17502">
        <ele>1654.6</ele>
        <time>2022-06-18T08:53:00Z</time>
      </trkpt>
      <trkpt lat="45.24446" lon="6.175">
        <ele>1654.7</ele>
        <time>2022-06-18T08:53:01Z</time>
      </trkpt>
      <trkpt lat="45.24443" lon="6.17498">
        <ele>1654.8</ele>
        <time>2022-06-18T08:53:02Z</time>
      </trkpt>
      <trkpt lat="45.24439" lon="6.17496">
        <ele>1655.1</ele>
        <time>2022-06-18T08:53:04Z</time>
      </trkpt>
      <trkpt lat="45.24436" lon="6.17494">
        <ele>1655.2</ele>
        <time>2022-06-18T08:53:05Z</time>
      </trkpt>
      <trkpt lat="45.24433" lon="6.17493">
        <ele>1655.4</ele>
        <time>2022-06-18T08:53:06Z</time>
      </trkpt>
      <trkpt lat="45.24432" lon="6.17492">
        <ele>1655.5</ele>
        <time>2022-06-18T08:53:07Z</time>
      </trkpt>
      <trkpt lat="45.2443" lon="6.1749">
        <ele>1655.7</ele>
        <time>2022-06-18T08:53:08Z</time>
      </trkpt>
      <trkpt lat="45.24429" lon="6.17489">
        <ele>1655.7</ele>
        <time>2022-06-18T08:53:09Z</time>
      </trkpt>
      <trkpt lat="45.24426" lon="6.17486">
        <ele>1655.9</ele>
        <time>2022-06-18T08:53:11Z</time>
      </trkpt>
      <trkpt lat="45.24425" lon="6.17485">
        <ele>1656</ele>
        <time>2022-06-18T08:53:12Z</time>
      </trkpt>
      <trkpt lat="45.24422" lon="6.17482">
        <ele>1656.2</ele>
        <time>2022-06-18T08:53:13Z</time>
      </trkpt>
      <trkpt lat="45.24418" lon="6.17478">
        <ele>1656.6</ele>
        <time>2022-06-18T08:53:14Z</time>
      </trkpt>
      <trkpt lat="45.24415" lon="6.17474">
        <ele>1657</ele>
        <time>2022-06-18T08:53:15Z</time>
      </trkpt>
      <trkpt lat="45.24412" lon="6.1747">
        <ele>1657.4</ele>
        <time>2022-06-18T08:53:16Z</time>
      </trkpt>
      <trkpt lat="45.24409" lon="6.17467">
        <ele>1658.2</ele>
        <time>2022-06-18T08:53:17Z</time>
      </trkpt>
      <trkpt lat="45.24406" lon="6.17462">
        <ele>1659.6</ele>
        <time>2022-06-18T08:53:19Z</time>
      </trkpt>
      <trkpt lat="45.24404" lon="6.17458">
        <ele>1660.5</ele>
        <time>2022-06-18T08:53:20Z</time>
      </trkpt>
      <trkpt lat="45.24403" lon="6.17455">
        <ele>1661.3</ele>
        <time>2022-06-18T08:53:21Z</time>
      </trkpt>
      <trkpt lat="45.24401" lon="6.17451">
        <ele>1662.2</ele>
        <time>2022-06-18T08:53:23Z</time>
      </trkpt>
      <trkpt lat="45.244" lon="6.17447">
        <ele>1663</ele>
        <time>2022-06-18T08:53:24Z</time>
      </trkpt>
      <trkpt lat="45.24398" lon="6.17443">
        <ele>1664.1</ele>
        <time>2022-06-18T08:53:25Z</time>
      </trkpt>
      <trkpt lat="45.24396" lon="6.17439">
        <ele>1665</ele>
        <time>2022-06-18T08:53:27Z</time>
      </trkpt>
      <trkpt lat="45.24395" lon="6.17435">
        <ele>1665.8</ele>
        <time>2022-06-18T08:53:28Z</time>
      </trkpt>
      <trkpt lat="45.24393" lon="6.17432">
        <ele>1666.7</ele>
        <time>2022-06-18T08:53:29Z</time>
      </trkpt>
      <trkpt lat="45.24391" lon="6.17428">
        <ele>1667.7</ele>
        <time>2022-06-18T08:53:30Z</time>
      </trkpt>
      <trkpt lat="45.24389" lon="6.17424">
        <ele>1668.8</ele>
        <time>2022-06-18T08:53:31Z</time>
      </trkpt>
      <trkpt lat="45.24388" lon="6.17422">
        <ele>1669.2</ele>
        <time>2022-06-18T08:53:32Z</time>
      </trkpt>
      <trkpt lat="45.24386" lon="6.1742">
        <ele>1670</ele>
        <time>2022-06-18T08:53:33Z</time>
      </trkpt>
      <trkpt lat="45.24384" lon="6.17416">
        <ele>1670.9</ele>
        <time>2022-06-18T08:53:35Z</time>
      </trkpt>
      <trkpt lat="45.24382" lon="6.17413">
        <ele>1671.8</ele>
        <time>2022-06-18T08:53:36Z</time>
      </trkpt>
      <trkpt lat="45.2438" lon="6.17409">
        <ele>1672.7</ele>
        <time>2022-06-18T08:53:37Z</time>
      </trkpt>
      <trkpt lat="45.24378" lon="6.17405">
        <ele>1673.9</ele>
        <time>2022-06-18T08:53:39Z</time>
      </trkpt>
      <trkpt lat="45.24377" lon="6.17403">
        <ele>1674.3</ele>
        <time>2022-06-18T08:53:40Z</time>
      </trkpt>
      <trkpt lat="45.24375" lon="6.174">
        <ele>1675.2</ele>
        <time>2022-06-18T08:53:41Z</time>
      </trkpt>
      <trkpt lat="45.24373" lon="6.17394">
        <ele>1676.5</ele>
        <time>2022-06-18T08:53:43Z</time>
      </trkpt>
      <trkpt lat="45.24371" lon="6.1739">
        <ele>1677.6</ele>
        <time>2022-06-18T08:53:44Z</time>
      </trkpt>
      <trkpt lat="45.2437" lon="6.17389">
        <ele>1677.9</ele>
        <time>2022-06-18T08:53:45Z</time>
      </trkpt>
      <trkpt lat="45.24369" lon="6.17387">
        <ele>1678.5</ele>
        <time>2022-06-18T08:53:46Z</time>
      </trkpt>
      <trkpt lat="45.24366" lon="6.17385">
        <ele>1679.4</ele>
        <time>2022-06-18T08:53:48Z</time>
      </trkpt>
      <trkpt lat="45.24363" lon="6.17382">
        <ele>1680.5</ele>
        <time>2022-06-18T08:53:49Z</time>
      </trkpt>
      <trkpt lat="45.24362" lon="6.1738">
        <ele>1680.9</ele>
        <time>2022-06-18T08:53:50Z</time>
      </trkpt>
      <trkpt lat="45.24359" lon="6.17377">
        <ele>1682.1</ele>
        <time>2022-06-18T08:53:51Z</time>
      </trkpt>
      <trkpt lat="45.24358" lon="6.17376">
        <ele>1682.5</ele>
        <time>2022-06-18T08:53:52Z</time>
      </trkpt>
      <trkpt lat="45.24355" lon="6.17373">
        <ele>1683.7</ele>
        <time>2022-06-18T08:53:54Z</time>
      </trkpt>
      <trkpt lat="45.24352" lon="6.17372">
        <ele>1684.5</ele>
        <time>2022-06-18T08:53:55Z</time>
      </trkpt>
      <trkpt lat="45.2435" lon="6.17369">
        <ele>1685.5</ele>
        <time>2022-06-18T08:53:56Z</time>
      </trkpt>
      <trkpt lat="45.24349" lon="6.17368">
        <ele>1685.8</ele>
        <time>2022-06-18T08:53:57Z</time>
      </trkpt>
      <trkpt lat="45.24346" lon="6.17366">
        <ele>1686.8</ele>
        <time>2022-06-18T08:53:58Z</time>
      </trkpt>
      <trkpt lat="45.24345" lon="6.17365">
        <ele>1687.2</ele>
        <time>2022-06-18T08:53:59Z</time>
      </trkpt>
      <trkpt lat="45.24343" lon="6.17363">
        <ele>1687.9</ele>
        <time>2022-06-18T08:54:00Z</time>
      </trkpt>
      <trkpt lat="45.2434" lon="6.17361">
        <ele>1688.7</ele>
        <time>2022-06-18T08:54:02Z</time>
      </trkpt>
      <trkpt lat="45.24337" lon="6.17358">
        <ele>1689.9</ele>
        <time>2022-06-18T08:54:03Z</time>
      </trkpt>
      <trkpt lat="45.24336" lon="6.17357">
        <ele>1690.4</ele>
        <time>2022-06-18T08:54:04Z</time>
      </trkpt>
      <trkpt lat="45.24333" lon="6.17354">
        <ele>1691.2</ele>
        <time>2022-06-18T08:54:05Z</time>
      </trkpt>
      <trkpt lat="45.2433" lon="6.17351">
        <ele>1692.3</ele>
        <time>2022-06-18T08:54:07Z</time>
      </trkpt>
      <trkpt lat="45.24328" lon="6.17348">
        <ele>1693.2</ele>
        <time>2022-06-18T08:54:08Z</time>
      </trkpt>
      <trkpt lat="45.24326" lon="6.17344">
        <ele>1694.1</ele>
        <time>2022-06-18T08:54:10Z</time>
      </trkpt>
      <trkpt lat="45.24325" lon="6.17341">
        <ele>1694.9</ele>
        <time>2022-06-18T08:54:11Z</time>
      </trkpt>
      <trkpt lat="45.24324" lon="6.17338">
        <ele>1695.7</ele>
        <time>2022-06-18T08:54:12Z</time>
      </trkpt>
      <trkpt lat="45.24321" lon="6.17332">
        <ele>1697</ele>
        <time>2022-06-18T08:54:14Z</time>
      </trkpt>
      <trkpt lat="45.24319" lon="6.17328">
        <ele>1698</ele>
        <time>2022-06-18T08:54:15Z</time>
      </trkpt>
      <trkpt lat="45.24318" lon="6.17327">
        <ele>1698.4</ele>
        <time>2022-06-18T08:54:16Z</time>
      </trkpt>
      <trkpt lat="45.24316" lon="6.17321">
        <ele>1699.6</ele>
        <time>2022-06-18T08:54:18Z</time>
      </trkpt>
      <trkpt lat="45.24315" lon="6.17319">
        <ele>1700.1</ele>
        <time>2022-06-18T08:54:19Z</time>
      </trkpt>
      <trkpt lat="45.24315" lon="6.17317">
        <ele>1700.5</ele>
        <time>2022-06-18T08:54:20Z</time>
      </trkpt>
      <trkpt lat="45.24313" lon="6.17315">
        <ele>1701.1</ele>
        <time>2022-06-18T08:54:21Z</time>
      </trkpt>
      <trkpt lat="45.24313" lon="6.17314">
        <ele>1701.3</ele>
        <time>2022-06-18T08:54:22Z</time>
      </trkpt>
      <trkpt lat="45.24312" lon="6.17312">
        <ele>1701.7</ele>
        <time>2022-06-18T08:54:24Z</time>
      </trkpt>
      <trkpt lat="45.24311" lon="6.1731">
        <ele>1702.2</ele>
        <time>2022-06-18T08:54:25Z</time>
      </trkpt>
      <trkpt lat="45.24309" lon="6.17306">
        <ele>1703.1</ele>
        <time>2022-06-18T08:54:26Z</time>
      </trkpt>
      <trkpt lat="45.24309" lon="6.17305">
        <ele>1703.4</ele>
        <time>2022-06-18T08:54:27Z</time>
      </trkpt>
      <trkpt lat="45.24306" lon="6.173">
        <ele>1704.5</ele>
        <time>2022-06-18T08:54:28Z</time>
      </trkpt>
      <trkpt lat="45.24305" lon="6.17298">
        <ele>1704.9</ele>
        <time>2022-06-18T08:54:29Z</time>
      </trkpt>
      <trkpt lat="45.24303" lon="6.17293">
        <ele>1706.1</ele>
        <time>2022-06-18T08:54:30Z</time>
      </trkpt>
      <trkpt lat="45.24301" lon="6.17288">
        <ele>1707.3</ele>
        <time>2022-06-18T08:54:31Z</time>
      </trkpt>
      <trkpt lat="45.24299" lon="6.17284">
        <ele>1708.3</ele>
        <time>2022-06-18T08:54:32Z</time>
      </trkpt>
      <trkpt lat="45.24298" lon="6.17282">
        <ele>1708.7</ele>
        <time>2022-06-18T08:54:33Z</time>
      </trkpt>
      <trkpt lat="45.24297" lon="6.17278">
        <ele>1709.6</ele>
        <time>2022-06-18T08:54:34Z</time>
      </trkpt>
      <trkpt lat="45.24295" lon="6.17275">
        <ele>1710.5</ele>
        <time>2022-06-18T08:54:35Z</time>
      </trkpt>
      <trkpt lat="45.24292" lon="6.17269">
        <ele>1711.9</ele>
        <time>2022-06-18T08:54:37Z</time>
      </trkpt>
      <trkpt lat="45.24291" lon="6.17267">
        <ele>1712.3</ele>
        <time>2022-06-18T08:54:38Z</time>
      </trkpt>
      <trkpt lat="45.2429" lon="6.17265">
        <ele>1712.8</ele>
        <time>2022-06-18T08:54:39Z</time>
      </trkpt>
      <trkpt lat="45.24288" lon="6.1726">
        <ele>1713.9</ele>
        <time>2022-06-18T08:54:41Z</time>
      </trkpt>
      <trkpt lat="45.24288" lon="6.17258">
        <ele>1714.4</ele>
        <time>2022-06-18T08:54:42Z</time>
      </trkpt>
      <trkpt lat="45.24286" lon="6.17254">
        <ele>1715.2</ele>
        <time>2022-06-18T08:54:43Z</time>
      </trkpt>
      <trkpt lat="45.24284" lon="6.17248">
        <ele>1716.7</ele>
        <time>2022-06-18T08:54:45Z</time>
      </trkpt>
      <trkpt lat="45.24283" lon="6.17246">
        <ele>1717.2</ele>
        <time>2022-06-18T08:54:46Z</time>
      </trkpt>
      <trkpt lat="45.24282" lon="6.17244">
        <ele>1717.7</ele>
        <time>2022-06-18T08:54:47Z</time>
      </trkpt>
      <trkpt lat="45.24281" lon="6.1724">
        <ele>1718.6</ele>
        <time>2022-06-18T08:54:48Z</time>
      </trkpt>
      <trkpt lat="45.24281" lon="6.17238">
        <ele>1718.9</ele>
        <time>2022-06-18T08:54:49Z</time>
      </trkpt>
      <trkpt lat="45.2428" lon="6.17233">
        <ele>1720</ele>
        <time>2022-06-18T08:54:50Z</time>
      </trkpt>
      <trkpt lat="45.2428" lon="6.17232">
        <ele>1720.3</ele>
        <time>2022-06-18T08:54:51Z</time>
      </trkpt>
      <trkpt lat="45.24279" lon="6.17228">
        <ele>1720.9</ele>
        <time>2022-06-18T08:54:52Z</time>
      </trkpt>
      <trkpt lat="45.24278" lon="6.17224">
        <ele>1721.8</ele>
        <time>2022-06-18T08:54:54Z</time>
      </trkpt>
      <trkpt lat="45.24278" lon="6.17219">
        <ele>1722.9</ele>
        <time>2022-06-18T08:54:55Z</time>
      </trkpt>
      <trkpt lat="45.24277" lon="6.17214">
        <ele>1723.9</ele>
        <time>2022-06-18T08:54:56Z</time>
      </trkpt>
      <trkpt lat="45.24277" lon="6.17213">
        <ele>1724.2</ele>
        <time>2022-06-18T08:54:57Z</time>
      </trkpt>
      <trkpt lat="45.24276" lon="6.17209">
        <ele>1724.8</ele>
        <time>2022-06-18T08:54:58Z</time>
      </trkpt>
      <trkpt lat="45.24276" lon="6.17207">
        <ele>1725.4</ele>
        <time>2022-06-18T08:55:00Z</time>
      </trkpt>
      <trkpt lat="45.24274" lon="6.17202">
        <ele>1726.4</ele>
        <time>2022-06-18T08:55:01Z</time>
      </trkpt>
      <trkpt lat="45.24274" lon="6.172">
        <ele>1726.9</ele>
        <time>2022-06-18T08:55:02Z</time>
      </trkpt>
      <trkpt lat="45.24273" lon="6.17194">
        <ele>1728</ele>
        <time>2022-06-18T08:55:03Z</time>
      </trkpt>
      <trkpt lat="45.24273" lon="6.17192">
        <ele>1728.5</ele>
        <time>2022-06-18T08:55:04Z</time>
      </trkpt>
      <trkpt lat="45.24273" lon="6.17189">
        <ele>1729.1</ele>
        <time>2022-06-18T08:55:05Z</time>
      </trkpt>
      <trkpt lat="45.24272" lon="6.17185">
        <ele>1729.9</ele>
        <time>2022-06-18T08:55:07Z</time>
      </trkpt>
      <trkpt lat="45.24271" lon="6.17181">
        <ele>1730.8</ele>
        <time>2022-06-18T08:55:08Z</time>
      </trkpt>
      <trkpt lat="45.24271" lon="6.1718">
        <ele>1731.1</ele>
        <time>2022-06-18T08:55:09Z</time>
      </trkpt>
      <trkpt lat="45.24269" lon="6.17173">
        <ele>1732.5</ele>
        <time>2022-06-18T08:55:11Z</time>
      </trkpt>
      <trkpt lat="45.24267" lon="6.17168">
        <ele>1733.7</ele>
        <time>2022-06-18T08:55:12Z</time>
      </trkpt>
      <trkpt lat="45.24266" lon="6.17166">
        <ele>1734.2</ele>
        <time>2022-06-18T08:55:13Z</time>
      </trkpt>
      <trkpt lat="45.24266" lon="6.17161">
        <ele>1735.2</ele>
        <time>2022-06-18T08:55:14Z</time>
      </trkpt>
      <trkpt lat="45.24266" lon="6.17159">
        <ele>1735.5</ele>
        <time>2022-06-18T08:55:15Z</time>
      </trkpt>
      <trkpt lat="45.24265" lon="6.17155">
        <ele>1736.3</ele>
        <time>2022-06-18T08:55:16Z</time>
      </trkpt>
      <trkpt lat="45.24265" lon="6.17153">
        <ele>1736.9</ele>
        <time>2022-06-18T08:55:17Z</time>
      </trkpt>
      <trkpt lat="45.24264" lon="6.17151">
        <ele>1737.3</ele>
        <time>2022-06-18T08:55:18Z</time>
      </trkpt>
      <trkpt lat="45.24264" lon="6.17147">
        <ele>1738.1</ele>
        <time>2022-06-18T08:55:20Z</time>
      </trkpt>
      <trkpt lat="45.24264" lon="6.17145">
        <ele>1738.4</ele>
        <time>2022-06-18T08:55:21Z</time>
      </trkpt>
      <trkpt lat="45.24263" lon="6.17141">
        <ele>1739.3</ele>
        <time>2022-06-18T08:55:22Z</time>
      </trkpt>
      <trkpt lat="45.24262" lon="6.17137">
        <ele>1740.3</ele>
        <time>2022-06-18T08:55:24Z</time>
      </trkpt>
      <trkpt lat="45.24262" lon="6.17132">
        <ele>1741.3</ele>
        <time>2022-06-18T08:55:25Z</time>
      </trkpt>
      <trkpt lat="45.24261" lon="6.17127">
        <ele>1742.5</ele>
        <time>2022-06-18T08:55:26Z</time>
      </trkpt>
      <trkpt lat="45.2426" lon="6.17123">
        <ele>1743.4</ele>
        <time>2022-06-18T08:55:27Z</time>
      </trkpt>
      <trkpt lat="45.24259" lon="6.17121">
        <ele>1743.7</ele>
        <time>2022-06-18T08:55:28Z</time>
      </trkpt>
      <trkpt lat="45.24258" lon="6.17119">
        <ele>1744.3</ele>
        <time>2022-06-18T08:55:29Z</time>
      </trkpt>
      <trkpt lat="45.24258" lon="6.17113">
        <ele>1745.5</ele>
        <time>2022-06-18T08:55:31Z</time>
      </trkpt>
      <trkpt lat="45.24257" lon="6.1711">
        <ele>1746.3</ele>
        <time>2022-06-18T08:55:32Z</time>
      </trkpt>
      <trkpt lat="45.24257" lon="6.17105">
        <ele>1747.2</ele>
        <time>2022-06-18T08:55:33Z</time>
      </trkpt>
      <trkpt lat="45.24256" lon="6.17102">
        <ele>1747.9</ele>
        <time>2022-06-18T08:55:34Z</time>
      </trkpt>
      <trkpt lat="45.24256" lon="6.17095">
        <ele>1749.3</ele>
        <time>2022-06-18T08:55:36Z</time>
      </trkpt>
      <trkpt lat="45.24256" lon="6.1709">
        <ele>1750.4</ele>
        <time>2022-06-18T08:55:37Z</time>
      </trkpt>
      <trkpt lat="45.24256" lon="6.17088">
        <ele>1750.8</ele>
        <time>2022-06-18T08:55:38Z</time>
      </trkpt>
      <trkpt lat="45.24255" lon="6.17085">
        <ele>1751.4</ele>
        <time>2022-06-18T08:55:39Z</time>
      </trkpt>
      <trkpt lat="45.24255" lon="6.17082">
        <ele>1752.1</ele>
        <time>2022-06-18T08:55:41Z</time>
      </trkpt>
      <trkpt lat="45.24256" lon="6.17076">
        <ele>1753.4</ele>
        <time>2022-06-18T08:55:42Z</time>
      </trkpt>
      <trkpt lat="45.24257" lon="6.17073">
        <ele>1754</ele>
        <time>2022-06-18T08:55:43Z</time>
      </trkpt>
      <trkpt lat="45.24258" lon="6.17067">
        <ele>1755.3</ele>
        <time>2022-06-18T08:55:44Z</time>
      </trkpt>
      <trkpt lat="45.24258" lon="6.17065">
        <ele>1755.8</ele>
        <time>2022-06-18T08:55:45Z</time>
      </trkpt>
      <trkpt lat="45.24259" lon="6.17059">
        <ele>1757.1</ele>
        <time>2022-06-18T08:55:46Z</time>
      </trkpt>
      <trkpt lat="45.24259" lon="6.17057">
        <ele>1757.7</ele>
        <time>2022-06-18T08:55:47Z</time>
      </trkpt>
      <trkpt lat="45.2426" lon="6.17053">
        <ele>1758.5</ele>
        <time>2022-06-18T08:55:49Z</time>
      </trkpt>
      <trkpt lat="45.2426" lon="6.17048">
        <ele>1759.7</ele>
        <time>2022-06-18T08:55:50Z</time>
      </trkpt>
      <trkpt lat="45.24261" lon="6.1704">
        <ele>1761.6</ele>
        <time>2022-06-18T08:55:52Z</time>
      </trkpt>
      <trkpt lat="45.24262" lon="6.17036">
        <ele>1762.5</ele>
        <time>2022-06-18T08:55:54Z</time>
      </trkpt>
      <trkpt lat="45.24263" lon="6.17031">
        <ele>1763.8</ele>
        <time>2022-06-18T08:55:55Z</time>
      </trkpt>
      <trkpt lat="45.24263" lon="6.17029">
        <ele>1764.3</ele>
        <time>2022-06-18T08:55:56Z</time>
      </trkpt>
      <trkpt lat="45.24262" lon="6.17025">
        <ele>1765.3</ele>
        <time>2022-06-18T08:55:57Z</time>
      </trkpt>
      <trkpt lat="45.2426" lon="6.17022">
        <ele>1765.8</ele>
        <time>2022-06-18T08:55:58Z</time>
      </trkpt>
      <trkpt lat="45.24256" lon="6.1702">
        <ele>1766.4</ele>
        <time>2022-06-18T08:55:59Z</time>
      </trkpt>
      <trkpt lat="45.24255" lon="6.1702">
        <ele>1766.6</ele>
        <time>2022-06-18T08:56:00Z</time>
      </trkpt>
      <trkpt lat="45.24249" lon="6.17025">
        <ele>1767.4</ele>
        <time>2022-06-18T08:56:02Z</time>
      </trkpt>
      <trkpt lat="45.24246" lon="6.1703">
        <ele>1767.8</ele>
        <time>2022-06-18T08:56:04Z</time>
      </trkpt>
      <trkpt lat="45.24245" lon="6.17036">
        <ele>1768</ele>
        <time>2022-06-18T08:56:05Z</time>
      </trkpt>
      <trkpt lat="45.24243" lon="6.17042">
        <ele>1768.2</ele>
        <time>2022-06-18T08:56:06Z</time>
      </trkpt>
      <trkpt lat="45.24243" lon="6.17047">
        <ele>1768.3</ele>
        <time>2022-06-18T08:56:07Z</time>
      </trkpt>
      <trkpt lat="45.24243" lon="6.17051">
        <ele>1768.4</ele>
        <time>2022-06-18T08:56:08Z</time>
      </trkpt>
      <trkpt lat="45.24243" lon="6.17057">
        <ele>1768.5</ele>
        <time>2022-06-18T08:56:09Z</time>
      </trkpt>
      <trkpt lat="45.24242" lon="6.17059">
        <ele>1768.5</ele>
        <time>2022-06-18T08:56:10Z</time>
      </trkpt>
      <trkpt lat="45.24242" lon="6.17062">
        <ele>1768.6</ele>
        <time>2022-06-18T08:56:11Z</time>
      </trkpt>
      <trkpt lat="45.2424" lon="6.17068">
        <ele>1768.7</ele>
        <time>2022-06-18T08:56:13Z</time>
      </trkpt>
      <trkpt lat="45.24239" lon="6.17072">
        <ele>1768.9</ele>
        <time>2022-06-18T08:56:14Z</time>
      </trkpt>
      <trkpt lat="45.24238" lon="6.17075">
        <ele>1768.9</ele>
        <time>2022-06-18T08:56:15Z</time>
      </trkpt>
      <trkpt lat="45.24238" lon="6.17077">
        <ele>1769</ele>
        <time>2022-06-18T08:56:17Z</time>
      </trkpt>
      <trkpt lat="45.24236" lon="6.17081">
        <ele>1769.2</ele>
        <time>2022-06-18T08:56:18Z</time>
      </trkpt>
      <trkpt lat="45.24236" lon="6.17085">
        <ele>1769.3</ele>
        <time>2022-06-18T08:56:19Z</time>
      </trkpt>
      <trkpt lat="45.24236" lon="6.17087">
        <ele>1769.3</ele>
        <time>2022-06-18T08:56:20Z</time>
      </trkpt>
      <trkpt lat="45.24235" lon="6.1709">
        <ele>1769.4</ele>
        <time>2022-06-18T08:56:21Z</time>
      </trkpt>
      <trkpt lat="45.24234" lon="6.17097">
        <ele>1769.7</ele>
        <time>2022-06-18T08:56:23Z</time>
      </trkpt>
      <trkpt lat="45.24233" lon="6.17102">
        <ele>1769.9</ele>
        <time>2022-06-18T08:56:24Z</time>
      </trkpt>
      <trkpt lat="45.24232" lon="6.17107">
        <ele>1770.1</ele>
        <time>2022-06-18T08:56:26Z</time>
      </trkpt>
      <trkpt lat="45.2423" lon="6.17111">
        <ele>1770.3</ele>
        <time>2022-06-18T08:56:27Z</time>
      </trkpt>
      <trkpt lat="45.2423" lon="6.17115">
        <ele>1770.5</ele>
        <time>2022-06-18T08:56:28Z</time>
      </trkpt>
      <trkpt lat="45.24229" lon="6.17119">
        <ele>1770.7</ele>
        <time>2022-06-18T08:56:30Z</time>
      </trkpt>
      <trkpt lat="45.24229" lon="6.17123">
        <ele>1770.9</ele>
        <time>2022-06-18T08:56:31Z</time>
      </trkpt>
      <trkpt lat="45.24229" lon="6.17125">
        <ele>1771.1</ele>
        <time>2022-06-18T08:56:32Z</time>
      </trkpt>
      <trkpt lat="45.24229" lon="6.1713">
        <ele>1771.4</ele>
        <time>2022-06-18T08:56:33Z</time>
      </trkpt>
      <trkpt lat="45.2423" lon="6.17132">
        <ele>1771.5</ele>
        <time>2022-06-18T08:56:34Z</time>
      </trkpt>
      <trkpt lat="45.2423" lon="6.17135">
        <ele>1771.6</ele>
        <time>2022-06-18T08:56:35Z</time>
      </trkpt>
      <trkpt lat="45.2423" lon="6.17139">
        <ele>1772</ele>
        <time>2022-06-18T08:56:37Z</time>
      </trkpt>
      <trkpt lat="45.24231" lon="6.17144">
        <ele>1772.3</ele>
        <time>2022-06-18T08:56:38Z</time>
      </trkpt>
      <trkpt lat="45.2423" lon="6.17149">
        <ele>1772.7</ele>
        <time>2022-06-18T08:56:40Z</time>
      </trkpt>
      <trkpt lat="45.24231" lon="6.17155">
        <ele>1773.1</ele>
        <time>2022-06-18T08:56:41Z</time>
      </trkpt>
      <trkpt lat="45.24231" lon="6.17159">
        <ele>1773.5</ele>
        <time>2022-06-18T08:56:42Z</time>
      </trkpt>
      <trkpt lat="45.24231" lon="6.17161">
        <ele>1773.7</ele>
        <time>2022-06-18T08:56:43Z</time>
      </trkpt>
      <trkpt lat="45.24232" lon="6.17167">
        <ele>1774.1</ele>
        <time>2022-06-18T08:56:45Z</time>
      </trkpt>
      <trkpt lat="45.24232" lon="6.17171">
        <ele>1774.6</ele>
        <time>2022-06-18T08:56:46Z</time>
      </trkpt>
      <trkpt lat="45.24233" lon="6.17177">
        <ele>1775.1</ele>
        <time>2022-06-18T08:56:47Z</time>
      </trkpt>
      <trkpt lat="45.24233" lon="6.17179">
        <ele>1775.3</ele>
        <time>2022-06-18T08:56:48Z</time>
      </trkpt>
      <trkpt lat="45.24233" lon="6.17184">
        <ele>1775.8</ele>
        <time>2022-06-18T08:56:50Z</time>
      </trkpt>
      <trkpt lat="45.24233" lon="6.17185">
        <ele>1776</ele>
        <time>2022-06-18T08:56:51Z</time>
      </trkpt>
      <trkpt lat="45.24234" lon="6.17191">
        <ele>1776.6</ele>
        <time>2022-06-18T08:56:52Z</time>
      </trkpt>
      <trkpt lat="45.24234" lon="6.17193">
        <ele>1776.8</ele>
        <time>2022-06-18T08:56:53Z</time>
      </trkpt>
      <trkpt lat="45.24234" lon="6.17197">
        <ele>1777.4</ele>
        <time>2022-06-18T08:56:54Z</time>
      </trkpt>
      <trkpt lat="45.24234" lon="6.17199">
        <ele>1777.6</ele>
        <time>2022-06-18T08:56:55Z</time>
      </trkpt>
      <trkpt lat="45.24234" lon="6.17204">
        <ele>1778.2</ele>
        <time>2022-06-18T08:56:57Z</time>
      </trkpt>
      <trkpt lat="45.24234" lon="6.17206">
        <ele>1778.4</ele>
        <time>2022-06-18T08:56:58Z</time>
      </trkpt>
      <trkpt lat="45.24234" lon="6.1721">
        <ele>1779</ele>
        <time>2022-06-18T08:56:59Z</time>
      </trkpt>
      <trkpt lat="45.24234" lon="6.17214">
        <ele>1779.5</ele>
        <time>2022-06-18T08:57:00Z</time>
      </trkpt>
      <trkpt lat="45.24233" lon="6.17219">
        <ele>1780.3</ele>
        <time>2022-06-18T08:57:02Z</time>
      </trkpt>
      <trkpt lat="45.24232" lon="6.17224">
        <ele>1780.9</ele>
        <time>2022-06-18T08:57:03Z</time>
      </trkpt>
      <trkpt lat="45.2423" lon="6.17229">
        <ele>1781.8</ele>
        <time>2022-06-18T08:57:05Z</time>
      </trkpt>
      <trkpt lat="45.24228" lon="6.17233">
        <ele>1782.5</ele>
        <time>2022-06-18T08:57:06Z</time>
      </trkpt>
      <trkpt lat="45.24226" lon="6.17237">
        <ele>1783.1</ele>
        <time>2022-06-18T08:57:07Z</time>
      </trkpt>
      <trkpt lat="45.24224" lon="6.1724">
        <ele>1783.8</ele>
        <time>2022-06-18T08:57:08Z</time>
      </trkpt>
      <trkpt lat="45.24222" lon="6.17241">
        <ele>1784.1</ele>
        <time>2022-06-18T08:57:09Z</time>
      </trkpt>
      <trkpt lat="45.24221" lon="6.17243">
        <ele>1784.5</ele>
        <time>2022-06-18T08:57:10Z</time>
      </trkpt>
      <trkpt lat="45.2422" lon="6.17245">
        <ele>1784.9</ele>
        <time>2022-06-18T08:57:12Z</time>
      </trkpt>
      <trkpt lat="45.24218" lon="6.17248">
        <ele>1785.4</ele>
        <time>2022-06-18T08:57:13Z</time>
      </trkpt>
      <trkpt lat="45.24217" lon="6.17249">
        <ele>1785.6</ele>
        <time>2022-06-18T08:57:14Z</time>
      </trkpt>
      <trkpt lat="45.24216" lon="6.17253">
        <ele>1786.1</ele>
        <time>2022-06-18T08:57:15Z</time>
      </trkpt>
      <trkpt lat="45.24215" lon="6.17259">
        <ele>1786.7</ele>
        <time>2022-06-18T08:57:17Z</time>
      </trkpt>
      <trkpt lat="45.24215" lon="6.17264">
        <ele>1787.2</ele>
        <time>2022-06-18T08:57:18Z</time>
      </trkpt>
      <trkpt lat="45.24215" lon="6.17266">
        <ele>1787.4</ele>
        <time>2022-06-18T08:57:19Z</time>
      </trkpt>
      <trkpt lat="45.24216" lon="6.1727">
        <ele>1787.6</ele>
        <time>2022-06-18T08:57:20Z</time>
      </trkpt>
      <trkpt lat="45.24217" lon="6.17273">
        <ele>1787.8</ele>
        <time>2022-06-18T08:57:21Z</time>
      </trkpt>
      <trkpt lat="45.24219" lon="6.17277">
        <ele>1788.1</ele>
        <time>2022-06-18T08:57:23Z</time>
      </trkpt>
      <trkpt lat="45.24221" lon="6.17281">
        <ele>1788.4</ele>
        <time>2022-06-18T08:57:24Z</time>
      </trkpt>
      <trkpt lat="45.24222" lon="6.17282">
        <ele>1788.4</ele>
        <time>2022-06-18T08:57:25Z</time>
      </trkpt>
      <trkpt lat="45.24223" lon="6.17285">
        <ele>1788.6</ele>
        <time>2022-06-18T08:57:26Z</time>
      </trkpt>
      <trkpt lat="45.24226" lon="6.17293">
        <ele>1788.9</ele>
        <time>2022-06-18T08:57:28Z</time>
      </trkpt>
      <trkpt lat="45.24226" lon="6.17297">
        <ele>1789</ele>
        <time>2022-06-18T08:57:30Z</time>
      </trkpt>
      <trkpt lat="45.24227" lon="6.17302">
        <ele>1789.2</ele>
        <time>2022-06-18T08:57:31Z</time>
      </trkpt>
      <trkpt lat="45.24229" lon="6.17305">
        <ele>1789.3</ele>
        <time>2022-06-18T08:57:32Z</time>
      </trkpt>
      <trkpt lat="45.2423" lon="6.17309">
        <ele>1789.4</ele>
        <time>2022-06-18T08:57:34Z</time>
      </trkpt>
      <trkpt lat="45.24231" lon="6.17313">
        <ele>1789.6</ele>
        <time>2022-06-18T08:57:35Z</time>
      </trkpt>
      <trkpt lat="45.24232" lon="6.17318">
        <ele>1789.8</ele>
        <time>2022-06-18T08:57:36Z</time>
      </trkpt>
      <trkpt lat="45.24232" lon="6.17319">
        <ele>1789.8</ele>
        <time>2022-06-18T08:57:37Z</time>
      </trkpt>
      <trkpt lat="45.24233" lon="6.17323">
        <ele>1790</ele>
        <time>2022-06-18T08:57:38Z</time>
      </trkpt>
      <trkpt lat="45.24234" lon="6.17327">
        <ele>1790.2</ele>
        <time>2022-06-18T08:57:39Z</time>
      </trkpt>
      <trkpt lat="45.24235" lon="6.17332">
        <ele>1790.5</ele>
        <time>2022-06-18T08:57:41Z</time>
      </trkpt>
      <trkpt lat="45.24236" lon="6.17336">
        <ele>1790.7</ele>
        <time>2022-06-18T08:57:42Z</time>
      </trkpt>
      <trkpt lat="45.24237" lon="6.1734">
        <ele>1791</ele>
        <time>2022-06-18T08:57:43Z</time>
      </trkpt>
      <trkpt lat="45.24237" lon="6.17345">
        <ele>1791.3</ele>
        <time>2022-06-18T08:57:44Z</time>
      </trkpt>
      <trkpt lat="45.24238" lon="6.17347">
        <ele>1791.5</ele>
        <time>2022-06-18T08:57:45Z</time>
      </trkpt>
      <trkpt lat="45.24238" lon="6.17352">
        <ele>1791.9</ele>
        <time>2022-06-18T08:57:46Z</time>
      </trkpt>
      <trkpt lat="45.24238" lon="6.17353">
        <ele>1792</ele>
        <time>2022-06-18T08:57:47Z</time>
      </trkpt>
      <trkpt lat="45.24239" lon="6.17358">
        <ele>1792.5</ele>
        <time>2022-06-18T08:57:48Z</time>
      </trkpt>
      <trkpt lat="45.24239" lon="6.1736">
        <ele>1792.6</ele>
        <time>2022-06-18T08:57:49Z</time>
      </trkpt>
      <trkpt lat="45.2424" lon="6.17364">
        <ele>1793.1</ele>
        <time>2022-06-18T08:57:50Z</time>
      </trkpt>
      <trkpt lat="45.24241" lon="6.17366">
        <ele>1793.2</ele>
        <time>2022-06-18T08:57:51Z</time>
      </trkpt>
      <trkpt lat="45.24242" lon="6.1737">
        <ele>1793.8</ele>
        <time>2022-06-18T08:57:53Z</time>
      </trkpt>
      <trkpt lat="45.24243" lon="6.17372">
        <ele>1794</ele>
        <time>2022-06-18T08:57:54Z</time>
      </trkpt>
      <trkpt lat="45.24243" lon="6.17377">
        <ele>1794.6</ele>
        <time>2022-06-18T08:57:55Z</time>
      </trkpt>
      <trkpt lat="45.24244" lon="6.17379">
        <ele>1794.8</ele>
        <time>2022-06-18T08:57:56Z</time>
      </trkpt>
      <trkpt lat="45.24244" lon="6.17384">
        <ele>1795.4</ele>
        <time>2022-06-18T08:57:57Z</time>
      </trkpt>
      <trkpt lat="45.24243" lon="6.17386">
        <ele>1795.6</ele>
        <time>2022-06-18T08:57:58Z</time>
      </trkpt>
      <trkpt lat="45.24243" lon="6.17389">
        <ele>1795.9</ele>
        <time>2022-06-18T08:57:59Z</time>
      </trkpt>
      <trkpt lat="45.24244" lon="6.17392">
        <ele>1796.3</ele>
        <time>2022-06-18T08:58:01Z</time>
      </trkpt>
      <trkpt lat="45.24243" lon="6.17397">
        <ele>1796.8</ele>
        <time>2022-06-18T08:58:02Z</time>
      </trkpt>
      <trkpt lat="45.24243" lon="6.17398">
        <ele>1797</ele>
        <time>2022-06-18T08:58:03Z</time>
      </trkpt>
      <trkpt lat="45.24243" lon="6.17403">
        <ele>1797.5</ele>
        <time>2022-06-18T08:58:04Z</time>
      </trkpt>
      <trkpt lat="45.24243" lon="6.17405">
        <ele>1797.7</ele>
        <time>2022-06-18T08:58:05Z</time>
      </trkpt>
      <trkpt lat="45.24245" lon="6.17409">
        <ele>1798.2</ele>
        <time>2022-06-18T08:58:06Z</time>
      </trkpt>
      <trkpt lat="45.24245" lon="6.17411">
        <ele>1798.3</ele>
        <time>2022-06-18T08:58:07Z</time>
      </trkpt>
      <trkpt lat="45.24246" lon="6.17415">
        <ele>1798.7</ele>
        <time>2022-06-18T08:58:08Z</time>
      </trkpt>
      <trkpt lat="45.24246" lon="6.17416">
        <ele>1798.9</ele>
        <time>2022-06-18T08:58:09Z</time>
      </trkpt>
      <trkpt lat="45.24247" lon="6.17419">
        <ele>1799.1</ele>
        <time>2022-06-18T08:58:11Z</time>
      </trkpt>
      <trkpt lat="45.24247" lon="6.1742">
        <ele>1799.3</ele>
        <time>2022-06-18T08:58:12Z</time>
      </trkpt>
      <trkpt lat="45.24248" lon="6.17422">
        <ele>1799.4</ele>
        <time>2022-06-18T08:58:13Z</time>
      </trkpt>
      <trkpt lat="45.2425" lon="6.17425">
        <ele>1799.8</ele>
        <time>2022-06-18T08:58:15Z</time>
      </trkpt>
      <trkpt lat="45.24252" lon="6.17429">
        <ele>1800.1</ele>
        <time>2022-06-18T08:58:16Z</time>
      </trkpt>
      <trkpt lat="45.24253" lon="6.1743">
        <ele>1800.3</ele>
        <time>2022-06-18T08:58:17Z</time>
      </trkpt>
      <trkpt lat="45.24256" lon="6.17433">
        <ele>1800.7</ele>
        <time>2022-06-18T08:58:19Z</time>
      </trkpt>
      <trkpt lat="45.24259" lon="6.17435">
        <ele>1801</ele>
        <time>2022-06-18T08:58:20Z</time>
      </trkpt>
      <trkpt lat="45.2426" lon="6.17436">
        <ele>1801.2</ele>
        <time>2022-06-18T08:58:21Z</time>
      </trkpt>
      <trkpt lat="45.24265" lon="6.1744">
        <ele>1801.7</ele>
        <time>2022-06-18T08:58:23Z</time>
      </trkpt>
      <trkpt lat="45.24266" lon="6.17442">
        <ele>1801.9</ele>
        <time>2022-06-18T08:58:24Z</time>
      </trkpt>
      <trkpt lat="45.24267" lon="6.17444">
        <ele>1802.1</ele>
        <time>2022-06-18T08:58:25Z</time>
      </trkpt>
      <trkpt lat="45.24269" lon="6.17447">
        <ele>1802.4</ele>
        <time>2022-06-18T08:58:26Z</time>
      </trkpt>
      <trkpt lat="45.24271" lon="6.1745">
        <ele>1802.7</ele>
        <time>2022-06-18T08:58:28Z</time>
      </trkpt>
      <trkpt lat="45.24274" lon="6.17453">
        <ele>1803</ele>
        <time>2022-06-18T08:58:29Z</time>
      </trkpt>
      <trkpt lat="45.24275" lon="6.17458">
        <ele>1803.4</ele>
        <time>2022-06-18T08:58:30Z</time>
      </trkpt>
      <trkpt lat="45.24277" lon="6.17461">
        <ele>1803.7</ele>
        <time>2022-06-18T08:58:31Z</time>
      </trkpt>
      <trkpt lat="45.24278" lon="6.17465">
        <ele>1804</ele>
        <time>2022-06-18T08:58:33Z</time>
      </trkpt>
      <trkpt lat="45.24278" lon="6.17466">
        <ele>1804.2</ele>
        <time>2022-06-18T08:58:34Z</time>
      </trkpt>
      <trkpt lat="45.24279" lon="6.17469">
        <ele>1804.5</ele>
        <time>2022-06-18T08:58:35Z</time>
      </trkpt>
      <trkpt lat="45.24281" lon="6.17473">
        <ele>1804.9</ele>
        <time>2022-06-18T08:58:36Z</time>
      </trkpt>
      <trkpt lat="45.24282" lon="6.17475">
        <ele>1805.1</ele>
        <time>2022-06-18T08:58:37Z</time>
      </trkpt>
      <trkpt lat="45.24283" lon="6.17479">
        <ele>1805.5</ele>
        <time>2022-06-18T08:58:38Z</time>
      </trkpt>
      <trkpt lat="45.24284" lon="6.17481">
        <ele>1805.7</ele>
        <time>2022-06-18T08:58:39Z</time>
      </trkpt>
      <trkpt lat="45.24285" lon="6.17484">
        <ele>1806</ele>
        <time>2022-06-18T08:58:40Z</time>
      </trkpt>
      <trkpt lat="45.24286" lon="6.17487">
        <ele>1806.4</ele>
        <time>2022-06-18T08:58:42Z</time>
      </trkpt>
      <trkpt lat="45.24286" lon="6.17491">
        <ele>1806.8</ele>
        <time>2022-06-18T08:58:43Z</time>
      </trkpt>
      <trkpt lat="45.24286" lon="6.17493">
        <ele>1807</ele>
        <time>2022-06-18T08:58:44Z</time>
      </trkpt>
      <trkpt lat="45.24285" lon="6.17498">
        <ele>1807.5</ele>
        <time>2022-06-18T08:58:45Z</time>
      </trkpt>
      <trkpt lat="45.24285" lon="6.17499">
        <ele>1807.7</ele>
        <time>2022-06-18T08:58:46Z</time>
      </trkpt>
      <trkpt lat="45.24285" lon="6.17504">
        <ele>1808.1</ele>
        <time>2022-06-18T08:58:47Z</time>
      </trkpt>
      <trkpt lat="45.24285" lon="6.17505">
        <ele>1808.3</ele>
        <time>2022-06-18T08:58:48Z</time>
      </trkpt>
      <trkpt lat="45.24285" lon="6.17509">
        <ele>1808.6</ele>
        <time>2022-06-18T08:58:49Z</time>
      </trkpt>
      <trkpt lat="45.24285" lon="6.17513">
        <ele>1809.1</ele>
        <time>2022-06-18T08:58:51Z</time>
      </trkpt>
      <trkpt lat="45.24286" lon="6.17518">
        <ele>1809.7</ele>
        <time>2022-06-18T08:58:52Z</time>
      </trkpt>
      <trkpt lat="45.24286" lon="6.17519">
        <ele>1809.8</ele>
        <time>2022-06-18T08:58:53Z</time>
      </trkpt>
      <trkpt lat="45.24286" lon="6.17524">
        <ele>1810.4</ele>
        <time>2022-06-18T08:58:54Z</time>
      </trkpt>
      <trkpt lat="45.24287" lon="6.17525">
        <ele>1810.6</ele>
        <time>2022-06-18T08:58:55Z</time>
      </trkpt>
      <trkpt lat="45.24288" lon="6.17529">
        <ele>1811.1</ele>
        <time>2022-06-18T08:58:56Z</time>
      </trkpt>
      <trkpt lat="45.24289" lon="6.1753">
        <ele>1811.3</ele>
        <time>2022-06-18T08:58:57Z</time>
      </trkpt>
      <trkpt lat="45.24291" lon="6.17536">
        <ele>1812.3</ele>
        <time>2022-06-18T08:58:59Z</time>
      </trkpt>
      <trkpt lat="45.24293" lon="6.17541">
        <ele>1813</ele>
        <time>2022-06-18T08:59:00Z</time>
      </trkpt>
      <trkpt lat="45.24293" lon="6.17542">
        <ele>1813.2</ele>
        <time>2022-06-18T08:59:01Z</time>
      </trkpt>
      <trkpt lat="45.24296" lon="6.17547">
        <ele>1814</ele>
        <time>2022-06-18T08:59:02Z</time>
      </trkpt>
      <trkpt lat="45.24296" lon="6.17548">
        <ele>1814.2</ele>
        <time>2022-06-18T08:59:03Z</time>
      </trkpt>
      <trkpt lat="45.24297" lon="6.17551">
        <ele>1814.7</ele>
        <time>2022-06-18T08:59:04Z</time>
      </trkpt>
      <trkpt lat="45.24299" lon="6.17555">
        <ele>1815.4</ele>
        <time>2022-06-18T08:59:06Z</time>
      </trkpt>
      <trkpt lat="45.24299" lon="6.1756">
        <ele>1816.1</ele>
        <time>2022-06-18T08:59:07Z</time>
      </trkpt>
      <trkpt lat="45.24298" lon="6.17562">
        <ele>1816.4</ele>
        <time>2022-06-18T08:59:08Z</time>
      </trkpt>
      <trkpt lat="45.24295" lon="6.17564">
        <ele>1816.8</ele>
        <time>2022-06-18T08:59:09Z</time>
      </trkpt>
      <trkpt lat="45.24292" lon="6.17563">
        <ele>1817.2</ele>
        <time>2022-06-18T08:59:10Z</time>
      </trkpt>
      <trkpt lat="45.24289" lon="6.17559">
        <ele>1817.7</ele>
        <time>2022-06-18T08:59:11Z</time>
      </trkpt>
      <trkpt lat="45.24288" lon="6.17558">
        <ele>1817.8</ele>
        <time>2022-06-18T08:59:12Z</time>
      </trkpt>
      <trkpt lat="45.24286" lon="6.17553">
        <ele>1818.1</ele>
        <time>2022-06-18T08:59:14Z</time>
      </trkpt>
      <trkpt lat="45.24285" lon="6.17549">
        <ele>1818.2</ele>
        <time>2022-06-18T08:59:15Z</time>
      </trkpt>
      <trkpt lat="45.24283" lon="6.17545">
        <ele>1818.4</ele>
        <time>2022-06-18T08:59:16Z</time>
      </trkpt>
      <trkpt lat="45.24283" lon="6.17539">
        <ele>1818.5</ele>
        <time>2022-06-18T08:59:17Z</time>
      </trkpt>
      <trkpt lat="45.24282" lon="6.17536">
        <ele>1818.6</ele>
        <time>2022-06-18T08:59:18Z</time>
      </trkpt>
      <trkpt lat="45.24281" lon="6.17532">
        <ele>1818.8</ele>
        <time>2022-06-18T08:59:20Z</time>
      </trkpt>
      <trkpt lat="45.2428" lon="6.17528">
        <ele>1818.9</ele>
        <time>2022-06-18T08:59:21Z</time>
      </trkpt>
      <trkpt lat="45.24278" lon="6.17523">
        <ele>1819.1</ele>
        <time>2022-06-18T08:59:22Z</time>
      </trkpt>
      <trkpt lat="45.24277" lon="6.17522">
        <ele>1819.1</ele>
        <time>2022-06-18T08:59:23Z</time>
      </trkpt>
      <trkpt lat="45.24276" lon="6.17519">
        <ele>1819.3</ele>
        <time>2022-06-18T08:59:24Z</time>
      </trkpt>
      <trkpt lat="45.24274" lon="6.17515">
        <ele>1819.5</ele>
        <time>2022-06-18T08:59:26Z</time>
      </trkpt>
      <trkpt lat="45.24272" lon="6.17511">
        <ele>1819.7</ele>
        <time>2022-06-18T08:59:27Z</time>
      </trkpt>
      <trkpt lat="45.24271" lon="6.17508">
        <ele>1819.9</ele>
        <time>2022-06-18T08:59:28Z</time>
      </trkpt>
      <trkpt lat="45.24269" lon="6.17503">
        <ele>1820.3</ele>
        <time>2022-06-18T08:59:29Z</time>
      </trkpt>
      <trkpt lat="45.24268" lon="6.17502">
        <ele>1820.4</ele>
        <time>2022-06-18T08:59:30Z</time>
      </trkpt>
      <trkpt lat="45.24266" lon="6.17497">
        <ele>1820.7</ele>
        <time>2022-06-18T08:59:31Z</time>
      </trkpt>
      <trkpt lat="45.24266" lon="6.17496">
        <ele>1820.8</ele>
        <time>2022-06-18T08:59:32Z</time>
      </trkpt>
      <trkpt lat="45.24264" lon="6.17492">
        <ele>1821.2</ele>
        <time>2022-06-18T08:59:33Z</time>
      </trkpt>
      <trkpt lat="45.24263" lon="6.1749">
        <ele>1821.3</ele>
        <time>2022-06-18T08:59:34Z</time>
      </trkpt>
      <trkpt lat="45.24261" lon="6.17486">
        <ele>1821.6</ele>
        <time>2022-06-18T08:59:35Z</time>
      </trkpt>
      <trkpt lat="45.2426" lon="6.17485">
        <ele>1821.7</ele>
        <time>2022-06-18T08:59:36Z</time>
      </trkpt>
      <trkpt lat="45.24258" lon="6.17482">
        <ele>1822</ele>
        <time>2022-06-18T08:59:37Z</time>
      </trkpt>
      <trkpt lat="45.24257" lon="6.1748">
        <ele>1822.1</ele>
        <time>2022-06-18T08:59:38Z</time>
      </trkpt>
      <trkpt lat="45.24255" lon="6.17477">
        <ele>1822.4</ele>
        <time>2022-06-18T08:59:39Z</time>
      </trkpt>
      <trkpt lat="45.24253" lon="6.17474">
        <ele>1822.6</ele>
        <time>2022-06-18T08:59:40Z</time>
      </trkpt>
      <trkpt lat="45.24251" lon="6.17472">
        <ele>1822.9</ele>
        <time>2022-06-18T08:59:42Z</time>
      </trkpt>
      <trkpt lat="45.24248" lon="6.17469">
        <ele>1823.2</ele>
        <time>2022-06-18T08:59:43Z</time>
      </trkpt>
      <trkpt lat="45.24247" lon="6.17468">
        <ele>1823.3</ele>
        <time>2022-06-18T08:59:44Z</time>
      </trkpt>
      <trkpt lat="45.24244" lon="6.17467">
        <ele>1823.6</ele>
        <time>2022-06-18T08:59:45Z</time>
      </trkpt>
      <trkpt lat="45.24243" lon="6.17466">
        <ele>1823.7</ele>
        <time>2022-06-18T08:59:46Z</time>
      </trkpt>
      <trkpt lat="45.24241" lon="6.17465">
        <ele>1823.9</ele>
        <time>2022-06-18T08:59:47Z</time>
      </trkpt>
      <trkpt lat="45.2424" lon="6.17465">
        <ele>1824</ele>
        <time>2022-06-18T08:59:48Z</time>
      </trkpt>
      <trkpt lat="45.24237" lon="6.17463">
        <ele>1824.3</ele>
        <time>2022-06-18T08:59:49Z</time>
      </trkpt>
      <trkpt lat="45.24235" lon="6.17463">
        <ele>1824.5</ele>
        <time>2022-06-18T08:59:50Z</time>
      </trkpt>
      <trkpt lat="45.24231" lon="6.17461">
        <ele>1824.9</ele>
        <time>2022-06-18T08:59:52Z</time>
      </trkpt>
      <trkpt lat="45.2423" lon="6.17461">
        <ele>1825</ele>
        <time>2022-06-18T08:59:53Z</time>
      </trkpt>
      <trkpt lat="45.24228" lon="6.17461">
        <ele>1825.2</ele>
        <time>2022-06-18T08:59:54Z</time>
      </trkpt>
      <trkpt lat="45.24226" lon="6.1746">
        <ele>1825.4</ele>
        <time>2022-06-18T08:59:55Z</time>
      </trkpt>
      <trkpt lat="45.24223" lon="6.1746">
        <ele>1825.7</ele>
        <time>2022-06-18T08:59:57Z</time>
      </trkpt>
      <trkpt lat="45.2422" lon="6.17459">
        <ele>1826</ele>
        <time>2022-06-18T08:59:58Z</time>
      </trkpt>
      <trkpt lat="45.24218" lon="6.17457">
        <ele>1826.3</ele>
        <time>2022-06-18T08:59:59Z</time>
      </trkpt>
      <trkpt lat="45.24217" lon="6.17456">
        <ele>1826.4</ele>
        <time>2022-06-18T09:00:00Z</time>
      </trkpt>
      <trkpt lat="45.24213" lon="6.17453">
        <ele>1826.9</ele>
        <time>2022-06-18T09:00:02Z</time>
      </trkpt>
      <trkpt lat="45.24211" lon="6.17452">
        <ele>1827.1</ele>
        <time>2022-06-18T09:00:03Z</time>
      </trkpt>
      <trkpt lat="45.2421" lon="6.17452">
        <ele>1827.3</ele>
        <time>2022-06-18T09:00:04Z</time>
      </trkpt>
      <trkpt lat="45.24207" lon="6.17449">
        <ele>1827.7</ele>
        <time>2022-06-18T09:00:05Z</time>
      </trkpt>
      <trkpt lat="45.24206" lon="6.17449">
        <ele>1827.8</ele>
        <time>2022-06-18T09:00:06Z</time>
      </trkpt>
      <trkpt lat="45.24204" lon="6.17448">
        <ele>1828</ele>
        <time>2022-06-18T09:00:07Z</time>
      </trkpt>
      <trkpt lat="45.24203" lon="6.17445">
        <ele>1828.3</ele>
        <time>2022-06-18T09:00:09Z</time>
      </trkpt>
      <trkpt lat="45.242" lon="6.17442">
        <ele>1828.7</ele>
        <time>2022-06-18T09:00:10Z</time>
      </trkpt>
      <trkpt lat="45.242" lon="6.17441">
        <ele>1828.8</ele>
        <time>2022-06-18T09:00:11Z</time>
      </trkpt>
      <trkpt lat="45.24197" lon="6.17437">
        <ele>1829.2</ele>
        <time>2022-06-18T09:00:13Z</time>
      </trkpt>
      <trkpt lat="45.24196" lon="6.17436">
        <ele>1829.4</ele>
        <time>2022-06-18T09:00:14Z</time>
      </trkpt>
      <trkpt lat="45.24194" lon="6.17432">
        <ele>1829.9</ele>
        <time>2022-06-18T09:00:15Z</time>
      </trkpt>
      <trkpt lat="45.24193" lon="6.17431">
        <ele>1830</ele>
        <time>2022-06-18T09:00:16Z</time>
      </trkpt>
      <trkpt lat="45.2419" lon="6.17427">
        <ele>1830.5</ele>
        <time>2022-06-18T09:00:17Z</time>
      </trkpt>
      <trkpt lat="45.24189" lon="6.17426">
        <ele>1830.7</ele>
        <time>2022-06-18T09:00:18Z</time>
      </trkpt>
      <trkpt lat="45.24188" lon="6.17423">
        <ele>1831</ele>
        <time>2022-06-18T09:00:19Z</time>
      </trkpt>
      <trkpt lat="45.24186" lon="6.1742">
        <ele>1831.4</ele>
        <time>2022-06-18T09:00:21Z</time>
      </trkpt>
      <trkpt lat="45.24185" lon="6.17415">
        <ele>1832</ele>
        <time>2022-06-18T09:00:22Z</time>
      </trkpt>
      <trkpt lat="45.24185" lon="6.17413">
        <ele>1832.2</ele>
        <time>2022-06-18T09:00:23Z</time>
      </trkpt>
      <trkpt lat="45.24184" lon="6.17409">
        <ele>1832.7</ele>
        <time>2022-06-18T09:00:24Z</time>
      </trkpt>
      <trkpt lat="45.24183" lon="6.17403">
        <ele>1833.3</ele>
        <time>2022-06-18T09:00:25Z</time>
      </trkpt>
      <trkpt lat="45.24182" lon="6.17401">
        <ele>1833.5</ele>
        <time>2022-06-18T09:00:26Z</time>
      </trkpt>
      <trkpt lat="45.24182" lon="6.17399">
        <ele>1833.9</ele>
        <time>2022-06-18T09:00:27Z</time>
      </trkpt>
      <trkpt lat="45.2418" lon="6.17392">
        <ele>1834.8</ele>
        <time>2022-06-18T09:00:29Z</time>
      </trkpt>
      <trkpt lat="45.24178" lon="6.17387">
        <ele>1835.5</ele>
        <time>2022-06-18T09:00:31Z</time>
      </trkpt>
      <trkpt lat="45.24176" lon="6.17383">
        <ele>1836.2</ele>
        <time>2022-06-18T09:00:32Z</time>
      </trkpt>
      <trkpt lat="45.24175" lon="6.17379">
        <ele>1836.8</ele>
        <time>2022-06-18T09:00:33Z</time>
      </trkpt>
      <trkpt lat="45.24173" lon="6.17375">
        <ele>1837.5</ele>
        <time>2022-06-18T09:00:34Z</time>
      </trkpt>
      <trkpt lat="45.24171" lon="6.1737">
        <ele>1838.3</ele>
        <time>2022-06-18T09:00:36Z</time>
      </trkpt>
      <trkpt lat="45.24169" lon="6.17366">
        <ele>1839</ele>
        <time>2022-06-18T09:00:37Z</time>
      </trkpt>
      <trkpt lat="45.24166" lon="6.17363">
        <ele>1839.7</ele>
        <time>2022-06-18T09:00:39Z</time>
      </trkpt>
      <trkpt lat="45.24163" lon="6.17362">
        <ele>1840.3</ele>
        <time>2022-06-18T09:00:40Z</time>
      </trkpt>
      <trkpt lat="45.24159" lon="6.17363">
        <ele>1841</ele>
        <time>2022-06-18T09:00:41Z</time>
      </trkpt>
      <trkpt lat="45.24155" lon="6.17367">
        <ele>1841.5</ele>
        <time>2022-06-18T09:00:42Z</time>
      </trkpt>
      <trkpt lat="45.24152" lon="6.17374">
        <ele>1842.1</ele>
        <time>2022-06-18T09:00:44Z</time>
      </trkpt>
      <trkpt lat="45.2415" lon="6.17383">
        <ele>1842.6</ele>
        <time>2022-06-18T09:00:45Z</time>
      </trkpt>
      <trkpt lat="45.2415" lon="6.17388">
        <ele>1842.8</ele>
        <time>2022-06-18T09:00:46Z</time>
      </trkpt>
      <trkpt lat="45.2415" lon="6.17394">
        <ele>1843</ele>
        <time>2022-06-18T09:00:47Z</time>
      </trkpt>
      <trkpt lat="45.24152" lon="6.174">
        <ele>1843.2</ele>
        <time>2022-06-18T09:00:48Z</time>
      </trkpt>
      <trkpt lat="45.24153" lon="6.17404">
        <ele>1843.3</ele>
        <time>2022-06-18T09:00:49Z</time>
      </trkpt>
      <trkpt lat="45.24154" lon="6.17411">
        <ele>1843.6</ele>
        <time>2022-06-18T09:00:51Z</time>
      </trkpt>
      <trkpt lat="45.24154" lon="6.17416">
        <ele>1843.8</ele>
        <time>2022-06-18T09:00:52Z</time>
      </trkpt>
      <trkpt lat="45.24155" lon="6.17419">
        <ele>1843.9</ele>
        <time>2022-06-18T09:00:53Z</time>
      </trkpt>
      <trkpt lat="45.24156" lon="6.17422">
        <ele>1844.1</ele>
        <time>2022-06-18T09:00:55Z</time>
      </trkpt>
      <trkpt lat="45.24156" lon="6.17426">
        <ele>1844.2</ele>
        <time>2022-06-18T09:00:56Z</time>
      </trkpt>
      <trkpt lat="45.24156" lon="6.17428">
        <ele>1844.3</ele>
        <time>2022-06-18T09:00:57Z</time>
      </trkpt>
      <trkpt lat="45.24156" lon="6.17433">
        <ele>1844.6</ele>
        <time>2022-06-18T09:00:58Z</time>
      </trkpt>
      <trkpt lat="45.24156" lon="6.17434">
        <ele>1844.6</ele>
        <time>2022-06-18T09:00:59Z</time>
      </trkpt>
      <trkpt lat="45.24157" lon="6.17438">
        <ele>1844.9</ele>
        <time>2022-06-18T09:01:00Z</time>
      </trkpt>
      <trkpt lat="45.24158" lon="6.17441">
        <ele>1845</ele>
        <time>2022-06-18T09:01:01Z</time>
      </trkpt>
      <trkpt lat="45.24159" lon="6.17445">
        <ele>1845.2</ele>
        <time>2022-06-18T09:01:03Z</time>
      </trkpt>
      <trkpt lat="45.24159" lon="6.17447">
        <ele>1845.4</ele>
        <time>2022-06-18T09:01:04Z</time>
      </trkpt>
      <trkpt lat="45.24159" lon="6.1745">
        <ele>1845.5</ele>
        <time>2022-06-18T09:01:05Z</time>
      </trkpt>
      <trkpt lat="45.2416" lon="6.17453">
        <ele>1845.7</ele>
        <time>2022-06-18T09:01:06Z</time>
      </trkpt>
      <trkpt lat="45.24162" lon="6.17458">
        <ele>1846</ele>
        <time>2022-06-18T09:01:07Z</time>
      </trkpt>
      <trkpt lat="45.24164" lon="6.17462">
        <ele>1846.3</ele>
        <time>2022-06-18T09:01:08Z</time>
      </trkpt>
      <trkpt lat="45.24167" lon="6.17466">
        <ele>1846.6</ele>
        <time>2022-06-18T09:01:09Z</time>
      </trkpt>
      <trkpt lat="45.24169" lon="6.1747">
        <ele>1846.9</ele>
        <time>2022-06-18T09:01:11Z</time>
      </trkpt>
      <trkpt lat="45.24173" lon="6.17474">
        <ele>1847.3</ele>
        <time>2022-06-18T09:01:12Z</time>
      </trkpt>
      <trkpt lat="45.24175" lon="6.17478">
        <ele>1847.5</ele>
        <time>2022-06-18T09:01:13Z</time>
      </trkpt>
      <trkpt lat="45.24176" lon="6.17479">
        <ele>1847.6</ele>
        <time>2022-06-18T09:01:14Z</time>
      </trkpt>
      <trkpt lat="45.24177" lon="6.17482">
        <ele>1847.8</ele>
        <time>2022-06-18T09:01:15Z</time>
      </trkpt>
      <trkpt lat="45.24178" lon="6.17485">
        <ele>1848</ele>
        <time>2022-06-18T09:01:17Z</time>
      </trkpt>
      <trkpt lat="45.24179" lon="6.17489">
        <ele>1848.2</ele>
        <time>2022-06-18T09:01:18Z</time>
      </trkpt>
      <trkpt lat="45.24181" lon="6.17493">
        <ele>1848.4</ele>
        <time>2022-06-18T09:01:19Z</time>
      </trkpt>
      <trkpt lat="45.24182" lon="6.17495">
        <ele>1848.5</ele>
        <time>2022-06-18T09:01:20Z</time>
      </trkpt>
      <trkpt lat="45.24183" lon="6.17499">
        <ele>1848.8</ele>
        <time>2022-06-18T09:01:21Z</time>
      </trkpt>
      <trkpt lat="45.24184" lon="6.17501">
        <ele>1848.9</ele>
        <time>2022-06-18T09:01:22Z</time>
      </trkpt>
      <trkpt lat="45.24185" lon="6.17505">
        <ele>1849.1</ele>
        <time>2022-06-18T09:01:24Z</time>
      </trkpt>
      <trkpt lat="45.24186" lon="6.1751">
        <ele>1849.4</ele>
        <time>2022-06-18T09:01:25Z</time>
      </trkpt>
      <trkpt lat="45.24187" lon="6.17514">
        <ele>1849.7</ele>
        <time>2022-06-18T09:01:26Z</time>
      </trkpt>
      <trkpt lat="45.24187" lon="6.1752">
        <ele>1850</ele>
        <time>2022-06-18T09:01:28Z</time>
      </trkpt>
      <trkpt lat="45.24187" lon="6.17525">
        <ele>1850.4</ele>
        <time>2022-06-18T09:01:29Z</time>
      </trkpt>
      <trkpt lat="45.24188" lon="6.17527">
        <ele>1850.5</ele>
        <time>2022-06-18T09:01:30Z</time>
      </trkpt>
      <trkpt lat="45.24188" lon="6.17531">
        <ele>1850.7</ele>
        <time>2022-06-18T09:01:31Z</time>
      </trkpt>
      <trkpt lat="45.24189" lon="6.17536">
        <ele>1851</ele>
        <time>2022-06-18T09:01:32Z</time>
      </trkpt>
      <trkpt lat="45.24189" lon="6.17538">
        <ele>1851.1</ele>
        <time>2022-06-18T09:01:33Z</time>
      </trkpt>
      <trkpt lat="45.24189" lon="6.17541">
        <ele>1851.4</ele>
        <time>2022-06-18T09:01:34Z</time>
      </trkpt>
      <trkpt lat="45.2419" lon="6.17545">
        <ele>1851.7</ele>
        <time>2022-06-18T09:01:36Z</time>
      </trkpt>
      <trkpt lat="45.24192" lon="6.17551">
        <ele>1852.1</ele>
        <time>2022-06-18T09:01:37Z</time>
      </trkpt>
      <trkpt lat="45.24192" lon="6.17554">
        <ele>1852.2</ele>
        <time>2022-06-18T09:01:38Z</time>
      </trkpt>
      <trkpt lat="45.24194" lon="6.17558">
        <ele>1852.6</ele>
        <time>2022-06-18T09:01:40Z</time>
      </trkpt>
      <trkpt lat="45.24194" lon="6.17559">
        <ele>1852.7</ele>
        <time>2022-06-18T09:01:41Z</time>
      </trkpt>
      <trkpt lat="45.24196" lon="6.17563">
        <ele>1853</ele>
        <time>2022-06-18T09:01:42Z</time>
      </trkpt>
      <trkpt lat="45.24197" lon="6.17567">
        <ele>1853.3</ele>
        <time>2022-06-18T09:01:44Z</time>
      </trkpt>
      <trkpt lat="45.24198" lon="6.17569">
        <ele>1853.5</ele>
        <time>2022-06-18T09:01:45Z</time>
      </trkpt>
      <trkpt lat="45.242" lon="6.17574">
        <ele>1853.9</ele>
        <time>2022-06-18T09:01:46Z</time>
      </trkpt>
      <trkpt lat="45.24203" lon="6.17579">
        <ele>1854.3</ele>
        <time>2022-06-18T09:01:48Z</time>
      </trkpt>
      <trkpt lat="45.24205" lon="6.17582">
        <ele>1854.7</ele>
        <time>2022-06-18T09:01:49Z</time>
      </trkpt>
      <trkpt lat="45.24208" lon="6.17585">
        <ele>1855.1</ele>
        <time>2022-06-18T09:01:50Z</time>
      </trkpt>
      <trkpt lat="45.24211" lon="6.17589">
        <ele>1855.5</ele>
        <time>2022-06-18T09:01:51Z</time>
      </trkpt>
      <trkpt lat="45.24212" lon="6.1759">
        <ele>1855.7</ele>
        <time>2022-06-18T09:01:52Z</time>
      </trkpt>
      <trkpt lat="45.24214" lon="6.17592">
        <ele>1856</ele>
        <time>2022-06-18T09:01:53Z</time>
      </trkpt>
      <trkpt lat="45.24216" lon="6.17595">
        <ele>1856.3</ele>
        <time>2022-06-18T09:01:54Z</time>
      </trkpt>
      <trkpt lat="45.24217" lon="6.17599">
        <ele>1856.6</ele>
        <time>2022-06-18T09:01:56Z</time>
      </trkpt>
      <trkpt lat="45.24219" lon="6.17604">
        <ele>1857.1</ele>
        <time>2022-06-18T09:01:57Z</time>
      </trkpt>
      <trkpt lat="45.2422" lon="6.17606">
        <ele>1857.3</ele>
        <time>2022-06-18T09:01:58Z</time>
      </trkpt>
      <trkpt lat="45.24223" lon="6.1761">
        <ele>1857.8</ele>
        <time>2022-06-18T09:01:59Z</time>
      </trkpt>
      <trkpt lat="45.24224" lon="6.17611">
        <ele>1857.9</ele>
        <time>2022-06-18T09:02:00Z</time>
      </trkpt>
      <trkpt lat="45.24226" lon="6.17616">
        <ele>1858.3</ele>
        <time>2022-06-18T09:02:01Z</time>
      </trkpt>
      <trkpt lat="45.24226" lon="6.17619">
        <ele>1858.5</ele>
        <time>2022-06-18T09:02:02Z</time>
      </trkpt>
      <trkpt lat="45.24226" lon="6.17623">
        <ele>1858.8</ele>
        <time>2022-06-18T09:02:04Z</time>
      </trkpt>
      <trkpt lat="45.24227" lon="6.17627">
        <ele>1859.2</ele>
        <time>2022-06-18T09:02:05Z</time>
      </trkpt>
      <trkpt lat="45.24228" lon="6.17632">
        <ele>1859.5</ele>
        <time>2022-06-18T09:02:06Z</time>
      </trkpt>
      <trkpt lat="45.24229" lon="6.17637">
        <ele>1859.9</ele>
        <time>2022-06-18T09:02:07Z</time>
      </trkpt>
      <trkpt lat="45.24231" lon="6.17643">
        <ele>1860.3</ele>
        <time>2022-06-18T09:02:09Z</time>
      </trkpt>
      <trkpt lat="45.24231" lon="6.17649">
        <ele>1860.6</ele>
        <time>2022-06-18T09:02:10Z</time>
      </trkpt>
      <trkpt lat="45.24231" lon="6.17651">
        <ele>1860.8</ele>
        <time>2022-06-18T09:02:11Z</time>
      </trkpt>
      <trkpt lat="45.24232" lon="6.17656">
        <ele>1861.1</ele>
        <time>2022-06-18T09:02:13Z</time>
      </trkpt>
      <trkpt lat="45.24232" lon="6.1766">
        <ele>1861.4</ele>
        <time>2022-06-18T09:02:14Z</time>
      </trkpt>
      <trkpt lat="45.24232" lon="6.17665">
        <ele>1861.7</ele>
        <time>2022-06-18T09:02:15Z</time>
      </trkpt>
      <trkpt lat="45.24233" lon="6.17667">
        <ele>1861.8</ele>
        <time>2022-06-18T09:02:16Z</time>
      </trkpt>
      <trkpt lat="45.24233" lon="6.1767">
        <ele>1862</ele>
        <time>2022-06-18T09:02:17Z</time>
      </trkpt>
      <trkpt lat="45.24233" lon="6.17674">
        <ele>1862.3</ele>
        <time>2022-06-18T09:02:19Z</time>
      </trkpt>
      <trkpt lat="45.24233" lon="6.1768">
        <ele>1862.7</ele>
        <time>2022-06-18T09:02:20Z</time>
      </trkpt>
      <trkpt lat="45.24233" lon="6.17683">
        <ele>1862.9</ele>
        <time>2022-06-18T09:02:21Z</time>
      </trkpt>
      <trkpt lat="45.24233" lon="6.17688">
        <ele>1863.2</ele>
        <time>2022-06-18T09:02:22Z</time>
      </trkpt>
      <trkpt lat="45.24234" lon="6.17689">
        <ele>1863.3</ele>
        <time>2022-06-18T09:02:23Z</time>
      </trkpt>
      <trkpt lat="45.24235" lon="6.17695">
        <ele>1863.7</ele>
        <time>2022-06-18T09:02:24Z</time>
      </trkpt>
      <trkpt lat="45.24236" lon="6.17696">
        <ele>1863.8</ele>
        <time>2022-06-18T09:02:25Z</time>
      </trkpt>
      <trkpt lat="45.24237" lon="6.17701">
        <ele>1864.2</ele>
        <time>2022-06-18T09:02:26Z</time>
      </trkpt>
      <trkpt lat="45.24238" lon="6.17704">
        <ele>1864.5</ele>
        <time>2022-06-18T09:02:27Z</time>
      </trkpt>
      <trkpt lat="45.24239" lon="6.17707">
        <ele>1864.7</ele>
        <time>2022-06-18T09:02:28Z</time>
      </trkpt>
      <trkpt lat="45.24241" lon="6.1771">
        <ele>1865</ele>
        <time>2022-06-18T09:02:30Z</time>
      </trkpt>
      <trkpt lat="45.24244" lon="6.17713">
        <ele>1865.5</ele>
        <time>2022-06-18T09:02:31Z</time>
      </trkpt>
      <trkpt lat="45.24247" lon="6.17716">
        <ele>1865.9</ele>
        <time>2022-06-18T09:02:32Z</time>
      </trkpt>
      <trkpt lat="45.24248" lon="6.17717">
        <ele>1866</ele>
        <time>2022-06-18T09:02:33Z</time>
      </trkpt>
      <trkpt lat="45.24251" lon="6.1772">
        <ele>1866.4</ele>
        <time>2022-06-18T09:02:35Z</time>
      </trkpt>
      <trkpt lat="45.24252" lon="6.17722">
        <ele>1866.6</ele>
        <time>2022-06-18T09:02:36Z</time>
      </trkpt>
      <trkpt lat="45.24257" lon="6.17727">
        <ele>1867.2</ele>
        <time>2022-06-18T09:02:38Z</time>
      </trkpt>
      <trkpt lat="45.24259" lon="6.17729">
        <ele>1867.5</ele>
        <time>2022-06-18T09:02:39Z</time>
      </trkpt>
      <trkpt lat="45.2426" lon="6.17732">
        <ele>1867.8</ele>
        <time>2022-06-18T09:02:40Z</time>
      </trkpt>
      <trkpt lat="45.24262" lon="6.17735">
        <ele>1868.1</ele>
        <time>2022-06-18T09:02:42Z</time>
      </trkpt>
      <trkpt lat="45.24264" lon="6.1774">
        <ele>1868.5</ele>
        <time>2022-06-18T09:02:43Z</time>
      </trkpt>
      <trkpt lat="45.24265" lon="6.17742">
        <ele>1868.7</ele>
        <time>2022-06-18T09:02:44Z</time>
      </trkpt>
      <trkpt lat="45.24266" lon="6.17745">
        <ele>1869</ele>
        <time>2022-06-18T09:02:45Z</time>
      </trkpt>
      <trkpt lat="45.24268" lon="6.1775">
        <ele>1869.5</ele>
        <time>2022-06-18T09:02:46Z</time>
      </trkpt>
      <trkpt lat="45.2427" lon="6.17754">
        <ele>1869.8</ele>
        <time>2022-06-18T09:02:47Z</time>
      </trkpt>
      <trkpt lat="45.2427" lon="6.17756">
        <ele>1870</ele>
        <time>2022-06-18T09:02:48Z</time>
      </trkpt>
      <trkpt lat="45.24271" lon="6.17761">
        <ele>1870.4</ele>
        <time>2022-06-18T09:02:50Z</time>
      </trkpt>
      <trkpt lat="45.24271" lon="6.17762">
        <ele>1870.5</ele>
        <time>2022-06-18T09:02:51Z</time>
      </trkpt>
      <trkpt lat="45.24272" lon="6.17764">
        <ele>1870.7</ele>
        <time>2022-06-18T09:02:52Z</time>
      </trkpt>
      <trkpt lat="45.24273" lon="6.17769">
        <ele>1871.2</ele>
        <time>2022-06-18T09:02:54Z</time>
      </trkpt>
      <trkpt lat="45.24274" lon="6.17773">
        <ele>1871.5</ele>
        <time>2022-06-18T09:02:55Z</time>
      </trkpt>
      <trkpt lat="45.24274" lon="6.17775">
        <ele>1871.6</ele>
        <time>2022-06-18T09:02:56Z</time>
      </trkpt>
      <trkpt lat="45.24276" lon="6.17779">
        <ele>1872.1</ele>
        <time>2022-06-18T09:02:58Z</time>
      </trkpt>
      <trkpt lat="45.24277" lon="6.1778">
        <ele>1872.3</ele>
        <time>2022-06-18T09:02:59Z</time>
      </trkpt>
      <trkpt lat="45.24281" lon="6.17785">
        <ele>1872.9</ele>
        <time>2022-06-18T09:03:00Z</time>
      </trkpt>
      <trkpt lat="45.24284" lon="6.17791">
        <ele>1873.6</ele>
        <time>2022-06-18T09:03:01Z</time>
      </trkpt>
      <trkpt lat="45.24286" lon="6.17796">
        <ele>1874.3</ele>
        <time>2022-06-18T09:03:02Z</time>
      </trkpt>
      <trkpt lat="45.24287" lon="6.17801">
        <ele>1874.8</ele>
        <time>2022-06-18T09:03:03Z</time>
      </trkpt>
      <trkpt lat="45.24287" lon="6.17805">
        <ele>1875.3</ele>
        <time>2022-06-18T09:03:04Z</time>
      </trkpt>
      <trkpt lat="45.24287" lon="6.17809">
        <ele>1875.7</ele>
        <time>2022-06-18T09:03:05Z</time>
      </trkpt>
      <trkpt lat="45.24286" lon="6.17814">
        <ele>1876.3</ele>
        <time>2022-06-18T09:03:06Z</time>
      </trkpt>
      <trkpt lat="45.24285" lon="6.17815">
        <ele>1876.4</ele>
        <time>2022-06-18T09:03:07Z</time>
      </trkpt>
      <trkpt lat="45.24282" lon="6.17818">
        <ele>1876.9</ele>
        <time>2022-06-18T09:03:08Z</time>
      </trkpt>
      <trkpt lat="45.24281" lon="6.17818">
        <ele>1877.1</ele>
        <time>2022-06-18T09:03:09Z</time>
      </trkpt>
      <trkpt lat="45.24276" lon="6.17814">
        <ele>1878</ele>
        <time>2022-06-18T09:03:11Z</time>
      </trkpt>
      <trkpt lat="45.24272" lon="6.17807">
        <ele>1878.9</ele>
        <time>2022-06-18T09:03:12Z</time>
      </trkpt>
      <trkpt lat="45.24269" lon="6.178">
        <ele>1879.6</ele>
        <time>2022-06-18T09:03:14Z</time>
      </trkpt>
      <trkpt lat="45.24267" lon="6.17796">
        <ele>1880</ele>
        <time>2022-06-18T09:03:15Z</time>
      </trkpt>
      <trkpt lat="45.24265" lon="6.1779">
        <ele>1880.5</ele>
        <time>2022-06-18T09:03:16Z</time>
      </trkpt>
      <trkpt lat="45.24263" lon="6.17786">
        <ele>1880.9</ele>
        <time>2022-06-18T09:03:17Z</time>
      </trkpt>
      <trkpt lat="45.2426" lon="6.1778">
        <ele>1881.3</ele>
        <time>2022-06-18T09:03:18Z</time>
      </trkpt>
      <trkpt lat="45.24259" lon="6.17776">
        <ele>1881.6</ele>
        <time>2022-06-18T09:03:19Z</time>
      </trkpt>
      <trkpt lat="45.24257" lon="6.17772">
        <ele>1881.9</ele>
        <time>2022-06-18T09:03:20Z</time>
      </trkpt>
      <trkpt lat="45.24255" lon="6.17768">
        <ele>1882.2</ele>
        <time>2022-06-18T09:03:21Z</time>
      </trkpt>
      <trkpt lat="45.24252" lon="6.17765">
        <ele>1882.5</ele>
        <time>2022-06-18T09:03:23Z</time>
      </trkpt>
      <trkpt lat="45.24249" lon="6.17763">
        <ele>1882.8</ele>
        <time>2022-06-18T09:03:24Z</time>
      </trkpt>
      <trkpt lat="45.24243" lon="6.1776">
        <ele>1883.3</ele>
        <time>2022-06-18T09:03:26Z</time>
      </trkpt>
      <trkpt lat="45.2424" lon="6.17757">
        <ele>1883.6</ele>
        <time>2022-06-18T09:03:27Z</time>
      </trkpt>
      <trkpt lat="45.24237" lon="6.17756">
        <ele>1883.8</ele>
        <time>2022-06-18T09:03:28Z</time>
      </trkpt>
      <trkpt lat="45.24233" lon="6.17755">
        <ele>1884.1</ele>
        <time>2022-06-18T09:03:30Z</time>
      </trkpt>
      <trkpt lat="45.2423" lon="6.17753">
        <ele>1884.4</ele>
        <time>2022-06-18T09:03:31Z</time>
      </trkpt>
      <trkpt lat="45.24229" lon="6.17752">
        <ele>1884.5</ele>
        <time>2022-06-18T09:03:32Z</time>
      </trkpt>
      <trkpt lat="45.24227" lon="6.1775">
        <ele>1884.8</ele>
        <time>2022-06-18T09:03:33Z</time>
      </trkpt>
      <trkpt lat="45.24224" lon="6.17747">
        <ele>1885.1</ele>
        <time>2022-06-18T09:03:34Z</time>
      </trkpt>
      <trkpt lat="45.24223" lon="6.17746">
        <ele>1885.1</ele>
        <time>2022-06-18T09:03:35Z</time>
      </trkpt>
      <trkpt lat="45.24221" lon="6.17743">
        <ele>1885.3</ele>
        <time>2022-06-18T09:03:36Z</time>
      </trkpt>
      <trkpt lat="45.24218" lon="6.17739">
        <ele>1885.7</ele>
        <time>2022-06-18T09:03:37Z</time>
      </trkpt>
      <trkpt lat="45.24216" lon="6.17736">
        <ele>1886</ele>
        <time>2022-06-18T09:03:39Z</time>
      </trkpt>
      <trkpt lat="45.24215" lon="6.17735">
        <ele>1886</ele>
        <time>2022-06-18T09:03:40Z</time>
      </trkpt>
      <trkpt lat="45.24213" lon="6.17734">
        <ele>1886.1</ele>
        <time>2022-06-18T09:03:41Z</time>
      </trkpt>
      <trkpt lat="45.24212" lon="6.17733">
        <ele>1886.2</ele>
        <time>2022-06-18T09:03:42Z</time>
      </trkpt>
      <trkpt lat="45.24209" lon="6.17731">
        <ele>1886.5</ele>
        <time>2022-06-18T09:03:43Z</time>
      </trkpt>
      <trkpt lat="45.24206" lon="6.17729">
        <ele>1886.8</ele>
        <time>2022-06-18T09:03:44Z</time>
      </trkpt>
      <trkpt lat="45.24205" lon="6.17728">
        <ele>1886.8</ele>
        <time>2022-06-18T09:03:45Z</time>
      </trkpt>
      <trkpt lat="45.24203" lon="6.17725">
        <ele>1887</ele>
        <time>2022-06-18T09:03:46Z</time>
      </trkpt>
      <trkpt lat="45.242" lon="6.17722">
        <ele>1887.3</ele>
        <time>2022-06-18T09:03:47Z</time>
      </trkpt>
      <trkpt lat="45.24199" lon="6.17721">
        <ele>1887.4</ele>
        <time>2022-06-18T09:03:48Z</time>
      </trkpt>
      <trkpt lat="45.24196" lon="6.17718">
        <ele>1887.7</ele>
        <time>2022-06-18T09:03:49Z</time>
      </trkpt>
      <trkpt lat="45.24194" lon="6.17717">
        <ele>1887.8</ele>
        <time>2022-06-18T09:03:50Z</time>
      </trkpt>
      <trkpt lat="45.24191" lon="6.17714">
        <ele>1888.1</ele>
        <time>2022-06-18T09:03:51Z</time>
      </trkpt>
      <trkpt lat="45.2419" lon="6.17713">
        <ele>1888.2</ele>
        <time>2022-06-18T09:03:52Z</time>
      </trkpt>
      <trkpt lat="45.24188" lon="6.17711">
        <ele>1888.4</ele>
        <time>2022-06-18T09:03:53Z</time>
      </trkpt>
      <trkpt lat="45.24186" lon="6.1771">
        <ele>1888.5</ele>
        <time>2022-06-18T09:03:55Z</time>
      </trkpt>
      <trkpt lat="45.24184" lon="6.17707">
        <ele>1888.8</ele>
        <time>2022-06-18T09:03:56Z</time>
      </trkpt>
      <trkpt lat="45.24183" lon="6.17706">
        <ele>1888.9</ele>
        <time>2022-06-18T09:03:57Z</time>
      </trkpt>
      <trkpt lat="45.24183" lon="6.17705">
        <ele>1888.9</ele>
        <time>2022-06-18T09:03:58Z</time>
      </trkpt>
      <trkpt lat="45.24181" lon="6.17703">
        <ele>1889</ele>
        <time>2022-06-18T09:03:59Z</time>
      </trkpt>
      <trkpt lat="45.2418" lon="6.17699">
        <ele>1889.2</ele>
        <time>2022-06-18T09:04:00Z</time>
      </trkpt>
      <trkpt lat="45.24179" lon="6.17698">
        <ele>1889.4</ele>
        <time>2022-06-18T09:04:01Z</time>
      </trkpt>
      <trkpt lat="45.24175" lon="6.17692">
        <ele>1889.9</ele>
        <time>2022-06-18T09:04:03Z</time>
      </trkpt>
      <trkpt lat="45.24174" lon="6.17691">
        <ele>1890</ele>
        <time>2022-06-18T09:04:04Z</time>
      </trkpt>
      <trkpt lat="45.24173" lon="6.17689">
        <ele>1890.2</ele>
        <time>2022-06-18T09:04:05Z</time>
      </trkpt>
      <trkpt lat="45.2417" lon="6.17686">
        <ele>1890.6</ele>
        <time>2022-06-18T09:04:06Z</time>
      </trkpt>
      <trkpt lat="45.24167" lon="6.17684">
        <ele>1890.8</ele>
        <time>2022-06-18T09:04:07Z</time>
      </trkpt>
      <trkpt lat="45.24162" lon="6.17678">
        <ele>1891.5</ele>
        <time>2022-06-18T09:04:08Z</time>
      </trkpt>
      <trkpt lat="45.24157" lon="6.17673">
        <ele>1892.1</ele>
        <time>2022-06-18T09:04:10Z</time>
      </trkpt>
      <trkpt lat="45.24154" lon="6.17671">
        <ele>1892.5</ele>
        <time>2022-06-18T09:04:11Z</time>
      </trkpt>
      <trkpt lat="45.2415" lon="6.17668">
        <ele>1892.9</ele>
        <time>2022-06-18T09:04:13Z</time>
      </trkpt>
      <trkpt lat="45.24147" lon="6.17666">
        <ele>1893.3</ele>
        <time>2022-06-18T09:04:14Z</time>
      </trkpt>
      <trkpt lat="45.24146" lon="6.17665">
        <ele>1893.5</ele>
        <time>2022-06-18T09:04:15Z</time>
      </trkpt>
      <trkpt lat="45.24143" lon="6.17664">
        <ele>1893.8</ele>
        <time>2022-06-18T09:04:16Z</time>
      </trkpt>
      <trkpt lat="45.24139" lon="6.17663">
        <ele>1894.3</ele>
        <time>2022-06-18T09:04:17Z</time>
      </trkpt>
      <trkpt lat="45.24138" lon="6.17663">
        <ele>1894.4</ele>
        <time>2022-06-18T09:04:18Z</time>
      </trkpt>
      <trkpt lat="45.24135" lon="6.17662">
        <ele>1894.7</ele>
        <time>2022-06-18T09:04:19Z</time>
      </trkpt>
      <trkpt lat="45.24134" lon="6.17662">
        <ele>1894.9</ele>
        <time>2022-06-18T09:04:20Z</time>
      </trkpt>
      <trkpt lat="45.24131" lon="6.1766">
        <ele>1895.2</ele>
        <time>2022-06-18T09:04:21Z</time>
      </trkpt>
      <trkpt lat="45.24129" lon="6.17659">
        <ele>1895.5</ele>
        <time>2022-06-18T09:04:23Z</time>
      </trkpt>
      <trkpt lat="45.24125" lon="6.17658">
        <ele>1896</ele>
        <time>2022-06-18T09:04:24Z</time>
      </trkpt>
      <trkpt lat="45.24122" lon="6.17656">
        <ele>1896.4</ele>
        <time>2022-06-18T09:04:25Z</time>
      </trkpt>
      <trkpt lat="45.24121" lon="6.17656">
        <ele>1896.5</ele>
        <time>2022-06-18T09:04:26Z</time>
      </trkpt>
      <trkpt lat="45.24116" lon="6.17652">
        <ele>1897.2</ele>
        <time>2022-06-18T09:04:28Z</time>
      </trkpt>
      <trkpt lat="45.24114" lon="6.17651">
        <ele>1897.5</ele>
        <time>2022-06-18T09:04:29Z</time>
      </trkpt>
      <trkpt lat="45.24112" lon="6.1765">
        <ele>1897.7</ele>
        <time>2022-06-18T09:04:30Z</time>
      </trkpt>
      <trkpt lat="45.2411" lon="6.17647">
        <ele>1898.1</ele>
        <time>2022-06-18T09:04:31Z</time>
      </trkpt>
      <trkpt lat="45.24107" lon="6.17643">
        <ele>1898.6</ele>
        <time>2022-06-18T09:04:32Z</time>
      </trkpt>
      <trkpt lat="45.24106" lon="6.17642">
        <ele>1898.7</ele>
        <time>2022-06-18T09:04:33Z</time>
      </trkpt>
      <trkpt lat="45.24103" lon="6.17639">
        <ele>1899.1</ele>
        <time>2022-06-18T09:04:34Z</time>
      </trkpt>
      <trkpt lat="45.24101" lon="6.17636">
        <ele>1899.5</ele>
        <time>2022-06-18T09:04:36Z</time>
      </trkpt>
      <trkpt lat="45.24098" lon="6.17632">
        <ele>1900</ele>
        <time>2022-06-18T09:04:37Z</time>
      </trkpt>
      <trkpt lat="45.24097" lon="6.17631">
        <ele>1900.1</ele>
        <time>2022-06-18T09:04:38Z</time>
      </trkpt>
      <trkpt lat="45.24094" lon="6.17627">
        <ele>1900.5</ele>
        <time>2022-06-18T09:04:39Z</time>
      </trkpt>
      <trkpt lat="45.24093" lon="6.17626">
        <ele>1900.7</ele>
        <time>2022-06-18T09:04:40Z</time>
      </trkpt>
      <trkpt lat="45.24091" lon="6.17624">
        <ele>1901</ele>
        <time>2022-06-18T09:04:41Z</time>
      </trkpt>
      <trkpt lat="45.24089" lon="6.17623">
        <ele>1901.2</ele>
        <time>2022-06-18T09:04:42Z</time>
      </trkpt>
      <trkpt lat="45.24086" lon="6.17619">
        <ele>1901.6</ele>
        <time>2022-06-18T09:04:44Z</time>
      </trkpt>
      <trkpt lat="45.24084" lon="6.17616">
        <ele>1902</ele>
        <time>2022-06-18T09:04:45Z</time>
      </trkpt>
      <trkpt lat="45.24081" lon="6.17614">
        <ele>1902.3</ele>
        <time>2022-06-18T09:04:46Z</time>
      </trkpt>
      <trkpt lat="45.24078" lon="6.17612">
        <ele>1902.7</ele>
        <time>2022-06-18T09:04:47Z</time>
      </trkpt>
      <trkpt lat="45.24077" lon="6.17612">
        <ele>1902.8</ele>
        <time>2022-06-18T09:04:48Z</time>
      </trkpt>
      <trkpt lat="45.24073" lon="6.1761">
        <ele>1903.3</ele>
        <time>2022-06-18T09:04:50Z</time>
      </trkpt>
      <trkpt lat="45.24071" lon="6.1761">
        <ele>1903.5</ele>
        <time>2022-06-18T09:04:51Z</time>
      </trkpt>
      <trkpt lat="45.24068" lon="6.17607">
        <ele>1903.9</ele>
        <time>2022-06-18T09:04:52Z</time>
      </trkpt>
      <trkpt lat="45.24066" lon="6.17606">
        <ele>1904.1</ele>
        <time>2022-06-18T09:04:53Z</time>
      </trkpt>
      <trkpt lat="45.24063" lon="6.17603">
        <ele>1904.6</ele>
        <time>2022-06-18T09:04:54Z</time>
      </trkpt>
      <trkpt lat="45.24062" lon="6.17602">
        <ele>1904.7</ele>
        <time>2022-06-18T09:04:55Z</time>
      </trkpt>
      <trkpt lat="45.24059" lon="6.17601">
        <ele>1905</ele>
        <time>2022-06-18T09:04:56Z</time>
      </trkpt>
      <trkpt lat="45.24055" lon="6.17598">
        <ele>1905.6</ele>
        <time>2022-06-18T09:04:58Z</time>
      </trkpt>
      <trkpt lat="45.24052" lon="6.17596">
        <ele>1906</ele>
        <time>2022-06-18T09:04:59Z</time>
      </trkpt>
      <trkpt lat="45.24048" lon="6.17592">
        <ele>1906.4</ele>
        <time>2022-06-18T09:05:00Z</time>
      </trkpt>
      <trkpt lat="45.24048" lon="6.17591">
        <ele>1906.5</ele>
        <time>2022-06-18T09:05:01Z</time>
      </trkpt>
      <trkpt lat="45.24044" lon="6.17586">
        <ele>1907.1</ele>
        <time>2022-06-18T09:05:03Z</time>
      </trkpt>
      <trkpt lat="45.2404" lon="6.17583">
        <ele>1907.5</ele>
        <time>2022-06-18T09:05:04Z</time>
      </trkpt>
      <trkpt lat="45.24039" lon="6.17581">
        <ele>1907.8</ele>
        <time>2022-06-18T09:05:05Z</time>
      </trkpt>
      <trkpt lat="45.24036" lon="6.17579">
        <ele>1908.1</ele>
        <time>2022-06-18T09:05:07Z</time>
      </trkpt>
      <trkpt lat="45.24033" lon="6.17576">
        <ele>1908.5</ele>
        <time>2022-06-18T09:05:08Z</time>
      </trkpt>
      <trkpt lat="45.24031" lon="6.17574">
        <ele>1908.7</ele>
        <time>2022-06-18T09:05:09Z</time>
      </trkpt>
      <trkpt lat="45.24028" lon="6.17572">
        <ele>1909.1</ele>
        <time>2022-06-18T09:05:11Z</time>
      </trkpt>
      <trkpt lat="45.24025" lon="6.17571">
        <ele>1909.4</ele>
        <time>2022-06-18T09:05:12Z</time>
      </trkpt>
      <trkpt lat="45.24024" lon="6.1757">
        <ele>1909.5</ele>
        <time>2022-06-18T09:05:13Z</time>
      </trkpt>
      <trkpt lat="45.24021" lon="6.17568">
        <ele>1910</ele>
        <time>2022-06-18T09:05:14Z</time>
      </trkpt>
      <trkpt lat="45.2402" lon="6.17568">
        <ele>1910.1</ele>
        <time>2022-06-18T09:05:15Z</time>
      </trkpt>
      <trkpt lat="45.24017" lon="6.17567">
        <ele>1910.4</ele>
        <time>2022-06-18T09:05:16Z</time>
      </trkpt>
      <trkpt lat="45.24015" lon="6.17567">
        <ele>1910.6</ele>
        <time>2022-06-18T09:05:17Z</time>
      </trkpt>
      <trkpt lat="45.24011" lon="6.17567">
        <ele>1911.1</ele>
        <time>2022-06-18T09:05:19Z</time>
      </trkpt>
      <trkpt lat="45.24004" lon="6.17566">
        <ele>1911.9</ele>
        <time>2022-06-18T09:05:20Z</time>
      </trkpt>
      <trkpt lat="45.23998" lon="6.17564">
        <ele>1912.5</ele>
        <time>2022-06-18T09:05:21Z</time>
      </trkpt>
      <trkpt lat="45.23993" lon="6.17562">
        <ele>1913.1</ele>
        <time>2022-06-18T09:05:23Z</time>
      </trkpt>
      <trkpt lat="45.23988" lon="6.1756">
        <ele>1913.6</ele>
        <time>2022-06-18T09:05:24Z</time>
      </trkpt>
      <trkpt lat="45.23985" lon="6.17559">
        <ele>1913.9</ele>
        <time>2022-06-18T09:05:25Z</time>
      </trkpt>
      <trkpt lat="45.23983" lon="6.17558">
        <ele>1914.2</ele>
        <time>2022-06-18T09:05:26Z</time>
      </trkpt>
      <trkpt lat="45.23979" lon="6.17557">
        <ele>1914.6</ele>
        <time>2022-06-18T09:05:28Z</time>
      </trkpt>
      <trkpt lat="45.23975" lon="6.17558">
        <ele>1915</ele>
        <time>2022-06-18T09:05:29Z</time>
      </trkpt>
      <trkpt lat="45.23972" lon="6.17557">
        <ele>1915.3</ele>
        <time>2022-06-18T09:05:30Z</time>
      </trkpt>
      <trkpt lat="45.23971" lon="6.17556">
        <ele>1915.4</ele>
        <time>2022-06-18T09:05:31Z</time>
      </trkpt>
      <trkpt lat="45.23967" lon="6.17555">
        <ele>1915.8</ele>
        <time>2022-06-18T09:05:32Z</time>
      </trkpt>
      <trkpt lat="45.23966" lon="6.17555">
        <ele>1915.9</ele>
        <time>2022-06-18T09:05:33Z</time>
      </trkpt>
      <trkpt lat="45.23961" lon="6.17554">
        <ele>1916.5</ele>
        <time>2022-06-18T09:05:35Z</time>
      </trkpt>
      <trkpt lat="45.23959" lon="6.17554">
        <ele>1916.7</ele>
        <time>2022-06-18T09:05:36Z</time>
      </trkpt>
      <trkpt lat="45.23957" lon="6.17554">
        <ele>1916.9</ele>
        <time>2022-06-18T09:05:37Z</time>
      </trkpt>
      <trkpt lat="45.23954" lon="6.17553">
        <ele>1917.1</ele>
        <time>2022-06-18T09:05:39Z</time>
      </trkpt>
      <trkpt lat="45.23953" lon="6.17553">
        <ele>1917.2</ele>
        <time>2022-06-18T09:05:40Z</time>
      </trkpt>
      <trkpt lat="45.23955" lon="6.17552">
        <ele>1917.4</ele>
        <time>2022-06-18T09:05:41Z</time>
      </trkpt>
      <trkpt lat="45.23955" lon="6.17552">
        <ele>1917.4</ele>
        <time>2022-06-18T09:05:42Z</time>
      </trkpt>
      <trkpt lat="45.23955" lon="6.17552">
        <ele>1917.4</ele>
        <time>2022-06-18T09:05:43Z</time>
      </trkpt>
      <trkpt lat="45.23955" lon="6.17552">
        <ele>1917.4</ele>
        <time>2022-06-18T09:05:44Z</time>
      </trkpt>
      <trkpt lat="45.23955" lon="6.17552">
        <ele>1917.4</ele>
        <time>2022-06-18T09:05:45Z</time>
      </trkpt>
      <trkpt lat="45.23955" lon="6.17553">
        <ele>1917.4</ele>
        <time>2022-06-18T09:05:46Z</time>
      </trkpt>
      <trkpt lat="45.23955" lon="6.17553">
        <ele>1917.5</ele>
        <time>2022-06-18T09:05:47Z</time>
      </trkpt>
      <trkpt lat="45.23955" lon="6.17555">
        <ele>1917.6</ele>
        <time>2022-06-18T09:05:49Z</time>
      </trkpt>
      <trkpt lat="45.23955" lon="6.17556">
        <ele>1917.7</ele>
        <time>2022-06-18T09:05:50Z</time>
      </trkpt>
      <trkpt lat="45.23956" lon="6.17558">
        <ele>1917.9</ele>
        <time>2022-06-18T09:05:51Z</time>
      </trkpt>
      <trkpt lat="45.23957" lon="6.1756">
        <ele>1918</ele>
        <time>2022-06-18T09:05:52Z</time>
      </trkpt>
      <trkpt lat="45.23957" lon="6.17561">
        <ele>1918.1</ele>
        <time>2022-06-18T09:05:53Z</time>
      </trkpt>
      <trkpt lat="45.23958" lon="6.17563">
        <ele>1918.2</ele>
        <time>2022-06-18T09:05:54Z</time>
      </trkpt>
      <trkpt lat="45.23958" lon="6.17564">
        <ele>1918.3</ele>
        <time>2022-06-18T09:05:55Z</time>
      </trkpt>
      <trkpt lat="45.23959" lon="6.17566">
        <ele>1918.5</ele>
        <time>2022-06-18T09:05:56Z</time>
      </trkpt>
      <trkpt lat="45.2396" lon="6.17567">
        <ele>1918.6</ele>
        <time>2022-06-18T09:05:57Z</time>
      </trkpt>
      <trkpt lat="45.2396" lon="6.17568">
        <ele>1918.6</ele>
        <time>2022-06-18T09:05:58Z</time>
      </trkpt>
      <trkpt lat="45.2396" lon="6.17569">
        <ele>1918.7</ele>
        <time>2022-06-18T09:05:59Z</time>
      </trkpt>
      <trkpt lat="45.2396" lon="6.1757">
        <ele>1918.8</ele>
        <time>2022-06-18T09:06:00Z</time>
      </trkpt>
      <trkpt lat="45.23961" lon="6.17571">
        <ele>1918.8</ele>
        <time>2022-06-18T09:06:01Z</time>
      </trkpt>
      <trkpt lat="45.2396" lon="6.1757">
        <ele>1918.9</ele>
        <time>2022-06-18T09:06:02Z</time>
      </trkpt>
      <trkpt lat="45.2396" lon="6.1757">
        <ele>1918.9</ele>
        <time>2022-06-18T09:06:03Z</time>
      </trkpt>
      <trkpt lat="45.2396" lon="6.17569">
        <ele>1918.9</ele>
        <time>2022-06-18T09:06:04Z</time>
      </trkpt>
      <trkpt lat="45.23959" lon="6.17569">
        <ele>1919</ele>
        <time>2022-06-18T09:06:05Z</time>
      </trkpt>
      <trkpt lat="45.23959" lon="6.17568">
        <ele>1919.1</ele>
        <time>2022-06-18T09:06:06Z</time>
      </trkpt>
      <trkpt lat="45.23959" lon="6.17568">
        <ele>1919.1</ele>
        <time>2022-06-18T09:06:07Z</time>
      </trkpt>
      <trkpt lat="45.23959" lon="6.17567">
        <ele>1919.1</ele>
        <time>2022-06-18T09:06:08Z</time>
      </trkpt>
      <trkpt lat="45.23959" lon="6.17567">
        <ele>1919.1</ele>
        <time>2022-06-18T09:06:09Z</time>
      </trkpt>
      <trkpt lat="45.23959" lon="6.17567">
        <ele>1919.1</ele>
        <time>2022-06-18T09:06:10Z</time>
      </trkpt>
      <trkpt lat="45.23959" lon="6.17567">
        <ele>1919.2</ele>
        <time>2022-06-18T09:06:11Z</time>
      </trkpt>
      <trkpt lat="45.23959" lon="6.17567">
        <ele>1919.2</ele>
        <time>2022-06-18T09:06:12Z</time>
      </trkpt>
      <trkpt lat="45.23958" lon="6.17566">
        <ele>1919.2</ele>
        <time>2022-06-18T09:06:13Z</time>
      </trkpt>
      <trkpt lat="45.23958" lon="6.17566">
        <ele>1919.2</ele>
        <time>2022-06-18T09:06:14Z</time>
      </trkpt>
      <trkpt lat="45.23958" lon="6.17566">
        <ele>1919.2</ele>
        <time>2022-06-18T09:06:16Z</time>
      </trkpt>
      <trkpt lat="45.23961" lon="6.17564">
        <ele>1919.5</ele>
        <time>2022-06-18T09:07:00Z</time>
      </trkpt>
      <trkpt lat="45.23962" lon="6.17561">
        <ele>1919.7</ele>
        <time>2022-06-18T09:07:01Z</time>
      </trkpt>
      <trkpt lat="45.23963" lon="6.17559">
        <ele>1919.8</ele>
        <time>2022-06-18T09:07:02Z</time>
      </trkpt>
      <trkpt lat="45.23963" lon="6.17558">
        <ele>1920</ele>
        <time>2022-06-18T09:07:03Z</time>
      </trkpt>
      <trkpt lat="45.23965" lon="6.17556">
        <ele>1920.2</ele>
        <time>2022-06-18T09:07:04Z</time>
      </trkpt>
      <trkpt lat="45.23968" lon="6.17555">
        <ele>1920.4</ele>
        <time>2022-06-18T09:07:05Z</time>
      </trkpt>
      <trkpt lat="45.23969" lon="6.17554">
        <ele>1920.5</ele>
        <time>2022-06-18T09:07:06Z</time>
      </trkpt>
      <trkpt lat="45.2397" lon="6.17554">
        <ele>1920.6</ele>
        <time>2022-06-18T09:07:07Z</time>
      </trkpt>
      <trkpt lat="45.23973" lon="6.17555">
        <ele>1920.8</ele>
        <time>2022-06-18T09:07:09Z</time>
      </trkpt>
      <trkpt lat="45.23975" lon="6.17554">
        <ele>1921</ele>
        <time>2022-06-18T09:07:10Z</time>
      </trkpt>
      <trkpt lat="45.23975" lon="6.17554">
        <ele>1921</ele>
        <time>2022-06-18T09:07:11Z</time>
      </trkpt>
      <trkpt lat="45.23975" lon="6.17553">
        <ele>1921.1</ele>
        <time>2022-06-18T09:07:13Z</time>
      </trkpt>
      <trkpt lat="45.23975" lon="6.17553">
        <ele>1921.1</ele>
        <time>2022-06-18T09:07:14Z</time>
      </trkpt>
      <trkpt lat="45.23976" lon="6.17553">
        <ele>1921.2</ele>
        <time>2022-06-18T09:07:15Z</time>
      </trkpt>
      <trkpt lat="45.23976" lon="6.17553">
        <ele>1921.2</ele>
        <time>2022-06-18T09:07:16Z</time>
      </trkpt>
      <trkpt lat="45.23975" lon="6.17553">
        <ele>1921.2</ele>
        <time>2022-06-18T09:07:17Z</time>
      </trkpt>
      <trkpt lat="45.23974" lon="6.17553">
        <ele>1921.3</ele>
        <time>2022-06-18T09:07:18Z</time>
      </trkpt>
      <trkpt lat="45.23973" lon="6.17554">
        <ele>1921.4</ele>
        <time>2022-06-18T09:07:20Z</time>
      </trkpt>
      <trkpt lat="45.23972" lon="6.17555">
        <ele>1921.5</ele>
        <time>2022-06-18T09:07:22Z</time>
      </trkpt>
      <trkpt lat="45.23971" lon="6.17555">
        <ele>1921.6</ele>
        <time>2022-06-18T09:07:23Z</time>
      </trkpt>
      <trkpt lat="45.2397" lon="6.17555">
        <ele>1921.7</ele>
        <time>2022-06-18T09:07:24Z</time>
      </trkpt>
      <trkpt lat="45.23968" lon="6.17554">
        <ele>1921.9</ele>
        <time>2022-06-18T09:07:26Z</time>
      </trkpt>
      <trkpt lat="45.23966" lon="6.17553">
        <ele>1922</ele>
        <time>2022-06-18T09:07:27Z</time>
      </trkpt>
      <trkpt lat="45.23966" lon="6.17553">
        <ele>1922</ele>
        <time>2022-06-18T09:07:29Z</time>
      </trkpt>
      <trkpt lat="45.23965" lon="6.17552">
        <ele>1922.1</ele>
        <time>2022-06-18T09:07:30Z</time>
      </trkpt>
      <trkpt lat="45.23965" lon="6.17552">
        <ele>1922.1</ele>
        <time>2022-06-18T09:07:32Z</time>
      </trkpt>
      <trkpt lat="45.23965" lon="6.17552">
        <ele>1922.1</ele>
        <time>2022-06-18T09:07:33Z</time>
      </trkpt>
      <trkpt lat="45.23964" lon="6.17552">
        <ele>1922.2</ele>
        <time>2022-06-18T09:07:34Z</time>
      </trkpt>
      <trkpt lat="45.23964" lon="6.17552">
        <ele>1922.2</ele>
        <time>2022-06-18T09:07:35Z</time>
      </trkpt>
      <trkpt lat="45.23963" lon="6.17552">
        <ele>1922.2</ele>
        <time>2022-06-18T09:07:36Z</time>
      </trkpt>
      <trkpt lat="45.23963" lon="6.17552">
        <ele>1922.3</ele>
        <time>2022-06-18T09:07:37Z</time>
      </trkpt>
      <trkpt lat="45.23962" lon="6.17552">
        <ele>1922.4</ele>
        <time>2022-06-18T09:07:39Z</time>
      </trkpt>
      <trkpt lat="45.23961" lon="6.17552">
        <ele>1922.4</ele>
        <time>2022-06-18T09:07:40Z</time>
      </trkpt>
      <trkpt lat="45.2396" lon="6.17552">
        <ele>1922.5</ele>
        <time>2022-06-18T09:07:41Z</time>
      </trkpt>
      <trkpt lat="45.23959" lon="6.17553">
        <ele>1922.5</ele>
        <time>2022-06-18T09:07:42Z</time>
      </trkpt>
      <trkpt lat="45.23959" lon="6.17553">
        <ele>1922.6</ele>
        <time>2022-06-18T09:07:44Z</time>
      </trkpt>
      <trkpt lat="45.23958" lon="6.17553">
        <ele>1922.6</ele>
        <time>2022-06-18T09:07:45Z</time>
      </trkpt>
      <trkpt lat="45.23958" lon="6.17552">
        <ele>1922.7</ele>
        <time>2022-06-18T09:07:46Z</time>
      </trkpt>
      <trkpt lat="45.23958" lon="6.17552">
        <ele>1922.7</ele>
        <time>2022-06-18T09:07:47Z</time>
      </trkpt>
      <trkpt lat="45.23959" lon="6.17551">
        <ele>1922.7</ele>
        <time>2022-06-18T09:07:49Z</time>
      </trkpt>
      <trkpt lat="45.23959" lon="6.17551">
        <ele>1922.7</ele>
        <time>2022-06-18T09:07:50Z</time>
      </trkpt>
      <trkpt lat="45.23959" lon="6.17551">
        <ele>1922.7</ele>
        <time>2022-06-18T09:07:52Z</time>
      </trkpt>
      <trkpt lat="45.23959" lon="6.17552">
        <ele>1922.7</ele>
        <time>2022-06-18T09:07:53Z</time>
      </trkpt>
      <trkpt lat="45.23959" lon="6.17552">
        <ele>1922.8</ele>
        <time>2022-06-18T09:07:54Z</time>
      </trkpt>
      <trkpt lat="45.23958" lon="6.17552">
        <ele>1922.8</ele>
        <time>2022-06-18T09:07:55Z</time>
      </trkpt>
      <trkpt lat="45.23958" lon="6.17552">
        <ele>1922.8</ele>
        <time>2022-06-18T09:07:56Z</time>
      </trkpt>
      <trkpt lat="45.23958" lon="6.17552">
        <ele>1922.8</ele>
        <time>2022-06-18T09:07:57Z</time>
      </trkpt>
      <trkpt lat="45.23963" lon="6.17551">
        <ele>1923.1</ele>
        <time>2022-06-18T09:09:18Z</time>
      </trkpt>
      <trkpt lat="45.23965" lon="6.1755">
        <ele>1923.2</ele>
        <time>2022-06-18T09:09:19Z</time>
      </trkpt>
      <trkpt lat="45.23965" lon="6.17549">
        <ele>1923.3</ele>
        <time>2022-06-18T09:09:20Z</time>
      </trkpt>
      <trkpt lat="45.23966" lon="6.17548">
        <ele>1923.3</ele>
        <time>2022-06-18T09:09:21Z</time>
      </trkpt>
      <trkpt lat="45.23968" lon="6.17548">
        <ele>1923.4</ele>
        <time>2022-06-18T09:09:22Z</time>
      </trkpt>
      <trkpt lat="45.23969" lon="6.17547">
        <ele>1923.5</ele>
        <time>2022-06-18T09:09:23Z</time>
      </trkpt>
      <trkpt lat="45.23971" lon="6.17548">
        <ele>1923.6</ele>
        <time>2022-06-18T09:09:25Z</time>
      </trkpt>
      <trkpt lat="45.23971" lon="6.17548">
        <ele>1923.6</ele>
        <time>2022-06-18T09:09:26Z</time>
      </trkpt>
      <trkpt lat="45.23972" lon="6.17547">
        <ele>1923.6</ele>
        <time>2022-06-18T09:09:27Z</time>
      </trkpt>
      <trkpt lat="45.23972" lon="6.17547">
        <ele>1923.6</ele>
        <time>2022-06-18T09:09:28Z</time>
      </trkpt>
      <trkpt lat="45.23973" lon="6.17547">
        <ele>1923.7</ele>
        <time>2022-06-18T09:09:29Z</time>
      </trkpt>
      <trkpt lat="45.23973" lon="6.17547">
        <ele>1923.7</ele>
        <time>2022-06-18T09:09:30Z</time>
      </trkpt>
      <trkpt lat="45.23973" lon="6.17547">
        <ele>1923.7</ele>
        <time>2022-06-18T09:09:31Z</time>
      </trkpt>
      <trkpt lat="45.23973" lon="6.17547">
        <ele>1923.7</ele>
        <time>2022-06-18T09:09:32Z</time>
      </trkpt>
      <trkpt lat="45.23973" lon="6.17547">
        <ele>1923.7</ele>
        <time>2022-06-18T09:09:33Z</time>
      </trkpt>
      <trkpt lat="45.23973" lon="6.17547">
        <ele>1923.7</ele>
        <time>2022-06-18T09:09:34Z</time>
      </trkpt>
      <trkpt lat="45.23973" lon="6.17547">
        <ele>1923.7</ele>
        <time>2022-06-18T09:09:35Z</time>
      </trkpt>
      <trkpt lat="45.23974" lon="6.17546">
        <ele>1923.7</ele>
        <time>2022-06-18T09:09:37Z</time>
      </trkpt>
      <trkpt lat="45.23974" lon="6.17546">
        <ele>1923.7</ele>
        <time>2022-06-18T09:09:38Z</time>
      </trkpt>
      <trkpt lat="45.23973" lon="6.17545">
        <ele>1923.8</ele>
        <time>2022-06-18T09:09:39Z</time>
      </trkpt>
      <trkpt lat="45.23974" lon="6.17544">
        <ele>1923.8</ele>
        <time>2022-06-18T09:09:40Z</time>
      </trkpt>
      <trkpt lat="45.23974" lon="6.17544">
        <ele>1923.8</ele>
        <time>2022-06-18T09:09:42Z</time>
      </trkpt>
      <trkpt lat="45.23973" lon="6.17545">
        <ele>1923.8</ele>
        <time>2022-06-18T09:09:43Z</time>
      </trkpt>
      <trkpt lat="45.23973" lon="6.17545">
        <ele>1923.8</ele>
        <time>2022-06-18T09:09:44Z</time>
      </trkpt>
      <trkpt lat="45.23973" lon="6.17545">
        <ele>1923.8</ele>
        <time>2022-06-18T09:09:45Z</time>
      </trkpt>
      <trkpt lat="45.23973" lon="6.17545">
        <ele>1923.8</ele>
        <time>2022-06-18T09:09:46Z</time>
      </trkpt>
      <trkpt lat="45.23973" lon="6.17545">
        <ele>1923.8</ele>
        <time>2022-06-18T09:09:47Z</time>
      </trkpt>
      <trkpt lat="45.23973" lon="6.17545">
        <ele>1923.8</ele>
        <time>2022-06-18T09:09:48Z</time>
      </trkpt>
      <trkpt lat="45.23973" lon="6.17545">
        <ele>1923.8</ele>
        <time>2022-06-18T09:09:49Z</time>
      </trkpt>
      <trkpt lat="45.23973" lon="6.17545">
        <ele>1923.8</ele>
        <time>2022-06-18T09:09:50Z</time>
      </trkpt>
      <trkpt lat="45.23973" lon="6.17545">
        <ele>1923.8</ele>
        <time>2022-06-18T09:09:51Z</time>
      </trkpt>
      <trkpt lat="45.23973" lon="6.17544">
        <ele>1923.9</ele>
        <time>2022-06-18T09:09:52Z</time>
      </trkpt>
      <trkpt lat="45.23973" lon="6.17544">
        <ele>1923.9</ele>
        <time>2022-06-18T09:09:53Z</time>
      </trkpt>
      <trkpt lat="45.23973" lon="6.17544">
        <ele>1923.9</ele>
        <time>2022-06-18T09:09:54Z</time>
      </trkpt>
      <trkpt lat="45.23973" lon="6.17544">
        <ele>1923.9</ele>
        <time>2022-06-18T09:09:55Z</time>
      </trkpt>
      <trkpt lat="45.23973" lon="6.17544">
        <ele>1923.9</ele>
        <time>2022-06-18T09:09:56Z</time>
      </trkpt>
      <trkpt lat="45.23974" lon="6.17544">
        <ele>1923.9</ele>
        <time>2022-06-18T09:09:57Z</time>
      </trkpt>
      <trkpt lat="45.23974" lon="6.17544">
        <ele>1923.9</ele>
        <time>2022-06-18T09:09:58Z</time>
      </trkpt>
      <trkpt lat="45.23974" lon="6.17544">
        <ele>1923.9</ele>
        <time>2022-06-18T09:09:59Z</time>
      </trkpt>
      <trkpt lat="45.23974" lon="6.17544">
        <ele>1923.9</ele>
        <time>2022-06-18T09:10:00Z</time>
      </trkpt>
      <trkpt lat="45.23974" lon="6.17544">
        <ele>1923.9</ele>
        <time>2022-06-18T09:10:01Z</time>
      </trkpt>
      <trkpt lat="45.23974" lon="6.17544">
        <ele>1923.9</ele>
        <time>2022-06-18T09:10:02Z</time>
      </trkpt>
      <trkpt lat="45.23974" lon="6.17545">
        <ele>1923.9</ele>
        <time>2022-06-18T09:10:42Z</time>
      </trkpt>
      <trkpt lat="45.23974" lon="6.17544">
        <ele>1923.9</ele>
        <time>2022-06-18T09:10:43Z</time>
      </trkpt>
      <trkpt lat="45.23974" lon="6.17544">
        <ele>1923.9</ele>
        <time>2022-06-18T09:10:45Z</time>
      </trkpt>
      <trkpt lat="45.23973" lon="6.17544">
        <ele>1923.9</ele>
        <time>2022-06-18T09:10:46Z</time>
      </trkpt>
      <trkpt lat="45.23973" lon="6.17543">
        <ele>1924</ele>
        <time>2022-06-18T09:10:47Z</time>
      </trkpt>
      <trkpt lat="45.23973" lon="6.17543">
        <ele>1924</ele>
        <time>2022-06-18T09:10:48Z</time>
      </trkpt>
      <trkpt lat="45.23973" lon="6.17543">
        <ele>1924</ele>
        <time>2022-06-18T09:10:49Z</time>
      </trkpt>
      <trkpt lat="45.23973" lon="6.17542">
        <ele>1924</ele>
        <time>2022-06-18T09:10:50Z</time>
      </trkpt>
      <trkpt lat="45.23973" lon="6.17542">
        <ele>1924</ele>
        <time>2022-06-18T09:10:51Z</time>
      </trkpt>
      <trkpt lat="45.23973" lon="6.17542">
        <ele>1924</ele>
        <time>2022-06-18T09:10:52Z</time>
      </trkpt>
      <trkpt lat="45.23973" lon="6.17542">
        <ele>1924</ele>
        <time>2022-06-18T09:10:53Z</time>
      </trkpt>
      <trkpt lat="45.23973" lon="6.17542">
        <ele>1924</ele>
        <time>2022-06-18T09:10:55Z</time>
      </trkpt>
      <trkpt lat="45.2397" lon="6.17542">
        <ele>1924</ele>
        <time>2022-06-18T09:37:53Z</time>
      </trkpt>
      <trkpt lat="45.2397" lon="6.17543">
        <ele>1924.1</ele>
        <time>2022-06-18T09:37:54Z</time>
      </trkpt>
      <trkpt lat="45.23969" lon="6.17545">
        <ele>1924.1</ele>
        <time>2022-06-18T09:37:55Z</time>
      </trkpt>
      <trkpt lat="45.23968" lon="6.17547">
        <ele>1924.1</ele>
        <time>2022-06-18T09:37:57Z</time>
      </trkpt>
      <trkpt lat="45.23968" lon="6.17548">
        <ele>1924.1</ele>
        <time>2022-06-18T09:37:58Z</time>
      </trkpt>
      <trkpt lat="45.23968" lon="6.17548">
        <ele>1924.1</ele>
        <time>2022-06-18T09:37:59Z</time>
      </trkpt>
      <trkpt lat="45.23967" lon="6.17549">
        <ele>1924.2</ele>
        <time>2022-06-18T09:38:00Z</time>
      </trkpt>
      <trkpt lat="45.23966" lon="6.17551">
        <ele>1924.2</ele>
        <time>2022-06-18T09:38:02Z</time>
      </trkpt>
      <trkpt lat="45.23964" lon="6.17552">
        <ele>1924.2</ele>
        <time>2022-06-18T09:38:03Z</time>
      </trkpt>
      <trkpt lat="45.23964" lon="6.17553">
        <ele>1924.2</ele>
        <time>2022-06-18T09:38:04Z</time>
      </trkpt>
      <trkpt lat="45.23963" lon="6.17553">
        <ele>1924.2</ele>
        <time>2022-06-18T09:38:05Z</time>
      </trkpt>
      <trkpt lat="45.23963" lon="6.17553">
        <ele>1924.2</ele>
        <time>2022-06-18T09:38:06Z</time>
      </trkpt>
      <trkpt lat="45.23963" lon="6.17553">
        <ele>1924.2</ele>
        <time>2022-06-18T09:38:08Z</time>
      </trkpt>
      <trkpt lat="45.23962" lon="6.17554">
        <ele>1924.2</ele>
        <time>2022-06-18T09:38:09Z</time>
      </trkpt>
      <trkpt lat="45.23961" lon="6.17555">
        <ele>1924.2</ele>
        <time>2022-06-18T09:38:10Z</time>
      </trkpt>
      <trkpt lat="45.2396" lon="6.17555">
        <ele>1924.2</ele>
        <time>2022-06-18T09:38:12Z</time>
      </trkpt>
      <trkpt lat="45.23959" lon="6.17556">
        <ele>1924.1</ele>
        <time>2022-06-18T09:38:13Z</time>
      </trkpt>
      <trkpt lat="45.23958" lon="6.17556">
        <ele>1924.1</ele>
        <time>2022-06-18T09:38:14Z</time>
      </trkpt>
      <trkpt lat="45.23957" lon="6.17556">
        <ele>1924</ele>
        <time>2022-06-18T09:38:16Z</time>
      </trkpt>
      <trkpt lat="45.23956" lon="6.17556">
        <ele>1924</ele>
        <time>2022-06-18T09:38:17Z</time>
      </trkpt>
      <trkpt lat="45.23955" lon="6.17556">
        <ele>1923.9</ele>
        <time>2022-06-18T09:38:18Z</time>
      </trkpt>
      <trkpt lat="45.23955" lon="6.17555">
        <ele>1923.9</ele>
        <time>2022-06-18T09:38:19Z</time>
      </trkpt>
      <trkpt lat="45.23954" lon="6.17554">
        <ele>1923.9</ele>
        <time>2022-06-18T09:38:21Z</time>
      </trkpt>
      <trkpt lat="45.23954" lon="6.17554">
        <ele>1923.8</ele>
        <time>2022-06-18T09:38:22Z</time>
      </trkpt>
      <trkpt lat="45.23953" lon="6.17554">
        <ele>1923.8</ele>
        <time>2022-06-18T09:38:23Z</time>
      </trkpt>
      <trkpt lat="45.23953" lon="6.17554">
        <ele>1923.8</ele>
        <time>2022-06-18T09:38:25Z</time>
      </trkpt>
      <trkpt lat="45.23953" lon="6.17554">
        <ele>1923.8</ele>
        <time>2022-06-18T09:38:26Z</time>
      </trkpt>
      <trkpt lat="45.23953" lon="6.17554">
        <ele>1923.8</ele>
        <time>2022-06-18T09:38:27Z</time>
      </trkpt>
      <trkpt lat="45.23953" lon="6.17554">
        <ele>1923.8</ele>
        <time>2022-06-18T09:38:28Z</time>
      </trkpt>
      <trkpt lat="45.23953" lon="6.17554">
        <ele>1923.8</ele>
        <time>2022-06-18T09:38:29Z</time>
      </trkpt>
      <trkpt lat="45.23952" lon="6.17554">
        <ele>1923.8</ele>
        <time>2022-06-18T09:38:30Z</time>
      </trkpt>
      <trkpt lat="45.23952" lon="6.17554">
        <ele>1923.8</ele>
        <time>2022-06-18T09:38:31Z</time>
      </trkpt>
      <trkpt lat="45.23952" lon="6.17554">
        <ele>1923.8</ele>
        <time>2022-06-18T09:38:32Z</time>
      </trkpt>
      <trkpt lat="45.23937" lon="6.17584">
        <ele>1921.8</ele>
        <time>2022-06-18T09:39:14Z</time>
      </trkpt>
      <trkpt lat="45.23937" lon="6.17589">
        <ele>1921.5</ele>
        <time>2022-06-18T09:39:15Z</time>
      </trkpt>
      <trkpt lat="45.23937" lon="6.17594">
        <ele>1921.2</ele>
        <time>2022-06-18T09:39:16Z</time>
      </trkpt>
      <trkpt lat="45.23936" lon="6.176">
        <ele>1920.8</ele>
        <time>2022-06-18T09:39:17Z</time>
      </trkpt>
      <trkpt lat="45.23935" lon="6.17608">
        <ele>1920.3</ele>
        <time>2022-06-18T09:39:18Z</time>
      </trkpt>
      <trkpt lat="45.23933" lon="6.17616">
        <ele>1919.7</ele>
        <time>2022-06-18T09:39:19Z</time>
      </trkpt>
      <trkpt lat="45.2393" lon="6.17624">
        <ele>1919.1</ele>
        <time>2022-06-18T09:39:20Z</time>
      </trkpt>
      <trkpt lat="45.23926" lon="6.17632">
        <ele>1918.4</ele>
        <time>2022-06-18T09:39:21Z</time>
      </trkpt>
      <trkpt lat="45.23921" lon="6.1764">
        <ele>1917.6</ele>
        <time>2022-06-18T09:39:22Z</time>
      </trkpt>
      <trkpt lat="45.23916" lon="6.17647">
        <ele>1916.7</ele>
        <time>2022-06-18T09:39:23Z</time>
      </trkpt>
      <trkpt lat="45.2391" lon="6.17655">
        <ele>1915.9</ele>
        <time>2022-06-18T09:39:24Z</time>
      </trkpt>
      <trkpt lat="45.23905" lon="6.17662">
        <ele>1915.2</ele>
        <time>2022-06-18T09:39:25Z</time>
      </trkpt>
      <trkpt lat="45.23901" lon="6.1767">
        <ele>1914.5</ele>
        <time>2022-06-18T09:39:26Z</time>
      </trkpt>
      <trkpt lat="45.23899" lon="6.17681">
        <ele>1913.7</ele>
        <time>2022-06-18T09:39:27Z</time>
      </trkpt>
      <trkpt lat="45.23899" lon="6.17693">
        <ele>1912.9</ele>
        <time>2022-06-18T09:39:28Z</time>
      </trkpt>
      <trkpt lat="45.23899" lon="6.17707">
        <ele>1912</ele>
        <time>2022-06-18T09:39:29Z</time>
      </trkpt>
      <trkpt lat="45.23899" lon="6.17722">
        <ele>1911</ele>
        <time>2022-06-18T09:39:30Z</time>
      </trkpt>
      <trkpt lat="45.23898" lon="6.17736">
        <ele>1910.2</ele>
        <time>2022-06-18T09:39:31Z</time>
      </trkpt>
      <trkpt lat="45.23897" lon="6.17751">
        <ele>1909.5</ele>
        <time>2022-06-18T09:39:32Z</time>
      </trkpt>
      <trkpt lat="45.23894" lon="6.17764">
        <ele>1908.8</ele>
        <time>2022-06-18T09:39:33Z</time>
      </trkpt>
      <trkpt lat="45.2389" lon="6.17776">
        <ele>1908.3</ele>
        <time>2022-06-18T09:39:34Z</time>
      </trkpt>
      <trkpt lat="45.23887" lon="6.17785">
        <ele>1907.9</ele>
        <time>2022-06-18T09:39:35Z</time>
      </trkpt>
      <trkpt lat="45.23884" lon="6.1779">
        <ele>1907.7</ele>
        <time>2022-06-18T09:39:36Z</time>
      </trkpt>
      <trkpt lat="45.23881" lon="6.1779">
        <ele>1907.5</ele>
        <time>2022-06-18T09:39:37Z</time>
      </trkpt>
      <trkpt lat="45.23877" lon="6.17788">
        <ele>1907.1</ele>
        <time>2022-06-18T09:39:38Z</time>
      </trkpt>
      <trkpt lat="45.23873" lon="6.17782">
        <ele>1906.7</ele>
        <time>2022-06-18T09:39:39Z</time>
      </trkpt>
      <trkpt lat="45.2387" lon="6.17774">
        <ele>1906.2</ele>
        <time>2022-06-18T09:39:40Z</time>
      </trkpt>
      <trkpt lat="45.2387" lon="6.17764">
        <ele>1905.7</ele>
        <time>2022-06-18T09:39:41Z</time>
      </trkpt>
      <trkpt lat="45.23871" lon="6.17755">
        <ele>1905.1</ele>
        <time>2022-06-18T09:39:42Z</time>
      </trkpt>
      <trkpt lat="45.23874" lon="6.17745">
        <ele>1904.5</ele>
        <time>2022-06-18T09:39:43Z</time>
      </trkpt>
      <trkpt lat="45.23875" lon="6.17735">
        <ele>1903.9</ele>
        <time>2022-06-18T09:39:44Z</time>
      </trkpt>
      <trkpt lat="45.23876" lon="6.17726">
        <ele>1903.4</ele>
        <time>2022-06-18T09:39:45Z</time>
      </trkpt>
      <trkpt lat="45.23876" lon="6.17716">
        <ele>1902.9</ele>
        <time>2022-06-18T09:39:46Z</time>
      </trkpt>
      <trkpt lat="45.23873" lon="6.17706">
        <ele>1902.3</ele>
        <time>2022-06-18T09:39:47Z</time>
      </trkpt>
      <trkpt lat="45.2387" lon="6.17696">
        <ele>1901.7</ele>
        <time>2022-06-18T09:39:48Z</time>
      </trkpt>
      <trkpt lat="45.23867" lon="6.17686">
        <ele>1901</ele>
        <time>2022-06-18T09:39:49Z</time>
      </trkpt>
      <trkpt lat="45.23863" lon="6.17676">
        <ele>1900.3</ele>
        <time>2022-06-18T09:39:50Z</time>
      </trkpt>
      <trkpt lat="45.23859" lon="6.17665">
        <ele>1899.6</ele>
        <time>2022-06-18T09:39:51Z</time>
      </trkpt>
      <trkpt lat="45.23856" lon="6.17653">
        <ele>1898.8</ele>
        <time>2022-06-18T09:39:52Z</time>
      </trkpt>
      <trkpt lat="45.23853" lon="6.1764">
        <ele>1898</ele>
        <time>2022-06-18T09:39:53Z</time>
      </trkpt>
      <trkpt lat="45.23851" lon="6.17626">
        <ele>1897</ele>
        <time>2022-06-18T09:39:54Z</time>
      </trkpt>
      <trkpt lat="45.2385" lon="6.17612">
        <ele>1896</ele>
        <time>2022-06-18T09:39:55Z</time>
      </trkpt>
      <trkpt lat="45.23851" lon="6.17597">
        <ele>1895</ele>
        <time>2022-06-18T09:39:56Z</time>
      </trkpt>
      <trkpt lat="45.23852" lon="6.17584">
        <ele>1894.1</ele>
        <time>2022-06-18T09:39:57Z</time>
      </trkpt>
      <trkpt lat="45.23851" lon="6.17574">
        <ele>1893.4</ele>
        <time>2022-06-18T09:39:58Z</time>
      </trkpt>
      <trkpt lat="45.23846" lon="6.17565">
        <ele>1892.7</ele>
        <time>2022-06-18T09:39:59Z</time>
      </trkpt>
      <trkpt lat="45.23839" lon="6.17557">
        <ele>1891.8</ele>
        <time>2022-06-18T09:40:00Z</time>
      </trkpt>
      <trkpt lat="45.2383" lon="6.17552">
        <ele>1891</ele>
        <time>2022-06-18T09:40:01Z</time>
      </trkpt>
      <trkpt lat="45.2382" lon="6.17546">
        <ele>1890.1</ele>
        <time>2022-06-18T09:40:02Z</time>
      </trkpt>
      <trkpt lat="45.2381" lon="6.1754">
        <ele>1889.2</ele>
        <time>2022-06-18T09:40:03Z</time>
      </trkpt>
      <trkpt lat="45.23799" lon="6.17534">
        <ele>1888.2</ele>
        <time>2022-06-18T09:40:04Z</time>
      </trkpt>
      <trkpt lat="45.23788" lon="6.17529">
        <ele>1887.3</ele>
        <time>2022-06-18T09:40:05Z</time>
      </trkpt>
      <trkpt lat="45.23778" lon="6.17524">
        <ele>1886.3</ele>
        <time>2022-06-18T09:40:06Z</time>
      </trkpt>
      <trkpt lat="45.23766" lon="6.1752">
        <ele>1885.2</ele>
        <time>2022-06-18T09:40:07Z</time>
      </trkpt>
      <trkpt lat="45.23755" lon="6.17516">
        <ele>1883.9</ele>
        <time>2022-06-18T09:40:08Z</time>
      </trkpt>
      <trkpt lat="45.23744" lon="6.17512">
        <ele>1882.6</ele>
        <time>2022-06-18T09:40:09Z</time>
      </trkpt>
      <trkpt lat="45.23733" lon="6.17505">
        <ele>1881.3</ele>
        <time>2022-06-18T09:40:10Z</time>
      </trkpt>
      <trkpt lat="45.23723" lon="6.17497">
        <ele>1880</ele>
        <time>2022-06-18T09:40:11Z</time>
      </trkpt>
      <trkpt lat="45.23713" lon="6.17488">
        <ele>1878.6</ele>
        <time>2022-06-18T09:40:12Z</time>
      </trkpt>
      <trkpt lat="45.23704" lon="6.1748">
        <ele>1877.3</ele>
        <time>2022-06-18T09:40:13Z</time>
      </trkpt>
      <trkpt lat="45.23694" lon="6.17474">
        <ele>1876.1</ele>
        <time>2022-06-18T09:40:14Z</time>
      </trkpt>
      <trkpt lat="45.23684" lon="6.17469">
        <ele>1875</ele>
        <time>2022-06-18T09:40:15Z</time>
      </trkpt>
      <trkpt lat="45.23676" lon="6.17463">
        <ele>1873.9</ele>
        <time>2022-06-18T09:40:16Z</time>
      </trkpt>
      <trkpt lat="45.23668" lon="6.17455">
        <ele>1873</ele>
        <time>2022-06-18T09:40:17Z</time>
      </trkpt>
      <trkpt lat="45.23662" lon="6.17443">
        <ele>1872</ele>
        <time>2022-06-18T09:40:18Z</time>
      </trkpt>
      <trkpt lat="45.23657" lon="6.1743">
        <ele>1870.9</ele>
        <time>2022-06-18T09:40:19Z</time>
      </trkpt>
      <trkpt lat="45.23652" lon="6.17415">
        <ele>1869.7</ele>
        <time>2022-06-18T09:40:20Z</time>
      </trkpt>
      <trkpt lat="45.23649" lon="6.17399">
        <ele>1868.5</ele>
        <time>2022-06-18T09:40:21Z</time>
      </trkpt>
      <trkpt lat="45.23646" lon="6.17383">
        <ele>1867.3</ele>
        <time>2022-06-18T09:40:22Z</time>
      </trkpt>
      <trkpt lat="45.23642" lon="6.17369">
        <ele>1866.3</ele>
        <time>2022-06-18T09:40:23Z</time>
      </trkpt>
      <trkpt lat="45.23636" lon="6.17357">
        <ele>1865.3</ele>
        <time>2022-06-18T09:40:24Z</time>
      </trkpt>
      <trkpt lat="45.23628" lon="6.17348">
        <ele>1864.4</ele>
        <time>2022-06-18T09:40:25Z</time>
      </trkpt>
      <trkpt lat="45.23619" lon="6.17343">
        <ele>1863.5</ele>
        <time>2022-06-18T09:40:26Z</time>
      </trkpt>
      <trkpt lat="45.23609" lon="6.17339">
        <ele>1862.4</ele>
        <time>2022-06-18T09:40:27Z</time>
      </trkpt>
      <trkpt lat="45.23599" lon="6.17333">
        <ele>1861.5</ele>
        <time>2022-06-18T09:40:28Z</time>
      </trkpt>
      <trkpt lat="45.23591" lon="6.17324">
        <ele>1860.6</ele>
        <time>2022-06-18T09:40:29Z</time>
      </trkpt>
      <trkpt lat="45.23585" lon="6.17312">
        <ele>1859.7</ele>
        <time>2022-06-18T09:40:30Z</time>
      </trkpt>
      <trkpt lat="45.2358" lon="6.17298">
        <ele>1858.8</ele>
        <time>2022-06-18T09:40:31Z</time>
      </trkpt>
      <trkpt lat="45.23576" lon="6.17284">
        <ele>1857.9</ele>
        <time>2022-06-18T09:40:32Z</time>
      </trkpt>
      <trkpt lat="45.23571" lon="6.17271">
        <ele>1857.1</ele>
        <time>2022-06-18T09:40:33Z</time>
      </trkpt>
      <trkpt lat="45.23565" lon="6.17259">
        <ele>1856.4</ele>
        <time>2022-06-18T09:40:34Z</time>
      </trkpt>
      <trkpt lat="45.23558" lon="6.17249">
        <ele>1855.7</ele>
        <time>2022-06-18T09:40:35Z</time>
      </trkpt>
      <trkpt lat="45.23551" lon="6.17242">
        <ele>1855.1</ele>
        <time>2022-06-18T09:40:36Z</time>
      </trkpt>
      <trkpt lat="45.23542" lon="6.17237">
        <ele>1854.6</ele>
        <time>2022-06-18T09:40:37Z</time>
      </trkpt>
      <trkpt lat="45.23534" lon="6.17233">
        <ele>1854</ele>
        <time>2022-06-18T09:40:38Z</time>
      </trkpt>
      <trkpt lat="45.23524" lon="6.17229">
        <ele>1853.5</ele>
        <time>2022-06-18T09:40:39Z</time>
      </trkpt>
      <trkpt lat="45.23515" lon="6.17225">
        <ele>1852.9</ele>
        <time>2022-06-18T09:40:40Z</time>
      </trkpt>
      <trkpt lat="45.23506" lon="6.1722">
        <ele>1852.2</ele>
        <time>2022-06-18T09:40:41Z</time>
      </trkpt>
      <trkpt lat="45.23498" lon="6.17216">
        <ele>1851.5</ele>
        <time>2022-06-18T09:40:42Z</time>
      </trkpt>
      <trkpt lat="45.2349" lon="6.1721">
        <ele>1850.7</ele>
        <time>2022-06-18T09:40:43Z</time>
      </trkpt>
      <trkpt lat="45.23483" lon="6.17202">
        <ele>1849.9</ele>
        <time>2022-06-18T09:40:44Z</time>
      </trkpt>
      <trkpt lat="45.23477" lon="6.17192">
        <ele>1849</ele>
        <time>2022-06-18T09:40:45Z</time>
      </trkpt>
      <trkpt lat="45.23472" lon="6.1718">
        <ele>1848.1</ele>
        <time>2022-06-18T09:40:46Z</time>
      </trkpt>
      <trkpt lat="45.23467" lon="6.17167">
        <ele>1847.1</ele>
        <time>2022-06-18T09:40:47Z</time>
      </trkpt>
      <trkpt lat="45.23462" lon="6.17154">
        <ele>1846.1</ele>
        <time>2022-06-18T09:40:48Z</time>
      </trkpt>
      <trkpt lat="45.23457" lon="6.17141">
        <ele>1845.2</ele>
        <time>2022-06-18T09:40:49Z</time>
      </trkpt>
      <trkpt lat="45.23451" lon="6.17128">
        <ele>1844.2</ele>
        <time>2022-06-18T09:40:50Z</time>
      </trkpt>
      <trkpt lat="45.23446" lon="6.17114">
        <ele>1843.2</ele>
        <time>2022-06-18T09:40:51Z</time>
      </trkpt>
      <trkpt lat="45.2344" lon="6.171">
        <ele>1842.2</ele>
        <time>2022-06-18T09:40:52Z</time>
      </trkpt>
      <trkpt lat="45.23435" lon="6.17086">
        <ele>1841.2</ele>
        <time>2022-06-18T09:40:53Z</time>
      </trkpt>
      <trkpt lat="45.23431" lon="6.17071">
        <ele>1840.3</ele>
        <time>2022-06-18T09:40:54Z</time>
      </trkpt>
      <trkpt lat="45.23426" lon="6.17056">
        <ele>1839.3</ele>
        <time>2022-06-18T09:40:55Z</time>
      </trkpt>
      <trkpt lat="45.23423" lon="6.1704">
        <ele>1838.4</ele>
        <time>2022-06-18T09:40:56Z</time>
      </trkpt>
      <trkpt lat="45.2342" lon="6.17025">
        <ele>1837.5</ele>
        <time>2022-06-18T09:40:57Z</time>
      </trkpt>
      <trkpt lat="45.23417" lon="6.17009">
        <ele>1836.7</ele>
        <time>2022-06-18T09:40:58Z</time>
      </trkpt>
      <trkpt lat="45.23413" lon="6.16993">
        <ele>1835.9</ele>
        <time>2022-06-18T09:40:59Z</time>
      </trkpt>
      <trkpt lat="45.23408" lon="6.16979">
        <ele>1835.1</ele>
        <time>2022-06-18T09:41:00Z</time>
      </trkpt>
      <trkpt lat="45.23401" lon="6.16965">
        <ele>1834.2</ele>
        <time>2022-06-18T09:41:01Z</time>
      </trkpt>
      <trkpt lat="45.23394" lon="6.16953">
        <ele>1833.3</ele>
        <time>2022-06-18T09:41:02Z</time>
      </trkpt>
      <trkpt lat="45.23386" lon="6.16941">
        <ele>1832.3</ele>
        <time>2022-06-18T09:41:03Z</time>
      </trkpt>
      <trkpt lat="45.23378" lon="6.16928">
        <ele>1831.2</ele>
        <time>2022-06-18T09:41:04Z</time>
      </trkpt>
      <trkpt lat="45.23372" lon="6.16915">
        <ele>1830.2</ele>
        <time>2022-06-18T09:41:05Z</time>
      </trkpt>
      <trkpt lat="45.23367" lon="6.16901">
        <ele>1829.2</ele>
        <time>2022-06-18T09:41:06Z</time>
      </trkpt>
      <trkpt lat="45.23362" lon="6.16885">
        <ele>1828.1</ele>
        <time>2022-06-18T09:41:07Z</time>
      </trkpt>
      <trkpt lat="45.23357" lon="6.1687">
        <ele>1827</ele>
        <time>2022-06-18T09:41:08Z</time>
      </trkpt>
      <trkpt lat="45.23353" lon="6.16853">
        <ele>1826</ele>
        <time>2022-06-18T09:41:09Z</time>
      </trkpt>
      <trkpt lat="45.23351" lon="6.16836">
        <ele>1824.9</ele>
        <time>2022-06-18T09:41:10Z</time>
      </trkpt>
      <trkpt lat="45.23348" lon="6.16819">
        <ele>1823.9</ele>
        <time>2022-06-18T09:41:11Z</time>
      </trkpt>
      <trkpt lat="45.23345" lon="6.16803">
        <ele>1822.9</ele>
        <time>2022-06-18T09:41:12Z</time>
      </trkpt>
      <trkpt lat="45.2334" lon="6.16787">
        <ele>1822</ele>
        <time>2022-06-18T09:41:13Z</time>
      </trkpt>
      <trkpt lat="45.23333" lon="6.16772">
        <ele>1821</ele>
        <time>2022-06-18T09:41:14Z</time>
      </trkpt>
      <trkpt lat="45.23327" lon="6.16758">
        <ele>1820.1</ele>
        <time>2022-06-18T09:41:15Z</time>
      </trkpt>
      <trkpt lat="45.23321" lon="6.16743">
        <ele>1819.2</ele>
        <time>2022-06-18T09:41:16Z</time>
      </trkpt>
      <trkpt lat="45.23316" lon="6.16728">
        <ele>1818.3</ele>
        <time>2022-06-18T09:41:17Z</time>
      </trkpt>
      <trkpt lat="45.23312" lon="6.16712">
        <ele>1817.4</ele>
        <time>2022-06-18T09:41:18Z</time>
      </trkpt>
      <trkpt lat="45.23308" lon="6.16697">
        <ele>1816.5</ele>
        <time>2022-06-18T09:41:19Z</time>
      </trkpt>
      <trkpt lat="45.23306" lon="6.16682">
        <ele>1815.8</ele>
        <time>2022-06-18T09:41:20Z</time>
      </trkpt>
      <trkpt lat="45.23304" lon="6.16666">
        <ele>1815</ele>
        <time>2022-06-18T09:41:21Z</time>
      </trkpt>
      <trkpt lat="45.23303" lon="6.1665">
        <ele>1814.3</ele>
        <time>2022-06-18T09:41:22Z</time>
      </trkpt>
      <trkpt lat="45.233" lon="6.16635">
        <ele>1813.7</ele>
        <time>2022-06-18T09:41:23Z</time>
      </trkpt>
      <trkpt lat="45.23296" lon="6.16621">
        <ele>1813</ele>
        <time>2022-06-18T09:41:24Z</time>
      </trkpt>
      <trkpt lat="45.2329" lon="6.16607">
        <ele>1812.3</ele>
        <time>2022-06-18T09:41:25Z</time>
      </trkpt>
      <trkpt lat="45.23284" lon="6.16594">
        <ele>1811.6</ele>
        <time>2022-06-18T09:41:26Z</time>
      </trkpt>
      <trkpt lat="45.23279" lon="6.16581">
        <ele>1810.8</ele>
        <time>2022-06-18T09:41:27Z</time>
      </trkpt>
      <trkpt lat="45.23275" lon="6.16567">
        <ele>1810</ele>
        <time>2022-06-18T09:41:28Z</time>
      </trkpt>
      <trkpt lat="45.23271" lon="6.16555">
        <ele>1809.2</ele>
        <time>2022-06-18T09:41:29Z</time>
      </trkpt>
      <trkpt lat="45.23268" lon="6.16542">
        <ele>1808.5</ele>
        <time>2022-06-18T09:41:30Z</time>
      </trkpt>
      <trkpt lat="45.23266" lon="6.16529">
        <ele>1807.8</ele>
        <time>2022-06-18T09:41:31Z</time>
      </trkpt>
      <trkpt lat="45.23264" lon="6.16516">
        <ele>1807</ele>
        <time>2022-06-18T09:41:32Z</time>
      </trkpt>
      <trkpt lat="45.23261" lon="6.16503">
        <ele>1806.3</ele>
        <time>2022-06-18T09:41:33Z</time>
      </trkpt>
      <trkpt lat="45.23257" lon="6.1649">
        <ele>1805.6</ele>
        <time>2022-06-18T09:41:34Z</time>
      </trkpt>
      <trkpt lat="45.23253" lon="6.16477">
        <ele>1804.8</ele>
        <time>2022-06-18T09:41:35Z</time>
      </trkpt>
      <trkpt lat="45.23248" lon="6.16464">
        <ele>1804</ele>
        <time>2022-06-18T09:41:36Z</time>
      </trkpt>
      <trkpt lat="45.23244" lon="6.1645">
        <ele>1803.2</ele>
        <time>2022-06-18T09:41:37Z</time>
      </trkpt>
      <trkpt lat="45.2324" lon="6.16437">
        <ele>1802.4</ele>
        <time>2022-06-18T09:41:38Z</time>
      </trkpt>
      <trkpt lat="45.23236" lon="6.16423">
        <ele>1801.5</ele>
        <time>2022-06-18T09:41:39Z</time>
      </trkpt>
      <trkpt lat="45.23231" lon="6.1641">
        <ele>1800.6</ele>
        <time>2022-06-18T09:41:40Z</time>
      </trkpt>
      <trkpt lat="45.23227" lon="6.16396">
        <ele>1799.7</ele>
        <time>2022-06-18T09:41:41Z</time>
      </trkpt>
      <trkpt lat="45.23223" lon="6.16381">
        <ele>1798.8</ele>
        <time>2022-06-18T09:41:42Z</time>
      </trkpt>
      <trkpt lat="45.23219" lon="6.16368">
        <ele>1798</ele>
        <time>2022-06-18T09:41:43Z</time>
      </trkpt>
      <trkpt lat="45.23216" lon="6.16357">
        <ele>1797.3</ele>
        <time>2022-06-18T09:41:44Z</time>
      </trkpt>
      <trkpt lat="45.23215" lon="6.16347">
        <ele>1796.7</ele>
        <time>2022-06-18T09:41:45Z</time>
      </trkpt>
      <trkpt lat="45.23214" lon="6.16337">
        <ele>1796</ele>
        <time>2022-06-18T09:41:46Z</time>
      </trkpt>
      <trkpt lat="45.23212" lon="6.16325">
        <ele>1795.3</ele>
        <time>2022-06-18T09:41:47Z</time>
      </trkpt>
      <trkpt lat="45.23211" lon="6.16313">
        <ele>1794.6</ele>
        <time>2022-06-18T09:41:48Z</time>
      </trkpt>
      <trkpt lat="45.23208" lon="6.163">
        <ele>1793.8</ele>
        <time>2022-06-18T09:41:49Z</time>
      </trkpt>
      <trkpt lat="45.23206" lon="6.16287">
        <ele>1793</ele>
        <time>2022-06-18T09:41:50Z</time>
      </trkpt>
      <trkpt lat="45.23203" lon="6.16273">
        <ele>1792.1</ele>
        <time>2022-06-18T09:41:51Z</time>
      </trkpt>
      <trkpt lat="45.23201" lon="6.16259">
        <ele>1791.3</ele>
        <time>2022-06-18T09:41:52Z</time>
      </trkpt>
      <trkpt lat="45.23199" lon="6.16246">
        <ele>1790.4</ele>
        <time>2022-06-18T09:41:53Z</time>
      </trkpt>
      <trkpt lat="45.23197" lon="6.16233">
        <ele>1789.5</ele>
        <time>2022-06-18T09:41:54Z</time>
      </trkpt>
      <trkpt lat="45.23196" lon="6.1622">
        <ele>1788.7</ele>
        <time>2022-06-18T09:41:55Z</time>
      </trkpt>
      <trkpt lat="45.23194" lon="6.16209">
        <ele>1787.9</ele>
        <time>2022-06-18T09:41:56Z</time>
      </trkpt>
      <trkpt lat="45.2319" lon="6.16197">
        <ele>1787.2</ele>
        <time>2022-06-18T09:41:57Z</time>
      </trkpt>
      <trkpt lat="45.23186" lon="6.16186">
        <ele>1786.4</ele>
        <time>2022-06-18T09:41:58Z</time>
      </trkpt>
      <trkpt lat="45.23181" lon="6.16176">
        <ele>1785.6</ele>
        <time>2022-06-18T09:41:59Z</time>
      </trkpt>
      <trkpt lat="45.23176" lon="6.16165">
        <ele>1784.8</ele>
        <time>2022-06-18T09:42:00Z</time>
      </trkpt>
      <trkpt lat="45.23171" lon="6.16153">
        <ele>1784</ele>
        <time>2022-06-18T09:42:01Z</time>
      </trkpt>
      <trkpt lat="45.23166" lon="6.16141">
        <ele>1783.2</ele>
        <time>2022-06-18T09:42:02Z</time>
      </trkpt>
      <trkpt lat="45.23159" lon="6.16131">
        <ele>1782.3</ele>
        <time>2022-06-18T09:42:03Z</time>
      </trkpt>
      <trkpt lat="45.23152" lon="6.16122">
        <ele>1781.5</ele>
        <time>2022-06-18T09:42:04Z</time>
      </trkpt>
      <trkpt lat="45.23143" lon="6.16114">
        <ele>1780.6</ele>
        <time>2022-06-18T09:42:05Z</time>
      </trkpt>
      <trkpt lat="45.23135" lon="6.16107">
        <ele>1779.7</ele>
        <time>2022-06-18T09:42:06Z</time>
      </trkpt>
      <trkpt lat="45.23127" lon="6.16098">
        <ele>1778.8</ele>
        <time>2022-06-18T09:42:07Z</time>
      </trkpt>
      <trkpt lat="45.23121" lon="6.16087">
        <ele>1777.9</ele>
        <time>2022-06-18T09:42:08Z</time>
      </trkpt>
      <trkpt lat="45.23117" lon="6.16073">
        <ele>1777.1</ele>
        <time>2022-06-18T09:42:09Z</time>
      </trkpt>
      <trkpt lat="45.23113" lon="6.16059">
        <ele>1776.4</ele>
        <time>2022-06-18T09:42:10Z</time>
      </trkpt>
      <trkpt lat="45.23108" lon="6.16046">
        <ele>1775.7</ele>
        <time>2022-06-18T09:42:11Z</time>
      </trkpt>
      <trkpt lat="45.23101" lon="6.16033">
        <ele>1775.1</ele>
        <time>2022-06-18T09:42:12Z</time>
      </trkpt>
      <trkpt lat="45.23093" lon="6.16022">
        <ele>1774.5</ele>
        <time>2022-06-18T09:42:13Z</time>
      </trkpt>
      <trkpt lat="45.23086" lon="6.16011">
        <ele>1773.8</ele>
        <time>2022-06-18T09:42:14Z</time>
      </trkpt>
      <trkpt lat="45.23079" lon="6.16">
        <ele>1773.2</ele>
        <time>2022-06-18T09:42:15Z</time>
      </trkpt>
      <trkpt lat="45.23074" lon="6.15989">
        <ele>1772.7</ele>
        <time>2022-06-18T09:42:16Z</time>
      </trkpt>
      <trkpt lat="45.23069" lon="6.15976">
        <ele>1772.1</ele>
        <time>2022-06-18T09:42:17Z</time>
      </trkpt>
      <trkpt lat="45.23064" lon="6.15964">
        <ele>1771.5</ele>
        <time>2022-06-18T09:42:18Z</time>
      </trkpt>
      <trkpt lat="45.23057" lon="6.15952">
        <ele>1770.9</ele>
        <time>2022-06-18T09:42:19Z</time>
      </trkpt>
      <trkpt lat="45.2305" lon="6.15942">
        <ele>1770.2</ele>
        <time>2022-06-18T09:42:20Z</time>
      </trkpt>
      <trkpt lat="45.23041" lon="6.15935">
        <ele>1769.5</ele>
        <time>2022-06-18T09:42:21Z</time>
      </trkpt>
      <trkpt lat="45.23032" lon="6.15928">
        <ele>1768.8</ele>
        <time>2022-06-18T09:42:22Z</time>
      </trkpt>
      <trkpt lat="45.23023" lon="6.15921">
        <ele>1768.1</ele>
        <time>2022-06-18T09:42:23Z</time>
      </trkpt>
      <trkpt lat="45.23014" lon="6.15912">
        <ele>1767.3</ele>
        <time>2022-06-18T09:42:24Z</time>
      </trkpt>
      <trkpt lat="45.23007" lon="6.15901">
        <ele>1766.6</ele>
        <time>2022-06-18T09:42:25Z</time>
      </trkpt>
      <trkpt lat="45.23002" lon="6.15888">
        <ele>1765.8</ele>
        <time>2022-06-18T09:42:26Z</time>
      </trkpt>
      <trkpt lat="45.22998" lon="6.15873">
        <ele>1765.1</ele>
        <time>2022-06-18T09:42:27Z</time>
      </trkpt>
      <trkpt lat="45.22994" lon="6.15858">
        <ele>1764.4</ele>
        <time>2022-06-18T09:42:28Z</time>
      </trkpt>
      <trkpt lat="45.2299" lon="6.15844">
        <ele>1763.6</ele>
        <time>2022-06-18T09:42:29Z</time>
      </trkpt>
      <trkpt lat="45.22985" lon="6.1583">
        <ele>1762.8</ele>
        <time>2022-06-18T09:42:30Z</time>
      </trkpt>
      <trkpt lat="45.22981" lon="6.15817">
        <ele>1761.9</ele>
        <time>2022-06-18T09:42:31Z</time>
      </trkpt>
      <trkpt lat="45.22978" lon="6.15802">
        <ele>1761</ele>
        <time>2022-06-18T09:42:32Z</time>
      </trkpt>
      <trkpt lat="45.22975" lon="6.15787">
        <ele>1760</ele>
        <time>2022-06-18T09:42:33Z</time>
      </trkpt>
      <trkpt lat="45.22973" lon="6.15772">
        <ele>1759</ele>
        <time>2022-06-18T09:42:34Z</time>
      </trkpt>
      <trkpt lat="45.22971" lon="6.15756">
        <ele>1758</ele>
        <time>2022-06-18T09:42:35Z</time>
      </trkpt>
      <trkpt lat="45.22968" lon="6.15741">
        <ele>1757</ele>
        <time>2022-06-18T09:42:36Z</time>
      </trkpt>
      <trkpt lat="45.22962" lon="6.15726">
        <ele>1756.1</ele>
        <time>2022-06-18T09:42:37Z</time>
      </trkpt>
      <trkpt lat="45.22955" lon="6.15713">
        <ele>1755.1</ele>
        <time>2022-06-18T09:42:38Z</time>
      </trkpt>
      <trkpt lat="45.22946" lon="6.15701">
        <ele>1754.2</ele>
        <time>2022-06-18T09:42:39Z</time>
      </trkpt>
      <trkpt lat="45.22937" lon="6.1569">
        <ele>1753.2</ele>
        <time>2022-06-18T09:42:40Z</time>
      </trkpt>
      <trkpt lat="45.22928" lon="6.15679">
        <ele>1752.3</ele>
        <time>2022-06-18T09:42:41Z</time>
      </trkpt>
      <trkpt lat="45.2292" lon="6.15668">
        <ele>1751.5</ele>
        <time>2022-06-18T09:42:42Z</time>
      </trkpt>
      <trkpt lat="45.22911" lon="6.15656">
        <ele>1750.6</ele>
        <time>2022-06-18T09:42:43Z</time>
      </trkpt>
      <trkpt lat="45.22904" lon="6.15644">
        <ele>1749.7</ele>
        <time>2022-06-18T09:42:44Z</time>
      </trkpt>
      <trkpt lat="45.22897" lon="6.15631">
        <ele>1748.8</ele>
        <time>2022-06-18T09:42:45Z</time>
      </trkpt>
      <trkpt lat="45.2289" lon="6.15618">
        <ele>1747.9</ele>
        <time>2022-06-18T09:42:46Z</time>
      </trkpt>
      <trkpt lat="45.22883" lon="6.15605">
        <ele>1747</ele>
        <time>2022-06-18T09:42:47Z</time>
      </trkpt>
      <trkpt lat="45.22877" lon="6.15591">
        <ele>1746.1</ele>
        <time>2022-06-18T09:42:48Z</time>
      </trkpt>
      <trkpt lat="45.22871" lon="6.15578">
        <ele>1745.2</ele>
        <time>2022-06-18T09:42:49Z</time>
      </trkpt>
      <trkpt lat="45.22864" lon="6.15565">
        <ele>1744.3</ele>
        <time>2022-06-18T09:42:50Z</time>
      </trkpt>
      <trkpt lat="45.22858" lon="6.15552">
        <ele>1743.4</ele>
        <time>2022-06-18T09:42:51Z</time>
      </trkpt>
      <trkpt lat="45.22852" lon="6.1554">
        <ele>1742.5</ele>
        <time>2022-06-18T09:42:52Z</time>
      </trkpt>
      <trkpt lat="45.22847" lon="6.15526">
        <ele>1741.5</ele>
        <time>2022-06-18T09:42:53Z</time>
      </trkpt>
      <trkpt lat="45.22843" lon="6.15512">
        <ele>1740.5</ele>
        <time>2022-06-18T09:42:54Z</time>
      </trkpt>
      <trkpt lat="45.22843" lon="6.15496">
        <ele>1739.5</ele>
        <time>2022-06-18T09:42:55Z</time>
      </trkpt>
      <trkpt lat="45.22846" lon="6.1548">
        <ele>1738.3</ele>
        <time>2022-06-18T09:42:56Z</time>
      </trkpt>
      <trkpt lat="45.2285" lon="6.15463">
        <ele>1737.2</ele>
        <time>2022-06-18T09:42:57Z</time>
      </trkpt>
      <trkpt lat="45.22854" lon="6.15447">
        <ele>1736.3</ele>
        <time>2022-06-18T09:42:58Z</time>
      </trkpt>
      <trkpt lat="45.22858" lon="6.15431">
        <ele>1735.3</ele>
        <time>2022-06-18T09:42:59Z</time>
      </trkpt>
      <trkpt lat="45.2286" lon="6.15415">
        <ele>1734.3</ele>
        <time>2022-06-18T09:43:00Z</time>
      </trkpt>
      <trkpt lat="45.2286" lon="6.15399">
        <ele>1733.2</ele>
        <time>2022-06-18T09:43:01Z</time>
      </trkpt>
      <trkpt lat="45.22856" lon="6.15382">
        <ele>1732.1</ele>
        <time>2022-06-18T09:43:02Z</time>
      </trkpt>
      <trkpt lat="45.22851" lon="6.15365">
        <ele>1730.9</ele>
        <time>2022-06-18T09:43:03Z</time>
      </trkpt>
      <trkpt lat="45.22845" lon="6.15348">
        <ele>1729.6</ele>
        <time>2022-06-18T09:43:04Z</time>
      </trkpt>
      <trkpt lat="45.22839" lon="6.15332">
        <ele>1728.5</ele>
        <time>2022-06-18T09:43:05Z</time>
      </trkpt>
      <trkpt lat="45.22833" lon="6.15316">
        <ele>1727.4</ele>
        <time>2022-06-18T09:43:06Z</time>
      </trkpt>
      <trkpt lat="45.22827" lon="6.153">
        <ele>1726.4</ele>
        <time>2022-06-18T09:43:07Z</time>
      </trkpt>
      <trkpt lat="45.22821" lon="6.15285">
        <ele>1726.1</ele>
        <time>2022-06-18T09:43:08Z</time>
      </trkpt>
      <trkpt lat="45.22814" lon="6.15271">
        <ele>1726</ele>
        <time>2022-06-18T09:43:09Z</time>
      </trkpt>
      <trkpt lat="45.22808" lon="6.15257">
        <ele>1726</ele>
        <time>2022-06-18T09:43:10Z</time>
      </trkpt>
      <trkpt lat="45.22802" lon="6.15243">
        <ele>1726</ele>
        <time>2022-06-18T09:43:11Z</time>
      </trkpt>
      <trkpt lat="45.22798" lon="6.15228">
        <ele>1725.7</ele>
        <time>2022-06-18T09:43:12Z</time>
      </trkpt>
      <trkpt lat="45.22795" lon="6.15213">
        <ele>1725.3</ele>
        <time>2022-06-18T09:43:13Z</time>
      </trkpt>
      <trkpt lat="45.22794" lon="6.15198">
        <ele>1725.1</ele>
        <time>2022-06-18T09:43:14Z</time>
      </trkpt>
      <trkpt lat="45.22793" lon="6.15183">
        <ele>1725</ele>
        <time>2022-06-18T09:43:15Z</time>
      </trkpt>
      <trkpt lat="45.22791" lon="6.15169">
        <ele>1725</ele>
        <time>2022-06-18T09:43:16Z</time>
      </trkpt>
      <trkpt lat="45.22786" lon="6.15157">
        <ele>1725.1</ele>
        <time>2022-06-18T09:43:17Z</time>
      </trkpt>
      <trkpt lat="45.2278" lon="6.15147">
        <ele>1725.2</ele>
        <time>2022-06-18T09:43:18Z</time>
      </trkpt>
      <trkpt lat="45.22773" lon="6.1514">
        <ele>1725.4</ele>
        <time>2022-06-18T09:43:19Z</time>
      </trkpt>
      <trkpt lat="45.22765" lon="6.15133">
        <ele>1725.7</ele>
        <time>2022-06-18T09:43:20Z</time>
      </trkpt>
      <trkpt lat="45.22758" lon="6.15127">
        <ele>1726</ele>
        <time>2022-06-18T09:43:21Z</time>
      </trkpt>
      <trkpt lat="45.22752" lon="6.1512">
        <ele>1726.4</ele>
        <time>2022-06-18T09:43:22Z</time>
      </trkpt>
      <trkpt lat="45.22748" lon="6.15111">
        <ele>1726.7</ele>
        <time>2022-06-18T09:43:23Z</time>
      </trkpt>
      <trkpt lat="45.22745" lon="6.15102">
        <ele>1727</ele>
        <time>2022-06-18T09:43:24Z</time>
      </trkpt>
      <trkpt lat="45.22744" lon="6.15092">
        <ele>1727.4</ele>
        <time>2022-06-18T09:43:25Z</time>
      </trkpt>
      <trkpt lat="45.22744" lon="6.15083">
        <ele>1727.7</ele>
        <time>2022-06-18T09:43:26Z</time>
      </trkpt>
      <trkpt lat="45.22744" lon="6.15074">
        <ele>1728.1</ele>
        <time>2022-06-18T09:43:27Z</time>
      </trkpt>
      <trkpt lat="45.22744" lon="6.15067">
        <ele>1728.4</ele>
        <time>2022-06-18T09:43:28Z</time>
      </trkpt>
      <trkpt lat="45.22744" lon="6.1506">
        <ele>1728.8</ele>
        <time>2022-06-18T09:43:29Z</time>
      </trkpt>
      <trkpt lat="45.22744" lon="6.15053">
        <ele>1729.1</ele>
        <time>2022-06-18T09:43:30Z</time>
      </trkpt>
      <trkpt lat="45.22743" lon="6.15047">
        <ele>1729.4</ele>
        <time>2022-06-18T09:43:31Z</time>
      </trkpt>
      <trkpt lat="45.22742" lon="6.15042">
        <ele>1729.6</ele>
        <time>2022-06-18T09:43:32Z</time>
      </trkpt>
      <trkpt lat="45.22742" lon="6.15037">
        <ele>1729.9</ele>
        <time>2022-06-18T09:43:33Z</time>
      </trkpt>
      <trkpt lat="45.22741" lon="6.15031">
        <ele>1730.2</ele>
        <time>2022-06-18T09:43:34Z</time>
      </trkpt>
      <trkpt lat="45.22741" lon="6.15026">
        <ele>1730.5</ele>
        <time>2022-06-18T09:43:35Z</time>
      </trkpt>
      <trkpt lat="45.2274" lon="6.1502">
        <ele>1730.8</ele>
        <time>2022-06-18T09:43:36Z</time>
      </trkpt>
      <trkpt lat="45.22739" lon="6.15014">
        <ele>1731.2</ele>
        <time>2022-06-18T09:43:37Z</time>
      </trkpt>
      <trkpt lat="45.22738" lon="6.1501">
        <ele>1731.4</ele>
        <time>2022-06-18T09:43:38Z</time>
      </trkpt>
      <trkpt lat="45.22737" lon="6.15007">
        <ele>1731.6</ele>
        <time>2022-06-18T09:43:39Z</time>
      </trkpt>
      <trkpt lat="45.22734" lon="6.15001">
        <ele>1732</ele>
        <time>2022-06-18T09:43:41Z</time>
      </trkpt>
      <trkpt lat="45.22731" lon="6.14992">
        <ele>1732.5</ele>
        <time>2022-06-18T09:43:42Z</time>
      </trkpt>
      <trkpt lat="45.22728" lon="6.14985">
        <ele>1732.9</ele>
        <time>2022-06-18T09:43:43Z</time>
      </trkpt>
      <trkpt lat="45.22725" lon="6.14978">
        <ele>1733.3</ele>
        <time>2022-06-18T09:43:44Z</time>
      </trkpt>
      <trkpt lat="45.22722" lon="6.14974">
        <ele>1733.7</ele>
        <time>2022-06-18T09:43:45Z</time>
      </trkpt>
      <trkpt lat="45.22719" lon="6.14971">
        <ele>1733.9</ele>
        <time>2022-06-18T09:43:46Z</time>
      </trkpt>
      <trkpt lat="45.22716" lon="6.14967">
        <ele>1734.2</ele>
        <time>2022-06-18T09:43:47Z</time>
      </trkpt>
      <trkpt lat="45.22712" lon="6.14964">
        <ele>1734.5</ele>
        <time>2022-06-18T09:43:48Z</time>
      </trkpt>
      <trkpt lat="45.22709" lon="6.14961">
        <ele>1734.7</ele>
        <time>2022-06-18T09:43:49Z</time>
      </trkpt>
      <trkpt lat="45.22704" lon="6.14956">
        <ele>1735.1</ele>
        <time>2022-06-18T09:43:51Z</time>
      </trkpt>
      <trkpt lat="45.22702" lon="6.14952">
        <ele>1735.4</ele>
        <time>2022-06-18T09:43:52Z</time>
      </trkpt>
      <trkpt lat="45.22697" lon="6.14948">
        <ele>1735.7</ele>
        <time>2022-06-18T09:43:54Z</time>
      </trkpt>
      <trkpt lat="45.22693" lon="6.14945">
        <ele>1736</ele>
        <time>2022-06-18T09:43:55Z</time>
      </trkpt>
      <trkpt lat="45.22691" lon="6.14943">
        <ele>1736.2</ele>
        <time>2022-06-18T09:43:56Z</time>
      </trkpt>
      <trkpt lat="45.22688" lon="6.14939">
        <ele>1736.5</ele>
        <time>2022-06-18T09:43:58Z</time>
      </trkpt>
      <trkpt lat="45.22686" lon="6.14934">
        <ele>1736.7</ele>
        <time>2022-06-18T09:43:59Z</time>
      </trkpt>
      <trkpt lat="45.22683" lon="6.14929">
        <ele>1737</ele>
        <time>2022-06-18T09:44:00Z</time>
      </trkpt>
      <trkpt lat="45.22682" lon="6.14924">
        <ele>1737.2</ele>
        <time>2022-06-18T09:44:01Z</time>
      </trkpt>
      <trkpt lat="45.2268" lon="6.1492">
        <ele>1737.4</ele>
        <time>2022-06-18T09:44:02Z</time>
      </trkpt>
      <trkpt lat="45.22679" lon="6.14916">
        <ele>1737.6</ele>
        <time>2022-06-18T09:44:03Z</time>
      </trkpt>
      <trkpt lat="45.22677" lon="6.14912">
        <ele>1737.8</ele>
        <time>2022-06-18T09:44:04Z</time>
      </trkpt>
      <trkpt lat="45.22675" lon="6.14908">
        <ele>1738</ele>
        <time>2022-06-18T09:44:05Z</time>
      </trkpt>
      <trkpt lat="45.22674" lon="6.14903">
        <ele>1738.3</ele>
        <time>2022-06-18T09:44:06Z</time>
      </trkpt>
      <trkpt lat="45.22673" lon="6.14897">
        <ele>1738.6</ele>
        <time>2022-06-18T09:44:08Z</time>
      </trkpt>
      <trkpt lat="45.22672" lon="6.14888">
        <ele>1738.9</ele>
        <time>2022-06-18T09:44:10Z</time>
      </trkpt>
      <trkpt lat="45.22671" lon="6.14883">
        <ele>1739.1</ele>
        <time>2022-06-18T09:44:11Z</time>
      </trkpt>
      <trkpt lat="45.2267" lon="6.14877">
        <ele>1739.4</ele>
        <time>2022-06-18T09:44:12Z</time>
      </trkpt>
      <trkpt lat="45.2267" lon="6.14876">
        <ele>1739.4</ele>
        <time>2022-06-18T09:44:13Z</time>
      </trkpt>
      <trkpt lat="45.22669" lon="6.14871">
        <ele>1739.6</ele>
        <time>2022-06-18T09:44:14Z</time>
      </trkpt>
      <trkpt lat="45.2267" lon="6.14867">
        <ele>1739.8</ele>
        <time>2022-06-18T09:44:15Z</time>
      </trkpt>
      <trkpt lat="45.2267" lon="6.14863">
        <ele>1740</ele>
        <time>2022-06-18T09:44:16Z</time>
      </trkpt>
      <trkpt lat="45.22671" lon="6.14856">
        <ele>1740.2</ele>
        <time>2022-06-18T09:44:18Z</time>
      </trkpt>
      <trkpt lat="45.22671" lon="6.1485">
        <ele>1740.5</ele>
        <time>2022-06-18T09:44:19Z</time>
      </trkpt>
      <trkpt lat="45.22672" lon="6.14844">
        <ele>1740.7</ele>
        <time>2022-06-18T09:44:20Z</time>
      </trkpt>
      <trkpt lat="45.22673" lon="6.14839">
        <ele>1740.9</ele>
        <time>2022-06-18T09:44:21Z</time>
      </trkpt>
      <trkpt lat="45.22673" lon="6.14834">
        <ele>1741.1</ele>
        <time>2022-06-18T09:44:22Z</time>
      </trkpt>
      <trkpt lat="45.22673" lon="6.1483">
        <ele>1741.2</ele>
        <time>2022-06-18T09:44:23Z</time>
      </trkpt>
      <trkpt lat="45.22674" lon="6.14826">
        <ele>1741.4</ele>
        <time>2022-06-18T09:44:24Z</time>
      </trkpt>
      <trkpt lat="45.22674" lon="6.14821">
        <ele>1741.6</ele>
        <time>2022-06-18T09:44:25Z</time>
      </trkpt>
      <trkpt lat="45.22674" lon="6.14816">
        <ele>1741.8</ele>
        <time>2022-06-18T09:44:26Z</time>
      </trkpt>
      <trkpt lat="45.22675" lon="6.1481">
        <ele>1742.1</ele>
        <time>2022-06-18T09:44:28Z</time>
      </trkpt>
      <trkpt lat="45.22675" lon="6.14805">
        <ele>1742.3</ele>
        <time>2022-06-18T09:44:29Z</time>
      </trkpt>
      <trkpt lat="45.22675" lon="6.14799">
        <ele>1742.6</ele>
        <time>2022-06-18T09:44:30Z</time>
      </trkpt>
      <trkpt lat="45.22675" lon="6.14795">
        <ele>1742.7</ele>
        <time>2022-06-18T09:44:31Z</time>
      </trkpt>
      <trkpt lat="45.22675" lon="6.1479">
        <ele>1743</ele>
        <time>2022-06-18T09:44:32Z</time>
      </trkpt>
      <trkpt lat="45.22675" lon="6.14784">
        <ele>1743.2</ele>
        <time>2022-06-18T09:44:33Z</time>
      </trkpt>
      <trkpt lat="45.22675" lon="6.1478">
        <ele>1743.4</ele>
        <time>2022-06-18T09:44:34Z</time>
      </trkpt>
      <trkpt lat="45.22674" lon="6.14775">
        <ele>1743.6</ele>
        <time>2022-06-18T09:44:35Z</time>
      </trkpt>
      <trkpt lat="45.22674" lon="6.1477">
        <ele>1743.9</ele>
        <time>2022-06-18T09:44:36Z</time>
      </trkpt>
      <trkpt lat="45.22673" lon="6.14765">
        <ele>1744.1</ele>
        <time>2022-06-18T09:44:37Z</time>
      </trkpt>
      <trkpt lat="45.22672" lon="6.1476">
        <ele>1744.3</ele>
        <time>2022-06-18T09:44:38Z</time>
      </trkpt>
      <trkpt lat="45.22672" lon="6.14755">
        <ele>1744.5</ele>
        <time>2022-06-18T09:44:39Z</time>
      </trkpt>
      <trkpt lat="45.2267" lon="6.14749">
        <ele>1744.8</ele>
        <time>2022-06-18T09:44:41Z</time>
      </trkpt>
      <trkpt lat="45.2267" lon="6.14743">
        <ele>1745.1</ele>
        <time>2022-06-18T09:44:42Z</time>
      </trkpt>
      <trkpt lat="45.22669" lon="6.14736">
        <ele>1745.3</ele>
        <time>2022-06-18T09:44:43Z</time>
      </trkpt>
      <trkpt lat="45.22669" lon="6.1473">
        <ele>1745.6</ele>
        <time>2022-06-18T09:44:44Z</time>
      </trkpt>
      <trkpt lat="45.22669" lon="6.14725">
        <ele>1745.5</ele>
        <time>2022-06-18T09:44:45Z</time>
      </trkpt>
      <trkpt lat="45.22669" lon="6.14719">
        <ele>1745.3</ele>
        <time>2022-06-18T09:44:46Z</time>
      </trkpt>
      <trkpt lat="45.22668" lon="6.14715">
        <ele>1745.2</ele>
        <time>2022-06-18T09:44:47Z</time>
      </trkpt>
      <trkpt lat="45.22668" lon="6.14706">
        <ele>1745.3</ele>
        <time>2022-06-18T09:44:49Z</time>
      </trkpt>
      <trkpt lat="45.22667" lon="6.147">
        <ele>1745.4</ele>
        <time>2022-06-18T09:44:50Z</time>
      </trkpt>
      <trkpt lat="45.22667" lon="6.14695">
        <ele>1745.5</ele>
        <time>2022-06-18T09:44:51Z</time>
      </trkpt>
      <trkpt lat="45.22666" lon="6.14688">
        <ele>1745.7</ele>
        <time>2022-06-18T09:44:53Z</time>
      </trkpt>
      <trkpt lat="45.22666" lon="6.14682">
        <ele>1745.8</ele>
        <time>2022-06-18T09:44:54Z</time>
      </trkpt>
      <trkpt lat="45.22665" lon="6.14676">
        <ele>1745.9</ele>
        <time>2022-06-18T09:44:55Z</time>
      </trkpt>
      <trkpt lat="45.22665" lon="6.1467">
        <ele>1746.1</ele>
        <time>2022-06-18T09:44:56Z</time>
      </trkpt>
      <trkpt lat="45.22665" lon="6.14665">
        <ele>1746.2</ele>
        <time>2022-06-18T09:44:57Z</time>
      </trkpt>
      <trkpt lat="45.22664" lon="6.14661">
        <ele>1746.3</ele>
        <time>2022-06-18T09:44:58Z</time>
      </trkpt>
      <trkpt lat="45.22664" lon="6.14655">
        <ele>1746.4</ele>
        <time>2022-06-18T09:44:59Z</time>
      </trkpt>
      <trkpt lat="45.22664" lon="6.14647">
        <ele>1746.6</ele>
        <time>2022-06-18T09:45:01Z</time>
      </trkpt>
      <trkpt lat="45.22662" lon="6.14642">
        <ele>1746.7</ele>
        <time>2022-06-18T09:45:02Z</time>
      </trkpt>
      <trkpt lat="45.22663" lon="6.14637">
        <ele>1746.9</ele>
        <time>2022-06-18T09:45:03Z</time>
      </trkpt>
      <trkpt lat="45.2266" lon="6.1463">
        <ele>1747</ele>
        <time>2022-06-18T09:45:04Z</time>
      </trkpt>
      <trkpt lat="45.22659" lon="6.14624">
        <ele>1747.2</ele>
        <time>2022-06-18T09:45:05Z</time>
      </trkpt>
      <trkpt lat="45.22658" lon="6.14618">
        <ele>1747.3</ele>
        <time>2022-06-18T09:45:06Z</time>
      </trkpt>
      <trkpt lat="45.22658" lon="6.14614">
        <ele>1747.4</ele>
        <time>2022-06-18T09:45:07Z</time>
      </trkpt>
      <trkpt lat="45.22656" lon="6.14609">
        <ele>1747.5</ele>
        <time>2022-06-18T09:45:08Z</time>
      </trkpt>
      <trkpt lat="45.22655" lon="6.14605">
        <ele>1747.6</ele>
        <time>2022-06-18T09:45:09Z</time>
      </trkpt>
      <trkpt lat="45.22655" lon="6.146">
        <ele>1747.8</ele>
        <time>2022-06-18T09:45:10Z</time>
      </trkpt>
      <trkpt lat="45.22655" lon="6.14595">
        <ele>1747.9</ele>
        <time>2022-06-18T09:45:11Z</time>
      </trkpt>
      <trkpt lat="45.22658" lon="6.14586">
        <ele>1748.2</ele>
        <time>2022-06-18T09:45:13Z</time>
      </trkpt>
      <trkpt lat="45.22658" lon="6.14579">
        <ele>1748.3</ele>
        <time>2022-06-18T09:45:14Z</time>
      </trkpt>
      <trkpt lat="45.22658" lon="6.14577">
        <ele>1748.4</ele>
        <time>2022-06-18T09:45:15Z</time>
      </trkpt>
      <trkpt lat="45.22658" lon="6.14571">
        <ele>1748.6</ele>
        <time>2022-06-18T09:45:17Z</time>
      </trkpt>
      <trkpt lat="45.22656" lon="6.14562">
        <ele>1748.8</ele>
        <time>2022-06-18T09:45:18Z</time>
      </trkpt>
      <trkpt lat="45.22654" lon="6.14557">
        <ele>1749</ele>
        <time>2022-06-18T09:45:19Z</time>
      </trkpt>
      <trkpt lat="45.22655" lon="6.1455">
        <ele>1749.2</ele>
        <time>2022-06-18T09:45:21Z</time>
      </trkpt>
      <trkpt lat="45.22652" lon="6.14543">
        <ele>1749.4</ele>
        <time>2022-06-18T09:45:22Z</time>
      </trkpt>
      <trkpt lat="45.22651" lon="6.14538">
        <ele>1749.5</ele>
        <time>2022-06-18T09:45:23Z</time>
      </trkpt>
      <trkpt lat="45.2265" lon="6.14532">
        <ele>1749.7</ele>
        <time>2022-06-18T09:45:24Z</time>
      </trkpt>
      <trkpt lat="45.22649" lon="6.14526">
        <ele>1749.8</ele>
        <time>2022-06-18T09:45:25Z</time>
      </trkpt>
      <trkpt lat="45.22648" lon="6.14521">
        <ele>1750</ele>
        <time>2022-06-18T09:45:26Z</time>
      </trkpt>
      <trkpt lat="45.22647" lon="6.14516">
        <ele>1750.1</ele>
        <time>2022-06-18T09:45:27Z</time>
      </trkpt>
      <trkpt lat="45.22647" lon="6.1451">
        <ele>1750.3</ele>
        <time>2022-06-18T09:45:29Z</time>
      </trkpt>
      <trkpt lat="45.22645" lon="6.14504">
        <ele>1750.4</ele>
        <time>2022-06-18T09:45:30Z</time>
      </trkpt>
      <trkpt lat="45.22644" lon="6.14498">
        <ele>1750.6</ele>
        <time>2022-06-18T09:45:31Z</time>
      </trkpt>
      <trkpt lat="45.22642" lon="6.14491">
        <ele>1750.8</ele>
        <time>2022-06-18T09:45:32Z</time>
      </trkpt>
      <trkpt lat="45.2264" lon="6.14487">
        <ele>1750.9</ele>
        <time>2022-06-18T09:45:33Z</time>
      </trkpt>
      <trkpt lat="45.22638" lon="6.14483">
        <ele>1751.1</ele>
        <time>2022-06-18T09:45:34Z</time>
      </trkpt>
      <trkpt lat="45.22636" lon="6.14478">
        <ele>1751.2</ele>
        <time>2022-06-18T09:45:35Z</time>
      </trkpt>
      <trkpt lat="45.22635" lon="6.14473">
        <ele>1751.4</ele>
        <time>2022-06-18T09:45:36Z</time>
      </trkpt>
      <trkpt lat="45.22633" lon="6.14468">
        <ele>1751.5</ele>
        <time>2022-06-18T09:45:37Z</time>
      </trkpt>
      <trkpt lat="45.2263" lon="6.14463">
        <ele>1751.7</ele>
        <time>2022-06-18T09:45:38Z</time>
      </trkpt>
      <trkpt lat="45.22628" lon="6.14458">
        <ele>1751.8</ele>
        <time>2022-06-18T09:45:39Z</time>
      </trkpt>
      <trkpt lat="45.22626" lon="6.14454">
        <ele>1751.9</ele>
        <time>2022-06-18T09:45:40Z</time>
      </trkpt>
      <trkpt lat="45.22624" lon="6.14448">
        <ele>1752.2</ele>
        <time>2022-06-18T09:45:42Z</time>
      </trkpt>
      <trkpt lat="45.22621" lon="6.14441">
        <ele>1752.4</ele>
        <time>2022-06-18T09:45:43Z</time>
      </trkpt>
      <trkpt lat="45.22619" lon="6.14436">
        <ele>1752.6</ele>
        <time>2022-06-18T09:45:44Z</time>
      </trkpt>
      <trkpt lat="45.22617" lon="6.14431">
        <ele>1752.7</ele>
        <time>2022-06-18T09:45:45Z</time>
      </trkpt>
      <trkpt lat="45.22616" lon="6.14426">
        <ele>1752.9</ele>
        <time>2022-06-18T09:45:46Z</time>
      </trkpt>
      <trkpt lat="45.22614" lon="6.14421">
        <ele>1753</ele>
        <time>2022-06-18T09:45:47Z</time>
      </trkpt>
      <trkpt lat="45.22613" lon="6.14417">
        <ele>1753.2</ele>
        <time>2022-06-18T09:45:48Z</time>
      </trkpt>
      <trkpt lat="45.22612" lon="6.14409">
        <ele>1753.4</ele>
        <time>2022-06-18T09:45:50Z</time>
      </trkpt>
      <trkpt lat="45.2261" lon="6.14403">
        <ele>1753.6</ele>
        <time>2022-06-18T09:45:51Z</time>
      </trkpt>
      <trkpt lat="45.22608" lon="6.14396">
        <ele>1753.8</ele>
        <time>2022-06-18T09:45:52Z</time>
      </trkpt>
      <trkpt lat="45.22607" lon="6.14391">
        <ele>1754</ele>
        <time>2022-06-18T09:45:53Z</time>
      </trkpt>
      <trkpt lat="45.22605" lon="6.14385">
        <ele>1754.2</ele>
        <time>2022-06-18T09:45:54Z</time>
      </trkpt>
      <trkpt lat="45.22604" lon="6.1438">
        <ele>1754.4</ele>
        <time>2022-06-18T09:45:55Z</time>
      </trkpt>
      <trkpt lat="45.22602" lon="6.14372">
        <ele>1754.6</ele>
        <time>2022-06-18T09:45:57Z</time>
      </trkpt>
      <trkpt lat="45.226" lon="6.14365">
        <ele>1754.8</ele>
        <time>2022-06-18T09:45:58Z</time>
      </trkpt>
      <trkpt lat="45.22598" lon="6.1436">
        <ele>1755</ele>
        <time>2022-06-18T09:45:59Z</time>
      </trkpt>
      <trkpt lat="45.22595" lon="6.14354">
        <ele>1755.2</ele>
        <time>2022-06-18T09:46:00Z</time>
      </trkpt>
      <trkpt lat="45.22593" lon="6.14348">
        <ele>1755.5</ele>
        <time>2022-06-18T09:46:02Z</time>
      </trkpt>
      <trkpt lat="45.22591" lon="6.14343">
        <ele>1755.6</ele>
        <time>2022-06-18T09:46:03Z</time>
      </trkpt>
      <trkpt lat="45.22589" lon="6.14337">
        <ele>1755.8</ele>
        <time>2022-06-18T09:46:04Z</time>
      </trkpt>
      <trkpt lat="45.22587" lon="6.14332">
        <ele>1756</ele>
        <time>2022-06-18T09:46:05Z</time>
      </trkpt>
      <trkpt lat="45.22586" lon="6.14328">
        <ele>1756.2</ele>
        <time>2022-06-18T09:46:06Z</time>
      </trkpt>
      <trkpt lat="45.22584" lon="6.14323">
        <ele>1756.3</ele>
        <time>2022-06-18T09:46:07Z</time>
      </trkpt>
      <trkpt lat="45.22582" lon="6.1432">
        <ele>1756.5</ele>
        <time>2022-06-18T09:46:08Z</time>
      </trkpt>
      <trkpt lat="45.2258" lon="6.14315">
        <ele>1756.6</ele>
        <time>2022-06-18T09:46:09Z</time>
      </trkpt>
      <trkpt lat="45.22579" lon="6.14311">
        <ele>1756.8</ele>
        <time>2022-06-18T09:46:10Z</time>
      </trkpt>
      <trkpt lat="45.22577" lon="6.14306">
        <ele>1757</ele>
        <time>2022-06-18T09:46:11Z</time>
      </trkpt>
      <trkpt lat="45.22575" lon="6.14299">
        <ele>1757.2</ele>
        <time>2022-06-18T09:46:13Z</time>
      </trkpt>
      <trkpt lat="45.22573" lon="6.14294">
        <ele>1757.4</ele>
        <time>2022-06-18T09:46:14Z</time>
      </trkpt>
      <trkpt lat="45.2257" lon="6.14288">
        <ele>1757.6</ele>
        <time>2022-06-18T09:46:15Z</time>
      </trkpt>
      <trkpt lat="45.22568" lon="6.14282">
        <ele>1757.9</ele>
        <time>2022-06-18T09:46:16Z</time>
      </trkpt>
      <trkpt lat="45.22564" lon="6.14271">
        <ele>1758.2</ele>
        <time>2022-06-18T09:46:18Z</time>
      </trkpt>
      <trkpt lat="45.22562" lon="6.14266">
        <ele>1758.4</ele>
        <time>2022-06-18T09:46:19Z</time>
      </trkpt>
      <trkpt lat="45.22559" lon="6.14259">
        <ele>1758.7</ele>
        <time>2022-06-18T09:46:21Z</time>
      </trkpt>
      <trkpt lat="45.22556" lon="6.14252">
        <ele>1759</ele>
        <time>2022-06-18T09:46:22Z</time>
      </trkpt>
      <trkpt lat="45.22554" lon="6.14249">
        <ele>1759.1</ele>
        <time>2022-06-18T09:46:23Z</time>
      </trkpt>
      <trkpt lat="45.22551" lon="6.14242">
        <ele>1759.4</ele>
        <time>2022-06-18T09:46:25Z</time>
      </trkpt>
      <trkpt lat="45.22548" lon="6.14237">
        <ele>1759.6</ele>
        <time>2022-06-18T09:46:26Z</time>
      </trkpt>
      <trkpt lat="45.22546" lon="6.14231">
        <ele>1759.8</ele>
        <time>2022-06-18T09:46:27Z</time>
      </trkpt>
      <trkpt lat="45.22544" lon="6.14226">
        <ele>1760</ele>
        <time>2022-06-18T09:46:28Z</time>
      </trkpt>
      <trkpt lat="45.22542" lon="6.14222">
        <ele>1760.2</ele>
        <time>2022-06-18T09:46:29Z</time>
      </trkpt>
      <trkpt lat="45.2254" lon="6.14217">
        <ele>1760.4</ele>
        <time>2022-06-18T09:46:30Z</time>
      </trkpt>
      <trkpt lat="45.22539" lon="6.14213">
        <ele>1760.5</ele>
        <time>2022-06-18T09:46:31Z</time>
      </trkpt>
      <trkpt lat="45.22537" lon="6.14207">
        <ele>1760.7</ele>
        <time>2022-06-18T09:46:32Z</time>
      </trkpt>
      <trkpt lat="45.22533" lon="6.142">
        <ele>1761</ele>
        <time>2022-06-18T09:46:34Z</time>
      </trkpt>
      <trkpt lat="45.22531" lon="6.14193">
        <ele>1761.3</ele>
        <time>2022-06-18T09:46:35Z</time>
      </trkpt>
      <trkpt lat="45.2253" lon="6.14189">
        <ele>1761.4</ele>
        <time>2022-06-18T09:46:36Z</time>
      </trkpt>
      <trkpt lat="45.22528" lon="6.14182">
        <ele>1761.7</ele>
        <time>2022-06-18T09:46:38Z</time>
      </trkpt>
      <trkpt lat="45.22525" lon="6.14175">
        <ele>1761.9</ele>
        <time>2022-06-18T09:46:39Z</time>
      </trkpt>
      <trkpt lat="45.22524" lon="6.1417">
        <ele>1762.1</ele>
        <time>2022-06-18T09:46:40Z</time>
      </trkpt>
      <trkpt lat="45.22523" lon="6.14163">
        <ele>1762.3</ele>
        <time>2022-06-18T09:46:42Z</time>
      </trkpt>
      <trkpt lat="45.22522" lon="6.14158">
        <ele>1762.5</ele>
        <time>2022-06-18T09:46:43Z</time>
      </trkpt>
      <trkpt lat="45.2252" lon="6.14151">
        <ele>1762.7</ele>
        <time>2022-06-18T09:46:44Z</time>
      </trkpt>
      <trkpt lat="45.2252" lon="6.14147">
        <ele>1762.9</ele>
        <time>2022-06-18T09:46:45Z</time>
      </trkpt>
      <trkpt lat="45.22519" lon="6.1414">
        <ele>1763</ele>
        <time>2022-06-18T09:46:46Z</time>
      </trkpt>
      <trkpt lat="45.22518" lon="6.14135">
        <ele>1763.2</ele>
        <time>2022-06-18T09:46:47Z</time>
      </trkpt>
      <trkpt lat="45.22517" lon="6.1413">
        <ele>1763.4</ele>
        <time>2022-06-18T09:46:48Z</time>
      </trkpt>
      <trkpt lat="45.22515" lon="6.14123">
        <ele>1763.6</ele>
        <time>2022-06-18T09:46:50Z</time>
      </trkpt>
      <trkpt lat="45.22514" lon="6.14118">
        <ele>1763.8</ele>
        <time>2022-06-18T09:46:51Z</time>
      </trkpt>
      <trkpt lat="45.22514" lon="6.14112">
        <ele>1763.9</ele>
        <time>2022-06-18T09:46:52Z</time>
      </trkpt>
      <trkpt lat="45.22512" lon="6.14106">
        <ele>1764.1</ele>
        <time>2022-06-18T09:46:53Z</time>
      </trkpt>
      <trkpt lat="45.22511" lon="6.14101">
        <ele>1764.3</ele>
        <time>2022-06-18T09:46:54Z</time>
      </trkpt>
      <trkpt lat="45.2251" lon="6.14097">
        <ele>1764.4</ele>
        <time>2022-06-18T09:46:55Z</time>
      </trkpt>
      <trkpt lat="45.22509" lon="6.14092">
        <ele>1764.6</ele>
        <time>2022-06-18T09:46:56Z</time>
      </trkpt>
      <trkpt lat="45.22507" lon="6.14085">
        <ele>1764.7</ele>
        <time>2022-06-18T09:46:58Z</time>
      </trkpt>
      <trkpt lat="45.22506" lon="6.14078">
        <ele>1765</ele>
        <time>2022-06-18T09:46:59Z</time>
      </trkpt>
      <trkpt lat="45.22504" lon="6.14072">
        <ele>1765.2</ele>
        <time>2022-06-18T09:47:00Z</time>
      </trkpt>
      <trkpt lat="45.22503" lon="6.14067">
        <ele>1765.3</ele>
        <time>2022-06-18T09:47:01Z</time>
      </trkpt>
      <trkpt lat="45.22501" lon="6.14058">
        <ele>1765.6</ele>
        <time>2022-06-18T09:47:03Z</time>
      </trkpt>
      <trkpt lat="45.225" lon="6.14053">
        <ele>1765.9</ele>
        <time>2022-06-18T09:47:04Z</time>
      </trkpt>
      <trkpt lat="45.22499" lon="6.14047">
        <ele>1766.1</ele>
        <time>2022-06-18T09:47:05Z</time>
      </trkpt>
      <trkpt lat="45.22497" lon="6.14041">
        <ele>1766.3</ele>
        <time>2022-06-18T09:47:06Z</time>
      </trkpt>
      <trkpt lat="45.22495" lon="6.14035">
        <ele>1766.5</ele>
        <time>2022-06-18T09:47:07Z</time>
      </trkpt>
      <trkpt lat="45.22494" lon="6.1403">
        <ele>1766.7</ele>
        <time>2022-06-18T09:47:08Z</time>
      </trkpt>
      <trkpt lat="45.22492" lon="6.14026">
        <ele>1766.9</ele>
        <time>2022-06-18T09:47:09Z</time>
      </trkpt>
      <trkpt lat="45.22491" lon="6.14021">
        <ele>1767.1</ele>
        <time>2022-06-18T09:47:10Z</time>
      </trkpt>
      <trkpt lat="45.22489" lon="6.14015">
        <ele>1767.3</ele>
        <time>2022-06-18T09:47:11Z</time>
      </trkpt>
      <trkpt lat="45.22488" lon="6.1401">
        <ele>1767.5</ele>
        <time>2022-06-18T09:47:12Z</time>
      </trkpt>
      <trkpt lat="45.22487" lon="6.14005">
        <ele>1767.6</ele>
        <time>2022-06-18T09:47:13Z</time>
      </trkpt>
      <trkpt lat="45.22485" lon="6.14">
        <ele>1767.8</ele>
        <time>2022-06-18T09:47:14Z</time>
      </trkpt>
      <trkpt lat="45.22483" lon="6.13994">
        <ele>1768</ele>
        <time>2022-06-18T09:47:15Z</time>
      </trkpt>
      <trkpt lat="45.22481" lon="6.13989">
        <ele>1768.2</ele>
        <time>2022-06-18T09:47:16Z</time>
      </trkpt>
      <trkpt lat="45.22479" lon="6.13983">
        <ele>1768.5</ele>
        <time>2022-06-18T09:47:18Z</time>
      </trkpt>
      <trkpt lat="45.22476" lon="6.13976">
        <ele>1768.7</ele>
        <time>2022-06-18T09:47:19Z</time>
      </trkpt>
      <trkpt lat="45.22473" lon="6.1397">
        <ele>1768.9</ele>
        <time>2022-06-18T09:47:20Z</time>
      </trkpt>
      <trkpt lat="45.2247" lon="6.13965">
        <ele>1769.1</ele>
        <time>2022-06-18T09:47:21Z</time>
      </trkpt>
      <trkpt lat="45.22468" lon="6.13958">
        <ele>1769.4</ele>
        <time>2022-06-18T09:47:23Z</time>
      </trkpt>
      <trkpt lat="45.22465" lon="6.13953">
        <ele>1769.6</ele>
        <time>2022-06-18T09:47:24Z</time>
      </trkpt>
      <trkpt lat="45.22463" lon="6.13948">
        <ele>1769.8</ele>
        <time>2022-06-18T09:47:25Z</time>
      </trkpt>
      <trkpt lat="45.22461" lon="6.13943">
        <ele>1770</ele>
        <time>2022-06-18T09:47:26Z</time>
      </trkpt>
      <trkpt lat="45.22459" lon="6.13938">
        <ele>1770.2</ele>
        <time>2022-06-18T09:47:27Z</time>
      </trkpt>
      <trkpt lat="45.22458" lon="6.13933">
        <ele>1770.3</ele>
        <time>2022-06-18T09:47:28Z</time>
      </trkpt>
      <trkpt lat="45.22455" lon="6.13927">
        <ele>1770.5</ele>
        <time>2022-06-18T09:47:29Z</time>
      </trkpt>
      <trkpt lat="45.22452" lon="6.13923">
        <ele>1770.5</ele>
        <time>2022-06-18T09:47:30Z</time>
      </trkpt>
      <trkpt lat="45.2245" lon="6.13918">
        <ele>1770.4</ele>
        <time>2022-06-18T09:47:31Z</time>
      </trkpt>
      <trkpt lat="45.22447" lon="6.13912">
        <ele>1770.3</ele>
        <time>2022-06-18T09:47:32Z</time>
      </trkpt>
      <trkpt lat="45.22445" lon="6.13907">
        <ele>1770.2</ele>
        <time>2022-06-18T09:47:33Z</time>
      </trkpt>
      <trkpt lat="45.22442" lon="6.13901">
        <ele>1769.9</ele>
        <time>2022-06-18T09:47:34Z</time>
      </trkpt>
      <trkpt lat="45.22439" lon="6.13895">
        <ele>1769.5</ele>
        <time>2022-06-18T09:47:36Z</time>
      </trkpt>
      <trkpt lat="45.22436" lon="6.13889">
        <ele>1769.1</ele>
        <time>2022-06-18T09:47:37Z</time>
      </trkpt>
      <trkpt lat="45.22432" lon="6.1388">
        <ele>1768.8</ele>
        <time>2022-06-18T09:47:39Z</time>
      </trkpt>
      <trkpt lat="45.22428" lon="6.13874">
        <ele>1768.5</ele>
        <time>2022-06-18T09:47:40Z</time>
      </trkpt>
      <trkpt lat="45.22424" lon="6.13867">
        <ele>1768.2</ele>
        <time>2022-06-18T09:47:41Z</time>
      </trkpt>
      <trkpt lat="45.22421" lon="6.13862">
        <ele>1768</ele>
        <time>2022-06-18T09:47:42Z</time>
      </trkpt>
      <trkpt lat="45.22417" lon="6.13859">
        <ele>1767.8</ele>
        <time>2022-06-18T09:47:43Z</time>
      </trkpt>
      <trkpt lat="45.22413" lon="6.13857">
        <ele>1768.1</ele>
        <time>2022-06-18T09:47:44Z</time>
      </trkpt>
      <trkpt lat="45.22408" lon="6.13855">
        <ele>1768.5</ele>
        <time>2022-06-18T09:47:45Z</time>
      </trkpt>
      <trkpt lat="45.22403" lon="6.13855">
        <ele>1768.8</ele>
        <time>2022-06-18T09:47:46Z</time>
      </trkpt>
      <trkpt lat="45.22398" lon="6.13858">
        <ele>1769.2</ele>
        <time>2022-06-18T09:47:48Z</time>
      </trkpt>
      <trkpt lat="45.22392" lon="6.13859">
        <ele>1769.5</ele>
        <time>2022-06-18T09:47:49Z</time>
      </trkpt>
      <trkpt lat="45.22388" lon="6.13859">
        <ele>1769.8</ele>
        <time>2022-06-18T09:47:50Z</time>
      </trkpt>
      <trkpt lat="45.22384" lon="6.1386">
        <ele>1770</ele>
        <time>2022-06-18T09:47:51Z</time>
      </trkpt>
      <trkpt lat="45.2238" lon="6.13862">
        <ele>1770.2</ele>
        <time>2022-06-18T09:47:52Z</time>
      </trkpt>
      <trkpt lat="45.22377" lon="6.13864">
        <ele>1770.4</ele>
        <time>2022-06-18T09:47:53Z</time>
      </trkpt>
      <trkpt lat="45.2237" lon="6.13869">
        <ele>1770.9</ele>
        <time>2022-06-18T09:47:55Z</time>
      </trkpt>
      <trkpt lat="45.22366" lon="6.13873">
        <ele>1771.1</ele>
        <time>2022-06-18T09:47:56Z</time>
      </trkpt>
      <trkpt lat="45.22359" lon="6.13877">
        <ele>1771.6</ele>
        <time>2022-06-18T09:47:58Z</time>
      </trkpt>
      <trkpt lat="45.22354" lon="6.13879">
        <ele>1771.9</ele>
        <time>2022-06-18T09:47:59Z</time>
      </trkpt>
      <trkpt lat="45.2235" lon="6.13881">
        <ele>1772.2</ele>
        <time>2022-06-18T09:48:00Z</time>
      </trkpt>
      <trkpt lat="45.22344" lon="6.13884">
        <ele>1772.6</ele>
        <time>2022-06-18T09:48:02Z</time>
      </trkpt>
      <trkpt lat="45.22339" lon="6.13884">
        <ele>1772.9</ele>
        <time>2022-06-18T09:48:03Z</time>
      </trkpt>
      <trkpt lat="45.22333" lon="6.13884">
        <ele>1773.3</ele>
        <time>2022-06-18T09:48:04Z</time>
      </trkpt>
      <trkpt lat="45.22326" lon="6.13883">
        <ele>1773.8</ele>
        <time>2022-06-18T09:48:06Z</time>
      </trkpt>
      <trkpt lat="45.2232" lon="6.1388">
        <ele>1774.2</ele>
        <time>2022-06-18T09:48:07Z</time>
      </trkpt>
      <trkpt lat="45.22316" lon="6.13878">
        <ele>1774.5</ele>
        <time>2022-06-18T09:48:08Z</time>
      </trkpt>
      <trkpt lat="45.22312" lon="6.13874">
        <ele>1774.8</ele>
        <time>2022-06-18T09:48:09Z</time>
      </trkpt>
      <trkpt lat="45.22307" lon="6.1387">
        <ele>1775.1</ele>
        <time>2022-06-18T09:48:10Z</time>
      </trkpt>
      <trkpt lat="45.22303" lon="6.13866">
        <ele>1775.4</ele>
        <time>2022-06-18T09:48:11Z</time>
      </trkpt>
      <trkpt lat="45.22299" lon="6.13861">
        <ele>1775.7</ele>
        <time>2022-06-18T09:48:12Z</time>
      </trkpt>
      <trkpt lat="45.22295" lon="6.13857">
        <ele>1776.1</ele>
        <time>2022-06-18T09:48:13Z</time>
      </trkpt>
      <trkpt lat="45.22292" lon="6.13851">
        <ele>1776.4</ele>
        <time>2022-06-18T09:48:14Z</time>
      </trkpt>
      <trkpt lat="45.22289" lon="6.13846">
        <ele>1776.6</ele>
        <time>2022-06-18T09:48:15Z</time>
      </trkpt>
      <trkpt lat="45.22287" lon="6.13841">
        <ele>1776.9</ele>
        <time>2022-06-18T09:48:16Z</time>
      </trkpt>
      <trkpt lat="45.22284" lon="6.13836">
        <ele>1777.2</ele>
        <time>2022-06-18T09:48:17Z</time>
      </trkpt>
      <trkpt lat="45.22282" lon="6.1383">
        <ele>1777.5</ele>
        <time>2022-06-18T09:48:18Z</time>
      </trkpt>
      <trkpt lat="45.2228" lon="6.13824">
        <ele>1777.8</ele>
        <time>2022-06-18T09:48:19Z</time>
      </trkpt>
      <trkpt lat="45.22278" lon="6.13819">
        <ele>1778</ele>
        <time>2022-06-18T09:48:20Z</time>
      </trkpt>
      <trkpt lat="45.22276" lon="6.13813">
        <ele>1778.3</ele>
        <time>2022-06-18T09:48:21Z</time>
      </trkpt>
      <trkpt lat="45.22273" lon="6.13807">
        <ele>1778.6</ele>
        <time>2022-06-18T09:48:22Z</time>
      </trkpt>
      <trkpt lat="45.22272" lon="6.13804">
        <ele>1778.7</ele>
        <time>2022-06-18T09:48:23Z</time>
      </trkpt>
      <trkpt lat="45.22269" lon="6.13798">
        <ele>1779</ele>
        <time>2022-06-18T09:48:24Z</time>
      </trkpt>
      <trkpt lat="45.22267" lon="6.13792">
        <ele>1779.4</ele>
        <time>2022-06-18T09:48:25Z</time>
      </trkpt>
      <trkpt lat="45.22265" lon="6.13788">
        <ele>1779.5</ele>
        <time>2022-06-18T09:48:26Z</time>
      </trkpt>
      <trkpt lat="45.22262" lon="6.13782">
        <ele>1779.9</ele>
        <time>2022-06-18T09:48:27Z</time>
      </trkpt>
      <trkpt lat="45.2226" lon="6.13778">
        <ele>1780.1</ele>
        <time>2022-06-18T09:48:28Z</time>
      </trkpt>
      <trkpt lat="45.22257" lon="6.13774">
        <ele>1780.4</ele>
        <time>2022-06-18T09:48:29Z</time>
      </trkpt>
      <trkpt lat="45.22256" lon="6.13773">
        <ele>1780.4</ele>
        <time>2022-06-18T09:48:30Z</time>
      </trkpt>
      <trkpt lat="45.22254" lon="6.13765">
        <ele>1780.8</ele>
        <time>2022-06-18T09:48:31Z</time>
      </trkpt>
      <trkpt lat="45.22251" lon="6.13755">
        <ele>1781.2</ele>
        <time>2022-06-18T09:48:33Z</time>
      </trkpt>
      <trkpt lat="45.22248" lon="6.13746">
        <ele>1781.6</ele>
        <time>2022-06-18T09:48:34Z</time>
      </trkpt>
      <trkpt lat="45.22246" lon="6.13741">
        <ele>1781.9</ele>
        <time>2022-06-18T09:48:35Z</time>
      </trkpt>
      <trkpt lat="45.22243" lon="6.13732">
        <ele>1782.3</ele>
        <time>2022-06-18T09:48:37Z</time>
      </trkpt>
      <trkpt lat="45.22239" lon="6.13723">
        <ele>1782.8</ele>
        <time>2022-06-18T09:48:38Z</time>
      </trkpt>
      <trkpt lat="45.22237" lon="6.13717">
        <ele>1783.1</ele>
        <time>2022-06-18T09:48:39Z</time>
      </trkpt>
      <trkpt lat="45.22234" lon="6.13712">
        <ele>1783.4</ele>
        <time>2022-06-18T09:48:40Z</time>
      </trkpt>
      <trkpt lat="45.22231" lon="6.13707">
        <ele>1783.7</ele>
        <time>2022-06-18T09:48:41Z</time>
      </trkpt>
      <trkpt lat="45.22227" lon="6.13703">
        <ele>1784</ele>
        <time>2022-06-18T09:48:42Z</time>
      </trkpt>
      <trkpt lat="45.22224" lon="6.13699">
        <ele>1784.2</ele>
        <time>2022-06-18T09:48:43Z</time>
      </trkpt>
      <trkpt lat="45.2222" lon="6.13695">
        <ele>1784.5</ele>
        <time>2022-06-18T09:48:44Z</time>
      </trkpt>
      <trkpt lat="45.22216" lon="6.13691">
        <ele>1784.8</ele>
        <time>2022-06-18T09:48:45Z</time>
      </trkpt>
      <trkpt lat="45.22213" lon="6.13686">
        <ele>1785.1</ele>
        <time>2022-06-18T09:48:46Z</time>
      </trkpt>
      <trkpt lat="45.22209" lon="6.13683">
        <ele>1785.4</ele>
        <time>2022-06-18T09:48:47Z</time>
      </trkpt>
      <trkpt lat="45.22205" lon="6.13679">
        <ele>1785.6</ele>
        <time>2022-06-18T09:48:48Z</time>
      </trkpt>
      <trkpt lat="45.22202" lon="6.13677">
        <ele>1785.8</ele>
        <time>2022-06-18T09:48:49Z</time>
      </trkpt>
      <trkpt lat="45.22198" lon="6.13673">
        <ele>1786.1</ele>
        <time>2022-06-18T09:48:50Z</time>
      </trkpt>
      <trkpt lat="45.22193" lon="6.1367">
        <ele>1786.3</ele>
        <time>2022-06-18T09:48:51Z</time>
      </trkpt>
      <trkpt lat="45.22189" lon="6.13667">
        <ele>1786.5</ele>
        <time>2022-06-18T09:48:52Z</time>
      </trkpt>
      <trkpt lat="45.22184" lon="6.13664">
        <ele>1786.8</ele>
        <time>2022-06-18T09:48:53Z</time>
      </trkpt>
      <trkpt lat="45.22179" lon="6.13662">
        <ele>1787</ele>
        <time>2022-06-18T09:48:54Z</time>
      </trkpt>
      <trkpt lat="45.22175" lon="6.13659">
        <ele>1787.2</ele>
        <time>2022-06-18T09:48:55Z</time>
      </trkpt>
      <trkpt lat="45.2217" lon="6.13657">
        <ele>1787.4</ele>
        <time>2022-06-18T09:48:56Z</time>
      </trkpt>
      <trkpt lat="45.22166" lon="6.13655">
        <ele>1787.7</ele>
        <time>2022-06-18T09:48:57Z</time>
      </trkpt>
      <trkpt lat="45.22161" lon="6.13653">
        <ele>1787.9</ele>
        <time>2022-06-18T09:48:58Z</time>
      </trkpt>
      <trkpt lat="45.22156" lon="6.1365">
        <ele>1788.1</ele>
        <time>2022-06-18T09:48:59Z</time>
      </trkpt>
      <trkpt lat="45.22151" lon="6.13647">
        <ele>1788.4</ele>
        <time>2022-06-18T09:49:00Z</time>
      </trkpt>
      <trkpt lat="45.22146" lon="6.13645">
        <ele>1788.6</ele>
        <time>2022-06-18T09:49:01Z</time>
      </trkpt>
      <trkpt lat="45.22142" lon="6.13642">
        <ele>1788.7</ele>
        <time>2022-06-18T09:49:02Z</time>
      </trkpt>
      <trkpt lat="45.22137" lon="6.13638">
        <ele>1788.9</ele>
        <time>2022-06-18T09:49:03Z</time>
      </trkpt>
      <trkpt lat="45.22132" lon="6.13635">
        <ele>1789.1</ele>
        <time>2022-06-18T09:49:04Z</time>
      </trkpt>
      <trkpt lat="45.22127" lon="6.13631">
        <ele>1789.2</ele>
        <time>2022-06-18T09:49:05Z</time>
      </trkpt>
      <trkpt lat="45.22122" lon="6.13627">
        <ele>1789.4</ele>
        <time>2022-06-18T09:49:06Z</time>
      </trkpt>
      <trkpt lat="45.22117" lon="6.13623">
        <ele>1789.5</ele>
        <time>2022-06-18T09:49:07Z</time>
      </trkpt>
      <trkpt lat="45.22113" lon="6.13619">
        <ele>1789.7</ele>
        <time>2022-06-18T09:49:08Z</time>
      </trkpt>
      <trkpt lat="45.22108" lon="6.13615">
        <ele>1789.8</ele>
        <time>2022-06-18T09:49:09Z</time>
      </trkpt>
      <trkpt lat="45.22104" lon="6.1361">
        <ele>1789.9</ele>
        <time>2022-06-18T09:49:10Z</time>
      </trkpt>
      <trkpt lat="45.22099" lon="6.13606">
        <ele>1790.1</ele>
        <time>2022-06-18T09:49:11Z</time>
      </trkpt>
      <trkpt lat="45.22094" lon="6.13601">
        <ele>1790.2</ele>
        <time>2022-06-18T09:49:12Z</time>
      </trkpt>
      <trkpt lat="45.22089" lon="6.13597">
        <ele>1790.3</ele>
        <time>2022-06-18T09:49:13Z</time>
      </trkpt>
      <trkpt lat="45.22083" lon="6.13594">
        <ele>1790.4</ele>
        <time>2022-06-18T09:49:14Z</time>
      </trkpt>
      <trkpt lat="45.22078" lon="6.1359">
        <ele>1790.6</ele>
        <time>2022-06-18T09:49:15Z</time>
      </trkpt>
      <trkpt lat="45.22072" lon="6.13587">
        <ele>1790.7</ele>
        <time>2022-06-18T09:49:16Z</time>
      </trkpt>
      <trkpt lat="45.22067" lon="6.13585">
        <ele>1790.7</ele>
        <time>2022-06-18T09:49:17Z</time>
      </trkpt>
      <trkpt lat="45.22061" lon="6.13582">
        <ele>1790.8</ele>
        <time>2022-06-18T09:49:18Z</time>
      </trkpt>
      <trkpt lat="45.22056" lon="6.13579">
        <ele>1790.8</ele>
        <time>2022-06-18T09:49:19Z</time>
      </trkpt>
      <trkpt lat="45.2205" lon="6.13576">
        <ele>1790.8</ele>
        <time>2022-06-18T09:49:20Z</time>
      </trkpt>
      <trkpt lat="45.22044" lon="6.13573">
        <ele>1790.9</ele>
        <time>2022-06-18T09:49:21Z</time>
      </trkpt>
      <trkpt lat="45.22038" lon="6.1357">
        <ele>1790.9</ele>
        <time>2022-06-18T09:49:22Z</time>
      </trkpt>
      <trkpt lat="45.22032" lon="6.13566">
        <ele>1790.8</ele>
        <time>2022-06-18T09:49:23Z</time>
      </trkpt>
      <trkpt lat="45.22025" lon="6.13563">
        <ele>1790.8</ele>
        <time>2022-06-18T09:49:24Z</time>
      </trkpt>
      <trkpt lat="45.22018" lon="6.13559">
        <ele>1790.8</ele>
        <time>2022-06-18T09:49:25Z</time>
      </trkpt>
      <trkpt lat="45.22012" lon="6.13554">
        <ele>1790.7</ele>
        <time>2022-06-18T09:49:26Z</time>
      </trkpt>
      <trkpt lat="45.22005" lon="6.13549">
        <ele>1790.7</ele>
        <time>2022-06-18T09:49:27Z</time>
      </trkpt>
      <trkpt lat="45.21999" lon="6.13544">
        <ele>1790.6</ele>
        <time>2022-06-18T09:49:28Z</time>
      </trkpt>
      <trkpt lat="45.21993" lon="6.13538">
        <ele>1790.6</ele>
        <time>2022-06-18T09:49:29Z</time>
      </trkpt>
      <trkpt lat="45.21986" lon="6.13532">
        <ele>1790.5</ele>
        <time>2022-06-18T09:49:30Z</time>
      </trkpt>
      <trkpt lat="45.2198" lon="6.13526">
        <ele>1790.4</ele>
        <time>2022-06-18T09:49:31Z</time>
      </trkpt>
      <trkpt lat="45.21974" lon="6.1352">
        <ele>1790.4</ele>
        <time>2022-06-18T09:49:32Z</time>
      </trkpt>
      <trkpt lat="45.21968" lon="6.13514">
        <ele>1790.2</ele>
        <time>2022-06-18T09:49:33Z</time>
      </trkpt>
      <trkpt lat="45.21962" lon="6.13508">
        <ele>1790.1</ele>
        <time>2022-06-18T09:49:34Z</time>
      </trkpt>
      <trkpt lat="45.21956" lon="6.13502">
        <ele>1790</ele>
        <time>2022-06-18T09:49:35Z</time>
      </trkpt>
      <trkpt lat="45.2195" lon="6.13497">
        <ele>1789.9</ele>
        <time>2022-06-18T09:49:36Z</time>
      </trkpt>
      <trkpt lat="45.21944" lon="6.13491">
        <ele>1789.7</ele>
        <time>2022-06-18T09:49:37Z</time>
      </trkpt>
      <trkpt lat="45.21938" lon="6.13486">
        <ele>1789.5</ele>
        <time>2022-06-18T09:49:38Z</time>
      </trkpt>
      <trkpt lat="45.21932" lon="6.1348">
        <ele>1789.3</ele>
        <time>2022-06-18T09:49:39Z</time>
      </trkpt>
      <trkpt lat="45.21926" lon="6.13475">
        <ele>1789.2</ele>
        <time>2022-06-18T09:49:40Z</time>
      </trkpt>
      <trkpt lat="45.2192" lon="6.1347">
        <ele>1789</ele>
        <time>2022-06-18T09:49:41Z</time>
      </trkpt>
      <trkpt lat="45.21914" lon="6.13464">
        <ele>1788.8</ele>
        <time>2022-06-18T09:49:42Z</time>
      </trkpt>
      <trkpt lat="45.21909" lon="6.13459">
        <ele>1788.5</ele>
        <time>2022-06-18T09:49:43Z</time>
      </trkpt>
      <trkpt lat="45.21902" lon="6.13453">
        <ele>1788.3</ele>
        <time>2022-06-18T09:49:44Z</time>
      </trkpt>
      <trkpt lat="45.21896" lon="6.13448">
        <ele>1788</ele>
        <time>2022-06-18T09:49:45Z</time>
      </trkpt>
      <trkpt lat="45.2189" lon="6.13442">
        <ele>1787.8</ele>
        <time>2022-06-18T09:49:46Z</time>
      </trkpt>
      <trkpt lat="45.21884" lon="6.13436">
        <ele>1787.5</ele>
        <time>2022-06-18T09:49:47Z</time>
      </trkpt>
      <trkpt lat="45.21877" lon="6.1343">
        <ele>1787.2</ele>
        <time>2022-06-18T09:49:48Z</time>
      </trkpt>
      <trkpt lat="45.2187" lon="6.13424">
        <ele>1787</ele>
        <time>2022-06-18T09:49:49Z</time>
      </trkpt>
      <trkpt lat="45.21863" lon="6.13418">
        <ele>1786.7</ele>
        <time>2022-06-18T09:49:50Z</time>
      </trkpt>
      <trkpt lat="45.21856" lon="6.13413">
        <ele>1786.3</ele>
        <time>2022-06-18T09:49:51Z</time>
      </trkpt>
      <trkpt lat="45.21849" lon="6.13408">
        <ele>1786</ele>
        <time>2022-06-18T09:49:52Z</time>
      </trkpt>
      <trkpt lat="45.21841" lon="6.13402">
        <ele>1785.7</ele>
        <time>2022-06-18T09:49:53Z</time>
      </trkpt>
      <trkpt lat="45.21834" lon="6.13397">
        <ele>1785.4</ele>
        <time>2022-06-18T09:49:54Z</time>
      </trkpt>
      <trkpt lat="45.21826" lon="6.13392">
        <ele>1785.1</ele>
        <time>2022-06-18T09:49:55Z</time>
      </trkpt>
      <trkpt lat="45.21819" lon="6.13386">
        <ele>1784.8</ele>
        <time>2022-06-18T09:49:56Z</time>
      </trkpt>
      <trkpt lat="45.21811" lon="6.1338">
        <ele>1784.5</ele>
        <time>2022-06-18T09:49:57Z</time>
      </trkpt>
      <trkpt lat="45.21803" lon="6.13374">
        <ele>1784.2</ele>
        <time>2022-06-18T09:49:58Z</time>
      </trkpt>
      <trkpt lat="45.21795" lon="6.13368">
        <ele>1783.8</ele>
        <time>2022-06-18T09:49:59Z</time>
      </trkpt>
      <trkpt lat="45.21787" lon="6.13362">
        <ele>1783.5</ele>
        <time>2022-06-18T09:50:00Z</time>
      </trkpt>
      <trkpt lat="45.21779" lon="6.13355">
        <ele>1783.1</ele>
        <time>2022-06-18T09:50:01Z</time>
      </trkpt>
      <trkpt lat="45.2177" lon="6.13349">
        <ele>1782.6</ele>
        <time>2022-06-18T09:50:02Z</time>
      </trkpt>
      <trkpt lat="45.21761" lon="6.13343">
        <ele>1782.2</ele>
        <time>2022-06-18T09:50:03Z</time>
      </trkpt>
      <trkpt lat="45.21753" lon="6.13337">
        <ele>1781.8</ele>
        <time>2022-06-18T09:50:04Z</time>
      </trkpt>
      <trkpt lat="45.21744" lon="6.13331">
        <ele>1781.4</ele>
        <time>2022-06-18T09:50:05Z</time>
      </trkpt>
      <trkpt lat="45.21735" lon="6.13324">
        <ele>1781.1</ele>
        <time>2022-06-18T09:50:06Z</time>
      </trkpt>
      <trkpt lat="45.21726" lon="6.13318">
        <ele>1780.7</ele>
        <time>2022-06-18T09:50:07Z</time>
      </trkpt>
      <trkpt lat="45.21718" lon="6.1331">
        <ele>1780.3</ele>
        <time>2022-06-18T09:50:08Z</time>
      </trkpt>
      <trkpt lat="45.2171" lon="6.13302">
        <ele>1780</ele>
        <time>2022-06-18T09:50:09Z</time>
      </trkpt>
      <trkpt lat="45.21702" lon="6.13294">
        <ele>1779.6</ele>
        <time>2022-06-18T09:50:10Z</time>
      </trkpt>
      <trkpt lat="45.21694" lon="6.13285">
        <ele>1779.2</ele>
        <time>2022-06-18T09:50:11Z</time>
      </trkpt>
      <trkpt lat="45.21686" lon="6.13276">
        <ele>1778.8</ele>
        <time>2022-06-18T09:50:12Z</time>
      </trkpt>
      <trkpt lat="45.21677" lon="6.13268">
        <ele>1778</ele>
        <time>2022-06-18T09:50:13Z</time>
      </trkpt>
      <trkpt lat="45.21668" lon="6.1326">
        <ele>1777.3</ele>
        <time>2022-06-18T09:50:14Z</time>
      </trkpt>
      <trkpt lat="45.21659" lon="6.13252">
        <ele>1776.5</ele>
        <time>2022-06-18T09:50:15Z</time>
      </trkpt>
      <trkpt lat="45.21651" lon="6.13244">
        <ele>1775.8</ele>
        <time>2022-06-18T09:50:16Z</time>
      </trkpt>
      <trkpt lat="45.21642" lon="6.13237">
        <ele>1775</ele>
        <time>2022-06-18T09:50:17Z</time>
      </trkpt>
      <trkpt lat="45.21633" lon="6.13229">
        <ele>1774.2</ele>
        <time>2022-06-18T09:50:18Z</time>
      </trkpt>
      <trkpt lat="45.21623" lon="6.13222">
        <ele>1773.4</ele>
        <time>2022-06-18T09:50:19Z</time>
      </trkpt>
      <trkpt lat="45.21614" lon="6.13215">
        <ele>1772.7</ele>
        <time>2022-06-18T09:50:20Z</time>
      </trkpt>
      <trkpt lat="45.21606" lon="6.13208">
        <ele>1772</ele>
        <time>2022-06-18T09:50:21Z</time>
      </trkpt>
      <trkpt lat="45.21597" lon="6.13201">
        <ele>1771.2</ele>
        <time>2022-06-18T09:50:22Z</time>
      </trkpt>
      <trkpt lat="45.21588" lon="6.13194">
        <ele>1770.5</ele>
        <time>2022-06-18T09:50:23Z</time>
      </trkpt>
      <trkpt lat="45.21579" lon="6.13187">
        <ele>1769.7</ele>
        <time>2022-06-18T09:50:24Z</time>
      </trkpt>
      <trkpt lat="45.2157" lon="6.13181">
        <ele>1769</ele>
        <time>2022-06-18T09:50:25Z</time>
      </trkpt>
      <trkpt lat="45.2156" lon="6.13174">
        <ele>1768.2</ele>
        <time>2022-06-18T09:50:26Z</time>
      </trkpt>
      <trkpt lat="45.21552" lon="6.13167">
        <ele>1767.5</ele>
        <time>2022-06-18T09:50:27Z</time>
      </trkpt>
      <trkpt lat="45.21542" lon="6.13161">
        <ele>1766.7</ele>
        <time>2022-06-18T09:50:28Z</time>
      </trkpt>
      <trkpt lat="45.21533" lon="6.13156">
        <ele>1766</ele>
        <time>2022-06-18T09:50:29Z</time>
      </trkpt>
      <trkpt lat="45.21523" lon="6.13151">
        <ele>1765.2</ele>
        <time>2022-06-18T09:50:30Z</time>
      </trkpt>
      <trkpt lat="45.21514" lon="6.13146">
        <ele>1764.5</ele>
        <time>2022-06-18T09:50:31Z</time>
      </trkpt>
      <trkpt lat="45.21504" lon="6.13142">
        <ele>1763.7</ele>
        <time>2022-06-18T09:50:32Z</time>
      </trkpt>
      <trkpt lat="45.21495" lon="6.13137">
        <ele>1763.1</ele>
        <time>2022-06-18T09:50:33Z</time>
      </trkpt>
      <trkpt lat="45.21485" lon="6.13132">
        <ele>1762.4</ele>
        <time>2022-06-18T09:50:34Z</time>
      </trkpt>
      <trkpt lat="45.21474" lon="6.13127">
        <ele>1761.8</ele>
        <time>2022-06-18T09:50:35Z</time>
      </trkpt>
      <trkpt lat="45.21465" lon="6.13122">
        <ele>1761.1</ele>
        <time>2022-06-18T09:50:36Z</time>
      </trkpt>
      <trkpt lat="45.21455" lon="6.13117">
        <ele>1760.4</ele>
        <time>2022-06-18T09:50:37Z</time>
      </trkpt>
      <trkpt lat="45.21446" lon="6.1311">
        <ele>1759.7</ele>
        <time>2022-06-18T09:50:38Z</time>
      </trkpt>
      <trkpt lat="45.21437" lon="6.13102">
        <ele>1759.1</ele>
        <time>2022-06-18T09:50:39Z</time>
      </trkpt>
      <trkpt lat="45.21429" lon="6.13092">
        <ele>1758.4</ele>
        <time>2022-06-18T09:50:40Z</time>
      </trkpt>
      <trkpt lat="45.21422" lon="6.13082">
        <ele>1757.6</ele>
        <time>2022-06-18T09:50:41Z</time>
      </trkpt>
      <trkpt lat="45.21414" lon="6.13071">
        <ele>1756.9</ele>
        <time>2022-06-18T09:50:42Z</time>
      </trkpt>
      <trkpt lat="45.21407" lon="6.13061">
        <ele>1756.2</ele>
        <time>2022-06-18T09:50:43Z</time>
      </trkpt>
      <trkpt lat="45.21399" lon="6.13052">
        <ele>1755.6</ele>
        <time>2022-06-18T09:50:44Z</time>
      </trkpt>
      <trkpt lat="45.21391" lon="6.13043">
        <ele>1754.9</ele>
        <time>2022-06-18T09:50:45Z</time>
      </trkpt>
      <trkpt lat="45.21383" lon="6.13036">
        <ele>1754.3</ele>
        <time>2022-06-18T09:50:46Z</time>
      </trkpt>
      <trkpt lat="45.21374" lon="6.13028">
        <ele>1753.7</ele>
        <time>2022-06-18T09:50:47Z</time>
      </trkpt>
      <trkpt lat="45.21365" lon="6.13021">
        <ele>1753</ele>
        <time>2022-06-18T09:50:48Z</time>
      </trkpt>
      <trkpt lat="45.21357" lon="6.13013">
        <ele>1752.4</ele>
        <time>2022-06-18T09:50:49Z</time>
      </trkpt>
      <trkpt lat="45.21348" lon="6.13005">
        <ele>1751.7</ele>
        <time>2022-06-18T09:50:50Z</time>
      </trkpt>
      <trkpt lat="45.21339" lon="6.12997">
        <ele>1751</ele>
        <time>2022-06-18T09:50:51Z</time>
      </trkpt>
      <trkpt lat="45.21331" lon="6.12989">
        <ele>1750.3</ele>
        <time>2022-06-18T09:50:52Z</time>
      </trkpt>
      <trkpt lat="45.21323" lon="6.1298">
        <ele>1749.6</ele>
        <time>2022-06-18T09:50:53Z</time>
      </trkpt>
      <trkpt lat="45.21314" lon="6.1297">
        <ele>1749</ele>
        <time>2022-06-18T09:50:54Z</time>
      </trkpt>
      <trkpt lat="45.21306" lon="6.1296">
        <ele>1748.3</ele>
        <time>2022-06-18T09:50:55Z</time>
      </trkpt>
      <trkpt lat="45.21298" lon="6.12951">
        <ele>1747.6</ele>
        <time>2022-06-18T09:50:56Z</time>
      </trkpt>
      <trkpt lat="45.2129" lon="6.12941">
        <ele>1747</ele>
        <time>2022-06-18T09:50:57Z</time>
      </trkpt>
      <trkpt lat="45.21281" lon="6.12931">
        <ele>1746.3</ele>
        <time>2022-06-18T09:50:58Z</time>
      </trkpt>
      <trkpt lat="45.21273" lon="6.12922">
        <ele>1745.7</ele>
        <time>2022-06-18T09:50:59Z</time>
      </trkpt>
      <trkpt lat="45.21265" lon="6.12912">
        <ele>1745.1</ele>
        <time>2022-06-18T09:51:00Z</time>
      </trkpt>
      <trkpt lat="45.21257" lon="6.12903">
        <ele>1744.4</ele>
        <time>2022-06-18T09:51:01Z</time>
      </trkpt>
      <trkpt lat="45.21249" lon="6.12893">
        <ele>1743.7</ele>
        <time>2022-06-18T09:51:02Z</time>
      </trkpt>
      <trkpt lat="45.2124" lon="6.12884">
        <ele>1743.1</ele>
        <time>2022-06-18T09:51:03Z</time>
      </trkpt>
      <trkpt lat="45.21233" lon="6.12875">
        <ele>1742.4</ele>
        <time>2022-06-18T09:51:04Z</time>
      </trkpt>
      <trkpt lat="45.21225" lon="6.12866">
        <ele>1741.7</ele>
        <time>2022-06-18T09:51:05Z</time>
      </trkpt>
      <trkpt lat="45.21217" lon="6.12856">
        <ele>1740.9</ele>
        <time>2022-06-18T09:51:06Z</time>
      </trkpt>
      <trkpt lat="45.2121" lon="6.12844">
        <ele>1740.2</ele>
        <time>2022-06-18T09:51:07Z</time>
      </trkpt>
      <trkpt lat="45.21205" lon="6.12831">
        <ele>1739.4</ele>
        <time>2022-06-18T09:51:08Z</time>
      </trkpt>
      <trkpt lat="45.212" lon="6.12817">
        <ele>1738.7</ele>
        <time>2022-06-18T09:51:09Z</time>
      </trkpt>
      <trkpt lat="45.21195" lon="6.12803">
        <ele>1737.9</ele>
        <time>2022-06-18T09:51:10Z</time>
      </trkpt>
      <trkpt lat="45.21188" lon="6.1279">
        <ele>1737.2</ele>
        <time>2022-06-18T09:51:11Z</time>
      </trkpt>
      <trkpt lat="45.21181" lon="6.12779">
        <ele>1736.5</ele>
        <time>2022-06-18T09:51:12Z</time>
      </trkpt>
      <trkpt lat="45.21172" lon="6.12769">
        <ele>1735.8</ele>
        <time>2022-06-18T09:51:13Z</time>
      </trkpt>
      <trkpt lat="45.21161" lon="6.12761">
        <ele>1735</ele>
        <time>2022-06-18T09:51:14Z</time>
      </trkpt>
      <trkpt lat="45.2115" lon="6.12757">
        <ele>1734.3</ele>
        <time>2022-06-18T09:51:15Z</time>
      </trkpt>
      <trkpt lat="45.21139" lon="6.12753">
        <ele>1733.6</ele>
        <time>2022-06-18T09:51:16Z</time>
      </trkpt>
      <trkpt lat="45.21128" lon="6.1275">
        <ele>1732.9</ele>
        <time>2022-06-18T09:51:17Z</time>
      </trkpt>
      <trkpt lat="45.21118" lon="6.12744">
        <ele>1732.3</ele>
        <time>2022-06-18T09:51:18Z</time>
      </trkpt>
      <trkpt lat="45.2111" lon="6.12734">
        <ele>1731.6</ele>
        <time>2022-06-18T09:51:19Z</time>
      </trkpt>
      <trkpt lat="45.21102" lon="6.12723">
        <ele>1730.8</ele>
        <time>2022-06-18T09:51:20Z</time>
      </trkpt>
      <trkpt lat="45.21096" lon="6.12709">
        <ele>1730</ele>
        <time>2022-06-18T09:51:21Z</time>
      </trkpt>
      <trkpt lat="45.2109" lon="6.12695">
        <ele>1729.2</ele>
        <time>2022-06-18T09:51:22Z</time>
      </trkpt>
      <trkpt lat="45.21084" lon="6.12681">
        <ele>1728.5</ele>
        <time>2022-06-18T09:51:23Z</time>
      </trkpt>
      <trkpt lat="45.21079" lon="6.12668">
        <ele>1727.8</ele>
        <time>2022-06-18T09:51:24Z</time>
      </trkpt>
      <trkpt lat="45.21073" lon="6.12655">
        <ele>1727.1</ele>
        <time>2022-06-18T09:51:25Z</time>
      </trkpt>
      <trkpt lat="45.21066" lon="6.12642">
        <ele>1726.4</ele>
        <time>2022-06-18T09:51:26Z</time>
      </trkpt>
      <trkpt lat="45.2106" lon="6.1263">
        <ele>1725.7</ele>
        <time>2022-06-18T09:51:27Z</time>
      </trkpt>
      <trkpt lat="45.21054" lon="6.12617">
        <ele>1725</ele>
        <time>2022-06-18T09:51:28Z</time>
      </trkpt>
      <trkpt lat="45.21048" lon="6.12604">
        <ele>1724.3</ele>
        <time>2022-06-18T09:51:29Z</time>
      </trkpt>
      <trkpt lat="45.21042" lon="6.12591">
        <ele>1723.6</ele>
        <time>2022-06-18T09:51:30Z</time>
      </trkpt>
      <trkpt lat="45.21037" lon="6.12577">
        <ele>1722.9</ele>
        <time>2022-06-18T09:51:31Z</time>
      </trkpt>
      <trkpt lat="45.21032" lon="6.12563">
        <ele>1722.2</ele>
        <time>2022-06-18T09:51:32Z</time>
      </trkpt>
      <trkpt lat="45.21028" lon="6.12549">
        <ele>1721.5</ele>
        <time>2022-06-18T09:51:33Z</time>
      </trkpt>
      <trkpt lat="45.21024" lon="6.12534">
        <ele>1720.8</ele>
        <time>2022-06-18T09:51:34Z</time>
      </trkpt>
      <trkpt lat="45.21021" lon="6.1252">
        <ele>1720</ele>
        <time>2022-06-18T09:51:35Z</time>
      </trkpt>
      <trkpt lat="45.21018" lon="6.12505">
        <ele>1719.2</ele>
        <time>2022-06-18T09:51:36Z</time>
      </trkpt>
      <trkpt lat="45.21015" lon="6.1249">
        <ele>1718.5</ele>
        <time>2022-06-18T09:51:37Z</time>
      </trkpt>
      <trkpt lat="45.21012" lon="6.12476">
        <ele>1717.7</ele>
        <time>2022-06-18T09:51:38Z</time>
      </trkpt>
      <trkpt lat="45.21009" lon="6.12461">
        <ele>1717</ele>
        <time>2022-06-18T09:51:39Z</time>
      </trkpt>
      <trkpt lat="45.21005" lon="6.12448">
        <ele>1716.3</ele>
        <time>2022-06-18T09:51:40Z</time>
      </trkpt>
      <trkpt lat="45.21001" lon="6.12434">
        <ele>1715.6</ele>
        <time>2022-06-18T09:51:41Z</time>
      </trkpt>
      <trkpt lat="45.20996" lon="6.1242">
        <ele>1714.9</ele>
        <time>2022-06-18T09:51:42Z</time>
      </trkpt>
      <trkpt lat="45.20992" lon="6.12407">
        <ele>1714.2</ele>
        <time>2022-06-18T09:51:43Z</time>
      </trkpt>
      <trkpt lat="45.20987" lon="6.12393">
        <ele>1713.4</ele>
        <time>2022-06-18T09:51:44Z</time>
      </trkpt>
      <trkpt lat="45.20982" lon="6.1238">
        <ele>1712.7</ele>
        <time>2022-06-18T09:51:45Z</time>
      </trkpt>
      <trkpt lat="45.20977" lon="6.12367">
        <ele>1712</ele>
        <time>2022-06-18T09:51:46Z</time>
      </trkpt>
      <trkpt lat="45.20971" lon="6.12354">
        <ele>1711.3</ele>
        <time>2022-06-18T09:51:47Z</time>
      </trkpt>
      <trkpt lat="45.20966" lon="6.1234">
        <ele>1710.6</ele>
        <time>2022-06-18T09:51:48Z</time>
      </trkpt>
      <trkpt lat="45.2096" lon="6.12327">
        <ele>1709.9</ele>
        <time>2022-06-18T09:51:49Z</time>
      </trkpt>
      <trkpt lat="45.20955" lon="6.12314">
        <ele>1709.2</ele>
        <time>2022-06-18T09:51:50Z</time>
      </trkpt>
      <trkpt lat="45.2095" lon="6.123">
        <ele>1708.4</ele>
        <time>2022-06-18T09:51:51Z</time>
      </trkpt>
      <trkpt lat="45.20944" lon="6.12287">
        <ele>1707.7</ele>
        <time>2022-06-18T09:51:52Z</time>
      </trkpt>
      <trkpt lat="45.20939" lon="6.12274">
        <ele>1706.9</ele>
        <time>2022-06-18T09:51:53Z</time>
      </trkpt>
      <trkpt lat="45.20933" lon="6.12262">
        <ele>1706.1</ele>
        <time>2022-06-18T09:51:54Z</time>
      </trkpt>
      <trkpt lat="45.20927" lon="6.12249">
        <ele>1705.4</ele>
        <time>2022-06-18T09:51:55Z</time>
      </trkpt>
      <trkpt lat="45.20921" lon="6.12237">
        <ele>1704.9</ele>
        <time>2022-06-18T09:51:56Z</time>
      </trkpt>
      <trkpt lat="45.20915" lon="6.12224">
        <ele>1704.5</ele>
        <time>2022-06-18T09:51:57Z</time>
      </trkpt>
      <trkpt lat="45.2091" lon="6.12211">
        <ele>1704</ele>
        <time>2022-06-18T09:51:58Z</time>
      </trkpt>
      <trkpt lat="45.20905" lon="6.12197">
        <ele>1703.5</ele>
        <time>2022-06-18T09:51:59Z</time>
      </trkpt>
      <trkpt lat="45.209" lon="6.12184">
        <ele>1703</ele>
        <time>2022-06-18T09:52:00Z</time>
      </trkpt>
      <trkpt lat="45.20895" lon="6.1217">
        <ele>1702.5</ele>
        <time>2022-06-18T09:52:01Z</time>
      </trkpt>
      <trkpt lat="45.20891" lon="6.12155">
        <ele>1702</ele>
        <time>2022-06-18T09:52:02Z</time>
      </trkpt>
      <trkpt lat="45.20888" lon="6.1214">
        <ele>1701.5</ele>
        <time>2022-06-18T09:52:03Z</time>
      </trkpt>
      <trkpt lat="45.20885" lon="6.12124">
        <ele>1701.1</ele>
        <time>2022-06-18T09:52:04Z</time>
      </trkpt>
      <trkpt lat="45.20882" lon="6.12109">
        <ele>1700.7</ele>
        <time>2022-06-18T09:52:05Z</time>
      </trkpt>
      <trkpt lat="45.20878" lon="6.12094">
        <ele>1700.4</ele>
        <time>2022-06-18T09:52:06Z</time>
      </trkpt>
      <trkpt lat="45.20875" lon="6.12079">
        <ele>1700.1</ele>
        <time>2022-06-18T09:52:07Z</time>
      </trkpt>
      <trkpt lat="45.20871" lon="6.12064">
        <ele>1699.8</ele>
        <time>2022-06-18T09:52:08Z</time>
      </trkpt>
      <trkpt lat="45.20868" lon="6.1205">
        <ele>1699.6</ele>
        <time>2022-06-18T09:52:09Z</time>
      </trkpt>
      <trkpt lat="45.20865" lon="6.12036">
        <ele>1699.4</ele>
        <time>2022-06-18T09:52:10Z</time>
      </trkpt>
      <trkpt lat="45.20863" lon="6.12021">
        <ele>1699.2</ele>
        <time>2022-06-18T09:52:11Z</time>
      </trkpt>
      <trkpt lat="45.20862" lon="6.12007">
        <ele>1699.2</ele>
        <time>2022-06-18T09:52:12Z</time>
      </trkpt>
      <trkpt lat="45.20862" lon="6.11992">
        <ele>1699.1</ele>
        <time>2022-06-18T09:52:13Z</time>
      </trkpt>
      <trkpt lat="45.20862" lon="6.11977">
        <ele>1700.1</ele>
        <time>2022-06-18T09:52:14Z</time>
      </trkpt>
      <trkpt lat="45.20863" lon="6.11963">
        <ele>1702</ele>
        <time>2022-06-18T09:52:15Z</time>
      </trkpt>
      <trkpt lat="45.20864" lon="6.11948">
        <ele>1703.8</ele>
        <time>2022-06-18T09:52:16Z</time>
      </trkpt>
      <trkpt lat="45.20865" lon="6.11934">
        <ele>1705.7</ele>
        <time>2022-06-18T09:52:17Z</time>
      </trkpt>
      <trkpt lat="45.20866" lon="6.1192">
        <ele>1707.5</ele>
        <time>2022-06-18T09:52:18Z</time>
      </trkpt>
      <trkpt lat="45.20867" lon="6.11906">
        <ele>1709.3</ele>
        <time>2022-06-18T09:52:19Z</time>
      </trkpt>
      <trkpt lat="45.20866" lon="6.11892">
        <ele>1711.1</ele>
        <time>2022-06-18T09:52:20Z</time>
      </trkpt>
      <trkpt lat="45.20864" lon="6.11879">
        <ele>1713</ele>
        <time>2022-06-18T09:52:21Z</time>
      </trkpt>
      <trkpt lat="45.2086" lon="6.11867">
        <ele>1714.8</ele>
        <time>2022-06-18T09:52:22Z</time>
      </trkpt>
      <trkpt lat="45.20855" lon="6.11856">
        <ele>1716.6</ele>
        <time>2022-06-18T09:52:23Z</time>
      </trkpt>
      <trkpt lat="45.2085" lon="6.11845">
        <ele>1718.3</ele>
        <time>2022-06-18T09:52:24Z</time>
      </trkpt>
      <trkpt lat="45.20847" lon="6.11833">
        <ele>1719.9</ele>
        <time>2022-06-18T09:52:25Z</time>
      </trkpt>
      <trkpt lat="45.20845" lon="6.11822">
        <ele>1721.5</ele>
        <time>2022-06-18T09:52:26Z</time>
      </trkpt>
      <trkpt lat="45.20845" lon="6.11811">
        <ele>1723</ele>
        <time>2022-06-18T09:52:27Z</time>
      </trkpt>
      <trkpt lat="45.20846" lon="6.118">
        <ele>1724.5</ele>
        <time>2022-06-18T09:52:28Z</time>
      </trkpt>
      <trkpt lat="45.20848" lon="6.11788">
        <ele>1726</ele>
        <time>2022-06-18T09:52:29Z</time>
      </trkpt>
      <trkpt lat="45.20849" lon="6.11777">
        <ele>1727.6</ele>
        <time>2022-06-18T09:52:30Z</time>
      </trkpt>
      <trkpt lat="45.20851" lon="6.11766">
        <ele>1729.1</ele>
        <time>2022-06-18T09:52:31Z</time>
      </trkpt>
      <trkpt lat="45.20852" lon="6.11756">
        <ele>1730.5</ele>
        <time>2022-06-18T09:52:32Z</time>
      </trkpt>
      <trkpt lat="45.20853" lon="6.11745">
        <ele>1732</ele>
        <time>2022-06-18T09:52:33Z</time>
      </trkpt>
      <trkpt lat="45.20854" lon="6.11735">
        <ele>1733.4</ele>
        <time>2022-06-18T09:52:34Z</time>
      </trkpt>
      <trkpt lat="45.20856" lon="6.11724">
        <ele>1734.8</ele>
        <time>2022-06-18T09:52:35Z</time>
      </trkpt>
      <trkpt lat="45.20856" lon="6.11713">
        <ele>1736.2</ele>
        <time>2022-06-18T09:52:36Z</time>
      </trkpt>
      <trkpt lat="45.20856" lon="6.11702">
        <ele>1736.8</ele>
        <time>2022-06-18T09:52:37Z</time>
      </trkpt>
      <trkpt lat="45.20855" lon="6.1169">
        <ele>1736.7</ele>
        <time>2022-06-18T09:52:38Z</time>
      </trkpt>
      <trkpt lat="45.20854" lon="6.11679">
        <ele>1736.6</ele>
        <time>2022-06-18T09:52:39Z</time>
      </trkpt>
      <trkpt lat="45.20853" lon="6.11667">
        <ele>1736.6</ele>
        <time>2022-06-18T09:52:40Z</time>
      </trkpt>
      <trkpt lat="45.20852" lon="6.11656">
        <ele>1736.5</ele>
        <time>2022-06-18T09:52:41Z</time>
      </trkpt>
      <trkpt lat="45.20851" lon="6.11645">
        <ele>1736.3</ele>
        <time>2022-06-18T09:52:42Z</time>
      </trkpt>
      <trkpt lat="45.20851" lon="6.11635">
        <ele>1736.2</ele>
        <time>2022-06-18T09:52:43Z</time>
      </trkpt>
      <trkpt lat="45.2085" lon="6.11624">
        <ele>1736</ele>
        <time>2022-06-18T09:52:44Z</time>
      </trkpt>
      <trkpt lat="45.20849" lon="6.11615">
        <ele>1735.8</ele>
        <time>2022-06-18T09:52:45Z</time>
      </trkpt>
      <trkpt lat="45.20849" lon="6.11605">
        <ele>1735.6</ele>
        <time>2022-06-18T09:52:46Z</time>
      </trkpt>
      <trkpt lat="45.20848" lon="6.11597">
        <ele>1735.4</ele>
        <time>2022-06-18T09:52:47Z</time>
      </trkpt>
      <trkpt lat="45.20847" lon="6.1159">
        <ele>1735.2</ele>
        <time>2022-06-18T09:52:48Z</time>
      </trkpt>
      <trkpt lat="45.20846" lon="6.11584">
        <ele>1735.1</ele>
        <time>2022-06-18T09:52:49Z</time>
      </trkpt>
      <trkpt lat="45.20845" lon="6.11578">
        <ele>1734.9</ele>
        <time>2022-06-18T09:52:50Z</time>
      </trkpt>
      <trkpt lat="45.20844" lon="6.11571">
        <ele>1734.7</ele>
        <time>2022-06-18T09:52:51Z</time>
      </trkpt>
      <trkpt lat="45.20844" lon="6.11564">
        <ele>1734.4</ele>
        <time>2022-06-18T09:52:52Z</time>
      </trkpt>
      <trkpt lat="45.20843" lon="6.11556">
        <ele>1734.2</ele>
        <time>2022-06-18T09:52:53Z</time>
      </trkpt>
      <trkpt lat="45.20842" lon="6.11548">
        <ele>1733.9</ele>
        <time>2022-06-18T09:52:54Z</time>
      </trkpt>
      <trkpt lat="45.20841" lon="6.1154">
        <ele>1733.5</ele>
        <time>2022-06-18T09:52:55Z</time>
      </trkpt>
      <trkpt lat="45.20839" lon="6.11532">
        <ele>1733.2</ele>
        <time>2022-06-18T09:52:56Z</time>
      </trkpt>
      <trkpt lat="45.20836" lon="6.11523">
        <ele>1732.8</ele>
        <time>2022-06-18T09:52:57Z</time>
      </trkpt>
      <trkpt lat="45.20833" lon="6.11515">
        <ele>1732.4</ele>
        <time>2022-06-18T09:52:58Z</time>
      </trkpt>
      <trkpt lat="45.2083" lon="6.11506">
        <ele>1731.9</ele>
        <time>2022-06-18T09:52:59Z</time>
      </trkpt>
      <trkpt lat="45.20826" lon="6.11496">
        <ele>1731.5</ele>
        <time>2022-06-18T09:53:00Z</time>
      </trkpt>
      <trkpt lat="45.20822" lon="6.11487">
        <ele>1731</ele>
        <time>2022-06-18T09:53:01Z</time>
      </trkpt>
      <trkpt lat="45.20818" lon="6.11478">
        <ele>1730.5</ele>
        <time>2022-06-18T09:53:02Z</time>
      </trkpt>
      <trkpt lat="45.20815" lon="6.11468">
        <ele>1729.9</ele>
        <time>2022-06-18T09:53:03Z</time>
      </trkpt>
      <trkpt lat="45.20811" lon="6.11458">
        <ele>1729.4</ele>
        <time>2022-06-18T09:53:04Z</time>
      </trkpt>
      <trkpt lat="45.20808" lon="6.11448">
        <ele>1728.8</ele>
        <time>2022-06-18T09:53:05Z</time>
      </trkpt>
      <trkpt lat="45.20807" lon="6.11436">
        <ele>1728.3</ele>
        <time>2022-06-18T09:53:06Z</time>
      </trkpt>
      <trkpt lat="45.20806" lon="6.11424">
        <ele>1727.7</ele>
        <time>2022-06-18T09:53:07Z</time>
      </trkpt>
      <trkpt lat="45.20804" lon="6.11412">
        <ele>1727.2</ele>
        <time>2022-06-18T09:53:08Z</time>
      </trkpt>
      <trkpt lat="45.20801" lon="6.114">
        <ele>1726.6</ele>
        <time>2022-06-18T09:53:09Z</time>
      </trkpt>
      <trkpt lat="45.20798" lon="6.11389">
        <ele>1726</ele>
        <time>2022-06-18T09:53:10Z</time>
      </trkpt>
      <trkpt lat="45.20794" lon="6.11377">
        <ele>1725.4</ele>
        <time>2022-06-18T09:53:11Z</time>
      </trkpt>
      <trkpt lat="45.20791" lon="6.11364">
        <ele>1724.7</ele>
        <time>2022-06-18T09:53:12Z</time>
      </trkpt>
      <trkpt lat="45.20789" lon="6.11352">
        <ele>1724.1</ele>
        <time>2022-06-18T09:53:13Z</time>
      </trkpt>
      <trkpt lat="45.20789" lon="6.11338">
        <ele>1723.4</ele>
        <time>2022-06-18T09:53:14Z</time>
      </trkpt>
      <trkpt lat="45.20791" lon="6.11325">
        <ele>1722.7</ele>
        <time>2022-06-18T09:53:15Z</time>
      </trkpt>
      <trkpt lat="45.20794" lon="6.11311">
        <ele>1721.9</ele>
        <time>2022-06-18T09:53:16Z</time>
      </trkpt>
      <trkpt lat="45.20797" lon="6.11298">
        <ele>1721.3</ele>
        <time>2022-06-18T09:53:17Z</time>
      </trkpt>
      <trkpt lat="45.20798" lon="6.11284">
        <ele>1720.7</ele>
        <time>2022-06-18T09:53:18Z</time>
      </trkpt>
      <trkpt lat="45.20797" lon="6.1127">
        <ele>1720</ele>
        <time>2022-06-18T09:53:19Z</time>
      </trkpt>
      <trkpt lat="45.20794" lon="6.11256">
        <ele>1719.3</ele>
        <time>2022-06-18T09:53:20Z</time>
      </trkpt>
      <trkpt lat="45.2079" lon="6.11243">
        <ele>1718.6</ele>
        <time>2022-06-18T09:53:21Z</time>
      </trkpt>
      <trkpt lat="45.20787" lon="6.11229">
        <ele>1718</ele>
        <time>2022-06-18T09:53:22Z</time>
      </trkpt>
      <trkpt lat="45.20784" lon="6.11215">
        <ele>1717.3</ele>
        <time>2022-06-18T09:53:23Z</time>
      </trkpt>
      <trkpt lat="45.20781" lon="6.11201">
        <ele>1716.6</ele>
        <time>2022-06-18T09:53:24Z</time>
      </trkpt>
      <trkpt lat="45.20778" lon="6.11187">
        <ele>1715.9</ele>
        <time>2022-06-18T09:53:25Z</time>
      </trkpt>
      <trkpt lat="45.20777" lon="6.11172">
        <ele>1715.2</ele>
        <time>2022-06-18T09:53:26Z</time>
      </trkpt>
      <trkpt lat="45.20778" lon="6.11158">
        <ele>1714.5</ele>
        <time>2022-06-18T09:53:27Z</time>
      </trkpt>
      <trkpt lat="45.20779" lon="6.11143">
        <ele>1713.8</ele>
        <time>2022-06-18T09:53:28Z</time>
      </trkpt>
      <trkpt lat="45.20781" lon="6.11129">
        <ele>1713.1</ele>
        <time>2022-06-18T09:53:29Z</time>
      </trkpt>
      <trkpt lat="45.20783" lon="6.11114">
        <ele>1712.4</ele>
        <time>2022-06-18T09:53:30Z</time>
      </trkpt>
      <trkpt lat="45.20786" lon="6.111">
        <ele>1711.7</ele>
        <time>2022-06-18T09:53:31Z</time>
      </trkpt>
      <trkpt lat="45.20788" lon="6.11086">
        <ele>1710.9</ele>
        <time>2022-06-18T09:53:32Z</time>
      </trkpt>
      <trkpt lat="45.20789" lon="6.11071">
        <ele>1710.2</ele>
        <time>2022-06-18T09:53:33Z</time>
      </trkpt>
      <trkpt lat="45.20789" lon="6.11056">
        <ele>1709.4</ele>
        <time>2022-06-18T09:53:34Z</time>
      </trkpt>
      <trkpt lat="45.20789" lon="6.11041">
        <ele>1708.5</ele>
        <time>2022-06-18T09:53:35Z</time>
      </trkpt>
      <trkpt lat="45.20789" lon="6.11025">
        <ele>1707.6</ele>
        <time>2022-06-18T09:53:36Z</time>
      </trkpt>
      <trkpt lat="45.20789" lon="6.11009">
        <ele>1706.6</ele>
        <time>2022-06-18T09:53:37Z</time>
      </trkpt>
      <trkpt lat="45.2079" lon="6.10993">
        <ele>1705.5</ele>
        <time>2022-06-18T09:53:38Z</time>
      </trkpt>
      <trkpt lat="45.20791" lon="6.10977">
        <ele>1704.3</ele>
        <time>2022-06-18T09:53:39Z</time>
      </trkpt>
      <trkpt lat="45.20794" lon="6.1096">
        <ele>1703</ele>
        <time>2022-06-18T09:53:40Z</time>
      </trkpt>
      <trkpt lat="45.20795" lon="6.10943">
        <ele>1701.9</ele>
        <time>2022-06-18T09:53:41Z</time>
      </trkpt>
      <trkpt lat="45.20794" lon="6.10926">
        <ele>1700.7</ele>
        <time>2022-06-18T09:53:42Z</time>
      </trkpt>
      <trkpt lat="45.2079" lon="6.10908">
        <ele>1699.4</ele>
        <time>2022-06-18T09:53:43Z</time>
      </trkpt>
      <trkpt lat="45.20785" lon="6.1089">
        <ele>1698.1</ele>
        <time>2022-06-18T09:53:44Z</time>
      </trkpt>
      <trkpt lat="45.20779" lon="6.10873">
        <ele>1696.8</ele>
        <time>2022-06-18T09:53:45Z</time>
      </trkpt>
      <trkpt lat="45.20773" lon="6.10856">
        <ele>1695.4</ele>
        <time>2022-06-18T09:53:46Z</time>
      </trkpt>
      <trkpt lat="45.20766" lon="6.1084">
        <ele>1694.1</ele>
        <time>2022-06-18T09:53:47Z</time>
      </trkpt>
      <trkpt lat="45.2076" lon="6.10824">
        <ele>1692.8</ele>
        <time>2022-06-18T09:53:48Z</time>
      </trkpt>
      <trkpt lat="45.20755" lon="6.10808">
        <ele>1691.7</ele>
        <time>2022-06-18T09:53:49Z</time>
      </trkpt>
      <trkpt lat="45.20752" lon="6.10793">
        <ele>1690.5</ele>
        <time>2022-06-18T09:53:50Z</time>
      </trkpt>
      <trkpt lat="45.2075" lon="6.10775">
        <ele>1689.3</ele>
        <time>2022-06-18T09:53:51Z</time>
      </trkpt>
      <trkpt lat="45.20749" lon="6.10757">
        <ele>1688</ele>
        <time>2022-06-18T09:53:52Z</time>
      </trkpt>
      <trkpt lat="45.20747" lon="6.10739">
        <ele>1686.7</ele>
        <time>2022-06-18T09:53:53Z</time>
      </trkpt>
      <trkpt lat="45.20744" lon="6.10721">
        <ele>1685.5</ele>
        <time>2022-06-18T09:53:54Z</time>
      </trkpt>
      <trkpt lat="45.2074" lon="6.10704">
        <ele>1684.2</ele>
        <time>2022-06-18T09:53:55Z</time>
      </trkpt>
      <trkpt lat="45.20734" lon="6.10687">
        <ele>1682.9</ele>
        <time>2022-06-18T09:53:56Z</time>
      </trkpt>
      <trkpt lat="45.20726" lon="6.10671">
        <ele>1681.4</ele>
        <time>2022-06-18T09:53:57Z</time>
      </trkpt>
      <trkpt lat="45.20718" lon="6.10655">
        <ele>1679.9</ele>
        <time>2022-06-18T09:53:58Z</time>
      </trkpt>
      <trkpt lat="45.20711" lon="6.10639">
        <ele>1678.5</ele>
        <time>2022-06-18T09:53:59Z</time>
      </trkpt>
      <trkpt lat="45.20705" lon="6.10621">
        <ele>1677.2</ele>
        <time>2022-06-18T09:54:00Z</time>
      </trkpt>
      <trkpt lat="45.207" lon="6.10603">
        <ele>1675.8</ele>
        <time>2022-06-18T09:54:01Z</time>
      </trkpt>
      <trkpt lat="45.20695" lon="6.10584">
        <ele>1674.4</ele>
        <time>2022-06-18T09:54:02Z</time>
      </trkpt>
      <trkpt lat="45.20691" lon="6.10567">
        <ele>1673.2</ele>
        <time>2022-06-18T09:54:03Z</time>
      </trkpt>
      <trkpt lat="45.20687" lon="6.10551">
        <ele>1672.1</ele>
        <time>2022-06-18T09:54:04Z</time>
      </trkpt>
      <trkpt lat="45.20681" lon="6.10536">
        <ele>1671.1</ele>
        <time>2022-06-18T09:54:05Z</time>
      </trkpt>
      <trkpt lat="45.20673" lon="6.10523">
        <ele>1670.1</ele>
        <time>2022-06-18T09:54:06Z</time>
      </trkpt>
      <trkpt lat="45.20664" lon="6.10511">
        <ele>1669.1</ele>
        <time>2022-06-18T09:54:07Z</time>
      </trkpt>
      <trkpt lat="45.20655" lon="6.10499">
        <ele>1668</ele>
        <time>2022-06-18T09:54:08Z</time>
      </trkpt>
      <trkpt lat="45.20645" lon="6.10486">
        <ele>1667</ele>
        <time>2022-06-18T09:54:09Z</time>
      </trkpt>
      <trkpt lat="45.20637" lon="6.10474">
        <ele>1666.1</ele>
        <time>2022-06-18T09:54:10Z</time>
      </trkpt>
      <trkpt lat="45.20631" lon="6.1046">
        <ele>1665.2</ele>
        <time>2022-06-18T09:54:11Z</time>
      </trkpt>
      <trkpt lat="45.20627" lon="6.10445">
        <ele>1664.5</ele>
        <time>2022-06-18T09:54:12Z</time>
      </trkpt>
      <trkpt lat="45.20623" lon="6.1043">
        <ele>1663.8</ele>
        <time>2022-06-18T09:54:13Z</time>
      </trkpt>
      <trkpt lat="45.20618" lon="6.10415">
        <ele>1663.2</ele>
        <time>2022-06-18T09:54:14Z</time>
      </trkpt>
      <trkpt lat="45.20612" lon="6.10401">
        <ele>1662.7</ele>
        <time>2022-06-18T09:54:15Z</time>
      </trkpt>
      <trkpt lat="45.20606" lon="6.10387">
        <ele>1662.3</ele>
        <time>2022-06-18T09:54:16Z</time>
      </trkpt>
      <trkpt lat="45.206" lon="6.10374">
        <ele>1661.9</ele>
        <time>2022-06-18T09:54:17Z</time>
      </trkpt>
      <trkpt lat="45.20594" lon="6.10361">
        <ele>1661.5</ele>
        <time>2022-06-18T09:54:18Z</time>
      </trkpt>
      <trkpt lat="45.20589" lon="6.10349">
        <ele>1661.2</ele>
        <time>2022-06-18T09:54:19Z</time>
      </trkpt>
      <trkpt lat="45.20587" lon="6.10336">
        <ele>1660.9</ele>
        <time>2022-06-18T09:54:20Z</time>
      </trkpt>
      <trkpt lat="45.20586" lon="6.10324">
        <ele>1660.5</ele>
        <time>2022-06-18T09:54:21Z</time>
      </trkpt>
      <trkpt lat="45.20585" lon="6.10314">
        <ele>1660.3</ele>
        <time>2022-06-18T09:54:22Z</time>
      </trkpt>
      <trkpt lat="45.20582" lon="6.10308">
        <ele>1660.1</ele>
        <time>2022-06-18T09:54:23Z</time>
      </trkpt>
      <trkpt lat="45.20576" lon="6.10307">
        <ele>1659.9</ele>
        <time>2022-06-18T09:54:24Z</time>
      </trkpt>
      <trkpt lat="45.2057" lon="6.10313">
        <ele>1659.6</ele>
        <time>2022-06-18T09:54:25Z</time>
      </trkpt>
      <trkpt lat="45.20565" lon="6.10323">
        <ele>1659.2</ele>
        <time>2022-06-18T09:54:26Z</time>
      </trkpt>
      <trkpt lat="45.20564" lon="6.10335">
        <ele>1658.8</ele>
        <time>2022-06-18T09:54:27Z</time>
      </trkpt>
      <trkpt lat="45.20566" lon="6.10348">
        <ele>1658.3</ele>
        <time>2022-06-18T09:54:28Z</time>
      </trkpt>
      <trkpt lat="45.20572" lon="6.10359">
        <ele>1657.8</ele>
        <time>2022-06-18T09:54:29Z</time>
      </trkpt>
      <trkpt lat="45.2058" lon="6.10368">
        <ele>1657.2</ele>
        <time>2022-06-18T09:54:30Z</time>
      </trkpt>
      <trkpt lat="45.20586" lon="6.10376">
        <ele>1656.6</ele>
        <time>2022-06-18T09:54:31Z</time>
      </trkpt>
      <trkpt lat="45.20593" lon="6.10385">
        <ele>1656</ele>
        <time>2022-06-18T09:54:32Z</time>
      </trkpt>
      <trkpt lat="45.20598" lon="6.10394">
        <ele>1655.4</ele>
        <time>2022-06-18T09:54:33Z</time>
      </trkpt>
      <trkpt lat="45.20603" lon="6.10403">
        <ele>1654.7</ele>
        <time>2022-06-18T09:54:34Z</time>
      </trkpt>
      <trkpt lat="45.20608" lon="6.10413">
        <ele>1654.1</ele>
        <time>2022-06-18T09:54:35Z</time>
      </trkpt>
      <trkpt lat="45.20612" lon="6.10424">
        <ele>1653.3</ele>
        <time>2022-06-18T09:54:36Z</time>
      </trkpt>
      <trkpt lat="45.20615" lon="6.10437">
        <ele>1652.5</ele>
        <time>2022-06-18T09:54:37Z</time>
      </trkpt>
      <trkpt lat="45.20617" lon="6.10451">
        <ele>1651.6</ele>
        <time>2022-06-18T09:54:38Z</time>
      </trkpt>
      <trkpt lat="45.20619" lon="6.10465">
        <ele>1650.6</ele>
        <time>2022-06-18T09:54:39Z</time>
      </trkpt>
      <trkpt lat="45.20621" lon="6.1048">
        <ele>1649.7</ele>
        <time>2022-06-18T09:54:40Z</time>
      </trkpt>
      <trkpt lat="45.20624" lon="6.10496">
        <ele>1648.8</ele>
        <time>2022-06-18T09:54:41Z</time>
      </trkpt>
      <trkpt lat="45.20627" lon="6.10511">
        <ele>1647.8</ele>
        <time>2022-06-18T09:54:42Z</time>
      </trkpt>
      <trkpt lat="45.20632" lon="6.10525">
        <ele>1646.8</ele>
        <time>2022-06-18T09:54:43Z</time>
      </trkpt>
      <trkpt lat="45.20639" lon="6.10539">
        <ele>1645.8</ele>
        <time>2022-06-18T09:54:44Z</time>
      </trkpt>
      <trkpt lat="45.20647" lon="6.10553">
        <ele>1644.7</ele>
        <time>2022-06-18T09:54:45Z</time>
      </trkpt>
      <trkpt lat="45.20653" lon="6.10568">
        <ele>1643.5</ele>
        <time>2022-06-18T09:54:46Z</time>
      </trkpt>
      <trkpt lat="45.20656" lon="6.10585">
        <ele>1642.3</ele>
        <time>2022-06-18T09:54:47Z</time>
      </trkpt>
      <trkpt lat="45.20657" lon="6.10604">
        <ele>1641.1</ele>
        <time>2022-06-18T09:54:48Z</time>
      </trkpt>
      <trkpt lat="45.20656" lon="6.10624">
        <ele>1639.8</ele>
        <time>2022-06-18T09:54:49Z</time>
      </trkpt>
      <trkpt lat="45.20656" lon="6.10643">
        <ele>1638.7</ele>
        <time>2022-06-18T09:54:50Z</time>
      </trkpt>
      <trkpt lat="45.20658" lon="6.10662">
        <ele>1637.5</ele>
        <time>2022-06-18T09:54:51Z</time>
      </trkpt>
      <trkpt lat="45.20662" lon="6.1068">
        <ele>1636.3</ele>
        <time>2022-06-18T09:54:52Z</time>
      </trkpt>
      <trkpt lat="45.20665" lon="6.10698">
        <ele>1635.1</ele>
        <time>2022-06-18T09:54:53Z</time>
      </trkpt>
      <trkpt lat="45.20668" lon="6.10716">
        <ele>1633.9</ele>
        <time>2022-06-18T09:54:54Z</time>
      </trkpt>
      <trkpt lat="45.20672" lon="6.10733">
        <ele>1632.7</ele>
        <time>2022-06-18T09:54:55Z</time>
      </trkpt>
      <trkpt lat="45.20674" lon="6.1075">
        <ele>1631.6</ele>
        <time>2022-06-18T09:54:56Z</time>
      </trkpt>
      <trkpt lat="45.20676" lon="6.10768">
        <ele>1630.6</ele>
        <time>2022-06-18T09:54:57Z</time>
      </trkpt>
      <trkpt lat="45.20677" lon="6.10786">
        <ele>1629.8</ele>
        <time>2022-06-18T09:54:58Z</time>
      </trkpt>
      <trkpt lat="45.20678" lon="6.10803">
        <ele>1629.1</ele>
        <time>2022-06-18T09:54:59Z</time>
      </trkpt>
      <trkpt lat="45.20679" lon="6.10819">
        <ele>1628.6</ele>
        <time>2022-06-18T09:55:00Z</time>
      </trkpt>
      <trkpt lat="45.20683" lon="6.10835">
        <ele>1628.1</ele>
        <time>2022-06-18T09:55:01Z</time>
      </trkpt>
      <trkpt lat="45.20687" lon="6.1085">
        <ele>1627.7</ele>
        <time>2022-06-18T09:55:02Z</time>
      </trkpt>
      <trkpt lat="45.20691" lon="6.10863">
        <ele>1627.4</ele>
        <time>2022-06-18T09:55:03Z</time>
      </trkpt>
      <trkpt lat="45.20695" lon="6.10874">
        <ele>1627.1</ele>
        <time>2022-06-18T09:55:04Z</time>
      </trkpt>
      <trkpt lat="45.20699" lon="6.10883">
        <ele>1626.9</ele>
        <time>2022-06-18T09:55:05Z</time>
      </trkpt>
      <trkpt lat="45.207" lon="6.10891">
        <ele>1626.7</ele>
        <time>2022-06-18T09:55:06Z</time>
      </trkpt>
      <trkpt lat="45.20698" lon="6.10898">
        <ele>1626.6</ele>
        <time>2022-06-18T09:55:07Z</time>
      </trkpt>
      <trkpt lat="45.20692" lon="6.10903">
        <ele>1626.3</ele>
        <time>2022-06-18T09:55:08Z</time>
      </trkpt>
      <trkpt lat="45.20684" lon="6.109">
        <ele>1626</ele>
        <time>2022-06-18T09:55:09Z</time>
      </trkpt>
      <trkpt lat="45.20676" lon="6.10891">
        <ele>1625.5</ele>
        <time>2022-06-18T09:55:10Z</time>
      </trkpt>
      <trkpt lat="45.20672" lon="6.10878">
        <ele>1625</ele>
        <time>2022-06-18T09:55:11Z</time>
      </trkpt>
      <trkpt lat="45.20672" lon="6.10864">
        <ele>1624.5</ele>
        <time>2022-06-18T09:55:12Z</time>
      </trkpt>
      <trkpt lat="45.20673" lon="6.1085">
        <ele>1623.9</ele>
        <time>2022-06-18T09:55:13Z</time>
      </trkpt>
      <trkpt lat="45.20675" lon="6.10836">
        <ele>1623.3</ele>
        <time>2022-06-18T09:55:14Z</time>
      </trkpt>
      <trkpt lat="45.20675" lon="6.10824">
        <ele>1622.7</ele>
        <time>2022-06-18T09:55:15Z</time>
      </trkpt>
      <trkpt lat="45.20674" lon="6.10812">
        <ele>1622.1</ele>
        <time>2022-06-18T09:55:16Z</time>
      </trkpt>
      <trkpt lat="45.20672" lon="6.108">
        <ele>1621.5</ele>
        <time>2022-06-18T09:55:17Z</time>
      </trkpt>
      <trkpt lat="45.20669" lon="6.10789">
        <ele>1620.8</ele>
        <time>2022-06-18T09:55:18Z</time>
      </trkpt>
      <trkpt lat="45.20665" lon="6.10778">
        <ele>1620.1</ele>
        <time>2022-06-18T09:55:19Z</time>
      </trkpt>
      <trkpt lat="45.20661" lon="6.10766">
        <ele>1619.3</ele>
        <time>2022-06-18T09:55:20Z</time>
      </trkpt>
      <trkpt lat="45.20658" lon="6.10754">
        <ele>1618.5</ele>
        <time>2022-06-18T09:55:21Z</time>
      </trkpt>
      <trkpt lat="45.20654" lon="6.10741">
        <ele>1617.6</ele>
        <time>2022-06-18T09:55:22Z</time>
      </trkpt>
      <trkpt lat="45.20649" lon="6.10727">
        <ele>1616.7</ele>
        <time>2022-06-18T09:55:23Z</time>
      </trkpt>
      <trkpt lat="45.20645" lon="6.10713">
        <ele>1615.4</ele>
        <time>2022-06-18T09:55:24Z</time>
      </trkpt>
      <trkpt lat="45.2064" lon="6.10699">
        <ele>1614.1</ele>
        <time>2022-06-18T09:55:25Z</time>
      </trkpt>
      <trkpt lat="45.20634" lon="6.10686">
        <ele>1612.8</ele>
        <time>2022-06-18T09:55:26Z</time>
      </trkpt>
      <trkpt lat="45.20628" lon="6.10672">
        <ele>1611.6</ele>
        <time>2022-06-18T09:55:27Z</time>
      </trkpt>
      <trkpt lat="45.20622" lon="6.10659">
        <ele>1610.2</ele>
        <time>2022-06-18T09:55:28Z</time>
      </trkpt>
      <trkpt lat="45.20615" lon="6.10645">
        <ele>1608.9</ele>
        <time>2022-06-18T09:55:29Z</time>
      </trkpt>
      <trkpt lat="45.20609" lon="6.10631">
        <ele>1607.5</ele>
        <time>2022-06-18T09:55:30Z</time>
      </trkpt>
      <trkpt lat="45.20603" lon="6.10616">
        <ele>1606.1</ele>
        <time>2022-06-18T09:55:31Z</time>
      </trkpt>
      <trkpt lat="45.20597" lon="6.10601">
        <ele>1604.6</ele>
        <time>2022-06-18T09:55:32Z</time>
      </trkpt>
      <trkpt lat="45.20591" lon="6.10585">
        <ele>1603.2</ele>
        <time>2022-06-18T09:55:33Z</time>
      </trkpt>
      <trkpt lat="45.20584" lon="6.1057">
        <ele>1601.8</ele>
        <time>2022-06-18T09:55:34Z</time>
      </trkpt>
      <trkpt lat="45.20578" lon="6.10553">
        <ele>1600.3</ele>
        <time>2022-06-18T09:55:35Z</time>
      </trkpt>
      <trkpt lat="45.20572" lon="6.10537">
        <ele>1598.8</ele>
        <time>2022-06-18T09:55:36Z</time>
      </trkpt>
      <trkpt lat="45.20566" lon="6.1052">
        <ele>1597.2</ele>
        <time>2022-06-18T09:55:37Z</time>
      </trkpt>
      <trkpt lat="45.20561" lon="6.10504">
        <ele>1595.8</ele>
        <time>2022-06-18T09:55:38Z</time>
      </trkpt>
      <trkpt lat="45.20556" lon="6.10488">
        <ele>1594.4</ele>
        <time>2022-06-18T09:55:39Z</time>
      </trkpt>
      <trkpt lat="45.20552" lon="6.10472">
        <ele>1593</ele>
        <time>2022-06-18T09:55:40Z</time>
      </trkpt>
      <trkpt lat="45.20549" lon="6.10456">
        <ele>1591.5</ele>
        <time>2022-06-18T09:55:41Z</time>
      </trkpt>
      <trkpt lat="45.20546" lon="6.10439">
        <ele>1590.1</ele>
        <time>2022-06-18T09:55:42Z</time>
      </trkpt>
      <trkpt lat="45.20543" lon="6.10421">
        <ele>1588.5</ele>
        <time>2022-06-18T09:55:43Z</time>
      </trkpt>
      <trkpt lat="45.20539" lon="6.10404">
        <ele>1587</ele>
        <time>2022-06-18T09:55:44Z</time>
      </trkpt>
      <trkpt lat="45.20535" lon="6.10386">
        <ele>1585.5</ele>
        <time>2022-06-18T09:55:45Z</time>
      </trkpt>
      <trkpt lat="45.2053" lon="6.10369">
        <ele>1584</ele>
        <time>2022-06-18T09:55:46Z</time>
      </trkpt>
      <trkpt lat="45.20524" lon="6.10353">
        <ele>1582.6</ele>
        <time>2022-06-18T09:55:47Z</time>
      </trkpt>
      <trkpt lat="45.20519" lon="6.10337">
        <ele>1581.1</ele>
        <time>2022-06-18T09:55:48Z</time>
      </trkpt>
      <trkpt lat="45.20513" lon="6.10321">
        <ele>1579.5</ele>
        <time>2022-06-18T09:55:49Z</time>
      </trkpt>
      <trkpt lat="45.20506" lon="6.10305">
        <ele>1577.9</ele>
        <time>2022-06-18T09:55:50Z</time>
      </trkpt>
      <trkpt lat="45.205" lon="6.10288">
        <ele>1576.2</ele>
        <time>2022-06-18T09:55:51Z</time>
      </trkpt>
      <trkpt lat="45.20494" lon="6.10271">
        <ele>1574.7</ele>
        <time>2022-06-18T09:55:52Z</time>
      </trkpt>
      <trkpt lat="45.20487" lon="6.10255">
        <ele>1573.1</ele>
        <time>2022-06-18T09:55:53Z</time>
      </trkpt>
      <trkpt lat="45.20479" lon="6.10239">
        <ele>1571.5</ele>
        <time>2022-06-18T09:55:54Z</time>
      </trkpt>
      <trkpt lat="45.20471" lon="6.10223">
        <ele>1569.9</ele>
        <time>2022-06-18T09:55:55Z</time>
      </trkpt>
      <trkpt lat="45.20463" lon="6.10207">
        <ele>1568.4</ele>
        <time>2022-06-18T09:55:56Z</time>
      </trkpt>
      <trkpt lat="45.20457" lon="6.10189">
        <ele>1566.9</ele>
        <time>2022-06-18T09:55:57Z</time>
      </trkpt>
      <trkpt lat="45.20452" lon="6.10171">
        <ele>1565.3</ele>
        <time>2022-06-18T09:55:58Z</time>
      </trkpt>
      <trkpt lat="45.2045" lon="6.10151">
        <ele>1563.7</ele>
        <time>2022-06-18T09:55:59Z</time>
      </trkpt>
      <trkpt lat="45.20449" lon="6.10131">
        <ele>1562</ele>
        <time>2022-06-18T09:56:00Z</time>
      </trkpt>
      <trkpt lat="45.2045" lon="6.10111">
        <ele>1560.4</ele>
        <time>2022-06-18T09:56:01Z</time>
      </trkpt>
      <trkpt lat="45.2045" lon="6.10091">
        <ele>1558.8</ele>
        <time>2022-06-18T09:56:02Z</time>
      </trkpt>
      <trkpt lat="45.20449" lon="6.10072">
        <ele>1557.2</ele>
        <time>2022-06-18T09:56:03Z</time>
      </trkpt>
      <trkpt lat="45.20448" lon="6.10052">
        <ele>1555.6</ele>
        <time>2022-06-18T09:56:04Z</time>
      </trkpt>
      <trkpt lat="45.20447" lon="6.10033">
        <ele>1554</ele>
        <time>2022-06-18T09:56:05Z</time>
      </trkpt>
      <trkpt lat="45.20446" lon="6.10012">
        <ele>1552.4</ele>
        <time>2022-06-18T09:56:06Z</time>
      </trkpt>
      <trkpt lat="45.20444" lon="6.09992">
        <ele>1550.7</ele>
        <time>2022-06-18T09:56:07Z</time>
      </trkpt>
      <trkpt lat="45.20442" lon="6.09972">
        <ele>1549</ele>
        <time>2022-06-18T09:56:08Z</time>
      </trkpt>
      <trkpt lat="45.2044" lon="6.09952">
        <ele>1547.1</ele>
        <time>2022-06-18T09:56:09Z</time>
      </trkpt>
      <trkpt lat="45.20439" lon="6.09932">
        <ele>1545.5</ele>
        <time>2022-06-18T09:56:10Z</time>
      </trkpt>
      <trkpt lat="45.20438" lon="6.09912">
        <ele>1544.1</ele>
        <time>2022-06-18T09:56:11Z</time>
      </trkpt>
      <trkpt lat="45.20437" lon="6.09891">
        <ele>1542.8</ele>
        <time>2022-06-18T09:56:12Z</time>
      </trkpt>
      <trkpt lat="45.20436" lon="6.09872">
        <ele>1541.5</ele>
        <time>2022-06-18T09:56:13Z</time>
      </trkpt>
      <trkpt lat="45.20437" lon="6.09853">
        <ele>1540.2</ele>
        <time>2022-06-18T09:56:14Z</time>
      </trkpt>
      <trkpt lat="45.20439" lon="6.09834">
        <ele>1539</ele>
        <time>2022-06-18T09:56:15Z</time>
      </trkpt>
      <trkpt lat="45.20442" lon="6.09816">
        <ele>1537.7</ele>
        <time>2022-06-18T09:56:16Z</time>
      </trkpt>
      <trkpt lat="45.20446" lon="6.09797">
        <ele>1536.3</ele>
        <time>2022-06-18T09:56:17Z</time>
      </trkpt>
      <trkpt lat="45.20451" lon="6.09778">
        <ele>1534.8</ele>
        <time>2022-06-18T09:56:18Z</time>
      </trkpt>
      <trkpt lat="45.20456" lon="6.0976">
        <ele>1533.3</ele>
        <time>2022-06-18T09:56:19Z</time>
      </trkpt>
      <trkpt lat="45.20461" lon="6.09742">
        <ele>1532</ele>
        <time>2022-06-18T09:56:20Z</time>
      </trkpt>
      <trkpt lat="45.20464" lon="6.09725">
        <ele>1530.8</ele>
        <time>2022-06-18T09:56:21Z</time>
      </trkpt>
      <trkpt lat="45.20464" lon="6.09709">
        <ele>1529.7</ele>
        <time>2022-06-18T09:56:22Z</time>
      </trkpt>
      <trkpt lat="45.20462" lon="6.09692">
        <ele>1528.7</ele>
        <time>2022-06-18T09:56:23Z</time>
      </trkpt>
      <trkpt lat="45.20459" lon="6.09675">
        <ele>1527.5</ele>
        <time>2022-06-18T09:56:24Z</time>
      </trkpt>
      <trkpt lat="45.20457" lon="6.09658">
        <ele>1526.3</ele>
        <time>2022-06-18T09:56:25Z</time>
      </trkpt>
      <trkpt lat="45.20456" lon="6.09641">
        <ele>1525.1</ele>
        <time>2022-06-18T09:56:26Z</time>
      </trkpt>
      <trkpt lat="45.20457" lon="6.09622">
        <ele>1523.8</ele>
        <time>2022-06-18T09:56:27Z</time>
      </trkpt>
      <trkpt lat="45.20459" lon="6.09604">
        <ele>1522.5</ele>
        <time>2022-06-18T09:56:28Z</time>
      </trkpt>
      <trkpt lat="45.20462" lon="6.09584">
        <ele>1521.2</ele>
        <time>2022-06-18T09:56:29Z</time>
      </trkpt>
      <trkpt lat="45.20465" lon="6.09565">
        <ele>1519.8</ele>
        <time>2022-06-18T09:56:30Z</time>
      </trkpt>
      <trkpt lat="45.20468" lon="6.09545">
        <ele>1518.4</ele>
        <time>2022-06-18T09:56:31Z</time>
      </trkpt>
      <trkpt lat="45.2047" lon="6.09524">
        <ele>1517</ele>
        <time>2022-06-18T09:56:32Z</time>
      </trkpt>
      <trkpt lat="45.20473" lon="6.09504">
        <ele>1515.6</ele>
        <time>2022-06-18T09:56:33Z</time>
      </trkpt>
      <trkpt lat="45.20474" lon="6.09484">
        <ele>1514.2</ele>
        <time>2022-06-18T09:56:34Z</time>
      </trkpt>
      <trkpt lat="45.20474" lon="6.09465">
        <ele>1512.9</ele>
        <time>2022-06-18T09:56:35Z</time>
      </trkpt>
      <trkpt lat="45.20474" lon="6.09446">
        <ele>1511.6</ele>
        <time>2022-06-18T09:56:36Z</time>
      </trkpt>
      <trkpt lat="45.20473" lon="6.09428">
        <ele>1510.4</ele>
        <time>2022-06-18T09:56:37Z</time>
      </trkpt>
      <trkpt lat="45.20471" lon="6.0941">
        <ele>1509.2</ele>
        <time>2022-06-18T09:56:38Z</time>
      </trkpt>
      <trkpt lat="45.20468" lon="6.09391">
        <ele>1507.6</ele>
        <time>2022-06-18T09:56:39Z</time>
      </trkpt>
      <trkpt lat="45.20464" lon="6.09372">
        <ele>1505.9</ele>
        <time>2022-06-18T09:56:40Z</time>
      </trkpt>
      <trkpt lat="45.20459" lon="6.09353">
        <ele>1504.3</ele>
        <time>2022-06-18T09:56:41Z</time>
      </trkpt>
      <trkpt lat="45.20454" lon="6.09335">
        <ele>1502.7</ele>
        <time>2022-06-18T09:56:42Z</time>
      </trkpt>
      <trkpt lat="45.20447" lon="6.09317">
        <ele>1501</ele>
        <time>2022-06-18T09:56:43Z</time>
      </trkpt>
      <trkpt lat="45.20441" lon="6.093">
        <ele>1499.4</ele>
        <time>2022-06-18T09:56:44Z</time>
      </trkpt>
      <trkpt lat="45.20434" lon="6.09284">
        <ele>1497.9</ele>
        <time>2022-06-18T09:56:45Z</time>
      </trkpt>
      <trkpt lat="45.2043" lon="6.09267">
        <ele>1496.4</ele>
        <time>2022-06-18T09:56:46Z</time>
      </trkpt>
      <trkpt lat="45.20426" lon="6.09251">
        <ele>1495.1</ele>
        <time>2022-06-18T09:56:47Z</time>
      </trkpt>
      <trkpt lat="45.20422" lon="6.09234">
        <ele>1493.8</ele>
        <time>2022-06-18T09:56:48Z</time>
      </trkpt>
      <trkpt lat="45.20419" lon="6.09217">
        <ele>1492.5</ele>
        <time>2022-06-18T09:56:49Z</time>
      </trkpt>
      <trkpt lat="45.20415" lon="6.09199">
        <ele>1491.2</ele>
        <time>2022-06-18T09:56:50Z</time>
      </trkpt>
      <trkpt lat="45.20411" lon="6.0918">
        <ele>1489.8</ele>
        <time>2022-06-18T09:56:51Z</time>
      </trkpt>
      <trkpt lat="45.20409" lon="6.09162">
        <ele>1488.5</ele>
        <time>2022-06-18T09:56:52Z</time>
      </trkpt>
      <trkpt lat="45.20407" lon="6.09144">
        <ele>1487.2</ele>
        <time>2022-06-18T09:56:53Z</time>
      </trkpt>
      <trkpt lat="45.20404" lon="6.09127">
        <ele>1486.1</ele>
        <time>2022-06-18T09:56:54Z</time>
      </trkpt>
      <trkpt lat="45.20401" lon="6.09111">
        <ele>1485</ele>
        <time>2022-06-18T09:56:55Z</time>
      </trkpt>
      <trkpt lat="45.20395" lon="6.09097">
        <ele>1483.9</ele>
        <time>2022-06-18T09:56:56Z</time>
      </trkpt>
      <trkpt lat="45.20388" lon="6.09084">
        <ele>1482.8</ele>
        <time>2022-06-18T09:56:57Z</time>
      </trkpt>
      <trkpt lat="45.20381" lon="6.09071">
        <ele>1481.6</ele>
        <time>2022-06-18T09:56:58Z</time>
      </trkpt>
      <trkpt lat="45.20375" lon="6.09057">
        <ele>1480.4</ele>
        <time>2022-06-18T09:56:59Z</time>
      </trkpt>
      <trkpt lat="45.20373" lon="6.0904">
        <ele>1479.3</ele>
        <time>2022-06-18T09:57:00Z</time>
      </trkpt>
      <trkpt lat="45.20373" lon="6.09022">
        <ele>1477.9</ele>
        <time>2022-06-18T09:57:01Z</time>
      </trkpt>
      <trkpt lat="45.20375" lon="6.09004">
        <ele>1476.5</ele>
        <time>2022-06-18T09:57:02Z</time>
      </trkpt>
      <trkpt lat="45.2038" lon="6.08986">
        <ele>1475.5</ele>
        <time>2022-06-18T09:57:03Z</time>
      </trkpt>
      <trkpt lat="45.20384" lon="6.08969">
        <ele>1474.7</ele>
        <time>2022-06-18T09:57:04Z</time>
      </trkpt>
      <trkpt lat="45.20386" lon="6.08953">
        <ele>1474</ele>
        <time>2022-06-18T09:57:05Z</time>
      </trkpt>
      <trkpt lat="45.20384" lon="6.08936">
        <ele>1473.4</ele>
        <time>2022-06-18T09:57:06Z</time>
      </trkpt>
      <trkpt lat="45.20381" lon="6.08921">
        <ele>1472.8</ele>
        <time>2022-06-18T09:57:07Z</time>
      </trkpt>
      <trkpt lat="45.20375" lon="6.08906">
        <ele>1472.2</ele>
        <time>2022-06-18T09:57:08Z</time>
      </trkpt>
      <trkpt lat="45.20369" lon="6.08892">
        <ele>1471.7</ele>
        <time>2022-06-18T09:57:09Z</time>
      </trkpt>
      <trkpt lat="45.20364" lon="6.08877">
        <ele>1471.1</ele>
        <time>2022-06-18T09:57:10Z</time>
      </trkpt>
      <trkpt lat="45.20359" lon="6.08862">
        <ele>1470.6</ele>
        <time>2022-06-18T09:57:11Z</time>
      </trkpt>
      <trkpt lat="45.20355" lon="6.08849">
        <ele>1470.1</ele>
        <time>2022-06-18T09:57:12Z</time>
      </trkpt>
      <trkpt lat="45.2035" lon="6.08837">
        <ele>1469.5</ele>
        <time>2022-06-18T09:57:13Z</time>
      </trkpt>
      <trkpt lat="45.20344" lon="6.08824">
        <ele>1468.6</ele>
        <time>2022-06-18T09:57:14Z</time>
      </trkpt>
      <trkpt lat="45.20338" lon="6.08811">
        <ele>1467.6</ele>
        <time>2022-06-18T09:57:15Z</time>
      </trkpt>
      <trkpt lat="45.20332" lon="6.08798">
        <ele>1466.5</ele>
        <time>2022-06-18T09:57:16Z</time>
      </trkpt>
      <trkpt lat="45.20325" lon="6.08786">
        <ele>1465.5</ele>
        <time>2022-06-18T09:57:17Z</time>
      </trkpt>
      <trkpt lat="45.20316" lon="6.08773">
        <ele>1464.4</ele>
        <time>2022-06-18T09:57:18Z</time>
      </trkpt>
      <trkpt lat="45.20308" lon="6.08761">
        <ele>1463.3</ele>
        <time>2022-06-18T09:57:19Z</time>
      </trkpt>
      <trkpt lat="45.20299" lon="6.0875">
        <ele>1462.2</ele>
        <time>2022-06-18T09:57:20Z</time>
      </trkpt>
      <trkpt lat="45.2029" lon="6.08739">
        <ele>1461.1</ele>
        <time>2022-06-18T09:57:21Z</time>
      </trkpt>
      <trkpt lat="45.20277" lon="6.0873">
        <ele>1459.8</ele>
        <time>2022-06-18T09:57:22Z</time>
      </trkpt>
      <trkpt lat="45.20266" lon="6.08722">
        <ele>1458.6</ele>
        <time>2022-06-18T09:57:23Z</time>
      </trkpt>
      <trkpt lat="45.20257" lon="6.08712">
        <ele>1457.4</ele>
        <time>2022-06-18T09:57:24Z</time>
      </trkpt>
      <trkpt lat="45.20247" lon="6.08703">
        <ele>1456.4</ele>
        <time>2022-06-18T09:57:25Z</time>
      </trkpt>
      <trkpt lat="45.20238" lon="6.08694">
        <ele>1455.3</ele>
        <time>2022-06-18T09:57:26Z</time>
      </trkpt>
      <trkpt lat="45.20228" lon="6.08684">
        <ele>1454.2</ele>
        <time>2022-06-18T09:57:27Z</time>
      </trkpt>
      <trkpt lat="45.20218" lon="6.08674">
        <ele>1453.1</ele>
        <time>2022-06-18T09:57:28Z</time>
      </trkpt>
      <trkpt lat="45.20215" lon="6.08659">
        <ele>1452.3</ele>
        <time>2022-06-18T09:57:29Z</time>
      </trkpt>
      <trkpt lat="45.20208" lon="6.08646">
        <ele>1451.9</ele>
        <time>2022-06-18T09:57:30Z</time>
      </trkpt>
      <trkpt lat="45.202" lon="6.08636">
        <ele>1451.5</ele>
        <time>2022-06-18T09:57:31Z</time>
      </trkpt>
      <trkpt lat="45.20191" lon="6.08625">
        <ele>1451</ele>
        <time>2022-06-18T09:57:32Z</time>
      </trkpt>
      <trkpt lat="45.20184" lon="6.08613">
        <ele>1450.5</ele>
        <time>2022-06-18T09:57:33Z</time>
      </trkpt>
      <trkpt lat="45.20176" lon="6.08601">
        <ele>1450</ele>
        <time>2022-06-18T09:57:34Z</time>
      </trkpt>
      <trkpt lat="45.20169" lon="6.08589">
        <ele>1449.5</ele>
        <time>2022-06-18T09:57:35Z</time>
      </trkpt>
      <trkpt lat="45.20162" lon="6.08575">
        <ele>1448.9</ele>
        <time>2022-06-18T09:57:36Z</time>
      </trkpt>
      <trkpt lat="45.20155" lon="6.08562">
        <ele>1448.1</ele>
        <time>2022-06-18T09:57:37Z</time>
      </trkpt>
      <trkpt lat="45.20147" lon="6.08549">
        <ele>1447.3</ele>
        <time>2022-06-18T09:57:38Z</time>
      </trkpt>
      <trkpt lat="45.2014" lon="6.08536">
        <ele>1446.4</ele>
        <time>2022-06-18T09:57:39Z</time>
      </trkpt>
      <trkpt lat="45.20134" lon="6.08523">
        <ele>1445.5</ele>
        <time>2022-06-18T09:57:40Z</time>
      </trkpt>
      <trkpt lat="45.20128" lon="6.08508">
        <ele>1444.5</ele>
        <time>2022-06-18T09:57:41Z</time>
      </trkpt>
      <trkpt lat="45.20123" lon="6.08493">
        <ele>1443.5</ele>
        <time>2022-06-18T09:57:42Z</time>
      </trkpt>
      <trkpt lat="45.20118" lon="6.08476">
        <ele>1442.4</ele>
        <time>2022-06-18T09:57:43Z</time>
      </trkpt>
      <trkpt lat="45.20113" lon="6.0846">
        <ele>1441.4</ele>
        <time>2022-06-18T09:57:44Z</time>
      </trkpt>
      <trkpt lat="45.20108" lon="6.08445">
        <ele>1440.5</ele>
        <time>2022-06-18T09:57:45Z</time>
      </trkpt>
      <trkpt lat="45.20107" lon="6.08432">
        <ele>1439.8</ele>
        <time>2022-06-18T09:57:46Z</time>
      </trkpt>
      <trkpt lat="45.20108" lon="6.0842">
        <ele>1439.1</ele>
        <time>2022-06-18T09:57:47Z</time>
      </trkpt>
      <trkpt lat="45.20109" lon="6.08408">
        <ele>1438.3</ele>
        <time>2022-06-18T09:57:48Z</time>
      </trkpt>
      <trkpt lat="45.20111" lon="6.08394">
        <ele>1437.5</ele>
        <time>2022-06-18T09:57:49Z</time>
      </trkpt>
      <trkpt lat="45.20113" lon="6.0838">
        <ele>1436.7</ele>
        <time>2022-06-18T09:57:50Z</time>
      </trkpt>
      <trkpt lat="45.20116" lon="6.08366">
        <ele>1435.8</ele>
        <time>2022-06-18T09:57:51Z</time>
      </trkpt>
      <trkpt lat="45.20121" lon="6.08353">
        <ele>1434.8</ele>
        <time>2022-06-18T09:57:52Z</time>
      </trkpt>
      <trkpt lat="45.20127" lon="6.08339">
        <ele>1433.9</ele>
        <time>2022-06-18T09:57:53Z</time>
      </trkpt>
      <trkpt lat="45.20131" lon="6.08324">
        <ele>1432.9</ele>
        <time>2022-06-18T09:57:54Z</time>
      </trkpt>
      <trkpt lat="45.20133" lon="6.08308">
        <ele>1431.9</ele>
        <time>2022-06-18T09:57:55Z</time>
      </trkpt>
      <trkpt lat="45.20133" lon="6.0829">
        <ele>1430.9</ele>
        <time>2022-06-18T09:57:56Z</time>
      </trkpt>
      <trkpt lat="45.20132" lon="6.08273">
        <ele>1429.9</ele>
        <time>2022-06-18T09:57:57Z</time>
      </trkpt>
      <trkpt lat="45.20131" lon="6.08256">
        <ele>1428.9</ele>
        <time>2022-06-18T09:57:58Z</time>
      </trkpt>
      <trkpt lat="45.20129" lon="6.0824">
        <ele>1428</ele>
        <time>2022-06-18T09:57:59Z</time>
      </trkpt>
      <trkpt lat="45.20127" lon="6.08225">
        <ele>1427.2</ele>
        <time>2022-06-18T09:58:00Z</time>
      </trkpt>
      <trkpt lat="45.20125" lon="6.08211">
        <ele>1426.4</ele>
        <time>2022-06-18T09:58:01Z</time>
      </trkpt>
      <trkpt lat="45.20123" lon="6.082">
        <ele>1425.8</ele>
        <time>2022-06-18T09:58:02Z</time>
      </trkpt>
      <trkpt lat="45.20122" lon="6.0819">
        <ele>1425.2</ele>
        <time>2022-06-18T09:58:03Z</time>
      </trkpt>
      <trkpt lat="45.20121" lon="6.08181">
        <ele>1424.6</ele>
        <time>2022-06-18T09:58:04Z</time>
      </trkpt>
      <trkpt lat="45.20121" lon="6.08176">
        <ele>1424.4</ele>
        <time>2022-06-18T09:58:05Z</time>
      </trkpt>
      <trkpt lat="45.20121" lon="6.08173">
        <ele>1424.2</ele>
        <time>2022-06-18T09:58:06Z</time>
      </trkpt>
      <trkpt lat="45.20121" lon="6.08172">
        <ele>1424.3</ele>
        <time>2022-06-18T09:58:07Z</time>
      </trkpt>
      <trkpt lat="45.20121" lon="6.08172">
        <ele>1424.3</ele>
        <time>2022-06-18T09:58:08Z</time>
      </trkpt>
      <trkpt lat="45.20121" lon="6.08171">
        <ele>1424.3</ele>
        <time>2022-06-18T09:58:09Z</time>
      </trkpt>
      <trkpt lat="45.20122" lon="6.08169">
        <ele>1424.4</ele>
        <time>2022-06-18T09:58:10Z</time>
      </trkpt>
      <trkpt lat="45.20122" lon="6.08166">
        <ele>1424.5</ele>
        <time>2022-06-18T09:58:11Z</time>
      </trkpt>
      <trkpt lat="45.20122" lon="6.08162">
        <ele>1424.6</ele>
        <time>2022-06-18T09:58:12Z</time>
      </trkpt>
      <trkpt lat="45.20122" lon="6.08161">
        <ele>1424.6</ele>
        <time>2022-06-18T09:58:13Z</time>
      </trkpt>
      <trkpt lat="45.20121" lon="6.08158">
        <ele>1424.7</ele>
        <time>2022-06-18T09:58:14Z</time>
      </trkpt>
      <trkpt lat="45.20121" lon="6.08157">
        <ele>1424.7</ele>
        <time>2022-06-18T09:58:15Z</time>
      </trkpt>
      <trkpt lat="45.20119" lon="6.08157">
        <ele>1424.8</ele>
        <time>2022-06-18T09:58:16Z</time>
      </trkpt>
      <trkpt lat="45.20117" lon="6.08158">
        <ele>1424.9</ele>
        <time>2022-06-18T09:58:17Z</time>
      </trkpt>
      <trkpt lat="45.20117" lon="6.08159">
        <ele>1424.9</ele>
        <time>2022-06-18T09:58:18Z</time>
      </trkpt>
      <trkpt lat="45.20117" lon="6.08159">
        <ele>1424.9</ele>
        <time>2022-06-18T09:58:19Z</time>
      </trkpt>
      <trkpt lat="45.20117" lon="6.0816">
        <ele>1424.9</ele>
        <time>2022-06-18T09:58:20Z</time>
      </trkpt>
      <trkpt lat="45.20117" lon="6.0816">
        <ele>1424.9</ele>
        <time>2022-06-18T09:58:21Z</time>
      </trkpt>
      <trkpt lat="45.20118" lon="6.08159">
        <ele>1424.9</ele>
        <time>2022-06-18T09:58:22Z</time>
      </trkpt>
      <trkpt lat="45.20117" lon="6.08159">
        <ele>1425</ele>
        <time>2022-06-18T09:58:23Z</time>
      </trkpt>
      <trkpt lat="45.20117" lon="6.08159">
        <ele>1425</ele>
        <time>2022-06-18T09:58:24Z</time>
      </trkpt>
      <trkpt lat="45.20117" lon="6.08159">
        <ele>1425</ele>
        <time>2022-06-18T09:58:25Z</time>
      </trkpt>
      <trkpt lat="45.20117" lon="6.08159">
        <ele>1425</ele>
        <time>2022-06-18T09:58:26Z</time>
      </trkpt>
      <trkpt lat="45.20117" lon="6.08159">
        <ele>1425</ele>
        <time>2022-06-18T09:58:27Z</time>
      </trkpt>
      <trkpt lat="45.20117" lon="6.08159">
        <ele>1425</ele>
        <time>2022-06-18T09:58:28Z</time>
      </trkpt>
      <trkpt lat="45.20117" lon="6.08159">
        <ele>1425</ele>
        <time>2022-06-18T09:58:29Z</time>
      </trkpt>
      <trkpt lat="45.20117" lon="6.08159">
        <ele>1425</ele>
        <time>2022-06-18T09:58:30Z</time>
      </trkpt>
      <trkpt lat="45.20117" lon="6.0816">
        <ele>1425</ele>
        <time>2022-06-18T09:58:31Z</time>
      </trkpt>
      <trkpt lat="45.20117" lon="6.08159">
        <ele>1425</ele>
        <time>2022-06-18T09:58:32Z</time>
      </trkpt>
      <trkpt lat="45.20117" lon="6.08159">
        <ele>1425</ele>
        <time>2022-06-18T09:58:33Z</time>
      </trkpt>
      <trkpt lat="45.20117" lon="6.08162">
        <ele>1425.1</ele>
        <time>2022-06-18T09:58:47Z</time>
      </trkpt>
      <trkpt lat="45.20117" lon="6.08167">
        <ele>1425.2</ele>
        <time>2022-06-18T09:58:48Z</time>
      </trkpt>
      <trkpt lat="45.20118" lon="6.0817">
        <ele>1425.3</ele>
        <time>2022-06-18T09:58:49Z</time>
      </trkpt>
      <trkpt lat="45.2012" lon="6.08178">
        <ele>1425.5</ele>
        <time>2022-06-18T09:58:51Z</time>
      </trkpt>
      <trkpt lat="45.20122" lon="6.08183">
        <ele>1425.7</ele>
        <time>2022-06-18T09:58:53Z</time>
      </trkpt>
      <trkpt lat="45.20123" lon="6.08187">
        <ele>1425.8</ele>
        <time>2022-06-18T09:58:54Z</time>
      </trkpt>
      <trkpt lat="45.20124" lon="6.08191">
        <ele>1425.9</ele>
        <time>2022-06-18T09:58:55Z</time>
      </trkpt>
      <trkpt lat="45.20124" lon="6.08196">
        <ele>1426</ele>
        <time>2022-06-18T09:58:56Z</time>
      </trkpt>
      <trkpt lat="45.20125" lon="6.082">
        <ele>1426.1</ele>
        <time>2022-06-18T09:58:57Z</time>
      </trkpt>
      <trkpt lat="45.20125" lon="6.08205">
        <ele>1426.3</ele>
        <time>2022-06-18T09:58:58Z</time>
      </trkpt>
      <trkpt lat="45.20127" lon="6.0821">
        <ele>1426.4</ele>
        <time>2022-06-18T09:59:00Z</time>
      </trkpt>
      <trkpt lat="45.20128" lon="6.08215">
        <ele>1426.6</ele>
        <time>2022-06-18T09:59:01Z</time>
      </trkpt>
      <trkpt lat="45.20129" lon="6.08221">
        <ele>1426.7</ele>
        <time>2022-06-18T09:59:02Z</time>
      </trkpt>
      <trkpt lat="45.2013" lon="6.08226">
        <ele>1426.9</ele>
        <time>2022-06-18T09:59:03Z</time>
      </trkpt>
      <trkpt lat="45.20131" lon="6.08231">
        <ele>1427</ele>
        <time>2022-06-18T09:59:04Z</time>
      </trkpt>
      <trkpt lat="45.20131" lon="6.08232">
        <ele>1427</ele>
        <time>2022-06-18T09:59:05Z</time>
      </trkpt>
      <trkpt lat="45.20131" lon="6.08234">
        <ele>1427.1</ele>
        <time>2022-06-18T09:59:06Z</time>
      </trkpt>
      <trkpt lat="45.20131" lon="6.08234">
        <ele>1427.1</ele>
        <time>2022-06-18T09:59:07Z</time>
      </trkpt>
      <trkpt lat="45.20131" lon="6.08233">
        <ele>1427.1</ele>
        <time>2022-06-18T09:59:08Z</time>
      </trkpt>
      <trkpt lat="45.20131" lon="6.08233">
        <ele>1427.1</ele>
        <time>2022-06-18T09:59:09Z</time>
      </trkpt>
      <trkpt lat="45.20131" lon="6.08232">
        <ele>1427.2</ele>
        <time>2022-06-18T09:59:10Z</time>
      </trkpt>
      <trkpt lat="45.20131" lon="6.08231">
        <ele>1427.2</ele>
        <time>2022-06-18T09:59:11Z</time>
      </trkpt>
      <trkpt lat="45.20131" lon="6.08231">
        <ele>1427.2</ele>
        <time>2022-06-18T09:59:13Z</time>
      </trkpt>
      <trkpt lat="45.20131" lon="6.0823">
        <ele>1427.2</ele>
        <time>2022-06-18T09:59:14Z</time>
      </trkpt>
      <trkpt lat="45.2013" lon="6.08229">
        <ele>1427.2</ele>
        <time>2022-06-18T09:59:16Z</time>
      </trkpt>
      <trkpt lat="45.2013" lon="6.08229">
        <ele>1427.2</ele>
        <time>2022-06-18T09:59:17Z</time>
      </trkpt>
      <trkpt lat="45.2013" lon="6.08228">
        <ele>1427.3</ele>
        <time>2022-06-18T09:59:18Z</time>
      </trkpt>
      <trkpt lat="45.2013" lon="6.08227">
        <ele>1427.3</ele>
        <time>2022-06-18T09:59:19Z</time>
      </trkpt>
      <trkpt lat="45.20126" lon="6.0821">
        <ele>1426.3</ele>
        <time>2022-06-18T09:59:20Z</time>
      </trkpt>
      <trkpt lat="45.20125" lon="6.08201">
        <ele>1425.8</ele>
        <time>2022-06-18T09:59:21Z</time>
      </trkpt>
      <trkpt lat="45.20124" lon="6.08194">
        <ele>1425.4</ele>
        <time>2022-06-18T09:59:22Z</time>
      </trkpt>
      <trkpt lat="45.20123" lon="6.08186">
        <ele>1425</ele>
        <time>2022-06-18T09:59:23Z</time>
      </trkpt>
      <trkpt lat="45.20122" lon="6.08179">
        <ele>1424.6</ele>
        <time>2022-06-18T09:59:24Z</time>
      </trkpt>
      <trkpt lat="45.20121" lon="6.08172">
        <ele>1424.3</ele>
        <time>2022-06-18T09:59:25Z</time>
      </trkpt>
      <trkpt lat="45.2012" lon="6.08165">
        <ele>1423.9</ele>
        <time>2022-06-18T09:59:26Z</time>
      </trkpt>
      <trkpt lat="45.20122" lon="6.08162">
        <ele>1423.7</ele>
        <time>2022-06-18T09:59:27Z</time>
      </trkpt>
      <trkpt lat="45.2012" lon="6.08155">
        <ele>1423.3</ele>
        <time>2022-06-18T09:59:29Z</time>
      </trkpt>
      <trkpt lat="45.20119" lon="6.08153">
        <ele>1423.1</ele>
        <time>2022-06-18T09:59:30Z</time>
      </trkpt>
      <trkpt lat="45.20117" lon="6.08152">
        <ele>1423</ele>
        <time>2022-06-18T09:59:31Z</time>
      </trkpt>
      <trkpt lat="45.20117" lon="6.08152">
        <ele>1423</ele>
        <time>2022-06-18T09:59:32Z</time>
      </trkpt>
      <trkpt lat="45.20116" lon="6.08153">
        <ele>1422.9</ele>
        <time>2022-06-18T09:59:33Z</time>
      </trkpt>
      <trkpt lat="45.20117" lon="6.08153">
        <ele>1422.9</ele>
        <time>2022-06-18T09:59:34Z</time>
      </trkpt>
      <trkpt lat="45.20117" lon="6.08153">
        <ele>1422.9</ele>
        <time>2022-06-18T09:59:35Z</time>
      </trkpt>
      <trkpt lat="45.20117" lon="6.08153">
        <ele>1422.9</ele>
        <time>2022-06-18T09:59:36Z</time>
      </trkpt>
      <trkpt lat="45.20116" lon="6.08154">
        <ele>1422.8</ele>
        <time>2022-06-18T09:59:37Z</time>
      </trkpt>
      <trkpt lat="45.20116" lon="6.08154">
        <ele>1422.8</ele>
        <time>2022-06-18T09:59:39Z</time>
      </trkpt>
      <trkpt lat="45.20116" lon="6.08155">
        <ele>1422.8</ele>
        <time>2022-06-18T09:59:40Z</time>
      </trkpt>
      <trkpt lat="45.20116" lon="6.08155">
        <ele>1422.7</ele>
        <time>2022-06-18T09:59:41Z</time>
      </trkpt>
      <trkpt lat="45.20116" lon="6.08156">
        <ele>1422.7</ele>
        <time>2022-06-18T09:59:42Z</time>
      </trkpt>
      <trkpt lat="45.20116" lon="6.08156">
        <ele>1422.7</ele>
        <time>2022-06-18T09:59:43Z</time>
      </trkpt>
      <trkpt lat="45.20117" lon="6.08153">
        <ele>1422.5</ele>
        <time>2022-06-18T10:11:03Z</time>
      </trkpt>
      <trkpt lat="45.20117" lon="6.08157">
        <ele>1422.3</ele>
        <time>2022-06-18T10:11:04Z</time>
      </trkpt>
      <trkpt lat="45.20117" lon="6.08158">
        <ele>1422.3</ele>
        <time>2022-06-18T10:11:05Z</time>
      </trkpt>
      <trkpt lat="45.20118" lon="6.08145">
        <ele>1421.6</ele>
        <time>2022-06-18T10:11:06Z</time>
      </trkpt>
      <trkpt lat="45.20119" lon="6.08128">
        <ele>1420.8</ele>
        <time>2022-06-18T10:11:07Z</time>
      </trkpt>
      <trkpt lat="45.2012" lon="6.08112">
        <ele>1420</ele>
        <time>2022-06-18T10:11:08Z</time>
      </trkpt>
      <trkpt lat="45.20121" lon="6.08098">
        <ele>1419.2</ele>
        <time>2022-06-18T10:11:09Z</time>
      </trkpt>
      <trkpt lat="45.20122" lon="6.08084">
        <ele>1418.5</ele>
        <time>2022-06-18T10:11:10Z</time>
      </trkpt>
      <trkpt lat="45.20124" lon="6.08071">
        <ele>1417.8</ele>
        <time>2022-06-18T10:11:11Z</time>
      </trkpt>
      <trkpt lat="45.20126" lon="6.08057">
        <ele>1416.9</ele>
        <time>2022-06-18T10:11:12Z</time>
      </trkpt>
      <trkpt lat="45.20129" lon="6.08043">
        <ele>1416.1</ele>
        <time>2022-06-18T10:11:13Z</time>
      </trkpt>
      <trkpt lat="45.20131" lon="6.08029">
        <ele>1415.3</ele>
        <time>2022-06-18T10:11:14Z</time>
      </trkpt>
      <trkpt lat="45.20134" lon="6.08014">
        <ele>1414.4</ele>
        <time>2022-06-18T10:11:15Z</time>
      </trkpt>
      <trkpt lat="45.20137" lon="6.07999">
        <ele>1413.6</ele>
        <time>2022-06-18T10:11:16Z</time>
      </trkpt>
      <trkpt lat="45.20139" lon="6.07984">
        <ele>1412.9</ele>
        <time>2022-06-18T10:11:17Z</time>
      </trkpt>
      <trkpt lat="45.2014" lon="6.07967">
        <ele>1412.1</ele>
        <time>2022-06-18T10:11:18Z</time>
      </trkpt>
      <trkpt lat="45.2014" lon="6.07949">
        <ele>1411.2</ele>
        <time>2022-06-18T10:11:19Z</time>
      </trkpt>
      <trkpt lat="45.20141" lon="6.07931">
        <ele>1410.3</ele>
        <time>2022-06-18T10:11:20Z</time>
      </trkpt>
      <trkpt lat="45.20141" lon="6.07914">
        <ele>1409.4</ele>
        <time>2022-06-18T10:11:21Z</time>
      </trkpt>
      <trkpt lat="45.20142" lon="6.07898">
        <ele>1408.5</ele>
        <time>2022-06-18T10:11:22Z</time>
      </trkpt>
      <trkpt lat="45.20143" lon="6.07884">
        <ele>1407.7</ele>
        <time>2022-06-18T10:11:23Z</time>
      </trkpt>
      <trkpt lat="45.20145" lon="6.07872">
        <ele>1407</ele>
        <time>2022-06-18T10:11:24Z</time>
      </trkpt>
      <trkpt lat="45.2015" lon="6.07861">
        <ele>1406.3</ele>
        <time>2022-06-18T10:11:25Z</time>
      </trkpt>
      <trkpt lat="45.20157" lon="6.07853">
        <ele>1405.6</ele>
        <time>2022-06-18T10:11:26Z</time>
      </trkpt>
      <trkpt lat="45.20165" lon="6.07846">
        <ele>1404.8</ele>
        <time>2022-06-18T10:11:27Z</time>
      </trkpt>
      <trkpt lat="45.20174" lon="6.0784">
        <ele>1403.9</ele>
        <time>2022-06-18T10:11:28Z</time>
      </trkpt>
      <trkpt lat="45.20184" lon="6.07834">
        <ele>1403</ele>
        <time>2022-06-18T10:11:29Z</time>
      </trkpt>
      <trkpt lat="45.20194" lon="6.07827">
        <ele>1402.1</ele>
        <time>2022-06-18T10:11:30Z</time>
      </trkpt>
      <trkpt lat="45.20203" lon="6.07819">
        <ele>1401.2</ele>
        <time>2022-06-18T10:11:31Z</time>
      </trkpt>
      <trkpt lat="45.20212" lon="6.0781">
        <ele>1400.3</ele>
        <time>2022-06-18T10:11:32Z</time>
      </trkpt>
      <trkpt lat="45.20221" lon="6.078">
        <ele>1399.4</ele>
        <time>2022-06-18T10:11:33Z</time>
      </trkpt>
      <trkpt lat="45.2023" lon="6.07791">
        <ele>1398.4</ele>
        <time>2022-06-18T10:11:34Z</time>
      </trkpt>
      <trkpt lat="45.20239" lon="6.0778">
        <ele>1397.3</ele>
        <time>2022-06-18T10:11:35Z</time>
      </trkpt>
      <trkpt lat="45.20248" lon="6.07769">
        <ele>1396.3</ele>
        <time>2022-06-18T10:11:36Z</time>
      </trkpt>
      <trkpt lat="45.20258" lon="6.07758">
        <ele>1395.2</ele>
        <time>2022-06-18T10:11:37Z</time>
      </trkpt>
      <trkpt lat="45.20268" lon="6.07747">
        <ele>1394.2</ele>
        <time>2022-06-18T10:11:38Z</time>
      </trkpt>
      <trkpt lat="45.20278" lon="6.07735">
        <ele>1393.2</ele>
        <time>2022-06-18T10:11:39Z</time>
      </trkpt>
      <trkpt lat="45.20288" lon="6.07724">
        <ele>1392.1</ele>
        <time>2022-06-18T10:11:40Z</time>
      </trkpt>
      <trkpt lat="45.20299" lon="6.07712">
        <ele>1391</ele>
        <time>2022-06-18T10:11:41Z</time>
      </trkpt>
      <trkpt lat="45.20309" lon="6.07701">
        <ele>1389.9</ele>
        <time>2022-06-18T10:11:42Z</time>
      </trkpt>
      <trkpt lat="45.20319" lon="6.07689">
        <ele>1388.8</ele>
        <time>2022-06-18T10:11:43Z</time>
      </trkpt>
      <trkpt lat="45.20329" lon="6.07678">
        <ele>1387.6</ele>
        <time>2022-06-18T10:11:44Z</time>
      </trkpt>
      <trkpt lat="45.20338" lon="6.07666">
        <ele>1386.3</ele>
        <time>2022-06-18T10:11:45Z</time>
      </trkpt>
      <trkpt lat="45.20346" lon="6.07656">
        <ele>1385.1</ele>
        <time>2022-06-18T10:11:46Z</time>
      </trkpt>
      <trkpt lat="45.20354" lon="6.07648">
        <ele>1384.2</ele>
        <time>2022-06-18T10:11:47Z</time>
      </trkpt>
      <trkpt lat="45.20361" lon="6.07641">
        <ele>1383.5</ele>
        <time>2022-06-18T10:11:48Z</time>
      </trkpt>
      <trkpt lat="45.20366" lon="6.07635">
        <ele>1382.9</ele>
        <time>2022-06-18T10:11:49Z</time>
      </trkpt>
      <trkpt lat="45.2037" lon="6.07628">
        <ele>1382.5</ele>
        <time>2022-06-18T10:11:50Z</time>
      </trkpt>
      <trkpt lat="45.20371" lon="6.07622">
        <ele>1382.1</ele>
        <time>2022-06-18T10:11:51Z</time>
      </trkpt>
      <trkpt lat="45.20368" lon="6.07615">
        <ele>1380.8</ele>
        <time>2022-06-18T10:11:52Z</time>
      </trkpt>
      <trkpt lat="45.20361" lon="6.07611">
        <ele>1379.8</ele>
        <time>2022-06-18T10:11:53Z</time>
      </trkpt>
      <trkpt lat="45.20353" lon="6.07611">
        <ele>1378.7</ele>
        <time>2022-06-18T10:11:54Z</time>
      </trkpt>
      <trkpt lat="45.20344" lon="6.07615">
        <ele>1377.5</ele>
        <time>2022-06-18T10:11:55Z</time>
      </trkpt>
      <trkpt lat="45.20337" lon="6.07621">
        <ele>1376.3</ele>
        <time>2022-06-18T10:11:56Z</time>
      </trkpt>
      <trkpt lat="45.2033" lon="6.07629">
        <ele>1375.1</ele>
        <time>2022-06-18T10:11:57Z</time>
      </trkpt>
      <trkpt lat="45.20322" lon="6.07637">
        <ele>1373.8</ele>
        <time>2022-06-18T10:11:58Z</time>
      </trkpt>
      <trkpt lat="45.20314" lon="6.07645">
        <ele>1372.6</ele>
        <time>2022-06-18T10:11:59Z</time>
      </trkpt>
      <trkpt lat="45.20306" lon="6.07652">
        <ele>1371.3</ele>
        <time>2022-06-18T10:12:00Z</time>
      </trkpt>
      <trkpt lat="45.20296" lon="6.07659">
        <ele>1369.8</ele>
        <time>2022-06-18T10:12:01Z</time>
      </trkpt>
      <trkpt lat="45.20286" lon="6.07666">
        <ele>1368.3</ele>
        <time>2022-06-18T10:12:02Z</time>
      </trkpt>
      <trkpt lat="45.20275" lon="6.07672">
        <ele>1366.7</ele>
        <time>2022-06-18T10:12:03Z</time>
      </trkpt>
      <trkpt lat="45.20263" lon="6.07678">
        <ele>1364.9</ele>
        <time>2022-06-18T10:12:04Z</time>
      </trkpt>
      <trkpt lat="45.2025" lon="6.07684">
        <ele>1363.1</ele>
        <time>2022-06-18T10:12:05Z</time>
      </trkpt>
      <trkpt lat="45.20238" lon="6.0769">
        <ele>1361.3</ele>
        <time>2022-06-18T10:12:06Z</time>
      </trkpt>
      <trkpt lat="45.20227" lon="6.07694">
        <ele>1359.7</ele>
        <time>2022-06-18T10:12:07Z</time>
      </trkpt>
      <trkpt lat="45.20218" lon="6.07697">
        <ele>1358.3</ele>
        <time>2022-06-18T10:12:08Z</time>
      </trkpt>
      <trkpt lat="45.20208" lon="6.07696">
        <ele>1357</ele>
        <time>2022-06-18T10:12:09Z</time>
      </trkpt>
      <trkpt lat="45.202" lon="6.07693">
        <ele>1355.9</ele>
        <time>2022-06-18T10:12:10Z</time>
      </trkpt>
      <trkpt lat="45.20192" lon="6.07687">
        <ele>1354.8</ele>
        <time>2022-06-18T10:12:11Z</time>
      </trkpt>
      <trkpt lat="45.20184" lon="6.0768">
        <ele>1353.9</ele>
        <time>2022-06-18T10:12:12Z</time>
      </trkpt>
      <trkpt lat="45.20179" lon="6.07672">
        <ele>1353</ele>
        <time>2022-06-18T10:12:13Z</time>
      </trkpt>
      <trkpt lat="45.20174" lon="6.07665">
        <ele>1352.2</ele>
        <time>2022-06-18T10:12:14Z</time>
      </trkpt>
      <trkpt lat="45.2017" lon="6.07659">
        <ele>1351.5</ele>
        <time>2022-06-18T10:12:15Z</time>
      </trkpt>
      <trkpt lat="45.20168" lon="6.07652">
        <ele>1350.8</ele>
        <time>2022-06-18T10:12:16Z</time>
      </trkpt>
      <trkpt lat="45.2017" lon="6.07644">
        <ele>1350.1</ele>
        <time>2022-06-18T10:12:17Z</time>
      </trkpt>
      <trkpt lat="45.20175" lon="6.07639">
        <ele>1349.2</ele>
        <time>2022-06-18T10:12:18Z</time>
      </trkpt>
      <trkpt lat="45.20183" lon="6.07637">
        <ele>1348.1</ele>
        <time>2022-06-18T10:12:19Z</time>
      </trkpt>
      <trkpt lat="45.20191" lon="6.0764">
        <ele>1346.9</ele>
        <time>2022-06-18T10:12:20Z</time>
      </trkpt>
      <trkpt lat="45.202" lon="6.07644">
        <ele>1345.5</ele>
        <time>2022-06-18T10:12:21Z</time>
      </trkpt>
      <trkpt lat="45.2021" lon="6.07648">
        <ele>1344.1</ele>
        <time>2022-06-18T10:12:22Z</time>
      </trkpt>
      <trkpt lat="45.20219" lon="6.0765">
        <ele>1342.8</ele>
        <time>2022-06-18T10:12:23Z</time>
      </trkpt>
      <trkpt lat="45.20229" lon="6.07647">
        <ele>1341.4</ele>
        <time>2022-06-18T10:12:24Z</time>
      </trkpt>
      <trkpt lat="45.20238" lon="6.07639">
        <ele>1340</ele>
        <time>2022-06-18T10:12:25Z</time>
      </trkpt>
      <trkpt lat="45.20246" lon="6.07627">
        <ele>1338.5</ele>
        <time>2022-06-18T10:12:26Z</time>
      </trkpt>
      <trkpt lat="45.20253" lon="6.07612">
        <ele>1336.8</ele>
        <time>2022-06-18T10:12:27Z</time>
      </trkpt>
      <trkpt lat="45.20258" lon="6.07596">
        <ele>1335</ele>
        <time>2022-06-18T10:12:28Z</time>
      </trkpt>
      <trkpt lat="45.20264" lon="6.0758">
        <ele>1333.3</ele>
        <time>2022-06-18T10:12:29Z</time>
      </trkpt>
      <trkpt lat="45.2027" lon="6.07566">
        <ele>1331.6</ele>
        <time>2022-06-18T10:12:30Z</time>
      </trkpt>
      <trkpt lat="45.20278" lon="6.07553">
        <ele>1329.9</ele>
        <time>2022-06-18T10:12:31Z</time>
      </trkpt>
      <trkpt lat="45.20288" lon="6.07543">
        <ele>1328.2</ele>
        <time>2022-06-18T10:12:32Z</time>
      </trkpt>
      <trkpt lat="45.20298" lon="6.07535">
        <ele>1326.4</ele>
        <time>2022-06-18T10:12:33Z</time>
      </trkpt>
      <trkpt lat="45.20309" lon="6.07525">
        <ele>1324.5</ele>
        <time>2022-06-18T10:12:34Z</time>
      </trkpt>
      <trkpt lat="45.2032" lon="6.07515">
        <ele>1322.6</ele>
        <time>2022-06-18T10:12:35Z</time>
      </trkpt>
      <trkpt lat="45.2033" lon="6.07505">
        <ele>1320.7</ele>
        <time>2022-06-18T10:12:36Z</time>
      </trkpt>
      <trkpt lat="45.2034" lon="6.07495">
        <ele>1319</ele>
        <time>2022-06-18T10:12:37Z</time>
      </trkpt>
      <trkpt lat="45.20348" lon="6.07485">
        <ele>1317.5</ele>
        <time>2022-06-18T10:12:38Z</time>
      </trkpt>
      <trkpt lat="45.20355" lon="6.07475">
        <ele>1316.1</ele>
        <time>2022-06-18T10:12:39Z</time>
      </trkpt>
      <trkpt lat="45.2036" lon="6.07465">
        <ele>1314.8</ele>
        <time>2022-06-18T10:12:40Z</time>
      </trkpt>
      <trkpt lat="45.20363" lon="6.07452">
        <ele>1313.5</ele>
        <time>2022-06-18T10:12:41Z</time>
      </trkpt>
      <trkpt lat="45.20365" lon="6.07437">
        <ele>1312.9</ele>
        <time>2022-06-18T10:12:42Z</time>
      </trkpt>
      <trkpt lat="45.20366" lon="6.07423">
        <ele>1311.9</ele>
        <time>2022-06-18T10:12:43Z</time>
      </trkpt>
      <trkpt lat="45.20368" lon="6.07409">
        <ele>1311</ele>
        <time>2022-06-18T10:12:44Z</time>
      </trkpt>
      <trkpt lat="45.20373" lon="6.07395">
        <ele>1309.9</ele>
        <time>2022-06-18T10:12:45Z</time>
      </trkpt>
      <trkpt lat="45.2038" lon="6.07382">
        <ele>1308.6</ele>
        <time>2022-06-18T10:12:46Z</time>
      </trkpt>
      <trkpt lat="45.20389" lon="6.0737">
        <ele>1307.1</ele>
        <time>2022-06-18T10:12:47Z</time>
      </trkpt>
      <trkpt lat="45.20398" lon="6.0736">
        <ele>1305.6</ele>
        <time>2022-06-18T10:12:48Z</time>
      </trkpt>
      <trkpt lat="45.20406" lon="6.07349">
        <ele>1304</ele>
        <time>2022-06-18T10:12:49Z</time>
      </trkpt>
      <trkpt lat="45.20413" lon="6.07339">
        <ele>1302.4</ele>
        <time>2022-06-18T10:12:50Z</time>
      </trkpt>
      <trkpt lat="45.20418" lon="6.07329">
        <ele>1301.3</ele>
        <time>2022-06-18T10:12:51Z</time>
      </trkpt>
      <trkpt lat="45.20422" lon="6.07318">
        <ele>1300.6</ele>
        <time>2022-06-18T10:12:52Z</time>
      </trkpt>
      <trkpt lat="45.20423" lon="6.07308">
        <ele>1300.3</ele>
        <time>2022-06-18T10:12:53Z</time>
      </trkpt>
      <trkpt lat="45.20421" lon="6.07298">
        <ele>1300.1</ele>
        <time>2022-06-18T10:12:54Z</time>
      </trkpt>
      <trkpt lat="45.20416" lon="6.07289">
        <ele>1299.8</ele>
        <time>2022-06-18T10:12:55Z</time>
      </trkpt>
      <trkpt lat="45.20411" lon="6.07279">
        <ele>1299.6</ele>
        <time>2022-06-18T10:12:56Z</time>
      </trkpt>
      <trkpt lat="45.20405" lon="6.0727">
        <ele>1299.9</ele>
        <time>2022-06-18T10:12:57Z</time>
      </trkpt>
      <trkpt lat="45.20401" lon="6.07264">
        <ele>1300.1</ele>
        <time>2022-06-18T10:12:58Z</time>
      </trkpt>
      <trkpt lat="45.20397" lon="6.07258">
        <ele>1300.4</ele>
        <time>2022-06-18T10:12:59Z</time>
      </trkpt>
      <trkpt lat="45.20395" lon="6.07254">
        <ele>1300.6</ele>
        <time>2022-06-18T10:13:00Z</time>
      </trkpt>
      <trkpt lat="45.20394" lon="6.07252">
        <ele>1300.7</ele>
        <time>2022-06-18T10:13:01Z</time>
      </trkpt>
      <trkpt lat="45.20393" lon="6.07252">
        <ele>1300.7</ele>
        <time>2022-06-18T10:13:02Z</time>
      </trkpt>
      <trkpt lat="45.20393" lon="6.07252">
        <ele>1300.7</ele>
        <time>2022-06-18T10:13:03Z</time>
      </trkpt>
      <trkpt lat="45.20394" lon="6.07252">
        <ele>1300.8</ele>
        <time>2022-06-18T10:13:04Z</time>
      </trkpt>
      <trkpt lat="45.20396" lon="6.07252">
        <ele>1300.9</ele>
        <time>2022-06-18T10:13:05Z</time>
      </trkpt>
      <trkpt lat="45.20397" lon="6.07252">
        <ele>1301</ele>
        <time>2022-06-18T10:13:06Z</time>
      </trkpt>
      <trkpt lat="45.20398" lon="6.07252">
        <ele>1301</ele>
        <time>2022-06-18T10:13:07Z</time>
      </trkpt>
      <trkpt lat="45.20398" lon="6.07251">
        <ele>1301</ele>
        <time>2022-06-18T10:13:08Z</time>
      </trkpt>
      <trkpt lat="45.20398" lon="6.07252">
        <ele>1301</ele>
        <time>2022-06-18T10:13:09Z</time>
      </trkpt>
      <trkpt lat="45.20399" lon="6.07252">
        <ele>1301.1</ele>
        <time>2022-06-18T10:13:10Z</time>
      </trkpt>
      <trkpt lat="45.20407" lon="6.07248">
        <ele>1301.6</ele>
        <time>2022-06-18T10:13:12Z</time>
      </trkpt>
      <trkpt lat="45.20415" lon="6.07244">
        <ele>1302.1</ele>
        <time>2022-06-18T10:13:13Z</time>
      </trkpt>
      <trkpt lat="45.20424" lon="6.0724">
        <ele>1302.6</ele>
        <time>2022-06-18T10:13:14Z</time>
      </trkpt>
      <trkpt lat="45.20432" lon="6.07236">
        <ele>1303.1</ele>
        <time>2022-06-18T10:13:15Z</time>
      </trkpt>
      <trkpt lat="45.2044" lon="6.07231">
        <ele>1303.6</ele>
        <time>2022-06-18T10:13:17Z</time>
      </trkpt>
      <trkpt lat="45.20448" lon="6.07227">
        <ele>1304.1</ele>
        <time>2022-06-18T10:16:24Z</time>
      </trkpt>
      <trkpt lat="45.20456" lon="6.07223">
        <ele>1304.5</ele>
        <time>2022-06-18T10:16:25Z</time>
      </trkpt>
      <trkpt lat="45.20464" lon="6.07218">
        <ele>1304.9</ele>
        <time>2022-06-18T10:16:26Z</time>
      </trkpt>
      <trkpt lat="45.20469" lon="6.07208">
        <ele>1305.3</ele>
        <time>2022-06-18T10:16:28Z</time>
      </trkpt>
      <trkpt lat="45.20471" lon="6.07198">
        <ele>1305.7</ele>
        <time>2022-06-18T10:16:29Z</time>
      </trkpt>
      <trkpt lat="45.20473" lon="6.07185">
        <ele>1306.1</ele>
        <time>2022-06-18T10:16:31Z</time>
      </trkpt>
      <trkpt lat="45.20475" lon="6.07174">
        <ele>1306.5</ele>
        <time>2022-06-18T10:16:32Z</time>
      </trkpt>
      <trkpt lat="45.20476" lon="6.07165">
        <ele>1306.8</ele>
        <time>2022-06-18T10:16:33Z</time>
      </trkpt>
      <trkpt lat="45.20476" lon="6.07159">
        <ele>1306.9</ele>
        <time>2022-06-18T10:16:34Z</time>
      </trkpt>
      <trkpt lat="45.20477" lon="6.07152">
        <ele>1307.1</ele>
        <time>2022-06-18T10:16:35Z</time>
      </trkpt>
      <trkpt lat="45.20478" lon="6.07145">
        <ele>1307.2</ele>
        <time>2022-06-18T10:16:36Z</time>
      </trkpt>
      <trkpt lat="45.20479" lon="6.07139">
        <ele>1307.4</ele>
        <time>2022-06-18T10:16:37Z</time>
      </trkpt>
      <trkpt lat="45.20482" lon="6.07132">
        <ele>1307.5</ele>
        <time>2022-06-18T10:16:38Z</time>
      </trkpt>
      <trkpt lat="45.20484" lon="6.07126">
        <ele>1307.6</ele>
        <time>2022-06-18T10:16:39Z</time>
      </trkpt>
      <trkpt lat="45.20487" lon="6.0712">
        <ele>1307.6</ele>
        <time>2022-06-18T10:16:40Z</time>
      </trkpt>
      <trkpt lat="45.2049" lon="6.07115">
        <ele>1307.6</ele>
        <time>2022-06-18T10:16:41Z</time>
      </trkpt>
      <trkpt lat="45.20493" lon="6.07109">
        <ele>1307.6</ele>
        <time>2022-06-18T10:16:42Z</time>
      </trkpt>
      <trkpt lat="45.20494" lon="6.07106">
        <ele>1307.6</ele>
        <time>2022-06-18T10:16:43Z</time>
      </trkpt>
      <trkpt lat="45.20496" lon="6.071">
        <ele>1307.5</ele>
        <time>2022-06-18T10:16:44Z</time>
      </trkpt>
      <trkpt lat="45.20499" lon="6.07093">
        <ele>1307.4</ele>
        <time>2022-06-18T10:16:45Z</time>
      </trkpt>
      <trkpt lat="45.20501" lon="6.07086">
        <ele>1307.3</ele>
        <time>2022-06-18T10:16:46Z</time>
      </trkpt>
      <trkpt lat="45.20504" lon="6.07079">
        <ele>1307.2</ele>
        <time>2022-06-18T10:16:47Z</time>
      </trkpt>
      <trkpt lat="45.20506" lon="6.07072">
        <ele>1307.1</ele>
        <time>2022-06-18T10:16:48Z</time>
      </trkpt>
      <trkpt lat="45.20509" lon="6.07065">
        <ele>1306.9</ele>
        <time>2022-06-18T10:16:49Z</time>
      </trkpt>
      <trkpt lat="45.20512" lon="6.07058">
        <ele>1306.7</ele>
        <time>2022-06-18T10:16:50Z</time>
      </trkpt>
      <trkpt lat="45.20515" lon="6.0705">
        <ele>1306.4</ele>
        <time>2022-06-18T10:16:51Z</time>
      </trkpt>
      <trkpt lat="45.20518" lon="6.07042">
        <ele>1306.2</ele>
        <time>2022-06-18T10:16:52Z</time>
      </trkpt>
      <trkpt lat="45.20521" lon="6.07034">
        <ele>1305.9</ele>
        <time>2022-06-18T10:16:53Z</time>
      </trkpt>
      <trkpt lat="45.20524" lon="6.07026">
        <ele>1305.6</ele>
        <time>2022-06-18T10:16:54Z</time>
      </trkpt>
      <trkpt lat="45.20527" lon="6.07016">
        <ele>1305.3</ele>
        <time>2022-06-18T10:16:55Z</time>
      </trkpt>
      <trkpt lat="45.2053" lon="6.07007">
        <ele>1305</ele>
        <time>2022-06-18T10:16:56Z</time>
      </trkpt>
      <trkpt lat="45.20533" lon="6.06998">
        <ele>1304.6</ele>
        <time>2022-06-18T10:16:57Z</time>
      </trkpt>
      <trkpt lat="45.20537" lon="6.06988">
        <ele>1304.2</ele>
        <time>2022-06-18T10:16:58Z</time>
      </trkpt>
      <trkpt lat="45.2054" lon="6.06978">
        <ele>1303.8</ele>
        <time>2022-06-18T10:16:59Z</time>
      </trkpt>
      <trkpt lat="45.20544" lon="6.06968">
        <ele>1303.4</ele>
        <time>2022-06-18T10:17:00Z</time>
      </trkpt>
      <trkpt lat="45.20548" lon="6.06957">
        <ele>1302.9</ele>
        <time>2022-06-18T10:17:01Z</time>
      </trkpt>
      <trkpt lat="45.20552" lon="6.06946">
        <ele>1302.3</ele>
        <time>2022-06-18T10:17:02Z</time>
      </trkpt>
      <trkpt lat="45.20557" lon="6.06935">
        <ele>1301.7</ele>
        <time>2022-06-18T10:17:03Z</time>
      </trkpt>
      <trkpt lat="45.20561" lon="6.06924">
        <ele>1301</ele>
        <time>2022-06-18T10:17:04Z</time>
      </trkpt>
      <trkpt lat="45.20565" lon="6.06911">
        <ele>1300.2</ele>
        <time>2022-06-18T10:17:05Z</time>
      </trkpt>
      <trkpt lat="45.2057" lon="6.06899">
        <ele>1299.2</ele>
        <time>2022-06-18T10:17:06Z</time>
      </trkpt>
      <trkpt lat="45.20574" lon="6.06886">
        <ele>1297.9</ele>
        <time>2022-06-18T10:17:07Z</time>
      </trkpt>
      <trkpt lat="45.20578" lon="6.06872">
        <ele>1296.5</ele>
        <time>2022-06-18T10:17:08Z</time>
      </trkpt>
      <trkpt lat="45.20582" lon="6.06856">
        <ele>1295</ele>
        <time>2022-06-18T10:17:09Z</time>
      </trkpt>
      <trkpt lat="45.20584" lon="6.0684">
        <ele>1293.7</ele>
        <time>2022-06-18T10:17:10Z</time>
      </trkpt>
      <trkpt lat="45.20586" lon="6.06825">
        <ele>1292.4</ele>
        <time>2022-06-18T10:17:11Z</time>
      </trkpt>
      <trkpt lat="45.2059" lon="6.0681">
        <ele>1291.2</ele>
        <time>2022-06-18T10:17:12Z</time>
      </trkpt>
      <trkpt lat="45.20595" lon="6.06795">
        <ele>1290</ele>
        <time>2022-06-18T10:17:13Z</time>
      </trkpt>
      <trkpt lat="45.20602" lon="6.06781">
        <ele>1288.7</ele>
        <time>2022-06-18T10:17:14Z</time>
      </trkpt>
      <trkpt lat="45.20611" lon="6.06767">
        <ele>1287.3</ele>
        <time>2022-06-18T10:17:15Z</time>
      </trkpt>
      <trkpt lat="45.20619" lon="6.06752">
        <ele>1285.9</ele>
        <time>2022-06-18T10:17:16Z</time>
      </trkpt>
      <trkpt lat="45.20628" lon="6.06737">
        <ele>1284.5</ele>
        <time>2022-06-18T10:17:17Z</time>
      </trkpt>
      <trkpt lat="45.20637" lon="6.06721">
        <ele>1283.1</ele>
        <time>2022-06-18T10:17:18Z</time>
      </trkpt>
      <trkpt lat="45.20646" lon="6.06705">
        <ele>1281.8</ele>
        <time>2022-06-18T10:17:19Z</time>
      </trkpt>
      <trkpt lat="45.20654" lon="6.06689">
        <ele>1280.6</ele>
        <time>2022-06-18T10:17:20Z</time>
      </trkpt>
      <trkpt lat="45.20661" lon="6.06672">
        <ele>1279.3</ele>
        <time>2022-06-18T10:17:21Z</time>
      </trkpt>
      <trkpt lat="45.20669" lon="6.06656">
        <ele>1278.1</ele>
        <time>2022-06-18T10:17:22Z</time>
      </trkpt>
      <trkpt lat="45.20677" lon="6.0664">
        <ele>1276.9</ele>
        <time>2022-06-18T10:17:23Z</time>
      </trkpt>
      <trkpt lat="45.20685" lon="6.06625">
        <ele>1275.7</ele>
        <time>2022-06-18T10:17:24Z</time>
      </trkpt>
      <trkpt lat="45.20694" lon="6.0661">
        <ele>1274.3</ele>
        <time>2022-06-18T10:17:25Z</time>
      </trkpt>
      <trkpt lat="45.20704" lon="6.06596">
        <ele>1272.9</ele>
        <time>2022-06-18T10:17:26Z</time>
      </trkpt>
      <trkpt lat="45.20713" lon="6.06582">
        <ele>1271.3</ele>
        <time>2022-06-18T10:17:27Z</time>
      </trkpt>
      <trkpt lat="45.20722" lon="6.06569">
        <ele>1269.9</ele>
        <time>2022-06-18T10:17:28Z</time>
      </trkpt>
      <trkpt lat="45.20729" lon="6.06557">
        <ele>1268.4</ele>
        <time>2022-06-18T10:17:29Z</time>
      </trkpt>
      <trkpt lat="45.20736" lon="6.06543">
        <ele>1267.1</ele>
        <time>2022-06-18T10:17:30Z</time>
      </trkpt>
      <trkpt lat="45.2074" lon="6.06528">
        <ele>1265.7</ele>
        <time>2022-06-18T10:17:31Z</time>
      </trkpt>
      <trkpt lat="45.20743" lon="6.06514">
        <ele>1264.5</ele>
        <time>2022-06-18T10:17:32Z</time>
      </trkpt>
      <trkpt lat="45.20748" lon="6.06501">
        <ele>1263.2</ele>
        <time>2022-06-18T10:17:33Z</time>
      </trkpt>
      <trkpt lat="45.20754" lon="6.06489">
        <ele>1262</ele>
        <time>2022-06-18T10:17:34Z</time>
      </trkpt>
      <trkpt lat="45.20761" lon="6.06478">
        <ele>1260.6</ele>
        <time>2022-06-18T10:17:35Z</time>
      </trkpt>
      <trkpt lat="45.20768" lon="6.06466">
        <ele>1259.2</ele>
        <time>2022-06-18T10:17:36Z</time>
      </trkpt>
      <trkpt lat="45.20774" lon="6.06452">
        <ele>1257.5</ele>
        <time>2022-06-18T10:17:37Z</time>
      </trkpt>
      <trkpt lat="45.2078" lon="6.06436">
        <ele>1255.6</ele>
        <time>2022-06-18T10:17:38Z</time>
      </trkpt>
      <trkpt lat="45.20785" lon="6.06418">
        <ele>1253.7</ele>
        <time>2022-06-18T10:17:39Z</time>
      </trkpt>
      <trkpt lat="45.2079" lon="6.06401">
        <ele>1251.9</ele>
        <time>2022-06-18T10:17:40Z</time>
      </trkpt>
      <trkpt lat="45.20793" lon="6.06385">
        <ele>1250.2</ele>
        <time>2022-06-18T10:17:41Z</time>
      </trkpt>
      <trkpt lat="45.20795" lon="6.06368">
        <ele>1248.5</ele>
        <time>2022-06-18T10:17:42Z</time>
      </trkpt>
      <trkpt lat="45.20795" lon="6.0635">
        <ele>1246.7</ele>
        <time>2022-06-18T10:17:43Z</time>
      </trkpt>
      <trkpt lat="45.20795" lon="6.0633">
        <ele>1244.9</ele>
        <time>2022-06-18T10:17:44Z</time>
      </trkpt>
      <trkpt lat="45.20796" lon="6.06311">
        <ele>1243.1</ele>
        <time>2022-06-18T10:17:45Z</time>
      </trkpt>
      <trkpt lat="45.20797" lon="6.06292">
        <ele>1241.3</ele>
        <time>2022-06-18T10:17:46Z</time>
      </trkpt>
      <trkpt lat="45.20799" lon="6.06272">
        <ele>1239.5</ele>
        <time>2022-06-18T10:17:47Z</time>
      </trkpt>
      <trkpt lat="45.20801" lon="6.06251">
        <ele>1237.5</ele>
        <time>2022-06-18T10:17:48Z</time>
      </trkpt>
      <trkpt lat="45.20804" lon="6.06229">
        <ele>1235.6</ele>
        <time>2022-06-18T10:17:49Z</time>
      </trkpt>
      <trkpt lat="45.20807" lon="6.06209">
        <ele>1233.8</ele>
        <time>2022-06-18T10:17:50Z</time>
      </trkpt>
      <trkpt lat="45.2081" lon="6.06189">
        <ele>1232.1</ele>
        <time>2022-06-18T10:17:51Z</time>
      </trkpt>
      <trkpt lat="45.20813" lon="6.0617">
        <ele>1230.5</ele>
        <time>2022-06-18T10:17:52Z</time>
      </trkpt>
      <trkpt lat="45.20816" lon="6.06151">
        <ele>1228.8</ele>
        <time>2022-06-18T10:17:53Z</time>
      </trkpt>
      <trkpt lat="45.2082" lon="6.06131">
        <ele>1227.2</ele>
        <time>2022-06-18T10:17:54Z</time>
      </trkpt>
      <trkpt lat="45.20824" lon="6.06111">
        <ele>1225.4</ele>
        <time>2022-06-18T10:17:55Z</time>
      </trkpt>
      <trkpt lat="45.20828" lon="6.0609">
        <ele>1223.5</ele>
        <time>2022-06-18T10:17:56Z</time>
      </trkpt>
      <trkpt lat="45.20832" lon="6.06071">
        <ele>1221.6</ele>
        <time>2022-06-18T10:17:57Z</time>
      </trkpt>
      <trkpt lat="45.20837" lon="6.06052">
        <ele>1219.8</ele>
        <time>2022-06-18T10:17:58Z</time>
      </trkpt>
      <trkpt lat="45.20841" lon="6.06034">
        <ele>1218</ele>
        <time>2022-06-18T10:17:59Z</time>
      </trkpt>
      <trkpt lat="45.20845" lon="6.06016">
        <ele>1216.3</ele>
        <time>2022-06-18T10:18:00Z</time>
      </trkpt>
      <trkpt lat="45.20848" lon="6.05997">
        <ele>1214.5</ele>
        <time>2022-06-18T10:18:01Z</time>
      </trkpt>
      <trkpt lat="45.20851" lon="6.05978">
        <ele>1212.6</ele>
        <time>2022-06-18T10:18:02Z</time>
      </trkpt>
      <trkpt lat="45.20853" lon="6.05959">
        <ele>1210.7</ele>
        <time>2022-06-18T10:18:03Z</time>
      </trkpt>
      <trkpt lat="45.20856" lon="6.05939">
        <ele>1208.9</ele>
        <time>2022-06-18T10:18:04Z</time>
      </trkpt>
      <trkpt lat="45.20858" lon="6.05919">
        <ele>1207.1</ele>
        <time>2022-06-18T10:18:05Z</time>
      </trkpt>
      <trkpt lat="45.2086" lon="6.05901">
        <ele>1205.4</ele>
        <time>2022-06-18T10:18:06Z</time>
      </trkpt>
      <trkpt lat="45.20862" lon="6.05883">
        <ele>1203.5</ele>
        <time>2022-06-18T10:18:07Z</time>
      </trkpt>
      <trkpt lat="45.20864" lon="6.05866">
        <ele>1201.5</ele>
        <time>2022-06-18T10:18:08Z</time>
      </trkpt>
      <trkpt lat="45.20867" lon="6.05849">
        <ele>1199.1</ele>
        <time>2022-06-18T10:18:09Z</time>
      </trkpt>
      <trkpt lat="45.2087" lon="6.05833">
        <ele>1196.3</ele>
        <time>2022-06-18T10:18:10Z</time>
      </trkpt>
      <trkpt lat="45.20874" lon="6.05818">
        <ele>1193.6</ele>
        <time>2022-06-18T10:18:11Z</time>
      </trkpt>
      <trkpt lat="45.20878" lon="6.05803">
        <ele>1191.7</ele>
        <time>2022-06-18T10:18:12Z</time>
      </trkpt>
      <trkpt lat="45.20883" lon="6.0579">
        <ele>1190.5</ele>
        <time>2022-06-18T10:18:13Z</time>
      </trkpt>
      <trkpt lat="45.20888" lon="6.05779">
        <ele>1189.6</ele>
        <time>2022-06-18T10:18:14Z</time>
      </trkpt>
      <trkpt lat="45.20896" lon="6.0577">
        <ele>1189.1</ele>
        <time>2022-06-18T10:18:15Z</time>
      </trkpt>
      <trkpt lat="45.20907" lon="6.05764">
        <ele>1189.1</ele>
        <time>2022-06-18T10:18:16Z</time>
      </trkpt>
      <trkpt lat="45.20918" lon="6.05759">
        <ele>1189.3</ele>
        <time>2022-06-18T10:18:17Z</time>
      </trkpt>
      <trkpt lat="45.20926" lon="6.05752">
        <ele>1189.6</ele>
        <time>2022-06-18T10:18:18Z</time>
      </trkpt>
      <trkpt lat="45.20933" lon="6.05742">
        <ele>1189.8</ele>
        <time>2022-06-18T10:18:19Z</time>
      </trkpt>
      <trkpt lat="45.20937" lon="6.0573">
        <ele>1190.1</ele>
        <time>2022-06-18T10:18:20Z</time>
      </trkpt>
      <trkpt lat="45.20939" lon="6.05715">
        <ele>1190.4</ele>
        <time>2022-06-18T10:18:21Z</time>
      </trkpt>
      <trkpt lat="45.20939" lon="6.057">
        <ele>1190.8</ele>
        <time>2022-06-18T10:18:22Z</time>
      </trkpt>
      <trkpt lat="45.20939" lon="6.05686">
        <ele>1191.3</ele>
        <time>2022-06-18T10:18:23Z</time>
      </trkpt>
      <trkpt lat="45.20939" lon="6.05673">
        <ele>1191.8</ele>
        <time>2022-06-18T10:18:24Z</time>
      </trkpt>
      <trkpt lat="45.2094" lon="6.05661">
        <ele>1192.4</ele>
        <time>2022-06-18T10:18:25Z</time>
      </trkpt>
      <trkpt lat="45.20941" lon="6.0565">
        <ele>1193</ele>
        <time>2022-06-18T10:18:26Z</time>
      </trkpt>
      <trkpt lat="45.20942" lon="6.0564">
        <ele>1193.7</ele>
        <time>2022-06-18T10:18:27Z</time>
      </trkpt>
      <trkpt lat="45.20943" lon="6.05631">
        <ele>1194.3</ele>
        <time>2022-06-18T10:18:28Z</time>
      </trkpt>
      <trkpt lat="45.20945" lon="6.05622">
        <ele>1195</ele>
        <time>2022-06-18T10:18:29Z</time>
      </trkpt>
      <trkpt lat="45.20946" lon="6.05614">
        <ele>1195.7</ele>
        <time>2022-06-18T10:18:30Z</time>
      </trkpt>
      <trkpt lat="45.20947" lon="6.05606">
        <ele>1196.5</ele>
        <time>2022-06-18T10:18:31Z</time>
      </trkpt>
      <trkpt lat="45.20948" lon="6.056">
        <ele>1197.1</ele>
        <time>2022-06-18T10:18:32Z</time>
      </trkpt>
      <trkpt lat="45.20949" lon="6.05593">
        <ele>1197.8</ele>
        <time>2022-06-18T10:18:33Z</time>
      </trkpt>
      <trkpt lat="45.20949" lon="6.05591">
        <ele>1198.1</ele>
        <time>2022-06-18T10:18:34Z</time>
      </trkpt>
      <trkpt lat="45.20949" lon="6.05585">
        <ele>1198.7</ele>
        <time>2022-06-18T10:18:35Z</time>
      </trkpt>
      <trkpt lat="45.2095" lon="6.05582">
        <ele>1199</ele>
        <time>2022-06-18T10:18:36Z</time>
      </trkpt>
      <trkpt lat="45.2095" lon="6.05577">
        <ele>1199.6</ele>
        <time>2022-06-18T10:18:37Z</time>
      </trkpt>
      <trkpt lat="45.2095" lon="6.05575">
        <ele>1199.8</ele>
        <time>2022-06-18T10:18:38Z</time>
      </trkpt>
      <trkpt lat="45.20951" lon="6.05569">
        <ele>1200.5</ele>
        <time>2022-06-18T10:18:39Z</time>
      </trkpt>
      <trkpt lat="45.20952" lon="6.05567">
        <ele>1200.7</ele>
        <time>2022-06-18T10:18:40Z</time>
      </trkpt>
      <trkpt lat="45.20953" lon="6.05563">
        <ele>1201.2</ele>
        <time>2022-06-18T10:18:41Z</time>
      </trkpt>
      <trkpt lat="45.20954" lon="6.05559">
        <ele>1201.7</ele>
        <time>2022-06-18T10:18:42Z</time>
      </trkpt>
      <trkpt lat="45.20955" lon="6.05557">
        <ele>1202</ele>
        <time>2022-06-18T10:18:43Z</time>
      </trkpt>
      <trkpt lat="45.20956" lon="6.05553">
        <ele>1202.6</ele>
        <time>2022-06-18T10:18:44Z</time>
      </trkpt>
      <trkpt lat="45.20957" lon="6.05551">
        <ele>1202.8</ele>
        <time>2022-06-18T10:18:45Z</time>
      </trkpt>
      <trkpt lat="45.20958" lon="6.05548">
        <ele>1203.2</ele>
        <time>2022-06-18T10:18:46Z</time>
      </trkpt>
      <trkpt lat="45.20959" lon="6.05547">
        <ele>1203.4</ele>
        <time>2022-06-18T10:18:47Z</time>
      </trkpt>
      <trkpt lat="45.2096" lon="6.05542">
        <ele>1204.1</ele>
        <time>2022-06-18T10:18:48Z</time>
      </trkpt>
      <trkpt lat="45.20961" lon="6.0554">
        <ele>1204.3</ele>
        <time>2022-06-18T10:18:49Z</time>
      </trkpt>
      <trkpt lat="45.20962" lon="6.05536">
        <ele>1204.9</ele>
        <time>2022-06-18T10:18:50Z</time>
      </trkpt>
      <trkpt lat="45.20963" lon="6.05535">
        <ele>1205.2</ele>
        <time>2022-06-18T10:18:51Z</time>
      </trkpt>
      <trkpt lat="45.20965" lon="6.0553">
        <ele>1205.8</ele>
        <time>2022-06-18T10:18:52Z</time>
      </trkpt>
      <trkpt lat="45.20966" lon="6.05529">
        <ele>1206.1</ele>
        <time>2022-06-18T10:18:53Z</time>
      </trkpt>
      <trkpt lat="45.20967" lon="6.05525">
        <ele>1206.7</ele>
        <time>2022-06-18T10:18:54Z</time>
      </trkpt>
      <trkpt lat="45.2097" lon="6.05522">
        <ele>1207.4</ele>
        <time>2022-06-18T10:18:55Z</time>
      </trkpt>
      <trkpt lat="45.20971" lon="6.05521">
        <ele>1207.6</ele>
        <time>2022-06-18T10:18:56Z</time>
      </trkpt>
      <trkpt lat="45.20975" lon="6.0552">
        <ele>1208.4</ele>
        <time>2022-06-18T10:18:57Z</time>
      </trkpt>
      <trkpt lat="45.20976" lon="6.05521">
        <ele>1208.7</ele>
        <time>2022-06-18T10:18:58Z</time>
      </trkpt>
      <trkpt lat="45.20978" lon="6.05524">
        <ele>1209.3</ele>
        <time>2022-06-18T10:18:59Z</time>
      </trkpt>
      <trkpt lat="45.20979" lon="6.05526">
        <ele>1209.6</ele>
        <time>2022-06-18T10:19:00Z</time>
      </trkpt>
      <trkpt lat="45.20979" lon="6.0553">
        <ele>1210</ele>
        <time>2022-06-18T10:19:01Z</time>
      </trkpt>
      <trkpt lat="45.20979" lon="6.05536">
        <ele>1210.6</ele>
        <time>2022-06-18T10:19:02Z</time>
      </trkpt>
      <trkpt lat="45.20979" lon="6.05537">
        <ele>1210.7</ele>
        <time>2022-06-18T10:19:03Z</time>
      </trkpt>
      <trkpt lat="45.20978" lon="6.05541">
        <ele>1211</ele>
        <time>2022-06-18T10:19:04Z</time>
      </trkpt>
      <trkpt lat="45.20977" lon="6.05546">
        <ele>1211.3</ele>
        <time>2022-06-18T10:19:05Z</time>
      </trkpt>
      <trkpt lat="45.20976" lon="6.05548">
        <ele>1211.4</ele>
        <time>2022-06-18T10:19:06Z</time>
      </trkpt>
      <trkpt lat="45.20975" lon="6.05553">
        <ele>1211.6</ele>
        <time>2022-06-18T10:19:07Z</time>
      </trkpt>
      <trkpt lat="45.20974" lon="6.05555">
        <ele>1211.6</ele>
        <time>2022-06-18T10:19:08Z</time>
      </trkpt>
      <trkpt lat="45.20974" lon="6.05561">
        <ele>1211.7</ele>
        <time>2022-06-18T10:19:10Z</time>
      </trkpt>
      <trkpt lat="45.20973" lon="6.05564">
        <ele>1211.8</ele>
        <time>2022-06-18T10:19:11Z</time>
      </trkpt>
      <trkpt lat="45.20973" lon="6.0557">
        <ele>1211.9</ele>
        <time>2022-06-18T10:19:12Z</time>
      </trkpt>
      <trkpt lat="45.20972" lon="6.05575">
        <ele>1212</ele>
        <time>2022-06-18T10:19:13Z</time>
      </trkpt>
      <trkpt lat="45.20972" lon="6.05577">
        <ele>1212</ele>
        <time>2022-06-18T10:19:14Z</time>
      </trkpt>
      <trkpt lat="45.20971" lon="6.05584">
        <ele>1212.1</ele>
        <time>2022-06-18T10:19:16Z</time>
      </trkpt>
      <trkpt lat="45.20971" lon="6.05587">
        <ele>1212.2</ele>
        <time>2022-06-18T10:19:17Z</time>
      </trkpt>
      <trkpt lat="45.20971" lon="6.0559">
        <ele>1212.3</ele>
        <time>2022-06-18T10:19:18Z</time>
      </trkpt>
      <trkpt lat="45.20971" lon="6.05594">
        <ele>1212.3</ele>
        <time>2022-06-18T10:19:19Z</time>
      </trkpt>
      <trkpt lat="45.20972" lon="6.05601">
        <ele>1212.5</ele>
        <time>2022-06-18T10:19:21Z</time>
      </trkpt>
      <trkpt lat="45.20973" lon="6.05603">
        <ele>1212.6</ele>
        <time>2022-06-18T10:19:22Z</time>
      </trkpt>
      <trkpt lat="45.20974" lon="6.05606">
        <ele>1212.7</ele>
        <time>2022-06-18T10:19:23Z</time>
      </trkpt>
      <trkpt lat="45.20975" lon="6.05611">
        <ele>1212.9</ele>
        <time>2022-06-18T10:19:24Z</time>
      </trkpt>
      <trkpt lat="45.20975" lon="6.05612">
        <ele>1213</ele>
        <time>2022-06-18T10:19:25Z</time>
      </trkpt>
      <trkpt lat="45.20976" lon="6.05617">
        <ele>1213.1</ele>
        <time>2022-06-18T10:19:26Z</time>
      </trkpt>
      <trkpt lat="45.20976" lon="6.05618">
        <ele>1213.2</ele>
        <time>2022-06-18T10:19:27Z</time>
      </trkpt>
      <trkpt lat="45.20977" lon="6.05623">
        <ele>1213.4</ele>
        <time>2022-06-18T10:19:29Z</time>
      </trkpt>
      <trkpt lat="45.20977" lon="6.05627">
        <ele>1213.6</ele>
        <time>2022-06-18T10:19:30Z</time>
      </trkpt>
      <trkpt lat="45.20978" lon="6.05632">
        <ele>1213.8</ele>
        <time>2022-06-18T10:19:31Z</time>
      </trkpt>
      <trkpt lat="45.20979" lon="6.05634">
        <ele>1213.9</ele>
        <time>2022-06-18T10:19:32Z</time>
      </trkpt>
      <trkpt lat="45.2098" lon="6.05641">
        <ele>1214.3</ele>
        <time>2022-06-18T10:19:34Z</time>
      </trkpt>
      <trkpt lat="45.2098" lon="6.05643">
        <ele>1214.4</ele>
        <time>2022-06-18T10:19:35Z</time>
      </trkpt>
      <trkpt lat="45.20981" lon="6.05646">
        <ele>1214.6</ele>
        <time>2022-06-18T10:19:36Z</time>
      </trkpt>
      <trkpt lat="45.20982" lon="6.05649">
        <ele>1214.8</ele>
        <time>2022-06-18T10:19:37Z</time>
      </trkpt>
      <trkpt lat="45.20983" lon="6.05655">
        <ele>1215.1</ele>
        <time>2022-06-18T10:19:38Z</time>
      </trkpt>
      <trkpt lat="45.20983" lon="6.05657">
        <ele>1215.2</ele>
        <time>2022-06-18T10:19:39Z</time>
      </trkpt>
      <trkpt lat="45.20984" lon="6.05663">
        <ele>1215.7</ele>
        <time>2022-06-18T10:19:41Z</time>
      </trkpt>
      <trkpt lat="45.20985" lon="6.05665">
        <ele>1215.8</ele>
        <time>2022-06-18T10:19:42Z</time>
      </trkpt>
      <trkpt lat="45.20985" lon="6.05667">
        <ele>1216</ele>
        <time>2022-06-18T10:19:43Z</time>
      </trkpt>
      <trkpt lat="45.20986" lon="6.05671">
        <ele>1216.3</ele>
        <time>2022-06-18T10:19:44Z</time>
      </trkpt>
      <trkpt lat="45.20987" lon="6.05676">
        <ele>1216.8</ele>
        <time>2022-06-18T10:19:45Z</time>
      </trkpt>
      <trkpt lat="45.20988" lon="6.05678">
        <ele>1216.9</ele>
        <time>2022-06-18T10:19:46Z</time>
      </trkpt>
      <trkpt lat="45.20989" lon="6.05683">
        <ele>1217.4</ele>
        <time>2022-06-18T10:19:47Z</time>
      </trkpt>
      <trkpt lat="45.20989" lon="6.05684">
        <ele>1217.6</ele>
        <time>2022-06-18T10:19:48Z</time>
      </trkpt>
      <trkpt lat="45.2099" lon="6.0569">
        <ele>1218.1</ele>
        <time>2022-06-18T10:19:49Z</time>
      </trkpt>
      <trkpt lat="45.2099" lon="6.05691">
        <ele>1218.3</ele>
        <time>2022-06-18T10:19:50Z</time>
      </trkpt>
      <trkpt lat="45.20991" lon="6.05696">
        <ele>1218.9</ele>
        <time>2022-06-18T10:19:51Z</time>
      </trkpt>
      <trkpt lat="45.20992" lon="6.05698">
        <ele>1219.1</ele>
        <time>2022-06-18T10:19:52Z</time>
      </trkpt>
      <trkpt lat="45.20994" lon="6.05704">
        <ele>1219.9</ele>
        <time>2022-06-18T10:19:54Z</time>
      </trkpt>
      <trkpt lat="45.20995" lon="6.05707">
        <ele>1220.3</ele>
        <time>2022-06-18T10:19:55Z</time>
      </trkpt>
      <trkpt lat="45.20996" lon="6.0571">
        <ele>1220.8</ele>
        <time>2022-06-18T10:19:57Z</time>
      </trkpt>
      <trkpt lat="45.20998" lon="6.05714">
        <ele>1221.6</ele>
        <time>2022-06-18T10:19:58Z</time>
      </trkpt>
      <trkpt lat="45.20998" lon="6.05716">
        <ele>1221.9</ele>
        <time>2022-06-18T10:19:59Z</time>
      </trkpt>
      <trkpt lat="45.21" lon="6.05721">
        <ele>1222.8</ele>
        <time>2022-06-18T10:20:00Z</time>
      </trkpt>
      <trkpt lat="45.21" lon="6.05722">
        <ele>1223</ele>
        <time>2022-06-18T10:20:01Z</time>
      </trkpt>
      <trkpt lat="45.21001" lon="6.05727">
        <ele>1223.9</ele>
        <time>2022-06-18T10:20:03Z</time>
      </trkpt>
      <trkpt lat="45.21002" lon="6.05731">
        <ele>1224.6</ele>
        <time>2022-06-18T10:20:04Z</time>
      </trkpt>
      <trkpt lat="45.21004" lon="6.05734">
        <ele>1225.4</ele>
        <time>2022-06-18T10:20:05Z</time>
      </trkpt>
      <trkpt lat="45.21007" lon="6.05737">
        <ele>1226.4</ele>
        <time>2022-06-18T10:20:06Z</time>
      </trkpt>
      <trkpt lat="45.2101" lon="6.05739">
        <ele>1227.2</ele>
        <time>2022-06-18T10:20:07Z</time>
      </trkpt>
      <trkpt lat="45.21012" lon="6.0574">
        <ele>1227.9</ele>
        <time>2022-06-18T10:20:08Z</time>
      </trkpt>
      <trkpt lat="45.21016" lon="6.05738">
        <ele>1229</ele>
        <time>2022-06-18T10:20:09Z</time>
      </trkpt>
      <trkpt lat="45.21017" lon="6.05737">
        <ele>1229.4</ele>
        <time>2022-06-18T10:20:10Z</time>
      </trkpt>
      <trkpt lat="45.2102" lon="6.05734">
        <ele>1230.2</ele>
        <time>2022-06-18T10:20:11Z</time>
      </trkpt>
      <trkpt lat="45.21021" lon="6.05728">
        <ele>1231.2</ele>
        <time>2022-06-18T10:20:13Z</time>
      </trkpt>
      <trkpt lat="45.21022" lon="6.05723">
        <ele>1231.9</ele>
        <time>2022-06-18T10:20:14Z</time>
      </trkpt>
      <trkpt lat="45.21021" lon="6.05716">
        <ele>1232.5</ele>
        <time>2022-06-18T10:20:15Z</time>
      </trkpt>
      <trkpt lat="45.2102" lon="6.05712">
        <ele>1232.9</ele>
        <time>2022-06-18T10:20:16Z</time>
      </trkpt>
      <trkpt lat="45.21019" lon="6.05707">
        <ele>1233.2</ele>
        <time>2022-06-18T10:20:17Z</time>
      </trkpt>
      <trkpt lat="45.21018" lon="6.05702">
        <ele>1233.4</ele>
        <time>2022-06-18T10:20:19Z</time>
      </trkpt>
      <trkpt lat="45.21018" lon="6.05696">
        <ele>1233.5</ele>
        <time>2022-06-18T10:20:20Z</time>
      </trkpt>
      <trkpt lat="45.21018" lon="6.05695">
        <ele>1233.6</ele>
        <time>2022-06-18T10:20:21Z</time>
      </trkpt>
      <trkpt lat="45.21018" lon="6.0569">
        <ele>1233.7</ele>
        <time>2022-06-18T10:20:22Z</time>
      </trkpt>
      <trkpt lat="45.21018" lon="6.05688">
        <ele>1233.7</ele>
        <time>2022-06-18T10:20:23Z</time>
      </trkpt>
      <trkpt lat="45.21018" lon="6.05686">
        <ele>1233.8</ele>
        <time>2022-06-18T10:20:24Z</time>
      </trkpt>
      <trkpt lat="45.2102" lon="6.0568">
        <ele>1233.9</ele>
        <time>2022-06-18T10:20:26Z</time>
      </trkpt>
      <trkpt lat="45.21021" lon="6.05676">
        <ele>1234</ele>
        <time>2022-06-18T10:20:27Z</time>
      </trkpt>
      <trkpt lat="45.21021" lon="6.05674">
        <ele>1234.1</ele>
        <time>2022-06-18T10:20:28Z</time>
      </trkpt>
      <trkpt lat="45.21023" lon="6.0567">
        <ele>1234.2</ele>
        <time>2022-06-18T10:20:29Z</time>
      </trkpt>
      <trkpt lat="45.21023" lon="6.05668">
        <ele>1234.2</ele>
        <time>2022-06-18T10:20:30Z</time>
      </trkpt>
      <trkpt lat="45.21024" lon="6.05664">
        <ele>1234.3</ele>
        <time>2022-06-18T10:20:31Z</time>
      </trkpt>
      <trkpt lat="45.21024" lon="6.05663">
        <ele>1234.4</ele>
        <time>2022-06-18T10:20:32Z</time>
      </trkpt>
      <trkpt lat="45.21025" lon="6.0566">
        <ele>1234.5</ele>
        <time>2022-06-18T10:20:33Z</time>
      </trkpt>
      <trkpt lat="45.21025" lon="6.05654">
        <ele>1234.6</ele>
        <time>2022-06-18T10:20:35Z</time>
      </trkpt>
      <trkpt lat="45.21026" lon="6.0565">
        <ele>1234.8</ele>
        <time>2022-06-18T10:20:36Z</time>
      </trkpt>
      <trkpt lat="45.21027" lon="6.05646">
        <ele>1235</ele>
        <time>2022-06-18T10:20:37Z</time>
      </trkpt>
      <trkpt lat="45.21027" lon="6.05645">
        <ele>1235</ele>
        <time>2022-06-18T10:20:38Z</time>
      </trkpt>
      <trkpt lat="45.21029" lon="6.05638">
        <ele>1235.4</ele>
        <time>2022-06-18T10:20:40Z</time>
      </trkpt>
      <trkpt lat="45.2103" lon="6.05636">
        <ele>1235.5</ele>
        <time>2022-06-18T10:20:41Z</time>
      </trkpt>
      <trkpt lat="45.21031" lon="6.05633">
        <ele>1235.6</ele>
        <time>2022-06-18T10:20:42Z</time>
      </trkpt>
      <trkpt lat="45.21032" lon="6.05629">
        <ele>1236</ele>
        <time>2022-06-18T10:20:43Z</time>
      </trkpt>
      <trkpt lat="45.21032" lon="6.05627">
        <ele>1236.1</ele>
        <time>2022-06-18T10:20:44Z</time>
      </trkpt>
      <trkpt lat="45.21033" lon="6.05622">
        <ele>1236.4</ele>
        <time>2022-06-18T10:20:45Z</time>
      </trkpt>
      <trkpt lat="45.21033" lon="6.0562">
        <ele>1236.6</ele>
        <time>2022-06-18T10:20:46Z</time>
      </trkpt>
      <trkpt lat="45.21034" lon="6.05616">
        <ele>1236.9</ele>
        <time>2022-06-18T10:20:47Z</time>
      </trkpt>
      <trkpt lat="45.21035" lon="6.0561">
        <ele>1237.4</ele>
        <time>2022-06-18T10:20:49Z</time>
      </trkpt>
      <trkpt lat="45.21036" lon="6.05608">
        <ele>1237.6</ele>
        <time>2022-06-18T10:20:50Z</time>
      </trkpt>
      <trkpt lat="45.21036" lon="6.05605">
        <ele>1237.9</ele>
        <time>2022-06-18T10:20:51Z</time>
      </trkpt>
      <trkpt lat="45.21037" lon="6.056">
        <ele>1238.3</ele>
        <time>2022-06-18T10:20:52Z</time>
      </trkpt>
      <trkpt lat="45.21038" lon="6.05599">
        <ele>1238.5</ele>
        <time>2022-06-18T10:20:53Z</time>
      </trkpt>
      <trkpt lat="45.21039" lon="6.05595">
        <ele>1238.9</ele>
        <time>2022-06-18T10:20:54Z</time>
      </trkpt>
      <trkpt lat="45.21039" lon="6.0559">
        <ele>1239.4</ele>
        <time>2022-06-18T10:20:55Z</time>
      </trkpt>
      <trkpt lat="45.21039" lon="6.05588">
        <ele>1239.6</ele>
        <time>2022-06-18T10:20:56Z</time>
      </trkpt>
      <trkpt lat="45.2104" lon="6.05584">
        <ele>1240.2</ele>
        <time>2022-06-18T10:20:57Z</time>
      </trkpt>
      <trkpt lat="45.21041" lon="6.05582">
        <ele>1240.4</ele>
        <time>2022-06-18T10:20:58Z</time>
      </trkpt>
      <trkpt lat="45.21041" lon="6.05577">
        <ele>1241</ele>
        <time>2022-06-18T10:20:59Z</time>
      </trkpt>
      <trkpt lat="45.21042" lon="6.05576">
        <ele>1241.2</ele>
        <time>2022-06-18T10:21:00Z</time>
      </trkpt>
      <trkpt lat="45.21043" lon="6.05571">
        <ele>1241.8</ele>
        <time>2022-06-18T10:21:02Z</time>
      </trkpt>
      <trkpt lat="45.21043" lon="6.05567">
        <ele>1242.4</ele>
        <time>2022-06-18T10:21:03Z</time>
      </trkpt>
      <trkpt lat="45.21043" lon="6.05562">
        <ele>1243.1</ele>
        <time>2022-06-18T10:21:04Z</time>
      </trkpt>
      <trkpt lat="45.21044" lon="6.05556">
        <ele>1244.1</ele>
        <time>2022-06-18T10:21:06Z</time>
      </trkpt>
      <trkpt lat="45.21044" lon="6.05553">
        <ele>1244.6</ele>
        <time>2022-06-18T10:21:07Z</time>
      </trkpt>
      <trkpt lat="45.21046" lon="6.0555">
        <ele>1245.1</ele>
        <time>2022-06-18T10:21:08Z</time>
      </trkpt>
      <trkpt lat="45.21051" lon="6.05549">
        <ele>1245.9</ele>
        <time>2022-06-18T10:21:10Z</time>
      </trkpt>
      <trkpt lat="45.21054" lon="6.05552">
        <ele>1246.7</ele>
        <time>2022-06-18T10:21:11Z</time>
      </trkpt>
      <trkpt lat="45.21056" lon="6.05555">
        <ele>1247</ele>
        <time>2022-06-18T10:21:12Z</time>
      </trkpt>
      <trkpt lat="45.21056" lon="6.05562">
        <ele>1247.6</ele>
        <time>2022-06-18T10:21:14Z</time>
      </trkpt>
      <trkpt lat="45.21056" lon="6.05569">
        <ele>1248</ele>
        <time>2022-06-18T10:21:15Z</time>
      </trkpt>
      <trkpt lat="45.21056" lon="6.05574">
        <ele>1248.1</ele>
        <time>2022-06-18T10:21:16Z</time>
      </trkpt>
      <trkpt lat="45.21056" lon="6.05578">
        <ele>1248.2</ele>
        <time>2022-06-18T10:21:17Z</time>
      </trkpt>
      <trkpt lat="45.21055" lon="6.05582">
        <ele>1248.2</ele>
        <time>2022-06-18T10:21:18Z</time>
      </trkpt>
      <trkpt lat="45.21055" lon="6.05586">
        <ele>1248.3</ele>
        <time>2022-06-18T10:21:19Z</time>
      </trkpt>
      <trkpt lat="45.21056" lon="6.05592">
        <ele>1248.3</ele>
        <time>2022-06-18T10:21:20Z</time>
      </trkpt>
      <trkpt lat="45.21056" lon="6.05594">
        <ele>1248.3</ele>
        <time>2022-06-18T10:21:21Z</time>
      </trkpt>
      <trkpt lat="45.21057" lon="6.05599">
        <ele>1248.3</ele>
        <time>2022-06-18T10:21:23Z</time>
      </trkpt>
      <trkpt lat="45.21058" lon="6.05603">
        <ele>1248.4</ele>
        <time>2022-06-18T10:21:24Z</time>
      </trkpt>
      <trkpt lat="45.21059" lon="6.05607">
        <ele>1248.5</ele>
        <time>2022-06-18T10:21:25Z</time>
      </trkpt>
      <trkpt lat="45.21059" lon="6.05611">
        <ele>1248.5</ele>
        <time>2022-06-18T10:21:26Z</time>
      </trkpt>
      <trkpt lat="45.2106" lon="6.05617">
        <ele>1248.7</ele>
        <time>2022-06-18T10:21:27Z</time>
      </trkpt>
      <trkpt lat="45.2106" lon="6.05618">
        <ele>1248.7</ele>
        <time>2022-06-18T10:21:28Z</time>
      </trkpt>
      <trkpt lat="45.21061" lon="6.05624">
        <ele>1248.9</ele>
        <time>2022-06-18T10:21:30Z</time>
      </trkpt>
      <trkpt lat="45.21061" lon="6.05626">
        <ele>1249</ele>
        <time>2022-06-18T10:21:31Z</time>
      </trkpt>
      <trkpt lat="45.21062" lon="6.05631">
        <ele>1249.3</ele>
        <time>2022-06-18T10:21:32Z</time>
      </trkpt>
      <trkpt lat="45.21062" lon="6.05633">
        <ele>1249.4</ele>
        <time>2022-06-18T10:21:33Z</time>
      </trkpt>
      <trkpt lat="45.21063" lon="6.05638">
        <ele>1249.6</ele>
        <time>2022-06-18T10:21:34Z</time>
      </trkpt>
      <trkpt lat="45.21063" lon="6.05639">
        <ele>1249.7</ele>
        <time>2022-06-18T10:21:35Z</time>
      </trkpt>
      <trkpt lat="45.21065" lon="6.05644">
        <ele>1250.1</ele>
        <time>2022-06-18T10:21:36Z</time>
      </trkpt>
      <trkpt lat="45.21065" lon="6.05646">
        <ele>1250.2</ele>
        <time>2022-06-18T10:21:37Z</time>
      </trkpt>
      <trkpt lat="45.21066" lon="6.0565">
        <ele>1250.6</ele>
        <time>2022-06-18T10:21:38Z</time>
      </trkpt>
      <trkpt lat="45.21067" lon="6.05655">
        <ele>1251</ele>
        <time>2022-06-18T10:21:39Z</time>
      </trkpt>
      <trkpt lat="45.21068" lon="6.05657">
        <ele>1251.2</ele>
        <time>2022-06-18T10:21:40Z</time>
      </trkpt>
      <trkpt lat="45.21068" lon="6.05661">
        <ele>1251.6</ele>
        <time>2022-06-18T10:21:41Z</time>
      </trkpt>
      <trkpt lat="45.21069" lon="6.05665">
        <ele>1252</ele>
        <time>2022-06-18T10:21:42Z</time>
      </trkpt>
      <trkpt lat="45.21069" lon="6.05667">
        <ele>1252.2</ele>
        <time>2022-06-18T10:21:43Z</time>
      </trkpt>
      <trkpt lat="45.2107" lon="6.05672">
        <ele>1252.8</ele>
        <time>2022-06-18T10:21:44Z</time>
      </trkpt>
      <trkpt lat="45.21071" lon="6.05673">
        <ele>1253.1</ele>
        <time>2022-06-18T10:21:45Z</time>
      </trkpt>
      <trkpt lat="45.21071" lon="6.05679">
        <ele>1253.8</ele>
        <time>2022-06-18T10:21:46Z</time>
      </trkpt>
      <trkpt lat="45.2107" lon="6.05681">
        <ele>1254</ele>
        <time>2022-06-18T10:21:47Z</time>
      </trkpt>
      <trkpt lat="45.21071" lon="6.05684">
        <ele>1254.5</ele>
        <time>2022-06-18T10:21:48Z</time>
      </trkpt>
      <trkpt lat="45.21071" lon="6.0569">
        <ele>1255.5</ele>
        <time>2022-06-18T10:21:50Z</time>
      </trkpt>
      <trkpt lat="45.21073" lon="6.05694">
        <ele>1256.1</ele>
        <time>2022-06-18T10:21:51Z</time>
      </trkpt>
      <trkpt lat="45.21075" lon="6.05697">
        <ele>1256.9</ele>
        <time>2022-06-18T10:21:52Z</time>
      </trkpt>
      <trkpt lat="45.21078" lon="6.05698">
        <ele>1257.5</ele>
        <time>2022-06-18T10:21:53Z</time>
      </trkpt>
      <trkpt lat="45.21082" lon="6.05698">
        <ele>1258.3</ele>
        <time>2022-06-18T10:21:54Z</time>
      </trkpt>
      <trkpt lat="45.21085" lon="6.05696">
        <ele>1259</ele>
        <time>2022-06-18T10:21:55Z</time>
      </trkpt>
      <trkpt lat="45.21088" lon="6.05692">
        <ele>1259.5</ele>
        <time>2022-06-18T10:21:56Z</time>
      </trkpt>
      <trkpt lat="45.21089" lon="6.05684">
        <ele>1260</ele>
        <time>2022-06-18T10:21:58Z</time>
      </trkpt>
      <trkpt lat="45.21089" lon="6.05677">
        <ele>1260.3</ele>
        <time>2022-06-18T10:21:59Z</time>
      </trkpt>
      <trkpt lat="45.21088" lon="6.05669">
        <ele>1260.4</ele>
        <time>2022-06-18T10:22:00Z</time>
      </trkpt>
      <trkpt lat="45.21088" lon="6.05663">
        <ele>1260.4</ele>
        <time>2022-06-18T10:22:01Z</time>
      </trkpt>
      <trkpt lat="45.21087" lon="6.05657">
        <ele>1260.3</ele>
        <time>2022-06-18T10:22:03Z</time>
      </trkpt>
      <trkpt lat="45.21087" lon="6.0565">
        <ele>1260.3</ele>
        <time>2022-06-18T10:22:04Z</time>
      </trkpt>
      <trkpt lat="45.21087" lon="6.05647">
        <ele>1260.3</ele>
        <time>2022-06-18T10:22:05Z</time>
      </trkpt>
      <trkpt lat="45.21087" lon="6.05644">
        <ele>1260.3</ele>
        <time>2022-06-18T10:22:07Z</time>
      </trkpt>
      <trkpt lat="45.21087" lon="6.05639">
        <ele>1260.3</ele>
        <time>2022-06-18T10:22:08Z</time>
      </trkpt>
      <trkpt lat="45.21087" lon="6.05635">
        <ele>1260.3</ele>
        <time>2022-06-18T10:22:09Z</time>
      </trkpt>
      <trkpt lat="45.21087" lon="6.05631">
        <ele>1260.4</ele>
        <time>2022-06-18T10:22:10Z</time>
      </trkpt>
      <trkpt lat="45.21087" lon="6.05625">
        <ele>1260.4</ele>
        <time>2022-06-18T10:22:12Z</time>
      </trkpt>
      <trkpt lat="45.21087" lon="6.05619">
        <ele>1260.5</ele>
        <time>2022-06-18T10:22:13Z</time>
      </trkpt>
      <trkpt lat="45.21087" lon="6.05614">
        <ele>1260.6</ele>
        <time>2022-06-18T10:22:14Z</time>
      </trkpt>
      <trkpt lat="45.21087" lon="6.05611">
        <ele>1260.7</ele>
        <time>2022-06-18T10:22:15Z</time>
      </trkpt>
      <trkpt lat="45.21088" lon="6.05605">
        <ele>1260.8</ele>
        <time>2022-06-18T10:22:17Z</time>
      </trkpt>
      <trkpt lat="45.21088" lon="6.056">
        <ele>1260.9</ele>
        <time>2022-06-18T10:22:18Z</time>
      </trkpt>
      <trkpt lat="45.21088" lon="6.05596">
        <ele>1261</ele>
        <time>2022-06-18T10:22:19Z</time>
      </trkpt>
      <trkpt lat="45.21089" lon="6.05592">
        <ele>1261.1</ele>
        <time>2022-06-18T10:22:20Z</time>
      </trkpt>
      <trkpt lat="45.21089" lon="6.05585">
        <ele>1261.4</ele>
        <time>2022-06-18T10:22:22Z</time>
      </trkpt>
      <trkpt lat="45.2109" lon="6.05579">
        <ele>1261.6</ele>
        <time>2022-06-18T10:22:23Z</time>
      </trkpt>
      <trkpt lat="45.21091" lon="6.05575">
        <ele>1261.7</ele>
        <time>2022-06-18T10:22:25Z</time>
      </trkpt>
      <trkpt lat="45.21092" lon="6.0557">
        <ele>1261.9</ele>
        <time>2022-06-18T10:22:26Z</time>
      </trkpt>
      <trkpt lat="45.21093" lon="6.05566">
        <ele>1262</ele>
        <time>2022-06-18T10:22:27Z</time>
      </trkpt>
      <trkpt lat="45.21092" lon="6.05559">
        <ele>1262.3</ele>
        <time>2022-06-18T10:22:29Z</time>
      </trkpt>
      <trkpt lat="45.21092" lon="6.05554">
        <ele>1262.4</ele>
        <time>2022-06-18T10:22:30Z</time>
      </trkpt>
      <trkpt lat="45.21092" lon="6.05549">
        <ele>1262.6</ele>
        <time>2022-06-18T10:22:31Z</time>
      </trkpt>
      <trkpt lat="45.21092" lon="6.05544">
        <ele>1262.8</ele>
        <time>2022-06-18T10:22:32Z</time>
      </trkpt>
      <trkpt lat="45.21091" lon="6.0554">
        <ele>1262.9</ele>
        <time>2022-06-18T10:22:33Z</time>
      </trkpt>
      <trkpt lat="45.2109" lon="6.05536">
        <ele>1263.1</ele>
        <time>2022-06-18T10:22:34Z</time>
      </trkpt>
      <trkpt lat="45.21088" lon="6.05532">
        <ele>1263.4</ele>
        <time>2022-06-18T10:22:35Z</time>
      </trkpt>
      <trkpt lat="45.21086" lon="6.05524">
        <ele>1263.7</ele>
        <time>2022-06-18T10:22:37Z</time>
      </trkpt>
      <trkpt lat="45.21085" lon="6.0552">
        <ele>1263.9</ele>
        <time>2022-06-18T10:22:38Z</time>
      </trkpt>
      <trkpt lat="45.21084" lon="6.05515">
        <ele>1264.1</ele>
        <time>2022-06-18T10:22:39Z</time>
      </trkpt>
      <trkpt lat="45.21083" lon="6.05508">
        <ele>1264.2</ele>
        <time>2022-06-18T10:22:41Z</time>
      </trkpt>
      <trkpt lat="45.21083" lon="6.05502">
        <ele>1264.3</ele>
        <time>2022-06-18T10:22:42Z</time>
      </trkpt>
      <trkpt lat="45.21085" lon="6.05488">
        <ele>1264.4</ele>
        <time>2022-06-18T10:22:43Z</time>
      </trkpt>
      <trkpt lat="45.21086" lon="6.05481">
        <ele>1264.5</ele>
        <time>2022-06-18T10:22:44Z</time>
      </trkpt>
      <trkpt lat="45.21086" lon="6.05474">
        <ele>1264.5</ele>
        <time>2022-06-18T10:22:45Z</time>
      </trkpt>
      <trkpt lat="45.21087" lon="6.05466">
        <ele>1264.5</ele>
        <time>2022-06-18T10:22:46Z</time>
      </trkpt>
      <trkpt lat="45.21087" lon="6.05458">
        <ele>1264.5</ele>
        <time>2022-06-18T10:22:47Z</time>
      </trkpt>
      <trkpt lat="45.21087" lon="6.0545">
        <ele>1264.6</ele>
        <time>2022-06-18T10:22:48Z</time>
      </trkpt>
      <trkpt lat="45.21087" lon="6.05441">
        <ele>1264.6</ele>
        <time>2022-06-18T10:22:49Z</time>
      </trkpt>
      <trkpt lat="45.21087" lon="6.05433">
        <ele>1264.7</ele>
        <time>2022-06-18T10:22:50Z</time>
      </trkpt>
      <trkpt lat="45.21088" lon="6.05425">
        <ele>1264.7</ele>
        <time>2022-06-18T10:22:51Z</time>
      </trkpt>
      <trkpt lat="45.21088" lon="6.05417">
        <ele>1264.8</ele>
        <time>2022-06-18T10:22:52Z</time>
      </trkpt>
      <trkpt lat="45.21089" lon="6.05409">
        <ele>1264.8</ele>
        <time>2022-06-18T10:22:53Z</time>
      </trkpt>
      <trkpt lat="45.2109" lon="6.05402">
        <ele>1264.9</ele>
        <time>2022-06-18T10:22:54Z</time>
      </trkpt>
      <trkpt lat="45.21091" lon="6.05394">
        <ele>1264.9</ele>
        <time>2022-06-18T10:22:55Z</time>
      </trkpt>
      <trkpt lat="45.21091" lon="6.05385">
        <ele>1265</ele>
        <time>2022-06-18T10:22:56Z</time>
      </trkpt>
      <trkpt lat="45.21092" lon="6.05377">
        <ele>1265</ele>
        <time>2022-06-18T10:22:57Z</time>
      </trkpt>
      <trkpt lat="45.21092" lon="6.05368">
        <ele>1265</ele>
        <time>2022-06-18T10:22:58Z</time>
      </trkpt>
      <trkpt lat="45.21093" lon="6.05358">
        <ele>1265.1</ele>
        <time>2022-06-18T10:22:59Z</time>
      </trkpt>
      <trkpt lat="45.21093" lon="6.05349">
        <ele>1265.2</ele>
        <time>2022-06-18T10:23:00Z</time>
      </trkpt>
      <trkpt lat="45.21094" lon="6.05339">
        <ele>1265.2</ele>
        <time>2022-06-18T10:23:01Z</time>
      </trkpt>
      <trkpt lat="45.21094" lon="6.05329">
        <ele>1265.4</ele>
        <time>2022-06-18T10:23:02Z</time>
      </trkpt>
      <trkpt lat="45.21095" lon="6.0532">
        <ele>1265.5</ele>
        <time>2022-06-18T10:23:03Z</time>
      </trkpt>
      <trkpt lat="45.21095" lon="6.0531">
        <ele>1265.7</ele>
        <time>2022-06-18T10:23:04Z</time>
      </trkpt>
      <trkpt lat="45.21095" lon="6.05301">
        <ele>1265.9</ele>
        <time>2022-06-18T10:23:05Z</time>
      </trkpt>
      <trkpt lat="45.21096" lon="6.0529">
        <ele>1266.2</ele>
        <time>2022-06-18T10:23:06Z</time>
      </trkpt>
      <trkpt lat="45.21096" lon="6.0528">
        <ele>1266.5</ele>
        <time>2022-06-18T10:23:07Z</time>
      </trkpt>
      <trkpt lat="45.21095" lon="6.05271">
        <ele>1266.8</ele>
        <time>2022-06-18T10:23:08Z</time>
      </trkpt>
      <trkpt lat="45.21094" lon="6.05261">
        <ele>1267.2</ele>
        <time>2022-06-18T10:23:09Z</time>
      </trkpt>
      <trkpt lat="45.21093" lon="6.05252">
        <ele>1267.5</ele>
        <time>2022-06-18T10:23:10Z</time>
      </trkpt>
      <trkpt lat="45.21091" lon="6.05244">
        <ele>1267.9</ele>
        <time>2022-06-18T10:23:11Z</time>
      </trkpt>
      <trkpt lat="45.2109" lon="6.05235">
        <ele>1268.3</ele>
        <time>2022-06-18T10:23:12Z</time>
      </trkpt>
      <trkpt lat="45.21089" lon="6.05227">
        <ele>1268.6</ele>
        <time>2022-06-18T10:23:13Z</time>
      </trkpt>
      <trkpt lat="45.21088" lon="6.05219">
        <ele>1269</ele>
        <time>2022-06-18T10:23:14Z</time>
      </trkpt>
      <trkpt lat="45.21087" lon="6.05211">
        <ele>1269.4</ele>
        <time>2022-06-18T10:23:15Z</time>
      </trkpt>
      <trkpt lat="45.21086" lon="6.05204">
        <ele>1269.8</ele>
        <time>2022-06-18T10:23:16Z</time>
      </trkpt>
      <trkpt lat="45.21086" lon="6.05197">
        <ele>1270.2</ele>
        <time>2022-06-18T10:23:17Z</time>
      </trkpt>
      <trkpt lat="45.21086" lon="6.05191">
        <ele>1270.6</ele>
        <time>2022-06-18T10:23:18Z</time>
      </trkpt>
      <trkpt lat="45.21086" lon="6.05186">
        <ele>1270.8</ele>
        <time>2022-06-18T10:23:19Z</time>
      </trkpt>
      <trkpt lat="45.21085" lon="6.05181">
        <ele>1271.2</ele>
        <time>2022-06-18T10:23:20Z</time>
      </trkpt>
      <trkpt lat="45.21085" lon="6.05176">
        <ele>1271.5</ele>
        <time>2022-06-18T10:23:21Z</time>
      </trkpt>
      <trkpt lat="45.21085" lon="6.05171">
        <ele>1271.8</ele>
        <time>2022-06-18T10:23:22Z</time>
      </trkpt>
      <trkpt lat="45.21084" lon="6.05165">
        <ele>1272.2</ele>
        <time>2022-06-18T10:23:23Z</time>
      </trkpt>
      <trkpt lat="45.21083" lon="6.05159">
        <ele>1272.7</ele>
        <time>2022-06-18T10:23:24Z</time>
      </trkpt>
      <trkpt lat="45.21083" lon="6.05152">
        <ele>1273.1</ele>
        <time>2022-06-18T10:23:25Z</time>
      </trkpt>
      <trkpt lat="45.21081" lon="6.05147">
        <ele>1273.5</ele>
        <time>2022-06-18T10:23:27Z</time>
      </trkpt>
      <trkpt lat="45.21081" lon="6.05142">
        <ele>1273.8</ele>
        <time>2022-06-18T10:23:28Z</time>
      </trkpt>
      <trkpt lat="45.21082" lon="6.05124">
        <ele>1275.1</ele>
        <time>2022-06-18T10:23:29Z</time>
      </trkpt>
      <trkpt lat="45.21084" lon="6.05117">
        <ele>1275.6</ele>
        <time>2022-06-18T10:23:30Z</time>
      </trkpt>
      <trkpt lat="45.21086" lon="6.05111">
        <ele>1276</ele>
        <time>2022-06-18T10:23:31Z</time>
      </trkpt>
      <trkpt lat="45.21088" lon="6.05105">
        <ele>1276.5</ele>
        <time>2022-06-18T10:23:32Z</time>
      </trkpt>
      <trkpt lat="45.21091" lon="6.05101">
        <ele>1276.8</ele>
        <time>2022-06-18T10:23:33Z</time>
      </trkpt>
      <trkpt lat="45.21096" lon="6.05096">
        <ele>1277.3</ele>
        <time>2022-06-18T10:23:34Z</time>
      </trkpt>
      <trkpt lat="45.211" lon="6.05092">
        <ele>1277.7</ele>
        <time>2022-06-18T10:23:35Z</time>
      </trkpt>
      <trkpt lat="45.21105" lon="6.05089">
        <ele>1278.1</ele>
        <time>2022-06-18T10:23:36Z</time>
      </trkpt>
      <trkpt lat="45.21109" lon="6.05085">
        <ele>1278.5</ele>
        <time>2022-06-18T10:23:37Z</time>
      </trkpt>
      <trkpt lat="45.21113" lon="6.05082">
        <ele>1278.9</ele>
        <time>2022-06-18T10:23:38Z</time>
      </trkpt>
      <trkpt lat="45.21117" lon="6.05078">
        <ele>1279.3</ele>
        <time>2022-06-18T10:23:39Z</time>
      </trkpt>
      <trkpt lat="45.21117" lon="6.0507">
        <ele>1279.7</ele>
        <time>2022-06-18T10:23:41Z</time>
      </trkpt>
      <trkpt lat="45.21118" lon="6.05066">
        <ele>1280</ele>
        <time>2022-06-18T10:23:42Z</time>
      </trkpt>
      <trkpt lat="45.2112" lon="6.0506">
        <ele>1280.4</ele>
        <time>2022-06-18T10:23:43Z</time>
      </trkpt>
      <trkpt lat="45.21121" lon="6.05051">
        <ele>1280.9</ele>
        <time>2022-06-18T10:23:45Z</time>
      </trkpt>
      <trkpt lat="45.21122" lon="6.05044">
        <ele>1281.3</ele>
        <time>2022-06-18T10:23:46Z</time>
      </trkpt>
      <trkpt lat="45.21121" lon="6.05037">
        <ele>1281.8</ele>
        <time>2022-06-18T10:23:47Z</time>
      </trkpt>
      <trkpt lat="45.2112" lon="6.05029">
        <ele>1282.2</ele>
        <time>2022-06-18T10:23:48Z</time>
      </trkpt>
      <trkpt lat="45.21118" lon="6.05023">
        <ele>1282.5</ele>
        <time>2022-06-18T10:23:49Z</time>
      </trkpt>
      <trkpt lat="45.21116" lon="6.05016">
        <ele>1282.9</ele>
        <time>2022-06-18T10:23:50Z</time>
      </trkpt>
      <trkpt lat="45.21111" lon="6.0501">
        <ele>1283.3</ele>
        <time>2022-06-18T10:23:51Z</time>
      </trkpt>
      <trkpt lat="45.21107" lon="6.05006">
        <ele>1283.7</ele>
        <time>2022-06-18T10:23:52Z</time>
      </trkpt>
      <trkpt lat="45.21103" lon="6.05001">
        <ele>1284</ele>
        <time>2022-06-18T10:23:53Z</time>
      </trkpt>
      <trkpt lat="45.21099" lon="6.04996">
        <ele>1284.3</ele>
        <time>2022-06-18T10:23:54Z</time>
      </trkpt>
      <trkpt lat="45.21096" lon="6.04992">
        <ele>1284.7</ele>
        <time>2022-06-18T10:23:55Z</time>
      </trkpt>
      <trkpt lat="45.21093" lon="6.04987">
        <ele>1285</ele>
        <time>2022-06-18T10:23:56Z</time>
      </trkpt>
      <trkpt lat="45.21092" lon="6.04982">
        <ele>1285.2</ele>
        <time>2022-06-18T10:23:57Z</time>
      </trkpt>
      <trkpt lat="45.21085" lon="6.04973">
        <ele>1286</ele>
        <time>2022-06-18T10:23:59Z</time>
      </trkpt>
      <trkpt lat="45.21083" lon="6.0497">
        <ele>1286.2</ele>
        <time>2022-06-18T10:24:00Z</time>
      </trkpt>
      <trkpt lat="45.21082" lon="6.04965">
        <ele>1286.5</ele>
        <time>2022-06-18T10:24:01Z</time>
      </trkpt>
      <trkpt lat="45.21079" lon="6.04958">
        <ele>1286.9</ele>
        <time>2022-06-18T10:24:02Z</time>
      </trkpt>
      <trkpt lat="45.21079" lon="6.04949">
        <ele>1287.3</ele>
        <time>2022-06-18T10:24:03Z</time>
      </trkpt>
      <trkpt lat="45.21078" lon="6.04943">
        <ele>1287.7</ele>
        <time>2022-06-18T10:24:04Z</time>
      </trkpt>
      <trkpt lat="45.21078" lon="6.04938">
        <ele>1287.9</ele>
        <time>2022-06-18T10:24:05Z</time>
      </trkpt>
      <trkpt lat="45.21079" lon="6.04931">
        <ele>1288.3</ele>
        <time>2022-06-18T10:24:06Z</time>
      </trkpt>
      <trkpt lat="45.2108" lon="6.04928">
        <ele>1288.5</ele>
        <time>2022-06-18T10:24:07Z</time>
      </trkpt>
      <trkpt lat="45.21081" lon="6.04917">
        <ele>1289</ele>
        <time>2022-06-18T10:24:09Z</time>
      </trkpt>
      <trkpt lat="45.21082" lon="6.04909">
        <ele>1289.4</ele>
        <time>2022-06-18T10:24:10Z</time>
      </trkpt>
      <trkpt lat="45.21083" lon="6.04898">
        <ele>1290</ele>
        <time>2022-06-18T10:24:11Z</time>
      </trkpt>
      <trkpt lat="45.21083" lon="6.04891">
        <ele>1290.4</ele>
        <time>2022-06-18T10:24:12Z</time>
      </trkpt>
      <trkpt lat="45.21084" lon="6.04883">
        <ele>1290.8</ele>
        <time>2022-06-18T10:24:13Z</time>
      </trkpt>
      <trkpt lat="45.21084" lon="6.04878">
        <ele>1291.1</ele>
        <time>2022-06-18T10:24:14Z</time>
      </trkpt>
      <trkpt lat="45.21085" lon="6.04871">
        <ele>1291.4</ele>
        <time>2022-06-18T10:24:15Z</time>
      </trkpt>
      <trkpt lat="45.21086" lon="6.04864">
        <ele>1291.8</ele>
        <time>2022-06-18T10:24:16Z</time>
      </trkpt>
      <trkpt lat="45.21086" lon="6.04857">
        <ele>1292.2</ele>
        <time>2022-06-18T10:24:17Z</time>
      </trkpt>
      <trkpt lat="45.21087" lon="6.0485">
        <ele>1292.5</ele>
        <time>2022-06-18T10:24:18Z</time>
      </trkpt>
      <trkpt lat="45.21088" lon="6.04844">
        <ele>1292.9</ele>
        <time>2022-06-18T10:24:19Z</time>
      </trkpt>
      <trkpt lat="45.2109" lon="6.04838">
        <ele>1293.2</ele>
        <time>2022-06-18T10:24:20Z</time>
      </trkpt>
      <trkpt lat="45.21093" lon="6.04833">
        <ele>1293.5</ele>
        <time>2022-06-18T10:24:21Z</time>
      </trkpt>
      <trkpt lat="45.21096" lon="6.04829">
        <ele>1293.8</ele>
        <time>2022-06-18T10:24:22Z</time>
      </trkpt>
      <trkpt lat="45.211" lon="6.04826">
        <ele>1294.2</ele>
        <time>2022-06-18T10:24:23Z</time>
      </trkpt>
      <trkpt lat="45.21105" lon="6.04823">
        <ele>1294.5</ele>
        <time>2022-06-18T10:24:24Z</time>
      </trkpt>
      <trkpt lat="45.21109" lon="6.04821">
        <ele>1294.9</ele>
        <time>2022-06-18T10:24:25Z</time>
      </trkpt>
      <trkpt lat="45.21113" lon="6.04818">
        <ele>1295.3</ele>
        <time>2022-06-18T10:24:26Z</time>
      </trkpt>
      <trkpt lat="45.21117" lon="6.04815">
        <ele>1295.6</ele>
        <time>2022-06-18T10:24:27Z</time>
      </trkpt>
      <trkpt lat="45.2112" lon="6.04811">
        <ele>1295.9</ele>
        <time>2022-06-18T10:24:28Z</time>
      </trkpt>
      <trkpt lat="45.21122" lon="6.04807">
        <ele>1296.2</ele>
        <time>2022-06-18T10:24:29Z</time>
      </trkpt>
      <trkpt lat="45.21125" lon="6.04802">
        <ele>1296.5</ele>
        <time>2022-06-18T10:24:30Z</time>
      </trkpt>
      <trkpt lat="45.21127" lon="6.04797">
        <ele>1296.8</ele>
        <time>2022-06-18T10:24:31Z</time>
      </trkpt>
      <trkpt lat="45.21129" lon="6.0479">
        <ele>1297.3</ele>
        <time>2022-06-18T10:24:32Z</time>
      </trkpt>
      <trkpt lat="45.2113" lon="6.04782">
        <ele>1298.3</ele>
        <time>2022-06-18T10:24:33Z</time>
      </trkpt>
      <trkpt lat="45.21129" lon="6.04775">
        <ele>1299.5</ele>
        <time>2022-06-18T10:24:34Z</time>
      </trkpt>
      <trkpt lat="45.21127" lon="6.04767">
        <ele>1300.6</ele>
        <time>2022-06-18T10:24:35Z</time>
      </trkpt>
      <trkpt lat="45.21124" lon="6.0476">
        <ele>1301.5</ele>
        <time>2022-06-18T10:24:36Z</time>
      </trkpt>
      <trkpt lat="45.2112" lon="6.04755">
        <ele>1301.4</ele>
        <time>2022-06-18T10:24:37Z</time>
      </trkpt>
      <trkpt lat="45.21115" lon="6.0475">
        <ele>1301.4</ele>
        <time>2022-06-18T10:24:38Z</time>
      </trkpt>
      <trkpt lat="45.2111" lon="6.04747">
        <ele>1301.3</ele>
        <time>2022-06-18T10:24:39Z</time>
      </trkpt>
      <trkpt lat="45.21104" lon="6.04744">
        <ele>1301.1</ele>
        <time>2022-06-18T10:24:40Z</time>
      </trkpt>
      <trkpt lat="45.21099" lon="6.04742">
        <ele>1301</ele>
        <time>2022-06-18T10:24:41Z</time>
      </trkpt>
      <trkpt lat="45.21095" lon="6.04739">
        <ele>1300.9</ele>
        <time>2022-06-18T10:24:42Z</time>
      </trkpt>
      <trkpt lat="45.2109" lon="6.04735">
        <ele>1300.7</ele>
        <time>2022-06-18T10:24:43Z</time>
      </trkpt>
      <trkpt lat="45.21085" lon="6.04731">
        <ele>1300.6</ele>
        <time>2022-06-18T10:24:44Z</time>
      </trkpt>
      <trkpt lat="45.2108" lon="6.04728">
        <ele>1300.4</ele>
        <time>2022-06-18T10:24:45Z</time>
      </trkpt>
      <trkpt lat="45.21074" lon="6.04723">
        <ele>1300.2</ele>
        <time>2022-06-18T10:24:46Z</time>
      </trkpt>
      <trkpt lat="45.21069" lon="6.04719">
        <ele>1299.9</ele>
        <time>2022-06-18T10:24:47Z</time>
      </trkpt>
      <trkpt lat="45.21062" lon="6.04716">
        <ele>1299.7</ele>
        <time>2022-06-18T10:24:48Z</time>
      </trkpt>
      <trkpt lat="45.21055" lon="6.04713">
        <ele>1299.4</ele>
        <time>2022-06-18T10:24:49Z</time>
      </trkpt>
      <trkpt lat="45.21048" lon="6.04711">
        <ele>1299.2</ele>
        <time>2022-06-18T10:24:50Z</time>
      </trkpt>
      <trkpt lat="45.21041" lon="6.04709">
        <ele>1298.9</ele>
        <time>2022-06-18T10:24:51Z</time>
      </trkpt>
      <trkpt lat="45.21034" lon="6.04707">
        <ele>1298.7</ele>
        <time>2022-06-18T10:24:52Z</time>
      </trkpt>
      <trkpt lat="45.21028" lon="6.04704">
        <ele>1298.5</ele>
        <time>2022-06-18T10:24:53Z</time>
      </trkpt>
      <trkpt lat="45.21021" lon="6.04699">
        <ele>1298.3</ele>
        <time>2022-06-18T10:24:54Z</time>
      </trkpt>
      <trkpt lat="45.21016" lon="6.04693">
        <ele>1298.1</ele>
        <time>2022-06-18T10:24:55Z</time>
      </trkpt>
      <trkpt lat="45.2101" lon="6.04685">
        <ele>1297.8</ele>
        <time>2022-06-18T10:24:56Z</time>
      </trkpt>
      <trkpt lat="45.21005" lon="6.04677">
        <ele>1297.6</ele>
        <time>2022-06-18T10:24:57Z</time>
      </trkpt>
      <trkpt lat="45.20999" lon="6.04671">
        <ele>1297.3</ele>
        <time>2022-06-18T10:24:58Z</time>
      </trkpt>
      <trkpt lat="45.20994" lon="6.04664">
        <ele>1297</ele>
        <time>2022-06-18T10:24:59Z</time>
      </trkpt>
      <trkpt lat="45.20987" lon="6.04659">
        <ele>1296.8</ele>
        <time>2022-06-18T10:25:00Z</time>
      </trkpt>
      <trkpt lat="45.20981" lon="6.04656">
        <ele>1296.5</ele>
        <time>2022-06-18T10:25:01Z</time>
      </trkpt>
      <trkpt lat="45.20974" lon="6.04655">
        <ele>1296.2</ele>
        <time>2022-06-18T10:25:02Z</time>
      </trkpt>
      <trkpt lat="45.20966" lon="6.04655">
        <ele>1295.9</ele>
        <time>2022-06-18T10:25:03Z</time>
      </trkpt>
      <trkpt lat="45.20958" lon="6.04653">
        <ele>1295.5</ele>
        <time>2022-06-18T10:25:04Z</time>
      </trkpt>
      <trkpt lat="45.2095" lon="6.0465">
        <ele>1295.1</ele>
        <time>2022-06-18T10:25:05Z</time>
      </trkpt>
      <trkpt lat="45.20944" lon="6.04642">
        <ele>1294.8</ele>
        <time>2022-06-18T10:25:06Z</time>
      </trkpt>
      <trkpt lat="45.2094" lon="6.04631">
        <ele>1294.4</ele>
        <time>2022-06-18T10:25:07Z</time>
      </trkpt>
      <trkpt lat="45.20939" lon="6.04618">
        <ele>1294.1</ele>
        <time>2022-06-18T10:25:08Z</time>
      </trkpt>
      <trkpt lat="45.20941" lon="6.04604">
        <ele>1293.7</ele>
        <time>2022-06-18T10:25:09Z</time>
      </trkpt>
      <trkpt lat="45.20943" lon="6.0459">
        <ele>1293.3</ele>
        <time>2022-06-18T10:25:10Z</time>
      </trkpt>
      <trkpt lat="45.20946" lon="6.04577">
        <ele>1293</ele>
        <time>2022-06-18T10:25:11Z</time>
      </trkpt>
      <trkpt lat="45.20947" lon="6.04566">
        <ele>1292.7</ele>
        <time>2022-06-18T10:25:12Z</time>
      </trkpt>
      <trkpt lat="45.20949" lon="6.04556">
        <ele>1292.5</ele>
        <time>2022-06-18T10:25:13Z</time>
      </trkpt>
      <trkpt lat="45.20949" lon="6.04546">
        <ele>1292.4</ele>
        <time>2022-06-18T10:25:14Z</time>
      </trkpt>
      <trkpt lat="45.20947" lon="6.04536">
        <ele>1292.2</ele>
        <time>2022-06-18T10:25:15Z</time>
      </trkpt>
      <trkpt lat="45.20942" lon="6.04527">
        <ele>1292</ele>
        <time>2022-06-18T10:25:16Z</time>
      </trkpt>
      <trkpt lat="45.20934" lon="6.0452">
        <ele>1291.8</ele>
        <time>2022-06-18T10:25:17Z</time>
      </trkpt>
      <trkpt lat="45.20923" lon="6.04517">
        <ele>1291.6</ele>
        <time>2022-06-18T10:25:18Z</time>
      </trkpt>
      <trkpt lat="45.20914" lon="6.04518">
        <ele>1291.3</ele>
        <time>2022-06-18T10:25:19Z</time>
      </trkpt>
      <trkpt lat="45.20906" lon="6.04523">
        <ele>1291.1</ele>
        <time>2022-06-18T10:25:20Z</time>
      </trkpt>
      <trkpt lat="45.20897" lon="6.04532">
        <ele>1290.8</ele>
        <time>2022-06-18T10:25:21Z</time>
      </trkpt>
      <trkpt lat="45.2089" lon="6.04541">
        <ele>1290.6</ele>
        <time>2022-06-18T10:25:22Z</time>
      </trkpt>
      <trkpt lat="45.20883" lon="6.04549">
        <ele>1290.4</ele>
        <time>2022-06-18T10:25:23Z</time>
      </trkpt>
      <trkpt lat="45.20876" lon="6.04554">
        <ele>1290.2</ele>
        <time>2022-06-18T10:25:24Z</time>
      </trkpt>
      <trkpt lat="45.20869" lon="6.04559">
        <ele>1289.9</ele>
        <time>2022-06-18T10:25:25Z</time>
      </trkpt>
      <trkpt lat="45.20863" lon="6.04563">
        <ele>1289.7</ele>
        <time>2022-06-18T10:25:26Z</time>
      </trkpt>
      <trkpt lat="45.20855" lon="6.04563">
        <ele>1289.5</ele>
        <time>2022-06-18T10:25:27Z</time>
      </trkpt>
      <trkpt lat="45.20848" lon="6.0456">
        <ele>1289.2</ele>
        <time>2022-06-18T10:25:28Z</time>
      </trkpt>
      <trkpt lat="45.20842" lon="6.04554">
        <ele>1288.9</ele>
        <time>2022-06-18T10:25:29Z</time>
      </trkpt>
      <trkpt lat="45.20836" lon="6.04545">
        <ele>1288.6</ele>
        <time>2022-06-18T10:25:30Z</time>
      </trkpt>
      <trkpt lat="45.20831" lon="6.04535">
        <ele>1288.3</ele>
        <time>2022-06-18T10:25:31Z</time>
      </trkpt>
      <trkpt lat="45.20827" lon="6.04524">
        <ele>1287.9</ele>
        <time>2022-06-18T10:25:32Z</time>
      </trkpt>
      <trkpt lat="45.20823" lon="6.04513">
        <ele>1287.6</ele>
        <time>2022-06-18T10:25:33Z</time>
      </trkpt>
      <trkpt lat="45.20818" lon="6.04503">
        <ele>1287.3</ele>
        <time>2022-06-18T10:25:34Z</time>
      </trkpt>
      <trkpt lat="45.20813" lon="6.04495">
        <ele>1287</ele>
        <time>2022-06-18T10:25:35Z</time>
      </trkpt>
      <trkpt lat="45.20807" lon="6.04489">
        <ele>1286.7</ele>
        <time>2022-06-18T10:25:36Z</time>
      </trkpt>
      <trkpt lat="45.208" lon="6.04486">
        <ele>1286.4</ele>
        <time>2022-06-18T10:25:37Z</time>
      </trkpt>
      <trkpt lat="45.20792" lon="6.04485">
        <ele>1286.1</ele>
        <time>2022-06-18T10:25:38Z</time>
      </trkpt>
      <trkpt lat="45.20783" lon="6.04486">
        <ele>1285.8</ele>
        <time>2022-06-18T10:25:39Z</time>
      </trkpt>
      <trkpt lat="45.20775" lon="6.04488">
        <ele>1285.4</ele>
        <time>2022-06-18T10:25:40Z</time>
      </trkpt>
      <trkpt lat="45.20768" lon="6.04488">
        <ele>1285.1</ele>
        <time>2022-06-18T10:25:41Z</time>
      </trkpt>
      <trkpt lat="45.20761" lon="6.04488">
        <ele>1284.8</ele>
        <time>2022-06-18T10:25:42Z</time>
      </trkpt>
      <trkpt lat="45.20755" lon="6.04488">
        <ele>1284.6</ele>
        <time>2022-06-18T10:25:43Z</time>
      </trkpt>
      <trkpt lat="45.20748" lon="6.04487">
        <ele>1284.3</ele>
        <time>2022-06-18T10:25:44Z</time>
      </trkpt>
      <trkpt lat="45.20741" lon="6.04486">
        <ele>1284</ele>
        <time>2022-06-18T10:25:45Z</time>
      </trkpt>
      <trkpt lat="45.20734" lon="6.04484">
        <ele>1283.7</ele>
        <time>2022-06-18T10:25:46Z</time>
      </trkpt>
      <trkpt lat="45.20727" lon="6.04482">
        <ele>1283.4</ele>
        <time>2022-06-18T10:25:47Z</time>
      </trkpt>
      <trkpt lat="45.2072" lon="6.0448">
        <ele>1283.1</ele>
        <time>2022-06-18T10:25:48Z</time>
      </trkpt>
      <trkpt lat="45.20713" lon="6.04476">
        <ele>1282.8</ele>
        <time>2022-06-18T10:25:49Z</time>
      </trkpt>
      <trkpt lat="45.20706" lon="6.04472">
        <ele>1282.5</ele>
        <time>2022-06-18T10:25:50Z</time>
      </trkpt>
      <trkpt lat="45.20698" lon="6.04469">
        <ele>1282.1</ele>
        <time>2022-06-18T10:25:51Z</time>
      </trkpt>
      <trkpt lat="45.20692" lon="6.04464">
        <ele>1281.8</ele>
        <time>2022-06-18T10:25:52Z</time>
      </trkpt>
      <trkpt lat="45.20685" lon="6.04459">
        <ele>1281.5</ele>
        <time>2022-06-18T10:25:53Z</time>
      </trkpt>
      <trkpt lat="45.20678" lon="6.04455">
        <ele>1281.1</ele>
        <time>2022-06-18T10:25:54Z</time>
      </trkpt>
      <trkpt lat="45.20671" lon="6.04449">
        <ele>1280.8</ele>
        <time>2022-06-18T10:25:55Z</time>
      </trkpt>
      <trkpt lat="45.20665" lon="6.04443">
        <ele>1280.4</ele>
        <time>2022-06-18T10:25:56Z</time>
      </trkpt>
      <trkpt lat="45.20659" lon="6.04436">
        <ele>1280.1</ele>
        <time>2022-06-18T10:25:57Z</time>
      </trkpt>
      <trkpt lat="45.20653" lon="6.04429">
        <ele>1279.7</ele>
        <time>2022-06-18T10:25:58Z</time>
      </trkpt>
      <trkpt lat="45.20647" lon="6.04421">
        <ele>1279.3</ele>
        <time>2022-06-18T10:25:59Z</time>
      </trkpt>
      <trkpt lat="45.20641" lon="6.04414">
        <ele>1278.9</ele>
        <time>2022-06-18T10:26:00Z</time>
      </trkpt>
      <trkpt lat="45.20635" lon="6.04407">
        <ele>1278.5</ele>
        <time>2022-06-18T10:26:01Z</time>
      </trkpt>
      <trkpt lat="45.20629" lon="6.044">
        <ele>1278.2</ele>
        <time>2022-06-18T10:26:02Z</time>
      </trkpt>
      <trkpt lat="45.20622" lon="6.04394">
        <ele>1278.2</ele>
        <time>2022-06-18T10:26:03Z</time>
      </trkpt>
      <trkpt lat="45.20615" lon="6.04389">
        <ele>1278.3</ele>
        <time>2022-06-18T10:26:04Z</time>
      </trkpt>
      <trkpt lat="45.20607" lon="6.04385">
        <ele>1278.5</ele>
        <time>2022-06-18T10:26:05Z</time>
      </trkpt>
      <trkpt lat="45.206" lon="6.04382">
        <ele>1278.7</ele>
        <time>2022-06-18T10:26:06Z</time>
      </trkpt>
      <trkpt lat="45.20593" lon="6.04381">
        <ele>1278.8</ele>
        <time>2022-06-18T10:26:07Z</time>
      </trkpt>
      <trkpt lat="45.20585" lon="6.0438">
        <ele>1278.9</ele>
        <time>2022-06-18T10:26:08Z</time>
      </trkpt>
      <trkpt lat="45.20579" lon="6.04379">
        <ele>1279</ele>
        <time>2022-06-18T10:26:09Z</time>
      </trkpt>
      <trkpt lat="45.20573" lon="6.04377">
        <ele>1279.1</ele>
        <time>2022-06-18T10:26:10Z</time>
      </trkpt>
      <trkpt lat="45.20568" lon="6.04373">
        <ele>1279.2</ele>
        <time>2022-06-18T10:26:11Z</time>
      </trkpt>
      <trkpt lat="45.20562" lon="6.0437">
        <ele>1279.1</ele>
        <time>2022-06-18T10:26:12Z</time>
      </trkpt>
      <trkpt lat="45.20556" lon="6.04368">
        <ele>1279.1</ele>
        <time>2022-06-18T10:26:13Z</time>
      </trkpt>
      <trkpt lat="45.2055" lon="6.04365">
        <ele>1279.1</ele>
        <time>2022-06-18T10:26:14Z</time>
      </trkpt>
      <trkpt lat="45.20543" lon="6.04362">
        <ele>1279</ele>
        <time>2022-06-18T10:26:15Z</time>
      </trkpt>
      <trkpt lat="45.20537" lon="6.04359">
        <ele>1278.9</ele>
        <time>2022-06-18T10:26:16Z</time>
      </trkpt>
      <trkpt lat="45.20531" lon="6.04356">
        <ele>1278.9</ele>
        <time>2022-06-18T10:26:17Z</time>
      </trkpt>
      <trkpt lat="45.20526" lon="6.04352">
        <ele>1278.8</ele>
        <time>2022-06-18T10:26:18Z</time>
      </trkpt>
      <trkpt lat="45.20521" lon="6.04348">
        <ele>1278.7</ele>
        <time>2022-06-18T10:26:19Z</time>
      </trkpt>
      <trkpt lat="45.20516" lon="6.04343">
        <ele>1278.7</ele>
        <time>2022-06-18T10:26:20Z</time>
      </trkpt>
      <trkpt lat="45.20511" lon="6.04338">
        <ele>1278.6</ele>
        <time>2022-06-18T10:26:21Z</time>
      </trkpt>
      <trkpt lat="45.20508" lon="6.04334">
        <ele>1278.6</ele>
        <time>2022-06-18T10:26:22Z</time>
      </trkpt>
      <trkpt lat="45.20504" lon="6.04328">
        <ele>1278.6</ele>
        <time>2022-06-18T10:26:23Z</time>
      </trkpt>
      <trkpt lat="45.20501" lon="6.04322">
        <ele>1278.6</ele>
        <time>2022-06-18T10:26:24Z</time>
      </trkpt>
      <trkpt lat="45.20498" lon="6.04315">
        <ele>1278.6</ele>
        <time>2022-06-18T10:26:25Z</time>
      </trkpt>
      <trkpt lat="45.20496" lon="6.04308">
        <ele>1278.6</ele>
        <time>2022-06-18T10:26:26Z</time>
      </trkpt>
      <trkpt lat="45.20493" lon="6.04299">
        <ele>1278.5</ele>
        <time>2022-06-18T10:26:27Z</time>
      </trkpt>
      <trkpt lat="45.2049" lon="6.04291">
        <ele>1278.5</ele>
        <time>2022-06-18T10:26:28Z</time>
      </trkpt>
      <trkpt lat="45.20487" lon="6.04282">
        <ele>1278.5</ele>
        <time>2022-06-18T10:26:29Z</time>
      </trkpt>
      <trkpt lat="45.20483" lon="6.04273">
        <ele>1278.5</ele>
        <time>2022-06-18T10:26:30Z</time>
      </trkpt>
      <trkpt lat="45.2048" lon="6.04264">
        <ele>1278.6</ele>
        <time>2022-06-18T10:26:31Z</time>
      </trkpt>
      <trkpt lat="45.20477" lon="6.04255">
        <ele>1278.6</ele>
        <time>2022-06-18T10:26:32Z</time>
      </trkpt>
      <trkpt lat="45.20474" lon="6.04245">
        <ele>1278.7</ele>
        <time>2022-06-18T10:26:33Z</time>
      </trkpt>
      <trkpt lat="45.20471" lon="6.04236">
        <ele>1278.7</ele>
        <time>2022-06-18T10:26:34Z</time>
      </trkpt>
      <trkpt lat="45.20468" lon="6.04227">
        <ele>1278.8</ele>
        <time>2022-06-18T10:26:35Z</time>
      </trkpt>
      <trkpt lat="45.20465" lon="6.04218">
        <ele>1278.8</ele>
        <time>2022-06-18T10:26:36Z</time>
      </trkpt>
      <trkpt lat="45.20461" lon="6.04209">
        <ele>1278.9</ele>
        <time>2022-06-18T10:26:37Z</time>
      </trkpt>
      <trkpt lat="45.20457" lon="6.04201">
        <ele>1279</ele>
        <time>2022-06-18T10:26:38Z</time>
      </trkpt>
      <trkpt lat="45.20452" lon="6.04193">
        <ele>1279.1</ele>
        <time>2022-06-18T10:26:39Z</time>
      </trkpt>
      <trkpt lat="45.20446" lon="6.04185">
        <ele>1279.2</ele>
        <time>2022-06-18T10:26:40Z</time>
      </trkpt>
      <trkpt lat="45.2044" lon="6.04178">
        <ele>1279.3</ele>
        <time>2022-06-18T10:26:41Z</time>
      </trkpt>
      <trkpt lat="45.20434" lon="6.0417">
        <ele>1279.4</ele>
        <time>2022-06-18T10:26:42Z</time>
      </trkpt>
      <trkpt lat="45.20428" lon="6.04164">
        <ele>1279.5</ele>
        <time>2022-06-18T10:26:43Z</time>
      </trkpt>
      <trkpt lat="45.20422" lon="6.04158">
        <ele>1279.7</ele>
        <time>2022-06-18T10:26:44Z</time>
      </trkpt>
      <trkpt lat="45.20416" lon="6.04152">
        <ele>1279.7</ele>
        <time>2022-06-18T10:26:45Z</time>
      </trkpt>
      <trkpt lat="45.2041" lon="6.04147">
        <ele>1279.8</ele>
        <time>2022-06-18T10:26:46Z</time>
      </trkpt>
      <trkpt lat="45.20403" lon="6.04142">
        <ele>1279.9</ele>
        <time>2022-06-18T10:26:47Z</time>
      </trkpt>
      <trkpt lat="45.20397" lon="6.04136">
        <ele>1279.9</ele>
        <time>2022-06-18T10:26:48Z</time>
      </trkpt>
      <trkpt lat="45.20391" lon="6.04129">
        <ele>1279.9</ele>
        <time>2022-06-18T10:26:49Z</time>
      </trkpt>
      <trkpt lat="45.20385" lon="6.04123">
        <ele>1279.8</ele>
        <time>2022-06-18T10:26:50Z</time>
      </trkpt>
      <trkpt lat="45.20379" lon="6.04117">
        <ele>1279.7</ele>
        <time>2022-06-18T10:26:51Z</time>
      </trkpt>
      <trkpt lat="45.20373" lon="6.0411">
        <ele>1279.6</ele>
        <time>2022-06-18T10:26:52Z</time>
      </trkpt>
      <trkpt lat="45.20367" lon="6.04104">
        <ele>1279.4</ele>
        <time>2022-06-18T10:26:53Z</time>
      </trkpt>
      <trkpt lat="45.2036" lon="6.04098">
        <ele>1279.1</ele>
        <time>2022-06-18T10:26:54Z</time>
      </trkpt>
      <trkpt lat="45.20354" lon="6.04091">
        <ele>1278.8</ele>
        <time>2022-06-18T10:26:55Z</time>
      </trkpt>
      <trkpt lat="45.20349" lon="6.04085">
        <ele>1278.5</ele>
        <time>2022-06-18T10:26:56Z</time>
      </trkpt>
      <trkpt lat="45.20345" lon="6.0408">
        <ele>1278.3</ele>
        <time>2022-06-18T10:26:57Z</time>
      </trkpt>
      <trkpt lat="45.20341" lon="6.04076">
        <ele>1278</ele>
        <time>2022-06-18T10:26:58Z</time>
      </trkpt>
      <trkpt lat="45.20338" lon="6.04073">
        <ele>1277.9</ele>
        <time>2022-06-18T10:26:59Z</time>
      </trkpt>
      <trkpt lat="45.20336" lon="6.04069">
        <ele>1277.7</ele>
        <time>2022-06-18T10:27:00Z</time>
      </trkpt>
      <trkpt lat="45.20334" lon="6.04065">
        <ele>1277.5</ele>
        <time>2022-06-18T10:27:01Z</time>
      </trkpt>
      <trkpt lat="45.20332" lon="6.04059">
        <ele>1277.3</ele>
        <time>2022-06-18T10:27:02Z</time>
      </trkpt>
      <trkpt lat="45.20331" lon="6.04055">
        <ele>1277.2</ele>
        <time>2022-06-18T10:27:03Z</time>
      </trkpt>
      <trkpt lat="45.20329" lon="6.04051">
        <ele>1276.9</ele>
        <time>2022-06-18T10:27:04Z</time>
      </trkpt>
      <trkpt lat="45.20325" lon="6.04044">
        <ele>1276.6</ele>
        <time>2022-06-18T10:27:05Z</time>
      </trkpt>
      <trkpt lat="45.20322" lon="6.0404">
        <ele>1276.4</ele>
        <time>2022-06-18T10:27:06Z</time>
      </trkpt>
      <trkpt lat="45.20317" lon="6.04036">
        <ele>1276.1</ele>
        <time>2022-06-18T10:27:07Z</time>
      </trkpt>
      <trkpt lat="45.20311" lon="6.04032">
        <ele>1275.1</ele>
        <time>2022-06-18T10:27:08Z</time>
      </trkpt>
      <trkpt lat="45.20305" lon="6.04028">
        <ele>1274.2</ele>
        <time>2022-06-18T10:27:09Z</time>
      </trkpt>
      <trkpt lat="45.20298" lon="6.04026">
        <ele>1273.4</ele>
        <time>2022-06-18T10:27:10Z</time>
      </trkpt>
      <trkpt lat="45.20291" lon="6.04027">
        <ele>1272.5</ele>
        <time>2022-06-18T10:27:11Z</time>
      </trkpt>
      <trkpt lat="45.20283" lon="6.04029">
        <ele>1271.6</ele>
        <time>2022-06-18T10:27:12Z</time>
      </trkpt>
      <trkpt lat="45.20275" lon="6.04031">
        <ele>1270.7</ele>
        <time>2022-06-18T10:27:13Z</time>
      </trkpt>
      <trkpt lat="45.20269" lon="6.04035">
        <ele>1269.8</ele>
        <time>2022-06-18T10:27:14Z</time>
      </trkpt>
      <trkpt lat="45.20262" lon="6.04039">
        <ele>1269.1</ele>
        <time>2022-06-18T10:27:15Z</time>
      </trkpt>
      <trkpt lat="45.20258" lon="6.04044">
        <ele>1268.4</ele>
        <time>2022-06-18T10:27:16Z</time>
      </trkpt>
      <trkpt lat="45.20254" lon="6.04047">
        <ele>1267.9</ele>
        <time>2022-06-18T10:27:17Z</time>
      </trkpt>
      <trkpt lat="45.20252" lon="6.04049">
        <ele>1267.7</ele>
        <time>2022-06-18T10:27:18Z</time>
      </trkpt>
      <trkpt lat="45.20251" lon="6.0405">
        <ele>1267.5</ele>
        <time>2022-06-18T10:27:19Z</time>
      </trkpt>
      <trkpt lat="45.20251" lon="6.0405">
        <ele>1267.5</ele>
        <time>2022-06-18T10:27:20Z</time>
      </trkpt>
      <trkpt lat="45.20252" lon="6.0405">
        <ele>1267.4</ele>
        <time>2022-06-18T10:27:21Z</time>
      </trkpt>
      <trkpt lat="45.20252" lon="6.04049">
        <ele>1267.3</ele>
        <time>2022-06-18T10:27:22Z</time>
      </trkpt>
      <trkpt lat="45.20253" lon="6.04049">
        <ele>1267.2</ele>
        <time>2022-06-18T10:27:23Z</time>
      </trkpt>
      <trkpt lat="45.20253" lon="6.04049">
        <ele>1267.2</ele>
        <time>2022-06-18T10:27:24Z</time>
      </trkpt>
      <trkpt lat="45.20253" lon="6.04049">
        <ele>1267.1</ele>
        <time>2022-06-18T10:27:25Z</time>
      </trkpt>
      <trkpt lat="45.20254" lon="6.04049">
        <ele>1267</ele>
        <time>2022-06-18T10:27:26Z</time>
      </trkpt>
      <trkpt lat="45.20254" lon="6.04049">
        <ele>1267</ele>
        <time>2022-06-18T10:27:27Z</time>
      </trkpt>
      <trkpt lat="45.20254" lon="6.04049">
        <ele>1267</ele>
        <time>2022-06-18T10:27:28Z</time>
      </trkpt>
      <trkpt lat="45.20254" lon="6.04049">
        <ele>1267</ele>
        <time>2022-06-18T10:27:29Z</time>
      </trkpt>
      <trkpt lat="45.20254" lon="6.04049">
        <ele>1267</ele>
        <time>2022-06-18T10:27:30Z</time>
      </trkpt>
      <trkpt lat="45.20254" lon="6.04049">
        <ele>1267</ele>
        <time>2022-06-18T10:27:31Z</time>
      </trkpt>
      <trkpt lat="45.20254" lon="6.04049">
        <ele>1267</ele>
        <time>2022-06-18T10:27:32Z</time>
      </trkpt>
      <trkpt lat="45.20254" lon="6.04049">
        <ele>1267</ele>
        <time>2022-06-18T10:27:33Z</time>
      </trkpt>
      <trkpt lat="45.20254" lon="6.04049">
        <ele>1267</ele>
        <time>2022-06-18T10:27:34Z</time>
      </trkpt>
      <trkpt lat="45.20251" lon="6.04044">
        <ele>1266.6</ele>
        <time>2022-06-18T10:27:39Z</time>
      </trkpt>
      <trkpt lat="45.20251" lon="6.04043">
        <ele>1266.5</ele>
        <time>2022-06-18T10:27:40Z</time>
      </trkpt>
      <trkpt lat="45.20252" lon="6.04041">
        <ele>1266.3</ele>
        <time>2022-06-18T10:27:41Z</time>
      </trkpt>
      <trkpt lat="45.20252" lon="6.0404">
        <ele>1266.2</ele>
        <time>2022-06-18T10:27:43Z</time>
      </trkpt>
      <trkpt lat="45.20253" lon="6.0404">
        <ele>1266.1</ele>
        <time>2022-06-18T10:27:44Z</time>
      </trkpt>
      <trkpt lat="45.20253" lon="6.0404">
        <ele>1266.1</ele>
        <time>2022-06-18T10:27:45Z</time>
      </trkpt>
      <trkpt lat="45.20253" lon="6.0404">
        <ele>1266.1</ele>
        <time>2022-06-18T10:27:46Z</time>
      </trkpt>
      <trkpt lat="45.20253" lon="6.0404">
        <ele>1266.1</ele>
        <time>2022-06-18T10:27:48Z</time>
      </trkpt>
      <trkpt lat="45.20253" lon="6.0404">
        <ele>1266</ele>
        <time>2022-06-18T10:27:49Z</time>
      </trkpt>
      <trkpt lat="45.20253" lon="6.0404">
        <ele>1266</ele>
        <time>2022-06-18T10:27:50Z</time>
      </trkpt>
      <trkpt lat="45.20253" lon="6.0404">
        <ele>1266</ele>
        <time>2022-06-18T10:27:51Z</time>
      </trkpt>
      <trkpt lat="45.20253" lon="6.0404">
        <ele>1266</ele>
        <time>2022-06-18T10:27:52Z</time>
      </trkpt>
      <trkpt lat="45.20253" lon="6.04039">
        <ele>1265.9</ele>
        <time>2022-06-18T10:27:54Z</time>
      </trkpt>
      <trkpt lat="45.20253" lon="6.04039">
        <ele>1265.9</ele>
        <time>2022-06-18T10:27:55Z</time>
      </trkpt>
      <trkpt lat="45.20253" lon="6.04038">
        <ele>1265.8</ele>
        <time>2022-06-18T10:27:56Z</time>
      </trkpt>
      <trkpt lat="45.20253" lon="6.04037">
        <ele>1265.7</ele>
        <time>2022-06-18T10:27:58Z</time>
      </trkpt>
      <trkpt lat="45.20253" lon="6.04037">
        <ele>1265.7</ele>
        <time>2022-06-18T10:27:59Z</time>
      </trkpt>
      <trkpt lat="45.20253" lon="6.04037">
        <ele>1265.7</ele>
        <time>2022-06-18T10:28:00Z</time>
      </trkpt>
      <trkpt lat="45.20253" lon="6.04037">
        <ele>1265.7</ele>
        <time>2022-06-18T10:28:02Z</time>
      </trkpt>
      <trkpt lat="45.20253" lon="6.04037">
        <ele>1265.7</ele>
        <time>2022-06-18T10:28:03Z</time>
      </trkpt>
      <trkpt lat="45.20254" lon="6.04037">
        <ele>1265.6</ele>
        <time>2022-06-18T10:28:04Z</time>
      </trkpt>
      <trkpt lat="45.20254" lon="6.04037">
        <ele>1265.6</ele>
        <time>2022-06-18T10:28:05Z</time>
      </trkpt>
      <trkpt lat="45.20254" lon="6.04037">
        <ele>1265.6</ele>
        <time>2022-06-18T10:28:06Z</time>
      </trkpt>
      <trkpt lat="45.20254" lon="6.04037">
        <ele>1265.6</ele>
        <time>2022-06-18T10:28:07Z</time>
      </trkpt>
      <trkpt lat="45.20254" lon="6.04038">
        <ele>1265.5</ele>
        <time>2022-06-18T10:28:08Z</time>
      </trkpt>
      <trkpt lat="45.20254" lon="6.04037">
        <ele>1265.4</ele>
        <time>2022-06-18T10:28:37Z</time>
      </trkpt>
      <trkpt lat="45.20254" lon="6.04037">
        <ele>1265.4</ele>
        <time>2022-06-18T10:28:38Z</time>
      </trkpt>
      <trkpt lat="45.20254" lon="6.04037">
        <ele>1265.4</ele>
        <time>2022-06-18T10:28:39Z</time>
      </trkpt>
      <trkpt lat="45.20254" lon="6.04038">
        <ele>1265.4</ele>
        <time>2022-06-18T10:28:40Z</time>
      </trkpt>
      <trkpt lat="45.20254" lon="6.04038">
        <ele>1265.3</ele>
        <time>2022-06-18T10:28:41Z</time>
      </trkpt>
      <trkpt lat="45.20253" lon="6.04038">
        <ele>1265.3</ele>
        <time>2022-06-18T10:28:42Z</time>
      </trkpt>
      <trkpt lat="45.20253" lon="6.04038">
        <ele>1265.3</ele>
        <time>2022-06-18T10:28:43Z</time>
      </trkpt>
      <trkpt lat="45.20253" lon="6.04038">
        <ele>1265.3</ele>
        <time>2022-06-18T10:28:44Z</time>
      </trkpt>
      <trkpt lat="45.20253" lon="6.04038">
        <ele>1265.3</ele>
        <time>2022-06-18T10:28:45Z</time>
      </trkpt>
      <trkpt lat="45.20253" lon="6.04038">
        <ele>1265.2</ele>
        <time>2022-06-18T10:28:46Z</time>
      </trkpt>
      <trkpt lat="45.20253" lon="6.04038">
        <ele>1265.2</ele>
        <time>2022-06-18T10:28:47Z</time>
      </trkpt>
      <trkpt lat="45.20253" lon="6.04038">
        <ele>1265.2</ele>
        <time>2022-06-18T10:28:48Z</time>
      </trkpt>
      <trkpt lat="45.20253" lon="6.04038">
        <ele>1265.2</ele>
        <time>2022-06-18T10:28:50Z</time>
      </trkpt>
      <trkpt lat="45.20253" lon="6.04038">
        <ele>1265.2</ele>
        <time>2022-06-18T10:28:51Z</time>
      </trkpt>
      <trkpt lat="45.20253" lon="6.04039">
        <ele>1265.1</ele>
        <time>2022-06-18T10:28:52Z</time>
      </trkpt>
      <trkpt lat="45.20252" lon="6.04039">
        <ele>1265.1</ele>
        <time>2022-06-18T10:28:53Z</time>
      </trkpt>
      <trkpt lat="45.20249" lon="6.0404">
        <ele>1264.7</ele>
        <time>2022-06-18T10:28:55Z</time>
      </trkpt>
      <trkpt lat="45.20245" lon="6.0404">
        <ele>1264.3</ele>
        <time>2022-06-18T10:28:56Z</time>
      </trkpt>
      <trkpt lat="45.20244" lon="6.0404">
        <ele>1264.1</ele>
        <time>2022-06-18T10:28:57Z</time>
      </trkpt>
      <trkpt lat="45.20239" lon="6.04036">
        <ele>1264.6</ele>
        <time>2022-06-18T10:28:58Z</time>
      </trkpt>
      <trkpt lat="45.20219" lon="6.04025">
        <ele>1267.1</ele>
        <time>2022-06-18T10:28:59Z</time>
      </trkpt>
      <trkpt lat="45.20215" lon="6.04023">
        <ele>1267.6</ele>
        <time>2022-06-18T10:29:00Z</time>
      </trkpt>
      <trkpt lat="45.20209" lon="6.04019">
        <ele>1268.4</ele>
        <time>2022-06-18T10:29:01Z</time>
      </trkpt>
      <trkpt lat="45.20205" lon="6.04014">
        <ele>1269.1</ele>
        <time>2022-06-18T10:29:02Z</time>
      </trkpt>
      <trkpt lat="45.202" lon="6.0401">
        <ele>1269.7</ele>
        <time>2022-06-18T10:29:03Z</time>
      </trkpt>
      <trkpt lat="45.20196" lon="6.04005">
        <ele>1270.4</ele>
        <time>2022-06-18T10:29:04Z</time>
      </trkpt>
      <trkpt lat="45.20192" lon="6.03999">
        <ele>1271.1</ele>
        <time>2022-06-18T10:29:05Z</time>
      </trkpt>
      <trkpt lat="45.20189" lon="6.03992">
        <ele>1271.8</ele>
        <time>2022-06-18T10:29:06Z</time>
      </trkpt>
      <trkpt lat="45.20185" lon="6.03986">
        <ele>1272.5</ele>
        <time>2022-06-18T10:29:07Z</time>
      </trkpt>
      <trkpt lat="45.20182" lon="6.03979">
        <ele>1273.3</ele>
        <time>2022-06-18T10:29:08Z</time>
      </trkpt>
      <trkpt lat="45.20177" lon="6.03974">
        <ele>1274.1</ele>
        <time>2022-06-18T10:29:09Z</time>
      </trkpt>
      <trkpt lat="45.20173" lon="6.03968">
        <ele>1274.9</ele>
        <time>2022-06-18T10:29:10Z</time>
      </trkpt>
      <trkpt lat="45.20167" lon="6.03963">
        <ele>1275.7</ele>
        <time>2022-06-18T10:29:11Z</time>
      </trkpt>
      <trkpt lat="45.20162" lon="6.03959">
        <ele>1276.6</ele>
        <time>2022-06-18T10:29:12Z</time>
      </trkpt>
      <trkpt lat="45.20156" lon="6.03956">
        <ele>1277.2</ele>
        <time>2022-06-18T10:29:13Z</time>
      </trkpt>
      <trkpt lat="45.2015" lon="6.03954">
        <ele>1276.8</ele>
        <time>2022-06-18T10:29:14Z</time>
      </trkpt>
      <trkpt lat="45.20144" lon="6.03953">
        <ele>1276.5</ele>
        <time>2022-06-18T10:29:15Z</time>
      </trkpt>
      <trkpt lat="45.20138" lon="6.03953">
        <ele>1276.2</ele>
        <time>2022-06-18T10:29:16Z</time>
      </trkpt>
      <trkpt lat="45.20131" lon="6.03953">
        <ele>1275.8</ele>
        <time>2022-06-18T10:29:17Z</time>
      </trkpt>
      <trkpt lat="45.20125" lon="6.03954">
        <ele>1275.5</ele>
        <time>2022-06-18T10:29:18Z</time>
      </trkpt>
      <trkpt lat="45.20119" lon="6.03955">
        <ele>1275.2</ele>
        <time>2022-06-18T10:29:19Z</time>
      </trkpt>
      <trkpt lat="45.20114" lon="6.03955">
        <ele>1274.9</ele>
        <time>2022-06-18T10:29:20Z</time>
      </trkpt>
      <trkpt lat="45.20108" lon="6.03955">
        <ele>1274.6</ele>
        <time>2022-06-18T10:29:21Z</time>
      </trkpt>
      <trkpt lat="45.20102" lon="6.03955">
        <ele>1274.3</ele>
        <time>2022-06-18T10:29:22Z</time>
      </trkpt>
      <trkpt lat="45.20095" lon="6.03954">
        <ele>1274</ele>
        <time>2022-06-18T10:29:23Z</time>
      </trkpt>
      <trkpt lat="45.20089" lon="6.03953">
        <ele>1273.7</ele>
        <time>2022-06-18T10:29:24Z</time>
      </trkpt>
      <trkpt lat="45.20083" lon="6.0395">
        <ele>1273.4</ele>
        <time>2022-06-18T10:29:25Z</time>
      </trkpt>
      <trkpt lat="45.20077" lon="6.03948">
        <ele>1273.1</ele>
        <time>2022-06-18T10:29:26Z</time>
      </trkpt>
      <trkpt lat="45.20071" lon="6.03945">
        <ele>1272.8</ele>
        <time>2022-06-18T10:29:27Z</time>
      </trkpt>
      <trkpt lat="45.20065" lon="6.03941">
        <ele>1272.5</ele>
        <time>2022-06-18T10:29:28Z</time>
      </trkpt>
      <trkpt lat="45.20059" lon="6.03938">
        <ele>1272.2</ele>
        <time>2022-06-18T10:29:29Z</time>
      </trkpt>
      <trkpt lat="45.20054" lon="6.03935">
        <ele>1271.9</ele>
        <time>2022-06-18T10:29:30Z</time>
      </trkpt>
      <trkpt lat="45.20048" lon="6.03933">
        <ele>1271.6</ele>
        <time>2022-06-18T10:29:31Z</time>
      </trkpt>
      <trkpt lat="45.20042" lon="6.0393">
        <ele>1271.4</ele>
        <time>2022-06-18T10:29:32Z</time>
      </trkpt>
      <trkpt lat="45.20037" lon="6.03927">
        <ele>1271.1</ele>
        <time>2022-06-18T10:29:33Z</time>
      </trkpt>
      <trkpt lat="45.20032" lon="6.03925">
        <ele>1270.9</ele>
        <time>2022-06-18T10:29:34Z</time>
      </trkpt>
      <trkpt lat="45.20026" lon="6.03923">
        <ele>1270.6</ele>
        <time>2022-06-18T10:29:35Z</time>
      </trkpt>
      <trkpt lat="45.2002" lon="6.03922">
        <ele>1270.3</ele>
        <time>2022-06-18T10:29:36Z</time>
      </trkpt>
      <trkpt lat="45.20014" lon="6.03922">
        <ele>1270</ele>
        <time>2022-06-18T10:29:37Z</time>
      </trkpt>
      <trkpt lat="45.20008" lon="6.03922">
        <ele>1269.7</ele>
        <time>2022-06-18T10:29:38Z</time>
      </trkpt>
      <trkpt lat="45.20002" lon="6.03922">
        <ele>1269.4</ele>
        <time>2022-06-18T10:29:39Z</time>
      </trkpt>
      <trkpt lat="45.19996" lon="6.03921">
        <ele>1269.1</ele>
        <time>2022-06-18T10:29:40Z</time>
      </trkpt>
      <trkpt lat="45.1999" lon="6.0392">
        <ele>1268.8</ele>
        <time>2022-06-18T10:29:41Z</time>
      </trkpt>
      <trkpt lat="45.19984" lon="6.03919">
        <ele>1268.5</ele>
        <time>2022-06-18T10:29:42Z</time>
      </trkpt>
      <trkpt lat="45.19978" lon="6.03918">
        <ele>1268.2</ele>
        <time>2022-06-18T10:29:43Z</time>
      </trkpt>
      <trkpt lat="45.19971" lon="6.03918">
        <ele>1267.9</ele>
        <time>2022-06-18T10:29:44Z</time>
      </trkpt>
      <trkpt lat="45.19965" lon="6.03918">
        <ele>1267.6</ele>
        <time>2022-06-18T10:29:45Z</time>
      </trkpt>
      <trkpt lat="45.19958" lon="6.03919">
        <ele>1267.3</ele>
        <time>2022-06-18T10:29:46Z</time>
      </trkpt>
      <trkpt lat="45.19951" lon="6.03921">
        <ele>1267</ele>
        <time>2022-06-18T10:29:47Z</time>
      </trkpt>
      <trkpt lat="45.19945" lon="6.03924">
        <ele>1266.7</ele>
        <time>2022-06-18T10:29:48Z</time>
      </trkpt>
      <trkpt lat="45.19939" lon="6.03928">
        <ele>1266.4</ele>
        <time>2022-06-18T10:29:49Z</time>
      </trkpt>
      <trkpt lat="45.19933" lon="6.03931">
        <ele>1266</ele>
        <time>2022-06-18T10:29:50Z</time>
      </trkpt>
      <trkpt lat="45.19927" lon="6.03934">
        <ele>1265.7</ele>
        <time>2022-06-18T10:29:51Z</time>
      </trkpt>
      <trkpt lat="45.19921" lon="6.03935">
        <ele>1265.3</ele>
        <time>2022-06-18T10:29:52Z</time>
      </trkpt>
      <trkpt lat="45.19914" lon="6.03934">
        <ele>1264.9</ele>
        <time>2022-06-18T10:29:53Z</time>
      </trkpt>
      <trkpt lat="45.19908" lon="6.03934">
        <ele>1264.9</ele>
        <time>2022-06-18T10:29:54Z</time>
      </trkpt>
      <trkpt lat="45.19901" lon="6.03934">
        <ele>1264.3</ele>
        <time>2022-06-18T10:29:55Z</time>
      </trkpt>
      <trkpt lat="45.19895" lon="6.03936">
        <ele>1263.7</ele>
        <time>2022-06-18T10:29:56Z</time>
      </trkpt>
      <trkpt lat="45.19889" lon="6.0394">
        <ele>1263.1</ele>
        <time>2022-06-18T10:29:57Z</time>
      </trkpt>
      <trkpt lat="45.19883" lon="6.03943">
        <ele>1262.4</ele>
        <time>2022-06-18T10:29:58Z</time>
      </trkpt>
      <trkpt lat="45.19876" lon="6.03946">
        <ele>1261.7</ele>
        <time>2022-06-18T10:29:59Z</time>
      </trkpt>
      <trkpt lat="45.19868" lon="6.03947">
        <ele>1260.9</ele>
        <time>2022-06-18T10:30:00Z</time>
      </trkpt>
      <trkpt lat="45.1986" lon="6.03945">
        <ele>1260</ele>
        <time>2022-06-18T10:30:01Z</time>
      </trkpt>
      <trkpt lat="45.19851" lon="6.03941">
        <ele>1259.5</ele>
        <time>2022-06-18T10:30:02Z</time>
      </trkpt>
      <trkpt lat="45.19843" lon="6.03936">
        <ele>1259</ele>
        <time>2022-06-18T10:30:03Z</time>
      </trkpt>
      <trkpt lat="45.19834" lon="6.03931">
        <ele>1258.4</ele>
        <time>2022-06-18T10:30:04Z</time>
      </trkpt>
      <trkpt lat="45.19826" lon="6.03926">
        <ele>1257.8</ele>
        <time>2022-06-18T10:30:05Z</time>
      </trkpt>
      <trkpt lat="45.19817" lon="6.03922">
        <ele>1257.1</ele>
        <time>2022-06-18T10:30:06Z</time>
      </trkpt>
      <trkpt lat="45.19807" lon="6.03919">
        <ele>1256.3</ele>
        <time>2022-06-18T10:30:07Z</time>
      </trkpt>
      <trkpt lat="45.19797" lon="6.03916">
        <ele>1255.5</ele>
        <time>2022-06-18T10:30:08Z</time>
      </trkpt>
      <trkpt lat="45.19787" lon="6.03913">
        <ele>1254.6</ele>
        <time>2022-06-18T10:30:09Z</time>
      </trkpt>
      <trkpt lat="45.19777" lon="6.0391">
        <ele>1253.6</ele>
        <time>2022-06-18T10:30:10Z</time>
      </trkpt>
      <trkpt lat="45.19766" lon="6.03907">
        <ele>1252.7</ele>
        <time>2022-06-18T10:30:11Z</time>
      </trkpt>
      <trkpt lat="45.19755" lon="6.03905">
        <ele>1251.6</ele>
        <time>2022-06-18T10:30:12Z</time>
      </trkpt>
      <trkpt lat="45.19744" lon="6.03902">
        <ele>1250.6</ele>
        <time>2022-06-18T10:30:13Z</time>
      </trkpt>
      <trkpt lat="45.19733" lon="6.03901">
        <ele>1249.6</ele>
        <time>2022-06-18T10:30:14Z</time>
      </trkpt>
      <trkpt lat="45.19722" lon="6.03901">
        <ele>1248.5</ele>
        <time>2022-06-18T10:30:15Z</time>
      </trkpt>
      <trkpt lat="45.1971" lon="6.03901">
        <ele>1247.3</ele>
        <time>2022-06-18T10:30:16Z</time>
      </trkpt>
      <trkpt lat="45.19699" lon="6.039">
        <ele>1246.1</ele>
        <time>2022-06-18T10:30:17Z</time>
      </trkpt>
      <trkpt lat="45.19687" lon="6.03898">
        <ele>1244.8</ele>
        <time>2022-06-18T10:30:18Z</time>
      </trkpt>
      <trkpt lat="45.19675" lon="6.03896">
        <ele>1243.6</ele>
        <time>2022-06-18T10:30:19Z</time>
      </trkpt>
      <trkpt lat="45.19662" lon="6.03893">
        <ele>1242.5</ele>
        <time>2022-06-18T10:30:20Z</time>
      </trkpt>
      <trkpt lat="45.1965" lon="6.03891">
        <ele>1241.4</ele>
        <time>2022-06-18T10:30:21Z</time>
      </trkpt>
      <trkpt lat="45.19637" lon="6.03888">
        <ele>1240.4</ele>
        <time>2022-06-18T10:30:22Z</time>
      </trkpt>
      <trkpt lat="45.19624" lon="6.03886">
        <ele>1239.4</ele>
        <time>2022-06-18T10:30:23Z</time>
      </trkpt>
      <trkpt lat="45.19611" lon="6.03883">
        <ele>1238.5</ele>
        <time>2022-06-18T10:30:24Z</time>
      </trkpt>
      <trkpt lat="45.196" lon="6.0388">
        <ele>1237.7</ele>
        <time>2022-06-18T10:30:25Z</time>
      </trkpt>
      <trkpt lat="45.19588" lon="6.03874">
        <ele>1236.8</ele>
        <time>2022-06-18T10:30:26Z</time>
      </trkpt>
      <trkpt lat="45.19577" lon="6.03865">
        <ele>1235.8</ele>
        <time>2022-06-18T10:30:27Z</time>
      </trkpt>
      <trkpt lat="45.19567" lon="6.03855">
        <ele>1234.7</ele>
        <time>2022-06-18T10:30:28Z</time>
      </trkpt>
      <trkpt lat="45.19556" lon="6.03845">
        <ele>1233.5</ele>
        <time>2022-06-18T10:30:29Z</time>
      </trkpt>
      <trkpt lat="45.19545" lon="6.03835">
        <ele>1232.3</ele>
        <time>2022-06-18T10:30:30Z</time>
      </trkpt>
      <trkpt lat="45.19534" lon="6.03825">
        <ele>1231</ele>
        <time>2022-06-18T10:30:31Z</time>
      </trkpt>
      <trkpt lat="45.19523" lon="6.03817">
        <ele>1229.9</ele>
        <time>2022-06-18T10:30:32Z</time>
      </trkpt>
      <trkpt lat="45.19514" lon="6.03812">
        <ele>1228.8</ele>
        <time>2022-06-18T10:30:33Z</time>
      </trkpt>
      <trkpt lat="45.19503" lon="6.0381">
        <ele>1227.7</ele>
        <time>2022-06-18T10:30:34Z</time>
      </trkpt>
      <trkpt lat="45.19491" lon="6.0381">
        <ele>1226.5</ele>
        <time>2022-06-18T10:30:35Z</time>
      </trkpt>
      <trkpt lat="45.19478" lon="6.03811">
        <ele>1225.1</ele>
        <time>2022-06-18T10:30:36Z</time>
      </trkpt>
      <trkpt lat="45.19465" lon="6.03812">
        <ele>1223.8</ele>
        <time>2022-06-18T10:30:37Z</time>
      </trkpt>
      <trkpt lat="45.19453" lon="6.0381">
        <ele>1222.5</ele>
        <time>2022-06-18T10:30:38Z</time>
      </trkpt>
      <trkpt lat="45.19442" lon="6.03807">
        <ele>1221.3</ele>
        <time>2022-06-18T10:30:39Z</time>
      </trkpt>
      <trkpt lat="45.1943" lon="6.03801">
        <ele>1220</ele>
        <time>2022-06-18T10:30:40Z</time>
      </trkpt>
      <trkpt lat="45.19418" lon="6.03795">
        <ele>1218.7</ele>
        <time>2022-06-18T10:30:41Z</time>
      </trkpt>
      <trkpt lat="45.19406" lon="6.03789">
        <ele>1217.3</ele>
        <time>2022-06-18T10:30:42Z</time>
      </trkpt>
      <trkpt lat="45.19394" lon="6.03781">
        <ele>1216</ele>
        <time>2022-06-18T10:30:43Z</time>
      </trkpt>
      <trkpt lat="45.19381" lon="6.03773">
        <ele>1214.6</ele>
        <time>2022-06-18T10:30:44Z</time>
      </trkpt>
      <trkpt lat="45.19369" lon="6.03765">
        <ele>1213.2</ele>
        <time>2022-06-18T10:30:45Z</time>
      </trkpt>
      <trkpt lat="45.19358" lon="6.03757">
        <ele>1211.9</ele>
        <time>2022-06-18T10:30:46Z</time>
      </trkpt>
      <trkpt lat="45.19347" lon="6.03748">
        <ele>1210.6</ele>
        <time>2022-06-18T10:30:47Z</time>
      </trkpt>
      <trkpt lat="45.19338" lon="6.03739">
        <ele>1209.3</ele>
        <time>2022-06-18T10:30:48Z</time>
      </trkpt>
      <trkpt lat="45.19329" lon="6.03728">
        <ele>1208</ele>
        <time>2022-06-18T10:30:49Z</time>
      </trkpt>
      <trkpt lat="45.19319" lon="6.03716">
        <ele>1206.6</ele>
        <time>2022-06-18T10:30:50Z</time>
      </trkpt>
      <trkpt lat="45.19309" lon="6.03705">
        <ele>1205.2</ele>
        <time>2022-06-18T10:30:51Z</time>
      </trkpt>
      <trkpt lat="45.19299" lon="6.03694">
        <ele>1203.8</ele>
        <time>2022-06-18T10:30:52Z</time>
      </trkpt>
      <trkpt lat="45.19289" lon="6.03686">
        <ele>1202.6</ele>
        <time>2022-06-18T10:30:53Z</time>
      </trkpt>
      <trkpt lat="45.19279" lon="6.0368">
        <ele>1201.5</ele>
        <time>2022-06-18T10:30:54Z</time>
      </trkpt>
      <trkpt lat="45.19267" lon="6.03675">
        <ele>1200.3</ele>
        <time>2022-06-18T10:30:55Z</time>
      </trkpt>
      <trkpt lat="45.19255" lon="6.03673">
        <ele>1199</ele>
        <time>2022-06-18T10:30:56Z</time>
      </trkpt>
      <trkpt lat="45.19243" lon="6.03672">
        <ele>1197.7</ele>
        <time>2022-06-18T10:30:57Z</time>
      </trkpt>
      <trkpt lat="45.19231" lon="6.03672">
        <ele>1196.4</ele>
        <time>2022-06-18T10:30:58Z</time>
      </trkpt>
      <trkpt lat="45.1922" lon="6.03672">
        <ele>1195.2</ele>
        <time>2022-06-18T10:30:59Z</time>
      </trkpt>
      <trkpt lat="45.19209" lon="6.03671">
        <ele>1194</ele>
        <time>2022-06-18T10:31:00Z</time>
      </trkpt>
      <trkpt lat="45.192" lon="6.03668">
        <ele>1192.9</ele>
        <time>2022-06-18T10:31:01Z</time>
      </trkpt>
      <trkpt lat="45.19189" lon="6.03662">
        <ele>1191.7</ele>
        <time>2022-06-18T10:31:02Z</time>
      </trkpt>
      <trkpt lat="45.1918" lon="6.03654">
        <ele>1190.6</ele>
        <time>2022-06-18T10:31:03Z</time>
      </trkpt>
      <trkpt lat="45.1917" lon="6.03648">
        <ele>1189.5</ele>
        <time>2022-06-18T10:31:04Z</time>
      </trkpt>
      <trkpt lat="45.19159" lon="6.03643">
        <ele>1188.4</ele>
        <time>2022-06-18T10:31:05Z</time>
      </trkpt>
      <trkpt lat="45.19149" lon="6.03641">
        <ele>1187.3</ele>
        <time>2022-06-18T10:31:06Z</time>
      </trkpt>
      <trkpt lat="45.19139" lon="6.03639">
        <ele>1186.3</ele>
        <time>2022-06-18T10:31:07Z</time>
      </trkpt>
      <trkpt lat="45.19129" lon="6.03636">
        <ele>1185.3</ele>
        <time>2022-06-18T10:31:08Z</time>
      </trkpt>
      <trkpt lat="45.19119" lon="6.03634">
        <ele>1184.2</ele>
        <time>2022-06-18T10:31:09Z</time>
      </trkpt>
      <trkpt lat="45.19109" lon="6.03631">
        <ele>1183.1</ele>
        <time>2022-06-18T10:31:10Z</time>
      </trkpt>
      <trkpt lat="45.19099" lon="6.03628">
        <ele>1182</ele>
        <time>2022-06-18T10:31:11Z</time>
      </trkpt>
      <trkpt lat="45.19089" lon="6.03625">
        <ele>1180.9</ele>
        <time>2022-06-18T10:31:12Z</time>
      </trkpt>
      <trkpt lat="45.19079" lon="6.03622">
        <ele>1179.8</ele>
        <time>2022-06-18T10:31:13Z</time>
      </trkpt>
      <trkpt lat="45.1907" lon="6.03618">
        <ele>1178.7</ele>
        <time>2022-06-18T10:31:14Z</time>
      </trkpt>
      <trkpt lat="45.1906" lon="6.03615">
        <ele>1177.7</ele>
        <time>2022-06-18T10:31:15Z</time>
      </trkpt>
      <trkpt lat="45.1905" lon="6.03611">
        <ele>1176.7</ele>
        <time>2022-06-18T10:31:16Z</time>
      </trkpt>
      <trkpt lat="45.19041" lon="6.03607">
        <ele>1175.8</ele>
        <time>2022-06-18T10:31:17Z</time>
      </trkpt>
      <trkpt lat="45.19032" lon="6.03604">
        <ele>1174.9</ele>
        <time>2022-06-18T10:31:18Z</time>
      </trkpt>
      <trkpt lat="45.19024" lon="6.036">
        <ele>1174</ele>
        <time>2022-06-18T10:31:19Z</time>
      </trkpt>
      <trkpt lat="45.19015" lon="6.03596">
        <ele>1173</ele>
        <time>2022-06-18T10:31:20Z</time>
      </trkpt>
      <trkpt lat="45.19007" lon="6.03591">
        <ele>1172.1</ele>
        <time>2022-06-18T10:31:21Z</time>
      </trkpt>
      <trkpt lat="45.18999" lon="6.03586">
        <ele>1171.2</ele>
        <time>2022-06-18T10:31:22Z</time>
      </trkpt>
      <trkpt lat="45.18991" lon="6.0358">
        <ele>1170.3</ele>
        <time>2022-06-18T10:31:23Z</time>
      </trkpt>
      <trkpt lat="45.18983" lon="6.03574">
        <ele>1169.4</ele>
        <time>2022-06-18T10:31:24Z</time>
      </trkpt>
      <trkpt lat="45.18974" lon="6.03569">
        <ele>1168.4</ele>
        <time>2022-06-18T10:31:25Z</time>
      </trkpt>
      <trkpt lat="45.18965" lon="6.03565">
        <ele>1167.4</ele>
        <time>2022-06-18T10:31:26Z</time>
      </trkpt>
      <trkpt lat="45.18955" lon="6.03561">
        <ele>1166.3</ele>
        <time>2022-06-18T10:31:27Z</time>
      </trkpt>
      <trkpt lat="45.18945" lon="6.03559">
        <ele>1165.2</ele>
        <time>2022-06-18T10:31:28Z</time>
      </trkpt>
      <trkpt lat="45.18935" lon="6.03556">
        <ele>1164.1</ele>
        <time>2022-06-18T10:31:29Z</time>
      </trkpt>
      <trkpt lat="45.18925" lon="6.03554">
        <ele>1163.1</ele>
        <time>2022-06-18T10:31:30Z</time>
      </trkpt>
      <trkpt lat="45.18915" lon="6.0355">
        <ele>1162</ele>
        <time>2022-06-18T10:31:31Z</time>
      </trkpt>
      <trkpt lat="45.18905" lon="6.03545">
        <ele>1160.9</ele>
        <time>2022-06-18T10:31:32Z</time>
      </trkpt>
      <trkpt lat="45.18895" lon="6.03539">
        <ele>1159.7</ele>
        <time>2022-06-18T10:31:33Z</time>
      </trkpt>
      <trkpt lat="45.18885" lon="6.03533">
        <ele>1158.5</ele>
        <time>2022-06-18T10:31:34Z</time>
      </trkpt>
      <trkpt lat="45.18875" lon="6.03526">
        <ele>1157.3</ele>
        <time>2022-06-18T10:31:35Z</time>
      </trkpt>
      <trkpt lat="45.18865" lon="6.03519">
        <ele>1156.2</ele>
        <time>2022-06-18T10:31:36Z</time>
      </trkpt>
      <trkpt lat="45.18855" lon="6.03512">
        <ele>1155</ele>
        <time>2022-06-18T10:31:37Z</time>
      </trkpt>
      <trkpt lat="45.18844" lon="6.03505">
        <ele>1153.9</ele>
        <time>2022-06-18T10:31:38Z</time>
      </trkpt>
      <trkpt lat="45.18834" lon="6.03499">
        <ele>1152.7</ele>
        <time>2022-06-18T10:31:39Z</time>
      </trkpt>
      <trkpt lat="45.18823" lon="6.03492">
        <ele>1151.4</ele>
        <time>2022-06-18T10:31:40Z</time>
      </trkpt>
      <trkpt lat="45.18813" lon="6.03485">
        <ele>1150.3</ele>
        <time>2022-06-18T10:31:41Z</time>
      </trkpt>
      <trkpt lat="45.18803" lon="6.03477">
        <ele>1149.1</ele>
        <time>2022-06-18T10:31:42Z</time>
      </trkpt>
      <trkpt lat="45.18793" lon="6.03469">
        <ele>1147.9</ele>
        <time>2022-06-18T10:31:43Z</time>
      </trkpt>
      <trkpt lat="45.18783" lon="6.03461">
        <ele>1146.6</ele>
        <time>2022-06-18T10:31:44Z</time>
      </trkpt>
      <trkpt lat="45.18773" lon="6.03451">
        <ele>1145.4</ele>
        <time>2022-06-18T10:31:45Z</time>
      </trkpt>
      <trkpt lat="45.18764" lon="6.03442">
        <ele>1144.2</ele>
        <time>2022-06-18T10:31:46Z</time>
      </trkpt>
      <trkpt lat="45.18753" lon="6.03432">
        <ele>1143</ele>
        <time>2022-06-18T10:31:47Z</time>
      </trkpt>
      <trkpt lat="45.18742" lon="6.03423">
        <ele>1141.8</ele>
        <time>2022-06-18T10:31:48Z</time>
      </trkpt>
      <trkpt lat="45.18731" lon="6.03415">
        <ele>1140.7</ele>
        <time>2022-06-18T10:31:49Z</time>
      </trkpt>
      <trkpt lat="45.18721" lon="6.03407">
        <ele>1139.8</ele>
        <time>2022-06-18T10:31:50Z</time>
      </trkpt>
      <trkpt lat="45.18711" lon="6.034">
        <ele>1138.9</ele>
        <time>2022-06-18T10:31:51Z</time>
      </trkpt>
      <trkpt lat="45.18702" lon="6.03395">
        <ele>1138.2</ele>
        <time>2022-06-18T10:31:52Z</time>
      </trkpt>
      <trkpt lat="45.18693" lon="6.03394">
        <ele>1137.5</ele>
        <time>2022-06-18T10:31:53Z</time>
      </trkpt>
      <trkpt lat="45.18684" lon="6.03396">
        <ele>1136.2</ele>
        <time>2022-06-18T10:31:54Z</time>
      </trkpt>
      <trkpt lat="45.18674" lon="6.03402">
        <ele>1134.8</ele>
        <time>2022-06-18T10:31:55Z</time>
      </trkpt>
      <trkpt lat="45.18665" lon="6.03408">
        <ele>1133.5</ele>
        <time>2022-06-18T10:31:56Z</time>
      </trkpt>
      <trkpt lat="45.18656" lon="6.03413">
        <ele>1132.2</ele>
        <time>2022-06-18T10:31:57Z</time>
      </trkpt>
      <trkpt lat="45.18645" lon="6.03417">
        <ele>1130.9</ele>
        <time>2022-06-18T10:31:58Z</time>
      </trkpt>
      <trkpt lat="45.18635" lon="6.03421">
        <ele>1129.5</ele>
        <time>2022-06-18T10:31:59Z</time>
      </trkpt>
      <trkpt lat="45.18624" lon="6.03426">
        <ele>1128.4</ele>
        <time>2022-06-18T10:32:00Z</time>
      </trkpt>
      <trkpt lat="45.18613" lon="6.03431">
        <ele>1127.3</ele>
        <time>2022-06-18T10:32:01Z</time>
      </trkpt>
      <trkpt lat="45.18603" lon="6.03437">
        <ele>1126.2</ele>
        <time>2022-06-18T10:32:02Z</time>
      </trkpt>
      <trkpt lat="45.18592" lon="6.03443">
        <ele>1125.1</ele>
        <time>2022-06-18T10:32:03Z</time>
      </trkpt>
      <trkpt lat="45.18583" lon="6.03449">
        <ele>1123.9</ele>
        <time>2022-06-18T10:32:04Z</time>
      </trkpt>
      <trkpt lat="45.18573" lon="6.03456">
        <ele>1122.7</ele>
        <time>2022-06-18T10:32:05Z</time>
      </trkpt>
      <trkpt lat="45.18564" lon="6.03461">
        <ele>1121.6</ele>
        <time>2022-06-18T10:32:06Z</time>
      </trkpt>
      <trkpt lat="45.18555" lon="6.03466">
        <ele>1120.5</ele>
        <time>2022-06-18T10:32:07Z</time>
      </trkpt>
      <trkpt lat="45.18545" lon="6.03468">
        <ele>1119.4</ele>
        <time>2022-06-18T10:32:08Z</time>
      </trkpt>
      <trkpt lat="45.18533" lon="6.03469">
        <ele>1118.2</ele>
        <time>2022-06-18T10:32:09Z</time>
      </trkpt>
      <trkpt lat="45.18521" lon="6.03468">
        <ele>1116.9</ele>
        <time>2022-06-18T10:32:10Z</time>
      </trkpt>
      <trkpt lat="45.18509" lon="6.03468">
        <ele>1115.7</ele>
        <time>2022-06-18T10:32:11Z</time>
      </trkpt>
      <trkpt lat="45.18498" lon="6.03467">
        <ele>1114.6</ele>
        <time>2022-06-18T10:32:12Z</time>
      </trkpt>
      <trkpt lat="45.18488" lon="6.03468">
        <ele>1113.5</ele>
        <time>2022-06-18T10:32:13Z</time>
      </trkpt>
      <trkpt lat="45.18479" lon="6.0347">
        <ele>1112.6</ele>
        <time>2022-06-18T10:32:14Z</time>
      </trkpt>
      <trkpt lat="45.18472" lon="6.03472">
        <ele>1111.8</ele>
        <time>2022-06-18T10:32:15Z</time>
      </trkpt>
      <trkpt lat="45.18465" lon="6.03475">
        <ele>1111.1</ele>
        <time>2022-06-18T10:32:16Z</time>
      </trkpt>
      <trkpt lat="45.1846" lon="6.03477">
        <ele>1110.5</ele>
        <time>2022-06-18T10:32:17Z</time>
      </trkpt>
      <trkpt lat="45.18456" lon="6.03478">
        <ele>1110.1</ele>
        <time>2022-06-18T10:32:18Z</time>
      </trkpt>
      <trkpt lat="45.18454" lon="6.03479">
        <ele>1109.9</ele>
        <time>2022-06-18T10:32:19Z</time>
      </trkpt>
      <trkpt lat="45.18452" lon="6.03479">
        <ele>1109.7</ele>
        <time>2022-06-18T10:32:20Z</time>
      </trkpt>
      <trkpt lat="45.18452" lon="6.03479">
        <ele>1109.7</ele>
        <time>2022-06-18T10:32:21Z</time>
      </trkpt>
      <trkpt lat="45.18452" lon="6.03479">
        <ele>1109.7</ele>
        <time>2022-06-18T10:32:22Z</time>
      </trkpt>
      <trkpt lat="45.18452" lon="6.03478">
        <ele>1109.6</ele>
        <time>2022-06-18T10:32:23Z</time>
      </trkpt>
      <trkpt lat="45.18453" lon="6.03478">
        <ele>1109.6</ele>
        <time>2022-06-18T10:32:24Z</time>
      </trkpt>
      <trkpt lat="45.18453" lon="6.03477">
        <ele>1109.5</ele>
        <time>2022-06-18T10:32:25Z</time>
      </trkpt>
      <trkpt lat="45.18453" lon="6.03477">
        <ele>1109.5</ele>
        <time>2022-06-18T10:32:26Z</time>
      </trkpt>
      <trkpt lat="45.18453" lon="6.03477">
        <ele>1109.4</ele>
        <time>2022-06-18T10:32:27Z</time>
      </trkpt>
      <trkpt lat="45.18454" lon="6.03477">
        <ele>1109.4</ele>
        <time>2022-06-18T10:32:28Z</time>
      </trkpt>
      <trkpt lat="45.18454" lon="6.03477">
        <ele>1109.4</ele>
        <time>2022-06-18T10:32:29Z</time>
      </trkpt>
      <trkpt lat="45.18454" lon="6.03477">
        <ele>1109.4</ele>
        <time>2022-06-18T10:32:30Z</time>
      </trkpt>
      <trkpt lat="45.18454" lon="6.03477">
        <ele>1109.4</ele>
        <time>2022-06-18T10:32:31Z</time>
      </trkpt>
      <trkpt lat="45.18454" lon="6.03477">
        <ele>1109.4</ele>
        <time>2022-06-18T10:32:32Z</time>
      </trkpt>
      <trkpt lat="45.18454" lon="6.03477">
        <ele>1109.4</ele>
        <time>2022-06-18T10:32:33Z</time>
      </trkpt>
      <trkpt lat="45.18454" lon="6.03477">
        <ele>1109.4</ele>
        <time>2022-06-18T10:32:34Z</time>
      </trkpt>
      <trkpt lat="45.18453" lon="6.03467">
        <ele>1108.7</ele>
        <time>2022-06-18T10:49:12Z</time>
      </trkpt>
      <trkpt lat="45.18453" lon="6.03467">
        <ele>1108.7</ele>
        <time>2022-06-18T10:49:13Z</time>
      </trkpt>
      <trkpt lat="45.18453" lon="6.03467">
        <ele>1108.7</ele>
        <time>2022-06-18T10:49:14Z</time>
      </trkpt>
      <trkpt lat="45.18453" lon="6.03468">
        <ele>1108.7</ele>
        <time>2022-06-18T10:49:15Z</time>
      </trkpt>
      <trkpt lat="45.18453" lon="6.03467">
        <ele>1108.7</ele>
        <time>2022-06-18T10:49:16Z</time>
      </trkpt>
      <trkpt lat="45.18453" lon="6.03467">
        <ele>1108.6</ele>
        <time>2022-06-18T10:49:17Z</time>
      </trkpt>
      <trkpt lat="45.18453" lon="6.03467">
        <ele>1108.6</ele>
        <time>2022-06-18T10:49:19Z</time>
      </trkpt>
      <trkpt lat="45.18453" lon="6.03468">
        <ele>1108.6</ele>
        <time>2022-06-18T10:49:20Z</time>
      </trkpt>
      <trkpt lat="45.18453" lon="6.03468">
        <ele>1108.6</ele>
        <time>2022-06-18T10:49:21Z</time>
      </trkpt>
      <trkpt lat="45.18453" lon="6.03468">
        <ele>1108.5</ele>
        <time>2022-06-18T10:49:22Z</time>
      </trkpt>
      <trkpt lat="45.18453" lon="6.03469">
        <ele>1108.5</ele>
        <time>2022-06-18T10:49:23Z</time>
      </trkpt>
      <trkpt lat="45.18453" lon="6.03469">
        <ele>1108.5</ele>
        <time>2022-06-18T10:49:24Z</time>
      </trkpt>
      <trkpt lat="45.18454" lon="6.03469">
        <ele>1108.5</ele>
        <time>2022-06-18T10:49:25Z</time>
      </trkpt>
      <trkpt lat="45.18454" lon="6.03469">
        <ele>1108.5</ele>
        <time>2022-06-18T10:49:26Z</time>
      </trkpt>
      <trkpt lat="45.18454" lon="6.03469">
        <ele>1108.4</ele>
        <time>2022-06-18T10:49:27Z</time>
      </trkpt>
      <trkpt lat="45.18454" lon="6.03469">
        <ele>1108.4</ele>
        <time>2022-06-18T10:49:28Z</time>
      </trkpt>
      <trkpt lat="45.18454" lon="6.0347">
        <ele>1108.4</ele>
        <time>2022-06-18T10:49:29Z</time>
      </trkpt>
      <trkpt lat="45.18453" lon="6.0347">
        <ele>1108.4</ele>
        <time>2022-06-18T10:49:30Z</time>
      </trkpt>
      <trkpt lat="45.18453" lon="6.0347">
        <ele>1108.3</ele>
        <time>2022-06-18T10:49:32Z</time>
      </trkpt>
      <trkpt lat="45.18451" lon="6.03469">
        <ele>1108.2</ele>
        <time>2022-06-18T10:49:33Z</time>
      </trkpt>
      <trkpt lat="45.1845" lon="6.03469">
        <ele>1108</ele>
        <time>2022-06-18T10:49:34Z</time>
      </trkpt>
      <trkpt lat="45.1844" lon="6.0347">
        <ele>1106.9</ele>
        <time>2022-06-18T10:49:35Z</time>
      </trkpt>
      <trkpt lat="45.1843" lon="6.03471">
        <ele>1105.9</ele>
        <time>2022-06-18T10:49:36Z</time>
      </trkpt>
      <trkpt lat="45.18421" lon="6.03473">
        <ele>1104.9</ele>
        <time>2022-06-18T10:49:37Z</time>
      </trkpt>
      <trkpt lat="45.18409" lon="6.03475">
        <ele>1103.5</ele>
        <time>2022-06-18T10:49:38Z</time>
      </trkpt>
      <trkpt lat="45.18397" lon="6.03478">
        <ele>1102.2</ele>
        <time>2022-06-18T10:49:39Z</time>
      </trkpt>
      <trkpt lat="45.18386" lon="6.03481">
        <ele>1101</ele>
        <time>2022-06-18T10:49:40Z</time>
      </trkpt>
      <trkpt lat="45.18375" lon="6.03483">
        <ele>1099.7</ele>
        <time>2022-06-18T10:49:41Z</time>
      </trkpt>
      <trkpt lat="45.18363" lon="6.03485">
        <ele>1098.4</ele>
        <time>2022-06-18T10:49:42Z</time>
      </trkpt>
      <trkpt lat="45.18352" lon="6.03488">
        <ele>1097.2</ele>
        <time>2022-06-18T10:49:43Z</time>
      </trkpt>
      <trkpt lat="45.1834" lon="6.0349">
        <ele>1095.9</ele>
        <time>2022-06-18T10:49:44Z</time>
      </trkpt>
      <trkpt lat="45.18329" lon="6.03493">
        <ele>1094.6</ele>
        <time>2022-06-18T10:49:45Z</time>
      </trkpt>
      <trkpt lat="45.18317" lon="6.03496">
        <ele>1093.4</ele>
        <time>2022-06-18T10:49:46Z</time>
      </trkpt>
      <trkpt lat="45.18305" lon="6.03499">
        <ele>1092.3</ele>
        <time>2022-06-18T10:49:47Z</time>
      </trkpt>
      <trkpt lat="45.18293" lon="6.03502">
        <ele>1091.2</ele>
        <time>2022-06-18T10:49:48Z</time>
      </trkpt>
      <trkpt lat="45.18279" lon="6.03504">
        <ele>1090.1</ele>
        <time>2022-06-18T10:49:49Z</time>
      </trkpt>
      <trkpt lat="45.18266" lon="6.03506">
        <ele>1089</ele>
        <time>2022-06-18T10:49:50Z</time>
      </trkpt>
      <trkpt lat="45.18253" lon="6.03506">
        <ele>1087.9</ele>
        <time>2022-06-18T10:49:51Z</time>
      </trkpt>
      <trkpt lat="45.18241" lon="6.03505">
        <ele>1086.9</ele>
        <time>2022-06-18T10:49:52Z</time>
      </trkpt>
      <trkpt lat="45.1823" lon="6.03504">
        <ele>1085.9</ele>
        <time>2022-06-18T10:49:53Z</time>
      </trkpt>
      <trkpt lat="45.18221" lon="6.03504">
        <ele>1084.9</ele>
        <time>2022-06-18T10:49:54Z</time>
      </trkpt>
      <trkpt lat="45.18211" lon="6.03505">
        <ele>1083.9</ele>
        <time>2022-06-18T10:49:55Z</time>
      </trkpt>
      <trkpt lat="45.18201" lon="6.03507">
        <ele>1082.9</ele>
        <time>2022-06-18T10:49:56Z</time>
      </trkpt>
      <trkpt lat="45.18191" lon="6.03509">
        <ele>1081.8</ele>
        <time>2022-06-18T10:49:57Z</time>
      </trkpt>
      <trkpt lat="45.1818" lon="6.03513">
        <ele>1080.7</ele>
        <time>2022-06-18T10:49:58Z</time>
      </trkpt>
      <trkpt lat="45.18168" lon="6.03518">
        <ele>1079.4</ele>
        <time>2022-06-18T10:49:59Z</time>
      </trkpt>
      <trkpt lat="45.18157" lon="6.03525">
        <ele>1078</ele>
        <time>2022-06-18T10:50:00Z</time>
      </trkpt>
      <trkpt lat="45.18145" lon="6.03532">
        <ele>1076.7</ele>
        <time>2022-06-18T10:50:01Z</time>
      </trkpt>
      <trkpt lat="45.18133" lon="6.03539">
        <ele>1075.3</ele>
        <time>2022-06-18T10:50:02Z</time>
      </trkpt>
      <trkpt lat="45.18121" lon="6.03546">
        <ele>1073.9</ele>
        <time>2022-06-18T10:50:03Z</time>
      </trkpt>
      <trkpt lat="45.18109" lon="6.03553">
        <ele>1072.6</ele>
        <time>2022-06-18T10:50:04Z</time>
      </trkpt>
      <trkpt lat="45.18098" lon="6.03557">
        <ele>1071.4</ele>
        <time>2022-06-18T10:50:05Z</time>
      </trkpt>
      <trkpt lat="45.18086" lon="6.03563">
        <ele>1070.2</ele>
        <time>2022-06-18T10:50:06Z</time>
      </trkpt>
      <trkpt lat="45.18074" lon="6.03568">
        <ele>1068.9</ele>
        <time>2022-06-18T10:50:07Z</time>
      </trkpt>
      <trkpt lat="45.18061" lon="6.03573">
        <ele>1067.5</ele>
        <time>2022-06-18T10:50:08Z</time>
      </trkpt>
      <trkpt lat="45.18049" lon="6.03579">
        <ele>1066.2</ele>
        <time>2022-06-18T10:50:09Z</time>
      </trkpt>
      <trkpt lat="45.18036" lon="6.03585">
        <ele>1064.8</ele>
        <time>2022-06-18T10:50:10Z</time>
      </trkpt>
      <trkpt lat="45.18022" lon="6.03591">
        <ele>1063.3</ele>
        <time>2022-06-18T10:50:11Z</time>
      </trkpt>
      <trkpt lat="45.18009" lon="6.03597">
        <ele>1061.8</ele>
        <time>2022-06-18T10:50:12Z</time>
      </trkpt>
      <trkpt lat="45.17997" lon="6.03603">
        <ele>1060.5</ele>
        <time>2022-06-18T10:50:13Z</time>
      </trkpt>
      <trkpt lat="45.17985" lon="6.03608">
        <ele>1059.1</ele>
        <time>2022-06-18T10:50:14Z</time>
      </trkpt>
      <trkpt lat="45.17974" lon="6.03614">
        <ele>1057.9</ele>
        <time>2022-06-18T10:50:15Z</time>
      </trkpt>
      <trkpt lat="45.17963" lon="6.03622">
        <ele>1056.6</ele>
        <time>2022-06-18T10:50:16Z</time>
      </trkpt>
      <trkpt lat="45.17952" lon="6.0363">
        <ele>1055.3</ele>
        <time>2022-06-18T10:50:17Z</time>
      </trkpt>
      <trkpt lat="45.17942" lon="6.03639">
        <ele>1054</ele>
        <time>2022-06-18T10:50:18Z</time>
      </trkpt>
      <trkpt lat="45.17932" lon="6.03648">
        <ele>1052.7</ele>
        <time>2022-06-18T10:50:19Z</time>
      </trkpt>
      <trkpt lat="45.17923" lon="6.03657">
        <ele>1051.4</ele>
        <time>2022-06-18T10:50:20Z</time>
      </trkpt>
      <trkpt lat="45.17913" lon="6.03664">
        <ele>1050.2</ele>
        <time>2022-06-18T10:50:21Z</time>
      </trkpt>
      <trkpt lat="45.17904" lon="6.0367">
        <ele>1049.1</ele>
        <time>2022-06-18T10:50:22Z</time>
      </trkpt>
      <trkpt lat="45.17895" lon="6.03675">
        <ele>1048</ele>
        <time>2022-06-18T10:50:23Z</time>
      </trkpt>
      <trkpt lat="45.17884" lon="6.03678">
        <ele>1046.8</ele>
        <time>2022-06-18T10:50:24Z</time>
      </trkpt>
      <trkpt lat="45.17873" lon="6.03681">
        <ele>1045.6</ele>
        <time>2022-06-18T10:50:25Z</time>
      </trkpt>
      <trkpt lat="45.17862" lon="6.03682">
        <ele>1044.4</ele>
        <time>2022-06-18T10:50:26Z</time>
      </trkpt>
      <trkpt lat="45.17851" lon="6.0368">
        <ele>1043.1</ele>
        <time>2022-06-18T10:50:27Z</time>
      </trkpt>
      <trkpt lat="45.17839" lon="6.03677">
        <ele>1041.9</ele>
        <time>2022-06-18T10:50:28Z</time>
      </trkpt>
      <trkpt lat="45.17828" lon="6.03673">
        <ele>1040.7</ele>
        <time>2022-06-18T10:50:29Z</time>
      </trkpt>
      <trkpt lat="45.17817" lon="6.03672">
        <ele>1039.6</ele>
        <time>2022-06-18T10:50:30Z</time>
      </trkpt>
      <trkpt lat="45.17806" lon="6.03672">
        <ele>1038.5</ele>
        <time>2022-06-18T10:50:31Z</time>
      </trkpt>
      <trkpt lat="45.17796" lon="6.03674">
        <ele>1037.6</ele>
        <time>2022-06-18T10:50:32Z</time>
      </trkpt>
      <trkpt lat="45.17788" lon="6.03679">
        <ele>1036.8</ele>
        <time>2022-06-18T10:50:33Z</time>
      </trkpt>
      <trkpt lat="45.17781" lon="6.03686">
        <ele>1036</ele>
        <time>2022-06-18T10:50:34Z</time>
      </trkpt>
      <trkpt lat="45.17774" lon="6.03691">
        <ele>1035.3</ele>
        <time>2022-06-18T10:50:35Z</time>
      </trkpt>
      <trkpt lat="45.17766" lon="6.03693">
        <ele>1034.5</ele>
        <time>2022-06-18T10:50:36Z</time>
      </trkpt>
      <trkpt lat="45.17757" lon="6.03691">
        <ele>1033.6</ele>
        <time>2022-06-18T10:50:37Z</time>
      </trkpt>
      <trkpt lat="45.17748" lon="6.03684">
        <ele>1032.7</ele>
        <time>2022-06-18T10:50:38Z</time>
      </trkpt>
      <trkpt lat="45.1774" lon="6.03676">
        <ele>1031.6</ele>
        <time>2022-06-18T10:50:39Z</time>
      </trkpt>
      <trkpt lat="45.1773" lon="6.03666">
        <ele>1030.5</ele>
        <time>2022-06-18T10:50:40Z</time>
      </trkpt>
      <trkpt lat="45.1772" lon="6.03657">
        <ele>1029.6</ele>
        <time>2022-06-18T10:50:41Z</time>
      </trkpt>
      <trkpt lat="45.17711" lon="6.03648">
        <ele>1028.9</ele>
        <time>2022-06-18T10:50:42Z</time>
      </trkpt>
      <trkpt lat="45.17701" lon="6.03641">
        <ele>1029.2</ele>
        <time>2022-06-18T10:50:43Z</time>
      </trkpt>
      <trkpt lat="45.17691" lon="6.0364">
        <ele>1027.3</ele>
        <time>2022-06-18T10:50:44Z</time>
      </trkpt>
      <trkpt lat="45.17681" lon="6.03646">
        <ele>1026</ele>
        <time>2022-06-18T10:50:45Z</time>
      </trkpt>
      <trkpt lat="45.17673" lon="6.03655">
        <ele>1024.7</ele>
        <time>2022-06-18T10:50:46Z</time>
      </trkpt>
      <trkpt lat="45.17665" lon="6.03666">
        <ele>1023.5</ele>
        <time>2022-06-18T10:50:47Z</time>
      </trkpt>
      <trkpt lat="45.17658" lon="6.03677">
        <ele>1022.2</ele>
        <time>2022-06-18T10:50:48Z</time>
      </trkpt>
      <trkpt lat="45.17651" lon="6.03687">
        <ele>1021</ele>
        <time>2022-06-18T10:50:49Z</time>
      </trkpt>
      <trkpt lat="45.17644" lon="6.03697">
        <ele>1019.8</ele>
        <time>2022-06-18T10:50:50Z</time>
      </trkpt>
      <trkpt lat="45.17637" lon="6.03704">
        <ele>1018.8</ele>
        <time>2022-06-18T10:50:51Z</time>
      </trkpt>
      <trkpt lat="45.17629" lon="6.0371">
        <ele>1017.7</ele>
        <time>2022-06-18T10:50:52Z</time>
      </trkpt>
      <trkpt lat="45.17621" lon="6.03714">
        <ele>1016.6</ele>
        <time>2022-06-18T10:50:53Z</time>
      </trkpt>
      <trkpt lat="45.17612" lon="6.03716">
        <ele>1015.4</ele>
        <time>2022-06-18T10:50:54Z</time>
      </trkpt>
      <trkpt lat="45.17601" lon="6.03715">
        <ele>1014</ele>
        <time>2022-06-18T10:50:55Z</time>
      </trkpt>
      <trkpt lat="45.17592" lon="6.03714">
        <ele>1012.7</ele>
        <time>2022-06-18T10:50:56Z</time>
      </trkpt>
      <trkpt lat="45.17582" lon="6.03711">
        <ele>1011.4</ele>
        <time>2022-06-18T10:50:57Z</time>
      </trkpt>
      <trkpt lat="45.17573" lon="6.03707">
        <ele>1010.4</ele>
        <time>2022-06-18T10:50:58Z</time>
      </trkpt>
      <trkpt lat="45.17563" lon="6.03704">
        <ele>1010.1</ele>
        <time>2022-06-18T10:50:59Z</time>
      </trkpt>
      <trkpt lat="45.17554" lon="6.03703">
        <ele>1009.7</ele>
        <time>2022-06-18T10:51:00Z</time>
      </trkpt>
      <trkpt lat="45.17545" lon="6.03706">
        <ele>1009.3</ele>
        <time>2022-06-18T10:51:01Z</time>
      </trkpt>
      <trkpt lat="45.17536" lon="6.0371">
        <ele>1008.9</ele>
        <time>2022-06-18T10:51:02Z</time>
      </trkpt>
      <trkpt lat="45.17527" lon="6.03715">
        <ele>1008.4</ele>
        <time>2022-06-18T10:51:03Z</time>
      </trkpt>
      <trkpt lat="45.17519" lon="6.03721">
        <ele>1008</ele>
        <time>2022-06-18T10:51:04Z</time>
      </trkpt>
      <trkpt lat="45.17511" lon="6.03725">
        <ele>1007.5</ele>
        <time>2022-06-18T10:51:05Z</time>
      </trkpt>
      <trkpt lat="45.17503" lon="6.03727">
        <ele>1006.9</ele>
        <time>2022-06-18T10:51:06Z</time>
      </trkpt>
      <trkpt lat="45.17493" lon="6.03727">
        <ele>1006.3</ele>
        <time>2022-06-18T10:51:07Z</time>
      </trkpt>
      <trkpt lat="45.17483" lon="6.03726">
        <ele>1005.5</ele>
        <time>2022-06-18T10:51:08Z</time>
      </trkpt>
      <trkpt lat="45.17474" lon="6.03727">
        <ele>1004.7</ele>
        <time>2022-06-18T10:51:09Z</time>
      </trkpt>
      <trkpt lat="45.17464" lon="6.03728">
        <ele>1003.8</ele>
        <time>2022-06-18T10:51:10Z</time>
      </trkpt>
      <trkpt lat="45.17454" lon="6.03731">
        <ele>1002.8</ele>
        <time>2022-06-18T10:51:11Z</time>
      </trkpt>
      <trkpt lat="45.17444" lon="6.03735">
        <ele>1001.8</ele>
        <time>2022-06-18T10:51:12Z</time>
      </trkpt>
      <trkpt lat="45.17433" lon="6.03741">
        <ele>1000.6</ele>
        <time>2022-06-18T10:51:13Z</time>
      </trkpt>
      <trkpt lat="45.17424" lon="6.03749">
        <ele>999.4</ele>
        <time>2022-06-18T10:51:14Z</time>
      </trkpt>
      <trkpt lat="45.17414" lon="6.03758">
        <ele>998</ele>
        <time>2022-06-18T10:51:15Z</time>
      </trkpt>
      <trkpt lat="45.17404" lon="6.03769">
        <ele>996.5</ele>
        <time>2022-06-18T10:51:16Z</time>
      </trkpt>
      <trkpt lat="45.17395" lon="6.0378">
        <ele>995.1</ele>
        <time>2022-06-18T10:51:17Z</time>
      </trkpt>
      <trkpt lat="45.17386" lon="6.03791">
        <ele>993.8</ele>
        <time>2022-06-18T10:51:18Z</time>
      </trkpt>
      <trkpt lat="45.17376" lon="6.03799">
        <ele>992.5</ele>
        <time>2022-06-18T10:51:19Z</time>
      </trkpt>
      <trkpt lat="45.17366" lon="6.03804">
        <ele>991.3</ele>
        <time>2022-06-18T10:51:20Z</time>
      </trkpt>
      <trkpt lat="45.17354" lon="6.03806">
        <ele>990.1</ele>
        <time>2022-06-18T10:51:21Z</time>
      </trkpt>
      <trkpt lat="45.17342" lon="6.03806">
        <ele>988.8</ele>
        <time>2022-06-18T10:51:22Z</time>
      </trkpt>
      <trkpt lat="45.17329" lon="6.03806">
        <ele>987.4</ele>
        <time>2022-06-18T10:51:23Z</time>
      </trkpt>
      <trkpt lat="45.17315" lon="6.03804">
        <ele>986</ele>
        <time>2022-06-18T10:51:24Z</time>
      </trkpt>
      <trkpt lat="45.17302" lon="6.03803">
        <ele>984.5</ele>
        <time>2022-06-18T10:51:25Z</time>
      </trkpt>
      <trkpt lat="45.17289" lon="6.03804">
        <ele>983</ele>
        <time>2022-06-18T10:51:26Z</time>
      </trkpt>
      <trkpt lat="45.17275" lon="6.03805">
        <ele>981.6</ele>
        <time>2022-06-18T10:51:27Z</time>
      </trkpt>
      <trkpt lat="45.17262" lon="6.03807">
        <ele>980.1</ele>
        <time>2022-06-18T10:51:28Z</time>
      </trkpt>
      <trkpt lat="45.17249" lon="6.03811">
        <ele>978.7</ele>
        <time>2022-06-18T10:51:29Z</time>
      </trkpt>
      <trkpt lat="45.17236" lon="6.03817">
        <ele>977.1</ele>
        <time>2022-06-18T10:51:30Z</time>
      </trkpt>
      <trkpt lat="45.17223" lon="6.03823">
        <ele>975.6</ele>
        <time>2022-06-18T10:51:31Z</time>
      </trkpt>
      <trkpt lat="45.17211" lon="6.03829">
        <ele>974.2</ele>
        <time>2022-06-18T10:51:32Z</time>
      </trkpt>
      <trkpt lat="45.172" lon="6.03834">
        <ele>972.9</ele>
        <time>2022-06-18T10:51:33Z</time>
      </trkpt>
      <trkpt lat="45.17189" lon="6.0384">
        <ele>971.7</ele>
        <time>2022-06-18T10:51:34Z</time>
      </trkpt>
      <trkpt lat="45.17177" lon="6.03846">
        <ele>970.5</ele>
        <time>2022-06-18T10:51:35Z</time>
      </trkpt>
      <trkpt lat="45.17166" lon="6.03852">
        <ele>969.5</ele>
        <time>2022-06-18T10:51:36Z</time>
      </trkpt>
      <trkpt lat="45.17153" lon="6.03861">
        <ele>968.5</ele>
        <time>2022-06-18T10:51:37Z</time>
      </trkpt>
      <trkpt lat="45.17141" lon="6.03869">
        <ele>967.5</ele>
        <time>2022-06-18T10:51:38Z</time>
      </trkpt>
      <trkpt lat="45.17128" lon="6.03878">
        <ele>966.6</ele>
        <time>2022-06-18T10:51:39Z</time>
      </trkpt>
      <trkpt lat="45.17116" lon="6.03887">
        <ele>965.7</ele>
        <time>2022-06-18T10:51:40Z</time>
      </trkpt>
      <trkpt lat="45.17103" lon="6.03895">
        <ele>964.8</ele>
        <time>2022-06-18T10:51:41Z</time>
      </trkpt>
      <trkpt lat="45.1709" lon="6.03903">
        <ele>963.9</ele>
        <time>2022-06-18T10:51:42Z</time>
      </trkpt>
      <trkpt lat="45.17077" lon="6.0391">
        <ele>962.8</ele>
        <time>2022-06-18T10:51:43Z</time>
      </trkpt>
      <trkpt lat="45.17064" lon="6.03917">
        <ele>961.6</ele>
        <time>2022-06-18T10:51:44Z</time>
      </trkpt>
      <trkpt lat="45.17052" lon="6.03925">
        <ele>960.1</ele>
        <time>2022-06-18T10:51:45Z</time>
      </trkpt>
      <trkpt lat="45.17039" lon="6.03932">
        <ele>958.6</ele>
        <time>2022-06-18T10:51:46Z</time>
      </trkpt>
      <trkpt lat="45.17026" lon="6.03939">
        <ele>957</ele>
        <time>2022-06-18T10:51:47Z</time>
      </trkpt>
      <trkpt lat="45.17014" lon="6.03946">
        <ele>955.5</ele>
        <time>2022-06-18T10:51:48Z</time>
      </trkpt>
      <trkpt lat="45.17002" lon="6.03954">
        <ele>954</ele>
        <time>2022-06-18T10:51:49Z</time>
      </trkpt>
      <trkpt lat="45.16992" lon="6.03963">
        <ele>952.7</ele>
        <time>2022-06-18T10:51:50Z</time>
      </trkpt>
      <trkpt lat="45.16984" lon="6.0397">
        <ele>951.6</ele>
        <time>2022-06-18T10:51:51Z</time>
      </trkpt>
      <trkpt lat="45.16976" lon="6.03979">
        <ele>950.3</ele>
        <time>2022-06-18T10:51:52Z</time>
      </trkpt>
      <trkpt lat="45.16966" lon="6.03989">
        <ele>948.9</ele>
        <time>2022-06-18T10:51:53Z</time>
      </trkpt>
      <trkpt lat="45.16956" lon="6.03997">
        <ele>948.1</ele>
        <time>2022-06-18T10:51:54Z</time>
      </trkpt>
      <trkpt lat="45.16948" lon="6.04002">
        <ele>947.9</ele>
        <time>2022-06-18T10:51:55Z</time>
      </trkpt>
      <trkpt lat="45.16936" lon="6.04003">
        <ele>947.8</ele>
        <time>2022-06-18T10:51:56Z</time>
      </trkpt>
      <trkpt lat="45.16924" lon="6.04001">
        <ele>947.8</ele>
        <time>2022-06-18T10:51:57Z</time>
      </trkpt>
      <trkpt lat="45.16913" lon="6.04001">
        <ele>948</ele>
        <time>2022-06-18T10:51:58Z</time>
      </trkpt>
      <trkpt lat="45.16902" lon="6.04">
        <ele>948.2</ele>
        <time>2022-06-18T10:51:59Z</time>
      </trkpt>
      <trkpt lat="45.16891" lon="6.03999">
        <ele>948.6</ele>
        <time>2022-06-18T10:52:00Z</time>
      </trkpt>
      <trkpt lat="45.16881" lon="6.04">
        <ele>948.9</ele>
        <time>2022-06-18T10:52:01Z</time>
      </trkpt>
      <trkpt lat="45.16871" lon="6.04004">
        <ele>948.6</ele>
        <time>2022-06-18T10:52:02Z</time>
      </trkpt>
      <trkpt lat="45.16863" lon="6.04009">
        <ele>946.9</ele>
        <time>2022-06-18T10:52:03Z</time>
      </trkpt>
      <trkpt lat="45.16857" lon="6.04017">
        <ele>945.3</ele>
        <time>2022-06-18T10:52:04Z</time>
      </trkpt>
      <trkpt lat="45.16854" lon="6.0403">
        <ele>943.9</ele>
        <time>2022-06-18T10:52:05Z</time>
      </trkpt>
      <trkpt lat="45.16851" lon="6.04042">
        <ele>943.3</ele>
        <time>2022-06-18T10:52:06Z</time>
      </trkpt>
      <trkpt lat="45.16849" lon="6.04053">
        <ele>942.8</ele>
        <time>2022-06-18T10:52:07Z</time>
      </trkpt>
      <trkpt lat="45.16846" lon="6.04064">
        <ele>942.2</ele>
        <time>2022-06-18T10:52:08Z</time>
      </trkpt>
      <trkpt lat="45.16843" lon="6.04075">
        <ele>941.6</ele>
        <time>2022-06-18T10:52:09Z</time>
      </trkpt>
      <trkpt lat="45.1684" lon="6.04086">
        <ele>940.9</ele>
        <time>2022-06-18T10:52:10Z</time>
      </trkpt>
      <trkpt lat="45.16836" lon="6.04096">
        <ele>940.1</ele>
        <time>2022-06-18T10:52:11Z</time>
      </trkpt>
      <trkpt lat="45.16831" lon="6.04106">
        <ele>939.3</ele>
        <time>2022-06-18T10:52:12Z</time>
      </trkpt>
      <trkpt lat="45.16825" lon="6.04117">
        <ele>938.4</ele>
        <time>2022-06-18T10:52:13Z</time>
      </trkpt>
      <trkpt lat="45.16818" lon="6.04126">
        <ele>937.5</ele>
        <time>2022-06-18T10:52:14Z</time>
      </trkpt>
      <trkpt lat="45.1681" lon="6.04134">
        <ele>936.5</ele>
        <time>2022-06-18T10:52:15Z</time>
      </trkpt>
      <trkpt lat="45.16801" lon="6.04141">
        <ele>935.5</ele>
        <time>2022-06-18T10:52:16Z</time>
      </trkpt>
      <trkpt lat="45.16791" lon="6.04146">
        <ele>934.4</ele>
        <time>2022-06-18T10:52:17Z</time>
      </trkpt>
      <trkpt lat="45.1678" lon="6.04149">
        <ele>933.3</ele>
        <time>2022-06-18T10:52:18Z</time>
      </trkpt>
      <trkpt lat="45.1677" lon="6.04153">
        <ele>932.2</ele>
        <time>2022-06-18T10:52:19Z</time>
      </trkpt>
      <trkpt lat="45.16759" lon="6.04158">
        <ele>931</ele>
        <time>2022-06-18T10:52:20Z</time>
      </trkpt>
      <trkpt lat="45.16747" lon="6.04162">
        <ele>929.7</ele>
        <time>2022-06-18T10:52:21Z</time>
      </trkpt>
      <trkpt lat="45.16735" lon="6.04167">
        <ele>928.4</ele>
        <time>2022-06-18T10:52:22Z</time>
      </trkpt>
      <trkpt lat="45.16723" lon="6.04171">
        <ele>927</ele>
        <time>2022-06-18T10:52:23Z</time>
      </trkpt>
      <trkpt lat="45.1671" lon="6.04176">
        <ele>925.7</ele>
        <time>2022-06-18T10:52:24Z</time>
      </trkpt>
      <trkpt lat="45.16697" lon="6.0418">
        <ele>924.5</ele>
        <time>2022-06-18T10:52:25Z</time>
      </trkpt>
      <trkpt lat="45.16683" lon="6.04184">
        <ele>923.2</ele>
        <time>2022-06-18T10:52:26Z</time>
      </trkpt>
      <trkpt lat="45.16669" lon="6.04188">
        <ele>922</ele>
        <time>2022-06-18T10:52:27Z</time>
      </trkpt>
      <trkpt lat="45.16655" lon="6.04189">
        <ele>920.8</ele>
        <time>2022-06-18T10:52:28Z</time>
      </trkpt>
      <trkpt lat="45.16643" lon="6.0419">
        <ele>919.6</ele>
        <time>2022-06-18T10:52:29Z</time>
      </trkpt>
      <trkpt lat="45.16631" lon="6.04191">
        <ele>918.4</ele>
        <time>2022-06-18T10:52:30Z</time>
      </trkpt>
      <trkpt lat="45.16618" lon="6.04192">
        <ele>917.1</ele>
        <time>2022-06-18T10:52:31Z</time>
      </trkpt>
      <trkpt lat="45.16606" lon="6.04193">
        <ele>916</ele>
        <time>2022-06-18T10:52:32Z</time>
      </trkpt>
      <trkpt lat="45.16595" lon="6.04193">
        <ele>914.9</ele>
        <time>2022-06-18T10:52:33Z</time>
      </trkpt>
      <trkpt lat="45.16585" lon="6.04192">
        <ele>913.9</ele>
        <time>2022-06-18T10:52:34Z</time>
      </trkpt>
      <trkpt lat="45.16574" lon="6.04191">
        <ele>912.9</ele>
        <time>2022-06-18T10:52:35Z</time>
      </trkpt>
      <trkpt lat="45.16564" lon="6.0419">
        <ele>912</ele>
        <time>2022-06-18T10:52:36Z</time>
      </trkpt>
      <trkpt lat="45.16555" lon="6.04192">
        <ele>911.2</ele>
        <time>2022-06-18T10:52:37Z</time>
      </trkpt>
      <trkpt lat="45.16546" lon="6.04196">
        <ele>910.3</ele>
        <time>2022-06-18T10:52:38Z</time>
      </trkpt>
      <trkpt lat="45.16538" lon="6.04201">
        <ele>909.5</ele>
        <time>2022-06-18T10:52:39Z</time>
      </trkpt>
      <trkpt lat="45.1653" lon="6.04208">
        <ele>908.7</ele>
        <time>2022-06-18T10:52:40Z</time>
      </trkpt>
      <trkpt lat="45.1652" lon="6.04214">
        <ele>907.7</ele>
        <time>2022-06-18T10:52:41Z</time>
      </trkpt>
      <trkpt lat="45.1651" lon="6.04218">
        <ele>906.7</ele>
        <time>2022-06-18T10:52:42Z</time>
      </trkpt>
      <trkpt lat="45.165" lon="6.0422">
        <ele>905.6</ele>
        <time>2022-06-18T10:52:43Z</time>
      </trkpt>
      <trkpt lat="45.16489" lon="6.0422">
        <ele>904.7</ele>
        <time>2022-06-18T10:52:44Z</time>
      </trkpt>
      <trkpt lat="45.16478" lon="6.04219">
        <ele>903.7</ele>
        <time>2022-06-18T10:52:45Z</time>
      </trkpt>
      <trkpt lat="45.16467" lon="6.04218">
        <ele>902.7</ele>
        <time>2022-06-18T10:52:46Z</time>
      </trkpt>
      <trkpt lat="45.16456" lon="6.04218">
        <ele>901.7</ele>
        <time>2022-06-18T10:52:47Z</time>
      </trkpt>
      <trkpt lat="45.16444" lon="6.04219">
        <ele>900.6</ele>
        <time>2022-06-18T10:52:48Z</time>
      </trkpt>
      <trkpt lat="45.16433" lon="6.04222">
        <ele>899.5</ele>
        <time>2022-06-18T10:52:49Z</time>
      </trkpt>
      <trkpt lat="45.16422" lon="6.04224">
        <ele>898.5</ele>
        <time>2022-06-18T10:52:50Z</time>
      </trkpt>
      <trkpt lat="45.16411" lon="6.04228">
        <ele>897.5</ele>
        <time>2022-06-18T10:52:51Z</time>
      </trkpt>
      <trkpt lat="45.16399" lon="6.04231">
        <ele>896.4</ele>
        <time>2022-06-18T10:52:52Z</time>
      </trkpt>
      <trkpt lat="45.16387" lon="6.04232">
        <ele>895.4</ele>
        <time>2022-06-18T10:52:53Z</time>
      </trkpt>
      <trkpt lat="45.16375" lon="6.04232">
        <ele>894.4</ele>
        <time>2022-06-18T10:52:54Z</time>
      </trkpt>
      <trkpt lat="45.16362" lon="6.0423">
        <ele>893.4</ele>
        <time>2022-06-18T10:52:55Z</time>
      </trkpt>
      <trkpt lat="45.1635" lon="6.04229">
        <ele>892.5</ele>
        <time>2022-06-18T10:52:56Z</time>
      </trkpt>
      <trkpt lat="45.16337" lon="6.04229">
        <ele>891.6</ele>
        <time>2022-06-18T10:52:57Z</time>
      </trkpt>
      <trkpt lat="45.16326" lon="6.04228">
        <ele>891.1</ele>
        <time>2022-06-18T10:52:58Z</time>
      </trkpt>
      <trkpt lat="45.16314" lon="6.04229">
        <ele>890.6</ele>
        <time>2022-06-18T10:52:59Z</time>
      </trkpt>
      <trkpt lat="45.16303" lon="6.04229">
        <ele>890.1</ele>
        <time>2022-06-18T10:53:00Z</time>
      </trkpt>
      <trkpt lat="45.16292" lon="6.04232">
        <ele>889.6</ele>
        <time>2022-06-18T10:53:01Z</time>
      </trkpt>
      <trkpt lat="45.16282" lon="6.04233">
        <ele>889.1</ele>
        <time>2022-06-18T10:53:02Z</time>
      </trkpt>
      <trkpt lat="45.16271" lon="6.04234">
        <ele>888.7</ele>
        <time>2022-06-18T10:53:03Z</time>
      </trkpt>
      <trkpt lat="45.1626" lon="6.04235">
        <ele>888.2</ele>
        <time>2022-06-18T10:53:04Z</time>
      </trkpt>
      <trkpt lat="45.16249" lon="6.04237">
        <ele>887.7</ele>
        <time>2022-06-18T10:53:05Z</time>
      </trkpt>
      <trkpt lat="45.16238" lon="6.04238">
        <ele>887.3</ele>
        <time>2022-06-18T10:53:06Z</time>
      </trkpt>
      <trkpt lat="45.16226" lon="6.04239">
        <ele>886.8</ele>
        <time>2022-06-18T10:53:07Z</time>
      </trkpt>
      <trkpt lat="45.16215" lon="6.04239">
        <ele>886.3</ele>
        <time>2022-06-18T10:53:08Z</time>
      </trkpt>
      <trkpt lat="45.16203" lon="6.04238">
        <ele>885.7</ele>
        <time>2022-06-18T10:53:09Z</time>
      </trkpt>
      <trkpt lat="45.16192" lon="6.04237">
        <ele>885.2</ele>
        <time>2022-06-18T10:53:10Z</time>
      </trkpt>
      <trkpt lat="45.16181" lon="6.04234">
        <ele>884.7</ele>
        <time>2022-06-18T10:53:11Z</time>
      </trkpt>
      <trkpt lat="45.16169" lon="6.04233">
        <ele>884.1</ele>
        <time>2022-06-18T10:53:12Z</time>
      </trkpt>
      <trkpt lat="45.16157" lon="6.04231">
        <ele>883.6</ele>
        <time>2022-06-18T10:53:13Z</time>
      </trkpt>
      <trkpt lat="45.16146" lon="6.04229">
        <ele>883.1</ele>
        <time>2022-06-18T10:53:14Z</time>
      </trkpt>
      <trkpt lat="45.16135" lon="6.04227">
        <ele>882.6</ele>
        <time>2022-06-18T10:53:15Z</time>
      </trkpt>
      <trkpt lat="45.16124" lon="6.04226">
        <ele>882.1</ele>
        <time>2022-06-18T10:53:16Z</time>
      </trkpt>
      <trkpt lat="45.16113" lon="6.04225">
        <ele>881.7</ele>
        <time>2022-06-18T10:53:17Z</time>
      </trkpt>
      <trkpt lat="45.16104" lon="6.04222">
        <ele>881.3</ele>
        <time>2022-06-18T10:53:18Z</time>
      </trkpt>
      <trkpt lat="45.16094" lon="6.04221">
        <ele>880.9</ele>
        <time>2022-06-18T10:53:19Z</time>
      </trkpt>
      <trkpt lat="45.16083" lon="6.04221">
        <ele>880.5</ele>
        <time>2022-06-18T10:53:20Z</time>
      </trkpt>
      <trkpt lat="45.16073" lon="6.04221">
        <ele>880.1</ele>
        <time>2022-06-18T10:53:21Z</time>
      </trkpt>
      <trkpt lat="45.16063" lon="6.04221">
        <ele>879.6</ele>
        <time>2022-06-18T10:53:22Z</time>
      </trkpt>
      <trkpt lat="45.16053" lon="6.04221">
        <ele>879.1</ele>
        <time>2022-06-18T10:53:23Z</time>
      </trkpt>
      <trkpt lat="45.16042" lon="6.04222">
        <ele>878.7</ele>
        <time>2022-06-18T10:53:24Z</time>
      </trkpt>
      <trkpt lat="45.16032" lon="6.04223">
        <ele>878.2</ele>
        <time>2022-06-18T10:53:25Z</time>
      </trkpt>
      <trkpt lat="45.16022" lon="6.04225">
        <ele>877.7</ele>
        <time>2022-06-18T10:53:26Z</time>
      </trkpt>
      <trkpt lat="45.16012" lon="6.04229">
        <ele>877.1</ele>
        <time>2022-06-18T10:53:27Z</time>
      </trkpt>
      <trkpt lat="45.16003" lon="6.04238">
        <ele>876.5</ele>
        <time>2022-06-18T10:53:28Z</time>
      </trkpt>
      <trkpt lat="45.15994" lon="6.04247">
        <ele>875.8</ele>
        <time>2022-06-18T10:53:29Z</time>
      </trkpt>
      <trkpt lat="45.15985" lon="6.04255">
        <ele>875.1</ele>
        <time>2022-06-18T10:53:30Z</time>
      </trkpt>
      <trkpt lat="45.15977" lon="6.04263">
        <ele>874.3</ele>
        <time>2022-06-18T10:53:31Z</time>
      </trkpt>
      <trkpt lat="45.15967" lon="6.0427">
        <ele>873.4</ele>
        <time>2022-06-18T10:53:32Z</time>
      </trkpt>
      <trkpt lat="45.15958" lon="6.04278">
        <ele>872.5</ele>
        <time>2022-06-18T10:53:33Z</time>
      </trkpt>
      <trkpt lat="45.15948" lon="6.04284">
        <ele>871.5</ele>
        <time>2022-06-18T10:53:34Z</time>
      </trkpt>
      <trkpt lat="45.15937" lon="6.0429">
        <ele>870.4</ele>
        <time>2022-06-18T10:53:35Z</time>
      </trkpt>
      <trkpt lat="45.15926" lon="6.04295">
        <ele>869.2</ele>
        <time>2022-06-18T10:53:36Z</time>
      </trkpt>
      <trkpt lat="45.15915" lon="6.04301">
        <ele>867.7</ele>
        <time>2022-06-18T10:53:37Z</time>
      </trkpt>
      <trkpt lat="45.15903" lon="6.04307">
        <ele>866.1</ele>
        <time>2022-06-18T10:53:38Z</time>
      </trkpt>
      <trkpt lat="45.15892" lon="6.04311">
        <ele>864.5</ele>
        <time>2022-06-18T10:53:39Z</time>
      </trkpt>
      <trkpt lat="45.15881" lon="6.04314">
        <ele>863</ele>
        <time>2022-06-18T10:53:40Z</time>
      </trkpt>
      <trkpt lat="45.15869" lon="6.04316">
        <ele>861.4</ele>
        <time>2022-06-18T10:53:41Z</time>
      </trkpt>
      <trkpt lat="45.15857" lon="6.04316">
        <ele>860</ele>
        <time>2022-06-18T10:53:42Z</time>
      </trkpt>
      <trkpt lat="45.15846" lon="6.04315">
        <ele>858.7</ele>
        <time>2022-06-18T10:53:43Z</time>
      </trkpt>
      <trkpt lat="45.15835" lon="6.04316">
        <ele>857.5</ele>
        <time>2022-06-18T10:53:44Z</time>
      </trkpt>
      <trkpt lat="45.15824" lon="6.04319">
        <ele>856.3</ele>
        <time>2022-06-18T10:53:45Z</time>
      </trkpt>
      <trkpt lat="45.15814" lon="6.04326">
        <ele>855</ele>
        <time>2022-06-18T10:53:46Z</time>
      </trkpt>
      <trkpt lat="45.15804" lon="6.04335">
        <ele>853.4</ele>
        <time>2022-06-18T10:53:47Z</time>
      </trkpt>
      <trkpt lat="45.15793" lon="6.04343">
        <ele>851.7</ele>
        <time>2022-06-18T10:53:48Z</time>
      </trkpt>
      <trkpt lat="45.15782" lon="6.04349">
        <ele>850.1</ele>
        <time>2022-06-18T10:53:49Z</time>
      </trkpt>
      <trkpt lat="45.1577" lon="6.04352">
        <ele>848.7</ele>
        <time>2022-06-18T10:53:50Z</time>
      </trkpt>
      <trkpt lat="45.15758" lon="6.04355">
        <ele>847.3</ele>
        <time>2022-06-18T10:53:51Z</time>
      </trkpt>
      <trkpt lat="45.15746" lon="6.04357">
        <ele>845.9</ele>
        <time>2022-06-18T10:53:52Z</time>
      </trkpt>
      <trkpt lat="45.15734" lon="6.04359">
        <ele>844.5</ele>
        <time>2022-06-18T10:53:53Z</time>
      </trkpt>
      <trkpt lat="45.15723" lon="6.04362">
        <ele>843.2</ele>
        <time>2022-06-18T10:53:54Z</time>
      </trkpt>
      <trkpt lat="45.15712" lon="6.04365">
        <ele>841.9</ele>
        <time>2022-06-18T10:53:55Z</time>
      </trkpt>
      <trkpt lat="45.15701" lon="6.04371">
        <ele>840.6</ele>
        <time>2022-06-18T10:53:56Z</time>
      </trkpt>
      <trkpt lat="45.15691" lon="6.04379">
        <ele>839.2</ele>
        <time>2022-06-18T10:53:57Z</time>
      </trkpt>
      <trkpt lat="45.1568" lon="6.0439">
        <ele>837.6</ele>
        <time>2022-06-18T10:53:58Z</time>
      </trkpt>
      <trkpt lat="45.1567" lon="6.04401">
        <ele>836</ele>
        <time>2022-06-18T10:53:59Z</time>
      </trkpt>
      <trkpt lat="45.15658" lon="6.04411">
        <ele>834.5</ele>
        <time>2022-06-18T10:54:00Z</time>
      </trkpt>
      <trkpt lat="45.15647" lon="6.04422">
        <ele>833</ele>
        <time>2022-06-18T10:54:01Z</time>
      </trkpt>
      <trkpt lat="45.15635" lon="6.04432">
        <ele>831.6</ele>
        <time>2022-06-18T10:54:02Z</time>
      </trkpt>
      <trkpt lat="45.15624" lon="6.04441">
        <ele>830.2</ele>
        <time>2022-06-18T10:54:03Z</time>
      </trkpt>
      <trkpt lat="45.15612" lon="6.04449">
        <ele>828.9</ele>
        <time>2022-06-18T10:54:04Z</time>
      </trkpt>
      <trkpt lat="45.15601" lon="6.04455">
        <ele>827.5</ele>
        <time>2022-06-18T10:54:05Z</time>
      </trkpt>
      <trkpt lat="45.1559" lon="6.0446">
        <ele>826.1</ele>
        <time>2022-06-18T10:54:06Z</time>
      </trkpt>
      <trkpt lat="45.1558" lon="6.04466">
        <ele>824.5</ele>
        <time>2022-06-18T10:54:07Z</time>
      </trkpt>
      <trkpt lat="45.15569" lon="6.04472">
        <ele>822.9</ele>
        <time>2022-06-18T10:54:08Z</time>
      </trkpt>
      <trkpt lat="45.15557" lon="6.04479">
        <ele>821.2</ele>
        <time>2022-06-18T10:54:09Z</time>
      </trkpt>
      <trkpt lat="45.15546" lon="6.04486">
        <ele>819.6</ele>
        <time>2022-06-18T10:54:10Z</time>
      </trkpt>
      <trkpt lat="45.15535" lon="6.04495">
        <ele>818</ele>
        <time>2022-06-18T10:54:11Z</time>
      </trkpt>
      <trkpt lat="45.15525" lon="6.04505">
        <ele>816.4</ele>
        <time>2022-06-18T10:54:12Z</time>
      </trkpt>
      <trkpt lat="45.15516" lon="6.04514">
        <ele>815</ele>
        <time>2022-06-18T10:54:13Z</time>
      </trkpt>
      <trkpt lat="45.15507" lon="6.04524">
        <ele>813.8</ele>
        <time>2022-06-18T10:54:14Z</time>
      </trkpt>
      <trkpt lat="45.15497" lon="6.0453">
        <ele>812.6</ele>
        <time>2022-06-18T10:54:15Z</time>
      </trkpt>
      <trkpt lat="45.15486" lon="6.04535">
        <ele>811.2</ele>
        <time>2022-06-18T10:54:16Z</time>
      </trkpt>
      <trkpt lat="45.15474" lon="6.04538">
        <ele>809.6</ele>
        <time>2022-06-18T10:54:17Z</time>
      </trkpt>
      <trkpt lat="45.1546" lon="6.0454">
        <ele>807.8</ele>
        <time>2022-06-18T10:54:18Z</time>
      </trkpt>
      <trkpt lat="45.15447" lon="6.04544">
        <ele>806</ele>
        <time>2022-06-18T10:54:19Z</time>
      </trkpt>
      <trkpt lat="45.15434" lon="6.04548">
        <ele>804.2</ele>
        <time>2022-06-18T10:54:20Z</time>
      </trkpt>
      <trkpt lat="45.15421" lon="6.04551">
        <ele>802.3</ele>
        <time>2022-06-18T10:54:21Z</time>
      </trkpt>
      <trkpt lat="45.15409" lon="6.04555">
        <ele>800.5</ele>
        <time>2022-06-18T10:54:22Z</time>
      </trkpt>
      <trkpt lat="45.15398" lon="6.0456">
        <ele>799</ele>
        <time>2022-06-18T10:54:23Z</time>
      </trkpt>
      <trkpt lat="45.15387" lon="6.04563">
        <ele>797.7</ele>
        <time>2022-06-18T10:54:24Z</time>
      </trkpt>
      <trkpt lat="45.15374" lon="6.04564">
        <ele>796.4</ele>
        <time>2022-06-18T10:54:25Z</time>
      </trkpt>
      <trkpt lat="45.1536" lon="6.04566">
        <ele>795</ele>
        <time>2022-06-18T10:54:26Z</time>
      </trkpt>
      <trkpt lat="45.15346" lon="6.04567">
        <ele>793.6</ele>
        <time>2022-06-18T10:54:27Z</time>
      </trkpt>
      <trkpt lat="45.15333" lon="6.04568">
        <ele>792.4</ele>
        <time>2022-06-18T10:54:28Z</time>
      </trkpt>
      <trkpt lat="45.1532" lon="6.04572">
        <ele>791.2</ele>
        <time>2022-06-18T10:54:29Z</time>
      </trkpt>
      <trkpt lat="45.15307" lon="6.0458">
        <ele>790.8</ele>
        <time>2022-06-18T10:54:30Z</time>
      </trkpt>
      <trkpt lat="45.15296" lon="6.0459">
        <ele>790.3</ele>
        <time>2022-06-18T10:54:31Z</time>
      </trkpt>
      <trkpt lat="45.15287" lon="6.04602">
        <ele>789.8</ele>
        <time>2022-06-18T10:54:32Z</time>
      </trkpt>
      <trkpt lat="45.15278" lon="6.04614">
        <ele>789.3</ele>
        <time>2022-06-18T10:54:33Z</time>
      </trkpt>
      <trkpt lat="45.15269" lon="6.04624">
        <ele>788.9</ele>
        <time>2022-06-18T10:54:34Z</time>
      </trkpt>
      <trkpt lat="45.1526" lon="6.04634">
        <ele>788.5</ele>
        <time>2022-06-18T10:54:35Z</time>
      </trkpt>
      <trkpt lat="45.15251" lon="6.04643">
        <ele>788.2</ele>
        <time>2022-06-18T10:54:36Z</time>
      </trkpt>
      <trkpt lat="45.15241" lon="6.04649">
        <ele>788</ele>
        <time>2022-06-18T10:54:37Z</time>
      </trkpt>
      <trkpt lat="45.15231" lon="6.04653">
        <ele>787.8</ele>
        <time>2022-06-18T10:54:38Z</time>
      </trkpt>
      <trkpt lat="45.1522" lon="6.04655">
        <ele>787.7</ele>
        <time>2022-06-18T10:54:39Z</time>
      </trkpt>
      <trkpt lat="45.1521" lon="6.04659">
        <ele>787.7</ele>
        <time>2022-06-18T10:54:40Z</time>
      </trkpt>
      <trkpt lat="45.15199" lon="6.04663">
        <ele>787.8</ele>
        <time>2022-06-18T10:54:41Z</time>
      </trkpt>
      <trkpt lat="45.15189" lon="6.04669">
        <ele>788.2</ele>
        <time>2022-06-18T10:54:42Z</time>
      </trkpt>
      <trkpt lat="45.15181" lon="6.04677">
        <ele>788.6</ele>
        <time>2022-06-18T10:54:43Z</time>
      </trkpt>
      <trkpt lat="45.15174" lon="6.04685">
        <ele>788.9</ele>
        <time>2022-06-18T10:54:44Z</time>
      </trkpt>
      <trkpt lat="45.15167" lon="6.04695">
        <ele>789.2</ele>
        <time>2022-06-18T10:54:45Z</time>
      </trkpt>
      <trkpt lat="45.15161" lon="6.04703">
        <ele>789.5</ele>
        <time>2022-06-18T10:54:46Z</time>
      </trkpt>
      <trkpt lat="45.15155" lon="6.0471">
        <ele>789.8</ele>
        <time>2022-06-18T10:54:47Z</time>
      </trkpt>
      <trkpt lat="45.15148" lon="6.04716">
        <ele>790.1</ele>
        <time>2022-06-18T10:54:48Z</time>
      </trkpt>
      <trkpt lat="45.15142" lon="6.04721">
        <ele>790.4</ele>
        <time>2022-06-18T10:54:49Z</time>
      </trkpt>
      <trkpt lat="45.15135" lon="6.04726">
        <ele>790.7</ele>
        <time>2022-06-18T10:54:50Z</time>
      </trkpt>
      <trkpt lat="45.15128" lon="6.04731">
        <ele>791</ele>
        <time>2022-06-18T10:54:51Z</time>
      </trkpt>
      <trkpt lat="45.15122" lon="6.04735">
        <ele>791.3</ele>
        <time>2022-06-18T10:54:52Z</time>
      </trkpt>
      <trkpt lat="45.15115" lon="6.04739">
        <ele>791.5</ele>
        <time>2022-06-18T10:54:53Z</time>
      </trkpt>
      <trkpt lat="45.15109" lon="6.04743">
        <ele>791.8</ele>
        <time>2022-06-18T10:54:54Z</time>
      </trkpt>
      <trkpt lat="45.15102" lon="6.04747">
        <ele>792</ele>
        <time>2022-06-18T10:54:55Z</time>
      </trkpt>
      <trkpt lat="45.15096" lon="6.04752">
        <ele>792.3</ele>
        <time>2022-06-18T10:54:56Z</time>
      </trkpt>
      <trkpt lat="45.15091" lon="6.04756">
        <ele>792.4</ele>
        <time>2022-06-18T10:54:57Z</time>
      </trkpt>
      <trkpt lat="45.15086" lon="6.0476">
        <ele>792.6</ele>
        <time>2022-06-18T10:54:58Z</time>
      </trkpt>
      <trkpt lat="45.15081" lon="6.04764">
        <ele>792.8</ele>
        <time>2022-06-18T10:54:59Z</time>
      </trkpt>
      <trkpt lat="45.15076" lon="6.04768">
        <ele>793</ele>
        <time>2022-06-18T10:55:00Z</time>
      </trkpt>
      <trkpt lat="45.1507" lon="6.04771">
        <ele>793.2</ele>
        <time>2022-06-18T10:55:01Z</time>
      </trkpt>
      <trkpt lat="45.15064" lon="6.04774">
        <ele>793.4</ele>
        <time>2022-06-18T10:55:02Z</time>
      </trkpt>
      <trkpt lat="45.15059" lon="6.04777">
        <ele>793.6</ele>
        <time>2022-06-18T10:55:03Z</time>
      </trkpt>
      <trkpt lat="45.15053" lon="6.0478">
        <ele>793.7</ele>
        <time>2022-06-18T10:55:04Z</time>
      </trkpt>
      <trkpt lat="45.15047" lon="6.04783">
        <ele>793.7</ele>
        <time>2022-06-18T10:55:05Z</time>
      </trkpt>
      <trkpt lat="45.15041" lon="6.04786">
        <ele>793.7</ele>
        <time>2022-06-18T10:55:06Z</time>
      </trkpt>
      <trkpt lat="45.15035" lon="6.04789">
        <ele>793.6</ele>
        <time>2022-06-18T10:55:07Z</time>
      </trkpt>
      <trkpt lat="45.15029" lon="6.04793">
        <ele>793.5</ele>
        <time>2022-06-18T10:55:08Z</time>
      </trkpt>
      <trkpt lat="45.15024" lon="6.04796">
        <ele>793.5</ele>
        <time>2022-06-18T10:55:09Z</time>
      </trkpt>
      <trkpt lat="45.15018" lon="6.048">
        <ele>793.4</ele>
        <time>2022-06-18T10:55:10Z</time>
      </trkpt>
      <trkpt lat="45.15013" lon="6.04803">
        <ele>793.4</ele>
        <time>2022-06-18T10:55:11Z</time>
      </trkpt>
      <trkpt lat="45.15007" lon="6.04807">
        <ele>793.4</ele>
        <time>2022-06-18T10:55:12Z</time>
      </trkpt>
      <trkpt lat="45.15002" lon="6.04811">
        <ele>793.3</ele>
        <time>2022-06-18T10:55:13Z</time>
      </trkpt>
      <trkpt lat="45.14997" lon="6.04815">
        <ele>793.3</ele>
        <time>2022-06-18T10:55:14Z</time>
      </trkpt>
      <trkpt lat="45.14992" lon="6.04818">
        <ele>793.3</ele>
        <time>2022-06-18T10:55:15Z</time>
      </trkpt>
      <trkpt lat="45.14988" lon="6.04822">
        <ele>793.2</ele>
        <time>2022-06-18T10:55:16Z</time>
      </trkpt>
      <trkpt lat="45.14983" lon="6.04826">
        <ele>793.2</ele>
        <time>2022-06-18T10:55:17Z</time>
      </trkpt>
      <trkpt lat="45.14978" lon="6.04829">
        <ele>793.1</ele>
        <time>2022-06-18T10:55:18Z</time>
      </trkpt>
      <trkpt lat="45.14973" lon="6.04833">
        <ele>793.1</ele>
        <time>2022-06-18T10:55:19Z</time>
      </trkpt>
      <trkpt lat="45.14968" lon="6.04836">
        <ele>793</ele>
        <time>2022-06-18T10:55:20Z</time>
      </trkpt>
      <trkpt lat="45.14963" lon="6.04839">
        <ele>793</ele>
        <time>2022-06-18T10:55:21Z</time>
      </trkpt>
      <trkpt lat="45.14959" lon="6.04841">
        <ele>792.9</ele>
        <time>2022-06-18T10:55:22Z</time>
      </trkpt>
      <trkpt lat="45.14954" lon="6.04842">
        <ele>792.8</ele>
        <time>2022-06-18T10:55:23Z</time>
      </trkpt>
      <trkpt lat="45.14949" lon="6.04843">
        <ele>792.8</ele>
        <time>2022-06-18T10:55:24Z</time>
      </trkpt>
      <trkpt lat="45.14944" lon="6.04844">
        <ele>792.7</ele>
        <time>2022-06-18T10:55:25Z</time>
      </trkpt>
      <trkpt lat="45.14938" lon="6.04845">
        <ele>792.6</ele>
        <time>2022-06-18T10:55:26Z</time>
      </trkpt>
      <trkpt lat="45.14933" lon="6.04845">
        <ele>792.6</ele>
        <time>2022-06-18T10:55:27Z</time>
      </trkpt>
      <trkpt lat="45.14928" lon="6.04845">
        <ele>792.6</ele>
        <time>2022-06-18T10:55:28Z</time>
      </trkpt>
      <trkpt lat="45.14922" lon="6.04845">
        <ele>792.5</ele>
        <time>2022-06-18T10:55:29Z</time>
      </trkpt>
      <trkpt lat="45.14917" lon="6.04846">
        <ele>792.5</ele>
        <time>2022-06-18T10:55:30Z</time>
      </trkpt>
      <trkpt lat="45.14911" lon="6.04846">
        <ele>792.5</ele>
        <time>2022-06-18T10:55:31Z</time>
      </trkpt>
      <trkpt lat="45.14905" lon="6.04847">
        <ele>792.5</ele>
        <time>2022-06-18T10:55:32Z</time>
      </trkpt>
      <trkpt lat="45.14899" lon="6.04849">
        <ele>792.6</ele>
        <time>2022-06-18T10:55:33Z</time>
      </trkpt>
      <trkpt lat="45.14894" lon="6.0485">
        <ele>792.6</ele>
        <time>2022-06-18T10:55:34Z</time>
      </trkpt>
      <trkpt lat="45.14888" lon="6.04852">
        <ele>792.7</ele>
        <time>2022-06-18T10:55:35Z</time>
      </trkpt>
      <trkpt lat="45.14883" lon="6.04853">
        <ele>792.8</ele>
        <time>2022-06-18T10:55:36Z</time>
      </trkpt>
      <trkpt lat="45.14878" lon="6.04854">
        <ele>792.9</ele>
        <time>2022-06-18T10:55:37Z</time>
      </trkpt>
      <trkpt lat="45.14873" lon="6.04856">
        <ele>793.1</ele>
        <time>2022-06-18T10:55:38Z</time>
      </trkpt>
      <trkpt lat="45.14868" lon="6.04858">
        <ele>793.2</ele>
        <time>2022-06-18T10:55:39Z</time>
      </trkpt>
      <trkpt lat="45.14863" lon="6.0486">
        <ele>793.2</ele>
        <time>2022-06-18T10:55:40Z</time>
      </trkpt>
      <trkpt lat="45.14859" lon="6.04862">
        <ele>793.1</ele>
        <time>2022-06-18T10:55:41Z</time>
      </trkpt>
      <trkpt lat="45.14855" lon="6.04863">
        <ele>793</ele>
        <time>2022-06-18T10:55:42Z</time>
      </trkpt>
      <trkpt lat="45.14852" lon="6.04864">
        <ele>793</ele>
        <time>2022-06-18T10:55:43Z</time>
      </trkpt>
      <trkpt lat="45.14847" lon="6.04866">
        <ele>792.9</ele>
        <time>2022-06-18T10:55:44Z</time>
      </trkpt>
      <trkpt lat="45.14843" lon="6.04867">
        <ele>792.8</ele>
        <time>2022-06-18T10:55:45Z</time>
      </trkpt>
      <trkpt lat="45.14841" lon="6.04868">
        <ele>792.8</ele>
        <time>2022-06-18T10:55:46Z</time>
      </trkpt>
      <trkpt lat="45.14837" lon="6.0487">
        <ele>792.8</ele>
        <time>2022-06-18T10:55:47Z</time>
      </trkpt>
      <trkpt lat="45.14834" lon="6.04872">
        <ele>792.8</ele>
        <time>2022-06-18T10:55:48Z</time>
      </trkpt>
      <trkpt lat="45.14833" lon="6.04873">
        <ele>792.8</ele>
        <time>2022-06-18T10:55:49Z</time>
      </trkpt>
      <trkpt lat="45.14829" lon="6.04874">
        <ele>792.8</ele>
        <time>2022-06-18T10:55:51Z</time>
      </trkpt>
      <trkpt lat="45.14827" lon="6.04877">
        <ele>792.9</ele>
        <time>2022-06-18T10:55:52Z</time>
      </trkpt>
      <trkpt lat="45.14823" lon="6.04881">
        <ele>792.9</ele>
        <time>2022-06-18T10:55:54Z</time>
      </trkpt>
      <trkpt lat="45.1482" lon="6.04886">
        <ele>793.3</ele>
        <time>2022-06-18T10:55:55Z</time>
      </trkpt>
      <trkpt lat="45.14817" lon="6.04891">
        <ele>793.8</ele>
        <time>2022-06-18T10:55:57Z</time>
      </trkpt>
      <trkpt lat="45.14815" lon="6.04895">
        <ele>794</ele>
        <time>2022-06-18T10:55:58Z</time>
      </trkpt>
      <trkpt lat="45.14814" lon="6.049">
        <ele>794.4</ele>
        <time>2022-06-18T10:55:59Z</time>
      </trkpt>
      <trkpt lat="45.14813" lon="6.04902">
        <ele>794.5</ele>
        <time>2022-06-18T10:56:00Z</time>
      </trkpt>
      <trkpt lat="45.14813" lon="6.04907">
        <ele>794.8</ele>
        <time>2022-06-18T10:56:02Z</time>
      </trkpt>
      <trkpt lat="45.14813" lon="6.04911">
        <ele>795.1</ele>
        <time>2022-06-18T10:56:03Z</time>
      </trkpt>
      <trkpt lat="45.14813" lon="6.04916">
        <ele>795.4</ele>
        <time>2022-06-18T10:56:04Z</time>
      </trkpt>
      <trkpt lat="45.14813" lon="6.04917">
        <ele>795.5</ele>
        <time>2022-06-18T10:56:05Z</time>
      </trkpt>
      <trkpt lat="45.14813" lon="6.04922">
        <ele>795.8</ele>
        <time>2022-06-18T10:56:06Z</time>
      </trkpt>
      <trkpt lat="45.14813" lon="6.04924">
        <ele>795.9</ele>
        <time>2022-06-18T10:56:07Z</time>
      </trkpt>
      <trkpt lat="45.14812" lon="6.04929">
        <ele>796.3</ele>
        <time>2022-06-18T10:56:08Z</time>
      </trkpt>
      <trkpt lat="45.14811" lon="6.0493">
        <ele>796.4</ele>
        <time>2022-06-18T10:56:09Z</time>
      </trkpt>
      <trkpt lat="45.1481" lon="6.04934">
        <ele>796.7</ele>
        <time>2022-06-18T10:56:10Z</time>
      </trkpt>
      <trkpt lat="45.14809" lon="6.04939">
        <ele>797</ele>
        <time>2022-06-18T10:56:11Z</time>
      </trkpt>
      <trkpt lat="45.14809" lon="6.04941">
        <ele>797.1</ele>
        <time>2022-06-18T10:56:12Z</time>
      </trkpt>
      <trkpt lat="45.14808" lon="6.04948">
        <ele>797.6</ele>
        <time>2022-06-18T10:56:14Z</time>
      </trkpt>
      <trkpt lat="45.14807" lon="6.04953">
        <ele>798</ele>
        <time>2022-06-18T10:56:15Z</time>
      </trkpt>
      <trkpt lat="45.14807" lon="6.04955">
        <ele>798.1</ele>
        <time>2022-06-18T10:56:16Z</time>
      </trkpt>
      <trkpt lat="45.14806" lon="6.0496">
        <ele>798.5</ele>
        <time>2022-06-18T10:56:17Z</time>
      </trkpt>
      <trkpt lat="45.14806" lon="6.04961">
        <ele>798.6</ele>
        <time>2022-06-18T10:56:18Z</time>
      </trkpt>
      <trkpt lat="45.14804" lon="6.04965">
        <ele>798.8</ele>
        <time>2022-06-18T10:56:19Z</time>
      </trkpt>
      <trkpt lat="45.14803" lon="6.0497">
        <ele>799.2</ele>
        <time>2022-06-18T10:56:20Z</time>
      </trkpt>
      <trkpt lat="45.14802" lon="6.04971">
        <ele>799.3</ele>
        <time>2022-06-18T10:56:21Z</time>
      </trkpt>
      <trkpt lat="45.14801" lon="6.04975">
        <ele>799.6</ele>
        <time>2022-06-18T10:56:22Z</time>
      </trkpt>
      <trkpt lat="45.148" lon="6.04979">
        <ele>799.9</ele>
        <time>2022-06-18T10:56:23Z</time>
      </trkpt>
      <trkpt lat="45.14798" lon="6.04983">
        <ele>800.2</ele>
        <time>2022-06-18T10:56:24Z</time>
      </trkpt>
      <trkpt lat="45.14797" lon="6.04984">
        <ele>800.4</ele>
        <time>2022-06-18T10:56:25Z</time>
      </trkpt>
      <trkpt lat="45.14794" lon="6.04991">
        <ele>800.9</ele>
        <time>2022-06-18T10:56:27Z</time>
      </trkpt>
      <trkpt lat="45.14792" lon="6.04995">
        <ele>801.2</ele>
        <time>2022-06-18T10:56:28Z</time>
      </trkpt>
      <trkpt lat="45.14789" lon="6.04999">
        <ele>801.6</ele>
        <time>2022-06-18T10:56:30Z</time>
      </trkpt>
      <trkpt lat="45.14787" lon="6.05">
        <ele>801.8</ele>
        <time>2022-06-18T10:56:31Z</time>
      </trkpt>
      <trkpt lat="45.14784" lon="6.05003">
        <ele>802.2</ele>
        <time>2022-06-18T10:56:32Z</time>
      </trkpt>
      <trkpt lat="45.14783" lon="6.05004">
        <ele>802.3</ele>
        <time>2022-06-18T10:56:33Z</time>
      </trkpt>
      <trkpt lat="45.1478" lon="6.05008">
        <ele>802.6</ele>
        <time>2022-06-18T10:56:34Z</time>
      </trkpt>
      <trkpt lat="45.14779" lon="6.05009">
        <ele>802.7</ele>
        <time>2022-06-18T10:56:35Z</time>
      </trkpt>
      <trkpt lat="45.14777" lon="6.05011">
        <ele>803.1</ele>
        <time>2022-06-18T10:56:36Z</time>
      </trkpt>
      <trkpt lat="45.14774" lon="6.05016">
        <ele>803.8</ele>
        <time>2022-06-18T10:56:38Z</time>
      </trkpt>
      <trkpt lat="45.14772" lon="6.0502">
        <ele>804.4</ele>
        <time>2022-06-18T10:56:39Z</time>
      </trkpt>
      <trkpt lat="45.1477" lon="6.05023">
        <ele>804.9</ele>
        <time>2022-06-18T10:56:40Z</time>
      </trkpt>
      <trkpt lat="45.14768" lon="6.05027">
        <ele>805.4</ele>
        <time>2022-06-18T10:56:42Z</time>
      </trkpt>
      <trkpt lat="45.14766" lon="6.0503">
        <ele>805.9</ele>
        <time>2022-06-18T10:56:43Z</time>
      </trkpt>
      <trkpt lat="45.14763" lon="6.05034">
        <ele>806.6</ele>
        <time>2022-06-18T10:56:44Z</time>
      </trkpt>
      <trkpt lat="45.1476" lon="6.05038">
        <ele>807.2</ele>
        <time>2022-06-18T10:56:45Z</time>
      </trkpt>
      <trkpt lat="45.14759" lon="6.05039">
        <ele>807.4</ele>
        <time>2022-06-18T10:56:46Z</time>
      </trkpt>
      <trkpt lat="45.14757" lon="6.05043">
        <ele>807.9</ele>
        <time>2022-06-18T10:56:47Z</time>
      </trkpt>
      <trkpt lat="45.14755" lon="6.05046">
        <ele>808.2</ele>
        <time>2022-06-18T10:56:48Z</time>
      </trkpt>
      <trkpt lat="45.14752" lon="6.0505">
        <ele>808.4</ele>
        <time>2022-06-18T10:56:49Z</time>
      </trkpt>
      <trkpt lat="45.14752" lon="6.05051">
        <ele>808.5</ele>
        <time>2022-06-18T10:56:50Z</time>
      </trkpt>
      <trkpt lat="45.14749" lon="6.05054">
        <ele>808.6</ele>
        <time>2022-06-18T10:56:51Z</time>
      </trkpt>
      <trkpt lat="45.14747" lon="6.05057">
        <ele>808.8</ele>
        <time>2022-06-18T10:56:52Z</time>
      </trkpt>
      <trkpt lat="45.14744" lon="6.0506">
        <ele>809</ele>
        <time>2022-06-18T10:56:53Z</time>
      </trkpt>
      <trkpt lat="45.14743" lon="6.05061">
        <ele>809.1</ele>
        <time>2022-06-18T10:56:54Z</time>
      </trkpt>
      <trkpt lat="45.14741" lon="6.05065">
        <ele>809.3</ele>
        <time>2022-06-18T10:56:55Z</time>
      </trkpt>
      <trkpt lat="45.1474" lon="6.05066">
        <ele>809.3</ele>
        <time>2022-06-18T10:56:56Z</time>
      </trkpt>
      <trkpt lat="45.14738" lon="6.0507">
        <ele>809.5</ele>
        <time>2022-06-18T10:56:57Z</time>
      </trkpt>
      <trkpt lat="45.14737" lon="6.05071">
        <ele>809.5</ele>
        <time>2022-06-18T10:56:58Z</time>
      </trkpt>
      <trkpt lat="45.14734" lon="6.05074">
        <ele>809.7</ele>
        <time>2022-06-18T10:56:59Z</time>
      </trkpt>
      <trkpt lat="45.14733" lon="6.05075">
        <ele>809.8</ele>
        <time>2022-06-18T10:57:00Z</time>
      </trkpt>
      <trkpt lat="45.14731" lon="6.05077">
        <ele>809.9</ele>
        <time>2022-06-18T10:57:02Z</time>
      </trkpt>
      <trkpt lat="45.14727" lon="6.05079">
        <ele>810.1</ele>
        <time>2022-06-18T10:57:03Z</time>
      </trkpt>
      <trkpt lat="45.14723" lon="6.05082">
        <ele>810.3</ele>
        <time>2022-06-18T10:57:04Z</time>
      </trkpt>
      <trkpt lat="45.14718" lon="6.05085">
        <ele>810.5</ele>
        <time>2022-06-18T10:57:06Z</time>
      </trkpt>
      <trkpt lat="45.14715" lon="6.05086">
        <ele>810.6</ele>
        <time>2022-06-18T10:57:07Z</time>
      </trkpt>
      <trkpt lat="45.14712" lon="6.05087">
        <ele>810.7</ele>
        <time>2022-06-18T10:57:08Z</time>
      </trkpt>
      <trkpt lat="45.14709" lon="6.05088">
        <ele>810.8</ele>
        <time>2022-06-18T10:57:09Z</time>
      </trkpt>
      <trkpt lat="45.14706" lon="6.05088">
        <ele>810.9</ele>
        <time>2022-06-18T10:57:10Z</time>
      </trkpt>
      <trkpt lat="45.14703" lon="6.05088">
        <ele>811</ele>
        <time>2022-06-18T10:57:11Z</time>
      </trkpt>
      <trkpt lat="45.147" lon="6.05088">
        <ele>811.2</ele>
        <time>2022-06-18T10:57:12Z</time>
      </trkpt>
      <trkpt lat="45.14697" lon="6.05088">
        <ele>811.3</ele>
        <time>2022-06-18T10:57:13Z</time>
      </trkpt>
      <trkpt lat="45.14694" lon="6.05088">
        <ele>811.3</ele>
        <time>2022-06-18T10:57:14Z</time>
      </trkpt>
      <trkpt lat="45.14687" lon="6.05087">
        <ele>811.5</ele>
        <time>2022-06-18T10:57:16Z</time>
      </trkpt>
      <trkpt lat="45.14682" lon="6.05089">
        <ele>811.7</ele>
        <time>2022-06-18T10:57:18Z</time>
      </trkpt>
      <trkpt lat="45.14678" lon="6.0509">
        <ele>811.7</ele>
        <time>2022-06-18T10:57:19Z</time>
      </trkpt>
      <trkpt lat="45.14675" lon="6.05092">
        <ele>811.8</ele>
        <time>2022-06-18T10:57:20Z</time>
      </trkpt>
      <trkpt lat="45.14672" lon="6.05093">
        <ele>811.8</ele>
        <time>2022-06-18T10:57:21Z</time>
      </trkpt>
      <trkpt lat="45.14669" lon="6.05095">
        <ele>811.9</ele>
        <time>2022-06-18T10:57:22Z</time>
      </trkpt>
      <trkpt lat="45.14665" lon="6.05097">
        <ele>811.9</ele>
        <time>2022-06-18T10:57:23Z</time>
      </trkpt>
      <trkpt lat="45.14662" lon="6.051">
        <ele>811.9</ele>
        <time>2022-06-18T10:57:24Z</time>
      </trkpt>
      <trkpt lat="45.1466" lon="6.05103">
        <ele>811.9</ele>
        <time>2022-06-18T10:57:25Z</time>
      </trkpt>
      <trkpt lat="45.14657" lon="6.05106">
        <ele>811.9</ele>
        <time>2022-06-18T10:57:26Z</time>
      </trkpt>
      <trkpt lat="45.14654" lon="6.0511">
        <ele>811.9</ele>
        <time>2022-06-18T10:57:27Z</time>
      </trkpt>
      <trkpt lat="45.14651" lon="6.05113">
        <ele>811.9</ele>
        <time>2022-06-18T10:57:28Z</time>
      </trkpt>
      <trkpt lat="45.14649" lon="6.05115">
        <ele>811.9</ele>
        <time>2022-06-18T10:57:29Z</time>
      </trkpt>
      <trkpt lat="45.14646" lon="6.05118">
        <ele>811.9</ele>
        <time>2022-06-18T10:57:30Z</time>
      </trkpt>
      <trkpt lat="45.14644" lon="6.0512">
        <ele>811.9</ele>
        <time>2022-06-18T10:57:31Z</time>
      </trkpt>
      <trkpt lat="45.14641" lon="6.05122">
        <ele>811.9</ele>
        <time>2022-06-18T10:57:32Z</time>
      </trkpt>
      <trkpt lat="45.1464" lon="6.05126">
        <ele>811.9</ele>
        <time>2022-06-18T10:57:33Z</time>
      </trkpt>
      <trkpt lat="45.14639" lon="6.05128">
        <ele>811.9</ele>
        <time>2022-06-18T10:57:34Z</time>
      </trkpt>
      <trkpt lat="45.14639" lon="6.05133">
        <ele>811.8</ele>
        <time>2022-06-18T10:57:35Z</time>
      </trkpt>
      <trkpt lat="45.14639" lon="6.05134">
        <ele>811.8</ele>
        <time>2022-06-18T10:57:36Z</time>
      </trkpt>
      <trkpt lat="45.14636" lon="6.05138">
        <ele>811.8</ele>
        <time>2022-06-18T10:57:37Z</time>
      </trkpt>
      <trkpt lat="45.14634" lon="6.05139">
        <ele>811.9</ele>
        <time>2022-06-18T10:57:38Z</time>
      </trkpt>
      <trkpt lat="45.1463" lon="6.05142">
        <ele>812</ele>
        <time>2022-06-18T10:57:39Z</time>
      </trkpt>
      <trkpt lat="45.14627" lon="6.05144">
        <ele>812.1</ele>
        <time>2022-06-18T10:57:40Z</time>
      </trkpt>
      <trkpt lat="45.14624" lon="6.05146">
        <ele>812.1</ele>
        <time>2022-06-18T10:57:41Z</time>
      </trkpt>
      <trkpt lat="45.14621" lon="6.05149">
        <ele>812.2</ele>
        <time>2022-06-18T10:57:42Z</time>
      </trkpt>
      <trkpt lat="45.14617" lon="6.05153">
        <ele>812.2</ele>
        <time>2022-06-18T10:57:43Z</time>
      </trkpt>
      <trkpt lat="45.14615" lon="6.05156">
        <ele>812.3</ele>
        <time>2022-06-18T10:57:44Z</time>
      </trkpt>
      <trkpt lat="45.14613" lon="6.0516">
        <ele>812.3</ele>
        <time>2022-06-18T10:57:45Z</time>
      </trkpt>
      <trkpt lat="45.14611" lon="6.05163">
        <ele>812.3</ele>
        <time>2022-06-18T10:57:46Z</time>
      </trkpt>
      <trkpt lat="45.14608" lon="6.05168">
        <ele>812.4</ele>
        <time>2022-06-18T10:57:47Z</time>
      </trkpt>
      <trkpt lat="45.14605" lon="6.05172">
        <ele>812.4</ele>
        <time>2022-06-18T10:57:48Z</time>
      </trkpt>
      <trkpt lat="45.14601" lon="6.05176">
        <ele>812.4</ele>
        <time>2022-06-18T10:57:49Z</time>
      </trkpt>
      <trkpt lat="45.14599" lon="6.05181">
        <ele>812.4</ele>
        <time>2022-06-18T10:57:51Z</time>
      </trkpt>
      <trkpt lat="45.14596" lon="6.05188">
        <ele>812.4</ele>
        <time>2022-06-18T10:57:52Z</time>
      </trkpt>
      <trkpt lat="45.14595" lon="6.05193">
        <ele>812.4</ele>
        <time>2022-06-18T10:57:53Z</time>
      </trkpt>
      <trkpt lat="45.14593" lon="6.05204">
        <ele>812.4</ele>
        <time>2022-06-18T10:57:55Z</time>
      </trkpt>
      <trkpt lat="45.14593" lon="6.05213">
        <ele>812.4</ele>
        <time>2022-06-18T10:57:56Z</time>
      </trkpt>
      <trkpt lat="45.14592" lon="6.0522">
        <ele>812.4</ele>
        <time>2022-06-18T10:57:57Z</time>
      </trkpt>
      <trkpt lat="45.14592" lon="6.05227">
        <ele>812.3</ele>
        <time>2022-06-18T10:57:58Z</time>
      </trkpt>
      <trkpt lat="45.14591" lon="6.05235">
        <ele>812.3</ele>
        <time>2022-06-18T10:57:59Z</time>
      </trkpt>
      <trkpt lat="45.1459" lon="6.05242">
        <ele>812.2</ele>
        <time>2022-06-18T10:58:00Z</time>
      </trkpt>
      <trkpt lat="45.1459" lon="6.0525">
        <ele>812.1</ele>
        <time>2022-06-18T10:58:01Z</time>
      </trkpt>
      <trkpt lat="45.14589" lon="6.05258">
        <ele>812</ele>
        <time>2022-06-18T10:58:02Z</time>
      </trkpt>
      <trkpt lat="45.14588" lon="6.05266">
        <ele>811.9</ele>
        <time>2022-06-18T10:58:03Z</time>
      </trkpt>
      <trkpt lat="45.14586" lon="6.05275">
        <ele>811.8</ele>
        <time>2022-06-18T10:58:04Z</time>
      </trkpt>
      <trkpt lat="45.14586" lon="6.05284">
        <ele>811.6</ele>
        <time>2022-06-18T10:58:05Z</time>
      </trkpt>
      <trkpt lat="45.14585" lon="6.05295">
        <ele>811.5</ele>
        <time>2022-06-18T10:58:06Z</time>
      </trkpt>
      <trkpt lat="45.14584" lon="6.05306">
        <ele>811.1</ele>
        <time>2022-06-18T10:58:07Z</time>
      </trkpt>
      <trkpt lat="45.14583" lon="6.05317">
        <ele>810.6</ele>
        <time>2022-06-18T10:58:08Z</time>
      </trkpt>
      <trkpt lat="45.14581" lon="6.05328">
        <ele>810</ele>
        <time>2022-06-18T10:58:09Z</time>
      </trkpt>
      <trkpt lat="45.1458" lon="6.05339">
        <ele>809.5</ele>
        <time>2022-06-18T10:58:10Z</time>
      </trkpt>
      <trkpt lat="45.14579" lon="6.0535">
        <ele>809</ele>
        <time>2022-06-18T10:58:11Z</time>
      </trkpt>
      <trkpt lat="45.14577" lon="6.05361">
        <ele>808.4</ele>
        <time>2022-06-18T10:58:12Z</time>
      </trkpt>
      <trkpt lat="45.14574" lon="6.05372">
        <ele>807.9</ele>
        <time>2022-06-18T10:58:13Z</time>
      </trkpt>
      <trkpt lat="45.14572" lon="6.05382">
        <ele>807.4</ele>
        <time>2022-06-18T10:58:14Z</time>
      </trkpt>
      <trkpt lat="45.1457" lon="6.05391">
        <ele>806.9</ele>
        <time>2022-06-18T10:58:15Z</time>
      </trkpt>
      <trkpt lat="45.14567" lon="6.05399">
        <ele>806.5</ele>
        <time>2022-06-18T10:58:16Z</time>
      </trkpt>
      <trkpt lat="45.14565" lon="6.05407">
        <ele>806.1</ele>
        <time>2022-06-18T10:58:17Z</time>
      </trkpt>
      <trkpt lat="45.14563" lon="6.05413">
        <ele>805.8</ele>
        <time>2022-06-18T10:58:18Z</time>
      </trkpt>
      <trkpt lat="45.14562" lon="6.05418">
        <ele>805.5</ele>
        <time>2022-06-18T10:58:19Z</time>
      </trkpt>
      <trkpt lat="45.14562" lon="6.0542">
        <ele>805.4</ele>
        <time>2022-06-18T10:58:20Z</time>
      </trkpt>
      <trkpt lat="45.14561" lon="6.05424">
        <ele>805.2</ele>
        <time>2022-06-18T10:58:21Z</time>
      </trkpt>
      <trkpt lat="45.14561" lon="6.05427">
        <ele>805</ele>
        <time>2022-06-18T10:58:22Z</time>
      </trkpt>
      <trkpt lat="45.14562" lon="6.05427">
        <ele>805</ele>
        <time>2022-06-18T10:58:23Z</time>
      </trkpt>
      <trkpt lat="45.14562" lon="6.05427">
        <ele>805</ele>
        <time>2022-06-18T10:58:24Z</time>
      </trkpt>
      <trkpt lat="45.14562" lon="6.05426">
        <ele>805</ele>
        <time>2022-06-18T10:58:25Z</time>
      </trkpt>
      <trkpt lat="45.14562" lon="6.05426">
        <ele>805</ele>
        <time>2022-06-18T10:58:26Z</time>
      </trkpt>
      <trkpt lat="45.14562" lon="6.05426">
        <ele>805</ele>
        <time>2022-06-18T10:58:27Z</time>
      </trkpt>
      <trkpt lat="45.14562" lon="6.05425">
        <ele>804.9</ele>
        <time>2022-06-18T10:58:28Z</time>
      </trkpt>
      <trkpt lat="45.14563" lon="6.05425">
        <ele>804.9</ele>
        <time>2022-06-18T10:58:29Z</time>
      </trkpt>
      <trkpt lat="45.14563" lon="6.05425">
        <ele>804.9</ele>
        <time>2022-06-18T10:58:30Z</time>
      </trkpt>
      <trkpt lat="45.14563" lon="6.05426">
        <ele>804.9</ele>
        <time>2022-06-18T10:58:31Z</time>
      </trkpt>
      <trkpt lat="45.14563" lon="6.05426">
        <ele>804.9</ele>
        <time>2022-06-18T10:58:32Z</time>
      </trkpt>
      <trkpt lat="45.14563" lon="6.05426">
        <ele>804.8</ele>
        <time>2022-06-18T10:58:34Z</time>
      </trkpt>
      <trkpt lat="45.14563" lon="6.05426">
        <ele>804.8</ele>
        <time>2022-06-18T10:58:35Z</time>
      </trkpt>
      <trkpt lat="45.14563" lon="6.05427">
        <ele>804.8</ele>
        <time>2022-06-18T10:58:36Z</time>
      </trkpt>
      <trkpt lat="45.14562" lon="6.05427">
        <ele>804.8</ele>
        <time>2022-06-18T10:58:37Z</time>
      </trkpt>
      <trkpt lat="45.14562" lon="6.05427">
        <ele>804.8</ele>
        <time>2022-06-18T10:58:38Z</time>
      </trkpt>
      <trkpt lat="45.14562" lon="6.05427">
        <ele>804.8</ele>
        <time>2022-06-18T10:58:40Z</time>
      </trkpt>
      <trkpt lat="45.14562" lon="6.05427">
        <ele>804.8</ele>
        <time>2022-06-18T10:58:41Z</time>
      </trkpt>
      <trkpt lat="45.14562" lon="6.05427">
        <ele>804.8</ele>
        <time>2022-06-18T10:58:42Z</time>
      </trkpt>
      <trkpt lat="45.14562" lon="6.05427">
        <ele>804.7</ele>
        <time>2022-06-18T10:58:43Z</time>
      </trkpt>
      <trkpt lat="45.14562" lon="6.05427">
        <ele>804.7</ele>
        <time>2022-06-18T10:58:44Z</time>
      </trkpt>
      <trkpt lat="45.14562" lon="6.05427">
        <ele>804.7</ele>
        <time>2022-06-18T10:58:45Z</time>
      </trkpt>
      <trkpt lat="45.14562" lon="6.05427">
        <ele>804.7</ele>
        <time>2022-06-18T10:58:46Z</time>
      </trkpt>
      <trkpt lat="45.14561" lon="6.05428">
        <ele>804.6</ele>
        <time>2022-06-18T11:02:33Z</time>
      </trkpt>
      <trkpt lat="45.14561" lon="6.05429">
        <ele>804.6</ele>
        <time>2022-06-18T11:02:34Z</time>
      </trkpt>
      <trkpt lat="45.14561" lon="6.05429">
        <ele>804.6</ele>
        <time>2022-06-18T11:02:35Z</time>
      </trkpt>
      <trkpt lat="45.1456" lon="6.05429">
        <ele>804.5</ele>
        <time>2022-06-18T11:02:37Z</time>
      </trkpt>
      <trkpt lat="45.1456" lon="6.05429">
        <ele>804.5</ele>
        <time>2022-06-18T11:02:38Z</time>
      </trkpt>
      <trkpt lat="45.1456" lon="6.05429">
        <ele>804.5</ele>
        <time>2022-06-18T11:02:39Z</time>
      </trkpt>
      <trkpt lat="45.14559" lon="6.05429">
        <ele>804.5</ele>
        <time>2022-06-18T11:02:40Z</time>
      </trkpt>
      <trkpt lat="45.14559" lon="6.05429">
        <ele>804.4</ele>
        <time>2022-06-18T11:02:41Z</time>
      </trkpt>
      <trkpt lat="45.14559" lon="6.05429">
        <ele>804.4</ele>
        <time>2022-06-18T11:02:42Z</time>
      </trkpt>
      <trkpt lat="45.14554" lon="6.05435">
        <ele>804</ele>
        <time>2022-06-18T11:02:43Z</time>
      </trkpt>
      <trkpt lat="45.14549" lon="6.05442">
        <ele>803.8</ele>
        <time>2022-06-18T11:02:44Z</time>
      </trkpt>
      <trkpt lat="45.14544" lon="6.05448">
        <ele>803.5</ele>
        <time>2022-06-18T11:03:13Z</time>
      </trkpt>
      <trkpt lat="45.14539" lon="6.05454">
        <ele>803.3</ele>
        <time>2022-06-18T11:03:14Z</time>
      </trkpt>
      <trkpt lat="45.14531" lon="6.05458">
        <ele>803.1</ele>
        <time>2022-06-18T11:03:15Z</time>
      </trkpt>
      <trkpt lat="45.14524" lon="6.05462">
        <ele>802.5</ele>
        <time>2022-06-18T11:03:16Z</time>
      </trkpt>
      <trkpt lat="45.14515" lon="6.05465">
        <ele>801.9</ele>
        <time>2022-06-18T11:03:17Z</time>
      </trkpt>
      <trkpt lat="45.14507" lon="6.05466">
        <ele>801.3</ele>
        <time>2022-06-18T11:03:18Z</time>
      </trkpt>
      <trkpt lat="45.14498" lon="6.05465">
        <ele>800.7</ele>
        <time>2022-06-18T11:03:19Z</time>
      </trkpt>
      <trkpt lat="45.14489" lon="6.05462">
        <ele>800</ele>
        <time>2022-06-18T11:03:20Z</time>
      </trkpt>
      <trkpt lat="45.1448" lon="6.05457">
        <ele>799.4</ele>
        <time>2022-06-18T11:03:21Z</time>
      </trkpt>
      <trkpt lat="45.14471" lon="6.05451">
        <ele>798.7</ele>
        <time>2022-06-18T11:03:22Z</time>
      </trkpt>
      <trkpt lat="45.14463" lon="6.05443">
        <ele>797.9</ele>
        <time>2022-06-18T11:03:23Z</time>
      </trkpt>
      <trkpt lat="45.14456" lon="6.05432">
        <ele>797.2</ele>
        <time>2022-06-18T11:03:24Z</time>
      </trkpt>
      <trkpt lat="45.1445" lon="6.05419">
        <ele>796.4</ele>
        <time>2022-06-18T11:03:25Z</time>
      </trkpt>
      <trkpt lat="45.14445" lon="6.05406">
        <ele>795.6</ele>
        <time>2022-06-18T11:03:26Z</time>
      </trkpt>
      <trkpt lat="45.14442" lon="6.05391">
        <ele>794.8</ele>
        <time>2022-06-18T11:03:27Z</time>
      </trkpt>
      <trkpt lat="45.1444" lon="6.05376">
        <ele>794</ele>
        <time>2022-06-18T11:03:28Z</time>
      </trkpt>
      <trkpt lat="45.14438" lon="6.05361">
        <ele>793.2</ele>
        <time>2022-06-18T11:03:29Z</time>
      </trkpt>
      <trkpt lat="45.14437" lon="6.05347">
        <ele>792.6</ele>
        <time>2022-06-18T11:03:30Z</time>
      </trkpt>
      <trkpt lat="45.14436" lon="6.05333">
        <ele>791.9</ele>
        <time>2022-06-18T11:03:31Z</time>
      </trkpt>
      <trkpt lat="45.14434" lon="6.05319">
        <ele>791.2</ele>
        <time>2022-06-18T11:03:32Z</time>
      </trkpt>
      <trkpt lat="45.14434" lon="6.05305">
        <ele>790.5</ele>
        <time>2022-06-18T11:03:33Z</time>
      </trkpt>
      <trkpt lat="45.14434" lon="6.05293">
        <ele>789.9</ele>
        <time>2022-06-18T11:03:34Z</time>
      </trkpt>
      <trkpt lat="45.14435" lon="6.05281">
        <ele>789.3</ele>
        <time>2022-06-18T11:03:35Z</time>
      </trkpt>
      <trkpt lat="45.14438" lon="6.05268">
        <ele>788.6</ele>
        <time>2022-06-18T11:03:36Z</time>
      </trkpt>
      <trkpt lat="45.14443" lon="6.05255">
        <ele>787.8</ele>
        <time>2022-06-18T11:03:37Z</time>
      </trkpt>
      <trkpt lat="45.14448" lon="6.05243">
        <ele>787.1</ele>
        <time>2022-06-18T11:03:38Z</time>
      </trkpt>
      <trkpt lat="45.14453" lon="6.0523">
        <ele>786.3</ele>
        <time>2022-06-18T11:03:39Z</time>
      </trkpt>
      <trkpt lat="45.14457" lon="6.05218">
        <ele>785.6</ele>
        <time>2022-06-18T11:03:40Z</time>
      </trkpt>
      <trkpt lat="45.14459" lon="6.05206">
        <ele>784.8</ele>
        <time>2022-06-18T11:03:41Z</time>
      </trkpt>
      <trkpt lat="45.14459" lon="6.05193">
        <ele>783.8</ele>
        <time>2022-06-18T11:03:42Z</time>
      </trkpt>
      <trkpt lat="45.14456" lon="6.0518">
        <ele>783.1</ele>
        <time>2022-06-18T11:03:43Z</time>
      </trkpt>
      <trkpt lat="45.14452" lon="6.05169">
        <ele>782.6</ele>
        <time>2022-06-18T11:03:44Z</time>
      </trkpt>
      <trkpt lat="45.14446" lon="6.0516">
        <ele>782.1</ele>
        <time>2022-06-18T11:03:45Z</time>
      </trkpt>
      <trkpt lat="45.14438" lon="6.05154">
        <ele>781.5</ele>
        <time>2022-06-18T11:03:46Z</time>
      </trkpt>
      <trkpt lat="45.14429" lon="6.05149">
        <ele>780.9</ele>
        <time>2022-06-18T11:03:47Z</time>
      </trkpt>
      <trkpt lat="45.1442" lon="6.05145">
        <ele>780.2</ele>
        <time>2022-06-18T11:03:48Z</time>
      </trkpt>
      <trkpt lat="45.1441" lon="6.05141">
        <ele>779.5</ele>
        <time>2022-06-18T11:03:49Z</time>
      </trkpt>
      <trkpt lat="45.14401" lon="6.05137">
        <ele>778.8</ele>
        <time>2022-06-18T11:03:50Z</time>
      </trkpt>
      <trkpt lat="45.14391" lon="6.05132">
        <ele>778.1</ele>
        <time>2022-06-18T11:03:51Z</time>
      </trkpt>
      <trkpt lat="45.14382" lon="6.05125">
        <ele>777.4</ele>
        <time>2022-06-18T11:03:52Z</time>
      </trkpt>
      <trkpt lat="45.14374" lon="6.05117">
        <ele>776.7</ele>
        <time>2022-06-18T11:03:53Z</time>
      </trkpt>
      <trkpt lat="45.14365" lon="6.0511">
        <ele>776</ele>
        <time>2022-06-18T11:03:54Z</time>
      </trkpt>
      <trkpt lat="45.14356" lon="6.05102">
        <ele>775.3</ele>
        <time>2022-06-18T11:03:55Z</time>
      </trkpt>
      <trkpt lat="45.14347" lon="6.05093">
        <ele>774.7</ele>
        <time>2022-06-18T11:03:56Z</time>
      </trkpt>
      <trkpt lat="45.14339" lon="6.05083">
        <ele>774.1</ele>
        <time>2022-06-18T11:03:57Z</time>
      </trkpt>
      <trkpt lat="45.14331" lon="6.05074">
        <ele>773.6</ele>
        <time>2022-06-18T11:03:58Z</time>
      </trkpt>
      <trkpt lat="45.14323" lon="6.05065">
        <ele>773.1</ele>
        <time>2022-06-18T11:03:59Z</time>
      </trkpt>
      <trkpt lat="45.14314" lon="6.05057">
        <ele>772.7</ele>
        <time>2022-06-18T11:04:00Z</time>
      </trkpt>
      <trkpt lat="45.14305" lon="6.0505">
        <ele>772.4</ele>
        <time>2022-06-18T11:04:01Z</time>
      </trkpt>
      <trkpt lat="45.14297" lon="6.05042">
        <ele>772.1</ele>
        <time>2022-06-18T11:04:02Z</time>
      </trkpt>
      <trkpt lat="45.14288" lon="6.05035">
        <ele>771.8</ele>
        <time>2022-06-18T11:04:03Z</time>
      </trkpt>
      <trkpt lat="45.14279" lon="6.05029">
        <ele>771.6</ele>
        <time>2022-06-18T11:04:04Z</time>
      </trkpt>
      <trkpt lat="45.1427" lon="6.05023">
        <ele>771.5</ele>
        <time>2022-06-18T11:04:05Z</time>
      </trkpt>
      <trkpt lat="45.14261" lon="6.05017">
        <ele>771.4</ele>
        <time>2022-06-18T11:04:06Z</time>
      </trkpt>
      <trkpt lat="45.14253" lon="6.05011">
        <ele>771.3</ele>
        <time>2022-06-18T11:04:07Z</time>
      </trkpt>
      <trkpt lat="45.14245" lon="6.05006">
        <ele>771.2</ele>
        <time>2022-06-18T11:04:08Z</time>
      </trkpt>
      <trkpt lat="45.14237" lon="6.05001">
        <ele>771.2</ele>
        <time>2022-06-18T11:04:09Z</time>
      </trkpt>
      <trkpt lat="45.14229" lon="6.04996">
        <ele>771.1</ele>
        <time>2022-06-18T11:04:10Z</time>
      </trkpt>
      <trkpt lat="45.14221" lon="6.04991">
        <ele>771</ele>
        <time>2022-06-18T11:04:11Z</time>
      </trkpt>
      <trkpt lat="45.14214" lon="6.04985">
        <ele>771</ele>
        <time>2022-06-18T11:04:12Z</time>
      </trkpt>
      <trkpt lat="45.14207" lon="6.0498">
        <ele>770.9</ele>
        <time>2022-06-18T11:04:13Z</time>
      </trkpt>
      <trkpt lat="45.142" lon="6.04975">
        <ele>770.9</ele>
        <time>2022-06-18T11:04:14Z</time>
      </trkpt>
      <trkpt lat="45.14193" lon="6.0497">
        <ele>770.9</ele>
        <time>2022-06-18T11:04:15Z</time>
      </trkpt>
      <trkpt lat="45.14186" lon="6.04966">
        <ele>770.9</ele>
        <time>2022-06-18T11:04:16Z</time>
      </trkpt>
      <trkpt lat="45.14179" lon="6.04963">
        <ele>770.9</ele>
        <time>2022-06-18T11:04:17Z</time>
      </trkpt>
      <trkpt lat="45.14172" lon="6.04959">
        <ele>770.9</ele>
        <time>2022-06-18T11:04:18Z</time>
      </trkpt>
      <trkpt lat="45.14165" lon="6.04956">
        <ele>770.9</ele>
        <time>2022-06-18T11:04:19Z</time>
      </trkpt>
      <trkpt lat="45.14157" lon="6.04953">
        <ele>771</ele>
        <time>2022-06-18T11:04:20Z</time>
      </trkpt>
      <trkpt lat="45.1415" lon="6.0495">
        <ele>771</ele>
        <time>2022-06-18T11:04:21Z</time>
      </trkpt>
      <trkpt lat="45.14144" lon="6.04947">
        <ele>771.1</ele>
        <time>2022-06-18T11:04:22Z</time>
      </trkpt>
      <trkpt lat="45.14137" lon="6.04943">
        <ele>771.2</ele>
        <time>2022-06-18T11:04:23Z</time>
      </trkpt>
      <trkpt lat="45.1413" lon="6.0494">
        <ele>771.2</ele>
        <time>2022-06-18T11:04:24Z</time>
      </trkpt>
      <trkpt lat="45.14124" lon="6.04937">
        <ele>771.3</ele>
        <time>2022-06-18T11:04:25Z</time>
      </trkpt>
      <trkpt lat="45.14118" lon="6.04934">
        <ele>771.3</ele>
        <time>2022-06-18T11:04:26Z</time>
      </trkpt>
      <trkpt lat="45.14111" lon="6.04931">
        <ele>771.4</ele>
        <time>2022-06-18T11:04:27Z</time>
      </trkpt>
      <trkpt lat="45.14105" lon="6.04927">
        <ele>771.4</ele>
        <time>2022-06-18T11:04:28Z</time>
      </trkpt>
      <trkpt lat="45.14098" lon="6.04924">
        <ele>771.5</ele>
        <time>2022-06-18T11:04:29Z</time>
      </trkpt>
      <trkpt lat="45.14092" lon="6.04921">
        <ele>771.6</ele>
        <time>2022-06-18T11:04:30Z</time>
      </trkpt>
      <trkpt lat="45.14086" lon="6.0492">
        <ele>771.6</ele>
        <time>2022-06-18T11:04:31Z</time>
      </trkpt>
      <trkpt lat="45.1408" lon="6.04917">
        <ele>771.7</ele>
        <time>2022-06-18T11:04:32Z</time>
      </trkpt>
      <trkpt lat="45.14073" lon="6.04915">
        <ele>771.7</ele>
        <time>2022-06-18T11:04:33Z</time>
      </trkpt>
      <trkpt lat="45.14067" lon="6.04914">
        <ele>771.8</ele>
        <time>2022-06-18T11:04:34Z</time>
      </trkpt>
      <trkpt lat="45.14061" lon="6.04914">
        <ele>771.9</ele>
        <time>2022-06-18T11:04:35Z</time>
      </trkpt>
      <trkpt lat="45.14054" lon="6.04914">
        <ele>772</ele>
        <time>2022-06-18T11:04:36Z</time>
      </trkpt>
      <trkpt lat="45.14047" lon="6.04913">
        <ele>772</ele>
        <time>2022-06-18T11:04:37Z</time>
      </trkpt>
      <trkpt lat="45.14041" lon="6.04912">
        <ele>772.1</ele>
        <time>2022-06-18T11:04:38Z</time>
      </trkpt>
      <trkpt lat="45.14035" lon="6.04911">
        <ele>772.1</ele>
        <time>2022-06-18T11:04:39Z</time>
      </trkpt>
      <trkpt lat="45.14029" lon="6.0491">
        <ele>772.1</ele>
        <time>2022-06-18T11:04:40Z</time>
      </trkpt>
      <trkpt lat="45.14022" lon="6.0491">
        <ele>772.2</ele>
        <time>2022-06-18T11:04:41Z</time>
      </trkpt>
      <trkpt lat="45.14016" lon="6.0491">
        <ele>772.2</ele>
        <time>2022-06-18T11:04:42Z</time>
      </trkpt>
      <trkpt lat="45.14009" lon="6.0491">
        <ele>772.3</ele>
        <time>2022-06-18T11:04:43Z</time>
      </trkpt>
      <trkpt lat="45.14003" lon="6.04909">
        <ele>772.4</ele>
        <time>2022-06-18T11:04:44Z</time>
      </trkpt>
      <trkpt lat="45.13996" lon="6.04909">
        <ele>772.4</ele>
        <time>2022-06-18T11:04:45Z</time>
      </trkpt>
      <trkpt lat="45.1399" lon="6.04909">
        <ele>772.5</ele>
        <time>2022-06-18T11:04:46Z</time>
      </trkpt>
      <trkpt lat="45.13984" lon="6.0491">
        <ele>772.6</ele>
        <time>2022-06-18T11:04:47Z</time>
      </trkpt>
      <trkpt lat="45.13978" lon="6.04911">
        <ele>772.7</ele>
        <time>2022-06-18T11:04:48Z</time>
      </trkpt>
      <trkpt lat="45.13972" lon="6.04912">
        <ele>772.7</ele>
        <time>2022-06-18T11:04:49Z</time>
      </trkpt>
      <trkpt lat="45.13966" lon="6.04913">
        <ele>772.8</ele>
        <time>2022-06-18T11:04:50Z</time>
      </trkpt>
      <trkpt lat="45.1396" lon="6.04913">
        <ele>772.8</ele>
        <time>2022-06-18T11:04:51Z</time>
      </trkpt>
      <trkpt lat="45.13954" lon="6.04914">
        <ele>772.9</ele>
        <time>2022-06-18T11:04:52Z</time>
      </trkpt>
      <trkpt lat="45.13948" lon="6.04914">
        <ele>772.9</ele>
        <time>2022-06-18T11:04:53Z</time>
      </trkpt>
      <trkpt lat="45.13942" lon="6.04913">
        <ele>773</ele>
        <time>2022-06-18T11:04:54Z</time>
      </trkpt>
      <trkpt lat="45.13936" lon="6.04913">
        <ele>773.1</ele>
        <time>2022-06-18T11:04:55Z</time>
      </trkpt>
      <trkpt lat="45.13929" lon="6.04912">
        <ele>773.1</ele>
        <time>2022-06-18T11:04:56Z</time>
      </trkpt>
      <trkpt lat="45.13923" lon="6.04911">
        <ele>773.2</ele>
        <time>2022-06-18T11:04:57Z</time>
      </trkpt>
      <trkpt lat="45.13916" lon="6.04909">
        <ele>773.2</ele>
        <time>2022-06-18T11:04:58Z</time>
      </trkpt>
      <trkpt lat="45.1391" lon="6.04906">
        <ele>773.3</ele>
        <time>2022-06-18T11:04:59Z</time>
      </trkpt>
      <trkpt lat="45.13904" lon="6.04903">
        <ele>773.3</ele>
        <time>2022-06-18T11:05:00Z</time>
      </trkpt>
      <trkpt lat="45.13898" lon="6.04901">
        <ele>773.4</ele>
        <time>2022-06-18T11:05:01Z</time>
      </trkpt>
      <trkpt lat="45.13893" lon="6.04897">
        <ele>773.5</ele>
        <time>2022-06-18T11:05:02Z</time>
      </trkpt>
      <trkpt lat="45.13888" lon="6.04892">
        <ele>773.5</ele>
        <time>2022-06-18T11:05:03Z</time>
      </trkpt>
      <trkpt lat="45.13883" lon="6.04888">
        <ele>773.6</ele>
        <time>2022-06-18T11:05:04Z</time>
      </trkpt>
      <trkpt lat="45.13878" lon="6.04883">
        <ele>773.7</ele>
        <time>2022-06-18T11:05:05Z</time>
      </trkpt>
      <trkpt lat="45.13873" lon="6.0488">
        <ele>773.9</ele>
        <time>2022-06-18T11:05:06Z</time>
      </trkpt>
      <trkpt lat="45.13867" lon="6.04877">
        <ele>774.2</ele>
        <time>2022-06-18T11:05:07Z</time>
      </trkpt>
      <trkpt lat="45.13861" lon="6.04875">
        <ele>774.4</ele>
        <time>2022-06-18T11:05:08Z</time>
      </trkpt>
      <trkpt lat="45.13855" lon="6.04873">
        <ele>774.6</ele>
        <time>2022-06-18T11:05:09Z</time>
      </trkpt>
      <trkpt lat="45.1385" lon="6.04872">
        <ele>774.9</ele>
        <time>2022-06-18T11:05:10Z</time>
      </trkpt>
      <trkpt lat="45.13845" lon="6.04871">
        <ele>775.1</ele>
        <time>2022-06-18T11:05:11Z</time>
      </trkpt>
      <trkpt lat="45.13839" lon="6.0487">
        <ele>775.3</ele>
        <time>2022-06-18T11:05:12Z</time>
      </trkpt>
      <trkpt lat="45.13834" lon="6.04869">
        <ele>775.6</ele>
        <time>2022-06-18T11:05:13Z</time>
      </trkpt>
      <trkpt lat="45.13829" lon="6.04869">
        <ele>775.8</ele>
        <time>2022-06-18T11:05:14Z</time>
      </trkpt>
      <trkpt lat="45.13824" lon="6.04869">
        <ele>776</ele>
        <time>2022-06-18T11:05:15Z</time>
      </trkpt>
      <trkpt lat="45.13821" lon="6.04869">
        <ele>776.2</ele>
        <time>2022-06-18T11:05:16Z</time>
      </trkpt>
      <trkpt lat="45.13816" lon="6.04868">
        <ele>776.4</ele>
        <time>2022-06-18T11:05:17Z</time>
      </trkpt>
      <trkpt lat="45.13813" lon="6.04869">
        <ele>776.6</ele>
        <time>2022-06-18T11:05:18Z</time>
      </trkpt>
      <trkpt lat="45.13808" lon="6.0487">
        <ele>776.8</ele>
        <time>2022-06-18T11:05:19Z</time>
      </trkpt>
      <trkpt lat="45.13804" lon="6.04871">
        <ele>777</ele>
        <time>2022-06-18T11:05:20Z</time>
      </trkpt>
      <trkpt lat="45.13799" lon="6.04872">
        <ele>777.3</ele>
        <time>2022-06-18T11:05:21Z</time>
      </trkpt>
      <trkpt lat="45.13795" lon="6.04873">
        <ele>777.4</ele>
        <time>2022-06-18T11:05:22Z</time>
      </trkpt>
      <trkpt lat="45.13791" lon="6.04874">
        <ele>777.6</ele>
        <time>2022-06-18T11:05:23Z</time>
      </trkpt>
      <trkpt lat="45.13787" lon="6.04876">
        <ele>777.8</ele>
        <time>2022-06-18T11:05:24Z</time>
      </trkpt>
      <trkpt lat="45.13783" lon="6.04878">
        <ele>778</ele>
        <time>2022-06-18T11:05:25Z</time>
      </trkpt>
      <trkpt lat="45.13782" lon="6.04879">
        <ele>778.1</ele>
        <time>2022-06-18T11:05:26Z</time>
      </trkpt>
      <trkpt lat="45.13776" lon="6.04885">
        <ele>778.4</ele>
        <time>2022-06-18T11:05:28Z</time>
      </trkpt>
      <trkpt lat="45.13771" lon="6.04888">
        <ele>778.6</ele>
        <time>2022-06-18T11:05:29Z</time>
      </trkpt>
      <trkpt lat="45.13765" lon="6.04891">
        <ele>778.9</ele>
        <time>2022-06-18T11:05:30Z</time>
      </trkpt>
      <trkpt lat="45.13761" lon="6.04894">
        <ele>779.1</ele>
        <time>2022-06-18T11:05:31Z</time>
      </trkpt>
      <trkpt lat="45.13756" lon="6.04896">
        <ele>779.3</ele>
        <time>2022-06-18T11:05:32Z</time>
      </trkpt>
      <trkpt lat="45.13752" lon="6.04897">
        <ele>779.4</ele>
        <time>2022-06-18T11:05:33Z</time>
      </trkpt>
      <trkpt lat="45.13747" lon="6.04899">
        <ele>779.6</ele>
        <time>2022-06-18T11:05:34Z</time>
      </trkpt>
      <trkpt lat="45.13742" lon="6.049">
        <ele>779.7</ele>
        <time>2022-06-18T11:05:35Z</time>
      </trkpt>
      <trkpt lat="45.13737" lon="6.04903">
        <ele>779.9</ele>
        <time>2022-06-18T11:05:37Z</time>
      </trkpt>
      <trkpt lat="45.13733" lon="6.04907">
        <ele>780</ele>
        <time>2022-06-18T11:05:38Z</time>
      </trkpt>
      <trkpt lat="45.13728" lon="6.04911">
        <ele>780.1</ele>
        <time>2022-06-18T11:05:40Z</time>
      </trkpt>
      <trkpt lat="45.13725" lon="6.04914">
        <ele>780.2</ele>
        <time>2022-06-18T11:05:41Z</time>
      </trkpt>
      <trkpt lat="45.1372" lon="6.04919">
        <ele>780.3</ele>
        <time>2022-06-18T11:05:42Z</time>
      </trkpt>
      <trkpt lat="45.13713" lon="6.04925">
        <ele>780.4</ele>
        <time>2022-06-18T11:05:43Z</time>
      </trkpt>
      <trkpt lat="45.13708" lon="6.04928">
        <ele>780.5</ele>
        <time>2022-06-18T11:05:44Z</time>
      </trkpt>
      <trkpt lat="45.13704" lon="6.04932">
        <ele>780.5</ele>
        <time>2022-06-18T11:05:45Z</time>
      </trkpt>
      <trkpt lat="45.137" lon="6.04936">
        <ele>780.5</ele>
        <time>2022-06-18T11:05:46Z</time>
      </trkpt>
      <trkpt lat="45.13695" lon="6.0494">
        <ele>780.4</ele>
        <time>2022-06-18T11:05:47Z</time>
      </trkpt>
      <trkpt lat="45.1369" lon="6.04943">
        <ele>780.4</ele>
        <time>2022-06-18T11:05:48Z</time>
      </trkpt>
      <trkpt lat="45.13685" lon="6.04947">
        <ele>780.3</ele>
        <time>2022-06-18T11:05:49Z</time>
      </trkpt>
      <trkpt lat="45.1368" lon="6.0495">
        <ele>780.3</ele>
        <time>2022-06-18T11:05:50Z</time>
      </trkpt>
      <trkpt lat="45.13674" lon="6.04954">
        <ele>780.2</ele>
        <time>2022-06-18T11:05:51Z</time>
      </trkpt>
      <trkpt lat="45.13669" lon="6.04957">
        <ele>780.2</ele>
        <time>2022-06-18T11:05:52Z</time>
      </trkpt>
      <trkpt lat="45.13664" lon="6.0496">
        <ele>780.2</ele>
        <time>2022-06-18T11:05:53Z</time>
      </trkpt>
      <trkpt lat="45.13659" lon="6.04963">
        <ele>780.1</ele>
        <time>2022-06-18T11:05:54Z</time>
      </trkpt>
      <trkpt lat="45.13654" lon="6.04966">
        <ele>780.1</ele>
        <time>2022-06-18T11:05:55Z</time>
      </trkpt>
      <trkpt lat="45.13648" lon="6.04969">
        <ele>780</ele>
        <time>2022-06-18T11:05:56Z</time>
      </trkpt>
      <trkpt lat="45.13643" lon="6.04972">
        <ele>780</ele>
        <time>2022-06-18T11:05:57Z</time>
      </trkpt>
      <trkpt lat="45.13637" lon="6.04975">
        <ele>779.9</ele>
        <time>2022-06-18T11:05:58Z</time>
      </trkpt>
      <trkpt lat="45.13631" lon="6.04976">
        <ele>779.9</ele>
        <time>2022-06-18T11:05:59Z</time>
      </trkpt>
      <trkpt lat="45.13625" lon="6.04978">
        <ele>779.9</ele>
        <time>2022-06-18T11:06:00Z</time>
      </trkpt>
      <trkpt lat="45.13619" lon="6.04979">
        <ele>779.8</ele>
        <time>2022-06-18T11:06:01Z</time>
      </trkpt>
      <trkpt lat="45.13612" lon="6.04979">
        <ele>779.8</ele>
        <time>2022-06-18T11:06:02Z</time>
      </trkpt>
      <trkpt lat="45.13606" lon="6.04979">
        <ele>779.7</ele>
        <time>2022-06-18T11:06:03Z</time>
      </trkpt>
      <trkpt lat="45.136" lon="6.04978">
        <ele>779.7</ele>
        <time>2022-06-18T11:06:04Z</time>
      </trkpt>
      <trkpt lat="45.13593" lon="6.04976">
        <ele>779.6</ele>
        <time>2022-06-18T11:06:05Z</time>
      </trkpt>
      <trkpt lat="45.13587" lon="6.04974">
        <ele>779.5</ele>
        <time>2022-06-18T11:06:06Z</time>
      </trkpt>
      <trkpt lat="45.13581" lon="6.04972">
        <ele>779.4</ele>
        <time>2022-06-18T11:06:07Z</time>
      </trkpt>
      <trkpt lat="45.13574" lon="6.04969">
        <ele>779.3</ele>
        <time>2022-06-18T11:06:08Z</time>
      </trkpt>
      <trkpt lat="45.13568" lon="6.04967">
        <ele>779.2</ele>
        <time>2022-06-18T11:06:09Z</time>
      </trkpt>
      <trkpt lat="45.13561" lon="6.04964">
        <ele>779.1</ele>
        <time>2022-06-18T11:06:10Z</time>
      </trkpt>
      <trkpt lat="45.13554" lon="6.04962">
        <ele>779.1</ele>
        <time>2022-06-18T11:06:11Z</time>
      </trkpt>
      <trkpt lat="45.13548" lon="6.0496">
        <ele>779</ele>
        <time>2022-06-18T11:06:12Z</time>
      </trkpt>
      <trkpt lat="45.13541" lon="6.04958">
        <ele>779</ele>
        <time>2022-06-18T11:06:13Z</time>
      </trkpt>
      <trkpt lat="45.13535" lon="6.04956">
        <ele>778.9</ele>
        <time>2022-06-18T11:06:14Z</time>
      </trkpt>
      <trkpt lat="45.13528" lon="6.04954">
        <ele>778.9</ele>
        <time>2022-06-18T11:06:15Z</time>
      </trkpt>
      <trkpt lat="45.13522" lon="6.04952">
        <ele>778.8</ele>
        <time>2022-06-18T11:06:16Z</time>
      </trkpt>
      <trkpt lat="45.13516" lon="6.04951">
        <ele>778.8</ele>
        <time>2022-06-18T11:06:17Z</time>
      </trkpt>
      <trkpt lat="45.1351" lon="6.04949">
        <ele>778.8</ele>
        <time>2022-06-18T11:06:18Z</time>
      </trkpt>
      <trkpt lat="45.13504" lon="6.04947">
        <ele>778.7</ele>
        <time>2022-06-18T11:06:19Z</time>
      </trkpt>
      <trkpt lat="45.13499" lon="6.04945">
        <ele>778.7</ele>
        <time>2022-06-18T11:06:20Z</time>
      </trkpt>
      <trkpt lat="45.13493" lon="6.04943">
        <ele>778.6</ele>
        <time>2022-06-18T11:06:21Z</time>
      </trkpt>
      <trkpt lat="45.13487" lon="6.04942">
        <ele>778.6</ele>
        <time>2022-06-18T11:06:22Z</time>
      </trkpt>
      <trkpt lat="45.13482" lon="6.04941">
        <ele>778.5</ele>
        <time>2022-06-18T11:06:23Z</time>
      </trkpt>
      <trkpt lat="45.13476" lon="6.04939">
        <ele>778.5</ele>
        <time>2022-06-18T11:06:24Z</time>
      </trkpt>
      <trkpt lat="45.1347" lon="6.04938">
        <ele>778.5</ele>
        <time>2022-06-18T11:06:25Z</time>
      </trkpt>
      <trkpt lat="45.13465" lon="6.04936">
        <ele>778.5</ele>
        <time>2022-06-18T11:06:26Z</time>
      </trkpt>
      <trkpt lat="45.13459" lon="6.04934">
        <ele>778.4</ele>
        <time>2022-06-18T11:06:27Z</time>
      </trkpt>
      <trkpt lat="45.13453" lon="6.04933">
        <ele>778.4</ele>
        <time>2022-06-18T11:06:28Z</time>
      </trkpt>
      <trkpt lat="45.13447" lon="6.04931">
        <ele>778.4</ele>
        <time>2022-06-18T11:06:29Z</time>
      </trkpt>
      <trkpt lat="45.13442" lon="6.04929">
        <ele>778.4</ele>
        <time>2022-06-18T11:06:30Z</time>
      </trkpt>
      <trkpt lat="45.13436" lon="6.04927">
        <ele>778.3</ele>
        <time>2022-06-18T11:06:31Z</time>
      </trkpt>
      <trkpt lat="45.13431" lon="6.04925">
        <ele>778.3</ele>
        <time>2022-06-18T11:06:32Z</time>
      </trkpt>
      <trkpt lat="45.13425" lon="6.04923">
        <ele>778.3</ele>
        <time>2022-06-18T11:06:33Z</time>
      </trkpt>
      <trkpt lat="45.1342" lon="6.04921">
        <ele>778.2</ele>
        <time>2022-06-18T11:06:34Z</time>
      </trkpt>
      <trkpt lat="45.13414" lon="6.04919">
        <ele>778.2</ele>
        <time>2022-06-18T11:06:35Z</time>
      </trkpt>
      <trkpt lat="45.13409" lon="6.04917">
        <ele>778.2</ele>
        <time>2022-06-18T11:06:36Z</time>
      </trkpt>
      <trkpt lat="45.13404" lon="6.04916">
        <ele>778.1</ele>
        <time>2022-06-18T11:06:37Z</time>
      </trkpt>
      <trkpt lat="45.13398" lon="6.04914">
        <ele>778.1</ele>
        <time>2022-06-18T11:06:38Z</time>
      </trkpt>
      <trkpt lat="45.13392" lon="6.04912">
        <ele>778</ele>
        <time>2022-06-18T11:06:39Z</time>
      </trkpt>
      <trkpt lat="45.13387" lon="6.0491">
        <ele>778</ele>
        <time>2022-06-18T11:06:40Z</time>
      </trkpt>
      <trkpt lat="45.13381" lon="6.04908">
        <ele>777.9</ele>
        <time>2022-06-18T11:06:41Z</time>
      </trkpt>
      <trkpt lat="45.13375" lon="6.04907">
        <ele>777.9</ele>
        <time>2022-06-18T11:06:42Z</time>
      </trkpt>
      <trkpt lat="45.13369" lon="6.04905">
        <ele>777.9</ele>
        <time>2022-06-18T11:06:43Z</time>
      </trkpt>
      <trkpt lat="45.13364" lon="6.04903">
        <ele>777.8</ele>
        <time>2022-06-18T11:06:44Z</time>
      </trkpt>
      <trkpt lat="45.13358" lon="6.04901">
        <ele>777.8</ele>
        <time>2022-06-18T11:06:45Z</time>
      </trkpt>
      <trkpt lat="45.13352" lon="6.049">
        <ele>777.8</ele>
        <time>2022-06-18T11:06:46Z</time>
      </trkpt>
      <trkpt lat="45.13346" lon="6.04898">
        <ele>777.7</ele>
        <time>2022-06-18T11:06:47Z</time>
      </trkpt>
      <trkpt lat="45.1334" lon="6.04897">
        <ele>777.7</ele>
        <time>2022-06-18T11:06:48Z</time>
      </trkpt>
      <trkpt lat="45.13335" lon="6.04896">
        <ele>777.7</ele>
        <time>2022-06-18T11:06:49Z</time>
      </trkpt>
      <trkpt lat="45.13329" lon="6.04895">
        <ele>777.6</ele>
        <time>2022-06-18T11:06:50Z</time>
      </trkpt>
      <trkpt lat="45.13323" lon="6.04893">
        <ele>777.6</ele>
        <time>2022-06-18T11:06:51Z</time>
      </trkpt>
      <trkpt lat="45.13318" lon="6.04892">
        <ele>777.6</ele>
        <time>2022-06-18T11:06:52Z</time>
      </trkpt>
      <trkpt lat="45.13312" lon="6.0489">
        <ele>777.6</ele>
        <time>2022-06-18T11:06:53Z</time>
      </trkpt>
      <trkpt lat="45.13307" lon="6.04888">
        <ele>777.5</ele>
        <time>2022-06-18T11:06:54Z</time>
      </trkpt>
      <trkpt lat="45.13301" lon="6.04887">
        <ele>777.5</ele>
        <time>2022-06-18T11:06:55Z</time>
      </trkpt>
      <trkpt lat="45.13295" lon="6.04885">
        <ele>777.5</ele>
        <time>2022-06-18T11:06:56Z</time>
      </trkpt>
      <trkpt lat="45.13289" lon="6.04884">
        <ele>777.4</ele>
        <time>2022-06-18T11:06:57Z</time>
      </trkpt>
      <trkpt lat="45.13284" lon="6.04882">
        <ele>777.4</ele>
        <time>2022-06-18T11:06:58Z</time>
      </trkpt>
      <trkpt lat="45.13278" lon="6.04881">
        <ele>777.4</ele>
        <time>2022-06-18T11:06:59Z</time>
      </trkpt>
      <trkpt lat="45.13272" lon="6.04879">
        <ele>777.3</ele>
        <time>2022-06-18T11:07:00Z</time>
      </trkpt>
      <trkpt lat="45.13266" lon="6.04878">
        <ele>777.3</ele>
        <time>2022-06-18T11:07:01Z</time>
      </trkpt>
      <trkpt lat="45.1326" lon="6.04876">
        <ele>777.3</ele>
        <time>2022-06-18T11:07:02Z</time>
      </trkpt>
      <trkpt lat="45.13254" lon="6.04874">
        <ele>777.2</ele>
        <time>2022-06-18T11:07:03Z</time>
      </trkpt>
      <trkpt lat="45.13249" lon="6.04872">
        <ele>777.2</ele>
        <time>2022-06-18T11:07:04Z</time>
      </trkpt>
      <trkpt lat="45.13243" lon="6.0487">
        <ele>777.2</ele>
        <time>2022-06-18T11:07:05Z</time>
      </trkpt>
      <trkpt lat="45.13237" lon="6.04868">
        <ele>777.1</ele>
        <time>2022-06-18T11:07:06Z</time>
      </trkpt>
      <trkpt lat="45.13232" lon="6.04867">
        <ele>777.1</ele>
        <time>2022-06-18T11:07:07Z</time>
      </trkpt>
      <trkpt lat="45.13227" lon="6.04865">
        <ele>777.1</ele>
        <time>2022-06-18T11:07:08Z</time>
      </trkpt>
      <trkpt lat="45.13221" lon="6.04863">
        <ele>777.1</ele>
        <time>2022-06-18T11:07:09Z</time>
      </trkpt>
      <trkpt lat="45.13216" lon="6.04862">
        <ele>777</ele>
        <time>2022-06-18T11:07:10Z</time>
      </trkpt>
      <trkpt lat="45.1321" lon="6.04861">
        <ele>777</ele>
        <time>2022-06-18T11:07:11Z</time>
      </trkpt>
      <trkpt lat="45.13205" lon="6.0486">
        <ele>777</ele>
        <time>2022-06-18T11:07:12Z</time>
      </trkpt>
      <trkpt lat="45.13199" lon="6.04858">
        <ele>776.9</ele>
        <time>2022-06-18T11:07:13Z</time>
      </trkpt>
      <trkpt lat="45.13193" lon="6.04856">
        <ele>776.9</ele>
        <time>2022-06-18T11:07:14Z</time>
      </trkpt>
      <trkpt lat="45.13188" lon="6.04854">
        <ele>776.8</ele>
        <time>2022-06-18T11:07:15Z</time>
      </trkpt>
      <trkpt lat="45.13182" lon="6.04852">
        <ele>776.8</ele>
        <time>2022-06-18T11:07:16Z</time>
      </trkpt>
      <trkpt lat="45.13176" lon="6.04851">
        <ele>776.8</ele>
        <time>2022-06-18T11:07:17Z</time>
      </trkpt>
      <trkpt lat="45.13171" lon="6.04849">
        <ele>776.8</ele>
        <time>2022-06-18T11:07:18Z</time>
      </trkpt>
      <trkpt lat="45.13165" lon="6.04847">
        <ele>776.8</ele>
        <time>2022-06-18T11:07:19Z</time>
      </trkpt>
      <trkpt lat="45.13159" lon="6.04845">
        <ele>776.8</ele>
        <time>2022-06-18T11:07:20Z</time>
      </trkpt>
      <trkpt lat="45.13153" lon="6.04843">
        <ele>776.8</ele>
        <time>2022-06-18T11:07:21Z</time>
      </trkpt>
      <trkpt lat="45.13147" lon="6.04841">
        <ele>776.7</ele>
        <time>2022-06-18T11:07:22Z</time>
      </trkpt>
      <trkpt lat="45.13142" lon="6.04839">
        <ele>776.7</ele>
        <time>2022-06-18T11:07:23Z</time>
      </trkpt>
      <trkpt lat="45.13136" lon="6.04837">
        <ele>776.7</ele>
        <time>2022-06-18T11:07:24Z</time>
      </trkpt>
      <trkpt lat="45.1313" lon="6.04836">
        <ele>776.7</ele>
        <time>2022-06-18T11:07:25Z</time>
      </trkpt>
      <trkpt lat="45.13124" lon="6.04834">
        <ele>776.6</ele>
        <time>2022-06-18T11:07:26Z</time>
      </trkpt>
      <trkpt lat="45.13118" lon="6.04832">
        <ele>776.6</ele>
        <time>2022-06-18T11:07:27Z</time>
      </trkpt>
      <trkpt lat="45.13112" lon="6.04829">
        <ele>776.6</ele>
        <time>2022-06-18T11:07:28Z</time>
      </trkpt>
      <trkpt lat="45.13107" lon="6.04827">
        <ele>776.5</ele>
        <time>2022-06-18T11:07:29Z</time>
      </trkpt>
      <trkpt lat="45.13101" lon="6.04826">
        <ele>776.5</ele>
        <time>2022-06-18T11:07:30Z</time>
      </trkpt>
      <trkpt lat="45.13095" lon="6.04824">
        <ele>776.5</ele>
        <time>2022-06-18T11:07:31Z</time>
      </trkpt>
      <trkpt lat="45.13089" lon="6.04822">
        <ele>776.4</ele>
        <time>2022-06-18T11:07:32Z</time>
      </trkpt>
      <trkpt lat="45.13084" lon="6.0482">
        <ele>776.4</ele>
        <time>2022-06-18T11:07:33Z</time>
      </trkpt>
      <trkpt lat="45.13078" lon="6.04818">
        <ele>776.4</ele>
        <time>2022-06-18T11:07:34Z</time>
      </trkpt>
      <trkpt lat="45.13072" lon="6.04816">
        <ele>776.4</ele>
        <time>2022-06-18T11:07:35Z</time>
      </trkpt>
      <trkpt lat="45.13066" lon="6.04814">
        <ele>776.3</ele>
        <time>2022-06-18T11:07:36Z</time>
      </trkpt>
      <trkpt lat="45.1306" lon="6.04812">
        <ele>776.3</ele>
        <time>2022-06-18T11:07:37Z</time>
      </trkpt>
      <trkpt lat="45.13055" lon="6.0481">
        <ele>776.3</ele>
        <time>2022-06-18T11:07:38Z</time>
      </trkpt>
      <trkpt lat="45.13049" lon="6.04808">
        <ele>776.3</ele>
        <time>2022-06-18T11:07:39Z</time>
      </trkpt>
      <trkpt lat="45.13043" lon="6.04806">
        <ele>776.3</ele>
        <time>2022-06-18T11:07:40Z</time>
      </trkpt>
      <trkpt lat="45.13037" lon="6.04803">
        <ele>776.3</ele>
        <time>2022-06-18T11:07:41Z</time>
      </trkpt>
      <trkpt lat="45.13031" lon="6.04801">
        <ele>776.3</ele>
        <time>2022-06-18T11:07:42Z</time>
      </trkpt>
      <trkpt lat="45.13025" lon="6.04799">
        <ele>776.3</ele>
        <time>2022-06-18T11:07:43Z</time>
      </trkpt>
      <trkpt lat="45.13019" lon="6.04796">
        <ele>776.4</ele>
        <time>2022-06-18T11:07:44Z</time>
      </trkpt>
      <trkpt lat="45.13013" lon="6.04794">
        <ele>776.4</ele>
        <time>2022-06-18T11:07:45Z</time>
      </trkpt>
      <trkpt lat="45.13007" lon="6.04792">
        <ele>776.4</ele>
        <time>2022-06-18T11:07:46Z</time>
      </trkpt>
      <trkpt lat="45.13001" lon="6.0479">
        <ele>776.4</ele>
        <time>2022-06-18T11:07:47Z</time>
      </trkpt>
      <trkpt lat="45.12994" lon="6.04789">
        <ele>776.5</ele>
        <time>2022-06-18T11:07:48Z</time>
      </trkpt>
      <trkpt lat="45.12988" lon="6.04788">
        <ele>776.5</ele>
        <time>2022-06-18T11:07:49Z</time>
      </trkpt>
      <trkpt lat="45.12982" lon="6.04787">
        <ele>776.5</ele>
        <time>2022-06-18T11:07:50Z</time>
      </trkpt>
      <trkpt lat="45.12976" lon="6.04786">
        <ele>776.5</ele>
        <time>2022-06-18T11:07:51Z</time>
      </trkpt>
      <trkpt lat="45.12971" lon="6.04785">
        <ele>776.5</ele>
        <time>2022-06-18T11:07:52Z</time>
      </trkpt>
      <trkpt lat="45.12965" lon="6.04783">
        <ele>776.6</ele>
        <time>2022-06-18T11:07:53Z</time>
      </trkpt>
      <trkpt lat="45.12959" lon="6.0478">
        <ele>776.6</ele>
        <time>2022-06-18T11:07:54Z</time>
      </trkpt>
      <trkpt lat="45.12953" lon="6.04777">
        <ele>776.6</ele>
        <time>2022-06-18T11:07:55Z</time>
      </trkpt>
      <trkpt lat="45.12947" lon="6.04772">
        <ele>776.7</ele>
        <time>2022-06-18T11:07:56Z</time>
      </trkpt>
      <trkpt lat="45.12942" lon="6.04766">
        <ele>776.7</ele>
        <time>2022-06-18T11:07:57Z</time>
      </trkpt>
      <trkpt lat="45.12937" lon="6.04759">
        <ele>776.6</ele>
        <time>2022-06-18T11:07:58Z</time>
      </trkpt>
      <trkpt lat="45.12932" lon="6.04752">
        <ele>776.5</ele>
        <time>2022-06-18T11:07:59Z</time>
      </trkpt>
      <trkpt lat="45.12928" lon="6.04744">
        <ele>776.4</ele>
        <time>2022-06-18T11:08:00Z</time>
      </trkpt>
      <trkpt lat="45.12924" lon="6.04737">
        <ele>776.3</ele>
        <time>2022-06-18T11:08:01Z</time>
      </trkpt>
      <trkpt lat="45.1292" lon="6.0473">
        <ele>776.2</ele>
        <time>2022-06-18T11:08:02Z</time>
      </trkpt>
      <trkpt lat="45.12915" lon="6.04723">
        <ele>776</ele>
        <time>2022-06-18T11:08:03Z</time>
      </trkpt>
      <trkpt lat="45.1291" lon="6.04716">
        <ele>775.9</ele>
        <time>2022-06-18T11:08:04Z</time>
      </trkpt>
      <trkpt lat="45.12905" lon="6.04709">
        <ele>775.8</ele>
        <time>2022-06-18T11:08:05Z</time>
      </trkpt>
      <trkpt lat="45.129" lon="6.04702">
        <ele>775.7</ele>
        <time>2022-06-18T11:08:06Z</time>
      </trkpt>
      <trkpt lat="45.12896" lon="6.04695">
        <ele>775.6</ele>
        <time>2022-06-18T11:08:07Z</time>
      </trkpt>
      <trkpt lat="45.12891" lon="6.04687">
        <ele>775.6</ele>
        <time>2022-06-18T11:08:08Z</time>
      </trkpt>
      <trkpt lat="45.12886" lon="6.0468">
        <ele>775.5</ele>
        <time>2022-06-18T11:08:09Z</time>
      </trkpt>
      <trkpt lat="45.12881" lon="6.04673">
        <ele>775.5</ele>
        <time>2022-06-18T11:08:10Z</time>
      </trkpt>
      <trkpt lat="45.12877" lon="6.04666">
        <ele>775.4</ele>
        <time>2022-06-18T11:08:11Z</time>
      </trkpt>
      <trkpt lat="45.12873" lon="6.0466">
        <ele>775.4</ele>
        <time>2022-06-18T11:08:12Z</time>
      </trkpt>
      <trkpt lat="45.12869" lon="6.04654">
        <ele>775.3</ele>
        <time>2022-06-18T11:08:13Z</time>
      </trkpt>
      <trkpt lat="45.12865" lon="6.04648">
        <ele>775.3</ele>
        <time>2022-06-18T11:08:14Z</time>
      </trkpt>
      <trkpt lat="45.12861" lon="6.04641">
        <ele>775.2</ele>
        <time>2022-06-18T11:08:15Z</time>
      </trkpt>
      <trkpt lat="45.12858" lon="6.04635">
        <ele>775.2</ele>
        <time>2022-06-18T11:08:16Z</time>
      </trkpt>
      <trkpt lat="45.12854" lon="6.04629">
        <ele>775.1</ele>
        <time>2022-06-18T11:08:17Z</time>
      </trkpt>
      <trkpt lat="45.1285" lon="6.04622">
        <ele>775.1</ele>
        <time>2022-06-18T11:08:18Z</time>
      </trkpt>
      <trkpt lat="45.12846" lon="6.04616">
        <ele>775</ele>
        <time>2022-06-18T11:08:19Z</time>
      </trkpt>
      <trkpt lat="45.12842" lon="6.04609">
        <ele>775</ele>
        <time>2022-06-18T11:08:20Z</time>
      </trkpt>
      <trkpt lat="45.12838" lon="6.04602">
        <ele>775</ele>
        <time>2022-06-18T11:08:21Z</time>
      </trkpt>
      <trkpt lat="45.12833" lon="6.04595">
        <ele>775</ele>
        <time>2022-06-18T11:08:22Z</time>
      </trkpt>
      <trkpt lat="45.12829" lon="6.04588">
        <ele>775</ele>
        <time>2022-06-18T11:08:23Z</time>
      </trkpt>
      <trkpt lat="45.12825" lon="6.04581">
        <ele>774.9</ele>
        <time>2022-06-18T11:08:24Z</time>
      </trkpt>
      <trkpt lat="45.1282" lon="6.04575">
        <ele>774.8</ele>
        <time>2022-06-18T11:08:25Z</time>
      </trkpt>
      <trkpt lat="45.12816" lon="6.04568">
        <ele>774.8</ele>
        <time>2022-06-18T11:08:26Z</time>
      </trkpt>
      <trkpt lat="45.12812" lon="6.04561">
        <ele>774.7</ele>
        <time>2022-06-18T11:08:27Z</time>
      </trkpt>
      <trkpt lat="45.1281" lon="6.04554">
        <ele>774.6</ele>
        <time>2022-06-18T11:08:28Z</time>
      </trkpt>
      <trkpt lat="45.12809" lon="6.04545">
        <ele>774.6</ele>
        <time>2022-06-18T11:08:29Z</time>
      </trkpt>
      <trkpt lat="45.12812" lon="6.04536">
        <ele>774.6</ele>
        <time>2022-06-18T11:08:30Z</time>
      </trkpt>
      <trkpt lat="45.12816" lon="6.04527">
        <ele>774.5</ele>
        <time>2022-06-18T11:08:31Z</time>
      </trkpt>
      <trkpt lat="45.12821" lon="6.0452">
        <ele>774.5</ele>
        <time>2022-06-18T11:08:32Z</time>
      </trkpt>
      <trkpt lat="45.12826" lon="6.04515">
        <ele>774.5</ele>
        <time>2022-06-18T11:08:33Z</time>
      </trkpt>
      <trkpt lat="45.12831" lon="6.04509">
        <ele>774.5</ele>
        <time>2022-06-18T11:08:34Z</time>
      </trkpt>
      <trkpt lat="45.12835" lon="6.04503">
        <ele>774.5</ele>
        <time>2022-06-18T11:08:35Z</time>
      </trkpt>
      <trkpt lat="45.1284" lon="6.04497">
        <ele>774.5</ele>
        <time>2022-06-18T11:08:36Z</time>
      </trkpt>
      <trkpt lat="45.12844" lon="6.0449">
        <ele>774.5</ele>
        <time>2022-06-18T11:08:37Z</time>
      </trkpt>
      <trkpt lat="45.12848" lon="6.04484">
        <ele>774.5</ele>
        <time>2022-06-18T11:08:38Z</time>
      </trkpt>
      <trkpt lat="45.12852" lon="6.04478">
        <ele>774.5</ele>
        <time>2022-06-18T11:08:39Z</time>
      </trkpt>
      <trkpt lat="45.12857" lon="6.04471">
        <ele>774.5</ele>
        <time>2022-06-18T11:08:40Z</time>
      </trkpt>
      <trkpt lat="45.12861" lon="6.04464">
        <ele>774.5</ele>
        <time>2022-06-18T11:08:41Z</time>
      </trkpt>
      <trkpt lat="45.12865" lon="6.04458">
        <ele>774.5</ele>
        <time>2022-06-18T11:08:42Z</time>
      </trkpt>
      <trkpt lat="45.12869" lon="6.04451">
        <ele>774.6</ele>
        <time>2022-06-18T11:08:43Z</time>
      </trkpt>
      <trkpt lat="45.12873" lon="6.04445">
        <ele>774.6</ele>
        <time>2022-06-18T11:08:44Z</time>
      </trkpt>
      <trkpt lat="45.12878" lon="6.04438">
        <ele>774.6</ele>
        <time>2022-06-18T11:08:45Z</time>
      </trkpt>
      <trkpt lat="45.12882" lon="6.04431">
        <ele>774.6</ele>
        <time>2022-06-18T11:08:46Z</time>
      </trkpt>
      <trkpt lat="45.12886" lon="6.04424">
        <ele>774.6</ele>
        <time>2022-06-18T11:08:47Z</time>
      </trkpt>
      <trkpt lat="45.1289" lon="6.04418">
        <ele>774.6</ele>
        <time>2022-06-18T11:08:48Z</time>
      </trkpt>
      <trkpt lat="45.12893" lon="6.04411">
        <ele>774.7</ele>
        <time>2022-06-18T11:08:49Z</time>
      </trkpt>
      <trkpt lat="45.12897" lon="6.04405">
        <ele>774.7</ele>
        <time>2022-06-18T11:08:50Z</time>
      </trkpt>
      <trkpt lat="45.12901" lon="6.04399">
        <ele>774.7</ele>
        <time>2022-06-18T11:08:51Z</time>
      </trkpt>
      <trkpt lat="45.12905" lon="6.04393">
        <ele>774.7</ele>
        <time>2022-06-18T11:08:52Z</time>
      </trkpt>
      <trkpt lat="45.12908" lon="6.04387">
        <ele>774.7</ele>
        <time>2022-06-18T11:08:53Z</time>
      </trkpt>
      <trkpt lat="45.12912" lon="6.04381">
        <ele>774.8</ele>
        <time>2022-06-18T11:08:54Z</time>
      </trkpt>
      <trkpt lat="45.12916" lon="6.04375">
        <ele>774.8</ele>
        <time>2022-06-18T11:08:55Z</time>
      </trkpt>
      <trkpt lat="45.1292" lon="6.0437">
        <ele>774.8</ele>
        <time>2022-06-18T11:08:56Z</time>
      </trkpt>
      <trkpt lat="45.12923" lon="6.04364">
        <ele>774.8</ele>
        <time>2022-06-18T11:08:57Z</time>
      </trkpt>
      <trkpt lat="45.12927" lon="6.04358">
        <ele>774.8</ele>
        <time>2022-06-18T11:08:58Z</time>
      </trkpt>
      <trkpt lat="45.12931" lon="6.04352">
        <ele>774.9</ele>
        <time>2022-06-18T11:08:59Z</time>
      </trkpt>
      <trkpt lat="45.12934" lon="6.04346">
        <ele>774.9</ele>
        <time>2022-06-18T11:09:00Z</time>
      </trkpt>
      <trkpt lat="45.12938" lon="6.0434">
        <ele>774.9</ele>
        <time>2022-06-18T11:09:01Z</time>
      </trkpt>
      <trkpt lat="45.12943" lon="6.04333">
        <ele>775</ele>
        <time>2022-06-18T11:09:02Z</time>
      </trkpt>
      <trkpt lat="45.12947" lon="6.04327">
        <ele>775.1</ele>
        <time>2022-06-18T11:09:03Z</time>
      </trkpt>
      <trkpt lat="45.12951" lon="6.0432">
        <ele>775.1</ele>
        <time>2022-06-18T11:09:04Z</time>
      </trkpt>
      <trkpt lat="45.12955" lon="6.04314">
        <ele>775.2</ele>
        <time>2022-06-18T11:09:05Z</time>
      </trkpt>
      <trkpt lat="45.12958" lon="6.04307">
        <ele>775.2</ele>
        <time>2022-06-18T11:09:06Z</time>
      </trkpt>
      <trkpt lat="45.12961" lon="6.04301">
        <ele>775.3</ele>
        <time>2022-06-18T11:09:07Z</time>
      </trkpt>
      <trkpt lat="45.12965" lon="6.04294">
        <ele>775.3</ele>
        <time>2022-06-18T11:09:08Z</time>
      </trkpt>
      <trkpt lat="45.12969" lon="6.04289">
        <ele>775.3</ele>
        <time>2022-06-18T11:09:09Z</time>
      </trkpt>
      <trkpt lat="45.12972" lon="6.04283">
        <ele>775.4</ele>
        <time>2022-06-18T11:09:10Z</time>
      </trkpt>
      <trkpt lat="45.12976" lon="6.04278">
        <ele>775.4</ele>
        <time>2022-06-18T11:09:11Z</time>
      </trkpt>
      <trkpt lat="45.1298" lon="6.04272">
        <ele>775.4</ele>
        <time>2022-06-18T11:09:12Z</time>
      </trkpt>
      <trkpt lat="45.12983" lon="6.04266">
        <ele>775.5</ele>
        <time>2022-06-18T11:09:13Z</time>
      </trkpt>
      <trkpt lat="45.12987" lon="6.0426">
        <ele>775.5</ele>
        <time>2022-06-18T11:09:14Z</time>
      </trkpt>
      <trkpt lat="45.1299" lon="6.04254">
        <ele>775.6</ele>
        <time>2022-06-18T11:09:15Z</time>
      </trkpt>
      <trkpt lat="45.12994" lon="6.04248">
        <ele>775.6</ele>
        <time>2022-06-18T11:09:16Z</time>
      </trkpt>
      <trkpt lat="45.12998" lon="6.04242">
        <ele>775.7</ele>
        <time>2022-06-18T11:09:17Z</time>
      </trkpt>
      <trkpt lat="45.13001" lon="6.04237">
        <ele>775.7</ele>
        <time>2022-06-18T11:09:18Z</time>
      </trkpt>
      <trkpt lat="45.13004" lon="6.04231">
        <ele>775.8</ele>
        <time>2022-06-18T11:09:19Z</time>
      </trkpt>
      <trkpt lat="45.13008" lon="6.04225">
        <ele>775.8</ele>
        <time>2022-06-18T11:09:20Z</time>
      </trkpt>
      <trkpt lat="45.13011" lon="6.0422">
        <ele>775.8</ele>
        <time>2022-06-18T11:09:21Z</time>
      </trkpt>
      <trkpt lat="45.13015" lon="6.04214">
        <ele>775.9</ele>
        <time>2022-06-18T11:09:22Z</time>
      </trkpt>
      <trkpt lat="45.13018" lon="6.04208">
        <ele>775.9</ele>
        <time>2022-06-18T11:09:23Z</time>
      </trkpt>
      <trkpt lat="45.13022" lon="6.04202">
        <ele>776</ele>
        <time>2022-06-18T11:09:24Z</time>
      </trkpt>
      <trkpt lat="45.13026" lon="6.04197">
        <ele>776</ele>
        <time>2022-06-18T11:09:25Z</time>
      </trkpt>
      <trkpt lat="45.13029" lon="6.04191">
        <ele>776</ele>
        <time>2022-06-18T11:09:26Z</time>
      </trkpt>
      <trkpt lat="45.13033" lon="6.04185">
        <ele>776.1</ele>
        <time>2022-06-18T11:09:27Z</time>
      </trkpt>
      <trkpt lat="45.13037" lon="6.04179">
        <ele>776.1</ele>
        <time>2022-06-18T11:09:28Z</time>
      </trkpt>
      <trkpt lat="45.1304" lon="6.04172">
        <ele>776.2</ele>
        <time>2022-06-18T11:09:29Z</time>
      </trkpt>
      <trkpt lat="45.13044" lon="6.04166">
        <ele>776.3</ele>
        <time>2022-06-18T11:09:30Z</time>
      </trkpt>
      <trkpt lat="45.13048" lon="6.0416">
        <ele>776.3</ele>
        <time>2022-06-18T11:09:31Z</time>
      </trkpt>
      <trkpt lat="45.13051" lon="6.04153">
        <ele>776.4</ele>
        <time>2022-06-18T11:09:32Z</time>
      </trkpt>
      <trkpt lat="45.13055" lon="6.04147">
        <ele>776.5</ele>
        <time>2022-06-18T11:09:33Z</time>
      </trkpt>
      <trkpt lat="45.13059" lon="6.04141">
        <ele>776.5</ele>
        <time>2022-06-18T11:09:34Z</time>
      </trkpt>
      <trkpt lat="45.13062" lon="6.04135">
        <ele>776.6</ele>
        <time>2022-06-18T11:09:35Z</time>
      </trkpt>
      <trkpt lat="45.13066" lon="6.0413">
        <ele>776.7</ele>
        <time>2022-06-18T11:09:36Z</time>
      </trkpt>
      <trkpt lat="45.1307" lon="6.04125">
        <ele>776.8</ele>
        <time>2022-06-18T11:09:37Z</time>
      </trkpt>
      <trkpt lat="45.13073" lon="6.04119">
        <ele>776.8</ele>
        <time>2022-06-18T11:09:38Z</time>
      </trkpt>
      <trkpt lat="45.13076" lon="6.04113">
        <ele>776.9</ele>
        <time>2022-06-18T11:09:39Z</time>
      </trkpt>
      <trkpt lat="45.13078" lon="6.04106">
        <ele>777</ele>
        <time>2022-06-18T11:09:40Z</time>
      </trkpt>
      <trkpt lat="45.13079" lon="6.04099">
        <ele>777</ele>
        <time>2022-06-18T11:09:41Z</time>
      </trkpt>
      <trkpt lat="45.13078" lon="6.04092">
        <ele>777</ele>
        <time>2022-06-18T11:09:42Z</time>
      </trkpt>
      <trkpt lat="45.13076" lon="6.04086">
        <ele>777.1</ele>
        <time>2022-06-18T11:09:43Z</time>
      </trkpt>
      <trkpt lat="45.13071" lon="6.0408">
        <ele>777</ele>
        <time>2022-06-18T11:09:44Z</time>
      </trkpt>
      <trkpt lat="45.13066" lon="6.04078">
        <ele>777</ele>
        <time>2022-06-18T11:09:45Z</time>
      </trkpt>
      <trkpt lat="45.1306" lon="6.04077">
        <ele>776.8</ele>
        <time>2022-06-18T11:09:46Z</time>
      </trkpt>
      <trkpt lat="45.13054" lon="6.0408">
        <ele>776.3</ele>
        <time>2022-06-18T11:09:47Z</time>
      </trkpt>
      <trkpt lat="45.13048" lon="6.04086">
        <ele>775.8</ele>
        <time>2022-06-18T11:09:48Z</time>
      </trkpt>
      <trkpt lat="45.13044" lon="6.04095">
        <ele>775.3</ele>
        <time>2022-06-18T11:09:49Z</time>
      </trkpt>
      <trkpt lat="45.13042" lon="6.04106">
        <ele>774.7</ele>
        <time>2022-06-18T11:09:50Z</time>
      </trkpt>
      <trkpt lat="45.1304" lon="6.04117">
        <ele>774.1</ele>
        <time>2022-06-18T11:09:51Z</time>
      </trkpt>
      <trkpt lat="45.13038" lon="6.04129">
        <ele>773.4</ele>
        <time>2022-06-18T11:09:52Z</time>
      </trkpt>
      <trkpt lat="45.13036" lon="6.0414">
        <ele>772.8</ele>
        <time>2022-06-18T11:09:53Z</time>
      </trkpt>
      <trkpt lat="45.13032" lon="6.04151">
        <ele>772.2</ele>
        <time>2022-06-18T11:09:54Z</time>
      </trkpt>
      <trkpt lat="45.13026" lon="6.0416">
        <ele>771.5</ele>
        <time>2022-06-18T11:09:55Z</time>
      </trkpt>
      <trkpt lat="45.1302" lon="6.04168">
        <ele>770.8</ele>
        <time>2022-06-18T11:09:56Z</time>
      </trkpt>
      <trkpt lat="45.13012" lon="6.04175">
        <ele>770.1</ele>
        <time>2022-06-18T11:09:57Z</time>
      </trkpt>
      <trkpt lat="45.13005" lon="6.04183">
        <ele>769.3</ele>
        <time>2022-06-18T11:09:58Z</time>
      </trkpt>
      <trkpt lat="45.12997" lon="6.04192">
        <ele>768.5</ele>
        <time>2022-06-18T11:09:59Z</time>
      </trkpt>
      <trkpt lat="45.1299" lon="6.04201">
        <ele>767.7</ele>
        <time>2022-06-18T11:10:00Z</time>
      </trkpt>
      <trkpt lat="45.12983" lon="6.0421">
        <ele>766.9</ele>
        <time>2022-06-18T11:10:01Z</time>
      </trkpt>
      <trkpt lat="45.12976" lon="6.0422">
        <ele>766.1</ele>
        <time>2022-06-18T11:10:02Z</time>
      </trkpt>
      <trkpt lat="45.12968" lon="6.04229">
        <ele>765.3</ele>
        <time>2022-06-18T11:10:03Z</time>
      </trkpt>
      <trkpt lat="45.1296" lon="6.04238">
        <ele>764.4</ele>
        <time>2022-06-18T11:10:04Z</time>
      </trkpt>
      <trkpt lat="45.12952" lon="6.04248">
        <ele>763.6</ele>
        <time>2022-06-18T11:10:05Z</time>
      </trkpt>
      <trkpt lat="45.12943" lon="6.04258">
        <ele>762.7</ele>
        <time>2022-06-18T11:10:06Z</time>
      </trkpt>
      <trkpt lat="45.12934" lon="6.0427">
        <ele>761.8</ele>
        <time>2022-06-18T11:10:07Z</time>
      </trkpt>
      <trkpt lat="45.12925" lon="6.04281">
        <ele>760.8</ele>
        <time>2022-06-18T11:10:08Z</time>
      </trkpt>
      <trkpt lat="45.12916" lon="6.04293">
        <ele>759.9</ele>
        <time>2022-06-18T11:10:09Z</time>
      </trkpt>
      <trkpt lat="45.12907" lon="6.04304">
        <ele>758.9</ele>
        <time>2022-06-18T11:10:10Z</time>
      </trkpt>
      <trkpt lat="45.12898" lon="6.04316">
        <ele>757.9</ele>
        <time>2022-06-18T11:10:11Z</time>
      </trkpt>
      <trkpt lat="45.12888" lon="6.04328">
        <ele>756.9</ele>
        <time>2022-06-18T11:10:12Z</time>
      </trkpt>
      <trkpt lat="45.12879" lon="6.04339">
        <ele>756</ele>
        <time>2022-06-18T11:10:13Z</time>
      </trkpt>
      <trkpt lat="45.1287" lon="6.04351">
        <ele>755.1</ele>
        <time>2022-06-18T11:10:14Z</time>
      </trkpt>
      <trkpt lat="45.1286" lon="6.04363">
        <ele>754.2</ele>
        <time>2022-06-18T11:10:15Z</time>
      </trkpt>
      <trkpt lat="45.12851" lon="6.04375">
        <ele>753.3</ele>
        <time>2022-06-18T11:10:16Z</time>
      </trkpt>
      <trkpt lat="45.12841" lon="6.04387">
        <ele>752.5</ele>
        <time>2022-06-18T11:10:17Z</time>
      </trkpt>
      <trkpt lat="45.12833" lon="6.04397">
        <ele>751.8</ele>
        <time>2022-06-18T11:10:18Z</time>
      </trkpt>
      <trkpt lat="45.12825" lon="6.04407">
        <ele>751.2</ele>
        <time>2022-06-18T11:10:19Z</time>
      </trkpt>
      <trkpt lat="45.12818" lon="6.04416">
        <ele>750.8</ele>
        <time>2022-06-18T11:10:20Z</time>
      </trkpt>
      <trkpt lat="45.12812" lon="6.04422">
        <ele>750.4</ele>
        <time>2022-06-18T11:10:21Z</time>
      </trkpt>
      <trkpt lat="45.12806" lon="6.04424">
        <ele>750.1</ele>
        <time>2022-06-18T11:10:22Z</time>
      </trkpt>
      <trkpt lat="45.128" lon="6.04421">
        <ele>749.7</ele>
        <time>2022-06-18T11:10:23Z</time>
      </trkpt>
      <trkpt lat="45.12795" lon="6.04412">
        <ele>749.2</ele>
        <time>2022-06-18T11:10:24Z</time>
      </trkpt>
      <trkpt lat="45.12794" lon="6.04401">
        <ele>748.5</ele>
        <time>2022-06-18T11:10:25Z</time>
      </trkpt>
      <trkpt lat="45.12797" lon="6.04387">
        <ele>747.6</ele>
        <time>2022-06-18T11:10:26Z</time>
      </trkpt>
      <trkpt lat="45.12803" lon="6.04376">
        <ele>746.7</ele>
        <time>2022-06-18T11:10:27Z</time>
      </trkpt>
      <trkpt lat="45.12811" lon="6.04369">
        <ele>745.9</ele>
        <time>2022-06-18T11:10:28Z</time>
      </trkpt>
      <trkpt lat="45.12821" lon="6.04364">
        <ele>745.1</ele>
        <time>2022-06-18T11:10:29Z</time>
      </trkpt>
      <trkpt lat="45.12829" lon="6.0436">
        <ele>744.4</ele>
        <time>2022-06-18T11:10:30Z</time>
      </trkpt>
      <trkpt lat="45.12836" lon="6.04353">
        <ele>743.8</ele>
        <time>2022-06-18T11:10:31Z</time>
      </trkpt>
      <trkpt lat="45.12842" lon="6.04344">
        <ele>743.2</ele>
        <time>2022-06-18T11:10:32Z</time>
      </trkpt>
      <trkpt lat="45.12847" lon="6.04334">
        <ele>742.6</ele>
        <time>2022-06-18T11:10:33Z</time>
      </trkpt>
      <trkpt lat="45.12852" lon="6.04323">
        <ele>742</ele>
        <time>2022-06-18T11:10:34Z</time>
      </trkpt>
      <trkpt lat="45.12857" lon="6.04312">
        <ele>741.4</ele>
        <time>2022-06-18T11:10:35Z</time>
      </trkpt>
      <trkpt lat="45.12862" lon="6.043">
        <ele>740.7</ele>
        <time>2022-06-18T11:10:36Z</time>
      </trkpt>
      <trkpt lat="45.12867" lon="6.04288">
        <ele>740.1</ele>
        <time>2022-06-18T11:10:37Z</time>
      </trkpt>
      <trkpt lat="45.12873" lon="6.04276">
        <ele>739.4</ele>
        <time>2022-06-18T11:10:38Z</time>
      </trkpt>
      <trkpt lat="45.12879" lon="6.04263">
        <ele>738.7</ele>
        <time>2022-06-18T11:10:39Z</time>
      </trkpt>
      <trkpt lat="45.12885" lon="6.04251">
        <ele>738</ele>
        <time>2022-06-18T11:10:40Z</time>
      </trkpt>
      <trkpt lat="45.12891" lon="6.04238">
        <ele>737.3</ele>
        <time>2022-06-18T11:10:41Z</time>
      </trkpt>
      <trkpt lat="45.12896" lon="6.04226">
        <ele>736.6</ele>
        <time>2022-06-18T11:10:42Z</time>
      </trkpt>
      <trkpt lat="45.12902" lon="6.04214">
        <ele>736</ele>
        <time>2022-06-18T11:10:43Z</time>
      </trkpt>
      <trkpt lat="45.12908" lon="6.04202">
        <ele>735.5</ele>
        <time>2022-06-18T11:10:44Z</time>
      </trkpt>
      <trkpt lat="45.12913" lon="6.04191">
        <ele>735.1</ele>
        <time>2022-06-18T11:10:45Z</time>
      </trkpt>
      <trkpt lat="45.12918" lon="6.04181">
        <ele>734.7</ele>
        <time>2022-06-18T11:10:46Z</time>
      </trkpt>
      <trkpt lat="45.1292" lon="6.0417">
        <ele>734.6</ele>
        <time>2022-06-18T11:10:47Z</time>
      </trkpt>
      <trkpt lat="45.1292" lon="6.04159">
        <ele>734.6</ele>
        <time>2022-06-18T11:10:48Z</time>
      </trkpt>
      <trkpt lat="45.12918" lon="6.04147">
        <ele>734.7</ele>
        <time>2022-06-18T11:10:49Z</time>
      </trkpt>
      <trkpt lat="45.12915" lon="6.04135">
        <ele>734.6</ele>
        <time>2022-06-18T11:10:50Z</time>
      </trkpt>
      <trkpt lat="45.12911" lon="6.04124">
        <ele>734.5</ele>
        <time>2022-06-18T11:10:51Z</time>
      </trkpt>
      <trkpt lat="45.12906" lon="6.04115">
        <ele>734.4</ele>
        <time>2022-06-18T11:10:52Z</time>
      </trkpt>
      <trkpt lat="45.12901" lon="6.04107">
        <ele>734.4</ele>
        <time>2022-06-18T11:10:53Z</time>
      </trkpt>
      <trkpt lat="45.12897" lon="6.041">
        <ele>734.3</ele>
        <time>2022-06-18T11:10:54Z</time>
      </trkpt>
      <trkpt lat="45.12894" lon="6.04095">
        <ele>734.3</ele>
        <time>2022-06-18T11:10:55Z</time>
      </trkpt>
      <trkpt lat="45.12892" lon="6.04092">
        <ele>734.3</ele>
        <time>2022-06-18T11:10:56Z</time>
      </trkpt>
      <trkpt lat="45.12891" lon="6.04089">
        <ele>734.2</ele>
        <time>2022-06-18T11:10:57Z</time>
      </trkpt>
      <trkpt lat="45.1289" lon="6.04085">
        <ele>734.2</ele>
        <time>2022-06-18T11:10:58Z</time>
      </trkpt>
      <trkpt lat="45.12889" lon="6.0408">
        <ele>734.1</ele>
        <time>2022-06-18T11:10:59Z</time>
      </trkpt>
      <trkpt lat="45.12887" lon="6.04076">
        <ele>734.1</ele>
        <time>2022-06-18T11:11:00Z</time>
      </trkpt>
      <trkpt lat="45.12886" lon="6.04074">
        <ele>734.1</ele>
        <time>2022-06-18T11:11:01Z</time>
      </trkpt>
      <trkpt lat="45.12883" lon="6.04071">
        <ele>734</ele>
        <time>2022-06-18T11:11:02Z</time>
      </trkpt>
      <trkpt lat="45.12882" lon="6.04068">
        <ele>734</ele>
        <time>2022-06-18T11:11:04Z</time>
      </trkpt>
      <trkpt lat="45.12879" lon="6.0407">
        <ele>733.4</ele>
        <time>2022-06-18T11:11:05Z</time>
      </trkpt>
      <trkpt lat="45.12876" lon="6.04072">
        <ele>733.4</ele>
        <time>2022-06-18T11:11:06Z</time>
      </trkpt>
      <trkpt lat="45.12873" lon="6.04075">
        <ele>733.3</ele>
        <time>2022-06-18T11:11:07Z</time>
      </trkpt>
      <trkpt lat="45.1287" lon="6.04078">
        <ele>732.8</ele>
        <time>2022-06-18T11:11:08Z</time>
      </trkpt>
      <trkpt lat="45.12867" lon="6.04082">
        <ele>732.6</ele>
        <time>2022-06-18T11:11:09Z</time>
      </trkpt>
      <trkpt lat="45.12863" lon="6.04086">
        <ele>731.9</ele>
        <time>2022-06-18T11:11:10Z</time>
      </trkpt>
      <trkpt lat="45.12858" lon="6.04092">
        <ele>731.8</ele>
        <time>2022-06-18T11:11:11Z</time>
      </trkpt>
      <trkpt lat="45.12855" lon="6.04096">
        <ele>731.6</ele>
        <time>2022-06-18T11:11:12Z</time>
      </trkpt>
      <trkpt lat="45.12852" lon="6.04099">
        <ele>731.6</ele>
        <time>2022-06-18T11:11:13Z</time>
      </trkpt>
      <trkpt lat="45.12848" lon="6.04102">
        <ele>731.4</ele>
        <time>2022-06-18T11:11:14Z</time>
      </trkpt>
      <trkpt lat="45.12844" lon="6.04104">
        <ele>731.3</ele>
        <time>2022-06-18T11:11:15Z</time>
      </trkpt>
      <trkpt lat="45.12841" lon="6.04105">
        <ele>731.3</ele>
        <time>2022-06-18T11:11:16Z</time>
      </trkpt>
      <trkpt lat="45.1284" lon="6.04105">
        <ele>731.2</ele>
        <time>2022-06-18T11:11:17Z</time>
      </trkpt>
      <trkpt lat="45.1284" lon="6.04104">
        <ele>731.2</ele>
        <time>2022-06-18T11:11:19Z</time>
      </trkpt>
      <trkpt lat="45.1284" lon="6.04102">
        <ele>731.2</ele>
        <time>2022-06-18T11:11:20Z</time>
      </trkpt>
      <trkpt lat="45.12839" lon="6.04101">
        <ele>731.2</ele>
        <time>2022-06-18T11:11:21Z</time>
      </trkpt>
      <trkpt lat="45.12839" lon="6.041">
        <ele>731.1</ele>
        <time>2022-06-18T11:11:23Z</time>
      </trkpt>
      <trkpt lat="45.1284" lon="6.041">
        <ele>731.1</ele>
        <time>2022-06-18T11:11:24Z</time>
      </trkpt>
      <trkpt lat="45.12841" lon="6.04099">
        <ele>731.1</ele>
        <time>2022-06-18T11:11:25Z</time>
      </trkpt>
      <trkpt lat="45.12841" lon="6.04098">
        <ele>731.1</ele>
        <time>2022-06-18T11:11:26Z</time>
      </trkpt>
      <trkpt lat="45.12842" lon="6.04097">
        <ele>731</ele>
        <time>2022-06-18T11:11:27Z</time>
      </trkpt>
      <trkpt lat="45.12843" lon="6.04096">
        <ele>731</ele>
        <time>2022-06-18T11:11:28Z</time>
      </trkpt>
      <trkpt lat="45.12844" lon="6.04096">
        <ele>731</ele>
        <time>2022-06-18T11:11:29Z</time>
      </trkpt>
      <trkpt lat="45.12844" lon="6.04095">
        <ele>731</ele>
        <time>2022-06-18T11:11:30Z</time>
      </trkpt>
      <trkpt lat="45.12845" lon="6.04094">
        <ele>731</ele>
        <time>2022-06-18T11:11:31Z</time>
      </trkpt>
      <trkpt lat="45.12846" lon="6.04093">
        <ele>730.9</ele>
        <time>2022-06-18T11:11:32Z</time>
      </trkpt>
      <trkpt lat="45.12846" lon="6.04093">
        <ele>730.9</ele>
        <time>2022-06-18T11:11:33Z</time>
      </trkpt>
      <trkpt lat="45.12847" lon="6.04092">
        <ele>730.9</ele>
        <time>2022-06-18T11:11:34Z</time>
      </trkpt>
      <trkpt lat="45.12848" lon="6.04091">
        <ele>730.9</ele>
        <time>2022-06-18T11:12:43Z</time>
      </trkpt>
      <trkpt lat="45.12848" lon="6.0409">
        <ele>730.8</ele>
        <time>2022-06-18T11:12:45Z</time>
      </trkpt>
      <trkpt lat="45.12849" lon="6.04089">
        <ele>730.8</ele>
        <time>2022-06-18T11:12:46Z</time>
      </trkpt>
      <trkpt lat="45.12849" lon="6.04088">
        <ele>730.8</ele>
        <time>2022-06-18T11:12:48Z</time>
      </trkpt>
      <trkpt lat="45.12849" lon="6.04086">
        <ele>730.8</ele>
        <time>2022-06-18T11:12:49Z</time>
      </trkpt>
      <trkpt lat="45.1285" lon="6.04085">
        <ele>730.7</ele>
        <time>2022-06-18T11:12:50Z</time>
      </trkpt>
      <trkpt lat="45.1285" lon="6.04083">
        <ele>730.7</ele>
        <time>2022-06-18T11:12:51Z</time>
      </trkpt>
      <trkpt lat="45.12851" lon="6.04082">
        <ele>730.7</ele>
        <time>2022-06-18T11:12:52Z</time>
      </trkpt>
      <trkpt lat="45.12851" lon="6.04081">
        <ele>730.7</ele>
        <time>2022-06-18T11:12:53Z</time>
      </trkpt>
      <trkpt lat="45.12852" lon="6.04079">
        <ele>730.6</ele>
        <time>2022-06-18T11:12:54Z</time>
      </trkpt>
    </trkseg>
  </trk>
</gpx>